<?xml version='1.0' encoding='UTF-8'?><gpx version="1.1" creator="JPX - https://github.com/jenetics/jpx" xmlns="http://www.topografix.com/GPX/1/1"><trk><trkseg><trkpt lat="38.1723975" lon="15.6643436"><ele>68.0</ele><time>2026-04-11T05:51:44.343Z</time></trkpt><trkpt lat="38.1722911" lon="15.6642642"><ele>68.0</ele><time>2026-04-11T05:51:45.343Z</time></trkpt><trkpt lat="38.1721998" lon="15.6641798"><ele>68.0</ele><time>2026-04-11T05:51:46.343Z</time></trkpt><trkpt lat="38.172129" lon="15.6640813"><ele>68.0</ele><time>2026-04-11T05:51:47.343Z</time></trkpt><trkpt lat="38.1720528" lon="15.6639874"><ele>68.0</ele><time>2026-04-11T05:51:48.343Z</time></trkpt><trkpt lat="38.1719752" lon="15.663899"><ele>68.0</ele><time>2026-04-11T05:51:49.343Z</time></trkpt><trkpt lat="38.171894" lon="15.6638049"><ele>68.0</ele><time>2026-04-11T05:51:50.343Z</time></trkpt><trkpt lat="38.1718244" lon="15.6637014"><ele>68.0</ele><time>2026-04-11T05:51:51.344Z</time></trkpt><trkpt lat="38.1717637" lon="15.663607"><ele>68.0</ele><time>2026-04-11T05:51:52.343Z</time></trkpt><trkpt lat="38.1717112" lon="15.6635139"><ele>68.0</ele><time>2026-04-11T05:51:53.343Z</time></trkpt><trkpt lat="38.1716634" lon="15.663418"><ele>67.5</ele><time>2026-04-11T05:51:54.343Z</time></trkpt><trkpt lat="38.1716143" lon="15.6633303"><ele>67.0</ele><time>2026-04-11T05:51:55.343Z</time></trkpt><trkpt lat="38.1715669" lon="15.6632592"><ele>66.5</ele><time>2026-04-11T05:51:56.344Z</time></trkpt><trkpt lat="38.1715263" lon="15.6631929"><ele>66.0</ele><time>2026-04-11T05:51:57.343Z</time></trkpt><trkpt lat="38.1714717" lon="15.6630479"><ele>65.5</ele><time>2026-04-11T05:51:59.343Z</time></trkpt><trkpt lat="38.1714626" lon="15.6629545"><ele>65.0</ele><time>2026-04-11T05:52:00.343Z</time></trkpt><trkpt lat="38.1714581" lon="15.6628384"><ele>63.8</ele><time>2026-04-11T05:52:01.344Z</time></trkpt><trkpt lat="38.1714488" lon="15.6627086"><ele>62.6</ele><time>2026-04-11T05:52:02.343Z</time></trkpt><trkpt lat="38.1714366" lon="15.6625746"><ele>61.400000000000006</ele><time>2026-04-11T05:52:03.344Z</time></trkpt><trkpt lat="38.1714283" lon="15.6624483"><ele>60.2</ele><time>2026-04-11T05:52:04.344Z</time></trkpt><trkpt lat="38.1714241" lon="15.6623064"><ele>59.0</ele><time>2026-04-11T05:52:05.343Z</time></trkpt><trkpt lat="38.171424" lon="15.6621567"><ele>59.0</ele><time>2026-04-11T05:52:06.343Z</time></trkpt><trkpt lat="38.1714257" lon="15.6620237"><ele>59.00000000000001</ele><time>2026-04-11T05:52:07.343Z</time></trkpt><trkpt lat="38.1714265" lon="15.6618999"><ele>59.00000000000001</ele><time>2026-04-11T05:52:08.343Z</time></trkpt><trkpt lat="38.171428" lon="15.6617624"><ele>59.0</ele><time>2026-04-11T05:52:09.344Z</time></trkpt><trkpt lat="38.171437" lon="15.6616315"><ele>59.0</ele><time>2026-04-11T05:52:10.343Z</time></trkpt><trkpt lat="38.1714383" lon="15.6614971"><ele>58.5</ele><time>2026-04-11T05:52:11.343Z</time></trkpt><trkpt lat="38.1714158" lon="15.6613606"><ele>58.0</ele><time>2026-04-11T05:52:12.343Z</time></trkpt><trkpt lat="38.1713838" lon="15.6612238"><ele>57.5</ele><time>2026-04-11T05:52:13.344Z</time></trkpt><trkpt lat="38.1713508" lon="15.6610898"><ele>57.0</ele><time>2026-04-11T05:52:14.343Z</time></trkpt><trkpt lat="38.1713131" lon="15.6609482"><ele>57.0</ele><time>2026-04-11T05:52:15.343Z</time></trkpt><trkpt lat="38.1712678" lon="15.6608078"><ele>57.0</ele><time>2026-04-11T05:52:16.344Z</time></trkpt><trkpt lat="38.1712266" lon="15.6606646"><ele>57.0</ele><time>2026-04-11T05:52:17.343Z</time></trkpt><trkpt lat="38.1711836" lon="15.6605425"><ele>57.0</ele><time>2026-04-11T05:52:18.343Z</time></trkpt><trkpt lat="38.1711638" lon="15.6604242"><ele>57.0</ele><time>2026-04-11T05:52:19.343Z</time></trkpt><trkpt lat="38.1711182" lon="15.6602906"><ele>55.75</ele><time>2026-04-11T05:52:20.343Z</time></trkpt><trkpt lat="38.1710679" lon="15.6601674"><ele>54.5</ele><time>2026-04-11T05:52:21.343Z</time></trkpt><trkpt lat="38.1710099" lon="15.6600341"><ele>53.25</ele><time>2026-04-11T05:52:22.343Z</time></trkpt><trkpt lat="38.1709523" lon="15.6599077"><ele>52.0</ele><time>2026-04-11T05:52:23.344Z</time></trkpt><trkpt lat="38.170901" lon="15.6597796"><ele>52.0</ele><time>2026-04-11T05:52:24.343Z</time></trkpt><trkpt lat="38.1708489" lon="15.6596495"><ele>52.0</ele><time>2026-04-11T05:52:25.343Z</time></trkpt><trkpt lat="38.1708068" lon="15.6595239"><ele>52.0</ele><time>2026-04-11T05:52:26.343Z</time></trkpt><trkpt lat="38.1707639" lon="15.6593948"><ele>52.0</ele><time>2026-04-11T05:52:27.343Z</time></trkpt><trkpt lat="38.1707156" lon="15.659261"><ele>52.0</ele><time>2026-04-11T05:52:28.343Z</time></trkpt><trkpt lat="38.1706565" lon="15.6591307"><ele>50.0</ele><time>2026-04-11T05:52:29.343Z</time></trkpt><trkpt lat="38.1705942" lon="15.6590027"><ele>48.0</ele><time>2026-04-11T05:52:30.343Z</time></trkpt><trkpt lat="38.1705263" lon="15.6588833"><ele>46.0</ele><time>2026-04-11T05:52:31.343Z</time></trkpt><trkpt lat="38.170462" lon="15.6587636"><ele>44.0</ele><time>2026-04-11T05:52:32.343Z</time></trkpt><trkpt lat="38.1703941" lon="15.6586469"><ele>43.2</ele><time>2026-04-11T05:52:33.343Z</time></trkpt><trkpt lat="38.1703215" lon="15.658537"><ele>42.400000000000006</ele><time>2026-04-11T05:52:34.343Z</time></trkpt><trkpt lat="38.1702597" lon="15.6584202"><ele>41.6</ele><time>2026-04-11T05:52:35.343Z</time></trkpt><trkpt lat="38.1701971" lon="15.6583045"><ele>40.8</ele><time>2026-04-11T05:52:36.343Z</time></trkpt><trkpt lat="38.1701456" lon="15.658191"><ele>40.0</ele><time>2026-04-11T05:52:37.343Z</time></trkpt><trkpt lat="38.1701081" lon="15.6580786"><ele>40.0</ele><time>2026-04-11T05:52:38.343Z</time></trkpt><trkpt lat="38.1700916" lon="15.6579426"><ele>40.0</ele><time>2026-04-11T05:52:39.343Z</time></trkpt><trkpt lat="38.1700899" lon="15.6578044"><ele>40.0</ele><time>2026-04-11T05:52:40.343Z</time></trkpt><trkpt lat="38.170112" lon="15.6576511"><ele>40.0</ele><time>2026-04-11T05:52:41.343Z</time></trkpt><trkpt lat="38.1701391" lon="15.6575088"><ele>39.8</ele><time>2026-04-11T05:52:42.343Z</time></trkpt><trkpt lat="38.1701563" lon="15.6573659"><ele>39.6</ele><time>2026-04-11T05:52:43.343Z</time></trkpt><trkpt lat="38.1701566" lon="15.6572415"><ele>39.4</ele><time>2026-04-11T05:52:44.343Z</time></trkpt><trkpt lat="38.1701451" lon="15.6571229"><ele>39.2</ele><time>2026-04-11T05:52:45.343Z</time></trkpt><trkpt lat="38.1701254" lon="15.657008"><ele>39.0</ele><time>2026-04-11T05:52:46.344Z</time></trkpt><trkpt lat="38.1700915" lon="15.6568878"><ele>38.6</ele><time>2026-04-11T05:52:47.343Z</time></trkpt><trkpt lat="38.1700453" lon="15.6567744"><ele>38.2</ele><time>2026-04-11T05:52:48.343Z</time></trkpt><trkpt lat="38.169992" lon="15.6566611"><ele>37.800000000000004</ele><time>2026-04-11T05:52:49.344Z</time></trkpt><trkpt lat="38.1699463" lon="15.6565411"><ele>37.4</ele><time>2026-04-11T05:52:50.343Z</time></trkpt><trkpt lat="38.1698997" lon="15.6564266"><ele>37.0</ele><time>2026-04-11T05:52:51.343Z</time></trkpt><trkpt lat="38.1698539" lon="15.6563178"><ele>36.4</ele><time>2026-04-11T05:52:52.344Z</time></trkpt><trkpt lat="38.1698073" lon="15.6562057"><ele>35.800000000000004</ele><time>2026-04-11T05:52:53.344Z</time></trkpt><trkpt lat="38.1697724" lon="15.6560827"><ele>35.2</ele><time>2026-04-11T05:52:54.343Z</time></trkpt><trkpt lat="38.1697381" lon="15.6559704"><ele>34.6</ele><time>2026-04-11T05:52:55.343Z</time></trkpt><trkpt lat="38.1697046" lon="15.655859"><ele>34.0</ele><time>2026-04-11T05:52:56.343Z</time></trkpt><trkpt lat="38.1696699" lon="15.6557562"><ele>33.4</ele><time>2026-04-11T05:52:57.343Z</time></trkpt><trkpt lat="38.1696274" lon="15.6556501"><ele>32.8</ele><time>2026-04-11T05:52:58.344Z</time></trkpt><trkpt lat="38.1695771" lon="15.6555449"><ele>32.2</ele><time>2026-04-11T05:52:59.343Z</time></trkpt><trkpt lat="38.169534" lon="15.6554546"><ele>31.6</ele><time>2026-04-11T05:53:00.343Z</time></trkpt><trkpt lat="38.1694984" lon="15.6553498"><ele>31.0</ele><time>2026-04-11T05:53:01.344Z</time></trkpt><trkpt lat="38.1694646" lon="15.6552388"><ele>30.8</ele><time>2026-04-11T05:53:02.343Z</time></trkpt><trkpt lat="38.1694343" lon="15.6551224"><ele>30.6</ele><time>2026-04-11T05:53:03.343Z</time></trkpt><trkpt lat="38.1693954" lon="15.6549918"><ele>30.4</ele><time>2026-04-11T05:53:04.343Z</time></trkpt><trkpt lat="38.1693479" lon="15.6548698"><ele>30.2</ele><time>2026-04-11T05:53:05.344Z</time></trkpt><trkpt lat="38.16929" lon="15.6547539"><ele>30.0</ele><time>2026-04-11T05:53:06.343Z</time></trkpt><trkpt lat="38.1692386" lon="15.6546313"><ele>30.0</ele><time>2026-04-11T05:53:07.343Z</time></trkpt><trkpt lat="38.1691912" lon="15.6544995"><ele>30.0</ele><time>2026-04-11T05:53:08.343Z</time></trkpt><trkpt lat="38.169146" lon="15.6543646"><ele>30.0</ele><time>2026-04-11T05:53:09.343Z</time></trkpt><trkpt lat="38.1690975" lon="15.6542425"><ele>30.0</ele><time>2026-04-11T05:53:10.343Z</time></trkpt><trkpt lat="38.1690349" lon="15.6541253"><ele>30.0</ele><time>2026-04-11T05:53:11.343Z</time></trkpt><trkpt lat="38.1689785" lon="15.6539964"><ele>29.2</ele><time>2026-04-11T05:53:12.343Z</time></trkpt><trkpt lat="38.1689225" lon="15.6538726"><ele>28.4</ele><time>2026-04-11T05:53:13.343Z</time></trkpt><trkpt lat="38.1688722" lon="15.6537655"><ele>27.6</ele><time>2026-04-11T05:53:14.343Z</time></trkpt><trkpt lat="38.1688211" lon="15.6536729"><ele>26.8</ele><time>2026-04-11T05:53:15.343Z</time></trkpt><trkpt lat="38.1687844" lon="15.6535845"><ele>26.0</ele><time>2026-04-11T05:53:16.343Z</time></trkpt><trkpt lat="38.1687495" lon="15.6535002"><ele>26.0</ele><time>2026-04-11T05:53:17.343Z</time></trkpt><trkpt lat="38.1687222" lon="15.6534217"><ele>26.0</ele><time>2026-04-11T05:53:18.343Z</time></trkpt><trkpt lat="38.1686873" lon="15.6533464"><ele>26.0</ele><time>2026-04-11T05:53:19.344Z</time></trkpt><trkpt lat="38.1686598" lon="15.6532697"><ele>26.0</ele><time>2026-04-11T05:53:20.343Z</time></trkpt><trkpt lat="38.1686271" lon="15.6531942"><ele>26.0</ele><time>2026-04-11T05:53:21.343Z</time></trkpt><trkpt lat="38.1685887" lon="15.6530844"><ele>26.0</ele><time>2026-04-11T05:53:23.344Z</time></trkpt><trkpt lat="38.1685647" lon="15.6530049"><ele>26.0</ele><time>2026-04-11T05:53:27.343Z</time></trkpt><trkpt lat="38.1685357" lon="15.6528817"><ele>25.6</ele><time>2026-04-11T05:53:30.343Z</time></trkpt><trkpt lat="38.1685177" lon="15.652779"><ele>25.200000000000003</ele><time>2026-04-11T05:53:32.343Z</time></trkpt><trkpt lat="38.1684837" lon="15.6526935"><ele>24.799999999999997</ele><time>2026-04-11T05:53:35.343Z</time></trkpt><trkpt lat="38.1684546" lon="15.6526042"><ele>24.4</ele><time>2026-04-11T06:04:02.343Z</time></trkpt><trkpt lat="38.1685213" lon="15.6525602"><ele>24.0</ele><time>2026-04-11T06:04:04.344Z</time></trkpt><trkpt lat="38.1686504" lon="15.6524872"><ele>24.0</ele><time>2026-04-11T06:04:06.343Z</time></trkpt><trkpt lat="38.1687363" lon="15.6524272"><ele>24.0</ele><time>2026-04-11T06:04:07.343Z</time></trkpt><trkpt lat="38.1688275" lon="15.6523481"><ele>24.0</ele><time>2026-04-11T06:04:08.343Z</time></trkpt><trkpt lat="38.1689189" lon="15.6522676"><ele>24.0</ele><time>2026-04-11T06:04:09.343Z</time></trkpt><trkpt lat="38.1690152" lon="15.6521949"><ele>24.0</ele><time>2026-04-11T06:04:10.344Z</time></trkpt><trkpt lat="38.1691086" lon="15.6521277"><ele>24.0</ele><time>2026-04-11T06:04:11.343Z</time></trkpt><trkpt lat="38.1691926" lon="15.6520705"><ele>24.0</ele><time>2026-04-11T06:04:12.344Z</time></trkpt><trkpt lat="38.1692695" lon="15.6520205"><ele>24.0</ele><time>2026-04-11T06:04:13.343Z</time></trkpt><trkpt lat="38.1693462" lon="15.6519747"><ele>24.0</ele><time>2026-04-11T06:04:14.344Z</time></trkpt><trkpt lat="38.1694182" lon="15.6519333"><ele>24.0</ele><time>2026-04-11T06:04:15.343Z</time></trkpt><trkpt lat="38.1694849" lon="15.6518982"><ele>24.0</ele><time>2026-04-11T06:04:16.343Z</time></trkpt><trkpt lat="38.1695481" lon="15.6518612"><ele>24.0</ele><time>2026-04-11T06:04:17.344Z</time></trkpt><trkpt lat="38.1696123" lon="15.6518266"><ele>24.0</ele><time>2026-04-11T06:04:18.343Z</time></trkpt><trkpt lat="38.1696731" lon="15.651782"><ele>24.0</ele><time>2026-04-11T06:04:19.343Z</time></trkpt><trkpt lat="38.1697398" lon="15.6517436"><ele>24.0</ele><time>2026-04-11T06:04:20.344Z</time></trkpt><trkpt lat="38.1698192" lon="15.6517328"><ele>24.0</ele><time>2026-04-11T06:04:21.343Z</time></trkpt><trkpt lat="38.1699164" lon="15.6517871"><ele>24.0</ele><time>2026-04-11T06:04:23.343Z</time></trkpt><trkpt lat="38.1699655" lon="15.6518503"><ele>23.833333333333332</ele><time>2026-04-11T06:04:24.343Z</time></trkpt><trkpt lat="38.1700311" lon="15.6518786"><ele>23.666666666666668</ele><time>2026-04-11T06:04:25.343Z</time></trkpt><trkpt lat="38.1701043" lon="15.6518713"><ele>23.5</ele><time>2026-04-11T06:04:26.343Z</time></trkpt><trkpt lat="38.1701688" lon="15.6518513"><ele>23.333333333333336</ele><time>2026-04-11T06:04:27.343Z</time></trkpt><trkpt lat="38.1702445" lon="15.6519126"><ele>23.166666666666668</ele><time>2026-04-11T06:04:29.343Z</time></trkpt><trkpt lat="38.1702896" lon="15.6520454"><ele>23.0</ele><time>2026-04-11T06:04:31.343Z</time></trkpt><trkpt lat="38.1703138" lon="15.6521255"><ele>23.333333333333336</ele><time>2026-04-11T06:04:32.343Z</time></trkpt><trkpt lat="38.1703423" lon="15.6522034"><ele>23.666666666666668</ele><time>2026-04-11T06:04:33.343Z</time></trkpt><trkpt lat="38.1703799" lon="15.6523016"><ele>24.0</ele><time>2026-04-11T06:04:34.343Z</time></trkpt><trkpt lat="38.1704123" lon="15.6523722"><ele>24.333333333333336</ele><time>2026-04-11T06:04:35.343Z</time></trkpt><trkpt lat="38.1704298" lon="15.6524511"><ele>24.666666666666668</ele><time>2026-04-11T06:04:36.343Z</time></trkpt><trkpt lat="38.1704395" lon="15.6526125"><ele>25.0</ele><time>2026-04-11T06:04:38.343Z</time></trkpt><trkpt lat="38.1704326" lon="15.6526945"><ele>25.000000000000004</ele><time>2026-04-11T06:04:39.343Z</time></trkpt><trkpt lat="38.1704015" lon="15.6528272"><ele>25.0</ele><time>2026-04-11T06:04:41.343Z</time></trkpt><trkpt lat="38.170354" lon="15.6529178"><ele>25.0</ele><time>2026-04-11T06:04:43.343Z</time></trkpt><trkpt lat="38.1703515" lon="15.6530093"><ele>25.0</ele><time>2026-04-11T06:04:45.343Z</time></trkpt><trkpt lat="38.1703" lon="15.6529241"><ele>25.000000000000004</ele><time>2026-04-11T06:46:25.337Z</time></trkpt><trkpt lat="38.1702484" lon="15.6528537"><ele>25.0</ele><time>2026-04-11T06:46:28.336Z</time></trkpt><trkpt lat="38.170246" lon="15.6527503"><ele>25.000000000000004</ele><time>2026-04-11T06:49:59.336Z</time></trkpt><trkpt lat="38.1702607" lon="15.6526632"><ele>25.0</ele><time>2026-04-11T06:50:01.337Z</time></trkpt><trkpt lat="38.1703168" lon="15.6525997"><ele>25.0</ele><time>2026-04-11T06:50:03.336Z</time></trkpt><trkpt lat="38.1703966" lon="15.6525429"><ele>25.0</ele><time>2026-04-11T06:50:05.336Z</time></trkpt><trkpt lat="38.1704659" lon="15.652447"><ele>25.000000000000004</ele><time>2026-04-11T06:50:07.336Z</time></trkpt><trkpt lat="38.1704915" lon="15.6523133"><ele>25.0</ele><time>2026-04-11T06:50:09.336Z</time></trkpt><trkpt lat="38.170484" lon="15.6522264"><ele>25.000000000000004</ele><time>2026-04-11T06:50:11.335Z</time></trkpt><trkpt lat="38.1704645" lon="15.6521267"><ele>25.0</ele><time>2026-04-11T06:50:14.336Z</time></trkpt><trkpt lat="38.1704236" lon="15.6520234"><ele>25.0</ele><time>2026-04-11T06:50:17.335Z</time></trkpt><trkpt lat="38.1703865" lon="15.6519351"><ele>25.0</ele><time>2026-04-11T06:50:19.335Z</time></trkpt><trkpt lat="38.1703389" lon="15.651866"><ele>25.000000000000004</ele><time>2026-04-11T06:50:21.335Z</time></trkpt><trkpt lat="38.1702591" lon="15.6518026"><ele>25.0</ele><time>2026-04-11T06:50:23.336Z</time></trkpt><trkpt lat="38.170154" lon="15.6517798"><ele>24.666666666666668</ele><time>2026-04-11T06:50:25.336Z</time></trkpt><trkpt lat="38.1700547" lon="15.6518202"><ele>24.333333333333336</ele><time>2026-04-11T06:50:27.336Z</time></trkpt><trkpt lat="38.1699733" lon="15.6518678"><ele>24.0</ele><time>2026-04-11T06:50:29.336Z</time></trkpt><trkpt lat="38.1699091" lon="15.6518612"><ele>23.666666666666668</ele><time>2026-04-11T06:50:31.335Z</time></trkpt><trkpt lat="38.1698672" lon="15.6517988"><ele>23.333333333333336</ele><time>2026-04-11T06:50:35.336Z</time></trkpt><trkpt lat="38.1698952" lon="15.6516856"><ele>23.0</ele><time>2026-04-11T06:50:43.335Z</time></trkpt><trkpt lat="38.1699902" lon="15.6516465"><ele>23.0</ele><time>2026-04-11T06:50:45.336Z</time></trkpt><trkpt lat="38.1701077" lon="15.6516319"><ele>23.0</ele><time>2026-04-11T06:50:47.335Z</time></trkpt><trkpt lat="38.1702169" lon="15.6516413"><ele>23.0</ele><time>2026-04-11T06:50:49.335Z</time></trkpt><trkpt lat="38.1703237" lon="15.6516848"><ele>23.0</ele><time>2026-04-11T06:50:51.335Z</time></trkpt><trkpt lat="38.1704059" lon="15.6517556"><ele>23.0</ele><time>2026-04-11T06:50:53.335Z</time></trkpt><trkpt lat="38.1704892" lon="15.6518579"><ele>23.0</ele><time>2026-04-11T06:50:55.335Z</time></trkpt><trkpt lat="38.1705276" lon="15.6519346"><ele>23.0</ele><time>2026-04-11T06:50:56.335Z</time></trkpt><trkpt lat="38.1705686" lon="15.6520126"><ele>23.0</ele><time>2026-04-11T06:50:57.335Z</time></trkpt><trkpt lat="38.1705991" lon="15.6520961"><ele>23.0</ele><time>2026-04-11T06:50:58.336Z</time></trkpt><trkpt lat="38.1706271" lon="15.6521873"><ele>23.0</ele><time>2026-04-11T06:50:59.336Z</time></trkpt><trkpt lat="38.1706442" lon="15.6522905"><ele>23.0</ele><time>2026-04-11T06:51:00.335Z</time></trkpt><trkpt lat="38.1706465" lon="15.6523977"><ele>23.4</ele><time>2026-04-11T06:51:01.336Z</time></trkpt><trkpt lat="38.1706511" lon="15.6525069"><ele>23.799999999999997</ele><time>2026-04-11T06:51:02.335Z</time></trkpt><trkpt lat="38.1706532" lon="15.6526339"><ele>24.2</ele><time>2026-04-11T06:51:03.336Z</time></trkpt><trkpt lat="38.1706567" lon="15.6527629"><ele>24.6</ele><time>2026-04-11T06:51:04.335Z</time></trkpt><trkpt lat="38.1706606" lon="15.6528991"><ele>25.0</ele><time>2026-04-11T06:51:05.336Z</time></trkpt><trkpt lat="38.170679" lon="15.6530365"><ele>25.75</ele><time>2026-04-11T06:51:06.335Z</time></trkpt><trkpt lat="38.1707085" lon="15.6531809"><ele>26.5</ele><time>2026-04-11T06:51:07.335Z</time></trkpt><trkpt lat="38.170738" lon="15.6533275"><ele>27.25</ele><time>2026-04-11T06:51:08.336Z</time></trkpt><trkpt lat="38.1707687" lon="15.6534745"><ele>28.0</ele><time>2026-04-11T06:51:09.335Z</time></trkpt><trkpt lat="38.1708023" lon="15.6536214"><ele>28.25</ele><time>2026-04-11T06:51:10.335Z</time></trkpt><trkpt lat="38.1708447" lon="15.6537774"><ele>28.5</ele><time>2026-04-11T06:51:11.336Z</time></trkpt><trkpt lat="38.1708869" lon="15.6539452"><ele>28.75</ele><time>2026-04-11T06:51:12.335Z</time></trkpt><trkpt lat="38.1709344" lon="15.6541085"><ele>29.0</ele><time>2026-04-11T06:51:13.335Z</time></trkpt><trkpt lat="38.1709803" lon="15.6542791"><ele>29.0</ele><time>2026-04-11T06:51:14.335Z</time></trkpt><trkpt lat="38.1710224" lon="15.6544497"><ele>29.0</ele><time>2026-04-11T06:51:15.336Z</time></trkpt><trkpt lat="38.1710627" lon="15.6546198"><ele>29.0</ele><time>2026-04-11T06:51:16.335Z</time></trkpt><trkpt lat="38.1711111" lon="15.6547837"><ele>29.0</ele><time>2026-04-11T06:51:17.335Z</time></trkpt><trkpt lat="38.1711592" lon="15.6549422"><ele>29.75</ele><time>2026-04-11T06:51:18.336Z</time></trkpt><trkpt lat="38.1712094" lon="15.6551038"><ele>30.5</ele><time>2026-04-11T06:51:19.335Z</time></trkpt><trkpt lat="38.1712679" lon="15.6552549"><ele>31.25</ele><time>2026-04-11T06:51:20.335Z</time></trkpt><trkpt lat="38.1713188" lon="15.6554084"><ele>32.0</ele><time>2026-04-11T06:51:21.336Z</time></trkpt><trkpt lat="38.1713766" lon="15.6555828"><ele>33.0</ele><time>2026-04-11T06:51:22.336Z</time></trkpt><trkpt lat="38.1714477" lon="15.6557587"><ele>34.0</ele><time>2026-04-11T06:51:23.336Z</time></trkpt><trkpt lat="38.1715285" lon="15.6559292"><ele>35.0</ele><time>2026-04-11T06:51:24.335Z</time></trkpt><trkpt lat="38.1716219" lon="15.6560842"><ele>35.0</ele><time>2026-04-11T06:51:25.335Z</time></trkpt><trkpt lat="38.1717309" lon="15.6562204"><ele>35.0</ele><time>2026-04-11T06:51:26.336Z</time></trkpt><trkpt lat="38.1718445" lon="15.6563377"><ele>35.0</ele><time>2026-04-11T06:51:27.335Z</time></trkpt><trkpt lat="38.1719642" lon="15.6564343"><ele>35.0</ele><time>2026-04-11T06:51:28.335Z</time></trkpt><trkpt lat="38.1720803" lon="15.6565185"><ele>35.0</ele><time>2026-04-11T06:51:29.335Z</time></trkpt><trkpt lat="38.1722059" lon="15.6566034"><ele>35.0</ele><time>2026-04-11T06:51:30.336Z</time></trkpt><trkpt lat="38.1723333" lon="15.6566756"><ele>35.0</ele><time>2026-04-11T06:51:31.335Z</time></trkpt><trkpt lat="38.1724701" lon="15.656728"><ele>35.0</ele><time>2026-04-11T06:51:32.335Z</time></trkpt><trkpt lat="38.1726111" lon="15.6567788"><ele>35.5</ele><time>2026-04-11T06:51:33.335Z</time></trkpt><trkpt lat="38.1727484" lon="15.6568279"><ele>36.0</ele><time>2026-04-11T06:51:34.335Z</time></trkpt><trkpt lat="38.1728906" lon="15.6568734"><ele>36.5</ele><time>2026-04-11T06:51:35.335Z</time></trkpt><trkpt lat="38.1730314" lon="15.6569229"><ele>37.0</ele><time>2026-04-11T06:51:36.336Z</time></trkpt><trkpt lat="38.1731699" lon="15.6569719"><ele>38.25</ele><time>2026-04-11T06:51:37.336Z</time></trkpt><trkpt lat="38.1733021" lon="15.6570174"><ele>39.5</ele><time>2026-04-11T06:51:38.335Z</time></trkpt><trkpt lat="38.1734353" lon="15.6570647"><ele>40.75</ele><time>2026-04-11T06:51:39.336Z</time></trkpt><trkpt lat="38.1735742" lon="15.6571101"><ele>42.0</ele><time>2026-04-11T06:51:40.335Z</time></trkpt><trkpt lat="38.17371" lon="15.6571524"><ele>42.0</ele><time>2026-04-11T06:51:41.335Z</time></trkpt><trkpt lat="38.1738465" lon="15.6571984"><ele>42.0</ele><time>2026-04-11T06:51:42.335Z</time></trkpt><trkpt lat="38.1739818" lon="15.6572477"><ele>42.0</ele><time>2026-04-11T06:51:43.335Z</time></trkpt><trkpt lat="38.1741202" lon="15.6573007"><ele>42.0</ele><time>2026-04-11T06:51:44.335Z</time></trkpt><trkpt lat="38.1742616" lon="15.657356"><ele>42.333333333333336</ele><time>2026-04-11T06:51:45.335Z</time></trkpt><trkpt lat="38.1744032" lon="15.6574186"><ele>42.66666666666667</ele><time>2026-04-11T06:51:46.336Z</time></trkpt><trkpt lat="38.1745437" lon="15.6574895"><ele>43.0</ele><time>2026-04-11T06:51:47.336Z</time></trkpt><trkpt lat="38.1746838" lon="15.6575689"><ele>43.0</ele><time>2026-04-11T06:51:48.335Z</time></trkpt><trkpt lat="38.1748267" lon="15.6576646"><ele>43.0</ele><time>2026-04-11T06:51:49.335Z</time></trkpt><trkpt lat="38.1749627" lon="15.6577685"><ele>43.0</ele><time>2026-04-11T06:51:50.335Z</time></trkpt><trkpt lat="38.1750928" lon="15.657883"><ele>44.333333333333336</ele><time>2026-04-11T06:51:51.336Z</time></trkpt><trkpt lat="38.175219" lon="15.6579901"><ele>45.666666666666664</ele><time>2026-04-11T06:51:52.335Z</time></trkpt><trkpt lat="38.175345" lon="15.658108"><ele>47.0</ele><time>2026-04-11T06:51:53.336Z</time></trkpt><trkpt lat="38.1754637" lon="15.6582416"><ele>47.0</ele><time>2026-04-11T06:51:54.335Z</time></trkpt><trkpt lat="38.1755758" lon="15.6583791"><ele>47.0</ele><time>2026-04-11T06:51:55.335Z</time></trkpt><trkpt lat="38.1756767" lon="15.6585241"><ele>47.0</ele><time>2026-04-11T06:51:56.336Z</time></trkpt><trkpt lat="38.1757773" lon="15.6586757"><ele>48.0</ele><time>2026-04-11T06:51:57.335Z</time></trkpt><trkpt lat="38.1758756" lon="15.6588264"><ele>49.0</ele><time>2026-04-11T06:51:58.335Z</time></trkpt><trkpt lat="38.175978" lon="15.6589841"><ele>50.0</ele><time>2026-04-11T06:51:59.335Z</time></trkpt><trkpt lat="38.1760855" lon="15.6591354"><ele>50.0</ele><time>2026-04-11T06:52:00.335Z</time></trkpt><trkpt lat="38.1761883" lon="15.6592852"><ele>50.0</ele><time>2026-04-11T06:52:01.335Z</time></trkpt><trkpt lat="38.1762948" lon="15.6594335"><ele>50.0</ele><time>2026-04-11T06:52:02.335Z</time></trkpt><trkpt lat="38.1764019" lon="15.6595894"><ele>50.0</ele><time>2026-04-11T06:52:03.335Z</time></trkpt><trkpt lat="38.1765072" lon="15.6597495"><ele>50.0</ele><time>2026-04-11T06:52:04.336Z</time></trkpt><trkpt lat="38.1766166" lon="15.6599098"><ele>50.0</ele><time>2026-04-11T06:52:05.335Z</time></trkpt><trkpt lat="38.1767218" lon="15.6600701"><ele>51.333333333333336</ele><time>2026-04-11T06:52:06.335Z</time></trkpt><trkpt lat="38.1768243" lon="15.6602255"><ele>52.66666666666667</ele><time>2026-04-11T06:52:07.335Z</time></trkpt><trkpt lat="38.1769327" lon="15.6603813"><ele>54.0</ele><time>2026-04-11T06:52:08.335Z</time></trkpt><trkpt lat="38.1770308" lon="15.6605344"><ele>54.66666666666667</ele><time>2026-04-11T06:52:09.335Z</time></trkpt><trkpt lat="38.1771302" lon="15.6606845"><ele>55.333333333333336</ele><time>2026-04-11T06:52:10.335Z</time></trkpt><trkpt lat="38.1772287" lon="15.6608303"><ele>56.0</ele><time>2026-04-11T06:52:11.335Z</time></trkpt><trkpt lat="38.1773285" lon="15.6609768"><ele>56.5</ele><time>2026-04-11T06:52:12.335Z</time></trkpt><trkpt lat="38.177424" lon="15.6611175"><ele>57.0</ele><time>2026-04-11T06:52:13.335Z</time></trkpt><trkpt lat="38.1775173" lon="15.6612584"><ele>57.5</ele><time>2026-04-11T06:52:14.335Z</time></trkpt><trkpt lat="38.1776159" lon="15.6614017"><ele>58.0</ele><time>2026-04-11T06:52:15.335Z</time></trkpt><trkpt lat="38.1777147" lon="15.6615476"><ele>58.0</ele><time>2026-04-11T06:52:16.336Z</time></trkpt><trkpt lat="38.1778116" lon="15.6616947"><ele>58.0</ele><time>2026-04-11T06:52:17.335Z</time></trkpt><trkpt lat="38.1779125" lon="15.6618402"><ele>58.0</ele><time>2026-04-11T06:52:18.335Z</time></trkpt><trkpt lat="38.1780161" lon="15.6619853"><ele>58.666666666666664</ele><time>2026-04-11T06:52:19.335Z</time></trkpt><trkpt lat="38.1781181" lon="15.6621319"><ele>59.33333333333333</ele><time>2026-04-11T06:52:20.335Z</time></trkpt><trkpt lat="38.1782199" lon="15.6622842"><ele>60.0</ele><time>2026-04-11T06:52:21.335Z</time></trkpt><trkpt lat="38.1783249" lon="15.6624395"><ele>61.66666666666667</ele><time>2026-04-11T06:52:22.335Z</time></trkpt><trkpt lat="38.1784275" lon="15.6626036"><ele>63.333333333333336</ele><time>2026-04-11T06:52:23.336Z</time></trkpt><trkpt lat="38.1785364" lon="15.6627693"><ele>65.0</ele><time>2026-04-11T06:52:24.335Z</time></trkpt><trkpt lat="38.1786493" lon="15.6629407"><ele>66.0</ele><time>2026-04-11T06:52:25.336Z</time></trkpt><trkpt lat="38.1787598" lon="15.6631174"><ele>67.0</ele><time>2026-04-11T06:52:26.335Z</time></trkpt><trkpt lat="38.1788743" lon="15.6633038"><ele>68.0</ele><time>2026-04-11T06:52:27.335Z</time></trkpt><trkpt lat="38.1790069" lon="15.6635155"><ele>68.0</ele><time>2026-04-11T06:52:28.335Z</time></trkpt><trkpt lat="38.1791476" lon="15.6637524"><ele>68.0</ele><time>2026-04-11T06:52:29.336Z</time></trkpt><trkpt lat="38.1792787" lon="15.6640072"><ele>68.0</ele><time>2026-04-11T06:52:30.336Z</time></trkpt><trkpt lat="38.1793986" lon="15.6642476"><ele>68.0</ele><time>2026-04-11T06:52:31.335Z</time></trkpt><trkpt lat="38.1795041" lon="15.6644687"><ele>68.0</ele><time>2026-04-11T06:52:32.335Z</time></trkpt><trkpt lat="38.1795984" lon="15.664659"><ele>68.0</ele><time>2026-04-11T06:52:33.335Z</time></trkpt><trkpt lat="38.1796831" lon="15.6648343"><ele>68.0</ele><time>2026-04-11T06:52:34.335Z</time></trkpt><trkpt lat="38.1797654" lon="15.6649914"><ele>68.0</ele><time>2026-04-11T06:52:35.335Z</time></trkpt><trkpt lat="38.1798419" lon="15.6651348"><ele>68.0</ele><time>2026-04-11T06:52:36.335Z</time></trkpt><trkpt lat="38.1799162" lon="15.6652737"><ele>69.5</ele><time>2026-04-11T06:52:37.335Z</time></trkpt><trkpt lat="38.1799859" lon="15.6654129"><ele>71.0</ele><time>2026-04-11T06:52:38.335Z</time></trkpt><trkpt lat="38.180052" lon="15.6655502"><ele>72.5</ele><time>2026-04-11T06:52:39.335Z</time></trkpt><trkpt lat="38.1801233" lon="15.6656984"><ele>74.0</ele><time>2026-04-11T06:52:40.335Z</time></trkpt><trkpt lat="38.1802001" lon="15.6658608"><ele>74.0</ele><time>2026-04-11T06:52:41.335Z</time></trkpt><trkpt lat="38.1802787" lon="15.6660358"><ele>74.0</ele><time>2026-04-11T06:52:42.336Z</time></trkpt><trkpt lat="38.1803659" lon="15.666216"><ele>74.0</ele><time>2026-04-11T06:52:43.335Z</time></trkpt><trkpt lat="38.1804577" lon="15.6664037"><ele>73.66666666666667</ele><time>2026-04-11T06:52:44.336Z</time></trkpt><trkpt lat="38.1805484" lon="15.6665912"><ele>73.33333333333333</ele><time>2026-04-11T06:52:45.335Z</time></trkpt><trkpt lat="38.1806433" lon="15.6667796"><ele>73.0</ele><time>2026-04-11T06:52:46.336Z</time></trkpt><trkpt lat="38.1807368" lon="15.6669644"><ele>74.0</ele><time>2026-04-11T06:52:47.335Z</time></trkpt><trkpt lat="38.1808288" lon="15.6671553"><ele>75.0</ele><time>2026-04-11T06:52:48.335Z</time></trkpt><trkpt lat="38.1809247" lon="15.667351"><ele>76.0</ele><time>2026-04-11T06:52:49.336Z</time></trkpt><trkpt lat="38.1810258" lon="15.6675413"><ele>76.0</ele><time>2026-04-11T06:52:50.335Z</time></trkpt><trkpt lat="38.1811158" lon="15.6677267"><ele>76.0</ele><time>2026-04-11T06:52:51.335Z</time></trkpt><trkpt lat="38.1812039" lon="15.6679104"><ele>76.0</ele><time>2026-04-11T06:52:52.335Z</time></trkpt><trkpt lat="38.1812909" lon="15.6680967"><ele>76.66666666666666</ele><time>2026-04-11T06:52:53.335Z</time></trkpt><trkpt lat="38.1813773" lon="15.6682909"><ele>77.33333333333333</ele><time>2026-04-11T06:52:54.336Z</time></trkpt><trkpt lat="38.1814635" lon="15.6684889"><ele>78.0</ele><time>2026-04-11T06:52:55.335Z</time></trkpt><trkpt lat="38.1815505" lon="15.6686784"><ele>79.33333333333333</ele><time>2026-04-11T06:52:56.335Z</time></trkpt><trkpt lat="38.1816371" lon="15.6688623"><ele>80.66666666666666</ele><time>2026-04-11T06:52:57.335Z</time></trkpt><trkpt lat="38.1817232" lon="15.6690407"><ele>82.0</ele><time>2026-04-11T06:52:58.336Z</time></trkpt><trkpt lat="38.1818086" lon="15.6692182"><ele>82.0</ele><time>2026-04-11T06:52:59.335Z</time></trkpt><trkpt lat="38.1818982" lon="15.6693933"><ele>82.0</ele><time>2026-04-11T06:53:00.335Z</time></trkpt><trkpt lat="38.1819856" lon="15.6695621"><ele>82.0</ele><time>2026-04-11T06:53:01.336Z</time></trkpt><trkpt lat="38.1820813" lon="15.6697332"><ele>82.33333333333333</ele><time>2026-04-11T06:53:02.335Z</time></trkpt><trkpt lat="38.1821718" lon="15.6699093"><ele>82.66666666666667</ele><time>2026-04-11T06:53:03.335Z</time></trkpt><trkpt lat="38.182265" lon="15.6700892"><ele>83.0</ele><time>2026-04-11T06:53:04.335Z</time></trkpt><trkpt lat="38.1823613" lon="15.6702653"><ele>84.33333333333334</ele><time>2026-04-11T06:53:05.335Z</time></trkpt><trkpt lat="38.1824542" lon="15.6704447"><ele>85.66666666666667</ele><time>2026-04-11T06:53:06.335Z</time></trkpt><trkpt lat="38.18255" lon="15.6706223"><ele>87.0</ele><time>2026-04-11T06:53:07.336Z</time></trkpt><trkpt lat="38.1826522" lon="15.670802"><ele>87.0</ele><time>2026-04-11T06:53:08.335Z</time></trkpt><trkpt lat="38.1827484" lon="15.6709835"><ele>87.0</ele><time>2026-04-11T06:53:09.335Z</time></trkpt><trkpt lat="38.1828424" lon="15.6711682"><ele>87.0</ele><time>2026-04-11T06:53:10.335Z</time></trkpt><trkpt lat="38.1829358" lon="15.6713546"><ele>87.0</ele><time>2026-04-11T06:53:11.336Z</time></trkpt><trkpt lat="38.1830321" lon="15.6715456"><ele>87.0</ele><time>2026-04-11T06:53:12.335Z</time></trkpt><trkpt lat="38.1831287" lon="15.6717332"><ele>87.0</ele><time>2026-04-11T06:53:13.335Z</time></trkpt><trkpt lat="38.1832283" lon="15.6719257"><ele>88.33333333333333</ele><time>2026-04-11T06:53:14.335Z</time></trkpt><trkpt lat="38.1833297" lon="15.672112"><ele>89.66666666666666</ele><time>2026-04-11T06:53:15.335Z</time></trkpt><trkpt lat="38.1834315" lon="15.6723003"><ele>91.0</ele><time>2026-04-11T06:53:16.335Z</time></trkpt><trkpt lat="38.1835273" lon="15.672492"><ele>91.0</ele><time>2026-04-11T06:53:17.335Z</time></trkpt><trkpt lat="38.1836255" lon="15.6726805"><ele>91.0</ele><time>2026-04-11T06:53:18.335Z</time></trkpt><trkpt lat="38.183719" lon="15.6728634"><ele>91.0</ele><time>2026-04-11T06:53:19.335Z</time></trkpt><trkpt lat="38.1838178" lon="15.6730492"><ele>91.33333333333333</ele><time>2026-04-11T06:53:20.335Z</time></trkpt><trkpt lat="38.1839174" lon="15.6732254"><ele>91.66666666666667</ele><time>2026-04-11T06:53:21.335Z</time></trkpt><trkpt lat="38.1840087" lon="15.6734003"><ele>92.0</ele><time>2026-04-11T06:53:22.335Z</time></trkpt><trkpt lat="38.1841004" lon="15.6735753"><ele>92.66666666666667</ele><time>2026-04-11T06:53:23.335Z</time></trkpt><trkpt lat="38.1841878" lon="15.6737545"><ele>93.33333333333333</ele><time>2026-04-11T06:53:24.335Z</time></trkpt><trkpt lat="38.1842802" lon="15.6739287"><ele>94.0</ele><time>2026-04-11T06:53:25.335Z</time></trkpt><trkpt lat="38.184375" lon="15.674111"><ele>94.0</ele><time>2026-04-11T06:53:26.336Z</time></trkpt><trkpt lat="38.1844728" lon="15.6742901"><ele>94.0</ele><time>2026-04-11T06:53:27.335Z</time></trkpt><trkpt lat="38.1845713" lon="15.6744703"><ele>94.0</ele><time>2026-04-11T06:53:28.335Z</time></trkpt><trkpt lat="38.184667" lon="15.6746576"><ele>94.66666666666666</ele><time>2026-04-11T06:53:29.335Z</time></trkpt><trkpt lat="38.1847623" lon="15.6748433"><ele>95.33333333333333</ele><time>2026-04-11T06:53:30.335Z</time></trkpt><trkpt lat="38.1848602" lon="15.6750301"><ele>96.0</ele><time>2026-04-11T06:53:31.335Z</time></trkpt><trkpt lat="38.1849554" lon="15.6752244"><ele>97.66666666666666</ele><time>2026-04-11T06:53:32.335Z</time></trkpt><trkpt lat="38.1850408" lon="15.6754274"><ele>99.33333333333333</ele><time>2026-04-11T06:53:33.336Z</time></trkpt><trkpt lat="38.1851251" lon="15.6756327"><ele>101.0</ele><time>2026-04-11T06:53:34.335Z</time></trkpt><trkpt lat="38.1852054" lon="15.6758313"><ele>101.0</ele><time>2026-04-11T06:53:35.336Z</time></trkpt><trkpt lat="38.1852808" lon="15.6760356"><ele>101.0</ele><time>2026-04-11T06:53:36.335Z</time></trkpt><trkpt lat="38.1853488" lon="15.6762567"><ele>101.0</ele><time>2026-04-11T06:53:37.336Z</time></trkpt><trkpt lat="38.185412" lon="15.676476"><ele>101.66666666666666</ele><time>2026-04-11T06:53:38.335Z</time></trkpt><trkpt lat="38.1854707" lon="15.6766976"><ele>102.33333333333334</ele><time>2026-04-11T06:53:39.336Z</time></trkpt><trkpt lat="38.1855206" lon="15.6769242"><ele>103.0</ele><time>2026-04-11T06:53:40.336Z</time></trkpt><trkpt lat="38.1855637" lon="15.6771548"><ele>104.0</ele><time>2026-04-11T06:53:41.335Z</time></trkpt><trkpt lat="38.1856037" lon="15.6773853"><ele>105.0</ele><time>2026-04-11T06:53:42.335Z</time></trkpt><trkpt lat="38.1856287" lon="15.6776197"><ele>106.0</ele><time>2026-04-11T06:53:43.335Z</time></trkpt><trkpt lat="38.1856498" lon="15.6778534"><ele>106.33333333333334</ele><time>2026-04-11T06:53:44.335Z</time></trkpt><trkpt lat="38.1856662" lon="15.6780923"><ele>106.66666666666666</ele><time>2026-04-11T06:53:45.335Z</time></trkpt><trkpt lat="38.1856762" lon="15.6783269"><ele>107.0</ele><time>2026-04-11T06:53:46.336Z</time></trkpt><trkpt lat="38.1856857" lon="15.6785689"><ele>108.66666666666666</ele><time>2026-04-11T06:53:47.335Z</time></trkpt><trkpt lat="38.1856965" lon="15.6788144"><ele>110.33333333333334</ele><time>2026-04-11T06:53:48.335Z</time></trkpt><trkpt lat="38.1857019" lon="15.6790558"><ele>112.0</ele><time>2026-04-11T06:53:49.335Z</time></trkpt><trkpt lat="38.1857056" lon="15.6793031"><ele>113.0</ele><time>2026-04-11T06:53:50.335Z</time></trkpt><trkpt lat="38.1857089" lon="15.6795513"><ele>114.0</ele><time>2026-04-11T06:53:51.336Z</time></trkpt><trkpt lat="38.1857137" lon="15.6797996"><ele>115.0</ele><time>2026-04-11T06:53:52.336Z</time></trkpt><trkpt lat="38.1857228" lon="15.6800438"><ele>115.0</ele><time>2026-04-11T06:53:53.335Z</time></trkpt><trkpt lat="38.1857342" lon="15.6802888"><ele>115.0</ele><time>2026-04-11T06:53:54.336Z</time></trkpt><trkpt lat="38.1857444" lon="15.6805353"><ele>115.0</ele><time>2026-04-11T06:53:55.335Z</time></trkpt><trkpt lat="38.1857502" lon="15.6807808"><ele>115.0</ele><time>2026-04-11T06:53:56.335Z</time></trkpt><trkpt lat="38.1857553" lon="15.6810329"><ele>115.0</ele><time>2026-04-11T06:53:57.335Z</time></trkpt><trkpt lat="38.1857589" lon="15.6812863"><ele>115.0</ele><time>2026-04-11T06:53:58.335Z</time></trkpt><trkpt lat="38.1857604" lon="15.6815353"><ele>115.0</ele><time>2026-04-11T06:53:59.336Z</time></trkpt><trkpt lat="38.1857639" lon="15.6817865"><ele>115.0</ele><time>2026-04-11T06:54:00.335Z</time></trkpt><trkpt lat="38.1857673" lon="15.6820379"><ele>115.0</ele><time>2026-04-11T06:54:01.335Z</time></trkpt><trkpt lat="38.1857721" lon="15.6822826"><ele>115.66666666666667</ele><time>2026-04-11T06:54:02.335Z</time></trkpt><trkpt lat="38.1857798" lon="15.6825332"><ele>116.33333333333334</ele><time>2026-04-11T06:54:03.335Z</time></trkpt><trkpt lat="38.1857853" lon="15.6827805"><ele>117.0</ele><time>2026-04-11T06:54:04.335Z</time></trkpt><trkpt lat="38.1857876" lon="15.6830256"><ele>118.0</ele><time>2026-04-11T06:54:05.335Z</time></trkpt><trkpt lat="38.1857921" lon="15.6832748"><ele>119.0</ele><time>2026-04-11T06:54:06.335Z</time></trkpt><trkpt lat="38.1857971" lon="15.6835263"><ele>120.0</ele><time>2026-04-11T06:54:07.335Z</time></trkpt><trkpt lat="38.1858006" lon="15.6837736"><ele>120.66666666666666</ele><time>2026-04-11T06:54:08.335Z</time></trkpt><trkpt lat="38.1858068" lon="15.6840144"><ele>121.33333333333333</ele><time>2026-04-11T06:54:09.336Z</time></trkpt><trkpt lat="38.1858133" lon="15.6842585"><ele>122.0</ele><time>2026-04-11T06:54:10.335Z</time></trkpt><trkpt lat="38.18582" lon="15.6845048"><ele>122.33333333333333</ele><time>2026-04-11T06:54:11.335Z</time></trkpt><trkpt lat="38.1858267" lon="15.6847498"><ele>122.66666666666666</ele><time>2026-04-11T06:54:12.335Z</time></trkpt><trkpt lat="38.1858278" lon="15.6849948"><ele>123.0</ele><time>2026-04-11T06:54:13.335Z</time></trkpt><trkpt lat="38.1858307" lon="15.6852384"><ele>124.0</ele><time>2026-04-11T06:54:14.335Z</time></trkpt><trkpt lat="38.1858382" lon="15.6854804"><ele>125.0</ele><time>2026-04-11T06:54:15.336Z</time></trkpt><trkpt lat="38.1858478" lon="15.6857277"><ele>126.0</ele><time>2026-04-11T06:54:16.335Z</time></trkpt><trkpt lat="38.1858535" lon="15.6859761"><ele>127.0</ele><time>2026-04-11T06:54:17.335Z</time></trkpt><trkpt lat="38.1858586" lon="15.6862203"><ele>128.0</ele><time>2026-04-11T06:54:18.335Z</time></trkpt><trkpt lat="38.1858609" lon="15.6864696"><ele>129.0</ele><time>2026-04-11T06:54:19.335Z</time></trkpt><trkpt lat="38.1858565" lon="15.6867171"><ele>130.33333333333334</ele><time>2026-04-11T06:54:20.335Z</time></trkpt><trkpt lat="38.1858496" lon="15.686968"><ele>131.66666666666669</ele><time>2026-04-11T06:54:21.335Z</time></trkpt><trkpt lat="38.1858362" lon="15.6872197"><ele>133.0</ele><time>2026-04-11T06:54:22.335Z</time></trkpt><trkpt lat="38.1858218" lon="15.6874657"><ele>133.0</ele><time>2026-04-11T06:54:23.335Z</time></trkpt><trkpt lat="38.1858013" lon="15.687711"><ele>133.0</ele><time>2026-04-11T06:54:24.335Z</time></trkpt><trkpt lat="38.1857849" lon="15.6879586"><ele>133.0</ele><time>2026-04-11T06:54:25.335Z</time></trkpt><trkpt lat="38.1857674" lon="15.6882067"><ele>133.0</ele><time>2026-04-11T06:54:26.336Z</time></trkpt><trkpt lat="38.1857534" lon="15.6884506"><ele>133.0</ele><time>2026-04-11T06:54:27.335Z</time></trkpt><trkpt lat="38.18574" lon="15.6886938"><ele>133.0</ele><time>2026-04-11T06:54:28.335Z</time></trkpt><trkpt lat="38.1857272" lon="15.6889414"><ele>134.0</ele><time>2026-04-11T06:54:29.336Z</time></trkpt><trkpt lat="38.1857201" lon="15.6891869"><ele>135.0</ele><time>2026-04-11T06:54:30.336Z</time></trkpt><trkpt lat="38.1857167" lon="15.6894291"><ele>136.0</ele><time>2026-04-11T06:54:31.336Z</time></trkpt><trkpt lat="38.1857153" lon="15.6896695"><ele>136.66666666666669</ele><time>2026-04-11T06:54:32.336Z</time></trkpt><trkpt lat="38.1857212" lon="15.6899166"><ele>137.33333333333334</ele><time>2026-04-11T06:54:33.335Z</time></trkpt><trkpt lat="38.1857344" lon="15.6901615"><ele>138.0</ele><time>2026-04-11T06:54:34.336Z</time></trkpt><trkpt lat="38.1857535" lon="15.6903995"><ele>138.0</ele><time>2026-04-11T06:54:35.336Z</time></trkpt><trkpt lat="38.185781" lon="15.6906448"><ele>138.0</ele><time>2026-04-11T06:54:36.336Z</time></trkpt><trkpt lat="38.1858097" lon="15.6908841"><ele>138.0</ele><time>2026-04-11T06:54:37.335Z</time></trkpt><trkpt lat="38.1858325" lon="15.6911253"><ele>138.66666666666666</ele><time>2026-04-11T06:54:38.335Z</time></trkpt><trkpt lat="38.1858557" lon="15.6913653"><ele>139.33333333333331</ele><time>2026-04-11T06:54:39.335Z</time></trkpt><trkpt lat="38.185879" lon="15.6916069"><ele>140.0</ele><time>2026-04-11T06:54:40.335Z</time></trkpt><trkpt lat="38.1858976" lon="15.691854"><ele>141.33333333333331</ele><time>2026-04-11T06:54:41.335Z</time></trkpt><trkpt lat="38.1859202" lon="15.6920995"><ele>142.66666666666666</ele><time>2026-04-11T06:54:42.336Z</time></trkpt><trkpt lat="38.1859462" lon="15.6923434"><ele>144.0</ele><time>2026-04-11T06:54:43.335Z</time></trkpt><trkpt lat="38.1859672" lon="15.6925881"><ele>144.33333333333334</ele><time>2026-04-11T06:54:44.335Z</time></trkpt><trkpt lat="38.1859874" lon="15.6928349"><ele>144.66666666666669</ele><time>2026-04-11T06:54:45.335Z</time></trkpt><trkpt lat="38.1860049" lon="15.6930775"><ele>145.0</ele><time>2026-04-11T06:54:46.335Z</time></trkpt><trkpt lat="38.1860052" lon="15.6933237"><ele>145.0</ele><time>2026-04-11T06:54:47.335Z</time></trkpt><trkpt lat="38.1860056" lon="15.6935719"><ele>145.0</ele><time>2026-04-11T06:54:48.336Z</time></trkpt><trkpt lat="38.1859928" lon="15.693823"><ele>145.0</ele><time>2026-04-11T06:54:49.335Z</time></trkpt><trkpt lat="38.1859724" lon="15.6940757"><ele>145.0</ele><time>2026-04-11T06:54:50.336Z</time></trkpt><trkpt lat="38.1859441" lon="15.694326"><ele>145.0</ele><time>2026-04-11T06:54:51.335Z</time></trkpt><trkpt lat="38.1859035" lon="15.6945706"><ele>145.0</ele><time>2026-04-11T06:54:52.335Z</time></trkpt><trkpt lat="38.185852" lon="15.6948123"><ele>146.66666666666669</ele><time>2026-04-11T06:54:53.335Z</time></trkpt><trkpt lat="38.1857908" lon="15.6950452"><ele>148.33333333333334</ele><time>2026-04-11T06:54:54.335Z</time></trkpt><trkpt lat="38.1857221" lon="15.695278"><ele>150.0</ele><time>2026-04-11T06:54:55.335Z</time></trkpt><trkpt lat="38.1856493" lon="15.6955077"><ele>155.66666666666666</ele><time>2026-04-11T06:54:56.335Z</time></trkpt><trkpt lat="38.1855662" lon="15.6957368"><ele>161.33333333333331</ele><time>2026-04-11T06:54:57.335Z</time></trkpt><trkpt lat="38.1854791" lon="15.6959605"><ele>167.0</ele><time>2026-04-11T06:54:58.336Z</time></trkpt><trkpt lat="38.1853947" lon="15.6961806"><ele>167.0</ele><time>2026-04-11T06:54:59.335Z</time></trkpt><trkpt lat="38.1853109" lon="15.6963988"><ele>167.0</ele><time>2026-04-11T06:55:00.335Z</time></trkpt><trkpt lat="38.1852217" lon="15.6966174"><ele>167.0</ele><time>2026-04-11T06:55:01.335Z</time></trkpt><trkpt lat="38.185132" lon="15.6968368"><ele>164.0</ele><time>2026-04-11T06:55:02.335Z</time></trkpt><trkpt lat="38.1850452" lon="15.6970657"><ele>161.0</ele><time>2026-04-11T06:55:03.335Z</time></trkpt><trkpt lat="38.1849699" lon="15.6972925"><ele>158.0</ele><time>2026-04-11T06:55:04.335Z</time></trkpt><trkpt lat="38.184886" lon="15.6975173"><ele>163.66666666666666</ele><time>2026-04-11T06:55:05.336Z</time></trkpt><trkpt lat="38.1848058" lon="15.6977399"><ele>169.33333333333334</ele><time>2026-04-11T06:55:06.335Z</time></trkpt><trkpt lat="38.1847094" lon="15.6979577"><ele>175.0</ele><time>2026-04-11T06:55:07.335Z</time></trkpt><trkpt lat="38.1846178" lon="15.6981759"><ele>175.0</ele><time>2026-04-11T06:55:08.336Z</time></trkpt><trkpt lat="38.18453" lon="15.6983907"><ele>175.0</ele><time>2026-04-11T06:55:09.336Z</time></trkpt><trkpt lat="38.1844419" lon="15.6986055"><ele>175.0</ele><time>2026-04-11T06:55:10.335Z</time></trkpt><trkpt lat="38.1843514" lon="15.6988119"><ele>172.66666666666669</ele><time>2026-04-11T06:55:11.335Z</time></trkpt><trkpt lat="38.1842636" lon="15.6990324"><ele>170.33333333333334</ele><time>2026-04-11T06:55:12.335Z</time></trkpt><trkpt lat="38.18417" lon="15.6992531"><ele>168.0</ele><time>2026-04-11T06:55:13.335Z</time></trkpt><trkpt lat="38.1840822" lon="15.6994722"><ele>168.33333333333334</ele><time>2026-04-11T06:55:14.335Z</time></trkpt><trkpt lat="38.1839952" lon="15.6997008"><ele>168.66666666666669</ele><time>2026-04-11T06:55:15.335Z</time></trkpt><trkpt lat="38.1839071" lon="15.6999237"><ele>169.0</ele><time>2026-04-11T06:55:16.336Z</time></trkpt><trkpt lat="38.1838169" lon="15.7001495"><ele>169.0</ele><time>2026-04-11T06:55:17.335Z</time></trkpt><trkpt lat="38.1837184" lon="15.7003647"><ele>169.0</ele><time>2026-04-11T06:55:18.336Z</time></trkpt><trkpt lat="38.1836262" lon="15.7005842"><ele>169.0</ele><time>2026-04-11T06:55:19.336Z</time></trkpt><trkpt lat="38.1835345" lon="15.7008054"><ele>169.0</ele><time>2026-04-11T06:55:20.335Z</time></trkpt><trkpt lat="38.1834425" lon="15.7010222"><ele>169.0</ele><time>2026-04-11T06:55:21.335Z</time></trkpt><trkpt lat="38.183357" lon="15.7012345"><ele>169.0</ele><time>2026-04-11T06:55:22.335Z</time></trkpt><trkpt lat="38.1832661" lon="15.7014412"><ele>173.0</ele><time>2026-04-11T06:55:23.335Z</time></trkpt><trkpt lat="38.1831796" lon="15.7016448"><ele>177.0</ele><time>2026-04-11T06:55:24.335Z</time></trkpt><trkpt lat="38.1830896" lon="15.701858"><ele>181.0</ele><time>2026-04-11T06:55:25.335Z</time></trkpt><trkpt lat="38.182995" lon="15.7020652"><ele>181.0</ele><time>2026-04-11T06:55:26.335Z</time></trkpt><trkpt lat="38.1828878" lon="15.7022617"><ele>181.0</ele><time>2026-04-11T06:55:27.335Z</time></trkpt><trkpt lat="38.1827715" lon="15.7024553"><ele>181.0</ele><time>2026-04-11T06:55:28.336Z</time></trkpt><trkpt lat="38.1826553" lon="15.7026579"><ele>181.0</ele><time>2026-04-11T06:55:29.335Z</time></trkpt><trkpt lat="38.1825338" lon="15.7028542"><ele>181.0</ele><time>2026-04-11T06:55:30.335Z</time></trkpt><trkpt lat="38.1824076" lon="15.703053"><ele>181.0</ele><time>2026-04-11T06:55:31.335Z</time></trkpt><trkpt lat="38.1822792" lon="15.7032534"><ele>185.33333333333334</ele><time>2026-04-11T06:55:32.335Z</time></trkpt><trkpt lat="38.1821612" lon="15.7034526"><ele>189.66666666666669</ele><time>2026-04-11T06:55:33.335Z</time></trkpt><trkpt lat="38.1820417" lon="15.7036617"><ele>194.0</ele><time>2026-04-11T06:55:34.336Z</time></trkpt><trkpt lat="38.1819232" lon="15.7038772"><ele>194.0</ele><time>2026-04-11T06:55:35.335Z</time></trkpt><trkpt lat="38.1818052" lon="15.7041014"><ele>194.0</ele><time>2026-04-11T06:55:36.335Z</time></trkpt><trkpt lat="38.1816831" lon="15.7043317"><ele>194.0</ele><time>2026-04-11T06:55:37.335Z</time></trkpt><trkpt lat="38.1816093" lon="15.7045875"><ele>194.0</ele><time>2026-04-11T06:55:38.335Z</time></trkpt><trkpt lat="38.1815122" lon="15.7048151"><ele>194.0</ele><time>2026-04-11T06:55:39.335Z</time></trkpt><trkpt lat="38.1814151" lon="15.7050323"><ele>194.0</ele><time>2026-04-11T06:55:40.335Z</time></trkpt><trkpt lat="38.1813246" lon="15.7052549"><ele>194.0</ele><time>2026-04-11T06:55:41.335Z</time></trkpt><trkpt lat="38.1812366" lon="15.7054725"><ele>194.0</ele><time>2026-04-11T06:55:42.335Z</time></trkpt><trkpt lat="38.1811476" lon="15.7056961"><ele>194.0</ele><time>2026-04-11T06:55:43.336Z</time></trkpt><trkpt lat="38.1810631" lon="15.7059228"><ele>192.0</ele><time>2026-04-11T06:55:44.335Z</time></trkpt><trkpt lat="38.1809775" lon="15.7061451"><ele>190.0</ele><time>2026-04-11T06:55:45.335Z</time></trkpt><trkpt lat="38.1808956" lon="15.7063643"><ele>188.0</ele><time>2026-04-11T06:55:46.335Z</time></trkpt><trkpt lat="38.180821" lon="15.7065954"><ele>188.0</ele><time>2026-04-11T06:55:47.335Z</time></trkpt><trkpt lat="38.1807484" lon="15.7068231"><ele>188.0</ele><time>2026-04-11T06:55:48.335Z</time></trkpt><trkpt lat="38.1806866" lon="15.7070547"><ele>188.0</ele><time>2026-04-11T06:55:49.336Z</time></trkpt><trkpt lat="38.1806376" lon="15.707294"><ele>193.33333333333331</ele><time>2026-04-11T06:55:50.335Z</time></trkpt><trkpt lat="38.1805924" lon="15.7075314"><ele>198.66666666666666</ele><time>2026-04-11T06:55:51.335Z</time></trkpt><trkpt lat="38.1805381" lon="15.7077616"><ele>204.0</ele><time>2026-04-11T06:55:52.336Z</time></trkpt><trkpt lat="38.1804874" lon="15.7080017"><ele>204.66666666666669</ele><time>2026-04-11T06:55:53.335Z</time></trkpt><trkpt lat="38.1804333" lon="15.7082471"><ele>205.33333333333334</ele><time>2026-04-11T06:55:54.335Z</time></trkpt><trkpt lat="38.1803715" lon="15.708481"><ele>206.0</ele><time>2026-04-11T06:55:55.335Z</time></trkpt><trkpt lat="38.1803135" lon="15.7087171"><ele>206.66666666666669</ele><time>2026-04-11T06:55:56.335Z</time></trkpt><trkpt lat="38.1802415" lon="15.708945"><ele>207.33333333333331</ele><time>2026-04-11T06:55:57.335Z</time></trkpt><trkpt lat="38.180157" lon="15.7091725"><ele>208.0</ele><time>2026-04-11T06:55:58.336Z</time></trkpt><trkpt lat="38.1800589" lon="15.7093925"><ele>206.33333333333331</ele><time>2026-04-11T06:55:59.336Z</time></trkpt><trkpt lat="38.1799504" lon="15.7095925"><ele>204.66666666666669</ele><time>2026-04-11T06:56:00.336Z</time></trkpt><trkpt lat="38.1798392" lon="15.7097836"><ele>203.0</ele><time>2026-04-11T06:56:01.335Z</time></trkpt><trkpt lat="38.1797356" lon="15.7099666"><ele>203.0</ele><time>2026-04-11T06:56:02.335Z</time></trkpt><trkpt lat="38.1796253" lon="15.7101388"><ele>203.0</ele><time>2026-04-11T06:56:03.336Z</time></trkpt><trkpt lat="38.1795249" lon="15.7102935"><ele>203.0</ele><time>2026-04-11T06:56:04.335Z</time></trkpt><trkpt lat="38.1794496" lon="15.7104264"><ele>202.25</ele><time>2026-04-11T06:56:05.335Z</time></trkpt><trkpt lat="38.1793697" lon="15.71055"><ele>201.5</ele><time>2026-04-11T06:56:06.335Z</time></trkpt><trkpt lat="38.1792936" lon="15.7106731"><ele>200.75</ele><time>2026-04-11T06:56:07.335Z</time></trkpt><trkpt lat="38.1792246" lon="15.7108024"><ele>200.0</ele><time>2026-04-11T06:56:08.335Z</time></trkpt><trkpt lat="38.179155" lon="15.7109306"><ele>200.0</ele><time>2026-04-11T06:56:09.335Z</time></trkpt><trkpt lat="38.1790796" lon="15.711062"><ele>200.0</ele><time>2026-04-11T06:56:10.335Z</time></trkpt><trkpt lat="38.1789982" lon="15.7111878"><ele>200.0</ele><time>2026-04-11T06:56:11.335Z</time></trkpt><trkpt lat="38.1789242" lon="15.7113144"><ele>200.0</ele><time>2026-04-11T06:56:12.335Z</time></trkpt><trkpt lat="38.1788419" lon="15.7114375"><ele>202.0</ele><time>2026-04-11T06:56:13.335Z</time></trkpt><trkpt lat="38.1787569" lon="15.7115685"><ele>204.0</ele><time>2026-04-11T06:56:14.336Z</time></trkpt><trkpt lat="38.1786718" lon="15.7117037"><ele>206.0</ele><time>2026-04-11T06:56:15.335Z</time></trkpt><trkpt lat="38.1785822" lon="15.7118465"><ele>208.0</ele><time>2026-04-11T06:56:16.335Z</time></trkpt><trkpt lat="38.1784807" lon="15.7119958"><ele>208.25</ele><time>2026-04-11T06:56:17.336Z</time></trkpt><trkpt lat="38.1783873" lon="15.7121363"><ele>208.5</ele><time>2026-04-11T06:56:18.335Z</time></trkpt><trkpt lat="38.1782832" lon="15.7122747"><ele>208.75</ele><time>2026-04-11T06:56:19.335Z</time></trkpt><trkpt lat="38.1781777" lon="15.7124095"><ele>209.0</ele><time>2026-04-11T06:56:20.335Z</time></trkpt><trkpt lat="38.1780646" lon="15.7125246"><ele>211.0</ele><time>2026-04-11T06:56:21.335Z</time></trkpt><trkpt lat="38.1779417" lon="15.712631"><ele>213.0</ele><time>2026-04-11T06:56:22.335Z</time></trkpt><trkpt lat="38.1778113" lon="15.7127303"><ele>215.0</ele><time>2026-04-11T06:56:23.336Z</time></trkpt><trkpt lat="38.1776762" lon="15.712824"><ele>215.0</ele><time>2026-04-11T06:56:24.335Z</time></trkpt><trkpt lat="38.1775421" lon="15.7129234"><ele>215.0</ele><time>2026-04-11T06:56:25.336Z</time></trkpt><trkpt lat="38.1774041" lon="15.713023"><ele>215.0</ele><time>2026-04-11T06:56:26.335Z</time></trkpt><trkpt lat="38.177268" lon="15.7131331"><ele>219.66666666666669</ele><time>2026-04-11T06:56:27.335Z</time></trkpt><trkpt lat="38.1771238" lon="15.713243"><ele>224.33333333333331</ele><time>2026-04-11T06:56:28.335Z</time></trkpt><trkpt lat="38.1769763" lon="15.7133606"><ele>229.0</ele><time>2026-04-11T06:56:29.335Z</time></trkpt><trkpt lat="38.1768367" lon="15.7134864"><ele>231.33333333333331</ele><time>2026-04-11T06:56:30.336Z</time></trkpt><trkpt lat="38.176707" lon="15.7136125"><ele>233.66666666666669</ele><time>2026-04-11T06:56:31.335Z</time></trkpt><trkpt lat="38.1765807" lon="15.7137335"><ele>236.0</ele><time>2026-04-11T06:56:32.336Z</time></trkpt><trkpt lat="38.1764678" lon="15.7138723"><ele>236.0</ele><time>2026-04-11T06:56:33.336Z</time></trkpt><trkpt lat="38.1763633" lon="15.7140265"><ele>236.0</ele><time>2026-04-11T06:56:34.335Z</time></trkpt><trkpt lat="38.1762587" lon="15.7141873"><ele>236.0</ele><time>2026-04-11T06:56:35.335Z</time></trkpt><trkpt lat="38.1761664" lon="15.7143559"><ele>238.66666666666669</ele><time>2026-04-11T06:56:36.335Z</time></trkpt><trkpt lat="38.1760783" lon="15.714527"><ele>241.33333333333331</ele><time>2026-04-11T06:56:37.335Z</time></trkpt><trkpt lat="38.1759967" lon="15.7147025"><ele>244.0</ele><time>2026-04-11T06:56:38.335Z</time></trkpt><trkpt lat="38.1759232" lon="15.7148772"><ele>244.0</ele><time>2026-04-11T06:56:39.336Z</time></trkpt><trkpt lat="38.1758454" lon="15.7150567"><ele>244.0</ele><time>2026-04-11T06:56:40.335Z</time></trkpt><trkpt lat="38.1757611" lon="15.7152409"><ele>244.0</ele><time>2026-04-11T06:56:41.335Z</time></trkpt><trkpt lat="38.1756804" lon="15.7154304"><ele>258.3333333333333</ele><time>2026-04-11T06:56:42.336Z</time></trkpt><trkpt lat="38.1756032" lon="15.7156165"><ele>272.6666666666667</ele><time>2026-04-11T06:56:43.335Z</time></trkpt><trkpt lat="38.1755266" lon="15.7158151"><ele>287.0</ele><time>2026-04-11T06:56:44.335Z</time></trkpt><trkpt lat="38.1755306" lon="15.7160597"><ele>278.6666666666667</ele><time>2026-04-11T06:56:45.335Z</time></trkpt><trkpt lat="38.1754887" lon="15.7162615"><ele>270.3333333333333</ele><time>2026-04-11T06:56:46.335Z</time></trkpt><trkpt lat="38.1754423" lon="15.716451"><ele>262.0</ele><time>2026-04-11T06:56:47.335Z</time></trkpt><trkpt lat="38.175374" lon="15.7166174"><ele>262.0</ele><time>2026-04-11T06:56:48.335Z</time></trkpt><trkpt lat="38.1753087" lon="15.7167914"><ele>262.0</ele><time>2026-04-11T06:56:49.335Z</time></trkpt><trkpt lat="38.1752328" lon="15.7169637"><ele>262.0</ele><time>2026-04-11T06:56:50.336Z</time></trkpt><trkpt lat="38.1751535" lon="15.717131"><ele>257.0</ele><time>2026-04-11T06:56:51.335Z</time></trkpt><trkpt lat="38.1750827" lon="15.7173116"><ele>252.0</ele><time>2026-04-11T06:56:52.336Z</time></trkpt><trkpt lat="38.1750289" lon="15.7174942"><ele>247.0</ele><time>2026-04-11T06:56:53.335Z</time></trkpt><trkpt lat="38.1749841" lon="15.7176738"><ele>245.0</ele><time>2026-04-11T06:56:54.335Z</time></trkpt><trkpt lat="38.174944" lon="15.7178463"><ele>243.0</ele><time>2026-04-11T06:56:55.335Z</time></trkpt><trkpt lat="38.1749037" lon="15.7180022"><ele>241.0</ele><time>2026-04-11T06:56:56.335Z</time></trkpt><trkpt lat="38.1748803" lon="15.7181589"><ele>239.0</ele><time>2026-04-11T06:56:57.336Z</time></trkpt><trkpt lat="38.1748598" lon="15.7182962"><ele>242.0</ele><time>2026-04-11T06:56:58.335Z</time></trkpt><trkpt lat="38.1748491" lon="15.7184338"><ele>244.99999999999997</ele><time>2026-04-11T06:56:59.335Z</time></trkpt><trkpt lat="38.1748428" lon="15.7185692"><ele>247.99999999999997</ele><time>2026-04-11T06:57:00.335Z</time></trkpt><trkpt lat="38.1748208" lon="15.7187038"><ele>251.0</ele><time>2026-04-11T06:57:01.335Z</time></trkpt><trkpt lat="38.1747967" lon="15.7188404"><ele>254.0</ele><time>2026-04-11T06:57:02.335Z</time></trkpt><trkpt lat="38.1747782" lon="15.7189681"><ele>254.00000000000003</ele><time>2026-04-11T06:57:03.335Z</time></trkpt><trkpt lat="38.1747582" lon="15.7190804"><ele>254.0</ele><time>2026-04-11T06:57:04.335Z</time></trkpt><trkpt lat="38.1747325" lon="15.7191873"><ele>254.0</ele><time>2026-04-11T06:57:05.336Z</time></trkpt><trkpt lat="38.1746994" lon="15.7192727"><ele>254.0</ele><time>2026-04-11T06:57:06.335Z</time></trkpt><trkpt lat="38.1746511" lon="15.7193282"><ele>254.00000000000003</ele><time>2026-04-11T06:57:07.336Z</time></trkpt><trkpt lat="38.17459" lon="15.7193666"><ele>254.0</ele><time>2026-04-11T06:57:08.335Z</time></trkpt><trkpt lat="38.1745309" lon="15.7194084"><ele>252.00000000000003</ele><time>2026-04-11T06:57:09.335Z</time></trkpt><trkpt lat="38.1744921" lon="15.7194761"><ele>250.0</ele><time>2026-04-11T06:57:10.335Z</time></trkpt><trkpt lat="38.1744738" lon="15.7195656"><ele>248.0</ele><time>2026-04-11T06:57:11.335Z</time></trkpt><trkpt lat="38.1744794" lon="15.7196567"><ele>246.0</ele><time>2026-04-11T06:57:12.335Z</time></trkpt><trkpt lat="38.1745119" lon="15.7197421"><ele>244.00000000000003</ele><time>2026-04-11T06:57:13.335Z</time></trkpt><trkpt lat="38.1745587" lon="15.7198066"><ele>242.0</ele><time>2026-04-11T06:57:14.336Z</time></trkpt><trkpt lat="38.1746694" lon="15.7198574"><ele>242.00000000000003</ele><time>2026-04-11T06:57:16.335Z</time></trkpt><trkpt lat="38.1747892" lon="15.7198634"><ele>242.0</ele><time>2026-04-11T06:57:18.335Z</time></trkpt><trkpt lat="38.1748517" lon="15.7198917"><ele>242.0</ele><time>2026-04-11T06:57:19.335Z</time></trkpt><trkpt lat="38.1749137" lon="15.7199485"><ele>242.0</ele><time>2026-04-11T06:57:20.335Z</time></trkpt><trkpt lat="38.1749665" lon="15.7200247"><ele>242.00000000000003</ele><time>2026-04-11T06:57:21.336Z</time></trkpt><trkpt lat="38.175008" lon="15.7201067"><ele>242.0</ele><time>2026-04-11T06:57:22.336Z</time></trkpt><trkpt lat="38.1750356" lon="15.7201939"><ele>243.50000000000003</ele><time>2026-04-11T06:57:23.335Z</time></trkpt><trkpt lat="38.1750564" lon="15.7202804"><ele>245.0</ele><time>2026-04-11T06:57:24.336Z</time></trkpt><trkpt lat="38.1750319" lon="15.7204103"><ele>246.5</ele><time>2026-04-11T06:57:26.335Z</time></trkpt><trkpt lat="38.1749771" lon="15.7204572"><ele>248.0</ele><time>2026-04-11T06:57:27.335Z</time></trkpt><trkpt lat="38.1749068" lon="15.7204946"><ele>249.50000000000003</ele><time>2026-04-11T06:57:28.335Z</time></trkpt><trkpt lat="38.1748407" lon="15.7205257"><ele>251.0</ele><time>2026-04-11T06:57:29.335Z</time></trkpt><trkpt lat="38.1747832" lon="15.7205687"><ele>250.99999999999997</ele><time>2026-04-11T06:57:30.335Z</time></trkpt><trkpt lat="38.1747205" lon="15.7206083"><ele>251.0</ele><time>2026-04-11T06:57:31.335Z</time></trkpt><trkpt lat="38.1746556" lon="15.7206491"><ele>250.99999999999997</ele><time>2026-04-11T06:57:32.336Z</time></trkpt><trkpt lat="38.1745939" lon="15.7206831"><ele>250.99999999999997</ele><time>2026-04-11T06:57:33.335Z</time></trkpt><trkpt lat="38.1745319" lon="15.7207244"><ele>251.0</ele><time>2026-04-11T06:57:34.335Z</time></trkpt><trkpt lat="38.1744768" lon="15.7207738"><ele>250.99999999999997</ele><time>2026-04-11T06:57:35.335Z</time></trkpt><trkpt lat="38.1744307" lon="15.7208287"><ele>250.99999999999997</ele><time>2026-04-11T06:57:36.335Z</time></trkpt><trkpt lat="38.1743835" lon="15.7208907"><ele>251.0</ele><time>2026-04-11T06:57:37.335Z</time></trkpt><trkpt lat="38.1743088" lon="15.7210196"><ele>251.00000000000003</ele><time>2026-04-11T06:57:39.336Z</time></trkpt><trkpt lat="38.1742749" lon="15.7210947"><ele>251.00000000000003</ele><time>2026-04-11T06:57:40.335Z</time></trkpt><trkpt lat="38.1742516" lon="15.7212585"><ele>251.0</ele><time>2026-04-11T06:57:42.336Z</time></trkpt><trkpt lat="38.1742718" lon="15.7213401"><ele>251.0</ele><time>2026-04-11T06:57:43.335Z</time></trkpt><trkpt lat="38.1743177" lon="15.7214092"><ele>252.33333333333334</ele><time>2026-04-11T06:57:44.335Z</time></trkpt><trkpt lat="38.1743773" lon="15.7214786"><ele>253.66666666666669</ele><time>2026-04-11T06:57:45.336Z</time></trkpt><trkpt lat="38.17444" lon="15.721557"><ele>255.0</ele><time>2026-04-11T06:57:46.336Z</time></trkpt><trkpt lat="38.1745055" lon="15.7216331"><ele>256.3333333333333</ele><time>2026-04-11T06:57:47.335Z</time></trkpt><trkpt lat="38.1745635" lon="15.721714"><ele>257.66666666666663</ele><time>2026-04-11T06:57:48.336Z</time></trkpt><trkpt lat="38.1746125" lon="15.7217871"><ele>259.0</ele><time>2026-04-11T06:57:49.335Z</time></trkpt><trkpt lat="38.1746523" lon="15.7218522"><ele>259.66666666666663</ele><time>2026-04-11T06:57:50.335Z</time></trkpt><trkpt lat="38.1746796" lon="15.7219729"><ele>260.3333333333333</ele><time>2026-04-11T06:57:52.335Z</time></trkpt><trkpt lat="38.1746523" lon="15.7220454"><ele>261.0</ele><time>2026-04-11T06:57:53.335Z</time></trkpt><trkpt lat="38.1745967" lon="15.7221223"><ele>261.6666666666667</ele><time>2026-04-11T06:57:54.335Z</time></trkpt><trkpt lat="38.1745323" lon="15.7221981"><ele>262.33333333333337</ele><time>2026-04-11T06:57:55.336Z</time></trkpt><trkpt lat="38.1744652" lon="15.7222751"><ele>263.0</ele><time>2026-04-11T06:57:56.336Z</time></trkpt><trkpt lat="38.1743991" lon="15.7223665"><ele>263.0</ele><time>2026-04-11T06:57:57.336Z</time></trkpt><trkpt lat="38.1743381" lon="15.7224649"><ele>263.0</ele><time>2026-04-11T06:57:58.335Z</time></trkpt><trkpt lat="38.1742646" lon="15.7225656"><ele>263.0</ele><time>2026-04-11T06:57:59.335Z</time></trkpt><trkpt lat="38.1741881" lon="15.7226743"><ele>263.0</ele><time>2026-04-11T06:58:00.335Z</time></trkpt><trkpt lat="38.1741138" lon="15.7227819"><ele>263.0</ele><time>2026-04-11T06:58:01.335Z</time></trkpt><trkpt lat="38.1740558" lon="15.7228918"><ele>262.4</ele><time>2026-04-11T06:58:02.335Z</time></trkpt><trkpt lat="38.1740159" lon="15.7230064"><ele>261.8</ele><time>2026-04-11T06:58:03.335Z</time></trkpt><trkpt lat="38.1740081" lon="15.7231371"><ele>261.2</ele><time>2026-04-11T06:58:04.335Z</time></trkpt><trkpt lat="38.1740318" lon="15.7232661"><ele>260.6</ele><time>2026-04-11T06:58:05.335Z</time></trkpt><trkpt lat="38.1740632" lon="15.7233809"><ele>260.0</ele><time>2026-04-11T06:58:06.335Z</time></trkpt><trkpt lat="38.1740944" lon="15.7234904"><ele>262.0</ele><time>2026-04-11T06:58:07.335Z</time></trkpt><trkpt lat="38.1740996" lon="15.7235996"><ele>264.0</ele><time>2026-04-11T06:58:08.336Z</time></trkpt><trkpt lat="38.1740841" lon="15.723706"><ele>266.0</ele><time>2026-04-11T06:58:09.336Z</time></trkpt><trkpt lat="38.1740393" lon="15.723792"><ele>268.0</ele><time>2026-04-11T06:58:10.335Z</time></trkpt><trkpt lat="38.1739666" lon="15.7238599"><ele>270.0</ele><time>2026-04-11T06:58:11.335Z</time></trkpt><trkpt lat="38.1738776" lon="15.7239092"><ele>272.0</ele><time>2026-04-11T06:58:12.335Z</time></trkpt><trkpt lat="38.1737895" lon="15.7239768"><ele>272.0</ele><time>2026-04-11T06:58:13.335Z</time></trkpt><trkpt lat="38.1737169" lon="15.724065"><ele>272.0</ele><time>2026-04-11T06:58:14.335Z</time></trkpt><trkpt lat="38.1736523" lon="15.7241625"><ele>272.0</ele><time>2026-04-11T06:58:15.335Z</time></trkpt><trkpt lat="38.1735857" lon="15.7242497"><ele>272.0</ele><time>2026-04-11T06:58:16.335Z</time></trkpt><trkpt lat="38.1735125" lon="15.7243274"><ele>272.0</ele><time>2026-04-11T06:58:17.336Z</time></trkpt><trkpt lat="38.1734326" lon="15.7243961"><ele>271.33333333333337</ele><time>2026-04-11T06:58:18.335Z</time></trkpt><trkpt lat="38.1733465" lon="15.7244563"><ele>270.6666666666667</ele><time>2026-04-11T06:58:19.335Z</time></trkpt><trkpt lat="38.1732598" lon="15.7245046"><ele>270.0</ele><time>2026-04-11T06:58:20.335Z</time></trkpt><trkpt lat="38.1731757" lon="15.724548"><ele>269.3333333333333</ele><time>2026-04-11T06:58:21.336Z</time></trkpt><trkpt lat="38.1731069" lon="15.7246063"><ele>268.66666666666663</ele><time>2026-04-11T06:58:22.336Z</time></trkpt><trkpt lat="38.1730569" lon="15.7246825"><ele>268.0</ele><time>2026-04-11T06:58:23.336Z</time></trkpt><trkpt lat="38.1730374" lon="15.7247685"><ele>268.0</ele><time>2026-04-11T06:58:24.336Z</time></trkpt><trkpt lat="38.1730571" lon="15.7248658"><ele>268.0</ele><time>2026-04-11T06:58:25.335Z</time></trkpt><trkpt lat="38.1731147" lon="15.7249521"><ele>268.0</ele><time>2026-04-11T06:58:26.336Z</time></trkpt><trkpt lat="38.1731694" lon="15.7250184"><ele>268.0</ele><time>2026-04-11T06:58:27.335Z</time></trkpt><trkpt lat="38.1731836" lon="15.7251241"><ele>268.0</ele><time>2026-04-11T06:58:29.335Z</time></trkpt><trkpt lat="38.1730744" lon="15.7252093"><ele>272.3333333333333</ele><time>2026-04-11T06:58:31.335Z</time></trkpt><trkpt lat="38.1729879" lon="15.7252327"><ele>276.66666666666663</ele><time>2026-04-11T06:58:32.335Z</time></trkpt><trkpt lat="38.1728984" lon="15.7252585"><ele>281.0</ele><time>2026-04-11T06:58:33.336Z</time></trkpt><trkpt lat="38.1728269" lon="15.7253066"><ele>285.3333333333333</ele><time>2026-04-11T06:58:34.335Z</time></trkpt><trkpt lat="38.1727451" lon="15.7253589"><ele>289.6666666666667</ele><time>2026-04-11T06:58:35.335Z</time></trkpt><trkpt lat="38.1726733" lon="15.7254183"><ele>294.0</ele><time>2026-04-11T06:58:36.335Z</time></trkpt><trkpt lat="38.1726016" lon="15.7254885"><ele>294.0</ele><time>2026-04-11T06:58:37.335Z</time></trkpt><trkpt lat="38.172528" lon="15.7255589"><ele>294.0</ele><time>2026-04-11T06:58:38.335Z</time></trkpt><trkpt lat="38.1724569" lon="15.7256265"><ele>294.0</ele><time>2026-04-11T06:58:39.335Z</time></trkpt><trkpt lat="38.1723807" lon="15.7256998"><ele>294.0</ele><time>2026-04-11T06:58:40.336Z</time></trkpt><trkpt lat="38.172301" lon="15.7257752"><ele>294.0</ele><time>2026-04-11T06:58:41.336Z</time></trkpt><trkpt lat="38.1722218" lon="15.7258449"><ele>292.6666666666667</ele><time>2026-04-11T06:58:42.336Z</time></trkpt><trkpt lat="38.172139" lon="15.7259132"><ele>291.3333333333333</ele><time>2026-04-11T06:58:43.336Z</time></trkpt><trkpt lat="38.1720554" lon="15.7259681"><ele>290.0</ele><time>2026-04-11T06:58:44.335Z</time></trkpt><trkpt lat="38.1719807" lon="15.7260231"><ele>288.66666666666663</ele><time>2026-04-11T06:58:45.335Z</time></trkpt><trkpt lat="38.1719279" lon="15.7260923"><ele>287.3333333333333</ele><time>2026-04-11T06:58:46.335Z</time></trkpt><trkpt lat="38.1719012" lon="15.7261705"><ele>286.0</ele><time>2026-04-11T06:58:47.336Z</time></trkpt><trkpt lat="38.1719034" lon="15.7262563"><ele>286.0</ele><time>2026-04-11T06:58:48.336Z</time></trkpt><trkpt lat="38.1719364" lon="15.7263504"><ele>286.0</ele><time>2026-04-11T06:58:49.335Z</time></trkpt><trkpt lat="38.1719942" lon="15.7264407"><ele>286.0</ele><time>2026-04-11T06:58:50.336Z</time></trkpt><trkpt lat="38.172066" lon="15.7265087"><ele>286.0</ele><time>2026-04-11T06:58:51.335Z</time></trkpt><trkpt lat="38.1721421" lon="15.7265522"><ele>286.0</ele><time>2026-04-11T06:58:52.335Z</time></trkpt><trkpt lat="38.172206" lon="15.7265914"><ele>286.0</ele><time>2026-04-11T06:58:53.335Z</time></trkpt><trkpt lat="38.1722793" lon="15.7266955"><ele>286.0</ele><time>2026-04-11T06:58:55.335Z</time></trkpt><trkpt lat="38.1721711" lon="15.726744"><ele>286.0</ele><time>2026-04-11T06:58:58.335Z</time></trkpt><trkpt lat="38.1720803" lon="15.7267155"><ele>286.0</ele><time>2026-04-11T06:58:59.335Z</time></trkpt><trkpt lat="38.1720055" lon="15.726712"><ele>286.0</ele><time>2026-04-11T06:59:00.335Z</time></trkpt><trkpt lat="38.171941" lon="15.7267406"><ele>286.0</ele><time>2026-04-11T06:59:01.335Z</time></trkpt><trkpt lat="38.1718863" lon="15.7267992"><ele>286.0</ele><time>2026-04-11T06:59:02.336Z</time></trkpt><trkpt lat="38.1718414" lon="15.7268856"><ele>290.2</ele><time>2026-04-11T06:59:03.335Z</time></trkpt><trkpt lat="38.1718204" lon="15.7269905"><ele>294.40000000000003</ele><time>2026-04-11T06:59:04.336Z</time></trkpt><trkpt lat="38.1718107" lon="15.7271068"><ele>298.6</ele><time>2026-04-11T06:59:05.335Z</time></trkpt><trkpt lat="38.1717959" lon="15.7272255"><ele>302.8</ele><time>2026-04-11T06:59:06.335Z</time></trkpt><trkpt lat="38.1717757" lon="15.7273433"><ele>307.0</ele><time>2026-04-11T06:59:07.335Z</time></trkpt><trkpt lat="38.171745" lon="15.7274577"><ele>307.0</ele><time>2026-04-11T06:59:08.335Z</time></trkpt><trkpt lat="38.1717046" lon="15.7275798"><ele>307.0</ele><time>2026-04-11T06:59:09.335Z</time></trkpt><trkpt lat="38.1716568" lon="15.7276918"><ele>307.0</ele><time>2026-04-11T06:59:10.336Z</time></trkpt><trkpt lat="38.171591" lon="15.7277953"><ele>307.0</ele><time>2026-04-11T06:59:11.335Z</time></trkpt><trkpt lat="38.1715097" lon="15.7278805"><ele>307.0</ele><time>2026-04-11T06:59:12.335Z</time></trkpt><trkpt lat="38.1714269" lon="15.7279565"><ele>307.8</ele><time>2026-04-11T06:59:13.336Z</time></trkpt><trkpt lat="38.1713328" lon="15.7280099"><ele>308.6</ele><time>2026-04-11T06:59:14.335Z</time></trkpt><trkpt lat="38.1712329" lon="15.728052"><ele>309.40000000000003</ele><time>2026-04-11T06:59:15.336Z</time></trkpt><trkpt lat="38.171135" lon="15.7280742"><ele>310.2</ele><time>2026-04-11T06:59:16.336Z</time></trkpt><trkpt lat="38.1710367" lon="15.7280738"><ele>311.0</ele><time>2026-04-11T06:59:17.336Z</time></trkpt><trkpt lat="38.1709444" lon="15.7280594"><ele>311.0</ele><time>2026-04-11T06:59:18.335Z</time></trkpt><trkpt lat="38.1708561" lon="15.7280251"><ele>311.0</ele><time>2026-04-11T06:59:19.336Z</time></trkpt><trkpt lat="38.1707666" lon="15.7279904"><ele>311.0</ele><time>2026-04-11T06:59:20.335Z</time></trkpt><trkpt lat="38.1706751" lon="15.7279606"><ele>311.0</ele><time>2026-04-11T06:59:21.335Z</time></trkpt><trkpt lat="38.1705759" lon="15.7279501"><ele>311.0</ele><time>2026-04-11T06:59:22.335Z</time></trkpt><trkpt lat="38.1704818" lon="15.7279755"><ele>306.83333333333337</ele><time>2026-04-11T06:59:23.335Z</time></trkpt><trkpt lat="38.170404" lon="15.7280355"><ele>302.6666666666667</ele><time>2026-04-11T06:59:24.335Z</time></trkpt><trkpt lat="38.170341" lon="15.7281239"><ele>298.5</ele><time>2026-04-11T06:59:25.335Z</time></trkpt><trkpt lat="38.1703026" lon="15.7282274"><ele>294.3333333333333</ele><time>2026-04-11T06:59:26.336Z</time></trkpt><trkpt lat="38.1702933" lon="15.7283385"><ele>290.16666666666663</ele><time>2026-04-11T06:59:27.335Z</time></trkpt><trkpt lat="38.1703093" lon="15.7284433"><ele>286.0</ele><time>2026-04-11T06:59:28.336Z</time></trkpt><trkpt lat="38.1703537" lon="15.7285342"><ele>286.0</ele><time>2026-04-11T06:59:29.335Z</time></trkpt><trkpt lat="38.1704287" lon="15.7286071"><ele>286.0</ele><time>2026-04-11T06:59:30.335Z</time></trkpt><trkpt lat="38.1705228" lon="15.7286657"><ele>286.0</ele><time>2026-04-11T06:59:31.335Z</time></trkpt><trkpt lat="38.1706276" lon="15.7287246"><ele>286.0</ele><time>2026-04-11T06:59:32.335Z</time></trkpt><trkpt lat="38.1707399" lon="15.7287817"><ele>286.0</ele><time>2026-04-11T06:59:33.336Z</time></trkpt><trkpt lat="38.1708412" lon="15.7288549"><ele>291.5</ele><time>2026-04-11T06:59:34.335Z</time></trkpt><trkpt lat="38.1709302" lon="15.7289459"><ele>297.0</ele><time>2026-04-11T06:59:35.335Z</time></trkpt><trkpt lat="38.1710059" lon="15.7290582"><ele>302.5</ele><time>2026-04-11T06:59:36.335Z</time></trkpt><trkpt lat="38.1710718" lon="15.729178"><ele>308.0</ele><time>2026-04-11T06:59:37.335Z</time></trkpt><trkpt lat="38.1711439" lon="15.7292961"><ele>307.6</ele><time>2026-04-11T06:59:38.336Z</time></trkpt><trkpt lat="38.1712152" lon="15.7294142"><ele>307.20000000000005</ele><time>2026-04-11T06:59:39.336Z</time></trkpt><trkpt lat="38.1712998" lon="15.7295119"><ele>306.8</ele><time>2026-04-11T06:59:40.336Z</time></trkpt><trkpt lat="38.1713915" lon="15.7295821"><ele>306.40000000000003</ele><time>2026-04-11T06:59:41.335Z</time></trkpt><trkpt lat="38.1714692" lon="15.7296628"><ele>306.0</ele><time>2026-04-11T06:59:42.335Z</time></trkpt><trkpt lat="38.1715223" lon="15.7297763"><ele>309.6</ele><time>2026-04-11T06:59:43.336Z</time></trkpt><trkpt lat="38.1715446" lon="15.7299106"><ele>313.20000000000005</ele><time>2026-04-11T06:59:44.335Z</time></trkpt><trkpt lat="38.1715475" lon="15.7300457"><ele>316.79999999999995</ele><time>2026-04-11T06:59:45.335Z</time></trkpt><trkpt lat="38.1715305" lon="15.730171"><ele>320.4</ele><time>2026-04-11T06:59:46.335Z</time></trkpt><trkpt lat="38.171503" lon="15.7302945"><ele>324.0</ele><time>2026-04-11T06:59:47.335Z</time></trkpt><trkpt lat="38.171464" lon="15.7303978"><ele>326.6</ele><time>2026-04-11T06:59:48.335Z</time></trkpt><trkpt lat="38.171422" lon="15.7304737"><ele>329.2</ele><time>2026-04-11T06:59:49.335Z</time></trkpt><trkpt lat="38.1713119" lon="15.7305325"><ele>331.8</ele><time>2026-04-11T06:59:51.335Z</time></trkpt><trkpt lat="38.1712386" lon="15.7305118"><ele>334.40000000000003</ele><time>2026-04-11T06:59:52.336Z</time></trkpt><trkpt lat="38.1711586" lon="15.7304524"><ele>337.0</ele><time>2026-04-11T06:59:53.335Z</time></trkpt><trkpt lat="38.1710839" lon="15.730383"><ele>337.0</ele><time>2026-04-11T06:59:54.335Z</time></trkpt><trkpt lat="38.1710118" lon="15.7303279"><ele>337.0</ele><time>2026-04-11T06:59:55.335Z</time></trkpt><trkpt lat="38.1709443" lon="15.7302924"><ele>337.0</ele><time>2026-04-11T06:59:56.336Z</time></trkpt><trkpt lat="38.1708824" lon="15.7302696"><ele>337.0</ele><time>2026-04-11T06:59:57.336Z</time></trkpt><trkpt lat="38.1707771" lon="15.7302276"><ele>337.0</ele><time>2026-04-11T06:59:59.335Z</time></trkpt><trkpt lat="38.1706535" lon="15.7302057"><ele>334.5</ele><time>2026-04-11T07:00:01.336Z</time></trkpt><trkpt lat="38.1705884" lon="15.7302035"><ele>332.0</ele><time>2026-04-11T07:00:02.335Z</time></trkpt><trkpt lat="38.17052" lon="15.7302205"><ele>329.5</ele><time>2026-04-11T07:00:03.335Z</time></trkpt><trkpt lat="38.1704471" lon="15.7302629"><ele>327.0</ele><time>2026-04-11T07:00:04.335Z</time></trkpt><trkpt lat="38.1703704" lon="15.7303225"><ele>324.5</ele><time>2026-04-11T07:00:05.335Z</time></trkpt><trkpt lat="38.1702913" lon="15.7303944"><ele>322.0</ele><time>2026-04-11T07:00:06.336Z</time></trkpt><trkpt lat="38.170216" lon="15.730458"><ele>322.0</ele><time>2026-04-11T07:00:07.335Z</time></trkpt><trkpt lat="38.1701437" lon="15.7305226"><ele>322.0</ele><time>2026-04-11T07:00:08.336Z</time></trkpt><trkpt lat="38.1701018" lon="15.7305897"><ele>322.0</ele><time>2026-04-11T07:00:09.335Z</time></trkpt><trkpt lat="38.1701032" lon="15.7307289"><ele>322.0</ele><time>2026-04-11T07:00:11.335Z</time></trkpt><trkpt lat="38.1702036" lon="15.7307767"><ele>322.0</ele><time>2026-04-11T07:00:13.336Z</time></trkpt><trkpt lat="38.1702728" lon="15.7307346"><ele>322.0</ele><time>2026-04-11T07:00:14.336Z</time></trkpt><trkpt lat="38.1703458" lon="15.7306539"><ele>322.0</ele><time>2026-04-11T07:00:15.335Z</time></trkpt><trkpt lat="38.1704276" lon="15.7305624"><ele>322.0</ele><time>2026-04-11T07:00:16.335Z</time></trkpt><trkpt lat="38.1705025" lon="15.7304868"><ele>322.0</ele><time>2026-04-11T07:00:17.336Z</time></trkpt><trkpt lat="38.1705697" lon="15.730442"><ele>322.0</ele><time>2026-04-11T07:00:18.335Z</time></trkpt><trkpt lat="38.1706338" lon="15.7304179"><ele>322.0</ele><time>2026-04-11T07:00:19.335Z</time></trkpt><trkpt lat="38.1707104" lon="15.7304376"><ele>322.0</ele><time>2026-04-11T07:00:20.335Z</time></trkpt><trkpt lat="38.1707968" lon="15.7304866"><ele>324.5</ele><time>2026-04-11T07:00:21.335Z</time></trkpt><trkpt lat="38.1708759" lon="15.7305435"><ele>327.0</ele><time>2026-04-11T07:00:22.335Z</time></trkpt><trkpt lat="38.1709358" lon="15.7305986"><ele>329.5</ele><time>2026-04-11T07:00:23.336Z</time></trkpt><trkpt lat="38.1709617" lon="15.7306946"><ele>332.0</ele><time>2026-04-11T07:00:25.335Z</time></trkpt><trkpt lat="38.1708967" lon="15.7307171"><ele>334.5</ele><time>2026-04-11T07:00:27.335Z</time></trkpt><trkpt lat="38.1707766" lon="15.7306343"><ele>337.0</ele><time>2026-04-11T07:00:29.336Z</time></trkpt><trkpt lat="38.1706913" lon="15.7306052"><ele>334.0</ele><time>2026-04-11T07:00:30.335Z</time></trkpt><trkpt lat="38.1706016" lon="15.7306196"><ele>331.0</ele><time>2026-04-11T07:00:31.335Z</time></trkpt><trkpt lat="38.1705201" lon="15.7306626"><ele>328.0</ele><time>2026-04-11T07:00:32.335Z</time></trkpt><trkpt lat="38.1704484" lon="15.7307312"><ele>325.0</ele><time>2026-04-11T07:00:33.335Z</time></trkpt><trkpt lat="38.1703814" lon="15.7308126"><ele>322.0</ele><time>2026-04-11T07:00:34.335Z</time></trkpt><trkpt lat="38.1703071" lon="15.7308908"><ele>322.0</ele><time>2026-04-11T07:00:35.335Z</time></trkpt><trkpt lat="38.1702293" lon="15.7309578"><ele>322.0</ele><time>2026-04-11T07:00:36.335Z</time></trkpt><trkpt lat="38.1701459" lon="15.7310002"><ele>322.0</ele><time>2026-04-11T07:00:37.336Z</time></trkpt><trkpt lat="38.1700544" lon="15.7310253"><ele>322.0</ele><time>2026-04-11T07:00:38.335Z</time></trkpt><trkpt lat="38.1699673" lon="15.7310563"><ele>322.0</ele><time>2026-04-11T07:00:39.335Z</time></trkpt><trkpt lat="38.1698971" lon="15.7311169"><ele>317.40000000000003</ele><time>2026-04-11T07:00:40.335Z</time></trkpt><trkpt lat="38.1698375" lon="15.7312076"><ele>312.8</ele><time>2026-04-11T07:00:41.335Z</time></trkpt><trkpt lat="38.1697935" lon="15.7313107"><ele>308.2</ele><time>2026-04-11T07:00:42.335Z</time></trkpt><trkpt lat="38.1697553" lon="15.7314207"><ele>303.6</ele><time>2026-04-11T07:00:43.335Z</time></trkpt><trkpt lat="38.1697287" lon="15.7315337"><ele>299.0</ele><time>2026-04-11T07:00:44.336Z</time></trkpt><trkpt lat="38.1697306" lon="15.731651"><ele>299.0</ele><time>2026-04-11T07:00:45.335Z</time></trkpt><trkpt lat="38.1697552" lon="15.7317706"><ele>299.0</ele><time>2026-04-11T07:00:46.335Z</time></trkpt><trkpt lat="38.1698041" lon="15.731888"><ele>299.0</ele><time>2026-04-11T07:00:47.335Z</time></trkpt><trkpt lat="38.1698654" lon="15.7319997"><ele>299.0</ele><time>2026-04-11T07:00:48.335Z</time></trkpt><trkpt lat="38.1699094" lon="15.7321033"><ele>299.0</ele><time>2026-04-11T07:00:49.335Z</time></trkpt><trkpt lat="38.1699421" lon="15.7322103"><ele>304.83333333333337</ele><time>2026-04-11T07:00:50.335Z</time></trkpt><trkpt lat="38.1699637" lon="15.7323217"><ele>310.6666666666667</ele><time>2026-04-11T07:00:51.335Z</time></trkpt><trkpt lat="38.1699848" lon="15.7324286"><ele>316.5</ele><time>2026-04-11T07:00:52.335Z</time></trkpt><trkpt lat="38.1700179" lon="15.7325234"><ele>322.3333333333333</ele><time>2026-04-11T07:00:53.335Z</time></trkpt><trkpt lat="38.1700584" lon="15.7326093"><ele>328.16666666666663</ele><time>2026-04-11T07:00:54.336Z</time></trkpt><trkpt lat="38.1701154" lon="15.7326845"><ele>334.0</ele><time>2026-04-11T07:00:55.335Z</time></trkpt><trkpt lat="38.1701873" lon="15.7327385"><ele>334.0</ele><time>2026-04-11T07:00:56.335Z</time></trkpt><trkpt lat="38.1702787" lon="15.7327544"><ele>334.0</ele><time>2026-04-11T07:00:57.335Z</time></trkpt><trkpt lat="38.1703821" lon="15.7327433"><ele>334.0</ele><time>2026-04-11T07:00:58.335Z</time></trkpt><trkpt lat="38.1704755" lon="15.7327345"><ele>334.0</ele><time>2026-04-11T07:00:59.335Z</time></trkpt><trkpt lat="38.1705665" lon="15.7327335"><ele>334.0</ele><time>2026-04-11T07:01:00.335Z</time></trkpt><trkpt lat="38.1706394" lon="15.7327488"><ele>334.0</ele><time>2026-04-11T07:01:01.336Z</time></trkpt><trkpt lat="38.1707207" lon="15.7328395"><ele>334.0</ele><time>2026-04-11T07:01:03.336Z</time></trkpt><trkpt lat="38.1707154" lon="15.73293"><ele>334.0</ele><time>2026-04-11T07:01:04.335Z</time></trkpt><trkpt lat="38.1706903" lon="15.7330516"><ele>334.0</ele><time>2026-04-11T07:01:05.335Z</time></trkpt><trkpt lat="38.170664" lon="15.7331875"><ele>334.0</ele><time>2026-04-11T07:01:06.336Z</time></trkpt><trkpt lat="38.1706503" lon="15.7333168"><ele>334.0</ele><time>2026-04-11T07:01:07.336Z</time></trkpt><trkpt lat="38.1706442" lon="15.7334341"><ele>334.0</ele><time>2026-04-11T07:01:08.335Z</time></trkpt><trkpt lat="38.1706271" lon="15.7335485"><ele>334.0</ele><time>2026-04-11T07:01:09.336Z</time></trkpt><trkpt lat="38.1706024" lon="15.7336604"><ele>334.0</ele><time>2026-04-11T07:01:10.335Z</time></trkpt><trkpt lat="38.1705498" lon="15.7337501"><ele>334.0</ele><time>2026-04-11T07:01:11.335Z</time></trkpt><trkpt lat="38.1704866" lon="15.7337967"><ele>334.0</ele><time>2026-04-11T07:01:12.336Z</time></trkpt><trkpt lat="38.170401" lon="15.7338236"><ele>336.0</ele><time>2026-04-11T07:01:13.335Z</time></trkpt><trkpt lat="38.1703004" lon="15.7338476"><ele>338.0</ele><time>2026-04-11T07:01:14.336Z</time></trkpt><trkpt lat="38.1702056" lon="15.7338847"><ele>340.0</ele><time>2026-04-11T07:01:15.335Z</time></trkpt><trkpt lat="38.1701265" lon="15.7339381"><ele>342.0</ele><time>2026-04-11T07:01:16.335Z</time></trkpt><trkpt lat="38.1700781" lon="15.7340166"><ele>344.0</ele><time>2026-04-11T07:01:17.336Z</time></trkpt><trkpt lat="38.1700662" lon="15.7341044"><ele>346.0</ele><time>2026-04-11T07:01:18.335Z</time></trkpt><trkpt lat="38.1700901" lon="15.7341994"><ele>346.0</ele><time>2026-04-11T07:01:19.335Z</time></trkpt><trkpt lat="38.1701483" lon="15.7342777"><ele>346.0</ele><time>2026-04-11T07:01:20.336Z</time></trkpt><trkpt lat="38.1702377" lon="15.7343522"><ele>346.0</ele><time>2026-04-11T07:01:21.335Z</time></trkpt><trkpt lat="38.17035" lon="15.7344112"><ele>346.0</ele><time>2026-04-11T07:01:22.336Z</time></trkpt><trkpt lat="38.1704655" lon="15.7344602"><ele>346.0</ele><time>2026-04-11T07:01:23.335Z</time></trkpt><trkpt lat="38.1705671" lon="15.7345146"><ele>345.6</ele><time>2026-04-11T07:01:24.335Z</time></trkpt><trkpt lat="38.1706536" lon="15.7345907"><ele>345.20000000000005</ele><time>2026-04-11T07:01:25.335Z</time></trkpt><trkpt lat="38.1707245" lon="15.7346766"><ele>344.79999999999995</ele><time>2026-04-11T07:01:26.335Z</time></trkpt><trkpt lat="38.1707982" lon="15.7347361"><ele>344.4</ele><time>2026-04-11T07:01:27.335Z</time></trkpt><trkpt lat="38.1708755" lon="15.7347841"><ele>344.0</ele><time>2026-04-11T07:01:28.335Z</time></trkpt><trkpt lat="38.1709516" lon="15.7348372"><ele>348.83333333333337</ele><time>2026-04-11T07:01:29.336Z</time></trkpt><trkpt lat="38.1710202" lon="15.7349002"><ele>353.6666666666667</ele><time>2026-04-11T07:01:30.335Z</time></trkpt><trkpt lat="38.1710739" lon="15.7349812"><ele>358.5</ele><time>2026-04-11T07:01:31.335Z</time></trkpt><trkpt lat="38.1711224" lon="15.7350699"><ele>363.3333333333333</ele><time>2026-04-11T07:01:32.335Z</time></trkpt><trkpt lat="38.171152" lon="15.7351592"><ele>368.16666666666663</ele><time>2026-04-11T07:01:33.336Z</time></trkpt><trkpt lat="38.1711551" lon="15.735249"><ele>373.0</ele><time>2026-04-11T07:01:34.335Z</time></trkpt><trkpt lat="38.1711216" lon="15.7353384"><ele>373.0</ele><time>2026-04-11T07:01:35.336Z</time></trkpt><trkpt lat="38.1710953" lon="15.7354252"><ele>373.0</ele><time>2026-04-11T07:01:36.336Z</time></trkpt><trkpt lat="38.1710947" lon="15.7355132"><ele>373.0</ele><time>2026-04-11T07:01:37.335Z</time></trkpt><trkpt lat="38.1711233" lon="15.7355981"><ele>373.0</ele><time>2026-04-11T07:01:38.336Z</time></trkpt><trkpt lat="38.1711705" lon="15.7356914"><ele>373.0</ele><time>2026-04-11T07:01:39.335Z</time></trkpt><trkpt lat="38.1712192" lon="15.735788"><ele>373.0</ele><time>2026-04-11T07:01:40.336Z</time></trkpt><trkpt lat="38.1712657" lon="15.7358992"><ele>373.0</ele><time>2026-04-11T07:01:41.335Z</time></trkpt><trkpt lat="38.1712967" lon="15.7360226"><ele>373.0</ele><time>2026-04-11T07:01:42.335Z</time></trkpt><trkpt lat="38.1713262" lon="15.7361455"><ele>373.0</ele><time>2026-04-11T07:01:43.336Z</time></trkpt><trkpt lat="38.1713668" lon="15.7362583"><ele>373.0</ele><time>2026-04-11T07:01:44.335Z</time></trkpt><trkpt lat="38.1714126" lon="15.7363705"><ele>373.0</ele><time>2026-04-11T07:01:45.335Z</time></trkpt><trkpt lat="38.1714479" lon="15.7364878"><ele>376.0</ele><time>2026-04-11T07:01:46.335Z</time></trkpt><trkpt lat="38.1714787" lon="15.7366019"><ele>379.0</ele><time>2026-04-11T07:01:47.336Z</time></trkpt><trkpt lat="38.1714979" lon="15.736712"><ele>382.0</ele><time>2026-04-11T07:01:48.336Z</time></trkpt><trkpt lat="38.171516" lon="15.736817"><ele>385.0</ele><time>2026-04-11T07:01:49.335Z</time></trkpt><trkpt lat="38.171519" lon="15.736917"><ele>388.00000000000006</ele><time>2026-04-11T07:01:50.336Z</time></trkpt><trkpt lat="38.1715094" lon="15.7370159"><ele>391.0</ele><time>2026-04-11T07:01:51.335Z</time></trkpt><trkpt lat="38.1714786" lon="15.7371077"><ele>396.33333333333337</ele><time>2026-04-11T07:01:52.336Z</time></trkpt><trkpt lat="38.17143" lon="15.7371798"><ele>401.6666666666667</ele><time>2026-04-11T07:01:53.336Z</time></trkpt><trkpt lat="38.1713594" lon="15.7372219"><ele>407.0</ele><time>2026-04-11T07:01:54.335Z</time></trkpt><trkpt lat="38.1712829" lon="15.7372263"><ele>412.33333333333337</ele><time>2026-04-11T07:01:55.335Z</time></trkpt><trkpt lat="38.1712018" lon="15.7371968"><ele>417.6666666666667</ele><time>2026-04-11T07:01:56.336Z</time></trkpt><trkpt lat="38.1711165" lon="15.7371202"><ele>423.0</ele><time>2026-04-11T07:01:57.335Z</time></trkpt><trkpt lat="38.1710356" lon="15.7370251"><ele>423.0</ele><time>2026-04-11T07:01:58.335Z</time></trkpt><trkpt lat="38.1709701" lon="15.7369377"><ele>423.0</ele><time>2026-04-11T07:01:59.336Z</time></trkpt><trkpt lat="38.1709052" lon="15.736873"><ele>423.0</ele><time>2026-04-11T07:02:00.336Z</time></trkpt><trkpt lat="38.1708343" lon="15.7368261"><ele>423.0</ele><time>2026-04-11T07:02:01.336Z</time></trkpt><trkpt lat="38.1707607" lon="15.7367861"><ele>423.0</ele><time>2026-04-11T07:02:02.335Z</time></trkpt><trkpt lat="38.1706838" lon="15.7367578"><ele>423.0</ele><time>2026-04-11T07:02:03.335Z</time></trkpt><trkpt lat="38.1706025" lon="15.7367272"><ele>418.8333333333333</ele><time>2026-04-11T07:02:04.336Z</time></trkpt><trkpt lat="38.1705162" lon="15.7366983"><ele>414.66666666666663</ele><time>2026-04-11T07:02:05.336Z</time></trkpt><trkpt lat="38.1704303" lon="15.7366727"><ele>410.5</ele><time>2026-04-11T07:02:06.335Z</time></trkpt><trkpt lat="38.1703421" lon="15.7366587"><ele>406.3333333333333</ele><time>2026-04-11T07:02:07.335Z</time></trkpt><trkpt lat="38.1702519" lon="15.736669"><ele>402.16666666666663</ele><time>2026-04-11T07:02:08.335Z</time></trkpt><trkpt lat="38.1701662" lon="15.7367018"><ele>398.0</ele><time>2026-04-11T07:02:09.335Z</time></trkpt><trkpt lat="38.1700816" lon="15.7367494"><ele>398.0</ele><time>2026-04-11T07:02:10.336Z</time></trkpt><trkpt lat="38.1699925" lon="15.7368042"><ele>398.0</ele><time>2026-04-11T07:02:11.335Z</time></trkpt><trkpt lat="38.1699035" lon="15.7368706"><ele>398.0</ele><time>2026-04-11T07:02:12.335Z</time></trkpt><trkpt lat="38.1698122" lon="15.7369156"><ele>398.0</ele><time>2026-04-11T07:02:13.335Z</time></trkpt><trkpt lat="38.1697232" lon="15.736956"><ele>398.0</ele><time>2026-04-11T07:02:14.335Z</time></trkpt><trkpt lat="38.169634" lon="15.7369986"><ele>394.59999999999997</ele><time>2026-04-11T07:02:15.335Z</time></trkpt><trkpt lat="38.1695622" lon="15.7370425"><ele>391.2</ele><time>2026-04-11T07:02:16.335Z</time></trkpt><trkpt lat="38.1695097" lon="15.7371732"><ele>387.8</ele><time>2026-04-11T07:02:18.335Z</time></trkpt><trkpt lat="38.1695975" lon="15.7372573"><ele>384.4</ele><time>2026-04-11T07:02:20.335Z</time></trkpt><trkpt lat="38.1696813" lon="15.7372519"><ele>381.0</ele><time>2026-04-11T07:02:21.335Z</time></trkpt><trkpt lat="38.1697666" lon="15.7372216"><ele>389.6</ele><time>2026-04-11T07:02:22.335Z</time></trkpt><trkpt lat="38.1698594" lon="15.7371807"><ele>398.20000000000005</ele><time>2026-04-11T07:02:23.335Z</time></trkpt><trkpt lat="38.1699539" lon="15.7371404"><ele>406.79999999999995</ele><time>2026-04-11T07:02:24.335Z</time></trkpt><trkpt lat="38.1700438" lon="15.7370975"><ele>415.4</ele><time>2026-04-11T07:02:25.335Z</time></trkpt><trkpt lat="38.1701243" lon="15.7370547"><ele>424.0</ele><time>2026-04-11T07:02:26.336Z</time></trkpt><trkpt lat="38.1702128" lon="15.7370333"><ele>424.0</ele><time>2026-04-11T07:02:27.336Z</time></trkpt><trkpt lat="38.170297" lon="15.7370449"><ele>424.0</ele><time>2026-04-11T07:02:28.335Z</time></trkpt><trkpt lat="38.1703801" lon="15.737085"><ele>424.0</ele><time>2026-04-11T07:02:29.336Z</time></trkpt><trkpt lat="38.1704675" lon="15.7371398"><ele>424.0</ele><time>2026-04-11T07:02:30.335Z</time></trkpt><trkpt lat="38.1705503" lon="15.7371924"><ele>424.0</ele><time>2026-04-11T07:02:31.335Z</time></trkpt><trkpt lat="38.1706395" lon="15.7372434"><ele>423.83333333333337</ele><time>2026-04-11T07:02:32.335Z</time></trkpt><trkpt lat="38.1707269" lon="15.7372916"><ele>423.6666666666667</ele><time>2026-04-11T07:02:33.335Z</time></trkpt><trkpt lat="38.1708074" lon="15.7373329"><ele>423.5</ele><time>2026-04-11T07:02:34.335Z</time></trkpt><trkpt lat="38.1708775" lon="15.7373721"><ele>423.33333333333337</ele><time>2026-04-11T07:02:35.336Z</time></trkpt><trkpt lat="38.1709332" lon="15.7374204"><ele>423.1666666666667</ele><time>2026-04-11T07:02:36.336Z</time></trkpt><trkpt lat="38.1709681" lon="15.7375399"><ele>423.0</ele><time>2026-04-11T07:02:38.336Z</time></trkpt><trkpt lat="38.1708586" lon="15.7375776"><ele>423.0</ele><time>2026-04-11T07:02:40.335Z</time></trkpt><trkpt lat="38.1707841" lon="15.7375467"><ele>423.0</ele><time>2026-04-11T07:02:41.336Z</time></trkpt><trkpt lat="38.1707001" lon="15.7374835"><ele>423.0</ele><time>2026-04-11T07:02:42.335Z</time></trkpt><trkpt lat="38.1706084" lon="15.7374177"><ele>423.0</ele><time>2026-04-11T07:02:43.336Z</time></trkpt><trkpt lat="38.1705164" lon="15.737372"><ele>423.0</ele><time>2026-04-11T07:02:44.335Z</time></trkpt><trkpt lat="38.1704318" lon="15.7373537"><ele>423.1666666666667</ele><time>2026-04-11T07:02:45.335Z</time></trkpt><trkpt lat="38.1703541" lon="15.7373662"><ele>423.33333333333337</ele><time>2026-04-11T07:02:46.335Z</time></trkpt><trkpt lat="38.1702797" lon="15.7374073"><ele>423.5</ele><time>2026-04-11T07:02:47.335Z</time></trkpt><trkpt lat="38.1702037" lon="15.7374562"><ele>423.6666666666667</ele><time>2026-04-11T07:02:48.335Z</time></trkpt><trkpt lat="38.1701268" lon="15.7375056"><ele>423.83333333333337</ele><time>2026-04-11T07:02:49.335Z</time></trkpt><trkpt lat="38.1700515" lon="15.7375533"><ele>424.0</ele><time>2026-04-11T07:02:50.335Z</time></trkpt><trkpt lat="38.1699841" lon="15.7376137"><ele>424.0</ele><time>2026-04-11T07:02:51.335Z</time></trkpt><trkpt lat="38.1699226" lon="15.7376928"><ele>424.0</ele><time>2026-04-11T07:02:52.335Z</time></trkpt><trkpt lat="38.1698923" lon="15.7377951"><ele>424.0</ele><time>2026-04-11T07:02:53.335Z</time></trkpt><trkpt lat="38.1698982" lon="15.7379095"><ele>424.0</ele><time>2026-04-11T07:02:54.335Z</time></trkpt><trkpt lat="38.1699322" lon="15.7380265"><ele>424.0</ele><time>2026-04-11T07:02:55.335Z</time></trkpt><trkpt lat="38.1699797" lon="15.7381386"><ele>425.4</ele><time>2026-04-11T07:02:56.335Z</time></trkpt><trkpt lat="38.170033" lon="15.7382429"><ele>426.79999999999995</ele><time>2026-04-11T07:02:57.336Z</time></trkpt><trkpt lat="38.1700845" lon="15.7383431"><ele>428.20000000000005</ele><time>2026-04-11T07:02:58.335Z</time></trkpt><trkpt lat="38.1701409" lon="15.7384402"><ele>429.6</ele><time>2026-04-11T07:02:59.335Z</time></trkpt><trkpt lat="38.1702004" lon="15.7385427"><ele>431.0</ele><time>2026-04-11T07:03:00.335Z</time></trkpt><trkpt lat="38.1702681" lon="15.7386358"><ele>427.0</ele><time>2026-04-11T07:03:01.336Z</time></trkpt><trkpt lat="38.1703437" lon="15.738722"><ele>423.0</ele><time>2026-04-11T07:03:02.335Z</time></trkpt><trkpt lat="38.1704212" lon="15.7387848"><ele>419.0</ele><time>2026-04-11T07:03:03.336Z</time></trkpt><trkpt lat="38.1705017" lon="15.738843"><ele>415.0</ele><time>2026-04-11T07:03:04.335Z</time></trkpt><trkpt lat="38.1705898" lon="15.7389029"><ele>411.0</ele><time>2026-04-11T07:03:05.335Z</time></trkpt><trkpt lat="38.1706764" lon="15.7389677"><ele>418.4</ele><time>2026-04-11T07:03:06.335Z</time></trkpt><trkpt lat="38.1707648" lon="15.7390442"><ele>425.8</ele><time>2026-04-11T07:03:07.336Z</time></trkpt><trkpt lat="38.1708525" lon="15.7391319"><ele>433.19999999999993</ele><time>2026-04-11T07:03:08.335Z</time></trkpt><trkpt lat="38.1709333" lon="15.7392197"><ele>440.59999999999997</ele><time>2026-04-11T07:03:09.335Z</time></trkpt><trkpt lat="38.1710043" lon="15.7393153"><ele>448.0</ele><time>2026-04-11T07:03:10.335Z</time></trkpt><trkpt lat="38.1710677" lon="15.7393982"><ele>448.0</ele><time>2026-04-11T07:03:11.336Z</time></trkpt><trkpt lat="38.1711052" lon="15.7395001"><ele>447.99999999999994</ele><time>2026-04-11T07:03:12.335Z</time></trkpt><trkpt lat="38.1711145" lon="15.7396228"><ele>447.99999999999994</ele><time>2026-04-11T07:03:13.335Z</time></trkpt><trkpt lat="38.171106" lon="15.7397557"><ele>448.0</ele><time>2026-04-11T07:03:14.335Z</time></trkpt><trkpt lat="38.1710783" lon="15.7398945"><ele>448.0</ele><time>2026-04-11T07:03:15.335Z</time></trkpt><trkpt lat="38.1710421" lon="15.7400301"><ele>448.0</ele><time>2026-04-11T07:03:16.335Z</time></trkpt><trkpt lat="38.1710124" lon="15.7401587"><ele>447.99999999999994</ele><time>2026-04-11T07:03:17.335Z</time></trkpt><trkpt lat="38.1709669" lon="15.7402785"><ele>447.99999999999994</ele><time>2026-04-11T07:03:18.336Z</time></trkpt><trkpt lat="38.1709021" lon="15.7403862"><ele>448.0</ele><time>2026-04-11T07:03:19.335Z</time></trkpt><trkpt lat="38.1708156" lon="15.74047"><ele>448.0</ele><time>2026-04-11T07:03:20.336Z</time></trkpt><trkpt lat="38.1707226" lon="15.7405344"><ele>444.4</ele><time>2026-04-11T07:03:21.335Z</time></trkpt><trkpt lat="38.1706405" lon="15.740613"><ele>440.79999999999995</ele><time>2026-04-11T07:03:22.335Z</time></trkpt><trkpt lat="38.1705912" lon="15.7407155"><ele>437.2</ele><time>2026-04-11T07:03:23.335Z</time></trkpt><trkpt lat="38.1705747" lon="15.740839"><ele>433.6</ele><time>2026-04-11T07:03:24.335Z</time></trkpt><trkpt lat="38.1705899" lon="15.7409622"><ele>430.0</ele><time>2026-04-11T07:03:25.335Z</time></trkpt><trkpt lat="38.1706288" lon="15.7410875"><ele>426.2</ele><time>2026-04-11T07:03:26.335Z</time></trkpt><trkpt lat="38.1706697" lon="15.7412135"><ele>422.4</ele><time>2026-04-11T07:03:27.335Z</time></trkpt><trkpt lat="38.1706864" lon="15.7413441"><ele>418.6</ele><time>2026-04-11T07:03:28.335Z</time></trkpt><trkpt lat="38.1706855" lon="15.7414765"><ele>414.8</ele><time>2026-04-11T07:03:29.336Z</time></trkpt><trkpt lat="38.1706842" lon="15.7416072"><ele>411.0</ele><time>2026-04-11T07:03:30.335Z</time></trkpt><trkpt lat="38.1706829" lon="15.7417369"><ele>411.0</ele><time>2026-04-11T07:03:31.335Z</time></trkpt><trkpt lat="38.1706897" lon="15.7418592"><ele>411.0</ele><time>2026-04-11T07:03:32.335Z</time></trkpt><trkpt lat="38.1707059" lon="15.7419758"><ele>411.0</ele><time>2026-04-11T07:03:33.335Z</time></trkpt><trkpt lat="38.1707486" lon="15.7420759"><ele>411.0</ele><time>2026-04-11T07:03:34.335Z</time></trkpt><trkpt lat="38.1708142" lon="15.7421574"><ele>411.0</ele><time>2026-04-11T07:03:35.335Z</time></trkpt><trkpt lat="38.1708978" lon="15.7422027"><ele>417.4</ele><time>2026-04-11T07:03:36.335Z</time></trkpt><trkpt lat="38.1709938" lon="15.7422247"><ele>423.8</ele><time>2026-04-11T07:03:37.335Z</time></trkpt><trkpt lat="38.1710972" lon="15.7422256"><ele>430.19999999999993</ele><time>2026-04-11T07:03:38.336Z</time></trkpt><trkpt lat="38.1712031" lon="15.7422299"><ele>436.59999999999997</ele><time>2026-04-11T07:03:39.335Z</time></trkpt><trkpt lat="38.1713132" lon="15.7422479"><ele>443.0</ele><time>2026-04-11T07:03:40.335Z</time></trkpt><trkpt lat="38.1714194" lon="15.7422698"><ele>448.2</ele><time>2026-04-11T07:03:41.335Z</time></trkpt><trkpt lat="38.171525" lon="15.7422852"><ele>453.4</ele><time>2026-04-11T07:03:42.335Z</time></trkpt><trkpt lat="38.1716344" lon="15.7423006"><ele>458.59999999999997</ele><time>2026-04-11T07:03:43.335Z</time></trkpt><trkpt lat="38.1717442" lon="15.7423026"><ele>463.79999999999995</ele><time>2026-04-11T07:03:44.336Z</time></trkpt><trkpt lat="38.1718439" lon="15.7422803"><ele>469.0</ele><time>2026-04-11T07:03:45.335Z</time></trkpt><trkpt lat="38.1719406" lon="15.7422167"><ele>469.0</ele><time>2026-04-11T07:03:46.335Z</time></trkpt><trkpt lat="38.1720363" lon="15.742155"><ele>469.0</ele><time>2026-04-11T07:03:47.336Z</time></trkpt><trkpt lat="38.172136" lon="15.7421079"><ele>469.0</ele><time>2026-04-11T07:03:48.335Z</time></trkpt><trkpt lat="38.1722408" lon="15.7420921"><ele>469.0</ele><time>2026-04-11T07:03:49.336Z</time></trkpt><trkpt lat="38.1723497" lon="15.7421061"><ele>469.0</ele><time>2026-04-11T07:03:50.335Z</time></trkpt><trkpt lat="38.1724596" lon="15.7421313"><ele>471.75</ele><time>2026-04-11T07:03:51.336Z</time></trkpt><trkpt lat="38.172578" lon="15.742167"><ele>474.5</ele><time>2026-04-11T07:03:52.335Z</time></trkpt><trkpt lat="38.1726913" lon="15.7422065"><ele>477.25</ele><time>2026-04-11T07:03:53.335Z</time></trkpt><trkpt lat="38.1728073" lon="15.7422362"><ele>480.0</ele><time>2026-04-11T07:03:54.335Z</time></trkpt><trkpt lat="38.1729195" lon="15.7422451"><ele>480.0</ele><time>2026-04-11T07:03:55.336Z</time></trkpt><trkpt lat="38.1730238" lon="15.742226"><ele>480.0</ele><time>2026-04-11T07:03:56.335Z</time></trkpt><trkpt lat="38.1731428" lon="15.7421609"><ele>480.0</ele><time>2026-04-11T07:03:57.335Z</time></trkpt><trkpt lat="38.1732491" lon="15.7421037"><ele>480.0</ele><time>2026-04-11T07:03:58.335Z</time></trkpt><trkpt lat="38.1733476" lon="15.742057"><ele>480.8</ele><time>2026-04-11T07:03:59.335Z</time></trkpt><trkpt lat="38.1734481" lon="15.7420132"><ele>481.6</ele><time>2026-04-11T07:04:00.335Z</time></trkpt><trkpt lat="38.1735394" lon="15.7419579"><ele>482.4</ele><time>2026-04-11T07:04:01.335Z</time></trkpt><trkpt lat="38.1736246" lon="15.7418941"><ele>483.2</ele><time>2026-04-11T07:04:02.336Z</time></trkpt><trkpt lat="38.1736988" lon="15.7418384"><ele>484.0</ele><time>2026-04-11T07:04:03.335Z</time></trkpt><trkpt lat="38.1737828" lon="15.7418034"><ele>484.79999999999995</ele><time>2026-04-11T07:04:04.336Z</time></trkpt><trkpt lat="38.1738735" lon="15.7417923"><ele>485.59999999999997</ele><time>2026-04-11T07:04:05.335Z</time></trkpt><trkpt lat="38.1739718" lon="15.7418003"><ele>486.4</ele><time>2026-04-11T07:04:06.335Z</time></trkpt><trkpt lat="38.1740712" lon="15.7418419"><ele>487.2</ele><time>2026-04-11T07:04:07.336Z</time></trkpt><trkpt lat="38.1741655" lon="15.7418982"><ele>488.0</ele><time>2026-04-11T07:04:08.336Z</time></trkpt><trkpt lat="38.1742666" lon="15.7419583"><ele>488.0</ele><time>2026-04-11T07:04:09.335Z</time></trkpt><trkpt lat="38.1743712" lon="15.7420211"><ele>487.99999999999994</ele><time>2026-04-11T07:04:10.335Z</time></trkpt><trkpt lat="38.174472" lon="15.7420768"><ele>487.99999999999994</ele><time>2026-04-11T07:04:11.336Z</time></trkpt><trkpt lat="38.1745793" lon="15.7421268"><ele>488.0</ele><time>2026-04-11T07:04:12.336Z</time></trkpt><trkpt lat="38.1746815" lon="15.7421603"><ele>488.0</ele><time>2026-04-11T07:04:13.335Z</time></trkpt><trkpt lat="38.1747746" lon="15.7421883"><ele>487.4</ele><time>2026-04-11T07:04:14.335Z</time></trkpt><trkpt lat="38.1748658" lon="15.7422356"><ele>486.79999999999995</ele><time>2026-04-11T07:04:15.335Z</time></trkpt><trkpt lat="38.1749539" lon="15.7422618"><ele>486.2</ele><time>2026-04-11T07:04:16.335Z</time></trkpt><trkpt lat="38.1750412" lon="15.7422588"><ele>485.6</ele><time>2026-04-11T07:04:17.336Z</time></trkpt><trkpt lat="38.1751349" lon="15.742235"><ele>485.0</ele><time>2026-04-11T07:04:18.335Z</time></trkpt><trkpt lat="38.1752329" lon="15.7422036"><ele>485.0</ele><time>2026-04-11T07:04:19.335Z</time></trkpt><trkpt lat="38.1753344" lon="15.7421672"><ele>485.0</ele><time>2026-04-11T07:04:20.335Z</time></trkpt><trkpt lat="38.1754361" lon="15.7421348"><ele>485.0</ele><time>2026-04-11T07:04:21.336Z</time></trkpt><trkpt lat="38.1755308" lon="15.7421136"><ele>485.0</ele><time>2026-04-11T07:04:22.336Z</time></trkpt><trkpt lat="38.1756299" lon="15.7421092"><ele>485.0</ele><time>2026-04-11T07:04:23.336Z</time></trkpt><trkpt lat="38.1757271" lon="15.7421338"><ele>486.4</ele><time>2026-04-11T07:04:24.335Z</time></trkpt><trkpt lat="38.1758208" lon="15.7421735"><ele>487.8</ele><time>2026-04-11T07:04:25.335Z</time></trkpt><trkpt lat="38.1759198" lon="15.742226"><ele>489.20000000000005</ele><time>2026-04-11T07:04:26.335Z</time></trkpt><trkpt lat="38.1760156" lon="15.7422642"><ele>490.6</ele><time>2026-04-11T07:04:27.336Z</time></trkpt><trkpt lat="38.1761105" lon="15.7422904"><ele>492.0</ele><time>2026-04-11T07:04:28.335Z</time></trkpt><trkpt lat="38.1761952" lon="15.742283"><ele>492.0</ele><time>2026-04-11T07:04:29.336Z</time></trkpt><trkpt lat="38.176265" lon="15.7422329"><ele>492.00000000000006</ele><time>2026-04-11T07:04:30.336Z</time></trkpt><trkpt lat="38.1763176" lon="15.7421477"><ele>492.00000000000006</ele><time>2026-04-11T07:04:31.336Z</time></trkpt><trkpt lat="38.1763568" lon="15.7420369"><ele>492.0</ele><time>2026-04-11T07:04:32.336Z</time></trkpt><trkpt lat="38.1763887" lon="15.7419126"><ele>492.0</ele><time>2026-04-11T07:04:33.335Z</time></trkpt><trkpt lat="38.1764153" lon="15.7417906"><ele>497.5</ele><time>2026-04-11T07:04:34.335Z</time></trkpt><trkpt lat="38.1764481" lon="15.7416824"><ele>503.0</ele><time>2026-04-11T07:04:35.335Z</time></trkpt><trkpt lat="38.1764903" lon="15.7415889"><ele>508.5</ele><time>2026-04-11T07:04:36.335Z</time></trkpt><trkpt lat="38.1765593" lon="15.7415452"><ele>514.0</ele><time>2026-04-11T07:04:37.335Z</time></trkpt><trkpt lat="38.1766415" lon="15.741537"><ele>519.5</ele><time>2026-04-11T07:04:38.335Z</time></trkpt><trkpt lat="38.176721" lon="15.7415726"><ele>525.0</ele><time>2026-04-11T07:04:39.335Z</time></trkpt><trkpt lat="38.1767975" lon="15.7416507"><ele>525.0</ele><time>2026-04-11T07:04:40.335Z</time></trkpt><trkpt lat="38.1768584" lon="15.7417634"><ele>525.0</ele><time>2026-04-11T07:04:41.335Z</time></trkpt><trkpt lat="38.1769156" lon="15.741881"><ele>525.0</ele><time>2026-04-11T07:04:42.335Z</time></trkpt><trkpt lat="38.1769747" lon="15.7419896"><ele>525.0</ele><time>2026-04-11T07:04:43.335Z</time></trkpt><trkpt lat="38.1770424" lon="15.7420791"><ele>525.0</ele><time>2026-04-11T07:04:44.335Z</time></trkpt><trkpt lat="38.1771127" lon="15.7421727"><ele>524.2</ele><time>2026-04-11T07:04:45.335Z</time></trkpt><trkpt lat="38.1771899" lon="15.7422531"><ele>523.4</ele><time>2026-04-11T07:04:46.335Z</time></trkpt><trkpt lat="38.1772608" lon="15.7423332"><ele>522.6</ele><time>2026-04-11T07:04:47.336Z</time></trkpt><trkpt lat="38.1773251" lon="15.7424174"><ele>521.8</ele><time>2026-04-11T07:04:48.335Z</time></trkpt><trkpt lat="38.1773954" lon="15.7424949"><ele>521.0</ele><time>2026-04-11T07:04:49.335Z</time></trkpt><trkpt lat="38.1774697" lon="15.7425543"><ele>521.0</ele><time>2026-04-11T07:04:50.335Z</time></trkpt><trkpt lat="38.177553" lon="15.7425781"><ele>521.0</ele><time>2026-04-11T07:04:51.335Z</time></trkpt><trkpt lat="38.1776427" lon="15.742567"><ele>521.0</ele><time>2026-04-11T07:04:52.335Z</time></trkpt><trkpt lat="38.1777394" lon="15.7425364"><ele>521.0</ele><time>2026-04-11T07:04:53.336Z</time></trkpt><trkpt lat="38.1778378" lon="15.7425167"><ele>521.0</ele><time>2026-04-11T07:04:54.335Z</time></trkpt><trkpt lat="38.1779241" lon="15.7425571"><ele>521.0</ele><time>2026-04-11T07:04:55.336Z</time></trkpt><trkpt lat="38.1780016" lon="15.7426262"><ele>521.0</ele><time>2026-04-11T07:04:56.335Z</time></trkpt><trkpt lat="38.1780744" lon="15.7427148"><ele>521.0</ele><time>2026-04-11T07:04:57.335Z</time></trkpt><trkpt lat="38.1781444" lon="15.7428149"><ele>521.0</ele><time>2026-04-11T07:04:58.335Z</time></trkpt><trkpt lat="38.1782169" lon="15.7429224"><ele>521.0</ele><time>2026-04-11T07:04:59.335Z</time></trkpt><trkpt lat="38.1782961" lon="15.7430297"><ele>522.8</ele><time>2026-04-11T07:05:00.335Z</time></trkpt><trkpt lat="38.178378" lon="15.7431277"><ele>524.6</ele><time>2026-04-11T07:05:01.335Z</time></trkpt><trkpt lat="38.1784601" lon="15.7432223"><ele>526.4</ele><time>2026-04-11T07:05:02.336Z</time></trkpt><trkpt lat="38.178547" lon="15.7433044"><ele>528.2</ele><time>2026-04-11T07:05:03.335Z</time></trkpt><trkpt lat="38.1786205" lon="15.7433885"><ele>530.0</ele><time>2026-04-11T07:05:04.335Z</time></trkpt><trkpt lat="38.1786793" lon="15.7434864"><ele>531.2</ele><time>2026-04-11T07:05:05.336Z</time></trkpt><trkpt lat="38.1787288" lon="15.7436003"><ele>532.4</ele><time>2026-04-11T07:05:06.335Z</time></trkpt><trkpt lat="38.1787716" lon="15.7437217"><ele>533.6</ele><time>2026-04-11T07:05:07.335Z</time></trkpt><trkpt lat="38.178819" lon="15.7438307"><ele>534.8</ele><time>2026-04-11T07:05:08.335Z</time></trkpt><trkpt lat="38.1788766" lon="15.7439398"><ele>536.0</ele><time>2026-04-11T07:05:09.336Z</time></trkpt><trkpt lat="38.1789383" lon="15.7440385"><ele>536.0</ele><time>2026-04-11T07:05:10.336Z</time></trkpt><trkpt lat="38.1790075" lon="15.7441348"><ele>536.0</ele><time>2026-04-11T07:05:11.335Z</time></trkpt><trkpt lat="38.1790771" lon="15.7442348"><ele>536.0</ele><time>2026-04-11T07:05:12.335Z</time></trkpt><trkpt lat="38.1791419" lon="15.7443407"><ele>536.0</ele><time>2026-04-11T07:05:13.335Z</time></trkpt><trkpt lat="38.1791983" lon="15.7444509"><ele>536.0</ele><time>2026-04-11T07:05:14.336Z</time></trkpt><trkpt lat="38.1792489" lon="15.7445553"><ele>537.6666666666666</ele><time>2026-04-11T07:05:15.336Z</time></trkpt><trkpt lat="38.1792927" lon="15.7446566"><ele>539.3333333333333</ele><time>2026-04-11T07:05:16.335Z</time></trkpt><trkpt lat="38.1793191" lon="15.7447523"><ele>541.0</ele><time>2026-04-11T07:05:17.335Z</time></trkpt><trkpt lat="38.1793238" lon="15.7448399"><ele>542.6666666666666</ele><time>2026-04-11T07:05:18.336Z</time></trkpt><trkpt lat="38.179318" lon="15.7449279"><ele>544.3333333333334</ele><time>2026-04-11T07:05:19.335Z</time></trkpt><trkpt lat="38.1792884" lon="15.7450128"><ele>546.0</ele><time>2026-04-11T07:05:20.335Z</time></trkpt><trkpt lat="38.1791879" lon="15.7450978"><ele>546.0</ele><time>2026-04-11T07:05:22.335Z</time></trkpt><trkpt lat="38.179099" lon="15.7450694"><ele>546.0</ele><time>2026-04-11T07:05:23.335Z</time></trkpt><trkpt lat="38.1790175" lon="15.7450185"><ele>546.0</ele><time>2026-04-11T07:05:24.335Z</time></trkpt><trkpt lat="38.178923" lon="15.7449127"><ele>546.0</ele><time>2026-04-11T07:05:25.335Z</time></trkpt><trkpt lat="38.1788303" lon="15.7448198"><ele>546.0</ele><time>2026-04-11T07:05:26.336Z</time></trkpt><trkpt lat="38.1787378" lon="15.7447356"><ele>544.0</ele><time>2026-04-11T07:05:27.336Z</time></trkpt><trkpt lat="38.1786613" lon="15.7446449"><ele>542.0</ele><time>2026-04-11T07:05:28.335Z</time></trkpt><trkpt lat="38.1785984" lon="15.7445394"><ele>540.0</ele><time>2026-04-11T07:05:29.335Z</time></trkpt><trkpt lat="38.1785322" lon="15.7444364"><ele>538.0</ele><time>2026-04-11T07:05:30.336Z</time></trkpt><trkpt lat="38.1784534" lon="15.744343"><ele>536.0</ele><time>2026-04-11T07:05:31.335Z</time></trkpt><trkpt lat="38.1783715" lon="15.744249"><ele>536.0</ele><time>2026-04-11T07:05:32.335Z</time></trkpt><trkpt lat="38.1782904" lon="15.7441677"><ele>536.0</ele><time>2026-04-11T07:05:33.336Z</time></trkpt><trkpt lat="38.1782058" lon="15.7440939"><ele>536.0</ele><time>2026-04-11T07:05:34.335Z</time></trkpt><trkpt lat="38.1781191" lon="15.7440346"><ele>536.0</ele><time>2026-04-11T07:05:35.335Z</time></trkpt><trkpt lat="38.1780327" lon="15.7439962"><ele>536.0</ele><time>2026-04-11T07:05:36.335Z</time></trkpt><trkpt lat="38.1779398" lon="15.7439761"><ele>536.6</ele><time>2026-04-11T07:05:37.335Z</time></trkpt><trkpt lat="38.1778456" lon="15.7439796"><ele>537.2</ele><time>2026-04-11T07:05:38.336Z</time></trkpt><trkpt lat="38.1777639" lon="15.7440108"><ele>537.8</ele><time>2026-04-11T07:05:39.335Z</time></trkpt><trkpt lat="38.1776893" lon="15.7440836"><ele>538.4</ele><time>2026-04-11T07:05:40.335Z</time></trkpt><trkpt lat="38.1776231" lon="15.7441811"><ele>539.0</ele><time>2026-04-11T07:05:41.335Z</time></trkpt><trkpt lat="38.1775817" lon="15.7443036"><ele>542.0</ele><time>2026-04-11T07:05:42.335Z</time></trkpt><trkpt lat="38.1775616" lon="15.744439"><ele>545.0</ele><time>2026-04-11T07:05:43.336Z</time></trkpt><trkpt lat="38.1775456" lon="15.7445737"><ele>548.0</ele><time>2026-04-11T07:05:44.335Z</time></trkpt><trkpt lat="38.1775255" lon="15.7447128"><ele>551.0</ele><time>2026-04-11T07:05:45.335Z</time></trkpt><trkpt lat="38.1774958" lon="15.7448444"><ele>554.0</ele><time>2026-04-11T07:05:46.335Z</time></trkpt><trkpt lat="38.1774719" lon="15.7449729"><ele>554.0</ele><time>2026-04-11T07:05:47.335Z</time></trkpt><trkpt lat="38.1774443" lon="15.7450936"><ele>554.0</ele><time>2026-04-11T07:05:48.335Z</time></trkpt><trkpt lat="38.1774081" lon="15.7452034"><ele>554.0</ele><time>2026-04-11T07:05:49.336Z</time></trkpt><trkpt lat="38.1773582" lon="15.7452998"><ele>554.0</ele><time>2026-04-11T07:05:50.336Z</time></trkpt><trkpt lat="38.1772947" lon="15.745386"><ele>554.0</ele><time>2026-04-11T07:05:51.335Z</time></trkpt><trkpt lat="38.1772227" lon="15.7454716"><ele>556.0</ele><time>2026-04-11T07:05:52.336Z</time></trkpt><trkpt lat="38.1771446" lon="15.7455491"><ele>558.0</ele><time>2026-04-11T07:05:53.335Z</time></trkpt><trkpt lat="38.1770587" lon="15.7456111"><ele>560.0</ele><time>2026-04-11T07:05:54.336Z</time></trkpt><trkpt lat="38.1769679" lon="15.7456638"><ele>562.0</ele><time>2026-04-11T07:05:55.336Z</time></trkpt><trkpt lat="38.1768735" lon="15.7457001"><ele>564.0</ele><time>2026-04-11T07:05:56.335Z</time></trkpt><trkpt lat="38.1767696" lon="15.7457199"><ele>564.0</ele><time>2026-04-11T07:05:57.335Z</time></trkpt><trkpt lat="38.1766703" lon="15.7457463"><ele>564.0</ele><time>2026-04-11T07:05:58.336Z</time></trkpt><trkpt lat="38.1765735" lon="15.7457802"><ele>564.0</ele><time>2026-04-11T07:05:59.335Z</time></trkpt><trkpt lat="38.17649" lon="15.7458205"><ele>564.0</ele><time>2026-04-11T07:06:00.336Z</time></trkpt><trkpt lat="38.1764117" lon="15.7458828"><ele>564.0</ele><time>2026-04-11T07:06:01.336Z</time></trkpt><trkpt lat="38.1763512" lon="15.7459665"><ele>566.6</ele><time>2026-04-11T07:06:02.335Z</time></trkpt><trkpt lat="38.1762961" lon="15.7460679"><ele>569.2</ele><time>2026-04-11T07:06:03.336Z</time></trkpt><trkpt lat="38.1762389" lon="15.7461636"><ele>571.8000000000001</ele><time>2026-04-11T07:06:04.335Z</time></trkpt><trkpt lat="38.1761646" lon="15.7462305"><ele>574.4</ele><time>2026-04-11T07:06:05.336Z</time></trkpt><trkpt lat="38.1760807" lon="15.746269"><ele>577.0</ele><time>2026-04-11T07:06:06.335Z</time></trkpt><trkpt lat="38.17599" lon="15.7462699"><ele>577.0</ele><time>2026-04-11T07:06:07.335Z</time></trkpt><trkpt lat="38.1758946" lon="15.7462535"><ele>577.0</ele><time>2026-04-11T07:06:08.335Z</time></trkpt><trkpt lat="38.1757973" lon="15.7462563"><ele>577.0</ele><time>2026-04-11T07:06:09.335Z</time></trkpt><trkpt lat="38.1757048" lon="15.7462794"><ele>577.0</ele><time>2026-04-11T07:06:10.336Z</time></trkpt><trkpt lat="38.1756234" lon="15.746344"><ele>577.0</ele><time>2026-04-11T07:06:11.335Z</time></trkpt><trkpt lat="38.1755723" lon="15.7464485"><ele>577.2</ele><time>2026-04-11T07:06:12.335Z</time></trkpt><trkpt lat="38.1755553" lon="15.7465634"><ele>577.4000000000001</ele><time>2026-04-11T07:06:13.335Z</time></trkpt><trkpt lat="38.1755673" lon="15.7466865"><ele>577.5999999999999</ele><time>2026-04-11T07:06:14.335Z</time></trkpt><trkpt lat="38.1755958" lon="15.7468139"><ele>577.8</ele><time>2026-04-11T07:06:15.336Z</time></trkpt><trkpt lat="38.1756294" lon="15.7469438"><ele>578.0</ele><time>2026-04-11T07:06:16.336Z</time></trkpt><trkpt lat="38.1756479" lon="15.7470715"><ele>578.0</ele><time>2026-04-11T07:06:17.336Z</time></trkpt><trkpt lat="38.1756375" lon="15.7471931"><ele>578.0</ele><time>2026-04-11T07:06:18.336Z</time></trkpt><trkpt lat="38.1755907" lon="15.7473032"><ele>578.0</ele><time>2026-04-11T07:06:19.336Z</time></trkpt><trkpt lat="38.1755175" lon="15.7473924"><ele>578.0</ele><time>2026-04-11T07:06:20.335Z</time></trkpt><trkpt lat="38.1754254" lon="15.7474656"><ele>578.0</ele><time>2026-04-11T07:06:21.335Z</time></trkpt><trkpt lat="38.1753249" lon="15.7475273"><ele>578.0</ele><time>2026-04-11T07:06:22.335Z</time></trkpt><trkpt lat="38.1752186" lon="15.747555"><ele>578.0</ele><time>2026-04-11T07:06:23.335Z</time></trkpt><trkpt lat="38.1751069" lon="15.7475674"><ele>578.0</ele><time>2026-04-11T07:06:24.335Z</time></trkpt><trkpt lat="38.1749869" lon="15.747562"><ele>578.0</ele><time>2026-04-11T07:06:25.335Z</time></trkpt><trkpt lat="38.1748675" lon="15.7475473"><ele>577.0</ele><time>2026-04-11T07:06:26.336Z</time></trkpt><trkpt lat="38.1747447" lon="15.74752"><ele>576.0</ele><time>2026-04-11T07:06:27.336Z</time></trkpt><trkpt lat="38.1746201" lon="15.7474791"><ele>575.0</ele><time>2026-04-11T07:06:28.335Z</time></trkpt><trkpt lat="38.1744943" lon="15.7474573"><ele>574.0</ele><time>2026-04-11T07:06:29.335Z</time></trkpt><trkpt lat="38.1743656" lon="15.7474629"><ele>574.0</ele><time>2026-04-11T07:06:30.336Z</time></trkpt><trkpt lat="38.1742315" lon="15.7474754"><ele>574.0</ele><time>2026-04-11T07:06:31.335Z</time></trkpt><trkpt lat="38.1741053" lon="15.7474858"><ele>574.0</ele><time>2026-04-11T07:06:32.335Z</time></trkpt><trkpt lat="38.1739773" lon="15.7474884"><ele>574.0</ele><time>2026-04-11T07:06:33.336Z</time></trkpt><trkpt lat="38.1738487" lon="15.7475069"><ele>574.0</ele><time>2026-04-11T07:06:34.335Z</time></trkpt><trkpt lat="38.1737246" lon="15.7475454"><ele>574.0</ele><time>2026-04-11T07:06:35.335Z</time></trkpt><trkpt lat="38.1736021" lon="15.7475909"><ele>574.0</ele><time>2026-04-11T07:06:36.335Z</time></trkpt><trkpt lat="38.1734821" lon="15.7476376"><ele>574.0</ele><time>2026-04-11T07:06:37.336Z</time></trkpt><trkpt lat="38.1733693" lon="15.7476828"><ele>575.4</ele><time>2026-04-11T07:06:38.335Z</time></trkpt><trkpt lat="38.1732558" lon="15.7477186"><ele>576.8</ele><time>2026-04-11T07:06:39.336Z</time></trkpt><trkpt lat="38.1731412" lon="15.7477397"><ele>578.2</ele><time>2026-04-11T07:06:40.335Z</time></trkpt><trkpt lat="38.1730342" lon="15.7477345"><ele>579.6</ele><time>2026-04-11T07:06:41.335Z</time></trkpt><trkpt lat="38.1729311" lon="15.7476918"><ele>581.0</ele><time>2026-04-11T07:06:42.335Z</time></trkpt><trkpt lat="38.1728368" lon="15.7476272"><ele>581.0</ele><time>2026-04-11T07:06:43.335Z</time></trkpt><trkpt lat="38.1727496" lon="15.7475428"><ele>581.0</ele><time>2026-04-11T07:06:44.335Z</time></trkpt><trkpt lat="38.1726579" lon="15.7474618"><ele>581.0</ele><time>2026-04-11T07:06:45.335Z</time></trkpt><trkpt lat="38.1725616" lon="15.7473718"><ele>581.0</ele><time>2026-04-11T07:06:46.336Z</time></trkpt><trkpt lat="38.1724593" lon="15.7473025"><ele>581.0</ele><time>2026-04-11T07:06:47.335Z</time></trkpt><trkpt lat="38.1723626" lon="15.7472744"><ele>581.0</ele><time>2026-04-11T07:06:48.335Z</time></trkpt><trkpt lat="38.1722679" lon="15.7472638"><ele>581.0</ele><time>2026-04-11T07:06:49.335Z</time></trkpt><trkpt lat="38.1721855" lon="15.747277"><ele>581.0</ele><time>2026-04-11T07:06:50.335Z</time></trkpt><trkpt lat="38.1721094" lon="15.7473071"><ele>581.0</ele><time>2026-04-11T07:06:51.336Z</time></trkpt><trkpt lat="38.1720479" lon="15.7473678"><ele>581.0</ele><time>2026-04-11T07:06:52.336Z</time></trkpt><trkpt lat="38.1720129" lon="15.747466"><ele>578.6</ele><time>2026-04-11T07:06:53.335Z</time></trkpt><trkpt lat="38.1720018" lon="15.747585"><ele>576.2</ele><time>2026-04-11T07:06:54.335Z</time></trkpt><trkpt lat="38.172019" lon="15.7477129"><ele>573.8</ele><time>2026-04-11T07:06:55.335Z</time></trkpt><trkpt lat="38.1720652" lon="15.7478248"><ele>571.4</ele><time>2026-04-11T07:06:56.335Z</time></trkpt><trkpt lat="38.1721277" lon="15.7479312"><ele>569.0</ele><time>2026-04-11T07:06:57.335Z</time></trkpt><trkpt lat="38.1722116" lon="15.7480219"><ele>565.25</ele><time>2026-04-11T07:06:58.335Z</time></trkpt><trkpt lat="38.1723052" lon="15.7481079"><ele>561.5</ele><time>2026-04-11T07:06:59.335Z</time></trkpt><trkpt lat="38.1723976" lon="15.7481942"><ele>557.75</ele><time>2026-04-11T07:07:00.335Z</time></trkpt><trkpt lat="38.1724815" lon="15.7482884"><ele>554.0</ele><time>2026-04-11T07:07:01.335Z</time></trkpt><trkpt lat="38.1725657" lon="15.7483934"><ele>559.6</ele><time>2026-04-11T07:07:02.335Z</time></trkpt><trkpt lat="38.1726496" lon="15.7484971"><ele>565.2</ele><time>2026-04-11T07:07:03.335Z</time></trkpt><trkpt lat="38.1727259" lon="15.7486059"><ele>570.8000000000001</ele><time>2026-04-11T07:07:04.336Z</time></trkpt><trkpt lat="38.1727989" lon="15.7487052"><ele>576.4</ele><time>2026-04-11T07:07:05.336Z</time></trkpt><trkpt lat="38.1728566" lon="15.7488147"><ele>582.0</ele><time>2026-04-11T07:07:06.335Z</time></trkpt><trkpt lat="38.1729016" lon="15.7489332"><ele>582.0</ele><time>2026-04-11T07:07:07.335Z</time></trkpt><trkpt lat="38.1729373" lon="15.7490579"><ele>582.0</ele><time>2026-04-11T07:07:08.335Z</time></trkpt><trkpt lat="38.1729615" lon="15.7491875"><ele>582.0</ele><time>2026-04-11T07:07:09.335Z</time></trkpt><trkpt lat="38.1729788" lon="15.7493177"><ele>582.0</ele><time>2026-04-11T07:07:10.335Z</time></trkpt><trkpt lat="38.1729987" lon="15.7494454"><ele>582.0</ele><time>2026-04-11T07:07:11.335Z</time></trkpt><trkpt lat="38.1730248" lon="15.7495777"><ele>579.0</ele><time>2026-04-11T07:07:12.336Z</time></trkpt><trkpt lat="38.1730628" lon="15.7497113"><ele>576.0</ele><time>2026-04-11T07:07:13.336Z</time></trkpt><trkpt lat="38.1731024" lon="15.7498314"><ele>573.0</ele><time>2026-04-11T07:07:14.336Z</time></trkpt><trkpt lat="38.1731538" lon="15.7499464"><ele>570.0</ele><time>2026-04-11T07:07:15.335Z</time></trkpt><trkpt lat="38.1732111" lon="15.7500531"><ele>567.0</ele><time>2026-04-11T07:07:16.335Z</time></trkpt><trkpt lat="38.1732833" lon="15.7501495"><ele>574.4</ele><time>2026-04-11T07:07:17.335Z</time></trkpt><trkpt lat="38.1733624" lon="15.7502246"><ele>581.8000000000001</ele><time>2026-04-11T07:07:18.335Z</time></trkpt><trkpt lat="38.1734358" lon="15.7502919"><ele>589.2</ele><time>2026-04-11T07:07:19.336Z</time></trkpt><trkpt lat="38.1734948" lon="15.7503483"><ele>596.6</ele><time>2026-04-11T07:07:20.336Z</time></trkpt><trkpt lat="38.1735247" lon="15.750422"><ele>604.0</ele><time>2026-04-11T07:07:21.335Z</time></trkpt><trkpt lat="38.1734925" lon="15.7505743"><ele>604.0</ele><time>2026-04-11T07:07:23.335Z</time></trkpt><trkpt lat="38.1734316" lon="15.7506254"><ele>604.0</ele><time>2026-04-11T07:07:24.336Z</time></trkpt><trkpt lat="38.1733334" lon="15.7506845"><ele>604.0</ele><time>2026-04-11T07:07:25.336Z</time></trkpt><trkpt lat="38.1732297" lon="15.7507576"><ele>604.0</ele><time>2026-04-11T07:07:26.335Z</time></trkpt><trkpt lat="38.1731364" lon="15.7508515"><ele>604.0</ele><time>2026-04-11T07:07:27.335Z</time></trkpt><trkpt lat="38.1730756" lon="15.7509455"><ele>604.0</ele><time>2026-04-11T07:07:28.335Z</time></trkpt><trkpt lat="38.1730562" lon="15.7510357"><ele>604.0</ele><time>2026-04-11T07:07:29.335Z</time></trkpt><trkpt lat="38.1730738" lon="15.751133"><ele>604.0</ele><time>2026-04-11T07:07:30.335Z</time></trkpt><trkpt lat="38.1731188" lon="15.7512336"><ele>604.0</ele><time>2026-04-11T07:07:31.335Z</time></trkpt><trkpt lat="38.1731848" lon="15.7513398"><ele>604.0</ele><time>2026-04-11T07:07:32.335Z</time></trkpt><trkpt lat="38.1732534" lon="15.7514562"><ele>604.0</ele><time>2026-04-11T07:07:33.335Z</time></trkpt><trkpt lat="38.1733024" lon="15.7515824"><ele>604.0</ele><time>2026-04-11T07:07:34.335Z</time></trkpt><trkpt lat="38.173325" lon="15.7517231"><ele>604.0</ele><time>2026-04-11T07:07:35.335Z</time></trkpt><trkpt lat="38.1733439" lon="15.7518596"><ele>604.0</ele><time>2026-04-11T07:07:36.336Z</time></trkpt><trkpt lat="38.1733604" lon="15.7519921"><ele>604.0</ele><time>2026-04-11T07:07:37.336Z</time></trkpt><trkpt lat="38.1733872" lon="15.7521238"><ele>602.8</ele><time>2026-04-11T07:07:38.335Z</time></trkpt><trkpt lat="38.1734174" lon="15.7522477"><ele>601.5999999999999</ele><time>2026-04-11T07:07:39.335Z</time></trkpt><trkpt lat="38.1734569" lon="15.7523506"><ele>600.4</ele><time>2026-04-11T07:07:40.335Z</time></trkpt><trkpt lat="38.1735073" lon="15.7524384"><ele>599.1999999999999</ele><time>2026-04-11T07:07:41.335Z</time></trkpt><trkpt lat="38.1735762" lon="15.752505"><ele>598.0</ele><time>2026-04-11T07:07:42.335Z</time></trkpt><trkpt lat="38.173657" lon="15.7525618"><ele>598.0</ele><time>2026-04-11T07:07:43.335Z</time></trkpt><trkpt lat="38.1737477" lon="15.7526189"><ele>598.0</ele><time>2026-04-11T07:07:44.335Z</time></trkpt><trkpt lat="38.173841" lon="15.7526804"><ele>598.0</ele><time>2026-04-11T07:07:45.335Z</time></trkpt><trkpt lat="38.1739306" lon="15.7527657"><ele>598.0</ele><time>2026-04-11T07:07:46.335Z</time></trkpt><trkpt lat="38.1740097" lon="15.7528563"><ele>598.0</ele><time>2026-04-11T07:07:47.335Z</time></trkpt><trkpt lat="38.1740794" lon="15.7529545"><ele>598.8</ele><time>2026-04-11T07:07:48.335Z</time></trkpt><trkpt lat="38.1741465" lon="15.7530575"><ele>599.5999999999999</ele><time>2026-04-11T07:07:49.335Z</time></trkpt><trkpt lat="38.1742074" lon="15.7531621"><ele>600.4000000000001</ele><time>2026-04-11T07:07:50.335Z</time></trkpt><trkpt lat="38.1742746" lon="15.7532592"><ele>601.2</ele><time>2026-04-11T07:07:51.336Z</time></trkpt><trkpt lat="38.1743405" lon="15.7533669"><ele>602.0</ele><time>2026-04-11T07:07:52.335Z</time></trkpt><trkpt lat="38.1744114" lon="15.753458"><ele>597.0</ele><time>2026-04-11T07:07:53.336Z</time></trkpt><trkpt lat="38.1744791" lon="15.7535533"><ele>592.0</ele><time>2026-04-11T07:07:54.335Z</time></trkpt><trkpt lat="38.1745563" lon="15.7536583"><ele>587.0</ele><time>2026-04-11T07:07:55.335Z</time></trkpt><trkpt lat="38.1746357" lon="15.7537465"><ele>582.0</ele><time>2026-04-11T07:07:56.335Z</time></trkpt><trkpt lat="38.1747118" lon="15.7538402"><ele>577.0</ele><time>2026-04-11T07:07:57.336Z</time></trkpt><trkpt lat="38.1747823" lon="15.7539429"><ele>577.0</ele><time>2026-04-11T07:07:58.336Z</time></trkpt><trkpt lat="38.1748521" lon="15.7540534"><ele>577.0</ele><time>2026-04-11T07:07:59.335Z</time></trkpt><trkpt lat="38.1749122" lon="15.7541684"><ele>577.0</ele><time>2026-04-11T07:08:00.335Z</time></trkpt><trkpt lat="38.1749483" lon="15.7542978"><ele>577.0</ele><time>2026-04-11T07:08:01.336Z</time></trkpt><trkpt lat="38.1749834" lon="15.7544178"><ele>577.0</ele><time>2026-04-11T07:08:02.336Z</time></trkpt><trkpt lat="38.1750326" lon="15.7545308"><ele>582.0</ele><time>2026-04-11T07:08:03.335Z</time></trkpt><trkpt lat="38.1750977" lon="15.7546286"><ele>587.0</ele><time>2026-04-11T07:08:04.335Z</time></trkpt><trkpt lat="38.1751671" lon="15.7547089"><ele>592.0</ele><time>2026-04-11T07:08:05.335Z</time></trkpt><trkpt lat="38.1752223" lon="15.7547936"><ele>597.0</ele><time>2026-04-11T07:08:06.335Z</time></trkpt><trkpt lat="38.1752547" lon="15.7548722"><ele>602.0</ele><time>2026-04-11T07:08:07.335Z</time></trkpt><trkpt lat="38.1752405" lon="15.7550138"><ele>602.0</ele><time>2026-04-11T07:08:09.335Z</time></trkpt><trkpt lat="38.1751927" lon="15.7550661"><ele>602.0</ele><time>2026-04-11T07:08:10.335Z</time></trkpt><trkpt lat="38.1751247" lon="15.7550937"><ele>602.0</ele><time>2026-04-11T07:08:11.336Z</time></trkpt><trkpt lat="38.1750351" lon="15.7550953"><ele>602.0</ele><time>2026-04-11T07:08:12.336Z</time></trkpt><trkpt lat="38.1749277" lon="15.7550645"><ele>602.0</ele><time>2026-04-11T07:08:13.336Z</time></trkpt><trkpt lat="38.1748216" lon="15.7549884"><ele>599.25</ele><time>2026-04-11T07:08:14.335Z</time></trkpt><trkpt lat="38.174712" lon="15.7549077"><ele>596.5</ele><time>2026-04-11T07:08:15.336Z</time></trkpt><trkpt lat="38.1745953" lon="15.7548435"><ele>593.75</ele><time>2026-04-11T07:08:16.336Z</time></trkpt><trkpt lat="38.1744908" lon="15.7548162"><ele>591.0</ele><time>2026-04-11T07:08:17.335Z</time></trkpt><trkpt lat="38.1743955" lon="15.7548154"><ele>591.0</ele><time>2026-04-11T07:08:18.336Z</time></trkpt><trkpt lat="38.1743113" lon="15.7548483"><ele>591.0</ele><time>2026-04-11T07:08:19.335Z</time></trkpt><trkpt lat="38.1742258" lon="15.7548863"><ele>591.0</ele><time>2026-04-11T07:08:20.335Z</time></trkpt><trkpt lat="38.1741567" lon="15.7549053"><ele>591.0</ele><time>2026-04-11T07:08:21.335Z</time></trkpt><trkpt lat="38.1740832" lon="15.7549128"><ele>591.0</ele><time>2026-04-11T07:08:22.335Z</time></trkpt><trkpt lat="38.1740042" lon="15.7549083"><ele>591.0</ele><time>2026-04-11T07:08:23.336Z</time></trkpt><trkpt lat="38.1739179" lon="15.7549041"><ele>588.4</ele><time>2026-04-11T07:08:24.336Z</time></trkpt><trkpt lat="38.1738263" lon="15.7549251"><ele>585.8</ele><time>2026-04-11T07:08:25.335Z</time></trkpt><trkpt lat="38.1737449" lon="15.7549775"><ele>583.1999999999999</ele><time>2026-04-11T07:08:26.335Z</time></trkpt><trkpt lat="38.1736756" lon="15.75506"><ele>580.6</ele><time>2026-04-11T07:08:27.335Z</time></trkpt><trkpt lat="38.173605" lon="15.7551604"><ele>578.0</ele><time>2026-04-11T07:08:28.335Z</time></trkpt><trkpt lat="38.1735308" lon="15.7552605"><ele>584.1999999999999</ele><time>2026-04-11T07:08:29.336Z</time></trkpt><trkpt lat="38.1734356" lon="15.7553248"><ele>590.4</ele><time>2026-04-11T07:08:30.335Z</time></trkpt><trkpt lat="38.1733272" lon="15.7553431"><ele>596.5999999999999</ele><time>2026-04-11T07:08:31.335Z</time></trkpt><trkpt lat="38.1732222" lon="15.7553247"><ele>602.8</ele><time>2026-04-11T07:08:32.335Z</time></trkpt><trkpt lat="38.173126" lon="15.7552842"><ele>609.0</ele><time>2026-04-11T07:08:33.335Z</time></trkpt><trkpt lat="38.1730282" lon="15.7552351"><ele>609.0</ele><time>2026-04-11T07:08:34.335Z</time></trkpt><trkpt lat="38.1729283" lon="15.7551998"><ele>609.0</ele><time>2026-04-11T07:08:35.335Z</time></trkpt><trkpt lat="38.1728261" lon="15.7551805"><ele>609.0</ele><time>2026-04-11T07:08:36.336Z</time></trkpt><trkpt lat="38.1727143" lon="15.7551867"><ele>609.0</ele><time>2026-04-11T07:08:37.335Z</time></trkpt><trkpt lat="38.172606" lon="15.7551976"><ele>609.0</ele><time>2026-04-11T07:08:38.335Z</time></trkpt><trkpt lat="38.1725202" lon="15.7552134"><ele>609.0</ele><time>2026-04-11T07:08:39.335Z</time></trkpt><trkpt lat="38.1724529" lon="15.7552187"><ele>609.0</ele><time>2026-04-11T07:08:40.335Z</time></trkpt><trkpt lat="38.1723515" lon="15.7552547"><ele>609.0</ele><time>2026-04-11T07:08:42.335Z</time></trkpt><trkpt lat="38.1722693" lon="15.7553261"><ele>609.0</ele><time>2026-04-11T07:08:44.336Z</time></trkpt><trkpt lat="38.1721896" lon="15.7554111"><ele>609.0</ele><time>2026-04-11T07:08:46.335Z</time></trkpt><trkpt lat="38.1720994" lon="15.7554942"><ele>607.2</ele><time>2026-04-11T07:08:48.335Z</time></trkpt><trkpt lat="38.1720442" lon="15.7555342"><ele>605.4</ele><time>2026-04-11T07:08:49.336Z</time></trkpt><trkpt lat="38.1719342" lon="15.7555933"><ele>603.6</ele><time>2026-04-11T07:08:51.335Z</time></trkpt><trkpt lat="38.171809" lon="15.7556111"><ele>601.8</ele><time>2026-04-11T07:08:53.335Z</time></trkpt><trkpt lat="38.1717344" lon="15.7556102"><ele>600.0</ele><time>2026-04-11T07:08:54.335Z</time></trkpt><trkpt lat="38.1716592" lon="15.75559"><ele>599.9999999999999</ele><time>2026-04-11T07:08:55.336Z</time></trkpt><trkpt lat="38.1715903" lon="15.7555533"><ele>600.0</ele><time>2026-04-11T07:08:56.335Z</time></trkpt><trkpt lat="38.1715265" lon="15.7555083"><ele>600.0</ele><time>2026-04-11T07:08:57.335Z</time></trkpt><trkpt lat="38.1714618" lon="15.7554684"><ele>600.0</ele><time>2026-04-11T07:08:58.336Z</time></trkpt><trkpt lat="38.1713995" lon="15.7554227"><ele>600.0</ele><time>2026-04-11T07:08:59.335Z</time></trkpt><trkpt lat="38.171332" lon="15.7553806"><ele>599.9999999999999</ele><time>2026-04-11T07:09:00.336Z</time></trkpt><trkpt lat="38.1712623" lon="15.7553433"><ele>600.0</ele><time>2026-04-11T07:09:01.336Z</time></trkpt><trkpt lat="38.1711889" lon="15.7553121"><ele>597.2857142857142</ele><time>2026-04-11T07:09:02.335Z</time></trkpt><trkpt lat="38.1711167" lon="15.7553033"><ele>594.5714285714286</ele><time>2026-04-11T07:09:03.335Z</time></trkpt><trkpt lat="38.1710492" lon="15.7553101"><ele>591.8571428571429</ele><time>2026-04-11T07:09:04.335Z</time></trkpt><trkpt lat="38.1709861" lon="15.7553409"><ele>589.1428571428571</ele><time>2026-04-11T07:09:05.336Z</time></trkpt><trkpt lat="38.1709382" lon="15.7553939"><ele>586.4285714285714</ele><time>2026-04-11T07:09:06.335Z</time></trkpt><trkpt lat="38.1708918" lon="15.7554606"><ele>583.7142857142857</ele><time>2026-04-11T07:09:07.335Z</time></trkpt><trkpt lat="38.1708456" lon="15.7555346"><ele>581.0</ele><time>2026-04-11T07:09:08.335Z</time></trkpt><trkpt lat="38.1708096" lon="15.7556175"><ele>581.0</ele><time>2026-04-11T07:09:09.335Z</time></trkpt><trkpt lat="38.1707799" lon="15.7557046"><ele>581.0</ele><time>2026-04-11T07:09:10.335Z</time></trkpt><trkpt lat="38.1707609" lon="15.7557877"><ele>581.0</ele><time>2026-04-11T07:09:11.336Z</time></trkpt><trkpt lat="38.1707474" lon="15.7558711"><ele>581.0</ele><time>2026-04-11T07:09:12.335Z</time></trkpt><trkpt lat="38.1707372" lon="15.7559562"><ele>581.0</ele><time>2026-04-11T07:09:13.335Z</time></trkpt><trkpt lat="38.1707398" lon="15.7560512"><ele>581.0</ele><time>2026-04-11T07:09:14.335Z</time></trkpt><trkpt lat="38.1707472" lon="15.7561523"><ele>581.0</ele><time>2026-04-11T07:09:15.336Z</time></trkpt><trkpt lat="38.1707622" lon="15.7562514"><ele>580.1666666666666</ele><time>2026-04-11T07:09:16.336Z</time></trkpt><trkpt lat="38.1707901" lon="15.7563483"><ele>579.3333333333333</ele><time>2026-04-11T07:09:17.335Z</time></trkpt><trkpt lat="38.1708344" lon="15.7564378"><ele>578.5</ele><time>2026-04-11T07:09:18.335Z</time></trkpt><trkpt lat="38.1708824" lon="15.7565276"><ele>577.6666666666666</ele><time>2026-04-11T07:09:19.335Z</time></trkpt><trkpt lat="38.1709391" lon="15.7566136"><ele>576.8333333333334</ele><time>2026-04-11T07:09:20.335Z</time></trkpt><trkpt lat="38.1710042" lon="15.7566994"><ele>576.0</ele><time>2026-04-11T07:09:21.335Z</time></trkpt><trkpt lat="38.1710703" lon="15.7567912"><ele>573.4</ele><time>2026-04-11T07:09:22.335Z</time></trkpt><trkpt lat="38.1711494" lon="15.7568778"><ele>570.8</ele><time>2026-04-11T07:09:23.336Z</time></trkpt><trkpt lat="38.1712241" lon="15.7569603"><ele>568.1999999999999</ele><time>2026-04-11T07:09:24.335Z</time></trkpt><trkpt lat="38.1713001" lon="15.7570356"><ele>565.6</ele><time>2026-04-11T07:09:25.335Z</time></trkpt><trkpt lat="38.1713856" lon="15.7570944"><ele>563.0</ele><time>2026-04-11T07:09:26.336Z</time></trkpt><trkpt lat="38.1714696" lon="15.7571454"><ele>564.8333333333333</ele><time>2026-04-11T07:09:27.336Z</time></trkpt><trkpt lat="38.171548" lon="15.7571989"><ele>566.6666666666666</ele><time>2026-04-11T07:09:28.335Z</time></trkpt><trkpt lat="38.1716192" lon="15.75725"><ele>568.5</ele><time>2026-04-11T07:09:29.335Z</time></trkpt><trkpt lat="38.1716935" lon="15.7573051"><ele>570.3333333333334</ele><time>2026-04-11T07:09:30.335Z</time></trkpt><trkpt lat="38.1717755" lon="15.7573632"><ele>572.1666666666667</ele><time>2026-04-11T07:09:31.335Z</time></trkpt><trkpt lat="38.1718605" lon="15.7574187"><ele>574.0</ele><time>2026-04-11T07:09:32.336Z</time></trkpt><trkpt lat="38.1719447" lon="15.7574704"><ele>574.0</ele><time>2026-04-11T07:09:33.335Z</time></trkpt><trkpt lat="38.1720273" lon="15.757529"><ele>574.0</ele><time>2026-04-11T07:09:34.336Z</time></trkpt><trkpt lat="38.1721137" lon="15.7575869"><ele>574.0</ele><time>2026-04-11T07:09:35.335Z</time></trkpt><trkpt lat="38.172203" lon="15.7576374"><ele>574.0</ele><time>2026-04-11T07:09:36.335Z</time></trkpt><trkpt lat="38.1722867" lon="15.7576998"><ele>574.0</ele><time>2026-04-11T07:09:37.335Z</time></trkpt><trkpt lat="38.1723663" lon="15.7577756"><ele>573.0</ele><time>2026-04-11T07:09:38.335Z</time></trkpt><trkpt lat="38.1724522" lon="15.7578413"><ele>572.0</ele><time>2026-04-11T07:09:39.335Z</time></trkpt><trkpt lat="38.1725344" lon="15.757905"><ele>571.0</ele><time>2026-04-11T07:09:40.335Z</time></trkpt><trkpt lat="38.1726169" lon="15.7579663"><ele>570.0</ele><time>2026-04-11T07:09:41.335Z</time></trkpt><trkpt lat="38.1726934" lon="15.7580364"><ele>569.0</ele><time>2026-04-11T07:09:42.336Z</time></trkpt><trkpt lat="38.1727683" lon="15.7581101"><ele>569.0</ele><time>2026-04-11T07:09:43.335Z</time></trkpt><trkpt lat="38.1728378" lon="15.7581946"><ele>569.0</ele><time>2026-04-11T07:09:44.335Z</time></trkpt><trkpt lat="38.1728997" lon="15.7582984"><ele>569.0</ele><time>2026-04-11T07:09:45.335Z</time></trkpt><trkpt lat="38.1729537" lon="15.7584019"><ele>569.0</ele><time>2026-04-11T07:09:46.335Z</time></trkpt><trkpt lat="38.1730116" lon="15.758503"><ele>569.0</ele><time>2026-04-11T07:09:47.336Z</time></trkpt><trkpt lat="38.1730625" lon="15.7586109"><ele>570.2</ele><time>2026-04-11T07:09:48.335Z</time></trkpt><trkpt lat="38.1731186" lon="15.7587214"><ele>571.4</ele><time>2026-04-11T07:09:49.335Z</time></trkpt><trkpt lat="38.1731808" lon="15.7588327"><ele>572.6</ele><time>2026-04-11T07:09:50.335Z</time></trkpt><trkpt lat="38.1732434" lon="15.7589339"><ele>573.8</ele><time>2026-04-11T07:09:51.335Z</time></trkpt><trkpt lat="38.1732994" lon="15.7590333"><ele>575.0</ele><time>2026-04-11T07:09:52.335Z</time></trkpt><trkpt lat="38.1733461" lon="15.7591327"><ele>575.0</ele><time>2026-04-11T07:09:53.335Z</time></trkpt><trkpt lat="38.1733947" lon="15.7592428"><ele>575.0</ele><time>2026-04-11T07:09:54.335Z</time></trkpt><trkpt lat="38.1734438" lon="15.759354"><ele>575.0</ele><time>2026-04-11T07:09:55.335Z</time></trkpt><trkpt lat="38.173494" lon="15.7594641"><ele>575.0</ele><time>2026-04-11T07:09:56.335Z</time></trkpt><trkpt lat="38.1735439" lon="15.7595682"><ele>575.0</ele><time>2026-04-11T07:09:57.335Z</time></trkpt><trkpt lat="38.1736089" lon="15.7596598"><ele>572.4</ele><time>2026-04-11T07:09:58.335Z</time></trkpt><trkpt lat="38.1736805" lon="15.7597414"><ele>569.8</ele><time>2026-04-11T07:09:59.335Z</time></trkpt><trkpt lat="38.1737565" lon="15.7598104"><ele>567.2</ele><time>2026-04-11T07:10:00.335Z</time></trkpt><trkpt lat="38.1738319" lon="15.7598774"><ele>564.6</ele><time>2026-04-11T07:10:01.336Z</time></trkpt><trkpt lat="38.173923" lon="15.7599208"><ele>562.0</ele><time>2026-04-11T07:10:02.335Z</time></trkpt><trkpt lat="38.1740165" lon="15.7599507"><ele>564.0</ele><time>2026-04-11T07:10:03.335Z</time></trkpt><trkpt lat="38.1740987" lon="15.7599826"><ele>566.0</ele><time>2026-04-11T07:10:04.335Z</time></trkpt><trkpt lat="38.1741907" lon="15.7599834"><ele>568.0</ele><time>2026-04-11T07:10:05.336Z</time></trkpt><trkpt lat="38.1742923" lon="15.7599812"><ele>570.0</ele><time>2026-04-11T07:10:06.335Z</time></trkpt><trkpt lat="38.1743938" lon="15.7599777"><ele>572.0</ele><time>2026-04-11T07:10:07.335Z</time></trkpt><trkpt lat="38.1744926" lon="15.7599779"><ele>572.0</ele><time>2026-04-11T07:10:08.335Z</time></trkpt><trkpt lat="38.1745956" lon="15.7599527"><ele>572.0</ele><time>2026-04-11T07:10:09.335Z</time></trkpt><trkpt lat="38.1746857" lon="15.7599089"><ele>572.0</ele><time>2026-04-11T07:10:10.335Z</time></trkpt><trkpt lat="38.1747765" lon="15.7598499"><ele>572.0</ele><time>2026-04-11T07:10:11.335Z</time></trkpt><trkpt lat="38.1748664" lon="15.7597919"><ele>572.0</ele><time>2026-04-11T07:10:12.336Z</time></trkpt><trkpt lat="38.1749563" lon="15.7597422"><ele>575.2</ele><time>2026-04-11T07:10:13.335Z</time></trkpt><trkpt lat="38.175036" lon="15.7597123"><ele>578.4000000000001</ele><time>2026-04-11T07:10:14.335Z</time></trkpt><trkpt lat="38.175105" lon="15.7597189"><ele>581.5999999999999</ele><time>2026-04-11T07:10:15.335Z</time></trkpt><trkpt lat="38.1751714" lon="15.7598226"><ele>584.8</ele><time>2026-04-11T07:10:17.335Z</time></trkpt><trkpt lat="38.1751399" lon="15.7599912"><ele>588.0</ele><time>2026-04-11T07:10:19.335Z</time></trkpt><trkpt lat="38.1750864" lon="15.7600943"><ele>584.0</ele><time>2026-04-11T07:10:20.335Z</time></trkpt><trkpt lat="38.1750415" lon="15.7602116"><ele>580.0</ele><time>2026-04-11T07:10:21.335Z</time></trkpt><trkpt lat="38.1750268" lon="15.7603187"><ele>576.0</ele><time>2026-04-11T07:10:22.335Z</time></trkpt><trkpt lat="38.1750303" lon="15.7604295"><ele>572.0</ele><time>2026-04-11T07:10:23.335Z</time></trkpt><trkpt lat="38.1750596" lon="15.7605331"><ele>568.0</ele><time>2026-04-11T07:10:24.335Z</time></trkpt><trkpt lat="38.175107" lon="15.7606319"><ele>568.0</ele><time>2026-04-11T07:10:25.335Z</time></trkpt><trkpt lat="38.1751537" lon="15.7607346"><ele>568.0</ele><time>2026-04-11T07:10:26.335Z</time></trkpt><trkpt lat="38.1751843" lon="15.7608427"><ele>568.0</ele><time>2026-04-11T07:10:27.335Z</time></trkpt><trkpt lat="38.1751968" lon="15.7609581"><ele>568.0</ele><time>2026-04-11T07:10:28.336Z</time></trkpt><trkpt lat="38.1751989" lon="15.7610708"><ele>568.0</ele><time>2026-04-11T07:10:29.335Z</time></trkpt><trkpt lat="38.1752108" lon="15.7611794"><ele>567.1666666666667</ele><time>2026-04-11T07:10:30.335Z</time></trkpt><trkpt lat="38.1752399" lon="15.7612838"><ele>566.3333333333334</ele><time>2026-04-11T07:10:31.335Z</time></trkpt><trkpt lat="38.1752889" lon="15.7613808"><ele>565.5</ele><time>2026-04-11T07:10:32.335Z</time></trkpt><trkpt lat="38.1753227" lon="15.7614694"><ele>564.6666666666666</ele><time>2026-04-11T07:10:33.335Z</time></trkpt><trkpt lat="38.175341" lon="15.7615571"><ele>563.8333333333333</ele><time>2026-04-11T07:10:34.335Z</time></trkpt><trkpt lat="38.1753216" lon="15.7616983"><ele>563.0</ele><time>2026-04-11T07:10:36.335Z</time></trkpt><trkpt lat="38.175211" lon="15.7617649"><ele>563.0</ele><time>2026-04-11T07:10:38.335Z</time></trkpt><trkpt lat="38.175136" lon="15.7617463"><ele>563.0</ele><time>2026-04-11T07:10:39.335Z</time></trkpt><trkpt lat="38.1750356" lon="15.7617072"><ele>563.0</ele><time>2026-04-11T07:10:40.335Z</time></trkpt><trkpt lat="38.1749195" lon="15.7616679"><ele>563.0</ele><time>2026-04-11T07:10:41.335Z</time></trkpt><trkpt lat="38.174808" lon="15.7616359"><ele>563.0</ele><time>2026-04-11T07:10:42.335Z</time></trkpt><trkpt lat="38.1747059" lon="15.7616045"><ele>562.6</ele><time>2026-04-11T07:10:43.336Z</time></trkpt><trkpt lat="38.1746085" lon="15.7615627"><ele>562.1999999999999</ele><time>2026-04-11T07:10:44.335Z</time></trkpt><trkpt lat="38.1745084" lon="15.761517"><ele>561.8</ele><time>2026-04-11T07:10:45.335Z</time></trkpt><trkpt lat="38.1744124" lon="15.7614734"><ele>561.4</ele><time>2026-04-11T07:10:46.335Z</time></trkpt><trkpt lat="38.1743142" lon="15.7614424"><ele>561.0</ele><time>2026-04-11T07:10:47.335Z</time></trkpt><trkpt lat="38.1742109" lon="15.7614221"><ele>561.0</ele><time>2026-04-11T07:10:48.335Z</time></trkpt><trkpt lat="38.1741036" lon="15.7614262"><ele>561.0</ele><time>2026-04-11T07:10:49.335Z</time></trkpt><trkpt lat="38.1739947" lon="15.7614432"><ele>561.0</ele><time>2026-04-11T07:10:50.335Z</time></trkpt><trkpt lat="38.1738821" lon="15.7614508"><ele>561.0</ele><time>2026-04-11T07:10:51.336Z</time></trkpt><trkpt lat="38.173768" lon="15.7614626"><ele>561.0</ele><time>2026-04-11T07:10:52.335Z</time></trkpt><trkpt lat="38.1736592" lon="15.7614736"><ele>559.75</ele><time>2026-04-11T07:10:53.336Z</time></trkpt><trkpt lat="38.1735463" lon="15.7614944"><ele>558.5</ele><time>2026-04-11T07:10:54.335Z</time></trkpt><trkpt lat="38.1734274" lon="15.761517"><ele>557.25</ele><time>2026-04-11T07:10:55.335Z</time></trkpt><trkpt lat="38.173307" lon="15.7615459"><ele>556.0</ele><time>2026-04-11T07:10:56.336Z</time></trkpt><trkpt lat="38.1731879" lon="15.7615682"><ele>556.0</ele><time>2026-04-11T07:10:57.335Z</time></trkpt><trkpt lat="38.1730638" lon="15.7616012"><ele>556.0</ele><time>2026-04-11T07:10:58.336Z</time></trkpt><trkpt lat="38.1729447" lon="15.7616339"><ele>556.0</ele><time>2026-04-11T07:10:59.336Z</time></trkpt><trkpt lat="38.172822" lon="15.7616634"><ele>556.0</ele><time>2026-04-11T07:11:00.336Z</time></trkpt><trkpt lat="38.1727017" lon="15.7616933"><ele>556.0</ele><time>2026-04-11T07:11:01.335Z</time></trkpt><trkpt lat="38.1725788" lon="15.7617288"><ele>556.0</ele><time>2026-04-11T07:11:02.335Z</time></trkpt><trkpt lat="38.1724546" lon="15.7617683"><ele>556.0</ele><time>2026-04-11T07:11:03.335Z</time></trkpt><trkpt lat="38.1723369" lon="15.7618274"><ele>556.0</ele><time>2026-04-11T07:11:04.335Z</time></trkpt><trkpt lat="38.1722251" lon="15.7619059"><ele>555.5</ele><time>2026-04-11T07:11:05.335Z</time></trkpt><trkpt lat="38.1721148" lon="15.7619976"><ele>555.0</ele><time>2026-04-11T07:11:06.335Z</time></trkpt><trkpt lat="38.1720032" lon="15.7620951"><ele>554.5</ele><time>2026-04-11T07:11:07.335Z</time></trkpt><trkpt lat="38.1718929" lon="15.7621868"><ele>554.0</ele><time>2026-04-11T07:11:08.335Z</time></trkpt><trkpt lat="38.1717744" lon="15.7622793"><ele>554.0</ele><time>2026-04-11T07:11:09.335Z</time></trkpt><trkpt lat="38.1716594" lon="15.7623627"><ele>554.0</ele><time>2026-04-11T07:11:10.335Z</time></trkpt><trkpt lat="38.1715448" lon="15.7624624"><ele>554.0</ele><time>2026-04-11T07:11:11.335Z</time></trkpt><trkpt lat="38.1714295" lon="15.7625512"><ele>554.0</ele><time>2026-04-11T07:11:12.336Z</time></trkpt><trkpt lat="38.1713233" lon="15.7626356"><ele>552.6</ele><time>2026-04-11T07:11:13.335Z</time></trkpt><trkpt lat="38.1712292" lon="15.7627106"><ele>551.2</ele><time>2026-04-11T07:11:14.336Z</time></trkpt><trkpt lat="38.1711502" lon="15.762779"><ele>549.8000000000001</ele><time>2026-04-11T07:11:15.336Z</time></trkpt><trkpt lat="38.171085" lon="15.7628561"><ele>548.4</ele><time>2026-04-11T07:11:16.336Z</time></trkpt><trkpt lat="38.1710358" lon="15.7629244"><ele>547.0</ele><time>2026-04-11T07:11:17.335Z</time></trkpt><trkpt lat="38.1709979" lon="15.7630672"><ele>547.0</ele><time>2026-04-11T07:11:19.335Z</time></trkpt><trkpt lat="38.1710068" lon="15.7631615"><ele>547.0</ele><time>2026-04-11T07:11:20.335Z</time></trkpt><trkpt lat="38.1710412" lon="15.7632554"><ele>547.0</ele><time>2026-04-11T07:11:21.335Z</time></trkpt><trkpt lat="38.1710751" lon="15.7633388"><ele>547.0</ele><time>2026-04-11T07:11:22.335Z</time></trkpt><trkpt lat="38.1710936" lon="15.7634234"><ele>547.0</ele><time>2026-04-11T07:11:23.335Z</time></trkpt><trkpt lat="38.1710752" lon="15.7635086"><ele>547.0</ele><time>2026-04-11T07:11:24.335Z</time></trkpt><trkpt lat="38.1710303" lon="15.7635795"><ele>547.0</ele><time>2026-04-11T07:11:25.335Z</time></trkpt><trkpt lat="38.1709701" lon="15.7636035"><ele>547.0</ele><time>2026-04-11T07:11:26.335Z</time></trkpt><trkpt lat="38.1709035" lon="15.7636017"><ele>547.0</ele><time>2026-04-11T07:11:27.335Z</time></trkpt><trkpt lat="38.1708211" lon="15.7635642"><ele>547.0</ele><time>2026-04-11T07:11:28.335Z</time></trkpt><trkpt lat="38.1707353" lon="15.7635073"><ele>547.0</ele><time>2026-04-11T07:11:29.335Z</time></trkpt><trkpt lat="38.1706466" lon="15.7634482"><ele>547.0</ele><time>2026-04-11T07:11:30.335Z</time></trkpt><trkpt lat="38.1705508" lon="15.7634009"><ele>546.2</ele><time>2026-04-11T07:11:31.335Z</time></trkpt><trkpt lat="38.1704589" lon="15.7633813"><ele>545.4000000000001</ele><time>2026-04-11T07:11:32.335Z</time></trkpt><trkpt lat="38.1703663" lon="15.7633742"><ele>544.5999999999999</ele><time>2026-04-11T07:11:33.335Z</time></trkpt><trkpt lat="38.1702712" lon="15.7633796"><ele>543.8</ele><time>2026-04-11T07:11:34.335Z</time></trkpt><trkpt lat="38.1701701" lon="15.7633915"><ele>543.0</ele><time>2026-04-11T07:11:35.335Z</time></trkpt><trkpt lat="38.1700672" lon="15.7634072"><ele>543.0</ele><time>2026-04-11T07:11:36.335Z</time></trkpt><trkpt lat="38.1699632" lon="15.763426"><ele>543.0</ele><time>2026-04-11T07:11:37.335Z</time></trkpt><trkpt lat="38.1698614" lon="15.7634437"><ele>543.0</ele><time>2026-04-11T07:11:38.335Z</time></trkpt><trkpt lat="38.1697614" lon="15.7634602"><ele>543.0</ele><time>2026-04-11T07:11:39.335Z</time></trkpt><trkpt lat="38.1696608" lon="15.7634786"><ele>543.0</ele><time>2026-04-11T07:11:40.335Z</time></trkpt><trkpt lat="38.1695697" lon="15.7634814"><ele>542.6</ele><time>2026-04-11T07:11:41.335Z</time></trkpt><trkpt lat="38.1694796" lon="15.7634909"><ele>542.1999999999999</ele><time>2026-04-11T07:11:42.336Z</time></trkpt><trkpt lat="38.1693902" lon="15.763509"><ele>541.8</ele><time>2026-04-11T07:11:43.335Z</time></trkpt><trkpt lat="38.1693093" lon="15.7635512"><ele>541.4</ele><time>2026-04-11T07:11:44.335Z</time></trkpt><trkpt lat="38.169227" lon="15.7636104"><ele>541.0</ele><time>2026-04-11T07:11:45.335Z</time></trkpt><trkpt lat="38.1691535" lon="15.7636869"><ele>541.0</ele><time>2026-04-11T07:11:46.335Z</time></trkpt><trkpt lat="38.1690988" lon="15.7637877"><ele>541.0</ele><time>2026-04-11T07:11:47.336Z</time></trkpt><trkpt lat="38.1690741" lon="15.7639128"><ele>541.0</ele><time>2026-04-11T07:11:48.335Z</time></trkpt><trkpt lat="38.1690973" lon="15.7640524"><ele>541.0</ele><time>2026-04-11T07:11:49.335Z</time></trkpt><trkpt lat="38.1691515" lon="15.7641842"><ele>541.0</ele><time>2026-04-11T07:11:50.336Z</time></trkpt><trkpt lat="38.169227" lon="15.7643065"><ele>537.4</ele><time>2026-04-11T07:11:51.336Z</time></trkpt><trkpt lat="38.1692982" lon="15.764419"><ele>533.8</ele><time>2026-04-11T07:11:52.335Z</time></trkpt><trkpt lat="38.1693592" lon="15.764526"><ele>530.1999999999999</ele><time>2026-04-11T07:11:53.335Z</time></trkpt><trkpt lat="38.1694147" lon="15.7646289"><ele>526.6</ele><time>2026-04-11T07:11:54.335Z</time></trkpt><trkpt lat="38.1694618" lon="15.7647368"><ele>523.0</ele><time>2026-04-11T07:11:55.335Z</time></trkpt><trkpt lat="38.1695143" lon="15.7648407"><ele>523.0</ele><time>2026-04-11T07:11:56.335Z</time></trkpt><trkpt lat="38.169571" lon="15.7649463"><ele>523.0</ele><time>2026-04-11T07:11:57.335Z</time></trkpt><trkpt lat="38.1696327" lon="15.7650483"><ele>523.0</ele><time>2026-04-11T07:11:58.335Z</time></trkpt><trkpt lat="38.1696964" lon="15.7651409"><ele>523.0</ele><time>2026-04-11T07:11:59.335Z</time></trkpt><trkpt lat="38.1697601" lon="15.7652378"><ele>523.0</ele><time>2026-04-11T07:12:00.335Z</time></trkpt><trkpt lat="38.1698205" lon="15.765339"><ele>526.4</ele><time>2026-04-11T07:12:01.335Z</time></trkpt><trkpt lat="38.1698832" lon="15.7654319"><ele>529.8</ele><time>2026-04-11T07:12:02.336Z</time></trkpt><trkpt lat="38.1699436" lon="15.7655252"><ele>533.2</ele><time>2026-04-11T07:12:03.335Z</time></trkpt><trkpt lat="38.1700045" lon="15.7656163"><ele>536.6</ele><time>2026-04-11T07:12:04.335Z</time></trkpt><trkpt lat="38.1700755" lon="15.7656955"><ele>540.0</ele><time>2026-04-11T07:12:05.335Z</time></trkpt><trkpt lat="38.1701463" lon="15.7657693"><ele>540.0</ele><time>2026-04-11T07:12:06.335Z</time></trkpt><trkpt lat="38.1702034" lon="15.7658431"><ele>540.0</ele><time>2026-04-11T07:12:07.335Z</time></trkpt><trkpt lat="38.1702439" lon="15.7659264"><ele>540.0</ele><time>2026-04-11T07:12:08.335Z</time></trkpt><trkpt lat="38.170259" lon="15.7660122"><ele>540.0</ele><time>2026-04-11T07:12:09.336Z</time></trkpt><trkpt lat="38.1702293" lon="15.766093"><ele>540.0</ele><time>2026-04-11T07:12:10.335Z</time></trkpt><trkpt lat="38.1701641" lon="15.7661769"><ele>540.0</ele><time>2026-04-11T07:12:11.336Z</time></trkpt><trkpt lat="38.170111" lon="15.7662798"><ele>537.4</ele><time>2026-04-11T07:12:12.335Z</time></trkpt><trkpt lat="38.1700731" lon="15.7664"><ele>534.8</ele><time>2026-04-11T07:12:13.335Z</time></trkpt><trkpt lat="38.1700799" lon="15.7665105"><ele>532.2</ele><time>2026-04-11T07:12:14.336Z</time></trkpt><trkpt lat="38.1701218" lon="15.7666162"><ele>529.6</ele><time>2026-04-11T07:12:15.336Z</time></trkpt><trkpt lat="38.1701884" lon="15.766699"><ele>527.0</ele><time>2026-04-11T07:12:16.335Z</time></trkpt><trkpt lat="38.1702661" lon="15.7667589"><ele>527.0</ele><time>2026-04-11T07:12:17.335Z</time></trkpt><trkpt lat="38.1703486" lon="15.7667811"><ele>527.0</ele><time>2026-04-11T07:12:18.335Z</time></trkpt><trkpt lat="38.1704355" lon="15.7667643"><ele>527.0</ele><time>2026-04-11T07:12:19.335Z</time></trkpt><trkpt lat="38.1705298" lon="15.7667337"><ele>527.0</ele><time>2026-04-11T07:12:20.335Z</time></trkpt><trkpt lat="38.1706261" lon="15.7667066"><ele>527.0</ele><time>2026-04-11T07:12:21.335Z</time></trkpt><trkpt lat="38.1707207" lon="15.7666938"><ele>532.0</ele><time>2026-04-11T07:12:22.335Z</time></trkpt><trkpt lat="38.1708142" lon="15.7666834"><ele>537.0</ele><time>2026-04-11T07:12:23.335Z</time></trkpt><trkpt lat="38.1709077" lon="15.7666782"><ele>542.0</ele><time>2026-04-11T07:12:24.335Z</time></trkpt><trkpt lat="38.170995" lon="15.7666857"><ele>547.0</ele><time>2026-04-11T07:12:25.335Z</time></trkpt><trkpt lat="38.1710751" lon="15.7667025"><ele>552.0</ele><time>2026-04-11T07:12:26.335Z</time></trkpt><trkpt lat="38.1711458" lon="15.766723"><ele>557.0</ele><time>2026-04-11T07:12:27.336Z</time></trkpt><trkpt lat="38.1712076" lon="15.7667647"><ele>557.0</ele><time>2026-04-11T07:12:28.335Z</time></trkpt><trkpt lat="38.1712611" lon="15.7668306"><ele>557.0</ele><time>2026-04-11T07:12:29.336Z</time></trkpt><trkpt lat="38.1712947" lon="15.7669153"><ele>557.0</ele><time>2026-04-11T07:12:30.336Z</time></trkpt><trkpt lat="38.1713068" lon="15.7670075"><ele>557.0</ele><time>2026-04-11T07:12:31.335Z</time></trkpt><trkpt lat="38.1712879" lon="15.7670958"><ele>557.0</ele><time>2026-04-11T07:12:32.335Z</time></trkpt><trkpt lat="38.1712265" lon="15.7671954"><ele>557.0</ele><time>2026-04-11T07:12:33.335Z</time></trkpt><trkpt lat="38.1711339" lon="15.7672912"><ele>557.4</ele><time>2026-04-11T07:12:34.335Z</time></trkpt><trkpt lat="38.1710439" lon="15.7673885"><ele>557.8000000000001</ele><time>2026-04-11T07:12:35.335Z</time></trkpt><trkpt lat="38.1709769" lon="15.7674981"><ele>558.2</ele><time>2026-04-11T07:12:36.335Z</time></trkpt><trkpt lat="38.1709174" lon="15.7676117"><ele>558.6</ele><time>2026-04-11T07:12:37.336Z</time></trkpt><trkpt lat="38.1708634" lon="15.76773"><ele>559.0</ele><time>2026-04-11T07:12:38.335Z</time></trkpt><trkpt lat="38.1708138" lon="15.7678523"><ele>559.0</ele><time>2026-04-11T07:12:39.335Z</time></trkpt><trkpt lat="38.1707705" lon="15.7679735"><ele>559.0</ele><time>2026-04-11T07:12:40.335Z</time></trkpt><trkpt lat="38.1707212" lon="15.7680882"><ele>559.0</ele><time>2026-04-11T07:12:41.335Z</time></trkpt><trkpt lat="38.1706641" lon="15.7681894"><ele>559.0</ele><time>2026-04-11T07:12:42.335Z</time></trkpt><trkpt lat="38.1705993" lon="15.7682898"><ele>559.0</ele><time>2026-04-11T07:12:43.336Z</time></trkpt><trkpt lat="38.1705333" lon="15.7683864"><ele>555.8</ele><time>2026-04-11T07:12:44.335Z</time></trkpt><trkpt lat="38.170458" lon="15.7684886"><ele>552.5999999999999</ele><time>2026-04-11T07:12:45.335Z</time></trkpt><trkpt lat="38.1703838" lon="15.7685862"><ele>549.4</ele><time>2026-04-11T07:12:46.335Z</time></trkpt><trkpt lat="38.1703101" lon="15.7686886"><ele>546.1999999999999</ele><time>2026-04-11T07:12:47.335Z</time></trkpt><trkpt lat="38.1702355" lon="15.7687976"><ele>543.0</ele><time>2026-04-11T07:12:48.335Z</time></trkpt><trkpt lat="38.1701618" lon="15.7688993"><ele>543.0</ele><time>2026-04-11T07:12:49.335Z</time></trkpt><trkpt lat="38.1700901" lon="15.7690054"><ele>543.0</ele><time>2026-04-11T07:12:50.335Z</time></trkpt><trkpt lat="38.17002" lon="15.7691131"><ele>543.0</ele><time>2026-04-11T07:12:51.335Z</time></trkpt><trkpt lat="38.1699442" lon="15.7692111"><ele>543.0</ele><time>2026-04-11T07:12:52.335Z</time></trkpt><trkpt lat="38.1698706" lon="15.7693079"><ele>543.0</ele><time>2026-04-11T07:12:53.335Z</time></trkpt><trkpt lat="38.1698104" lon="15.7694005"><ele>540.0</ele><time>2026-04-11T07:12:54.335Z</time></trkpt><trkpt lat="38.1697512" lon="15.7694921"><ele>537.0</ele><time>2026-04-11T07:12:55.335Z</time></trkpt><trkpt lat="38.1696975" lon="15.769581"><ele>534.0</ele><time>2026-04-11T07:12:56.336Z</time></trkpt><trkpt lat="38.1696623" lon="15.7696703"><ele>531.0</ele><time>2026-04-11T07:12:57.335Z</time></trkpt><trkpt lat="38.1696465" lon="15.7697626"><ele>528.0</ele><time>2026-04-11T07:12:58.336Z</time></trkpt><trkpt lat="38.1696599" lon="15.76986"><ele>525.0</ele><time>2026-04-11T07:12:59.335Z</time></trkpt><trkpt lat="38.1696986" lon="15.7699647"><ele>525.0</ele><time>2026-04-11T07:13:00.335Z</time></trkpt><trkpt lat="38.1697638" lon="15.7700706"><ele>525.0</ele><time>2026-04-11T07:13:01.335Z</time></trkpt><trkpt lat="38.1698328" lon="15.770176"><ele>525.0</ele><time>2026-04-11T07:13:02.335Z</time></trkpt><trkpt lat="38.169894" lon="15.7702781"><ele>525.0</ele><time>2026-04-11T07:13:03.335Z</time></trkpt><trkpt lat="38.169957" lon="15.7703814"><ele>525.0</ele><time>2026-04-11T07:13:04.335Z</time></trkpt><trkpt lat="38.1700238" lon="15.7704825"><ele>527.8333333333334</ele><time>2026-04-11T07:13:05.335Z</time></trkpt><trkpt lat="38.1700852" lon="15.7705802"><ele>530.6666666666666</ele><time>2026-04-11T07:13:06.335Z</time></trkpt><trkpt lat="38.1701359" lon="15.7706774"><ele>533.5</ele><time>2026-04-11T07:13:07.336Z</time></trkpt><trkpt lat="38.1701662" lon="15.7707783"><ele>536.3333333333333</ele><time>2026-04-11T07:13:08.335Z</time></trkpt><trkpt lat="38.1701779" lon="15.7708882"><ele>539.1666666666666</ele><time>2026-04-11T07:13:09.335Z</time></trkpt><trkpt lat="38.1701546" lon="15.7709786"><ele>542.0</ele><time>2026-04-11T07:13:10.336Z</time></trkpt><trkpt lat="38.170106" lon="15.77107"><ele>542.0</ele><time>2026-04-11T07:13:11.335Z</time></trkpt><trkpt lat="38.1700396" lon="15.7711428"><ele>542.0</ele><time>2026-04-11T07:13:12.335Z</time></trkpt><trkpt lat="38.1699776" lon="15.771217"><ele>542.0</ele><time>2026-04-11T07:13:13.335Z</time></trkpt><trkpt lat="38.1699231" lon="15.7712853"><ele>542.0</ele><time>2026-04-11T07:13:14.335Z</time></trkpt><trkpt lat="38.169866" lon="15.7713491"><ele>542.0</ele><time>2026-04-11T07:13:15.335Z</time></trkpt><trkpt lat="38.1698012" lon="15.7713974"><ele>542.0</ele><time>2026-04-11T07:13:16.336Z</time></trkpt><trkpt lat="38.1697309" lon="15.7714078"><ele>542.0</ele><time>2026-04-11T07:13:17.335Z</time></trkpt><trkpt lat="38.1696601" lon="15.7713884"><ele>542.0</ele><time>2026-04-11T07:13:18.335Z</time></trkpt><trkpt lat="38.1695919" lon="15.7713643"><ele>542.0</ele><time>2026-04-11T07:13:19.335Z</time></trkpt><trkpt lat="38.1694853" lon="15.7713207"><ele>542.0</ele><time>2026-04-11T07:13:21.335Z</time></trkpt><trkpt lat="38.1693794" lon="15.7712701"><ele>542.0</ele><time>2026-04-11T07:13:23.335Z</time></trkpt><trkpt lat="38.1693039" lon="15.7713355"><ele>542.0</ele><time>2026-04-11T07:13:25.335Z</time></trkpt><trkpt lat="38.1692842" lon="15.7715054"><ele>542.0</ele><time>2026-04-11T07:13:27.336Z</time></trkpt><trkpt lat="38.1692822" lon="15.7716122"><ele>542.0</ele><time>2026-04-11T07:13:28.335Z</time></trkpt><trkpt lat="38.1692771" lon="15.7717107"><ele>542.0</ele><time>2026-04-11T07:13:29.335Z</time></trkpt><trkpt lat="38.1692634" lon="15.7718051"><ele>542.0</ele><time>2026-04-11T07:13:30.336Z</time></trkpt><trkpt lat="38.1692407" lon="15.7718948"><ele>542.0</ele><time>2026-04-11T07:13:31.336Z</time></trkpt><trkpt lat="38.169223" lon="15.7719814"><ele>540.1428571428571</ele><time>2026-04-11T07:13:32.335Z</time></trkpt><trkpt lat="38.1691946" lon="15.7720609"><ele>538.2857142857143</ele><time>2026-04-11T07:13:33.335Z</time></trkpt><trkpt lat="38.1691584" lon="15.7721348"><ele>536.4285714285714</ele><time>2026-04-11T07:13:34.335Z</time></trkpt><trkpt lat="38.1691176" lon="15.7722087"><ele>534.5714285714286</ele><time>2026-04-11T07:13:35.335Z</time></trkpt><trkpt lat="38.1690722" lon="15.7722671"><ele>532.7142857142857</ele><time>2026-04-11T07:13:36.335Z</time></trkpt><trkpt lat="38.1690225" lon="15.7723232"><ele>530.8571428571429</ele><time>2026-04-11T07:13:37.335Z</time></trkpt><trkpt lat="38.1689643" lon="15.7723743"><ele>529.0</ele><time>2026-04-11T07:13:38.336Z</time></trkpt><trkpt lat="38.1689072" lon="15.7724301"><ele>529.0</ele><time>2026-04-11T07:13:39.335Z</time></trkpt><trkpt lat="38.16885" lon="15.7724906"><ele>529.0</ele><time>2026-04-11T07:13:40.335Z</time></trkpt><trkpt lat="38.1687948" lon="15.7725532"><ele>529.0</ele><time>2026-04-11T07:13:41.335Z</time></trkpt><trkpt lat="38.1687358" lon="15.7726179"><ele>529.0</ele><time>2026-04-11T07:13:42.335Z</time></trkpt><trkpt lat="38.1686746" lon="15.7726835"><ele>529.0</ele><time>2026-04-11T07:13:43.336Z</time></trkpt><trkpt lat="38.1686199" lon="15.7727552"><ele>529.0</ele><time>2026-04-11T07:13:44.335Z</time></trkpt><trkpt lat="38.168565" lon="15.7728352"><ele>532.8</ele><time>2026-04-11T07:13:45.335Z</time></trkpt><trkpt lat="38.1685099" lon="15.7729224"><ele>536.5999999999999</ele><time>2026-04-11T07:13:46.335Z</time></trkpt><trkpt lat="38.1684532" lon="15.773026"><ele>540.4</ele><time>2026-04-11T07:13:47.335Z</time></trkpt><trkpt lat="38.1683983" lon="15.7731341"><ele>544.1999999999999</ele><time>2026-04-11T07:13:48.335Z</time></trkpt><trkpt lat="38.1683478" lon="15.7732488"><ele>548.0</ele><time>2026-04-11T07:13:49.335Z</time></trkpt><trkpt lat="38.1682955" lon="15.7733716"><ele>548.0</ele><time>2026-04-11T07:13:50.335Z</time></trkpt><trkpt lat="38.1682527" lon="15.7734987"><ele>548.0</ele><time>2026-04-11T07:13:51.336Z</time></trkpt><trkpt lat="38.168216" lon="15.7736292"><ele>548.0</ele><time>2026-04-11T07:13:52.335Z</time></trkpt><trkpt lat="38.16818" lon="15.7737631"><ele>548.0</ele><time>2026-04-11T07:13:53.335Z</time></trkpt><trkpt lat="38.1681465" lon="15.7738999"><ele>548.0</ele><time>2026-04-11T07:13:54.336Z</time></trkpt><trkpt lat="38.1681075" lon="15.7740322"><ele>546.1999999999999</ele><time>2026-04-11T07:13:55.335Z</time></trkpt><trkpt lat="38.1680734" lon="15.7741622"><ele>544.4</ele><time>2026-04-11T07:13:56.335Z</time></trkpt><trkpt lat="38.16804" lon="15.774296"><ele>542.5999999999999</ele><time>2026-04-11T07:13:57.335Z</time></trkpt><trkpt lat="38.168007" lon="15.7744255"><ele>540.8</ele><time>2026-04-11T07:13:58.336Z</time></trkpt><trkpt lat="38.1679778" lon="15.7745582"><ele>539.0</ele><time>2026-04-11T07:13:59.336Z</time></trkpt><trkpt lat="38.1679508" lon="15.7746871"><ele>539.0</ele><time>2026-04-11T07:14:00.335Z</time></trkpt><trkpt lat="38.1679199" lon="15.7748153"><ele>539.0</ele><time>2026-04-11T07:14:01.336Z</time></trkpt><trkpt lat="38.1678871" lon="15.7749406"><ele>539.0</ele><time>2026-04-11T07:14:02.335Z</time></trkpt><trkpt lat="38.1678527" lon="15.7750658"><ele>539.0</ele><time>2026-04-11T07:14:03.335Z</time></trkpt><trkpt lat="38.1678145" lon="15.7751997"><ele>539.0</ele><time>2026-04-11T07:14:04.335Z</time></trkpt><trkpt lat="38.1677816" lon="15.7753455"><ele>540.75</ele><time>2026-04-11T07:14:05.335Z</time></trkpt><trkpt lat="38.167747" lon="15.7754947"><ele>542.5</ele><time>2026-04-11T07:14:06.336Z</time></trkpt><trkpt lat="38.1677146" lon="15.7756497"><ele>544.25</ele><time>2026-04-11T07:14:07.336Z</time></trkpt><trkpt lat="38.167677" lon="15.7758"><ele>546.0</ele><time>2026-04-11T07:14:08.335Z</time></trkpt><trkpt lat="38.1676373" lon="15.7759517"><ele>548.0</ele><time>2026-04-11T07:14:09.336Z</time></trkpt><trkpt lat="38.1675988" lon="15.7760988"><ele>550.0</ele><time>2026-04-11T07:14:10.336Z</time></trkpt><trkpt lat="38.1675603" lon="15.7762418"><ele>552.0</ele><time>2026-04-11T07:14:11.335Z</time></trkpt><trkpt lat="38.1675264" lon="15.7763758"><ele>554.0</ele><time>2026-04-11T07:14:12.335Z</time></trkpt><trkpt lat="38.1674873" lon="15.7765013"><ele>554.0</ele><time>2026-04-11T07:14:13.336Z</time></trkpt><trkpt lat="38.1674476" lon="15.7766165"><ele>554.0</ele><time>2026-04-11T07:14:14.336Z</time></trkpt><trkpt lat="38.1674091" lon="15.7767244"><ele>554.0</ele><time>2026-04-11T07:14:15.335Z</time></trkpt><trkpt lat="38.1673673" lon="15.7768292"><ele>554.0</ele><time>2026-04-11T07:14:16.336Z</time></trkpt><trkpt lat="38.1673218" lon="15.7769368"><ele>554.0</ele><time>2026-04-11T07:14:17.336Z</time></trkpt><trkpt lat="38.1672642" lon="15.777045"><ele>553.6</ele><time>2026-04-11T07:14:18.336Z</time></trkpt><trkpt lat="38.1672054" lon="15.7771579"><ele>553.2</ele><time>2026-04-11T07:14:19.335Z</time></trkpt><trkpt lat="38.1671406" lon="15.7772748"><ele>552.8000000000001</ele><time>2026-04-11T07:14:20.335Z</time></trkpt><trkpt lat="38.1670798" lon="15.7773931"><ele>552.4</ele><time>2026-04-11T07:14:21.335Z</time></trkpt><trkpt lat="38.1670138" lon="15.7775118"><ele>552.0</ele><time>2026-04-11T07:14:22.335Z</time></trkpt><trkpt lat="38.1669499" lon="15.7776228"><ele>553.4</ele><time>2026-04-11T07:14:23.335Z</time></trkpt><trkpt lat="38.1668942" lon="15.7777343"><ele>554.8000000000001</ele><time>2026-04-11T07:14:24.335Z</time></trkpt><trkpt lat="38.1668562" lon="15.7778525"><ele>556.2</ele><time>2026-04-11T07:14:25.335Z</time></trkpt><trkpt lat="38.1668428" lon="15.7779774"><ele>557.6</ele><time>2026-04-11T07:14:26.336Z</time></trkpt><trkpt lat="38.1668531" lon="15.7781044"><ele>559.0</ele><time>2026-04-11T07:14:27.335Z</time></trkpt><trkpt lat="38.166889" lon="15.7782316"><ele>559.0</ele><time>2026-04-11T07:14:28.335Z</time></trkpt><trkpt lat="38.1669438" lon="15.7783493"><ele>559.0</ele><time>2026-04-11T07:14:29.335Z</time></trkpt><trkpt lat="38.1670008" lon="15.7784657"><ele>559.0</ele><time>2026-04-11T07:14:30.336Z</time></trkpt><trkpt lat="38.1670592" lon="15.7785885"><ele>559.0</ele><time>2026-04-11T07:14:31.335Z</time></trkpt><trkpt lat="38.1671209" lon="15.7787086"><ele>559.0</ele><time>2026-04-11T07:14:32.335Z</time></trkpt><trkpt lat="38.1671883" lon="15.7788365"><ele>560.8</ele><time>2026-04-11T07:14:33.336Z</time></trkpt><trkpt lat="38.1672588" lon="15.7789532"><ele>562.5999999999999</ele><time>2026-04-11T07:14:34.336Z</time></trkpt><trkpt lat="38.1673386" lon="15.779042"><ele>564.4</ele><time>2026-04-11T07:14:35.336Z</time></trkpt><trkpt lat="38.1674215" lon="15.7791187"><ele>566.1999999999999</ele><time>2026-04-11T07:14:36.335Z</time></trkpt><trkpt lat="38.1675031" lon="15.7791999"><ele>568.0</ele><time>2026-04-11T07:14:37.335Z</time></trkpt><trkpt lat="38.1675715" lon="15.7792996"><ele>573.0</ele><time>2026-04-11T07:14:38.335Z</time></trkpt><trkpt lat="38.1676283" lon="15.7794026"><ele>578.0</ele><time>2026-04-11T07:14:39.335Z</time></trkpt><trkpt lat="38.1676631" lon="15.7795049"><ele>583.0</ele><time>2026-04-11T07:14:40.335Z</time></trkpt><trkpt lat="38.1676762" lon="15.7795907"><ele>588.0</ele><time>2026-04-11T07:14:41.336Z</time></trkpt><trkpt lat="38.167627" lon="15.7797404"><ele>593.0</ele><time>2026-04-11T07:14:43.335Z</time></trkpt><trkpt lat="38.1675473" lon="15.7797906"><ele>593.0</ele><time>2026-04-11T07:14:44.336Z</time></trkpt><trkpt lat="38.1674609" lon="15.7798116"><ele>593.0</ele><time>2026-04-11T07:14:45.335Z</time></trkpt><trkpt lat="38.1673744" lon="15.7797873"><ele>593.0</ele><time>2026-04-11T07:14:46.336Z</time></trkpt><trkpt lat="38.1672893" lon="15.7797328"><ele>593.0</ele><time>2026-04-11T07:14:47.335Z</time></trkpt><trkpt lat="38.1671916" lon="15.7796593"><ele>593.0</ele><time>2026-04-11T07:14:48.335Z</time></trkpt><trkpt lat="38.1670966" lon="15.7796056"><ele>591.4</ele><time>2026-04-11T07:14:49.335Z</time></trkpt><trkpt lat="38.167004" lon="15.7795681"><ele>589.8</ele><time>2026-04-11T07:14:50.336Z</time></trkpt><trkpt lat="38.1669104" lon="15.7795569"><ele>588.2</ele><time>2026-04-11T07:14:51.335Z</time></trkpt><trkpt lat="38.1668213" lon="15.7795725"><ele>586.6</ele><time>2026-04-11T07:14:52.335Z</time></trkpt><trkpt lat="38.1667471" lon="15.779622"><ele>585.0</ele><time>2026-04-11T07:14:53.335Z</time></trkpt><trkpt lat="38.1666717" lon="15.7797011"><ele>585.0</ele><time>2026-04-11T07:14:54.336Z</time></trkpt><trkpt lat="38.1665943" lon="15.7797967"><ele>585.0</ele><time>2026-04-11T07:14:55.335Z</time></trkpt><trkpt lat="38.1665224" lon="15.7798956"><ele>585.0</ele><time>2026-04-11T07:14:56.336Z</time></trkpt><trkpt lat="38.1664569" lon="15.7799881"><ele>585.0</ele><time>2026-04-11T07:14:57.335Z</time></trkpt><trkpt lat="38.1664096" lon="15.7800874"><ele>585.0</ele><time>2026-04-11T07:14:58.336Z</time></trkpt><trkpt lat="38.1663687" lon="15.7802061"><ele>580.25</ele><time>2026-04-11T07:14:59.335Z</time></trkpt><trkpt lat="38.1663372" lon="15.7803395"><ele>575.5</ele><time>2026-04-11T07:15:00.336Z</time></trkpt><trkpt lat="38.1663127" lon="15.7804813"><ele>570.75</ele><time>2026-04-11T07:15:01.335Z</time></trkpt><trkpt lat="38.1662846" lon="15.7806194"><ele>566.0</ele><time>2026-04-11T07:15:02.335Z</time></trkpt><trkpt lat="38.1662522" lon="15.7807658"><ele>566.0</ele><time>2026-04-11T07:15:03.335Z</time></trkpt><trkpt lat="38.166217" lon="15.7809078"><ele>566.0</ele><time>2026-04-11T07:15:04.336Z</time></trkpt><trkpt lat="38.1661864" lon="15.7810516"><ele>566.0</ele><time>2026-04-11T07:15:05.335Z</time></trkpt><trkpt lat="38.1661578" lon="15.781186"><ele>566.0</ele><time>2026-04-11T07:15:06.336Z</time></trkpt><trkpt lat="38.1661338" lon="15.7813216"><ele>568.0</ele><time>2026-04-11T07:15:07.335Z</time></trkpt><trkpt lat="38.1661116" lon="15.7814598"><ele>570.0</ele><time>2026-04-11T07:15:08.335Z</time></trkpt><trkpt lat="38.1660952" lon="15.7815968"><ele>572.0</ele><time>2026-04-11T07:15:09.335Z</time></trkpt><trkpt lat="38.1660899" lon="15.7817294"><ele>574.0</ele><time>2026-04-11T07:15:10.335Z</time></trkpt><trkpt lat="38.1660917" lon="15.7818627"><ele>576.0</ele><time>2026-04-11T07:15:11.335Z</time></trkpt><trkpt lat="38.1660968" lon="15.7820005"><ele>577.6</ele><time>2026-04-11T07:15:12.335Z</time></trkpt><trkpt lat="38.1661112" lon="15.782143"><ele>579.2</ele><time>2026-04-11T07:15:13.335Z</time></trkpt><trkpt lat="38.1661266" lon="15.7822829"><ele>580.8</ele><time>2026-04-11T07:15:14.335Z</time></trkpt><trkpt lat="38.1661366" lon="15.782421"><ele>582.4</ele><time>2026-04-11T07:15:15.336Z</time></trkpt><trkpt lat="38.1661406" lon="15.7825458"><ele>584.0</ele><time>2026-04-11T07:15:16.335Z</time></trkpt><trkpt lat="38.1661345" lon="15.7826527"><ele>584.3333333333333</ele><time>2026-04-11T07:15:17.335Z</time></trkpt><trkpt lat="38.1661307" lon="15.7827489"><ele>584.6666666666666</ele><time>2026-04-11T07:15:18.335Z</time></trkpt><trkpt lat="38.1661476" lon="15.7828308"><ele>585.0</ele><time>2026-04-11T07:15:19.336Z</time></trkpt><trkpt lat="38.1661882" lon="15.7828936"><ele>585.3333333333334</ele><time>2026-04-11T07:15:20.335Z</time></trkpt><trkpt lat="38.1662976" lon="15.7829069"><ele>585.6666666666667</ele><time>2026-04-11T07:15:22.335Z</time></trkpt><trkpt lat="38.1663444" lon="15.7828492"><ele>586.0</ele><time>2026-04-11T07:15:23.336Z</time></trkpt><trkpt lat="38.1663751" lon="15.7827524"><ele>585.6</ele><time>2026-04-11T07:15:24.335Z</time></trkpt><trkpt lat="38.1663826" lon="15.7826286"><ele>585.2</ele><time>2026-04-11T07:15:25.335Z</time></trkpt><trkpt lat="38.1663878" lon="15.7824865"><ele>584.8</ele><time>2026-04-11T07:15:26.335Z</time></trkpt><trkpt lat="38.1664025" lon="15.7823472"><ele>584.4</ele><time>2026-04-11T07:15:27.336Z</time></trkpt><trkpt lat="38.1664188" lon="15.7822066"><ele>584.0</ele><time>2026-04-11T07:15:28.335Z</time></trkpt><trkpt lat="38.166434" lon="15.7820745"><ele>584.0</ele><time>2026-04-11T07:15:29.335Z</time></trkpt><trkpt lat="38.1664536" lon="15.7819397"><ele>584.0</ele><time>2026-04-11T07:15:30.336Z</time></trkpt><trkpt lat="38.1664717" lon="15.7818115"><ele>584.0</ele><time>2026-04-11T07:15:31.335Z</time></trkpt><trkpt lat="38.1664987" lon="15.7816831"><ele>584.0</ele><time>2026-04-11T07:15:32.335Z</time></trkpt><trkpt lat="38.1665266" lon="15.7815687"><ele>584.0</ele><time>2026-04-11T07:15:33.335Z</time></trkpt><trkpt lat="38.16657" lon="15.7814583"><ele>586.8</ele><time>2026-04-11T07:15:34.336Z</time></trkpt><trkpt lat="38.1666252" lon="15.7813536"><ele>589.5999999999999</ele><time>2026-04-11T07:15:35.336Z</time></trkpt><trkpt lat="38.1666815" lon="15.7812485"><ele>592.4</ele><time>2026-04-11T07:15:36.335Z</time></trkpt><trkpt lat="38.1667412" lon="15.7811455"><ele>595.1999999999999</ele><time>2026-04-11T07:15:37.335Z</time></trkpt><trkpt lat="38.166798" lon="15.7810593"><ele>598.0</ele><time>2026-04-11T07:15:38.335Z</time></trkpt><trkpt lat="38.1668619" lon="15.7809827"><ele>598.0</ele><time>2026-04-11T07:15:39.336Z</time></trkpt><trkpt lat="38.1669265" lon="15.7809045"><ele>598.0</ele><time>2026-04-11T07:15:40.335Z</time></trkpt><trkpt lat="38.1669794" lon="15.7808445"><ele>598.0</ele><time>2026-04-11T07:15:41.335Z</time></trkpt><trkpt lat="38.1670866" lon="15.7808292"><ele>598.0</ele><time>2026-04-11T07:15:43.336Z</time></trkpt><trkpt lat="38.167126" lon="15.7809369"><ele>598.0</ele><time>2026-04-11T07:15:45.335Z</time></trkpt><trkpt lat="38.1670929" lon="15.781009"><ele>598.0</ele><time>2026-04-11T07:15:46.335Z</time></trkpt><trkpt lat="38.1670456" lon="15.7810922"><ele>600.4</ele><time>2026-04-11T07:15:47.335Z</time></trkpt><trkpt lat="38.1669843" lon="15.7811778"><ele>602.8</ele><time>2026-04-11T07:15:48.335Z</time></trkpt><trkpt lat="38.1669261" lon="15.7812772"><ele>605.2</ele><time>2026-04-11T07:15:49.335Z</time></trkpt><trkpt lat="38.1668661" lon="15.7813806"><ele>607.6</ele><time>2026-04-11T07:15:50.335Z</time></trkpt><trkpt lat="38.16682" lon="15.7814867"><ele>610.0</ele><time>2026-04-11T07:15:51.335Z</time></trkpt><trkpt lat="38.1667859" lon="15.7816"><ele>610.0</ele><time>2026-04-11T07:15:52.335Z</time></trkpt><trkpt lat="38.1667744" lon="15.7817217"><ele>610.0</ele><time>2026-04-11T07:15:53.335Z</time></trkpt><trkpt lat="38.1667767" lon="15.7818482"><ele>610.0</ele><time>2026-04-11T07:15:54.335Z</time></trkpt><trkpt lat="38.1667882" lon="15.7819783"><ele>610.0</ele><time>2026-04-11T07:15:55.335Z</time></trkpt><trkpt lat="38.1667962" lon="15.7821213"><ele>610.0</ele><time>2026-04-11T07:15:56.335Z</time></trkpt><trkpt lat="38.1667986" lon="15.7822672"><ele>610.25</ele><time>2026-04-11T07:15:57.335Z</time></trkpt><trkpt lat="38.1667983" lon="15.7824164"><ele>610.5</ele><time>2026-04-11T07:15:58.335Z</time></trkpt><trkpt lat="38.1667955" lon="15.782567"><ele>610.75</ele><time>2026-04-11T07:15:59.335Z</time></trkpt><trkpt lat="38.1667874" lon="15.7827174"><ele>611.0</ele><time>2026-04-11T07:16:00.336Z</time></trkpt><trkpt lat="38.1667868" lon="15.7828582"><ele>611.0</ele><time>2026-04-11T07:16:01.335Z</time></trkpt><trkpt lat="38.1667839" lon="15.782985"><ele>611.0</ele><time>2026-04-11T07:16:02.336Z</time></trkpt><trkpt lat="38.1667918" lon="15.7831004"><ele>611.0</ele><time>2026-04-11T07:16:03.336Z</time></trkpt><trkpt lat="38.1668133" lon="15.7832076"><ele>611.0</ele><time>2026-04-11T07:16:04.335Z</time></trkpt><trkpt lat="38.1668605" lon="15.7832985"><ele>611.0</ele><time>2026-04-11T07:16:05.335Z</time></trkpt><trkpt lat="38.1669259" lon="15.7833744"><ele>611.0</ele><time>2026-04-11T07:16:06.336Z</time></trkpt><trkpt lat="38.1670086" lon="15.7834426"><ele>611.0</ele><time>2026-04-11T07:16:07.335Z</time></trkpt><trkpt lat="38.1671026" lon="15.7835"><ele>611.0</ele><time>2026-04-11T07:16:08.336Z</time></trkpt><trkpt lat="38.1671939" lon="15.7835506"><ele>611.0</ele><time>2026-04-11T07:16:09.336Z</time></trkpt><trkpt lat="38.1672891" lon="15.7836057"><ele>611.0</ele><time>2026-04-11T07:16:10.335Z</time></trkpt><trkpt lat="38.1673873" lon="15.7836585"><ele>614.2</ele><time>2026-04-11T07:16:11.335Z</time></trkpt><trkpt lat="38.1674905" lon="15.7836997"><ele>617.4000000000001</ele><time>2026-04-11T07:16:12.335Z</time></trkpt><trkpt lat="38.1675922" lon="15.7837326"><ele>620.6</ele><time>2026-04-11T07:16:13.336Z</time></trkpt><trkpt lat="38.1676867" lon="15.7837604"><ele>623.8000000000001</ele><time>2026-04-11T07:16:14.336Z</time></trkpt><trkpt lat="38.1677765" lon="15.7837831"><ele>627.0</ele><time>2026-04-11T07:16:15.335Z</time></trkpt><trkpt lat="38.1678398" lon="15.783829"><ele>627.0</ele><time>2026-04-11T07:16:16.336Z</time></trkpt><trkpt lat="38.1678835" lon="15.7838896"><ele>627.0</ele><time>2026-04-11T07:16:17.336Z</time></trkpt><trkpt lat="38.1678927" lon="15.7839831"><ele>627.0</ele><time>2026-04-11T07:16:18.335Z</time></trkpt><trkpt lat="38.167872" lon="15.7840898"><ele>627.0</ele><time>2026-04-11T07:16:19.336Z</time></trkpt><trkpt lat="38.1678186" lon="15.7841995"><ele>627.0</ele><time>2026-04-11T07:16:20.335Z</time></trkpt><trkpt lat="38.1677445" lon="15.7843091"><ele>627.0</ele><time>2026-04-11T07:16:21.336Z</time></trkpt><trkpt lat="38.1676634" lon="15.784414"><ele>627.8333333333334</ele><time>2026-04-11T07:16:22.335Z</time></trkpt><trkpt lat="38.1675833" lon="15.784505"><ele>628.6666666666666</ele><time>2026-04-11T07:16:23.336Z</time></trkpt><trkpt lat="38.1675037" lon="15.7845821"><ele>629.5</ele><time>2026-04-11T07:16:24.335Z</time></trkpt><trkpt lat="38.167424" lon="15.784651"><ele>630.3333333333333</ele><time>2026-04-11T07:16:25.336Z</time></trkpt><trkpt lat="38.1673606" lon="15.784714"><ele>631.1666666666666</ele><time>2026-04-11T07:16:26.336Z</time></trkpt><trkpt lat="38.1673212" lon="15.7847778"><ele>632.0</ele><time>2026-04-11T07:16:27.335Z</time></trkpt><trkpt lat="38.1673067" lon="15.7849285"><ele>632.0</ele><time>2026-04-11T07:16:29.335Z</time></trkpt><trkpt lat="38.1673564" lon="15.7849795"><ele>632.0</ele><time>2026-04-11T07:16:30.335Z</time></trkpt><trkpt lat="38.167431" lon="15.7849788"><ele>632.0</ele><time>2026-04-11T07:16:31.336Z</time></trkpt><trkpt lat="38.1675076" lon="15.7849307"><ele>632.0</ele><time>2026-04-11T07:16:32.335Z</time></trkpt><trkpt lat="38.1675741" lon="15.784832"><ele>632.0</ele><time>2026-04-11T07:16:33.335Z</time></trkpt><trkpt lat="38.1676425" lon="15.7847186"><ele>632.0</ele><time>2026-04-11T07:16:34.335Z</time></trkpt><trkpt lat="38.1677176" lon="15.7846141"><ele>632.0</ele><time>2026-04-11T07:16:35.336Z</time></trkpt><trkpt lat="38.1678044" lon="15.7845197"><ele>632.0</ele><time>2026-04-11T07:16:36.336Z</time></trkpt><trkpt lat="38.1678919" lon="15.7844334"><ele>632.0</ele><time>2026-04-11T07:16:37.335Z</time></trkpt><trkpt lat="38.1679774" lon="15.7843552"><ele>632.0</ele><time>2026-04-11T07:16:38.335Z</time></trkpt><trkpt lat="38.1680615" lon="15.7842886"><ele>632.0</ele><time>2026-04-11T07:16:39.336Z</time></trkpt><trkpt lat="38.1681405" lon="15.7842267"><ele>635.1666666666666</ele><time>2026-04-11T07:16:40.335Z</time></trkpt><trkpt lat="38.168215" lon="15.7841497"><ele>638.3333333333333</ele><time>2026-04-11T07:16:41.336Z</time></trkpt><trkpt lat="38.1682608" lon="15.7840694"><ele>641.5</ele><time>2026-04-11T07:16:42.336Z</time></trkpt><trkpt lat="38.1682883" lon="15.7839743"><ele>644.6666666666666</ele><time>2026-04-11T07:16:43.335Z</time></trkpt><trkpt lat="38.1683003" lon="15.7838719"><ele>647.8333333333334</ele><time>2026-04-11T07:16:44.336Z</time></trkpt><trkpt lat="38.1682933" lon="15.7837669"><ele>651.0</ele><time>2026-04-11T07:16:45.335Z</time></trkpt><trkpt lat="38.1682829" lon="15.7836539"><ele>651.0</ele><time>2026-04-11T07:16:46.335Z</time></trkpt><trkpt lat="38.1682737" lon="15.7835424"><ele>651.0</ele><time>2026-04-11T07:16:47.335Z</time></trkpt><trkpt lat="38.1682678" lon="15.7834344"><ele>651.0</ele><time>2026-04-11T07:16:48.335Z</time></trkpt><trkpt lat="38.1682565" lon="15.7833256"><ele>651.0</ele><time>2026-04-11T07:16:49.336Z</time></trkpt><trkpt lat="38.1682413" lon="15.7832149"><ele>651.0</ele><time>2026-04-11T07:16:50.335Z</time></trkpt><trkpt lat="38.1682294" lon="15.7831129"><ele>651.0</ele><time>2026-04-11T07:16:51.335Z</time></trkpt><trkpt lat="38.1682244" lon="15.7830047"><ele>651.6666666666666</ele><time>2026-04-11T07:16:52.335Z</time></trkpt><trkpt lat="38.168217" lon="15.7828994"><ele>652.3333333333334</ele><time>2026-04-11T07:16:53.335Z</time></trkpt><trkpt lat="38.1682145" lon="15.7827974"><ele>653.0</ele><time>2026-04-11T07:16:54.335Z</time></trkpt><trkpt lat="38.1682217" lon="15.7826951"><ele>653.6666666666667</ele><time>2026-04-11T07:16:55.335Z</time></trkpt><trkpt lat="38.1682311" lon="15.7825898"><ele>654.3333333333334</ele><time>2026-04-11T07:16:56.335Z</time></trkpt><trkpt lat="38.1682358" lon="15.7824886"><ele>655.0</ele><time>2026-04-11T07:16:57.336Z</time></trkpt><trkpt lat="38.1682319" lon="15.782383"><ele>655.3333333333334</ele><time>2026-04-11T07:16:58.335Z</time></trkpt><trkpt lat="38.1682284" lon="15.7822807"><ele>655.6666666666667</ele><time>2026-04-11T07:16:59.335Z</time></trkpt><trkpt lat="38.1682165" lon="15.7821877"><ele>656.0</ele><time>2026-04-11T07:17:00.335Z</time></trkpt><trkpt lat="38.1681948" lon="15.7820975"><ele>656.3333333333334</ele><time>2026-04-11T07:17:01.335Z</time></trkpt><trkpt lat="38.1681806" lon="15.7820151"><ele>656.6666666666666</ele><time>2026-04-11T07:17:02.336Z</time></trkpt><trkpt lat="38.1681972" lon="15.7818784"><ele>657.0</ele><time>2026-04-11T07:17:04.336Z</time></trkpt><trkpt lat="38.168268" lon="15.7819212"><ele>657.0</ele><time>2026-04-11T07:17:07.335Z</time></trkpt><trkpt lat="38.1682672" lon="15.7820013"><ele>657.0</ele><time>2026-04-11T07:17:08.335Z</time></trkpt><trkpt lat="38.1682612" lon="15.7821009"><ele>657.0</ele><time>2026-04-11T07:17:09.336Z</time></trkpt><trkpt lat="38.1682645" lon="15.7822062"><ele>657.0</ele><time>2026-04-11T07:17:10.335Z</time></trkpt><trkpt lat="38.1682745" lon="15.7823059"><ele>657.0</ele><time>2026-04-11T07:17:11.335Z</time></trkpt><trkpt lat="38.1682847" lon="15.7824037"><ele>657.0</ele><time>2026-04-11T07:17:12.336Z</time></trkpt><trkpt lat="38.1682967" lon="15.7825071"><ele>657.0</ele><time>2026-04-11T07:17:13.335Z</time></trkpt><trkpt lat="38.1683131" lon="15.7826094"><ele>657.0</ele><time>2026-04-11T07:17:14.335Z</time></trkpt><trkpt lat="38.1683333" lon="15.7827145"><ele>657.0</ele><time>2026-04-11T07:17:15.335Z</time></trkpt><trkpt lat="38.1683535" lon="15.7828188"><ele>657.0</ele><time>2026-04-11T07:17:16.335Z</time></trkpt><trkpt lat="38.1683768" lon="15.7829234"><ele>657.0</ele><time>2026-04-11T07:17:17.335Z</time></trkpt><trkpt lat="38.1684042" lon="15.7830288"><ele>657.0</ele><time>2026-04-11T07:17:18.335Z</time></trkpt><trkpt lat="38.1684253" lon="15.7831408"><ele>656.6666666666666</ele><time>2026-04-11T07:17:19.335Z</time></trkpt><trkpt lat="38.1684508" lon="15.7832495"><ele>656.3333333333334</ele><time>2026-04-11T07:17:20.335Z</time></trkpt><trkpt lat="38.168475" lon="15.7833569"><ele>656.0</ele><time>2026-04-11T07:17:21.335Z</time></trkpt><trkpt lat="38.1685027" lon="15.7834693"><ele>655.6666666666667</ele><time>2026-04-11T07:17:22.335Z</time></trkpt><trkpt lat="38.1685415" lon="15.7835696"><ele>655.3333333333334</ele><time>2026-04-11T07:17:23.335Z</time></trkpt><trkpt lat="38.1685805" lon="15.7836703"><ele>655.0</ele><time>2026-04-11T07:17:24.335Z</time></trkpt><trkpt lat="38.1686273" lon="15.7837715"><ele>654.3333333333334</ele><time>2026-04-11T07:17:25.335Z</time></trkpt><trkpt lat="38.1686762" lon="15.783865"><ele>653.6666666666667</ele><time>2026-04-11T07:17:26.335Z</time></trkpt><trkpt lat="38.1687296" lon="15.7839536"><ele>653.0</ele><time>2026-04-11T07:17:27.335Z</time></trkpt><trkpt lat="38.1687817" lon="15.7840431"><ele>652.3333333333334</ele><time>2026-04-11T07:17:28.336Z</time></trkpt><trkpt lat="38.1688241" lon="15.7841255"><ele>651.6666666666666</ele><time>2026-04-11T07:17:29.335Z</time></trkpt><trkpt lat="38.168867" lon="15.7842072"><ele>651.0</ele><time>2026-04-11T07:17:30.335Z</time></trkpt><trkpt lat="38.1688962" lon="15.784287"><ele>653.6666666666666</ele><time>2026-04-11T07:17:31.336Z</time></trkpt><trkpt lat="38.1688974" lon="15.7844292"><ele>656.3333333333334</ele><time>2026-04-11T07:17:33.336Z</time></trkpt><trkpt lat="38.1688487" lon="15.7844941"><ele>659.0</ele><time>2026-04-11T07:17:34.336Z</time></trkpt><trkpt lat="38.1687843" lon="15.7845396"><ele>661.6666666666667</ele><time>2026-04-11T07:17:35.335Z</time></trkpt><trkpt lat="38.1686997" lon="15.7845681"><ele>664.3333333333334</ele><time>2026-04-11T07:17:36.335Z</time></trkpt><trkpt lat="38.1686136" lon="15.784581"><ele>667.0</ele><time>2026-04-11T07:17:37.335Z</time></trkpt><trkpt lat="38.1685304" lon="15.7846084"><ele>667.0</ele><time>2026-04-11T07:17:38.336Z</time></trkpt><trkpt lat="38.1684574" lon="15.7846463"><ele>667.0</ele><time>2026-04-11T07:17:39.335Z</time></trkpt><trkpt lat="38.1683903" lon="15.7847107"><ele>667.0</ele><time>2026-04-11T07:17:40.335Z</time></trkpt><trkpt lat="38.1683398" lon="15.7847939"><ele>667.0</ele><time>2026-04-11T07:17:41.335Z</time></trkpt><trkpt lat="38.1683052" lon="15.7848901"><ele>667.0</ele><time>2026-04-11T07:17:42.335Z</time></trkpt><trkpt lat="38.1682832" lon="15.7849985"><ele>667.0</ele><time>2026-04-11T07:17:43.335Z</time></trkpt><trkpt lat="38.1682702" lon="15.7851118"><ele>668.8</ele><time>2026-04-11T07:17:44.335Z</time></trkpt><trkpt lat="38.1682548" lon="15.7852183"><ele>670.6</ele><time>2026-04-11T07:17:45.335Z</time></trkpt><trkpt lat="38.16824" lon="15.7853265"><ele>672.4</ele><time>2026-04-11T07:17:46.335Z</time></trkpt><trkpt lat="38.1682411" lon="15.7854466"><ele>674.1999999999999</ele><time>2026-04-11T07:17:47.336Z</time></trkpt><trkpt lat="38.1682552" lon="15.7855658"><ele>676.0</ele><time>2026-04-11T07:17:48.335Z</time></trkpt><trkpt lat="38.1682801" lon="15.7856876"><ele>676.0</ele><time>2026-04-11T07:17:49.335Z</time></trkpt><trkpt lat="38.1683047" lon="15.7858121"><ele>676.0</ele><time>2026-04-11T07:17:50.335Z</time></trkpt><trkpt lat="38.1683333" lon="15.7859342"><ele>676.0</ele><time>2026-04-11T07:17:51.335Z</time></trkpt><trkpt lat="38.1683694" lon="15.786047"><ele>676.0</ele><time>2026-04-11T07:17:52.335Z</time></trkpt><trkpt lat="38.1684156" lon="15.7861575"><ele>676.0</ele><time>2026-04-11T07:17:53.336Z</time></trkpt><trkpt lat="38.168472" lon="15.7862527"><ele>673.5999999999999</ele><time>2026-04-11T07:17:54.335Z</time></trkpt><trkpt lat="38.1685365" lon="15.7863379"><ele>671.2</ele><time>2026-04-11T07:17:55.335Z</time></trkpt><trkpt lat="38.1686105" lon="15.7864175"><ele>668.8</ele><time>2026-04-11T07:17:56.335Z</time></trkpt><trkpt lat="38.168684" lon="15.7864945"><ele>666.4000000000001</ele><time>2026-04-11T07:17:57.336Z</time></trkpt><trkpt lat="38.1687565" lon="15.7865737"><ele>664.0</ele><time>2026-04-11T07:17:58.335Z</time></trkpt><trkpt lat="38.1688241" lon="15.7866675"><ele>664.0</ele><time>2026-04-11T07:17:59.336Z</time></trkpt><trkpt lat="38.1688832" lon="15.7867626"><ele>664.0</ele><time>2026-04-11T07:18:00.336Z</time></trkpt><trkpt lat="38.1689434" lon="15.786855"><ele>664.0</ele><time>2026-04-11T07:18:01.336Z</time></trkpt><trkpt lat="38.1690049" lon="15.7869539"><ele>664.0</ele><time>2026-04-11T07:18:02.335Z</time></trkpt><trkpt lat="38.1690582" lon="15.7870578"><ele>664.0</ele><time>2026-04-11T07:18:03.335Z</time></trkpt><trkpt lat="38.1691095" lon="15.7871731"><ele>669.0</ele><time>2026-04-11T07:18:04.335Z</time></trkpt><trkpt lat="38.1691741" lon="15.787276"><ele>674.0</ele><time>2026-04-11T07:18:05.335Z</time></trkpt><trkpt lat="38.1692445" lon="15.7873776"><ele>679.0</ele><time>2026-04-11T07:18:06.336Z</time></trkpt><trkpt lat="38.1693166" lon="15.7874696"><ele>684.0</ele><time>2026-04-11T07:18:07.335Z</time></trkpt><trkpt lat="38.1693944" lon="15.7875433"><ele>689.0</ele><time>2026-04-11T07:18:08.335Z</time></trkpt><trkpt lat="38.169485" lon="15.7875836"><ele>689.0</ele><time>2026-04-11T07:18:09.335Z</time></trkpt><trkpt lat="38.1695823" lon="15.7876003"><ele>689.0</ele><time>2026-04-11T07:18:10.335Z</time></trkpt><trkpt lat="38.1696792" lon="15.787616"><ele>689.0</ele><time>2026-04-11T07:18:11.335Z</time></trkpt><trkpt lat="38.1697688" lon="15.7876395"><ele>689.0</ele><time>2026-04-11T07:18:12.335Z</time></trkpt><trkpt lat="38.1698482" lon="15.7876766"><ele>689.0</ele><time>2026-04-11T07:18:13.335Z</time></trkpt><trkpt lat="38.1699151" lon="15.787721"><ele>689.0</ele><time>2026-04-11T07:18:14.335Z</time></trkpt><trkpt lat="38.1699603" lon="15.7877812"><ele>691.5</ele><time>2026-04-11T07:18:15.335Z</time></trkpt><trkpt lat="38.1699767" lon="15.7879268"><ele>694.0</ele><time>2026-04-11T07:18:17.335Z</time></trkpt><trkpt lat="38.1699091" lon="15.788004"><ele>696.5</ele><time>2026-04-11T07:18:18.336Z</time></trkpt><trkpt lat="38.1697978" lon="15.7880678"><ele>699.0</ele><time>2026-04-11T07:18:19.336Z</time></trkpt><trkpt lat="38.1696743" lon="15.7881164"><ele>699.0</ele><time>2026-04-11T07:18:20.335Z</time></trkpt><trkpt lat="38.1695585" lon="15.7881426"><ele>699.0</ele><time>2026-04-11T07:18:21.335Z</time></trkpt><trkpt lat="38.1694537" lon="15.7881675"><ele>699.0</ele><time>2026-04-11T07:18:22.336Z</time></trkpt><trkpt lat="38.1693657" lon="15.7882034"><ele>699.0</ele><time>2026-04-11T07:18:23.335Z</time></trkpt><trkpt lat="38.1692834" lon="15.7882402"><ele>699.0</ele><time>2026-04-11T07:18:24.335Z</time></trkpt><trkpt lat="38.1692152" lon="15.788304"><ele>699.0</ele><time>2026-04-11T07:18:25.336Z</time></trkpt><trkpt lat="38.1691684" lon="15.7883954"><ele>699.0</ele><time>2026-04-11T07:18:26.335Z</time></trkpt><trkpt lat="38.169132" lon="15.7884897"><ele>699.0</ele><time>2026-04-11T07:18:27.335Z</time></trkpt><trkpt lat="38.1690896" lon="15.7885753"><ele>699.0</ele><time>2026-04-11T07:18:28.335Z</time></trkpt><trkpt lat="38.1690388" lon="15.7886397"><ele>699.0</ele><time>2026-04-11T07:18:29.335Z</time></trkpt><trkpt lat="38.1689752" lon="15.7886748"><ele>699.0</ele><time>2026-04-11T07:18:30.335Z</time></trkpt><trkpt lat="38.1689116" lon="15.7886668"><ele>701.6</ele><time>2026-04-11T07:18:31.335Z</time></trkpt><trkpt lat="38.1688502" lon="15.7886425"><ele>704.2</ele><time>2026-04-11T07:18:32.335Z</time></trkpt><trkpt lat="38.1687464" lon="15.7886123"><ele>706.8000000000001</ele><time>2026-04-11T07:18:34.335Z</time></trkpt><trkpt lat="38.168648" lon="15.7886248"><ele>709.4000000000001</ele><time>2026-04-11T07:18:36.336Z</time></trkpt><trkpt lat="38.1685537" lon="15.7886496"><ele>712.0</ele><time>2026-04-11T07:18:38.335Z</time></trkpt><trkpt lat="38.1684681" lon="15.7887421"><ele>712.0</ele><time>2026-04-11T07:18:40.336Z</time></trkpt><trkpt lat="38.1684162" lon="15.7888076"><ele>712.0</ele><time>2026-04-11T07:18:41.335Z</time></trkpt><trkpt lat="38.1683522" lon="15.7888847"><ele>712.0</ele><time>2026-04-11T07:18:42.335Z</time></trkpt><trkpt lat="38.1682747" lon="15.7889653"><ele>712.0</ele><time>2026-04-11T07:18:43.336Z</time></trkpt><trkpt lat="38.1681985" lon="15.7890522"><ele>712.0</ele><time>2026-04-11T07:18:44.335Z</time></trkpt><trkpt lat="38.1681198" lon="15.789123"><ele>712.6</ele><time>2026-04-11T07:18:45.335Z</time></trkpt><trkpt lat="38.1680437" lon="15.7891915"><ele>713.2</ele><time>2026-04-11T07:18:46.335Z</time></trkpt><trkpt lat="38.1679587" lon="15.789264"><ele>713.8</ele><time>2026-04-11T07:18:47.335Z</time></trkpt><trkpt lat="38.1678761" lon="15.7893353"><ele>714.4</ele><time>2026-04-11T07:18:48.335Z</time></trkpt><trkpt lat="38.1678079" lon="15.7894059"><ele>715.0</ele><time>2026-04-11T07:18:49.335Z</time></trkpt><trkpt lat="38.1677322" lon="15.7894713"><ele>715.0</ele><time>2026-04-11T07:18:50.335Z</time></trkpt><trkpt lat="38.1676482" lon="15.7895342"><ele>715.0</ele><time>2026-04-11T07:18:51.335Z</time></trkpt><trkpt lat="38.1675741" lon="15.7896032"><ele>715.0</ele><time>2026-04-11T07:18:52.336Z</time></trkpt><trkpt lat="38.1674972" lon="15.7896576"><ele>715.0</ele><time>2026-04-11T07:18:53.335Z</time></trkpt><trkpt lat="38.1674267" lon="15.7897169"><ele>715.0</ele><time>2026-04-11T07:18:54.336Z</time></trkpt><trkpt lat="38.1673553" lon="15.7897641"><ele>715.0</ele><time>2026-04-11T07:18:55.336Z</time></trkpt><trkpt lat="38.1672905" lon="15.7898125"><ele>715.0</ele><time>2026-04-11T07:18:56.336Z</time></trkpt><trkpt lat="38.1672404" lon="15.789931"><ele>715.0</ele><time>2026-04-11T07:18:58.335Z</time></trkpt><trkpt lat="38.1672657" lon="15.790014"><ele>715.0</ele><time>2026-04-11T07:18:59.336Z</time></trkpt><trkpt lat="38.1673115" lon="15.7900883"><ele>715.0</ele><time>2026-04-11T07:19:00.335Z</time></trkpt><trkpt lat="38.1673881" lon="15.7901426"><ele>715.0</ele><time>2026-04-11T07:19:01.335Z</time></trkpt><trkpt lat="38.1675317" lon="15.7901791"><ele>715.0</ele><time>2026-04-11T07:19:03.336Z</time></trkpt><trkpt lat="38.1676269" lon="15.7901298"><ele>715.0</ele><time>2026-04-11T07:19:04.336Z</time></trkpt><trkpt lat="38.1677103" lon="15.7900978"><ele>715.0</ele><time>2026-04-11T07:19:05.335Z</time></trkpt><trkpt lat="38.1677814" lon="15.7900611"><ele>715.0</ele><time>2026-04-11T07:19:06.335Z</time></trkpt><trkpt lat="38.1678491" lon="15.790029"><ele>715.0</ele><time>2026-04-11T07:19:07.335Z</time></trkpt><trkpt lat="38.1679201" lon="15.790009"><ele>715.0</ele><time>2026-04-11T07:19:08.336Z</time></trkpt><trkpt lat="38.167995" lon="15.7899931"><ele>715.0</ele><time>2026-04-11T07:19:09.335Z</time></trkpt><trkpt lat="38.1680703" lon="15.7899782"><ele>715.0</ele><time>2026-04-11T07:19:10.335Z</time></trkpt><trkpt lat="38.1681552" lon="15.7899613"><ele>715.0</ele><time>2026-04-11T07:19:11.336Z</time></trkpt><trkpt lat="38.1682345" lon="15.7899353"><ele>715.0</ele><time>2026-04-11T07:19:12.335Z</time></trkpt><trkpt lat="38.1683083" lon="15.7899107"><ele>715.0</ele><time>2026-04-11T07:19:13.336Z</time></trkpt><trkpt lat="38.1683832" lon="15.7898989"><ele>715.0</ele><time>2026-04-11T07:19:14.335Z</time></trkpt><trkpt lat="38.1684484" lon="15.7898735"><ele>717.4</ele><time>2026-04-11T07:19:15.335Z</time></trkpt><trkpt lat="38.1685437" lon="15.7898146"><ele>719.8</ele><time>2026-04-11T07:19:17.335Z</time></trkpt><trkpt lat="38.1686468" lon="15.7897677"><ele>722.2</ele><time>2026-04-11T07:19:19.335Z</time></trkpt><trkpt lat="38.1687172" lon="15.7897468"><ele>724.6</ele><time>2026-04-11T07:19:20.335Z</time></trkpt><trkpt lat="38.1687864" lon="15.7897119"><ele>727.0</ele><time>2026-04-11T07:19:21.335Z</time></trkpt><trkpt lat="38.1688744" lon="15.789677"><ele>727.0</ele><time>2026-04-11T07:19:22.336Z</time></trkpt><trkpt lat="38.1689533" lon="15.7896208"><ele>727.0</ele><time>2026-04-11T07:19:23.336Z</time></trkpt><trkpt lat="38.1690172" lon="15.7895373"><ele>727.0</ele><time>2026-04-11T07:19:24.336Z</time></trkpt><trkpt lat="38.1690882" lon="15.7894498"><ele>727.0</ele><time>2026-04-11T07:19:25.335Z</time></trkpt><trkpt lat="38.1691461" lon="15.7893692"><ele>727.0</ele><time>2026-04-11T07:19:26.335Z</time></trkpt><trkpt lat="38.1691906" lon="15.789297"><ele>727.0</ele><time>2026-04-11T07:19:27.335Z</time></trkpt><trkpt lat="38.1692368" lon="15.7892401"><ele>726.6</ele><time>2026-04-11T07:19:28.336Z</time></trkpt><trkpt lat="38.1693356" lon="15.7892032"><ele>726.2</ele><time>2026-04-11T07:19:30.336Z</time></trkpt><trkpt lat="38.1694061" lon="15.7892312"><ele>725.8</ele><time>2026-04-11T07:19:31.336Z</time></trkpt><trkpt lat="38.1695022" lon="15.7892699"><ele>725.4</ele><time>2026-04-11T07:19:32.335Z</time></trkpt><trkpt lat="38.1696099" lon="15.7893213"><ele>725.0</ele><time>2026-04-11T07:19:33.336Z</time></trkpt><trkpt lat="38.1696992" lon="15.7893918"><ele>727.5</ele><time>2026-04-11T07:19:34.335Z</time></trkpt><trkpt lat="38.1697797" lon="15.7894752"><ele>730.0</ele><time>2026-04-11T07:19:35.336Z</time></trkpt><trkpt lat="38.1698518" lon="15.789558"><ele>732.5</ele><time>2026-04-11T07:19:36.336Z</time></trkpt><trkpt lat="38.1699186" lon="15.7896174"><ele>735.0</ele><time>2026-04-11T07:19:37.335Z</time></trkpt><trkpt lat="38.1699815" lon="15.789643"><ele>737.5</ele><time>2026-04-11T07:19:38.336Z</time></trkpt><trkpt lat="38.1700502" lon="15.7896449"><ele>740.0</ele><time>2026-04-11T07:19:39.335Z</time></trkpt><trkpt lat="38.1701263" lon="15.7895056"><ele>740.6</ele><time>2026-04-11T07:19:41.335Z</time></trkpt><trkpt lat="38.1701118" lon="15.7893787"><ele>741.2</ele><time>2026-04-11T07:19:42.336Z</time></trkpt><trkpt lat="38.1700649" lon="15.7892638"><ele>741.8</ele><time>2026-04-11T07:19:43.335Z</time></trkpt><trkpt lat="38.170014" lon="15.7891707"><ele>742.4</ele><time>2026-04-11T07:19:44.335Z</time></trkpt><trkpt lat="38.1699774" lon="15.7891019"><ele>743.0</ele><time>2026-04-11T07:19:45.335Z</time></trkpt><trkpt lat="38.1699204" lon="15.7889887"><ele>743.0</ele><time>2026-04-11T07:19:47.335Z</time></trkpt><trkpt lat="38.1698885" lon="15.7889016"><ele>743.0</ele><time>2026-04-11T07:19:49.335Z</time></trkpt><trkpt lat="38.1698836" lon="15.7887967"><ele>743.0</ele><time>2026-04-11T07:19:51.335Z</time></trkpt><trkpt lat="38.1699447" lon="15.7887259"><ele>743.0</ele><time>2026-04-11T07:19:53.335Z</time></trkpt><trkpt lat="38.170041" lon="15.7887657"><ele>743.0</ele><time>2026-04-11T07:19:55.335Z</time></trkpt><trkpt lat="38.170088" lon="15.7888371"><ele>743.0</ele><time>2026-04-11T07:19:56.335Z</time></trkpt><trkpt lat="38.1701294" lon="15.7889236"><ele>743.0</ele><time>2026-04-11T07:19:57.335Z</time></trkpt><trkpt lat="38.1701693" lon="15.7890301"><ele>743.0</ele><time>2026-04-11T07:19:58.335Z</time></trkpt><trkpt lat="38.1702076" lon="15.7891346"><ele>743.0</ele><time>2026-04-11T07:19:59.335Z</time></trkpt><trkpt lat="38.1702485" lon="15.7892413"><ele>743.0</ele><time>2026-04-11T07:20:00.335Z</time></trkpt><trkpt lat="38.1702974" lon="15.7893431"><ele>743.0</ele><time>2026-04-11T07:20:01.335Z</time></trkpt><trkpt lat="38.1703444" lon="15.7894477"><ele>744.1666666666666</ele><time>2026-04-11T07:20:02.335Z</time></trkpt><trkpt lat="38.1703995" lon="15.7895452"><ele>745.3333333333333</ele><time>2026-04-11T07:20:03.335Z</time></trkpt><trkpt lat="38.1704487" lon="15.7896512"><ele>746.5</ele><time>2026-04-11T07:20:04.335Z</time></trkpt><trkpt lat="38.1705012" lon="15.7897548"><ele>747.6666666666666</ele><time>2026-04-11T07:20:05.336Z</time></trkpt><trkpt lat="38.17053" lon="15.7898378"><ele>748.8333333333334</ele><time>2026-04-11T07:20:06.335Z</time></trkpt><trkpt lat="38.1705531" lon="15.7899329"><ele>750.0</ele><time>2026-04-11T07:20:07.335Z</time></trkpt><trkpt lat="38.1705628" lon="15.7900179"><ele>750.0</ele><time>2026-04-11T07:20:08.335Z</time></trkpt><trkpt lat="38.1705516" lon="15.7901034"><ele>750.0</ele><time>2026-04-11T07:20:09.335Z</time></trkpt><trkpt lat="38.1705148" lon="15.7901796"><ele>750.0</ele><time>2026-04-11T07:20:10.335Z</time></trkpt><trkpt lat="38.1704583" lon="15.7902503"><ele>750.0</ele><time>2026-04-11T07:20:11.336Z</time></trkpt><trkpt lat="38.170387" lon="15.7903119"><ele>750.0</ele><time>2026-04-11T07:20:12.336Z</time></trkpt><trkpt lat="38.1702874" lon="15.7903627"><ele>750.0</ele><time>2026-04-11T07:20:13.336Z</time></trkpt><trkpt lat="38.170182" lon="15.7904064"><ele>750.0</ele><time>2026-04-11T07:20:14.335Z</time></trkpt><trkpt lat="38.1700846" lon="15.7904529"><ele>750.0</ele><time>2026-04-11T07:20:15.336Z</time></trkpt><trkpt lat="38.1699803" lon="15.7904896"><ele>750.0</ele><time>2026-04-11T07:20:16.335Z</time></trkpt><trkpt lat="38.1698511" lon="15.7905395"><ele>750.0</ele><time>2026-04-11T07:20:17.336Z</time></trkpt><trkpt lat="38.1697541" lon="15.790609"><ele>750.0</ele><time>2026-04-11T07:20:18.335Z</time></trkpt><trkpt lat="38.1696742" lon="15.7906955"><ele>750.0</ele><time>2026-04-11T07:20:19.335Z</time></trkpt><trkpt lat="38.1696121" lon="15.7907884"><ele>750.0</ele><time>2026-04-11T07:20:20.336Z</time></trkpt><trkpt lat="38.1695717" lon="15.790887"><ele>750.0</ele><time>2026-04-11T07:20:21.336Z</time></trkpt><trkpt lat="38.1695505" lon="15.7909837"><ele>750.0</ele><time>2026-04-11T07:20:22.335Z</time></trkpt><trkpt lat="38.1695509" lon="15.7910846"><ele>750.0</ele><time>2026-04-11T07:20:23.336Z</time></trkpt><trkpt lat="38.1695871" lon="15.7911821"><ele>753.4</ele><time>2026-04-11T07:20:24.335Z</time></trkpt><trkpt lat="38.1696519" lon="15.7912537"><ele>756.8</ele><time>2026-04-11T07:20:25.335Z</time></trkpt><trkpt lat="38.1697462" lon="15.7913036"><ele>760.2</ele><time>2026-04-11T07:20:26.335Z</time></trkpt><trkpt lat="38.1698455" lon="15.7913353"><ele>763.6</ele><time>2026-04-11T07:20:27.335Z</time></trkpt><trkpt lat="38.1699342" lon="15.7913761"><ele>767.0</ele><time>2026-04-11T07:20:28.335Z</time></trkpt><trkpt lat="38.169999" lon="15.7914473"><ele>767.0</ele><time>2026-04-11T07:20:29.336Z</time></trkpt><trkpt lat="38.1700233" lon="15.7915284"><ele>767.0</ele><time>2026-04-11T07:20:30.335Z</time></trkpt><trkpt lat="38.1700196" lon="15.7916184"><ele>767.0</ele><time>2026-04-11T07:20:31.335Z</time></trkpt><trkpt lat="38.1699944" lon="15.7917016"><ele>767.0</ele><time>2026-04-11T07:20:32.335Z</time></trkpt><trkpt lat="38.1699379" lon="15.7917443"><ele>767.0</ele><time>2026-04-11T07:20:33.336Z</time></trkpt><trkpt lat="38.1698507" lon="15.7917567"><ele>767.0</ele><time>2026-04-11T07:20:34.335Z</time></trkpt><trkpt lat="38.1697557" lon="15.7917613"><ele>767.0</ele><time>2026-04-11T07:20:35.336Z</time></trkpt><trkpt lat="38.1696867" lon="15.7917543"><ele>767.0</ele><time>2026-04-11T07:20:36.336Z</time></trkpt><trkpt lat="38.1696095" lon="15.7917227"><ele>767.0</ele><time>2026-04-11T07:22:07.335Z</time></trkpt><trkpt lat="38.1694932" lon="15.7916895"><ele>767.0</ele><time>2026-04-11T07:22:09.335Z</time></trkpt><trkpt lat="38.1694227" lon="15.791672"><ele>767.0</ele><time>2026-04-11T07:22:10.335Z</time></trkpt><trkpt lat="38.169346" lon="15.7916655"><ele>767.0</ele><time>2026-04-11T07:22:11.336Z</time></trkpt><trkpt lat="38.1692698" lon="15.7916984"><ele>767.0</ele><time>2026-04-11T07:22:12.335Z</time></trkpt><trkpt lat="38.1691874" lon="15.7917514"><ele>767.0</ele><time>2026-04-11T07:22:13.335Z</time></trkpt><trkpt lat="38.1691169" lon="15.7918085"><ele>767.0</ele><time>2026-04-11T07:22:14.335Z</time></trkpt><trkpt lat="38.1690506" lon="15.7918638"><ele>767.0</ele><time>2026-04-11T07:22:15.335Z</time></trkpt><trkpt lat="38.1690041" lon="15.791925"><ele>767.0</ele><time>2026-04-11T07:22:16.335Z</time></trkpt><trkpt lat="38.1689862" lon="15.7920024"><ele>767.0</ele><time>2026-04-11T07:22:17.335Z</time></trkpt><trkpt lat="38.1690005" lon="15.7920862"><ele>769.1666666666666</ele><time>2026-04-11T07:22:18.335Z</time></trkpt><trkpt lat="38.1690459" lon="15.7921542"><ele>771.3333333333333</ele><time>2026-04-11T07:22:19.335Z</time></trkpt><trkpt lat="38.1691097" lon="15.7921737"><ele>773.5</ele><time>2026-04-11T07:22:20.335Z</time></trkpt><trkpt lat="38.1691737" lon="15.7921548"><ele>775.6666666666666</ele><time>2026-04-11T07:22:21.335Z</time></trkpt><trkpt lat="38.1692283" lon="15.7921031"><ele>777.8333333333334</ele><time>2026-04-11T07:22:22.336Z</time></trkpt><trkpt lat="38.1693038" lon="15.792051"><ele>780.0</ele><time>2026-04-11T07:22:23.335Z</time></trkpt><trkpt lat="38.1693996" lon="15.7919991"><ele>780.0</ele><time>2026-04-11T07:22:24.335Z</time></trkpt><trkpt lat="38.1695028" lon="15.7919517"><ele>780.0</ele><time>2026-04-11T07:22:25.335Z</time></trkpt><trkpt lat="38.1696078" lon="15.7919272"><ele>780.0</ele><time>2026-04-11T07:22:26.336Z</time></trkpt><trkpt lat="38.1697137" lon="15.7919121"><ele>780.0</ele><time>2026-04-11T07:22:27.336Z</time></trkpt><trkpt lat="38.1698085" lon="15.7919051"><ele>780.0</ele><time>2026-04-11T07:22:28.336Z</time></trkpt><trkpt lat="38.1699013" lon="15.7918974"><ele>783.3333333333334</ele><time>2026-04-11T07:22:29.335Z</time></trkpt><trkpt lat="38.169987" lon="15.7918926"><ele>786.6666666666667</ele><time>2026-04-11T07:22:30.336Z</time></trkpt><trkpt lat="38.1700745" lon="15.791889"><ele>790.0</ele><time>2026-04-11T07:22:31.335Z</time></trkpt><trkpt lat="38.1701595" lon="15.7919067"><ele>793.3333333333334</ele><time>2026-04-11T07:22:32.335Z</time></trkpt><trkpt lat="38.170237" lon="15.7919392"><ele>796.6666666666667</ele><time>2026-04-11T07:22:33.335Z</time></trkpt><trkpt lat="38.170315" lon="15.7919541"><ele>800.0</ele><time>2026-04-11T07:22:34.335Z</time></trkpt><trkpt lat="38.1703843" lon="15.7919324"><ele>800.0</ele><time>2026-04-11T07:22:35.336Z</time></trkpt><trkpt lat="38.170446" lon="15.7918751"><ele>800.0</ele><time>2026-04-11T07:22:36.335Z</time></trkpt><trkpt lat="38.1705027" lon="15.7917867"><ele>800.0</ele><time>2026-04-11T07:22:37.335Z</time></trkpt><trkpt lat="38.1705658" lon="15.7916969"><ele>800.0</ele><time>2026-04-11T07:22:38.336Z</time></trkpt><trkpt lat="38.1706414" lon="15.7916137"><ele>800.0</ele><time>2026-04-11T07:22:39.336Z</time></trkpt><trkpt lat="38.17071" lon="15.7915189"><ele>800.2</ele><time>2026-04-11T07:22:40.336Z</time></trkpt><trkpt lat="38.1707661" lon="15.7914176"><ele>800.4</ele><time>2026-04-11T07:22:41.335Z</time></trkpt><trkpt lat="38.1708099" lon="15.7913056"><ele>800.5999999999999</ele><time>2026-04-11T07:22:42.335Z</time></trkpt><trkpt lat="38.1708542" lon="15.7911904"><ele>800.8</ele><time>2026-04-11T07:22:43.336Z</time></trkpt><trkpt lat="38.1709082" lon="15.7910835"><ele>801.0</ele><time>2026-04-11T07:22:44.335Z</time></trkpt><trkpt lat="38.1709842" lon="15.7910006"><ele>797.4</ele><time>2026-04-11T07:22:45.336Z</time></trkpt><trkpt lat="38.1710841" lon="15.790944"><ele>793.8</ele><time>2026-04-11T07:22:46.336Z</time></trkpt><trkpt lat="38.1711902" lon="15.7908958"><ele>790.1999999999999</ele><time>2026-04-11T07:22:47.336Z</time></trkpt><trkpt lat="38.1712965" lon="15.790863"><ele>786.5999999999999</ele><time>2026-04-11T07:22:48.336Z</time></trkpt><trkpt lat="38.1714004" lon="15.7908277"><ele>783.0</ele><time>2026-04-11T07:22:49.335Z</time></trkpt><trkpt lat="38.1714917" lon="15.7907908"><ele>788.4</ele><time>2026-04-11T07:22:50.335Z</time></trkpt><trkpt lat="38.171585" lon="15.7907384"><ele>793.8</ele><time>2026-04-11T07:22:51.335Z</time></trkpt><trkpt lat="38.171662" lon="15.7906623"><ele>799.2</ele><time>2026-04-11T07:22:52.335Z</time></trkpt><trkpt lat="38.1717239" lon="15.7905598"><ele>804.6</ele><time>2026-04-11T07:22:53.336Z</time></trkpt><trkpt lat="38.1717672" lon="15.7904383"><ele>810.0</ele><time>2026-04-11T07:22:54.335Z</time></trkpt><trkpt lat="38.1718031" lon="15.7903209"><ele>810.0</ele><time>2026-04-11T07:22:55.335Z</time></trkpt><trkpt lat="38.1718453" lon="15.7902166"><ele>810.0</ele><time>2026-04-11T07:22:56.335Z</time></trkpt><trkpt lat="38.1719105" lon="15.7901285"><ele>810.0</ele><time>2026-04-11T07:22:57.336Z</time></trkpt><trkpt lat="38.1719827" lon="15.7900524"><ele>810.0</ele><time>2026-04-11T07:22:58.335Z</time></trkpt><trkpt lat="38.1720721" lon="15.7900014"><ele>810.0</ele><time>2026-04-11T07:22:59.335Z</time></trkpt><trkpt lat="38.1721601" lon="15.7899581"><ele>811.4</ele><time>2026-04-11T07:23:00.335Z</time></trkpt><trkpt lat="38.1722539" lon="15.7899245"><ele>812.8</ele><time>2026-04-11T07:23:01.335Z</time></trkpt><trkpt lat="38.1723491" lon="15.7898903"><ele>814.2</ele><time>2026-04-11T07:23:02.335Z</time></trkpt><trkpt lat="38.1724488" lon="15.7898475"><ele>815.6</ele><time>2026-04-11T07:23:03.336Z</time></trkpt><trkpt lat="38.1725474" lon="15.7898034"><ele>817.0</ele><time>2026-04-11T07:23:04.336Z</time></trkpt><trkpt lat="38.1726484" lon="15.7897704"><ele>817.0</ele><time>2026-04-11T07:23:05.336Z</time></trkpt><trkpt lat="38.172755" lon="15.7897712"><ele>817.0</ele><time>2026-04-11T07:23:06.336Z</time></trkpt><trkpt lat="38.172865" lon="15.7897888"><ele>817.0</ele><time>2026-04-11T07:23:07.335Z</time></trkpt><trkpt lat="38.1729653" lon="15.7897922"><ele>817.0</ele><time>2026-04-11T07:23:08.335Z</time></trkpt><trkpt lat="38.1730639" lon="15.7897854"><ele>817.0</ele><time>2026-04-11T07:23:09.335Z</time></trkpt><trkpt lat="38.1731528" lon="15.789782"><ele>819.9999999999999</ele><time>2026-04-11T07:23:10.335Z</time></trkpt><trkpt lat="38.1732313" lon="15.7897822"><ele>823.0</ele><time>2026-04-11T07:23:11.336Z</time></trkpt><trkpt lat="38.1733001" lon="15.7897992"><ele>826.0</ele><time>2026-04-11T07:23:12.335Z</time></trkpt><trkpt lat="38.173369" lon="15.7898322"><ele>829.0</ele><time>2026-04-11T07:23:13.335Z</time></trkpt><trkpt lat="38.1734317" lon="15.7898751"><ele>832.0</ele><time>2026-04-11T07:23:14.335Z</time></trkpt><trkpt lat="38.1734856" lon="15.7899215"><ele>834.9999999999999</ele><time>2026-04-11T07:23:15.336Z</time></trkpt><trkpt lat="38.1735481" lon="15.789949"><ele>838.0</ele><time>2026-04-11T07:23:16.335Z</time></trkpt><trkpt lat="38.1736095" lon="15.7899311"><ele>837.9999999999999</ele><time>2026-04-11T07:23:17.335Z</time></trkpt><trkpt lat="38.1736662" lon="15.7898784"><ele>838.0</ele><time>2026-04-11T07:23:18.336Z</time></trkpt><trkpt lat="38.1737029" lon="15.7897958"><ele>838.0</ele><time>2026-04-11T07:23:19.335Z</time></trkpt><trkpt lat="38.1737152" lon="15.7896897"><ele>838.0</ele><time>2026-04-11T07:23:20.335Z</time></trkpt><trkpt lat="38.1737255" lon="15.7895616"><ele>837.9999999999999</ele><time>2026-04-11T07:23:21.335Z</time></trkpt><trkpt lat="38.1737549" lon="15.7894197"><ele>838.0</ele><time>2026-04-11T07:23:22.335Z</time></trkpt><trkpt lat="38.1737977" lon="15.7892857"><ele>839.4</ele><time>2026-04-11T07:23:23.335Z</time></trkpt><trkpt lat="38.1738347" lon="15.7891499"><ele>840.8</ele><time>2026-04-11T07:23:24.335Z</time></trkpt><trkpt lat="38.1738741" lon="15.7890192"><ele>842.2</ele><time>2026-04-11T07:23:25.335Z</time></trkpt><trkpt lat="38.1739249" lon="15.7888994"><ele>843.6</ele><time>2026-04-11T07:23:26.336Z</time></trkpt><trkpt lat="38.1739819" lon="15.7887885"><ele>845.0</ele><time>2026-04-11T07:23:27.335Z</time></trkpt><trkpt lat="38.1740417" lon="15.7886778"><ele>845.0</ele><time>2026-04-11T07:23:28.335Z</time></trkpt><trkpt lat="38.1741104" lon="15.7885651"><ele>845.0</ele><time>2026-04-11T07:23:29.336Z</time></trkpt><trkpt lat="38.1741749" lon="15.7884546"><ele>845.0</ele><time>2026-04-11T07:23:30.336Z</time></trkpt><trkpt lat="38.1742346" lon="15.7883423"><ele>845.0</ele><time>2026-04-11T07:23:31.335Z</time></trkpt><trkpt lat="38.1742937" lon="15.7882218"><ele>845.0</ele><time>2026-04-11T07:23:32.335Z</time></trkpt><trkpt lat="38.1743446" lon="15.788107"><ele>843.6</ele><time>2026-04-11T07:23:33.335Z</time></trkpt><trkpt lat="38.1743886" lon="15.7879833"><ele>842.2</ele><time>2026-04-11T07:23:34.335Z</time></trkpt><trkpt lat="38.1744301" lon="15.7878554"><ele>840.8</ele><time>2026-04-11T07:23:35.335Z</time></trkpt><trkpt lat="38.1744706" lon="15.7877286"><ele>839.4</ele><time>2026-04-11T07:23:36.336Z</time></trkpt><trkpt lat="38.1745199" lon="15.7876044"><ele>838.0</ele><time>2026-04-11T07:23:37.335Z</time></trkpt><trkpt lat="38.1745716" lon="15.7874788"><ele>836.0</ele><time>2026-04-11T07:23:38.335Z</time></trkpt><trkpt lat="38.1746281" lon="15.7873581"><ele>834.0</ele><time>2026-04-11T07:23:39.335Z</time></trkpt><trkpt lat="38.1746867" lon="15.7872427"><ele>832.0</ele><time>2026-04-11T07:23:40.335Z</time></trkpt><trkpt lat="38.1747405" lon="15.7871191"><ele>830.0</ele><time>2026-04-11T07:23:41.335Z</time></trkpt><trkpt lat="38.1748039" lon="15.787006"><ele>828.0</ele><time>2026-04-11T07:23:42.335Z</time></trkpt><trkpt lat="38.1748685" lon="15.786902"><ele>831.8</ele><time>2026-04-11T07:23:43.335Z</time></trkpt><trkpt lat="38.1749449" lon="15.7868004"><ele>835.5999999999999</ele><time>2026-04-11T07:23:44.335Z</time></trkpt><trkpt lat="38.1750179" lon="15.786708"><ele>839.4000000000001</ele><time>2026-04-11T07:23:45.336Z</time></trkpt><trkpt lat="38.1750945" lon="15.7866087"><ele>843.2</ele><time>2026-04-11T07:23:46.336Z</time></trkpt><trkpt lat="38.1751659" lon="15.7865022"><ele>847.0</ele><time>2026-04-11T07:23:47.335Z</time></trkpt><trkpt lat="38.1752416" lon="15.7863962"><ele>847.0</ele><time>2026-04-11T07:23:48.335Z</time></trkpt><trkpt lat="38.1753236" lon="15.786295"><ele>847.0</ele><time>2026-04-11T07:23:49.335Z</time></trkpt><trkpt lat="38.1754026" lon="15.7861875"><ele>847.0</ele><time>2026-04-11T07:23:50.336Z</time></trkpt><trkpt lat="38.1754793" lon="15.7860864"><ele>847.0</ele><time>2026-04-11T07:23:51.335Z</time></trkpt><trkpt lat="38.1755588" lon="15.7859876"><ele>845.6</ele><time>2026-04-11T07:23:52.336Z</time></trkpt><trkpt lat="38.1756377" lon="15.7858972"><ele>844.2</ele><time>2026-04-11T07:23:53.335Z</time></trkpt><trkpt lat="38.1757204" lon="15.785826"><ele>842.8</ele><time>2026-04-11T07:23:54.336Z</time></trkpt><trkpt lat="38.1758001" lon="15.7857722"><ele>841.4</ele><time>2026-04-11T07:23:55.335Z</time></trkpt><trkpt lat="38.1758843" lon="15.7857305"><ele>840.0</ele><time>2026-04-11T07:23:56.335Z</time></trkpt><trkpt lat="38.1759605" lon="15.7857083"><ele>843.0</ele><time>2026-04-11T07:23:57.335Z</time></trkpt><trkpt lat="38.1760337" lon="15.785718"><ele>846.0</ele><time>2026-04-11T07:23:58.336Z</time></trkpt><trkpt lat="38.1761128" lon="15.7858066"><ele>849.0</ele><time>2026-04-11T07:24:00.335Z</time></trkpt><trkpt lat="38.1761086" lon="15.7858867"><ele>852.0</ele><time>2026-04-11T07:24:01.335Z</time></trkpt><trkpt lat="38.1760736" lon="15.7859814"><ele>855.0</ele><time>2026-04-11T07:24:02.335Z</time></trkpt><trkpt lat="38.1760066" lon="15.7860941"><ele>858.0</ele><time>2026-04-11T07:24:03.335Z</time></trkpt><trkpt lat="38.1759401" lon="15.7862067"><ele>859.5999999999999</ele><time>2026-04-11T07:24:04.335Z</time></trkpt><trkpt lat="38.1758832" lon="15.7863171"><ele>861.1999999999999</ele><time>2026-04-11T07:24:05.335Z</time></trkpt><trkpt lat="38.1758275" lon="15.7864253"><ele>862.8</ele><time>2026-04-11T07:24:06.336Z</time></trkpt><trkpt lat="38.1757781" lon="15.7865426"><ele>864.4</ele><time>2026-04-11T07:24:07.335Z</time></trkpt><trkpt lat="38.1757457" lon="15.7866628"><ele>866.0</ele><time>2026-04-11T07:24:08.335Z</time></trkpt><trkpt lat="38.1757188" lon="15.786779"><ele>864.5999999999999</ele><time>2026-04-11T07:24:09.335Z</time></trkpt><trkpt lat="38.1756953" lon="15.7868963"><ele>863.1999999999999</ele><time>2026-04-11T07:24:10.336Z</time></trkpt><trkpt lat="38.175661" lon="15.7870136"><ele>861.8000000000001</ele><time>2026-04-11T07:24:11.336Z</time></trkpt><trkpt lat="38.1756271" lon="15.7871329"><ele>860.4000000000001</ele><time>2026-04-11T07:24:12.335Z</time></trkpt><trkpt lat="38.1755907" lon="15.7872575"><ele>859.0</ele><time>2026-04-11T07:24:13.335Z</time></trkpt><trkpt lat="38.1755553" lon="15.7873862"><ele>859.0</ele><time>2026-04-11T07:24:14.335Z</time></trkpt><trkpt lat="38.1755173" lon="15.7875179"><ele>859.0</ele><time>2026-04-11T07:24:15.336Z</time></trkpt><trkpt lat="38.1754844" lon="15.7876614"><ele>859.0</ele><time>2026-04-11T07:24:16.335Z</time></trkpt><trkpt lat="38.1754456" lon="15.7877988"><ele>859.0</ele><time>2026-04-11T07:24:17.335Z</time></trkpt><trkpt lat="38.1754095" lon="15.7879335"><ele>860.8000000000001</ele><time>2026-04-11T07:24:18.335Z</time></trkpt><trkpt lat="38.1753836" lon="15.7880759"><ele>862.6000000000001</ele><time>2026-04-11T07:24:19.335Z</time></trkpt><trkpt lat="38.1753543" lon="15.7882136"><ele>864.4</ele><time>2026-04-11T07:24:20.335Z</time></trkpt><trkpt lat="38.1753292" lon="15.7883504"><ele>866.2</ele><time>2026-04-11T07:24:21.335Z</time></trkpt><trkpt lat="38.175298" lon="15.7884869"><ele>868.0</ele><time>2026-04-11T07:24:22.336Z</time></trkpt><trkpt lat="38.1752636" lon="15.7886247"><ele>870.75</ele><time>2026-04-11T07:24:23.336Z</time></trkpt><trkpt lat="38.1752379" lon="15.7887667"><ele>873.5</ele><time>2026-04-11T07:24:24.336Z</time></trkpt><trkpt lat="38.175207" lon="15.7889081"><ele>876.25</ele><time>2026-04-11T07:24:25.336Z</time></trkpt><trkpt lat="38.1751752" lon="15.7890451"><ele>879.0</ele><time>2026-04-11T07:24:26.335Z</time></trkpt><trkpt lat="38.1751503" lon="15.7891819"><ele>879.0</ele><time>2026-04-11T07:24:27.335Z</time></trkpt><trkpt lat="38.1751274" lon="15.7893173"><ele>879.0000000000001</ele><time>2026-04-11T07:24:28.335Z</time></trkpt><trkpt lat="38.1751059" lon="15.7894414"><ele>879.0000000000001</ele><time>2026-04-11T07:24:29.335Z</time></trkpt><trkpt lat="38.1750751" lon="15.7895583"><ele>879.0</ele><time>2026-04-11T07:24:30.336Z</time></trkpt><trkpt lat="38.1750239" lon="15.7896653"><ele>879.0</ele><time>2026-04-11T07:24:31.335Z</time></trkpt><trkpt lat="38.1749612" lon="15.7897528"><ele>878.8000000000001</ele><time>2026-04-11T07:24:32.335Z</time></trkpt><trkpt lat="38.1748924" lon="15.7898525"><ele>878.6000000000001</ele><time>2026-04-11T07:24:33.335Z</time></trkpt><trkpt lat="38.1748364" lon="15.7899638"><ele>878.4</ele><time>2026-04-11T07:24:34.336Z</time></trkpt><trkpt lat="38.1747984" lon="15.790085"><ele>878.2</ele><time>2026-04-11T07:24:35.335Z</time></trkpt><trkpt lat="38.1747785" lon="15.790217"><ele>878.0</ele><time>2026-04-11T07:24:36.336Z</time></trkpt><trkpt lat="38.1747702" lon="15.7903496"><ele>878.0</ele><time>2026-04-11T07:24:37.335Z</time></trkpt><trkpt lat="38.1747748" lon="15.7904867"><ele>878.0</ele><time>2026-04-11T07:24:38.335Z</time></trkpt><trkpt lat="38.1747758" lon="15.7906224"><ele>878.0</ele><time>2026-04-11T07:24:39.335Z</time></trkpt><trkpt lat="38.1747779" lon="15.7907434"><ele>878.0</ele><time>2026-04-11T07:24:40.335Z</time></trkpt><trkpt lat="38.1747667" lon="15.790853"><ele>878.0</ele><time>2026-04-11T07:24:41.335Z</time></trkpt><trkpt lat="38.1747378" lon="15.7909537"><ele>881.0000000000001</ele><time>2026-04-11T07:24:42.335Z</time></trkpt><trkpt lat="38.1746849" lon="15.7910491"><ele>884.0</ele><time>2026-04-11T07:24:43.335Z</time></trkpt><trkpt lat="38.1746201" lon="15.7911263"><ele>887.0</ele><time>2026-04-11T07:24:44.335Z</time></trkpt><trkpt lat="38.1745565" lon="15.7912045"><ele>890.0</ele><time>2026-04-11T07:24:45.335Z</time></trkpt><trkpt lat="38.1744971" lon="15.7912865"><ele>893.0000000000001</ele><time>2026-04-11T07:24:46.336Z</time></trkpt><trkpt lat="38.1744435" lon="15.7913764"><ele>896.0</ele><time>2026-04-11T07:24:47.335Z</time></trkpt><trkpt lat="38.174402" lon="15.7914783"><ele>896.0</ele><time>2026-04-11T07:24:48.335Z</time></trkpt><trkpt lat="38.1743744" lon="15.791585"><ele>895.9999999999999</ele><time>2026-04-11T07:24:49.336Z</time></trkpt><trkpt lat="38.1743627" lon="15.7917022"><ele>895.9999999999999</ele><time>2026-04-11T07:24:50.335Z</time></trkpt><trkpt lat="38.1743583" lon="15.7918319"><ele>896.0</ele><time>2026-04-11T07:24:51.335Z</time></trkpt><trkpt lat="38.1743503" lon="15.791962"><ele>896.0</ele><time>2026-04-11T07:24:52.336Z</time></trkpt><trkpt lat="38.1743425" lon="15.7921013"><ele>898.0</ele><time>2026-04-11T07:24:53.335Z</time></trkpt><trkpt lat="38.1743317" lon="15.7922433"><ele>899.9999999999999</ele><time>2026-04-11T07:24:54.335Z</time></trkpt><trkpt lat="38.1743209" lon="15.7923825"><ele>901.9999999999999</ele><time>2026-04-11T07:24:55.335Z</time></trkpt><trkpt lat="38.174295" lon="15.7925181"><ele>904.0</ele><time>2026-04-11T07:24:56.336Z</time></trkpt><trkpt lat="38.1742556" lon="15.7926548"><ele>906.0</ele><time>2026-04-11T07:24:57.335Z</time></trkpt><trkpt lat="38.1741938" lon="15.7927851"><ele>903.0</ele><time>2026-04-11T07:24:58.335Z</time></trkpt><trkpt lat="38.1741143" lon="15.7928964"><ele>900.0</ele><time>2026-04-11T07:24:59.335Z</time></trkpt><trkpt lat="38.1740312" lon="15.7929885"><ele>897.0</ele><time>2026-04-11T07:25:00.335Z</time></trkpt><trkpt lat="38.1739473" lon="15.7930832"><ele>894.0</ele><time>2026-04-11T07:25:01.335Z</time></trkpt><trkpt lat="38.1738691" lon="15.7931816"><ele>894.0</ele><time>2026-04-11T07:25:02.335Z</time></trkpt><trkpt lat="38.1738135" lon="15.793306"><ele>894.0</ele><time>2026-04-11T07:25:03.336Z</time></trkpt><trkpt lat="38.1737706" lon="15.7934446"><ele>894.0</ele><time>2026-04-11T07:25:04.335Z</time></trkpt><trkpt lat="38.17373" lon="15.7935754"><ele>894.0</ele><time>2026-04-11T07:25:05.336Z</time></trkpt><trkpt lat="38.1736833" lon="15.7937042"><ele>897.4000000000001</ele><time>2026-04-11T07:25:06.335Z</time></trkpt><trkpt lat="38.1736403" lon="15.7938321"><ele>900.8000000000001</ele><time>2026-04-11T07:25:07.336Z</time></trkpt><trkpt lat="38.1735908" lon="15.7939573"><ele>904.1999999999999</ele><time>2026-04-11T07:25:08.335Z</time></trkpt><trkpt lat="38.1735419" lon="15.7940769"><ele>907.5999999999999</ele><time>2026-04-11T07:25:09.336Z</time></trkpt><trkpt lat="38.1735013" lon="15.7942035"><ele>911.0</ele><time>2026-04-11T07:25:10.335Z</time></trkpt><trkpt lat="38.1734655" lon="15.7943329"><ele>914.4</ele><time>2026-04-11T07:25:11.335Z</time></trkpt><trkpt lat="38.1734178" lon="15.7944582"><ele>917.8</ele><time>2026-04-11T07:25:12.335Z</time></trkpt><trkpt lat="38.1733799" lon="15.7945917"><ele>921.1999999999999</ele><time>2026-04-11T07:25:13.335Z</time></trkpt><trkpt lat="38.1733395" lon="15.7947223"><ele>924.5999999999999</ele><time>2026-04-11T07:25:14.335Z</time></trkpt><trkpt lat="38.1732931" lon="15.7948502"><ele>928.0</ele><time>2026-04-11T07:25:15.335Z</time></trkpt><trkpt lat="38.1732504" lon="15.7949783"><ele>928.0</ele><time>2026-04-11T07:25:16.336Z</time></trkpt><trkpt lat="38.1732029" lon="15.7951039"><ele>928.0</ele><time>2026-04-11T07:25:17.335Z</time></trkpt><trkpt lat="38.173157" lon="15.7952316"><ele>928.0</ele><time>2026-04-11T07:25:18.335Z</time></trkpt><trkpt lat="38.1731134" lon="15.7953601"><ele>928.0</ele><time>2026-04-11T07:25:19.335Z</time></trkpt><trkpt lat="38.1730718" lon="15.7954886"><ele>928.0</ele><time>2026-04-11T07:25:20.336Z</time></trkpt><trkpt lat="38.1730318" lon="15.7956199"><ele>925.4</ele><time>2026-04-11T07:25:21.335Z</time></trkpt><trkpt lat="38.1730023" lon="15.7957471"><ele>922.8</ele><time>2026-04-11T07:25:22.335Z</time></trkpt><trkpt lat="38.1729977" lon="15.7958776"><ele>920.2</ele><time>2026-04-11T07:25:23.335Z</time></trkpt><trkpt lat="38.1730247" lon="15.796017"><ele>917.6</ele><time>2026-04-11T07:25:24.335Z</time></trkpt><trkpt lat="38.1730655" lon="15.7961539"><ele>915.0</ele><time>2026-04-11T07:25:25.335Z</time></trkpt><trkpt lat="38.1731055" lon="15.7962823"><ele>915.0</ele><time>2026-04-11T07:25:26.335Z</time></trkpt><trkpt lat="38.1731261" lon="15.7964127"><ele>915.0</ele><time>2026-04-11T07:25:27.336Z</time></trkpt><trkpt lat="38.1731315" lon="15.7965474"><ele>915.0</ele><time>2026-04-11T07:25:28.335Z</time></trkpt><trkpt lat="38.1731283" lon="15.7966785"><ele>915.0</ele><time>2026-04-11T07:25:29.335Z</time></trkpt><trkpt lat="38.1731109" lon="15.7968186"><ele>915.0</ele><time>2026-04-11T07:25:30.336Z</time></trkpt><trkpt lat="38.1730885" lon="15.7969604"><ele>916.6</ele><time>2026-04-11T07:25:31.335Z</time></trkpt><trkpt lat="38.1730614" lon="15.7971073"><ele>918.2</ele><time>2026-04-11T07:25:32.335Z</time></trkpt><trkpt lat="38.1730231" lon="15.7972512"><ele>919.8</ele><time>2026-04-11T07:25:33.336Z</time></trkpt><trkpt lat="38.1729805" lon="15.7973799"><ele>921.4</ele><time>2026-04-11T07:25:34.335Z</time></trkpt><trkpt lat="38.1729316" lon="15.797484"><ele>923.0</ele><time>2026-04-11T07:25:35.335Z</time></trkpt><trkpt lat="38.1728676" lon="15.7975788"><ele>923.0000000000001</ele><time>2026-04-11T07:25:36.335Z</time></trkpt><trkpt lat="38.1728092" lon="15.7976642"><ele>923.0</ele><time>2026-04-11T07:25:37.335Z</time></trkpt><trkpt lat="38.1727537" lon="15.7977483"><ele>923.0</ele><time>2026-04-11T07:25:38.335Z</time></trkpt><trkpt lat="38.1727123" lon="15.797823"><ele>923.0</ele><time>2026-04-11T07:25:39.335Z</time></trkpt><trkpt lat="38.1726999" lon="15.7979096"><ele>923.0000000000001</ele><time>2026-04-11T07:25:40.336Z</time></trkpt><trkpt lat="38.1727156" lon="15.7979875"><ele>923.0</ele><time>2026-04-11T07:25:41.335Z</time></trkpt><trkpt lat="38.1728423" lon="15.7980037"><ele>923.0</ele><time>2026-04-11T07:25:43.335Z</time></trkpt><trkpt lat="38.1729162" lon="15.7979478"><ele>923.0</ele><time>2026-04-11T07:25:44.335Z</time></trkpt><trkpt lat="38.1729821" lon="15.79786"><ele>923.0</ele><time>2026-04-11T07:25:45.335Z</time></trkpt><trkpt lat="38.1730419" lon="15.7977538"><ele>923.0</ele><time>2026-04-11T07:25:46.335Z</time></trkpt><trkpt lat="38.1731066" lon="15.7976408"><ele>923.0</ele><time>2026-04-11T07:25:47.335Z</time></trkpt><trkpt lat="38.1731788" lon="15.7975325"><ele>928.4</ele><time>2026-04-11T07:25:48.335Z</time></trkpt><trkpt lat="38.1732458" lon="15.7974355"><ele>933.8</ele><time>2026-04-11T07:25:49.335Z</time></trkpt><trkpt lat="38.1733022" lon="15.7973413"><ele>939.2</ele><time>2026-04-11T07:25:50.335Z</time></trkpt><trkpt lat="38.1733552" lon="15.7972486"><ele>944.6</ele><time>2026-04-11T07:25:51.336Z</time></trkpt><trkpt lat="38.1734094" lon="15.7971628"><ele>950.0</ele><time>2026-04-11T07:25:52.335Z</time></trkpt><trkpt lat="38.1734616" lon="15.7970849"><ele>950.0</ele><time>2026-04-11T07:25:53.335Z</time></trkpt><trkpt lat="38.173513" lon="15.797001"><ele>950.0</ele><time>2026-04-11T07:25:54.335Z</time></trkpt><trkpt lat="38.1735614" lon="15.7969112"><ele>950.0</ele><time>2026-04-11T07:25:55.335Z</time></trkpt><trkpt lat="38.1736003" lon="15.7968023"><ele>950.0</ele><time>2026-04-11T07:25:56.336Z</time></trkpt><trkpt lat="38.1736337" lon="15.7966906"><ele>950.0</ele><time>2026-04-11T07:25:57.335Z</time></trkpt><trkpt lat="38.1736727" lon="15.7965666"><ele>948.8</ele><time>2026-04-11T07:25:58.335Z</time></trkpt><trkpt lat="38.1737132" lon="15.7964286"><ele>947.6</ele><time>2026-04-11T07:25:59.335Z</time></trkpt><trkpt lat="38.1737481" lon="15.7962968"><ele>946.4000000000001</ele><time>2026-04-11T07:26:00.335Z</time></trkpt><trkpt lat="38.1737817" lon="15.7961689"><ele>945.2</ele><time>2026-04-11T07:26:01.336Z</time></trkpt><trkpt lat="38.1738121" lon="15.7960483"><ele>944.0</ele><time>2026-04-11T07:26:02.336Z</time></trkpt><trkpt lat="38.1738421" lon="15.7959285"><ele>943.6</ele><time>2026-04-11T07:26:03.335Z</time></trkpt><trkpt lat="38.1738811" lon="15.7958127"><ele>943.2</ele><time>2026-04-11T07:26:04.335Z</time></trkpt><trkpt lat="38.1739198" lon="15.7956871"><ele>942.8000000000001</ele><time>2026-04-11T07:26:05.335Z</time></trkpt><trkpt lat="38.1739601" lon="15.7955622"><ele>942.4000000000001</ele><time>2026-04-11T07:26:06.335Z</time></trkpt><trkpt lat="38.1740057" lon="15.7954365"><ele>942.0</ele><time>2026-04-11T07:26:07.335Z</time></trkpt><trkpt lat="38.1740555" lon="15.7953109"><ele>947.4000000000001</ele><time>2026-04-11T07:26:08.336Z</time></trkpt><trkpt lat="38.1741016" lon="15.7952102"><ele>952.8000000000001</ele><time>2026-04-11T07:26:09.336Z</time></trkpt><trkpt lat="38.1741585" lon="15.7951436"><ele>958.2</ele><time>2026-04-11T07:26:10.335Z</time></trkpt><trkpt lat="38.1742514" lon="15.7951426"><ele>963.6</ele><time>2026-04-11T07:26:12.335Z</time></trkpt><trkpt lat="38.1742497" lon="15.7952926"><ele>969.0</ele><time>2026-04-11T07:26:14.335Z</time></trkpt><trkpt lat="38.1742285" lon="15.7953991"><ele>969.4000000000001</ele><time>2026-04-11T07:26:15.335Z</time></trkpt><trkpt lat="38.1741979" lon="15.7955269"><ele>969.8000000000001</ele><time>2026-04-11T07:26:16.335Z</time></trkpt><trkpt lat="38.1741752" lon="15.7956703"><ele>970.1999999999999</ele><time>2026-04-11T07:26:17.336Z</time></trkpt><trkpt lat="38.1741616" lon="15.795814"><ele>970.5999999999999</ele><time>2026-04-11T07:26:18.336Z</time></trkpt><trkpt lat="38.1741562" lon="15.795956"><ele>971.0</ele><time>2026-04-11T07:26:19.335Z</time></trkpt><trkpt lat="38.1741535" lon="15.7960892"><ele>971.1999999999999</ele><time>2026-04-11T07:26:20.335Z</time></trkpt><trkpt lat="38.1741547" lon="15.7962327"><ele>971.3999999999999</ele><time>2026-04-11T07:26:21.335Z</time></trkpt><trkpt lat="38.1741547" lon="15.7963763"><ele>971.6</ele><time>2026-04-11T07:26:22.336Z</time></trkpt><trkpt lat="38.1741532" lon="15.7965153"><ele>971.8</ele><time>2026-04-11T07:26:23.335Z</time></trkpt><trkpt lat="38.1741578" lon="15.7966385"><ele>972.0</ele><time>2026-04-11T07:26:24.336Z</time></trkpt><trkpt lat="38.1741719" lon="15.7967571"><ele>972.6</ele><time>2026-04-11T07:26:25.335Z</time></trkpt><trkpt lat="38.1741992" lon="15.7968716"><ele>973.2</ele><time>2026-04-11T07:26:26.336Z</time></trkpt><trkpt lat="38.1742421" lon="15.7969814"><ele>973.8</ele><time>2026-04-11T07:26:27.336Z</time></trkpt><trkpt lat="38.1743053" lon="15.7970814"><ele>974.4</ele><time>2026-04-11T07:26:28.335Z</time></trkpt><trkpt lat="38.1743752" lon="15.797179"><ele>975.0</ele><time>2026-04-11T07:26:29.336Z</time></trkpt><trkpt lat="38.1744447" lon="15.7972694"><ele>975.0</ele><time>2026-04-11T07:26:30.335Z</time></trkpt><trkpt lat="38.174509" lon="15.7973798"><ele>975.0</ele><time>2026-04-11T07:26:31.336Z</time></trkpt><trkpt lat="38.1745513" lon="15.7975037"><ele>975.0</ele><time>2026-04-11T07:26:32.336Z</time></trkpt><trkpt lat="38.1745704" lon="15.7976409"><ele>975.0</ele><time>2026-04-11T07:26:33.335Z</time></trkpt><trkpt lat="38.1745705" lon="15.7977837"><ele>975.0</ele><time>2026-04-11T07:26:34.335Z</time></trkpt><trkpt lat="38.174558" lon="15.7979267"><ele>975.75</ele><time>2026-04-11T07:26:35.335Z</time></trkpt><trkpt lat="38.1745479" lon="15.7980739"><ele>976.5</ele><time>2026-04-11T07:26:36.335Z</time></trkpt><trkpt lat="38.1745437" lon="15.7982247"><ele>977.25</ele><time>2026-04-11T07:26:37.335Z</time></trkpt><trkpt lat="38.1745306" lon="15.7983751"><ele>978.0</ele><time>2026-04-11T07:26:38.335Z</time></trkpt><trkpt lat="38.1745196" lon="15.7985174"><ele>978.8</ele><time>2026-04-11T07:26:39.335Z</time></trkpt><trkpt lat="38.1745089" lon="15.7986539"><ele>979.5999999999999</ele><time>2026-04-11T07:26:40.335Z</time></trkpt><trkpt lat="38.1745019" lon="15.798786"><ele>980.4000000000001</ele><time>2026-04-11T07:26:41.335Z</time></trkpt><trkpt lat="38.1745017" lon="15.7989221"><ele>981.2</ele><time>2026-04-11T07:26:42.335Z</time></trkpt><trkpt lat="38.1745105" lon="15.7990515"><ele>982.0</ele><time>2026-04-11T07:26:43.335Z</time></trkpt><trkpt lat="38.1745329" lon="15.7991789"><ele>982.0</ele><time>2026-04-11T07:26:44.335Z</time></trkpt><trkpt lat="38.1745609" lon="15.7993042"><ele>982.0</ele><time>2026-04-11T07:26:45.335Z</time></trkpt><trkpt lat="38.1745907" lon="15.7994214"><ele>982.0</ele><time>2026-04-11T07:26:46.335Z</time></trkpt><trkpt lat="38.174621" lon="15.7995343"><ele>982.0</ele><time>2026-04-11T07:26:47.336Z</time></trkpt><trkpt lat="38.1746496" lon="15.7996586"><ele>982.0</ele><time>2026-04-11T07:26:48.336Z</time></trkpt><trkpt lat="38.1746766" lon="15.7997861"><ele>983.75</ele><time>2026-04-11T07:26:49.336Z</time></trkpt><trkpt lat="38.1746947" lon="15.7999285"><ele>985.5</ele><time>2026-04-11T07:26:50.336Z</time></trkpt><trkpt lat="38.1746951" lon="15.8000723"><ele>987.25</ele><time>2026-04-11T07:26:51.336Z</time></trkpt><trkpt lat="38.1746733" lon="15.8002464"><ele>989.0</ele><time>2026-04-11T07:26:52.335Z</time></trkpt><trkpt lat="38.1746634" lon="15.8003845"><ele>990.4000000000001</ele><time>2026-04-11T07:26:53.335Z</time></trkpt><trkpt lat="38.1746447" lon="15.800528"><ele>991.8000000000001</ele><time>2026-04-11T07:26:54.335Z</time></trkpt><trkpt lat="38.1746289" lon="15.8006743"><ele>993.1999999999999</ele><time>2026-04-11T07:26:55.335Z</time></trkpt><trkpt lat="38.1746199" lon="15.8008171"><ele>994.5999999999999</ele><time>2026-04-11T07:26:56.335Z</time></trkpt><trkpt lat="38.1746113" lon="15.8009516"><ele>996.0</ele><time>2026-04-11T07:26:57.335Z</time></trkpt><trkpt lat="38.1746037" lon="15.8010804"><ele>997.1999999999999</ele><time>2026-04-11T07:26:58.335Z</time></trkpt><trkpt lat="38.174594" lon="15.8012121"><ele>998.3999999999999</ele><time>2026-04-11T07:26:59.335Z</time></trkpt><trkpt lat="38.1745841" lon="15.8013469"><ele>999.6</ele><time>2026-04-11T07:27:00.335Z</time></trkpt><trkpt lat="38.1745611" lon="15.8014786"><ele>1000.8</ele><time>2026-04-11T07:27:01.335Z</time></trkpt><trkpt lat="38.1745395" lon="15.8016277"><ele>1002.0</ele><time>2026-04-11T07:27:02.335Z</time></trkpt><trkpt lat="38.1745098" lon="15.8017727"><ele>1003.5</ele><time>2026-04-11T07:27:03.336Z</time></trkpt><trkpt lat="38.1744694" lon="15.8019289"><ele>1005.0</ele><time>2026-04-11T07:27:04.335Z</time></trkpt><trkpt lat="38.1744124" lon="15.8020724"><ele>1006.5</ele><time>2026-04-11T07:27:05.335Z</time></trkpt><trkpt lat="38.1743512" lon="15.802206"><ele>1008.0</ele><time>2026-04-11T07:27:06.335Z</time></trkpt><trkpt lat="38.174289" lon="15.8023372"><ele>1008.0</ele><time>2026-04-11T07:27:07.335Z</time></trkpt><trkpt lat="38.174236" lon="15.8024603"><ele>1008.0</ele><time>2026-04-11T07:27:08.335Z</time></trkpt><trkpt lat="38.1741887" lon="15.8025721"><ele>1008.0</ele><time>2026-04-11T07:27:09.336Z</time></trkpt><trkpt lat="38.1741608" lon="15.8026795"><ele>1008.0</ele><time>2026-04-11T07:27:10.335Z</time></trkpt><trkpt lat="38.1741578" lon="15.8027837"><ele>1008.0</ele><time>2026-04-11T07:27:11.335Z</time></trkpt><trkpt lat="38.1741822" lon="15.8028934"><ele>1008.5999999999999</ele><time>2026-04-11T07:27:12.335Z</time></trkpt><trkpt lat="38.174231" lon="15.8029989"><ele>1009.1999999999999</ele><time>2026-04-11T07:27:13.335Z</time></trkpt><trkpt lat="38.1743063" lon="15.8030859"><ele>1009.8</ele><time>2026-04-11T07:27:14.335Z</time></trkpt><trkpt lat="38.1743794" lon="15.8031615"><ele>1010.4</ele><time>2026-04-11T07:27:15.335Z</time></trkpt><trkpt lat="38.1744665" lon="15.8032008"><ele>1011.0</ele><time>2026-04-11T07:27:16.335Z</time></trkpt><trkpt lat="38.1745704" lon="15.8031891"><ele>1011.0</ele><time>2026-04-11T07:27:17.335Z</time></trkpt><trkpt lat="38.1746734" lon="15.8031357"><ele>1010.9999999999999</ele><time>2026-04-11T07:27:18.336Z</time></trkpt><trkpt lat="38.1747571" lon="15.8030476"><ele>1010.9999999999999</ele><time>2026-04-11T07:27:19.335Z</time></trkpt><trkpt lat="38.1748239" lon="15.8029333"><ele>1011.0</ele><time>2026-04-11T07:27:20.335Z</time></trkpt><trkpt lat="38.1748843" lon="15.8028056"><ele>1011.0</ele><time>2026-04-11T07:27:21.336Z</time></trkpt><trkpt lat="38.1749493" lon="15.8026762"><ele>1014.0</ele><time>2026-04-11T07:27:22.336Z</time></trkpt><trkpt lat="38.1750207" lon="15.8025523"><ele>1017.0</ele><time>2026-04-11T07:27:23.335Z</time></trkpt><trkpt lat="38.1750817" lon="15.8024206"><ele>1020.0</ele><time>2026-04-11T07:27:24.335Z</time></trkpt><trkpt lat="38.1751341" lon="15.8022958"><ele>1023.0</ele><time>2026-04-11T07:27:25.335Z</time></trkpt><trkpt lat="38.1751918" lon="15.8021839"><ele>1023.0</ele><time>2026-04-11T07:27:26.335Z</time></trkpt><trkpt lat="38.175234" lon="15.8020769"><ele>1023.0</ele><time>2026-04-11T07:27:27.335Z</time></trkpt><trkpt lat="38.1752605" lon="15.8019678"><ele>1023.0</ele><time>2026-04-11T07:27:28.335Z</time></trkpt><trkpt lat="38.1752752" lon="15.8018595"><ele>1023.0</ele><time>2026-04-11T07:27:29.336Z</time></trkpt><trkpt lat="38.1752873" lon="15.8017524"><ele>1023.0</ele><time>2026-04-11T07:27:30.336Z</time></trkpt><trkpt lat="38.1752897" lon="15.8016493"><ele>1023.0</ele><time>2026-04-11T07:27:31.336Z</time></trkpt><trkpt lat="38.1752821" lon="15.8015323"><ele>1023.0</ele><time>2026-04-11T07:27:32.337Z</time></trkpt><trkpt lat="38.1752687" lon="15.8014185"><ele>1023.0</ele><time>2026-04-11T07:27:33.337Z</time></trkpt><trkpt lat="38.1752562" lon="15.8013034"><ele>1023.0</ele><time>2026-04-11T07:27:34.336Z</time></trkpt><trkpt lat="38.1752481" lon="15.8011893"><ele>1023.0</ele><time>2026-04-11T07:27:35.336Z</time></trkpt><trkpt lat="38.1752373" lon="15.8010744"><ele>1023.0</ele><time>2026-04-11T07:27:36.336Z</time></trkpt><trkpt lat="38.175226" lon="15.8009569"><ele>1023.0</ele><time>2026-04-11T07:27:37.336Z</time></trkpt><trkpt lat="38.1752184" lon="15.80085"><ele>1023.0</ele><time>2026-04-11T07:27:38.336Z</time></trkpt><trkpt lat="38.1752359" lon="15.8007433"><ele>1023.0</ele><time>2026-04-11T07:27:39.337Z</time></trkpt><trkpt lat="38.1752676" lon="15.8006399"><ele>1023.0</ele><time>2026-04-11T07:27:40.336Z</time></trkpt><trkpt lat="38.1753058" lon="15.8005379"><ele>1023.0</ele><time>2026-04-11T07:27:41.337Z</time></trkpt><trkpt lat="38.1753461" lon="15.8004402"><ele>1023.0</ele><time>2026-04-11T07:27:42.336Z</time></trkpt><trkpt lat="38.1753893" lon="15.8003332"><ele>1023.0</ele><time>2026-04-11T07:27:43.337Z</time></trkpt><trkpt lat="38.1754371" lon="15.800235"><ele>1023.0</ele><time>2026-04-11T07:27:44.336Z</time></trkpt><trkpt lat="38.1754816" lon="15.8001468"><ele>1023.0</ele><time>2026-04-11T07:27:45.336Z</time></trkpt><trkpt lat="38.1755283" lon="15.8000814"><ele>1023.0</ele><time>2026-04-11T07:27:46.337Z</time></trkpt><trkpt lat="38.1756304" lon="15.8000406"><ele>1023.0</ele><time>2026-04-11T07:27:48.337Z</time></trkpt><trkpt lat="38.1756824" lon="15.8001732"><ele>1023.0</ele><time>2026-04-11T07:27:50.337Z</time></trkpt><trkpt lat="38.1756922" lon="15.8002856"><ele>1023.0</ele><time>2026-04-11T07:27:51.336Z</time></trkpt><trkpt lat="38.1756898" lon="15.8004279"><ele>1023.0</ele><time>2026-04-11T07:27:52.337Z</time></trkpt><trkpt lat="38.175686" lon="15.8005694"><ele>1023.0</ele><time>2026-04-11T07:27:53.336Z</time></trkpt><trkpt lat="38.1756901" lon="15.800697"><ele>1023.0</ele><time>2026-04-11T07:27:54.336Z</time></trkpt><trkpt lat="38.1756977" lon="15.8008105"><ele>1023.0</ele><time>2026-04-11T07:27:55.337Z</time></trkpt><trkpt lat="38.1757001" lon="15.8009241"><ele>1023.0</ele><time>2026-04-11T07:27:56.336Z</time></trkpt><trkpt lat="38.1756988" lon="15.8010335"><ele>1023.0</ele><time>2026-04-11T07:27:57.336Z</time></trkpt><trkpt lat="38.1756907" lon="15.801142"><ele>1023.0</ele><time>2026-04-11T07:27:58.336Z</time></trkpt><trkpt lat="38.1756802" lon="15.8012645"><ele>1023.0</ele><time>2026-04-11T07:27:59.336Z</time></trkpt><trkpt lat="38.1756681" lon="15.8013931"><ele>1023.0</ele><time>2026-04-11T07:28:00.337Z</time></trkpt><trkpt lat="38.1756599" lon="15.8015166"><ele>1023.0</ele><time>2026-04-11T07:28:01.336Z</time></trkpt><trkpt lat="38.1756606" lon="15.8016356"><ele>1023.0</ele><time>2026-04-11T07:28:02.337Z</time></trkpt><trkpt lat="38.1756716" lon="15.8017563"><ele>1023.0</ele><time>2026-04-11T07:28:03.336Z</time></trkpt><trkpt lat="38.1756898" lon="15.8018687"><ele>1023.0</ele><time>2026-04-11T07:28:04.337Z</time></trkpt><trkpt lat="38.1757165" lon="15.8019887"><ele>1028.2</ele><time>2026-04-11T07:28:05.336Z</time></trkpt><trkpt lat="38.1757455" lon="15.8021074"><ele>1033.4</ele><time>2026-04-11T07:28:06.337Z</time></trkpt><trkpt lat="38.1757822" lon="15.8022131"><ele>1038.6000000000001</ele><time>2026-04-11T07:28:07.336Z</time></trkpt><trkpt lat="38.175852" lon="15.8023113"><ele>1043.8</ele><time>2026-04-11T07:28:08.337Z</time></trkpt><trkpt lat="38.1759358" lon="15.8023964"><ele>1049.0</ele><time>2026-04-11T07:28:09.336Z</time></trkpt><trkpt lat="38.1760324" lon="15.8024733"><ele>1049.0</ele><time>2026-04-11T07:28:10.336Z</time></trkpt><trkpt lat="38.1761288" lon="15.8025524"><ele>1049.0</ele><time>2026-04-11T07:28:11.336Z</time></trkpt><trkpt lat="38.1762135" lon="15.8026414"><ele>1049.0</ele><time>2026-04-11T07:28:12.336Z</time></trkpt><trkpt lat="38.1762707" lon="15.80276"><ele>1049.0</ele><time>2026-04-11T07:28:13.336Z</time></trkpt><trkpt lat="38.1763007" lon="15.8029036"><ele>1049.25</ele><time>2026-04-11T07:28:14.337Z</time></trkpt><trkpt lat="38.1763026" lon="15.8030518"><ele>1049.5</ele><time>2026-04-11T07:28:15.336Z</time></trkpt><trkpt lat="38.1762716" lon="15.8031985"><ele>1049.75</ele><time>2026-04-11T07:28:16.337Z</time></trkpt><trkpt lat="38.1762185" lon="15.8033317"><ele>1050.0</ele><time>2026-04-11T07:28:17.336Z</time></trkpt><trkpt lat="38.1761633" lon="15.8034687"><ele>1053.25</ele><time>2026-04-11T07:28:18.336Z</time></trkpt><trkpt lat="38.1761137" lon="15.8036023"><ele>1056.5</ele><time>2026-04-11T07:28:19.336Z</time></trkpt><trkpt lat="38.1760654" lon="15.8037442"><ele>1059.75</ele><time>2026-04-11T07:28:20.337Z</time></trkpt><trkpt lat="38.1760218" lon="15.8038868"><ele>1063.0</ele><time>2026-04-11T07:28:21.336Z</time></trkpt><trkpt lat="38.1759768" lon="15.8040363"><ele>1063.0</ele><time>2026-04-11T07:28:22.336Z</time></trkpt><trkpt lat="38.1759258" lon="15.8041832"><ele>1063.0</ele><time>2026-04-11T07:28:23.336Z</time></trkpt><trkpt lat="38.1758785" lon="15.804327"><ele>1063.0</ele><time>2026-04-11T07:28:24.336Z</time></trkpt><trkpt lat="38.1758363" lon="15.8044667"><ele>1063.0</ele><time>2026-04-11T07:28:25.336Z</time></trkpt><trkpt lat="38.1757904" lon="15.8046036"><ele>1064.0</ele><time>2026-04-11T07:28:26.336Z</time></trkpt><trkpt lat="38.175748" lon="15.804743"><ele>1065.0</ele><time>2026-04-11T07:28:27.337Z</time></trkpt><trkpt lat="38.1757061" lon="15.8048756"><ele>1066.0</ele><time>2026-04-11T07:28:28.337Z</time></trkpt><trkpt lat="38.1756637" lon="15.8049948"><ele>1067.0</ele><time>2026-04-11T07:28:29.336Z</time></trkpt><trkpt lat="38.1756189" lon="15.8051143"><ele>1068.0</ele><time>2026-04-11T07:28:30.337Z</time></trkpt><trkpt lat="38.1755705" lon="15.8052328"><ele>1068.0</ele><time>2026-04-11T07:28:31.336Z</time></trkpt><trkpt lat="38.1755231" lon="15.8053556"><ele>1068.0</ele><time>2026-04-11T07:28:32.336Z</time></trkpt><trkpt lat="38.1754718" lon="15.805486"><ele>1068.0</ele><time>2026-04-11T07:28:33.336Z</time></trkpt><trkpt lat="38.175421" lon="15.8056145"><ele>1068.0</ele><time>2026-04-11T07:28:34.336Z</time></trkpt><trkpt lat="38.1753674" lon="15.8057465"><ele>1068.0</ele><time>2026-04-11T07:28:35.336Z</time></trkpt><trkpt lat="38.1753309" lon="15.8058817"><ele>1068.0</ele><time>2026-04-11T07:28:36.336Z</time></trkpt><trkpt lat="38.1753131" lon="15.8060164"><ele>1068.0</ele><time>2026-04-11T07:28:37.336Z</time></trkpt><trkpt lat="38.1753153" lon="15.8061629"><ele>1068.0</ele><time>2026-04-11T07:28:38.337Z</time></trkpt><trkpt lat="38.1753235" lon="15.8063158"><ele>1071.0</ele><time>2026-04-11T07:28:39.336Z</time></trkpt><trkpt lat="38.1753226" lon="15.806465"><ele>1074.0</ele><time>2026-04-11T07:28:40.336Z</time></trkpt><trkpt lat="38.1753232" lon="15.8066177"><ele>1077.0</ele><time>2026-04-11T07:28:41.336Z</time></trkpt><trkpt lat="38.1753125" lon="15.8067732"><ele>1080.0</ele><time>2026-04-11T07:28:42.336Z</time></trkpt><trkpt lat="38.1752891" lon="15.8069267"><ele>1081.5</ele><time>2026-04-11T07:28:43.336Z</time></trkpt><trkpt lat="38.17526" lon="15.8070794"><ele>1083.0</ele><time>2026-04-11T07:28:44.336Z</time></trkpt><trkpt lat="38.1752274" lon="15.8072281"><ele>1084.5</ele><time>2026-04-11T07:28:45.336Z</time></trkpt><trkpt lat="38.1751995" lon="15.8073735"><ele>1086.0</ele><time>2026-04-11T07:28:46.336Z</time></trkpt><trkpt lat="38.1751843" lon="15.8075206"><ele>1087.0</ele><time>2026-04-11T07:28:47.336Z</time></trkpt><trkpt lat="38.1751797" lon="15.8076732"><ele>1088.0</ele><time>2026-04-11T07:28:48.337Z</time></trkpt><trkpt lat="38.1751733" lon="15.8078296"><ele>1089.0</ele><time>2026-04-11T07:28:49.336Z</time></trkpt><trkpt lat="38.1751656" lon="15.807981"><ele>1090.0</ele><time>2026-04-11T07:28:50.336Z</time></trkpt><trkpt lat="38.1751602" lon="15.8081282"><ele>1090.0</ele><time>2026-04-11T07:28:51.336Z</time></trkpt><trkpt lat="38.1751467" lon="15.8082679"><ele>1090.0</ele><time>2026-04-11T07:28:52.336Z</time></trkpt><trkpt lat="38.175128" lon="15.8084177"><ele>1090.0</ele><time>2026-04-11T07:28:53.336Z</time></trkpt><trkpt lat="38.1751091" lon="15.8085684"><ele>1090.0</ele><time>2026-04-11T07:28:54.337Z</time></trkpt><trkpt lat="38.1750884" lon="15.8087194"><ele>1091.2</ele><time>2026-04-11T07:28:55.337Z</time></trkpt><trkpt lat="38.1750708" lon="15.8088638"><ele>1092.4</ele><time>2026-04-11T07:28:56.337Z</time></trkpt><trkpt lat="38.1750571" lon="15.808994"><ele>1093.6</ele><time>2026-04-11T07:28:57.337Z</time></trkpt><trkpt lat="38.17504" lon="15.8091067"><ele>1094.8</ele><time>2026-04-11T07:28:58.336Z</time></trkpt><trkpt lat="38.1750286" lon="15.809209"><ele>1096.0</ele><time>2026-04-11T07:28:59.337Z</time></trkpt><trkpt lat="38.1750247" lon="15.8092967"><ele>1095.8333333333333</ele><time>2026-04-11T07:29:00.336Z</time></trkpt><trkpt lat="38.175034" lon="15.8093838"><ele>1095.6666666666665</ele><time>2026-04-11T07:29:01.337Z</time></trkpt><trkpt lat="38.1750431" lon="15.8094744"><ele>1095.5</ele><time>2026-04-11T07:29:02.336Z</time></trkpt><trkpt lat="38.1750652" lon="15.8095637"><ele>1095.3333333333333</ele><time>2026-04-11T07:29:03.337Z</time></trkpt><trkpt lat="38.1751171" lon="15.8096874"><ele>1095.1666666666667</ele><time>2026-04-11T07:29:05.336Z</time></trkpt><trkpt lat="38.175155" lon="15.8097763"><ele>1095.0</ele><time>2026-04-11T07:29:07.337Z</time></trkpt><trkpt lat="38.1751816" lon="15.8098495"><ele>1095.0</ele><time>2026-04-11T07:29:09.336Z</time></trkpt><trkpt lat="38.1752001" lon="15.8099358"><ele>1095.0</ele><time>2026-04-11T07:29:11.336Z</time></trkpt><trkpt lat="38.1752213" lon="15.8100413"><ele>1095.0</ele><time>2026-04-11T07:29:13.336Z</time></trkpt><trkpt lat="38.1752353" lon="15.8101557"><ele>1095.0</ele><time>2026-04-11T07:29:15.336Z</time></trkpt><trkpt lat="38.1752426" lon="15.8102898"><ele>1095.0</ele><time>2026-04-11T07:29:17.336Z</time></trkpt><trkpt lat="38.1752451" lon="15.8104428"><ele>1095.4</ele><time>2026-04-11T07:29:19.337Z</time></trkpt><trkpt lat="38.1752601" lon="15.8105893"><ele>1095.8</ele><time>2026-04-11T07:29:21.337Z</time></trkpt><trkpt lat="38.1752771" lon="15.8107319"><ele>1096.2</ele><time>2026-04-11T07:29:23.336Z</time></trkpt><trkpt lat="38.175306" lon="15.810868"><ele>1096.6</ele><time>2026-04-11T07:29:25.336Z</time></trkpt><trkpt lat="38.1753474" lon="15.8109921"><ele>1097.0</ele><time>2026-04-11T07:29:27.336Z</time></trkpt><trkpt lat="38.1753902" lon="15.8111085"><ele>1099.4</ele><time>2026-04-11T07:29:29.336Z</time></trkpt><trkpt lat="38.1754149" lon="15.8112314"><ele>1101.8000000000002</ele><time>2026-04-11T07:29:31.336Z</time></trkpt><trkpt lat="38.1754231" lon="15.811339"><ele>1104.2</ele><time>2026-04-11T07:29:33.336Z</time></trkpt><trkpt lat="38.175408" lon="15.811451"><ele>1106.6000000000001</ele><time>2026-04-11T07:29:35.336Z</time></trkpt><trkpt lat="38.175365" lon="15.8115774"><ele>1109.0</ele><time>2026-04-11T07:29:37.336Z</time></trkpt><trkpt lat="38.1752606" lon="15.8116775"><ele>1109.0</ele><time>2026-04-11T07:29:39.336Z</time></trkpt><trkpt lat="38.1751911" lon="15.8117164"><ele>1109.0</ele><time>2026-04-11T07:29:40.337Z</time></trkpt><trkpt lat="38.1751054" lon="15.8117487"><ele>1109.0</ele><time>2026-04-11T07:29:41.336Z</time></trkpt><trkpt lat="38.1750059" lon="15.8117879"><ele>1109.0</ele><time>2026-04-11T07:29:42.336Z</time></trkpt><trkpt lat="38.1749016" lon="15.8118329"><ele>1109.0</ele><time>2026-04-11T07:29:43.336Z</time></trkpt><trkpt lat="38.1747977" lon="15.8118861"><ele>1111.0</ele><time>2026-04-11T07:29:44.336Z</time></trkpt><trkpt lat="38.174684" lon="15.8119456"><ele>1113.0</ele><time>2026-04-11T07:29:45.337Z</time></trkpt><trkpt lat="38.1745847" lon="15.8120123"><ele>1115.0</ele><time>2026-04-11T07:29:46.337Z</time></trkpt><trkpt lat="38.1744852" lon="15.8120939"><ele>1117.0</ele><time>2026-04-11T07:29:47.336Z</time></trkpt><trkpt lat="38.1744056" lon="15.8121907"><ele>1117.0</ele><time>2026-04-11T07:29:48.336Z</time></trkpt><trkpt lat="38.1743312" lon="15.8122915"><ele>1117.0</ele><time>2026-04-11T07:29:49.336Z</time></trkpt><trkpt lat="38.1742507" lon="15.812396"><ele>1117.0</ele><time>2026-04-11T07:29:50.336Z</time></trkpt><trkpt lat="38.1741718" lon="15.8125097"><ele>1117.0</ele><time>2026-04-11T07:29:51.336Z</time></trkpt><trkpt lat="38.1740908" lon="15.8126135"><ele>1118.2</ele><time>2026-04-11T07:29:52.336Z</time></trkpt><trkpt lat="38.1740149" lon="15.8127211"><ele>1119.4</ele><time>2026-04-11T07:29:53.336Z</time></trkpt><trkpt lat="38.1739367" lon="15.8128207"><ele>1120.6</ele><time>2026-04-11T07:29:54.336Z</time></trkpt><trkpt lat="38.1738643" lon="15.8129264"><ele>1121.8</ele><time>2026-04-11T07:29:55.336Z</time></trkpt><trkpt lat="38.1737908" lon="15.8130384"><ele>1123.0</ele><time>2026-04-11T07:29:56.337Z</time></trkpt><trkpt lat="38.1737132" lon="15.8131433"><ele>1123.0</ele><time>2026-04-11T07:29:57.337Z</time></trkpt><trkpt lat="38.1736351" lon="15.813249"><ele>1123.0</ele><time>2026-04-11T07:29:58.336Z</time></trkpt><trkpt lat="38.1735395" lon="15.8133454"><ele>1123.0</ele><time>2026-04-11T07:29:59.337Z</time></trkpt><trkpt lat="38.173436" lon="15.8134136"><ele>1123.0</ele><time>2026-04-11T07:30:00.336Z</time></trkpt><trkpt lat="38.1733276" lon="15.8134768"><ele>1128.0</ele><time>2026-04-11T07:30:01.336Z</time></trkpt><trkpt lat="38.1732144" lon="15.8135246"><ele>1133.0</ele><time>2026-04-11T07:30:02.336Z</time></trkpt><trkpt lat="38.1731061" lon="15.8135897"><ele>1138.0</ele><time>2026-04-11T07:30:03.336Z</time></trkpt><trkpt lat="38.1729932" lon="15.8136372"><ele>1143.0</ele><time>2026-04-11T07:30:04.336Z</time></trkpt><trkpt lat="38.1728753" lon="15.8136706"><ele>1143.5</ele><time>2026-04-11T07:30:05.336Z</time></trkpt><trkpt lat="38.1727613" lon="15.8136979"><ele>1144.0</ele><time>2026-04-11T07:30:06.337Z</time></trkpt><trkpt lat="38.1726519" lon="15.8137295"><ele>1144.5</ele><time>2026-04-11T07:30:07.336Z</time></trkpt><trkpt lat="38.1725407" lon="15.8137658"><ele>1145.0</ele><time>2026-04-11T07:30:08.337Z</time></trkpt><trkpt lat="38.1724213" lon="15.813797"><ele>1145.0</ele><time>2026-04-11T07:30:09.337Z</time></trkpt><trkpt lat="38.1723026" lon="15.8138297"><ele>1145.0</ele><time>2026-04-11T07:30:10.336Z</time></trkpt><trkpt lat="38.1721884" lon="15.8138637"><ele>1145.0</ele><time>2026-04-11T07:30:11.337Z</time></trkpt><trkpt lat="38.1720789" lon="15.8139006"><ele>1145.0</ele><time>2026-04-11T07:30:12.336Z</time></trkpt><trkpt lat="38.171966" lon="15.8139263"><ele>1145.0</ele><time>2026-04-11T07:30:13.336Z</time></trkpt><trkpt lat="38.1718579" lon="15.8139594"><ele>1145.0</ele><time>2026-04-11T07:30:14.336Z</time></trkpt><trkpt lat="38.1717523" lon="15.8140057"><ele>1145.0</ele><time>2026-04-11T07:30:15.336Z</time></trkpt><trkpt lat="38.171654" lon="15.8140645"><ele>1145.0</ele><time>2026-04-11T07:30:16.336Z</time></trkpt><trkpt lat="38.1715662" lon="15.8141434"><ele>1145.0</ele><time>2026-04-11T07:30:17.336Z</time></trkpt><trkpt lat="38.1714931" lon="15.8142402"><ele>1142.25</ele><time>2026-04-11T07:30:18.336Z</time></trkpt><trkpt lat="38.1714387" lon="15.8143747"><ele>1139.5</ele><time>2026-04-11T07:30:19.336Z</time></trkpt><trkpt lat="38.1714231" lon="15.8145246"><ele>1136.75</ele><time>2026-04-11T07:30:20.336Z</time></trkpt><trkpt lat="38.1714341" lon="15.8146782"><ele>1134.0</ele><time>2026-04-11T07:30:21.336Z</time></trkpt><trkpt lat="38.1714691" lon="15.8148275"><ele>1134.0</ele><time>2026-04-11T07:30:22.336Z</time></trkpt><trkpt lat="38.1715053" lon="15.8149811"><ele>1134.0</ele><time>2026-04-11T07:30:23.336Z</time></trkpt><trkpt lat="38.1715415" lon="15.8151311"><ele>1134.0</ele><time>2026-04-11T07:30:24.336Z</time></trkpt><trkpt lat="38.1715608" lon="15.8152996"><ele>1134.0</ele><time>2026-04-11T07:30:25.336Z</time></trkpt><trkpt lat="38.1715707" lon="15.8154768"><ele>1136.75</ele><time>2026-04-11T07:30:26.336Z</time></trkpt><trkpt lat="38.1715694" lon="15.8156487"><ele>1139.5</ele><time>2026-04-11T07:30:27.336Z</time></trkpt><trkpt lat="38.1715557" lon="15.8158216"><ele>1142.25</ele><time>2026-04-11T07:30:28.337Z</time></trkpt><trkpt lat="38.1715378" lon="15.8159965"><ele>1145.0</ele><time>2026-04-11T07:30:29.336Z</time></trkpt><trkpt lat="38.1715124" lon="15.8161805"><ele>1145.0</ele><time>2026-04-11T07:30:30.336Z</time></trkpt><trkpt lat="38.1714912" lon="15.8163529"><ele>1145.0</ele><time>2026-04-11T07:30:31.336Z</time></trkpt><trkpt lat="38.1714821" lon="15.8165142"><ele>1145.0</ele><time>2026-04-11T07:30:32.336Z</time></trkpt><trkpt lat="38.1715014" lon="15.8166673"><ele>1145.0</ele><time>2026-04-11T07:30:33.337Z</time></trkpt><trkpt lat="38.1715389" lon="15.8168139"><ele>1150.25</ele><time>2026-04-11T07:30:34.336Z</time></trkpt><trkpt lat="38.1715976" lon="15.8169622"><ele>1155.5</ele><time>2026-04-11T07:30:35.336Z</time></trkpt><trkpt lat="38.1716663" lon="15.8171095"><ele>1160.75</ele><time>2026-04-11T07:30:36.336Z</time></trkpt><trkpt lat="38.1717423" lon="15.8172443"><ele>1166.0</ele><time>2026-04-11T07:30:37.337Z</time></trkpt><trkpt lat="38.1718168" lon="15.81738"><ele>1166.0</ele><time>2026-04-11T07:30:38.336Z</time></trkpt><trkpt lat="38.1718907" lon="15.817527"><ele>1166.0</ele><time>2026-04-11T07:30:39.336Z</time></trkpt><trkpt lat="38.1719536" lon="15.8176757"><ele>1166.0</ele><time>2026-04-11T07:30:40.336Z</time></trkpt><trkpt lat="38.1720021" lon="15.8178252"><ele>1166.0</ele><time>2026-04-11T07:30:41.336Z</time></trkpt><trkpt lat="38.1720416" lon="15.8179855"><ele>1167.3333333333335</ele><time>2026-04-11T07:30:42.336Z</time></trkpt><trkpt lat="38.1720672" lon="15.8181648"><ele>1168.6666666666667</ele><time>2026-04-11T07:30:43.336Z</time></trkpt><trkpt lat="38.1720814" lon="15.8183609"><ele>1170.0</ele><time>2026-04-11T07:30:44.337Z</time></trkpt><trkpt lat="38.1721041" lon="15.8185591"><ele>1170.0</ele><time>2026-04-11T07:30:45.337Z</time></trkpt><trkpt lat="38.1721122" lon="15.8187522"><ele>1170.0</ele><time>2026-04-11T07:30:46.337Z</time></trkpt><trkpt lat="38.1721033" lon="15.8189443"><ele>1170.0</ele><time>2026-04-11T07:30:47.336Z</time></trkpt><trkpt lat="38.17208" lon="15.8191279"><ele>1170.0</ele><time>2026-04-11T07:30:48.337Z</time></trkpt><trkpt lat="38.1720438" lon="15.8193086"><ele>1169.0</ele><time>2026-04-11T07:30:49.337Z</time></trkpt><trkpt lat="38.1719928" lon="15.8194929"><ele>1168.0</ele><time>2026-04-11T07:30:50.336Z</time></trkpt><trkpt lat="38.1719376" lon="15.8196823"><ele>1167.0</ele><time>2026-04-11T07:30:51.336Z</time></trkpt><trkpt lat="38.1718809" lon="15.8198815"><ele>1167.0</ele><time>2026-04-11T07:30:52.337Z</time></trkpt><trkpt lat="38.1718231" lon="15.8200865"><ele>1167.0</ele><time>2026-04-11T07:30:53.336Z</time></trkpt><trkpt lat="38.1717742" lon="15.8202914"><ele>1167.0</ele><time>2026-04-11T07:30:54.336Z</time></trkpt><trkpt lat="38.1717258" lon="15.8204868"><ele>1167.0</ele><time>2026-04-11T07:30:55.336Z</time></trkpt><trkpt lat="38.1716774" lon="15.820695"><ele>1167.0</ele><time>2026-04-11T07:30:56.336Z</time></trkpt><trkpt lat="38.171635" lon="15.820902"><ele>1167.0</ele><time>2026-04-11T07:30:57.337Z</time></trkpt><trkpt lat="38.1715928" lon="15.8211018"><ele>1169.6666666666667</ele><time>2026-04-11T07:30:58.336Z</time></trkpt><trkpt lat="38.1715496" lon="15.8213074"><ele>1172.3333333333335</ele><time>2026-04-11T07:30:59.337Z</time></trkpt><trkpt lat="38.1715109" lon="15.8215087"><ele>1175.0</ele><time>2026-04-11T07:31:00.336Z</time></trkpt><trkpt lat="38.1714696" lon="15.8217078"><ele>1169.0</ele><time>2026-04-11T07:31:01.337Z</time></trkpt><trkpt lat="38.1714196" lon="15.8219132"><ele>1163.0</ele><time>2026-04-11T07:31:02.337Z</time></trkpt><trkpt lat="38.1713646" lon="15.8221131"><ele>1157.0</ele><time>2026-04-11T07:31:03.336Z</time></trkpt><trkpt lat="38.1713167" lon="15.8223104"><ele>1157.0</ele><time>2026-04-11T07:31:04.336Z</time></trkpt><trkpt lat="38.1712745" lon="15.8225002"><ele>1157.0</ele><time>2026-04-11T07:31:05.336Z</time></trkpt><trkpt lat="38.1712389" lon="15.8226924"><ele>1157.0</ele><time>2026-04-11T07:31:06.336Z</time></trkpt><trkpt lat="38.1712021" lon="15.8228806"><ele>1163.3333333333335</ele><time>2026-04-11T07:31:07.336Z</time></trkpt><trkpt lat="38.1711728" lon="15.8230662"><ele>1169.6666666666667</ele><time>2026-04-11T07:31:08.337Z</time></trkpt><trkpt lat="38.1711463" lon="15.8232619"><ele>1176.0</ele><time>2026-04-11T07:31:09.336Z</time></trkpt><trkpt lat="38.1711205" lon="15.8234485"><ele>1179.25</ele><time>2026-04-11T07:31:10.337Z</time></trkpt><trkpt lat="38.1711009" lon="15.8236341"><ele>1182.5</ele><time>2026-04-11T07:31:11.336Z</time></trkpt><trkpt lat="38.1710875" lon="15.8238143"><ele>1185.75</ele><time>2026-04-11T07:31:12.337Z</time></trkpt><trkpt lat="38.1710647" lon="15.8239943"><ele>1189.0</ele><time>2026-04-11T07:31:13.336Z</time></trkpt><trkpt lat="38.1710447" lon="15.8241676"><ele>1191.5</ele><time>2026-04-11T07:31:14.336Z</time></trkpt><trkpt lat="38.1710299" lon="15.824342"><ele>1194.0</ele><time>2026-04-11T07:31:15.336Z</time></trkpt><trkpt lat="38.171021" lon="15.8245165"><ele>1196.5</ele><time>2026-04-11T07:31:16.336Z</time></trkpt><trkpt lat="38.171013" lon="15.8246884"><ele>1199.0</ele><time>2026-04-11T07:31:17.336Z</time></trkpt><trkpt lat="38.1710051" lon="15.8248631"><ele>1199.0</ele><time>2026-04-11T07:31:18.336Z</time></trkpt><trkpt lat="38.1709955" lon="15.8250391"><ele>1199.0</ele><time>2026-04-11T07:31:19.336Z</time></trkpt><trkpt lat="38.1709955" lon="15.8252153"><ele>1199.0</ele><time>2026-04-11T07:31:20.337Z</time></trkpt><trkpt lat="38.1709989" lon="15.8253851"><ele>1199.0</ele><time>2026-04-11T07:31:21.337Z</time></trkpt><trkpt lat="38.1709931" lon="15.8255518"><ele>1201.75</ele><time>2026-04-11T07:31:22.336Z</time></trkpt><trkpt lat="38.1709623" lon="15.8257222"><ele>1204.5</ele><time>2026-04-11T07:31:23.336Z</time></trkpt><trkpt lat="38.1709283" lon="15.8259025"><ele>1207.25</ele><time>2026-04-11T07:31:24.336Z</time></trkpt><trkpt lat="38.1708851" lon="15.8260732"><ele>1210.0</ele><time>2026-04-11T07:31:25.337Z</time></trkpt><trkpt lat="38.170824" lon="15.8262362"><ele>1211.5</ele><time>2026-04-11T07:31:26.336Z</time></trkpt><trkpt lat="38.1707548" lon="15.8263799"><ele>1213.0</ele><time>2026-04-11T07:31:27.336Z</time></trkpt><trkpt lat="38.1706829" lon="15.8265075"><ele>1214.5</ele><time>2026-04-11T07:31:28.337Z</time></trkpt><trkpt lat="38.1706124" lon="15.8266424"><ele>1216.0</ele><time>2026-04-11T07:31:29.336Z</time></trkpt><trkpt lat="38.1705429" lon="15.8267782"><ele>1216.0</ele><time>2026-04-11T07:31:30.337Z</time></trkpt><trkpt lat="38.1704743" lon="15.8269169"><ele>1216.0</ele><time>2026-04-11T07:31:31.336Z</time></trkpt><trkpt lat="38.1704149" lon="15.8270415"><ele>1216.0</ele><time>2026-04-11T07:31:32.336Z</time></trkpt><trkpt lat="38.1703707" lon="15.8271573"><ele>1216.0</ele><time>2026-04-11T07:31:33.337Z</time></trkpt><trkpt lat="38.1703462" lon="15.8272523"><ele>1216.0</ele><time>2026-04-11T07:31:34.337Z</time></trkpt><trkpt lat="38.1703614" lon="15.8273988"><ele>1216.0</ele><time>2026-04-11T07:31:36.336Z</time></trkpt><trkpt lat="38.1704039" lon="15.8274925"><ele>1216.0</ele><time>2026-04-11T07:31:38.337Z</time></trkpt><trkpt lat="38.1704712" lon="15.8275709"><ele>1216.0</ele><time>2026-04-11T07:31:40.336Z</time></trkpt><trkpt lat="38.1705465" lon="15.8276411"><ele>1216.0</ele><time>2026-04-11T07:31:42.336Z</time></trkpt><trkpt lat="38.1706091" lon="15.8276982"><ele>1216.0</ele><time>2026-04-11T07:31:44.336Z</time></trkpt><trkpt lat="38.1706556" lon="15.8277895"><ele>1216.0</ele><time>2026-04-11T07:31:46.336Z</time></trkpt><trkpt lat="38.1706368" lon="15.827904"><ele>1219.1666666666665</ele><time>2026-04-11T07:31:48.337Z</time></trkpt><trkpt lat="38.1705592" lon="15.8279661"><ele>1222.3333333333333</ele><time>2026-04-11T07:31:50.337Z</time></trkpt><trkpt lat="38.1704229" lon="15.8280011"><ele>1225.5</ele><time>2026-04-11T07:31:52.336Z</time></trkpt><trkpt lat="38.1703486" lon="15.8280147"><ele>1228.6666666666667</ele><time>2026-04-11T07:31:53.336Z</time></trkpt><trkpt lat="38.170282" lon="15.8280301"><ele>1231.8333333333335</ele><time>2026-04-11T07:31:54.336Z</time></trkpt><trkpt lat="38.1702161" lon="15.8280478"><ele>1235.0</ele><time>2026-04-11T07:31:55.336Z</time></trkpt><trkpt lat="38.1701507" lon="15.8280635"><ele>1235.0</ele><time>2026-04-11T07:31:56.336Z</time></trkpt><trkpt lat="38.1700771" lon="15.8280824"><ele>1235.0</ele><time>2026-04-11T07:31:57.336Z</time></trkpt><trkpt lat="38.1699989" lon="15.8281082"><ele>1235.0</ele><time>2026-04-11T07:31:58.336Z</time></trkpt><trkpt lat="38.1699018" lon="15.8281325"><ele>1235.0</ele><time>2026-04-11T07:31:59.336Z</time></trkpt><trkpt lat="38.1697935" lon="15.8281557"><ele>1235.0</ele><time>2026-04-11T07:32:00.336Z</time></trkpt><trkpt lat="38.1697059" lon="15.8281838"><ele>1236.8333333333335</ele><time>2026-04-11T07:32:01.336Z</time></trkpt><trkpt lat="38.1696361" lon="15.8282293"><ele>1238.6666666666667</ele><time>2026-04-11T07:32:02.337Z</time></trkpt><trkpt lat="38.1695777" lon="15.8282819"><ele>1240.5</ele><time>2026-04-11T07:32:03.336Z</time></trkpt><trkpt lat="38.1695379" lon="15.8283543"><ele>1242.3333333333333</ele><time>2026-04-11T07:32:04.336Z</time></trkpt><trkpt lat="38.1695348" lon="15.8284848"><ele>1244.1666666666665</ele><time>2026-04-11T07:32:06.336Z</time></trkpt><trkpt lat="38.1696378" lon="15.8285715"><ele>1246.0</ele><time>2026-04-11T07:32:08.336Z</time></trkpt><trkpt lat="38.1697117" lon="15.8285877"><ele>1247.2</ele><time>2026-04-11T07:32:09.336Z</time></trkpt><trkpt lat="38.169797" lon="15.8285827"><ele>1248.3999999999999</ele><time>2026-04-11T07:32:10.336Z</time></trkpt><trkpt lat="38.1698852" lon="15.8285573"><ele>1249.6</ele><time>2026-04-11T07:32:11.336Z</time></trkpt><trkpt lat="38.1699893" lon="15.8285285"><ele>1250.8</ele><time>2026-04-11T07:32:12.337Z</time></trkpt><trkpt lat="38.1700966" lon="15.8285011"><ele>1252.0</ele><time>2026-04-11T07:32:13.336Z</time></trkpt><trkpt lat="38.1701836" lon="15.8285018"><ele>1252.0</ele><time>2026-04-11T07:32:14.337Z</time></trkpt><trkpt lat="38.1702551" lon="15.8285905"><ele>1252.0</ele><time>2026-04-11T07:32:16.337Z</time></trkpt><trkpt lat="38.1702185" lon="15.8286977"><ele>1252.0</ele><time>2026-04-11T07:32:18.337Z</time></trkpt><trkpt lat="38.1701622" lon="15.8287379"><ele>1252.0</ele><time>2026-04-11T07:32:19.336Z</time></trkpt><trkpt lat="38.1700724" lon="15.8287772"><ele>1252.0</ele><time>2026-04-11T07:32:20.336Z</time></trkpt><trkpt lat="38.1699679" lon="15.8288143"><ele>1252.0</ele><time>2026-04-11T07:32:21.336Z</time></trkpt><trkpt lat="38.1698737" lon="15.8288608"><ele>1252.0</ele><time>2026-04-11T07:32:22.336Z</time></trkpt><trkpt lat="38.1697795" lon="15.8289179"><ele>1252.0</ele><time>2026-04-11T07:32:23.336Z</time></trkpt><trkpt lat="38.1697" lon="15.8290002"><ele>1252.0</ele><time>2026-04-11T07:32:24.337Z</time></trkpt><trkpt lat="38.1696256" lon="15.8291042"><ele>1252.0</ele><time>2026-04-11T07:32:25.336Z</time></trkpt><trkpt lat="38.1695664" lon="15.8292201"><ele>1255.4</ele><time>2026-04-11T07:32:26.336Z</time></trkpt><trkpt lat="38.1695163" lon="15.8293402"><ele>1258.8000000000002</ele><time>2026-04-11T07:32:27.336Z</time></trkpt><trkpt lat="38.1694721" lon="15.8294648"><ele>1262.2</ele><time>2026-04-11T07:32:28.337Z</time></trkpt><trkpt lat="38.1694324" lon="15.8295789"><ele>1265.6000000000001</ele><time>2026-04-11T07:32:29.337Z</time></trkpt><trkpt lat="38.1693922" lon="15.8296853"><ele>1269.0</ele><time>2026-04-11T07:32:30.336Z</time></trkpt><trkpt lat="38.1693542" lon="15.8297871"><ele>1269.0</ele><time>2026-04-11T07:32:31.336Z</time></trkpt><trkpt lat="38.1693175" lon="15.8298841"><ele>1269.0</ele><time>2026-04-11T07:32:32.336Z</time></trkpt><trkpt lat="38.1692785" lon="15.8299652"><ele>1269.0</ele><time>2026-04-11T07:32:33.336Z</time></trkpt><trkpt lat="38.1691882" lon="15.8300555"><ele>1269.0</ele><time>2026-04-11T07:32:35.337Z</time></trkpt><trkpt lat="38.1691188" lon="15.829968"><ele>1269.0</ele><time>2026-04-11T07:32:37.336Z</time></trkpt><trkpt lat="38.169118" lon="15.8298561"><ele>1269.0</ele><time>2026-04-11T07:32:38.336Z</time></trkpt><trkpt lat="38.1691361" lon="15.8297307"><ele>1269.0</ele><time>2026-04-11T07:32:39.336Z</time></trkpt><trkpt lat="38.1691586" lon="15.8295892"><ele>1269.0</ele><time>2026-04-11T07:32:40.337Z</time></trkpt><trkpt lat="38.1691654" lon="15.8294565"><ele>1269.0</ele><time>2026-04-11T07:32:41.336Z</time></trkpt><trkpt lat="38.1691393" lon="15.8293474"><ele>1269.0</ele><time>2026-04-11T07:32:42.337Z</time></trkpt><trkpt lat="38.1690982" lon="15.8292559"><ele>1269.2</ele><time>2026-04-11T07:32:43.336Z</time></trkpt><trkpt lat="38.1690337" lon="15.8292144"><ele>1269.4</ele><time>2026-04-11T07:32:44.337Z</time></trkpt><trkpt lat="38.1689592" lon="15.8292254"><ele>1269.6</ele><time>2026-04-11T07:32:45.336Z</time></trkpt><trkpt lat="38.1688875" lon="15.8292924"><ele>1269.8</ele><time>2026-04-11T07:32:46.336Z</time></trkpt><trkpt lat="38.1688228" lon="15.8294009"><ele>1270.0</ele><time>2026-04-11T07:32:47.336Z</time></trkpt><trkpt lat="38.1687509" lon="15.8295427"><ele>1269.5</ele><time>2026-04-11T07:32:48.336Z</time></trkpt><trkpt lat="38.1686858" lon="15.8297052"><ele>1269.0</ele><time>2026-04-11T07:32:49.336Z</time></trkpt><trkpt lat="38.1686209" lon="15.8298645"><ele>1268.5</ele><time>2026-04-11T07:32:50.336Z</time></trkpt><trkpt lat="38.1685555" lon="15.8300051"><ele>1268.0</ele><time>2026-04-11T07:32:51.336Z</time></trkpt><trkpt lat="38.1684917" lon="15.8301307"><ele>1270.0</ele><time>2026-04-11T07:32:52.336Z</time></trkpt><trkpt lat="38.1684295" lon="15.8302574"><ele>1272.0</ele><time>2026-04-11T07:32:53.337Z</time></trkpt><trkpt lat="38.1683635" lon="15.8303786"><ele>1274.0</ele><time>2026-04-11T07:32:54.337Z</time></trkpt><trkpt lat="38.1682911" lon="15.8305005"><ele>1276.0</ele><time>2026-04-11T07:32:55.336Z</time></trkpt><trkpt lat="38.1682203" lon="15.8306315"><ele>1275.25</ele><time>2026-04-11T07:32:56.336Z</time></trkpt><trkpt lat="38.1681487" lon="15.8307518"><ele>1274.5</ele><time>2026-04-11T07:32:57.336Z</time></trkpt><trkpt lat="38.1680753" lon="15.83086"><ele>1273.75</ele><time>2026-04-11T07:32:58.336Z</time></trkpt><trkpt lat="38.1679926" lon="15.8309657"><ele>1273.0</ele><time>2026-04-11T07:32:59.336Z</time></trkpt><trkpt lat="38.1679116" lon="15.8310629"><ele>1276.6</ele><time>2026-04-11T07:33:00.336Z</time></trkpt><trkpt lat="38.1678167" lon="15.8311388"><ele>1280.1999999999998</ele><time>2026-04-11T07:33:01.336Z</time></trkpt><trkpt lat="38.167707" lon="15.8311839"><ele>1283.8</ele><time>2026-04-11T07:33:02.336Z</time></trkpt><trkpt lat="38.1676029" lon="15.8312147"><ele>1287.3999999999999</ele><time>2026-04-11T07:33:03.337Z</time></trkpt><trkpt lat="38.1675063" lon="15.8312552"><ele>1291.0</ele><time>2026-04-11T07:33:04.337Z</time></trkpt><trkpt lat="38.16743" lon="15.83133"><ele>1291.0</ele><time>2026-04-11T07:33:05.337Z</time></trkpt><trkpt lat="38.1673872" lon="15.8314311"><ele>1291.0</ele><time>2026-04-11T07:33:06.336Z</time></trkpt><trkpt lat="38.1673728" lon="15.831534"><ele>1291.0</ele><time>2026-04-11T07:33:07.336Z</time></trkpt><trkpt lat="38.1673943" lon="15.8316323"><ele>1291.0</ele><time>2026-04-11T07:33:08.336Z</time></trkpt><trkpt lat="38.167465" lon="15.8317311"><ele>1291.0</ele><time>2026-04-11T07:33:09.336Z</time></trkpt><trkpt lat="38.1675708" lon="15.8318249"><ele>1293.25</ele><time>2026-04-11T07:33:10.336Z</time></trkpt><trkpt lat="38.1676917" lon="15.8319181"><ele>1295.5</ele><time>2026-04-11T07:33:11.336Z</time></trkpt><trkpt lat="38.1678172" lon="15.832011"><ele>1297.75</ele><time>2026-04-11T07:33:12.337Z</time></trkpt><trkpt lat="38.1679284" lon="15.8320997"><ele>1300.0</ele><time>2026-04-11T07:33:13.337Z</time></trkpt><trkpt lat="38.1680198" lon="15.832181"><ele>1300.0</ele><time>2026-04-11T07:33:14.336Z</time></trkpt><trkpt lat="38.1680962" lon="15.8322731"><ele>1300.0</ele><time>2026-04-11T07:33:15.337Z</time></trkpt><trkpt lat="38.1681436" lon="15.8323815"><ele>1300.0</ele><time>2026-04-11T07:33:16.337Z</time></trkpt><trkpt lat="38.1681747" lon="15.8324993"><ele>1300.0</ele><time>2026-04-11T07:33:17.337Z</time></trkpt><trkpt lat="38.1681998" lon="15.8326319"><ele>1300.0</ele><time>2026-04-11T07:33:18.336Z</time></trkpt><trkpt lat="38.1682261" lon="15.8327602"><ele>1300.8</ele><time>2026-04-11T07:33:19.337Z</time></trkpt><trkpt lat="38.1682554" lon="15.832879"><ele>1301.6</ele><time>2026-04-11T07:33:20.336Z</time></trkpt><trkpt lat="38.168288" lon="15.8330027"><ele>1302.4</ele><time>2026-04-11T07:33:21.336Z</time></trkpt><trkpt lat="38.1683168" lon="15.8331403"><ele>1303.2</ele><time>2026-04-11T07:33:22.336Z</time></trkpt><trkpt lat="38.1683463" lon="15.8332716"><ele>1304.0</ele><time>2026-04-11T07:33:23.336Z</time></trkpt><trkpt lat="38.168375" lon="15.8334069"><ele>1305.0</ele><time>2026-04-11T07:33:24.336Z</time></trkpt><trkpt lat="38.168398" lon="15.8335426"><ele>1306.0</ele><time>2026-04-11T07:33:25.337Z</time></trkpt><trkpt lat="38.1684291" lon="15.8336794"><ele>1307.0</ele><time>2026-04-11T07:33:26.336Z</time></trkpt><trkpt lat="38.1684592" lon="15.8338187"><ele>1308.0</ele><time>2026-04-11T07:33:27.336Z</time></trkpt><trkpt lat="38.1684854" lon="15.8339563"><ele>1309.0</ele><time>2026-04-11T07:33:28.336Z</time></trkpt><trkpt lat="38.168513" lon="15.8340886"><ele>1309.0</ele><time>2026-04-11T07:33:29.337Z</time></trkpt><trkpt lat="38.1685381" lon="15.8342177"><ele>1309.0</ele><time>2026-04-11T07:33:30.336Z</time></trkpt><trkpt lat="38.1685508" lon="15.8343562"><ele>1309.0</ele><time>2026-04-11T07:33:31.336Z</time></trkpt><trkpt lat="38.1685493" lon="15.8344952"><ele>1309.0</ele><time>2026-04-11T07:33:32.336Z</time></trkpt><trkpt lat="38.168529" lon="15.8346284"><ele>1309.0</ele><time>2026-04-11T07:33:33.337Z</time></trkpt><trkpt lat="38.1684863" lon="15.8347713"><ele>1309.2</ele><time>2026-04-11T07:33:34.337Z</time></trkpt><trkpt lat="38.1684343" lon="15.834903"><ele>1309.4</ele><time>2026-04-11T07:33:35.336Z</time></trkpt><trkpt lat="38.168378" lon="15.8350311"><ele>1309.6</ele><time>2026-04-11T07:33:36.336Z</time></trkpt><trkpt lat="38.1683198" lon="15.8351482"><ele>1309.8</ele><time>2026-04-11T07:33:37.337Z</time></trkpt><trkpt lat="38.1682608" lon="15.8352585"><ele>1310.0</ele><time>2026-04-11T07:33:38.337Z</time></trkpt><trkpt lat="38.1682023" lon="15.835366"><ele>1311.4</ele><time>2026-04-11T07:33:39.336Z</time></trkpt><trkpt lat="38.1681429" lon="15.8354592"><ele>1312.8</ele><time>2026-04-11T07:33:40.336Z</time></trkpt><trkpt lat="38.1680884" lon="15.8355433"><ele>1314.1999999999998</ele><time>2026-04-11T07:33:41.336Z</time></trkpt><trkpt lat="38.1680122" lon="15.8356171"><ele>1315.6</ele><time>2026-04-11T07:33:42.336Z</time></trkpt><trkpt lat="38.1679289" lon="15.8356756"><ele>1317.0</ele><time>2026-04-11T07:33:43.336Z</time></trkpt><trkpt lat="38.1678334" lon="15.8357236"><ele>1317.0</ele><time>2026-04-11T07:33:44.336Z</time></trkpt><trkpt lat="38.1677262" lon="15.8357624"><ele>1317.0</ele><time>2026-04-11T07:33:45.336Z</time></trkpt><trkpt lat="38.1676316" lon="15.8358003"><ele>1317.0</ele><time>2026-04-11T07:33:46.336Z</time></trkpt><trkpt lat="38.1675507" lon="15.8358425"><ele>1317.0</ele><time>2026-04-11T07:33:47.336Z</time></trkpt><trkpt lat="38.1674823" lon="15.8358802"><ele>1317.0</ele><time>2026-04-11T07:33:48.336Z</time></trkpt><trkpt lat="38.1673824" lon="15.8359389"><ele>1317.6666666666667</ele><time>2026-04-11T07:33:50.337Z</time></trkpt><trkpt lat="38.1673022" lon="15.8359824"><ele>1318.3333333333333</ele><time>2026-04-11T07:33:52.337Z</time></trkpt><trkpt lat="38.1672252" lon="15.8360571"><ele>1319.0</ele><time>2026-04-11T07:33:54.336Z</time></trkpt><trkpt lat="38.1671832" lon="15.8361248"><ele>1319.6666666666665</ele><time>2026-04-11T07:33:55.336Z</time></trkpt><trkpt lat="38.1671359" lon="15.8362736"><ele>1320.3333333333333</ele><time>2026-04-11T07:33:57.337Z</time></trkpt><trkpt lat="38.167143" lon="15.8363586"><ele>1321.0</ele><time>2026-04-11T07:33:58.336Z</time></trkpt><trkpt lat="38.1671788" lon="15.8364411"><ele>1321.0</ele><time>2026-04-11T07:33:59.336Z</time></trkpt><trkpt lat="38.1672155" lon="15.8365155"><ele>1321.0</ele><time>2026-04-11T07:34:00.336Z</time></trkpt><trkpt lat="38.1672501" lon="15.8365848"><ele>1321.0</ele><time>2026-04-11T07:34:01.336Z</time></trkpt><trkpt lat="38.1672867" lon="15.8366521"><ele>1321.0</ele><time>2026-04-11T07:34:02.337Z</time></trkpt><trkpt lat="38.1673727" lon="15.836724"><ele>1321.0</ele><time>2026-04-11T07:34:04.337Z</time></trkpt><trkpt lat="38.1674315" lon="15.8367618"><ele>1321.0</ele><time>2026-04-11T07:34:06.336Z</time></trkpt><trkpt lat="38.1675352" lon="15.8367896"><ele>1320.4</ele><time>2026-04-11T08:17:16.335Z</time></trkpt><trkpt lat="38.1675776" lon="15.8368767"><ele>1319.8</ele><time>2026-04-11T08:17:18.335Z</time></trkpt><trkpt lat="38.1676173" lon="15.8370035"><ele>1319.2</ele><time>2026-04-11T08:17:20.336Z</time></trkpt><trkpt lat="38.1676601" lon="15.8371389"><ele>1318.6000000000001</ele><time>2026-04-11T08:17:22.336Z</time></trkpt><trkpt lat="38.1676993" lon="15.8372842"><ele>1318.0</ele><time>2026-04-11T08:17:24.335Z</time></trkpt><trkpt lat="38.167693" lon="15.8374403"><ele>1318.0</ele><time>2026-04-11T08:17:26.335Z</time></trkpt><trkpt lat="38.1676892" lon="15.8375226"><ele>1318.0</ele><time>2026-04-11T08:17:27.335Z</time></trkpt><trkpt lat="38.1677073" lon="15.8376637"><ele>1318.0</ele><time>2026-04-11T08:17:29.335Z</time></trkpt><trkpt lat="38.1677446" lon="15.8378011"><ele>1318.0</ele><time>2026-04-11T08:17:31.336Z</time></trkpt><trkpt lat="38.1678037" lon="15.8379527"><ele>1318.0</ele><time>2026-04-11T08:17:33.335Z</time></trkpt><trkpt lat="38.1678377" lon="15.8380252"><ele>1317.8333333333333</ele><time>2026-04-11T08:17:34.335Z</time></trkpt><trkpt lat="38.1678755" lon="15.8380986"><ele>1317.6666666666665</ele><time>2026-04-11T08:17:35.336Z</time></trkpt><trkpt lat="38.1679193" lon="15.8381655"><ele>1317.5</ele><time>2026-04-11T08:17:36.335Z</time></trkpt><trkpt lat="38.1679661" lon="15.8382208"><ele>1317.3333333333333</ele><time>2026-04-11T08:17:37.335Z</time></trkpt><trkpt lat="38.1680837" lon="15.8382898"><ele>1317.1666666666667</ele><time>2026-04-11T08:17:39.335Z</time></trkpt><trkpt lat="38.168155" lon="15.8383109"><ele>1317.0</ele><time>2026-04-11T08:17:40.336Z</time></trkpt><trkpt lat="38.1682273" lon="15.8383239"><ele>1317.3333333333333</ele><time>2026-04-11T08:17:41.335Z</time></trkpt><trkpt lat="38.1682967" lon="15.8383432"><ele>1317.6666666666667</ele><time>2026-04-11T08:17:42.335Z</time></trkpt><trkpt lat="38.1683609" lon="15.8383605"><ele>1318.0</ele><time>2026-04-11T08:17:43.336Z</time></trkpt><trkpt lat="38.1684281" lon="15.8383793"><ele>1318.3333333333335</ele><time>2026-04-11T08:17:44.335Z</time></trkpt><trkpt lat="38.1684925" lon="15.8384005"><ele>1318.6666666666667</ele><time>2026-04-11T08:17:45.335Z</time></trkpt><trkpt lat="38.1685558" lon="15.8384186"><ele>1319.0</ele><time>2026-04-11T08:17:46.335Z</time></trkpt><trkpt lat="38.1686698" lon="15.838467"><ele>1321.4</ele><time>2026-04-11T08:17:48.335Z</time></trkpt><trkpt lat="38.1687607" lon="15.8385362"><ele>1323.8000000000002</ele><time>2026-04-11T08:17:50.335Z</time></trkpt><trkpt lat="38.1688388" lon="15.8386109"><ele>1326.1999999999998</ele><time>2026-04-11T08:17:52.335Z</time></trkpt><trkpt lat="38.168924" lon="15.8387187"><ele>1328.6</ele><time>2026-04-11T08:17:54.335Z</time></trkpt><trkpt lat="38.1689694" lon="15.838786"><ele>1331.0</ele><time>2026-04-11T08:17:55.335Z</time></trkpt><trkpt lat="38.1690163" lon="15.8388632"><ele>1331.5</ele><time>2026-04-11T08:17:56.335Z</time></trkpt><trkpt lat="38.1690617" lon="15.838943"><ele>1332.0</ele><time>2026-04-11T08:17:57.335Z</time></trkpt><trkpt lat="38.1691093" lon="15.8390248"><ele>1332.5</ele><time>2026-04-11T08:17:58.335Z</time></trkpt><trkpt lat="38.1691548" lon="15.8391094"><ele>1333.0</ele><time>2026-04-11T08:17:59.335Z</time></trkpt><trkpt lat="38.1691957" lon="15.8391903"><ele>1333.5</ele><time>2026-04-11T08:18:00.335Z</time></trkpt><trkpt lat="38.1692281" lon="15.8392782"><ele>1334.0</ele><time>2026-04-11T08:18:01.335Z</time></trkpt><trkpt lat="38.1692634" lon="15.8393648"><ele>1335.5</ele><time>2026-04-11T08:18:02.335Z</time></trkpt><trkpt lat="38.1693032" lon="15.8394444"><ele>1337.0</ele><time>2026-04-11T08:18:03.335Z</time></trkpt><trkpt lat="38.1693483" lon="15.8395165"><ele>1338.5</ele><time>2026-04-11T08:18:04.336Z</time></trkpt><trkpt lat="38.169401" lon="15.8395816"><ele>1340.0</ele><time>2026-04-11T08:18:05.335Z</time></trkpt><trkpt lat="38.1694547" lon="15.8396473"><ele>1341.5</ele><time>2026-04-11T08:18:06.335Z</time></trkpt><trkpt lat="38.1695082" lon="15.8397298"><ele>1343.0</ele><time>2026-04-11T08:18:07.335Z</time></trkpt><trkpt lat="38.1695601" lon="15.8398206"><ele>1343.0</ele><time>2026-04-11T08:18:08.335Z</time></trkpt><trkpt lat="38.1696099" lon="15.8399139"><ele>1343.0</ele><time>2026-04-11T08:18:09.335Z</time></trkpt><trkpt lat="38.1696514" lon="15.8400166"><ele>1343.0</ele><time>2026-04-11T08:18:10.336Z</time></trkpt><trkpt lat="38.1696873" lon="15.8401283"><ele>1343.0</ele><time>2026-04-11T08:18:11.335Z</time></trkpt><trkpt lat="38.1697186" lon="15.8402514"><ele>1343.0</ele><time>2026-04-11T08:18:12.335Z</time></trkpt><trkpt lat="38.1697452" lon="15.8403682"><ele>1343.3333333333335</ele><time>2026-04-11T08:18:13.335Z</time></trkpt><trkpt lat="38.1697703" lon="15.8404773"><ele>1343.6666666666667</ele><time>2026-04-11T08:18:14.335Z</time></trkpt><trkpt lat="38.1697985" lon="15.8405848"><ele>1344.0</ele><time>2026-04-11T08:18:15.335Z</time></trkpt><trkpt lat="38.1698392" lon="15.8406666"><ele>1344.3333333333333</ele><time>2026-04-11T08:18:16.335Z</time></trkpt><trkpt lat="38.1698869" lon="15.8407296"><ele>1344.6666666666665</ele><time>2026-04-11T08:18:17.336Z</time></trkpt><trkpt lat="38.169957" lon="15.8407654"><ele>1345.0</ele><time>2026-04-11T08:18:18.335Z</time></trkpt><trkpt lat="38.1700472" lon="15.8407708"><ele>1344.0</ele><time>2026-04-11T08:18:19.335Z</time></trkpt><trkpt lat="38.1701478" lon="15.8407532"><ele>1343.0</ele><time>2026-04-11T08:18:20.335Z</time></trkpt><trkpt lat="38.1702421" lon="15.8407334"><ele>1342.0</ele><time>2026-04-11T08:18:21.335Z</time></trkpt><trkpt lat="38.170346" lon="15.8407124"><ele>1341.0</ele><time>2026-04-11T08:18:22.335Z</time></trkpt><trkpt lat="38.1704447" lon="15.8407093"><ele>1340.0</ele><time>2026-04-11T08:18:23.335Z</time></trkpt><trkpt lat="38.1705439" lon="15.8407228"><ele>1340.0</ele><time>2026-04-11T08:18:24.335Z</time></trkpt><trkpt lat="38.170636" lon="15.8407669"><ele>1340.0</ele><time>2026-04-11T08:18:25.335Z</time></trkpt><trkpt lat="38.1707129" lon="15.8408335"><ele>1340.0</ele><time>2026-04-11T08:18:26.335Z</time></trkpt><trkpt lat="38.1707773" lon="15.8409174"><ele>1340.0</ele><time>2026-04-11T08:18:27.335Z</time></trkpt><trkpt lat="38.1708409" lon="15.8410071"><ele>1340.0</ele><time>2026-04-11T08:18:28.335Z</time></trkpt><trkpt lat="38.1709101" lon="15.8411"><ele>1341.8</ele><time>2026-04-11T08:18:29.336Z</time></trkpt><trkpt lat="38.170979" lon="15.8411984"><ele>1343.6</ele><time>2026-04-11T08:18:30.336Z</time></trkpt><trkpt lat="38.1710493" lon="15.8412911"><ele>1345.4</ele><time>2026-04-11T08:18:31.335Z</time></trkpt><trkpt lat="38.1711221" lon="15.8413928"><ele>1347.2</ele><time>2026-04-11T08:18:32.336Z</time></trkpt><trkpt lat="38.1711954" lon="15.8414983"><ele>1349.0</ele><time>2026-04-11T08:18:33.335Z</time></trkpt><trkpt lat="38.1712663" lon="15.8416001"><ele>1349.0</ele><time>2026-04-11T08:18:34.335Z</time></trkpt><trkpt lat="38.1713375" lon="15.8417003"><ele>1349.0</ele><time>2026-04-11T08:18:35.336Z</time></trkpt><trkpt lat="38.1714094" lon="15.8418017"><ele>1349.0</ele><time>2026-04-11T08:18:36.335Z</time></trkpt><trkpt lat="38.1714796" lon="15.841898"><ele>1349.0</ele><time>2026-04-11T08:18:37.335Z</time></trkpt><trkpt lat="38.1715456" lon="15.841994"><ele>1349.0</ele><time>2026-04-11T08:18:38.335Z</time></trkpt><trkpt lat="38.1716084" lon="15.8420936"><ele>1348.8000000000002</ele><time>2026-04-11T08:18:39.335Z</time></trkpt><trkpt lat="38.1716746" lon="15.8421985"><ele>1348.6000000000001</ele><time>2026-04-11T08:18:40.335Z</time></trkpt><trkpt lat="38.1717368" lon="15.8423113"><ele>1348.4</ele><time>2026-04-11T08:18:41.335Z</time></trkpt><trkpt lat="38.1718085" lon="15.8424168"><ele>1348.2</ele><time>2026-04-11T08:18:42.335Z</time></trkpt><trkpt lat="38.1718797" lon="15.8425162"><ele>1348.0</ele><time>2026-04-11T08:18:43.335Z</time></trkpt><trkpt lat="38.1719524" lon="15.8426106"><ele>1349.4</ele><time>2026-04-11T08:18:44.335Z</time></trkpt><trkpt lat="38.17202" lon="15.8427066"><ele>1350.8000000000002</ele><time>2026-04-11T08:18:45.335Z</time></trkpt><trkpt lat="38.1720843" lon="15.8428021"><ele>1352.2</ele><time>2026-04-11T08:18:46.335Z</time></trkpt><trkpt lat="38.1721566" lon="15.8428862"><ele>1353.6</ele><time>2026-04-11T08:18:47.335Z</time></trkpt><trkpt lat="38.1722265" lon="15.8429707"><ele>1355.0</ele><time>2026-04-11T08:18:48.335Z</time></trkpt><trkpt lat="38.1722929" lon="15.8430634"><ele>1354.8</ele><time>2026-04-11T08:18:49.335Z</time></trkpt><trkpt lat="38.1723636" lon="15.8431564"><ele>1354.6</ele><time>2026-04-11T08:18:50.336Z</time></trkpt><trkpt lat="38.1724281" lon="15.8432498"><ele>1354.4</ele><time>2026-04-11T08:18:51.335Z</time></trkpt><trkpt lat="38.1724893" lon="15.8433459"><ele>1354.2</ele><time>2026-04-11T08:18:52.335Z</time></trkpt><trkpt lat="38.1725451" lon="15.8434459"><ele>1354.0</ele><time>2026-04-11T08:18:53.336Z</time></trkpt><trkpt lat="38.1726013" lon="15.8435477"><ele>1354.0</ele><time>2026-04-11T08:18:54.335Z</time></trkpt><trkpt lat="38.1726613" lon="15.8436552"><ele>1354.0</ele><time>2026-04-11T08:18:55.335Z</time></trkpt><trkpt lat="38.1727256" lon="15.8437581"><ele>1354.0</ele><time>2026-04-11T08:18:56.335Z</time></trkpt><trkpt lat="38.1727889" lon="15.8438627"><ele>1354.0</ele><time>2026-04-11T08:18:57.336Z</time></trkpt><trkpt lat="38.1728535" lon="15.8439651"><ele>1354.0</ele><time>2026-04-11T08:18:58.335Z</time></trkpt><trkpt lat="38.1729229" lon="15.8440676"><ele>1354.0</ele><time>2026-04-11T08:18:59.336Z</time></trkpt><trkpt lat="38.1729921" lon="15.8441788"><ele>1354.0</ele><time>2026-04-11T08:19:00.335Z</time></trkpt><trkpt lat="38.1730604" lon="15.8442874"><ele>1354.0</ele><time>2026-04-11T08:19:01.335Z</time></trkpt><trkpt lat="38.1731314" lon="15.8443918"><ele>1354.0</ele><time>2026-04-11T08:19:02.335Z</time></trkpt><trkpt lat="38.1732035" lon="15.844493"><ele>1354.0</ele><time>2026-04-11T08:19:03.335Z</time></trkpt><trkpt lat="38.1732798" lon="15.8445947"><ele>1354.2</ele><time>2026-04-11T08:19:04.336Z</time></trkpt><trkpt lat="38.1733538" lon="15.8446971"><ele>1354.4</ele><time>2026-04-11T08:19:05.335Z</time></trkpt><trkpt lat="38.1734227" lon="15.8448054"><ele>1354.6</ele><time>2026-04-11T08:19:06.335Z</time></trkpt><trkpt lat="38.173494" lon="15.8449145"><ele>1354.8</ele><time>2026-04-11T08:19:07.335Z</time></trkpt><trkpt lat="38.1735639" lon="15.8450254"><ele>1355.0</ele><time>2026-04-11T08:19:08.335Z</time></trkpt><trkpt lat="38.1736307" lon="15.8451436"><ele>1355.0</ele><time>2026-04-11T08:19:09.335Z</time></trkpt><trkpt lat="38.173703" lon="15.8452549"><ele>1355.0</ele><time>2026-04-11T08:19:10.335Z</time></trkpt><trkpt lat="38.1737763" lon="15.8453578"><ele>1355.0</ele><time>2026-04-11T08:19:11.335Z</time></trkpt><trkpt lat="38.1738512" lon="15.8454524"><ele>1355.0</ele><time>2026-04-11T08:19:12.335Z</time></trkpt><trkpt lat="38.1739323" lon="15.8455317"><ele>1355.0</ele><time>2026-04-11T08:19:13.336Z</time></trkpt><trkpt lat="38.1740205" lon="15.8455851"><ele>1354.0</ele><time>2026-04-11T08:19:14.335Z</time></trkpt><trkpt lat="38.1741155" lon="15.8456196"><ele>1353.0</ele><time>2026-04-11T08:19:15.335Z</time></trkpt><trkpt lat="38.1742123" lon="15.8456359"><ele>1352.0</ele><time>2026-04-11T08:19:16.335Z</time></trkpt><trkpt lat="38.1743077" lon="15.8456441"><ele>1351.0</ele><time>2026-04-11T08:19:17.336Z</time></trkpt><trkpt lat="38.1744071" lon="15.845659"><ele>1350.0</ele><time>2026-04-11T08:19:18.335Z</time></trkpt><trkpt lat="38.1745034" lon="15.8456878"><ele>1350.0</ele><time>2026-04-11T08:19:19.335Z</time></trkpt><trkpt lat="38.1745997" lon="15.8457335"><ele>1350.0</ele><time>2026-04-11T08:19:20.336Z</time></trkpt><trkpt lat="38.1747229" lon="15.8458305"><ele>1350.0</ele><time>2026-04-11T08:19:21.335Z</time></trkpt><trkpt lat="38.1748333" lon="15.8459243"><ele>1350.0</ele><time>2026-04-11T08:19:22.335Z</time></trkpt><trkpt lat="38.1749218" lon="15.8460359"><ele>1346.0</ele><time>2026-04-11T08:19:23.336Z</time></trkpt><trkpt lat="38.1749997" lon="15.8461522"><ele>1342.0</ele><time>2026-04-11T08:19:24.335Z</time></trkpt><trkpt lat="38.1750559" lon="15.8462788"><ele>1338.0</ele><time>2026-04-11T08:19:25.336Z</time></trkpt><trkpt lat="38.1750965" lon="15.8464123"><ele>1334.0</ele><time>2026-04-11T08:19:26.335Z</time></trkpt><trkpt lat="38.175114" lon="15.8465531"><ele>1334.0</ele><time>2026-04-11T08:19:27.335Z</time></trkpt><trkpt lat="38.1751" lon="15.8466912"><ele>1334.0</ele><time>2026-04-11T08:19:28.336Z</time></trkpt><trkpt lat="38.1750469" lon="15.8468172"><ele>1334.0</ele><time>2026-04-11T08:19:29.335Z</time></trkpt><trkpt lat="38.1749811" lon="15.8469323"><ele>1334.0</ele><time>2026-04-11T08:19:30.335Z</time></trkpt><trkpt lat="38.1749009" lon="15.8470452"><ele>1337.6</ele><time>2026-04-11T08:19:31.336Z</time></trkpt><trkpt lat="38.1748267" lon="15.8471487"><ele>1341.2</ele><time>2026-04-11T08:19:32.335Z</time></trkpt><trkpt lat="38.1747605" lon="15.8472482"><ele>1344.8</ele><time>2026-04-11T08:19:33.335Z</time></trkpt><trkpt lat="38.1747164" lon="15.847346"><ele>1348.3999999999999</ele><time>2026-04-11T08:19:34.336Z</time></trkpt><trkpt lat="38.1746961" lon="15.8474525"><ele>1352.0</ele><time>2026-04-11T08:19:35.335Z</time></trkpt><trkpt lat="38.1746856" lon="15.847564"><ele>1352.25</ele><time>2026-04-11T08:19:36.335Z</time></trkpt><trkpt lat="38.1746974" lon="15.8477026"><ele>1352.5</ele><time>2026-04-11T08:19:37.336Z</time></trkpt><trkpt lat="38.1747224" lon="15.8478444"><ele>1352.75</ele><time>2026-04-11T08:19:38.336Z</time></trkpt><trkpt lat="38.1747642" lon="15.8479882"><ele>1353.0</ele><time>2026-04-11T08:19:39.335Z</time></trkpt><trkpt lat="38.1748087" lon="15.8481271"><ele>1347.6000000000001</ele><time>2026-04-11T08:19:40.335Z</time></trkpt><trkpt lat="38.1748614" lon="15.8482647"><ele>1342.2</ele><time>2026-04-11T08:19:41.335Z</time></trkpt><trkpt lat="38.1749237" lon="15.848388"><ele>1336.8</ele><time>2026-04-11T08:19:42.335Z</time></trkpt><trkpt lat="38.1749965" lon="15.8484967"><ele>1331.4</ele><time>2026-04-11T08:19:43.335Z</time></trkpt><trkpt lat="38.1750725" lon="15.8485727"><ele>1326.0</ele><time>2026-04-11T08:19:44.335Z</time></trkpt><trkpt lat="38.175145" lon="15.8486272"><ele>1326.0</ele><time>2026-04-11T08:19:45.336Z</time></trkpt><trkpt lat="38.1752" lon="15.8486892"><ele>1326.0</ele><time>2026-04-11T08:19:46.335Z</time></trkpt><trkpt lat="38.1752187" lon="15.8488273"><ele>1326.0</ele><time>2026-04-11T08:19:48.335Z</time></trkpt><trkpt lat="38.1751528" lon="15.8489811"><ele>1326.0</ele><time>2026-04-11T08:19:50.335Z</time></trkpt><trkpt lat="38.1751198" lon="15.849076"><ele>1326.0</ele><time>2026-04-11T08:19:51.335Z</time></trkpt><trkpt lat="38.1751065" lon="15.8491669"><ele>1326.0</ele><time>2026-04-11T08:19:52.335Z</time></trkpt><trkpt lat="38.1751115" lon="15.8492643"><ele>1326.0</ele><time>2026-04-11T08:19:53.335Z</time></trkpt><trkpt lat="38.1751354" lon="15.8493843"><ele>1326.0</ele><time>2026-04-11T08:19:54.335Z</time></trkpt><trkpt lat="38.1751839" lon="15.8495"><ele>1326.0</ele><time>2026-04-11T08:19:55.335Z</time></trkpt><trkpt lat="38.1752424" lon="15.8496071"><ele>1326.0</ele><time>2026-04-11T08:19:56.336Z</time></trkpt><trkpt lat="38.175307" lon="15.8496974"><ele>1325.8333333333333</ele><time>2026-04-11T08:19:57.335Z</time></trkpt><trkpt lat="38.1753732" lon="15.8497375"><ele>1325.6666666666667</ele><time>2026-04-11T08:19:58.335Z</time></trkpt><trkpt lat="38.1754516" lon="15.8497407"><ele>1325.5</ele><time>2026-04-11T08:19:59.335Z</time></trkpt><trkpt lat="38.1755356" lon="15.8497153"><ele>1325.3333333333335</ele><time>2026-04-11T08:20:00.335Z</time></trkpt><trkpt lat="38.1756314" lon="15.8496706"><ele>1325.1666666666667</ele><time>2026-04-11T08:20:01.336Z</time></trkpt><trkpt lat="38.175731" lon="15.8496169"><ele>1325.0</ele><time>2026-04-11T08:20:02.336Z</time></trkpt><trkpt lat="38.1758434" lon="15.8495738"><ele>1325.0</ele><time>2026-04-11T08:20:03.335Z</time></trkpt><trkpt lat="38.1759525" lon="15.849544"><ele>1325.0</ele><time>2026-04-11T08:20:04.335Z</time></trkpt><trkpt lat="38.1760542" lon="15.8495091"><ele>1325.0</ele><time>2026-04-11T08:20:05.336Z</time></trkpt><trkpt lat="38.1761522" lon="15.8494597"><ele>1325.0</ele><time>2026-04-11T08:20:06.335Z</time></trkpt><trkpt lat="38.1762368" lon="15.8494113"><ele>1325.0</ele><time>2026-04-11T08:20:07.335Z</time></trkpt><trkpt lat="38.1763161" lon="15.8493495"><ele>1326.2</ele><time>2026-04-11T08:20:08.336Z</time></trkpt><trkpt lat="38.1763818" lon="15.8492746"><ele>1327.4</ele><time>2026-04-11T08:20:09.335Z</time></trkpt><trkpt lat="38.1764381" lon="15.8491844"><ele>1328.6</ele><time>2026-04-11T08:20:10.336Z</time></trkpt><trkpt lat="38.1764954" lon="15.8490789"><ele>1329.8</ele><time>2026-04-11T08:20:11.335Z</time></trkpt><trkpt lat="38.1765462" lon="15.8489756"><ele>1331.0</ele><time>2026-04-11T08:20:12.335Z</time></trkpt><trkpt lat="38.1765853" lon="15.8488665"><ele>1331.0</ele><time>2026-04-11T08:20:13.335Z</time></trkpt><trkpt lat="38.176636" lon="15.8487569"><ele>1331.0</ele><time>2026-04-11T08:20:14.336Z</time></trkpt><trkpt lat="38.1766791" lon="15.8486461"><ele>1331.0</ele><time>2026-04-11T08:20:15.335Z</time></trkpt><trkpt lat="38.1767117" lon="15.8485368"><ele>1331.0</ele><time>2026-04-11T08:20:16.335Z</time></trkpt><trkpt lat="38.1767378" lon="15.8484236"><ele>1331.0</ele><time>2026-04-11T08:20:17.335Z</time></trkpt><trkpt lat="38.1767544" lon="15.8483129"><ele>1328.6</ele><time>2026-04-11T08:20:18.335Z</time></trkpt><trkpt lat="38.176774" lon="15.8481935"><ele>1326.1999999999998</ele><time>2026-04-11T08:20:19.335Z</time></trkpt><trkpt lat="38.1768035" lon="15.848075"><ele>1323.8000000000002</ele><time>2026-04-11T08:20:20.335Z</time></trkpt><trkpt lat="38.1768551" lon="15.8479625"><ele>1321.4</ele><time>2026-04-11T08:20:21.335Z</time></trkpt><trkpt lat="38.17692" lon="15.8478734"><ele>1319.0</ele><time>2026-04-11T08:20:22.335Z</time></trkpt><trkpt lat="38.1769948" lon="15.847785"><ele>1319.0</ele><time>2026-04-11T08:20:23.335Z</time></trkpt><trkpt lat="38.1770732" lon="15.8476945"><ele>1319.0</ele><time>2026-04-11T08:20:24.336Z</time></trkpt><trkpt lat="38.1771448" lon="15.8475885"><ele>1319.0</ele><time>2026-04-11T08:20:25.335Z</time></trkpt><trkpt lat="38.1772045" lon="15.8474866"><ele>1319.0</ele><time>2026-04-11T08:20:26.335Z</time></trkpt><trkpt lat="38.1772473" lon="15.8473709"><ele>1319.0</ele><time>2026-04-11T08:20:27.335Z</time></trkpt><trkpt lat="38.1772794" lon="15.8472428"><ele>1320.4</ele><time>2026-04-11T08:20:28.335Z</time></trkpt><trkpt lat="38.1773094" lon="15.847118"><ele>1321.8000000000002</ele><time>2026-04-11T08:20:29.335Z</time></trkpt><trkpt lat="38.177335" lon="15.8469924"><ele>1323.1999999999998</ele><time>2026-04-11T08:20:30.336Z</time></trkpt><trkpt lat="38.1773678" lon="15.846881"><ele>1324.6</ele><time>2026-04-11T08:20:31.335Z</time></trkpt><trkpt lat="38.1774186" lon="15.8467761"><ele>1326.0</ele><time>2026-04-11T08:20:32.336Z</time></trkpt><trkpt lat="38.177493" lon="15.8466847"><ele>1326.0</ele><time>2026-04-11T08:20:33.335Z</time></trkpt><trkpt lat="38.1775582" lon="15.8465708"><ele>1326.0</ele><time>2026-04-11T08:20:34.335Z</time></trkpt><trkpt lat="38.1776222" lon="15.8464504"><ele>1326.0</ele><time>2026-04-11T08:20:35.335Z</time></trkpt><trkpt lat="38.1776925" lon="15.8463308"><ele>1326.0</ele><time>2026-04-11T08:20:36.335Z</time></trkpt><trkpt lat="38.1777478" lon="15.8461952"><ele>1326.0</ele><time>2026-04-11T08:20:37.335Z</time></trkpt><trkpt lat="38.1777976" lon="15.8460643"><ele>1326.0</ele><time>2026-04-11T08:20:38.335Z</time></trkpt><trkpt lat="38.1778506" lon="15.8459231"><ele>1326.0</ele><time>2026-04-11T08:20:39.335Z</time></trkpt><trkpt lat="38.1779019" lon="15.8457809"><ele>1326.0</ele><time>2026-04-11T08:20:40.335Z</time></trkpt><trkpt lat="38.1779454" lon="15.8456476"><ele>1326.25</ele><time>2026-04-11T08:20:41.335Z</time></trkpt><trkpt lat="38.1779939" lon="15.8455218"><ele>1326.5</ele><time>2026-04-11T08:20:42.336Z</time></trkpt><trkpt lat="38.1780534" lon="15.8454008"><ele>1326.75</ele><time>2026-04-11T08:20:43.335Z</time></trkpt><trkpt lat="38.1781232" lon="15.845284"><ele>1327.0</ele><time>2026-04-11T08:20:44.335Z</time></trkpt><trkpt lat="38.178203" lon="15.8451812"><ele>1326.1999999999998</ele><time>2026-04-11T08:20:45.335Z</time></trkpt><trkpt lat="38.1782877" lon="15.8450889"><ele>1325.4</ele><time>2026-04-11T08:20:46.335Z</time></trkpt><trkpt lat="38.1783721" lon="15.8450088"><ele>1324.6</ele><time>2026-04-11T08:20:47.335Z</time></trkpt><trkpt lat="38.1784517" lon="15.8449323"><ele>1323.8000000000002</ele><time>2026-04-11T08:20:48.335Z</time></trkpt><trkpt lat="38.1785223" lon="15.8448594"><ele>1323.0</ele><time>2026-04-11T08:20:49.335Z</time></trkpt><trkpt lat="38.1785981" lon="15.8447878"><ele>1323.0</ele><time>2026-04-11T08:20:50.335Z</time></trkpt><trkpt lat="38.1786773" lon="15.8447199"><ele>1323.0</ele><time>2026-04-11T08:20:51.336Z</time></trkpt><trkpt lat="38.1787505" lon="15.8446749"><ele>1323.0</ele><time>2026-04-11T08:20:52.336Z</time></trkpt><trkpt lat="38.1788326" lon="15.8446173"><ele>1323.0</ele><time>2026-04-11T08:20:54.336Z</time></trkpt><trkpt lat="38.178905" lon="15.8445607"><ele>1323.0</ele><time>2026-04-11T08:22:31.335Z</time></trkpt><trkpt lat="38.1789722" lon="15.8444939"><ele>1323.0</ele><time>2026-04-11T08:22:33.335Z</time></trkpt><trkpt lat="38.1790563" lon="15.8444291"><ele>1323.2</ele><time>2026-04-11T08:22:35.335Z</time></trkpt><trkpt lat="38.179179" lon="15.8443656"><ele>1323.4</ele><time>2026-04-11T08:22:37.335Z</time></trkpt><trkpt lat="38.1792584" lon="15.8443347"><ele>1323.6000000000001</ele><time>2026-04-11T08:22:38.335Z</time></trkpt><trkpt lat="38.1793453" lon="15.8443042"><ele>1323.8000000000002</ele><time>2026-04-11T08:22:39.335Z</time></trkpt><trkpt lat="38.1794379" lon="15.8442673"><ele>1324.0</ele><time>2026-04-11T08:22:40.335Z</time></trkpt><trkpt lat="38.1795319" lon="15.8442275"><ele>1324.2</ele><time>2026-04-11T08:22:41.335Z</time></trkpt><trkpt lat="38.1796306" lon="15.8441895"><ele>1324.4</ele><time>2026-04-11T08:22:42.335Z</time></trkpt><trkpt lat="38.1797315" lon="15.8441451"><ele>1324.6</ele><time>2026-04-11T08:22:43.335Z</time></trkpt><trkpt lat="38.1798376" lon="15.8440969"><ele>1324.8</ele><time>2026-04-11T08:22:44.336Z</time></trkpt><trkpt lat="38.1799444" lon="15.8440548"><ele>1325.0</ele><time>2026-04-11T08:22:45.335Z</time></trkpt><trkpt lat="38.1800576" lon="15.8440085"><ele>1323.25</ele><time>2026-04-11T08:22:46.336Z</time></trkpt><trkpt lat="38.1801731" lon="15.8439616"><ele>1321.5</ele><time>2026-04-11T08:22:47.335Z</time></trkpt><trkpt lat="38.1802874" lon="15.8439104"><ele>1319.75</ele><time>2026-04-11T08:22:48.336Z</time></trkpt><trkpt lat="38.1804008" lon="15.8438584"><ele>1318.0</ele><time>2026-04-11T08:22:49.335Z</time></trkpt><trkpt lat="38.1805092" lon="15.843814"><ele>1318.0</ele><time>2026-04-11T08:22:50.336Z</time></trkpt><trkpt lat="38.1806155" lon="15.8437726"><ele>1318.0</ele><time>2026-04-11T08:22:51.335Z</time></trkpt><trkpt lat="38.1807173" lon="15.8437313"><ele>1318.0</ele><time>2026-04-11T08:22:52.336Z</time></trkpt><trkpt lat="38.1808304" lon="15.8436892"><ele>1318.0</ele><time>2026-04-11T08:22:53.335Z</time></trkpt><trkpt lat="38.180944" lon="15.8436388"><ele>1317.5</ele><time>2026-04-11T08:22:54.335Z</time></trkpt><trkpt lat="38.1810531" lon="15.8435824"><ele>1317.0</ele><time>2026-04-11T08:22:55.335Z</time></trkpt><trkpt lat="38.1811587" lon="15.8435174"><ele>1316.5</ele><time>2026-04-11T08:22:56.335Z</time></trkpt><trkpt lat="38.1812587" lon="15.8434381"><ele>1316.0</ele><time>2026-04-11T08:22:57.335Z</time></trkpt><trkpt lat="38.1813627" lon="15.8433512"><ele>1315.0</ele><time>2026-04-11T08:22:58.335Z</time></trkpt><trkpt lat="38.1814616" lon="15.8432549"><ele>1314.0</ele><time>2026-04-11T08:22:59.336Z</time></trkpt><trkpt lat="38.1815496" lon="15.8431578"><ele>1313.0</ele><time>2026-04-11T08:23:00.336Z</time></trkpt><trkpt lat="38.1816395" lon="15.8430666"><ele>1312.0</ele><time>2026-04-11T08:23:01.335Z</time></trkpt><trkpt lat="38.1817276" lon="15.8429871"><ele>1311.6</ele><time>2026-04-11T08:23:02.335Z</time></trkpt><trkpt lat="38.181817" lon="15.8429004"><ele>1311.1999999999998</ele><time>2026-04-11T08:23:03.335Z</time></trkpt><trkpt lat="38.1819067" lon="15.8428215"><ele>1310.8</ele><time>2026-04-11T08:23:04.336Z</time></trkpt><trkpt lat="38.1819968" lon="15.8427532"><ele>1310.4</ele><time>2026-04-11T08:23:05.335Z</time></trkpt><trkpt lat="38.1820822" lon="15.8427028"><ele>1310.0</ele><time>2026-04-11T08:23:06.335Z</time></trkpt><trkpt lat="38.1821582" lon="15.842675"><ele>1310.0</ele><time>2026-04-11T08:23:07.335Z</time></trkpt><trkpt lat="38.1822411" lon="15.8426674"><ele>1310.0</ele><time>2026-04-11T08:23:08.335Z</time></trkpt><trkpt lat="38.1823305" lon="15.8426821"><ele>1310.0</ele><time>2026-04-11T08:23:09.336Z</time></trkpt><trkpt lat="38.182416" lon="15.8427288"><ele>1310.0</ele><time>2026-04-11T08:23:10.335Z</time></trkpt><trkpt lat="38.1824982" lon="15.8428379"><ele>1310.0</ele><time>2026-04-11T08:23:11.335Z</time></trkpt><trkpt lat="38.1825842" lon="15.8429524"><ele>1310.0</ele><time>2026-04-11T08:23:12.335Z</time></trkpt><trkpt lat="38.1826709" lon="15.8430262"><ele>1310.0</ele><time>2026-04-11T08:23:13.335Z</time></trkpt><trkpt lat="38.1827559" lon="15.8430604"><ele>1310.0</ele><time>2026-04-11T08:23:14.335Z</time></trkpt><trkpt lat="38.1828365" lon="15.8430671"><ele>1310.0</ele><time>2026-04-11T08:23:15.335Z</time></trkpt><trkpt lat="38.1829251" lon="15.8430081"><ele>1310.0</ele><time>2026-04-11T08:23:16.335Z</time></trkpt><trkpt lat="38.1830106" lon="15.8429355"><ele>1310.0</ele><time>2026-04-11T08:23:17.335Z</time></trkpt><trkpt lat="38.183097" lon="15.8428137"><ele>1310.0</ele><time>2026-04-11T08:23:18.335Z</time></trkpt><trkpt lat="38.1831963" lon="15.8427016"><ele>1310.0</ele><time>2026-04-11T08:23:19.335Z</time></trkpt><trkpt lat="38.1832993" lon="15.8426194"><ele>1310.0</ele><time>2026-04-11T08:23:20.336Z</time></trkpt><trkpt lat="38.1834211" lon="15.8425577"><ele>1305.3333333333335</ele><time>2026-04-11T08:23:21.335Z</time></trkpt><trkpt lat="38.1835618" lon="15.8425101"><ele>1300.6666666666667</ele><time>2026-04-11T08:23:22.336Z</time></trkpt><trkpt lat="38.1837138" lon="15.8424619"><ele>1296.0</ele><time>2026-04-11T08:23:23.335Z</time></trkpt><trkpt lat="38.1838632" lon="15.8424055"><ele>1296.0</ele><time>2026-04-11T08:23:24.335Z</time></trkpt><trkpt lat="38.1839965" lon="15.8423484"><ele>1296.0</ele><time>2026-04-11T08:23:25.335Z</time></trkpt><trkpt lat="38.184119" lon="15.8423183"><ele>1296.0</ele><time>2026-04-11T08:23:26.336Z</time></trkpt><trkpt lat="38.1842395" lon="15.8423058"><ele>1296.0</ele><time>2026-04-11T08:23:27.335Z</time></trkpt><trkpt lat="38.1843575" lon="15.8423148"><ele>1295.0</ele><time>2026-04-11T08:23:28.335Z</time></trkpt><trkpt lat="38.1844621" lon="15.842352"><ele>1294.0</ele><time>2026-04-11T08:23:29.335Z</time></trkpt><trkpt lat="38.1845535" lon="15.8424159"><ele>1293.0</ele><time>2026-04-11T08:23:30.335Z</time></trkpt><trkpt lat="38.1846257" lon="15.8424937"><ele>1292.0</ele><time>2026-04-11T08:23:31.335Z</time></trkpt><trkpt lat="38.1846687" lon="15.8425825"><ele>1291.0</ele><time>2026-04-11T08:23:32.336Z</time></trkpt><trkpt lat="38.1846794" lon="15.8427009"><ele>1291.0</ele><time>2026-04-11T08:23:33.336Z</time></trkpt><trkpt lat="38.1846565" lon="15.8428534"><ele>1291.0</ele><time>2026-04-11T08:23:34.335Z</time></trkpt><trkpt lat="38.1845844" lon="15.8430284"><ele>1291.0</ele><time>2026-04-11T08:23:35.335Z</time></trkpt><trkpt lat="38.1845099" lon="15.8431946"><ele>1291.0</ele><time>2026-04-11T08:23:36.335Z</time></trkpt><trkpt lat="38.1844404" lon="15.8433543"><ele>1290.0</ele><time>2026-04-11T08:23:37.335Z</time></trkpt><trkpt lat="38.1843721" lon="15.8434946"><ele>1289.0</ele><time>2026-04-11T08:23:38.335Z</time></trkpt><trkpt lat="38.1843178" lon="15.8436195"><ele>1288.0</ele><time>2026-04-11T08:23:39.336Z</time></trkpt><trkpt lat="38.1842555" lon="15.8437178"><ele>1287.0</ele><time>2026-04-11T08:23:40.335Z</time></trkpt><trkpt lat="38.1841838" lon="15.8437846"><ele>1286.0</ele><time>2026-04-11T08:23:41.336Z</time></trkpt><trkpt lat="38.1841011" lon="15.8438291"><ele>1289.5</ele><time>2026-04-11T08:23:42.335Z</time></trkpt><trkpt lat="38.1840102" lon="15.8438654"><ele>1293.0</ele><time>2026-04-11T08:23:43.336Z</time></trkpt><trkpt lat="38.183919" lon="15.8439022"><ele>1296.5</ele><time>2026-04-11T08:23:44.335Z</time></trkpt><trkpt lat="38.1838419" lon="15.8439474"><ele>1300.0</ele><time>2026-04-11T08:23:45.335Z</time></trkpt><trkpt lat="38.1837858" lon="15.8440137"><ele>1303.5</ele><time>2026-04-11T08:23:46.336Z</time></trkpt><trkpt lat="38.1837564" lon="15.8441084"><ele>1307.0</ele><time>2026-04-11T08:23:47.335Z</time></trkpt><trkpt lat="38.1837572" lon="15.8441951"><ele>1307.0</ele><time>2026-04-11T08:23:48.335Z</time></trkpt><trkpt lat="38.183803" lon="15.8442667"><ele>1307.0</ele><time>2026-04-11T08:23:49.335Z</time></trkpt><trkpt lat="38.1838802" lon="15.8443025"><ele>1307.0</ele><time>2026-04-11T08:23:50.335Z</time></trkpt><trkpt lat="38.1839632" lon="15.8443136"><ele>1307.0</ele><time>2026-04-11T08:23:51.335Z</time></trkpt><trkpt lat="38.1841202" lon="15.8442682"><ele>1307.0</ele><time>2026-04-11T08:23:52.335Z</time></trkpt><trkpt lat="38.1842425" lon="15.8442317"><ele>1301.75</ele><time>2026-04-11T08:23:53.336Z</time></trkpt><trkpt lat="38.1843661" lon="15.8441744"><ele>1296.5</ele><time>2026-04-11T08:23:54.335Z</time></trkpt><trkpt lat="38.1844984" lon="15.8440955"><ele>1291.25</ele><time>2026-04-11T08:23:55.335Z</time></trkpt><trkpt lat="38.1846376" lon="15.8439895"><ele>1286.0</ele><time>2026-04-11T08:23:56.336Z</time></trkpt><trkpt lat="38.1847768" lon="15.8438894"><ele>1285.0</ele><time>2026-04-11T08:23:57.336Z</time></trkpt><trkpt lat="38.1848966" lon="15.8438066"><ele>1284.0</ele><time>2026-04-11T08:23:58.335Z</time></trkpt><trkpt lat="38.1850161" lon="15.8437288"><ele>1283.0</ele><time>2026-04-11T08:23:59.335Z</time></trkpt><trkpt lat="38.1851391" lon="15.843663"><ele>1282.0</ele><time>2026-04-11T08:24:00.335Z</time></trkpt><trkpt lat="38.1852526" lon="15.8435911"><ele>1282.0</ele><time>2026-04-11T08:24:01.336Z</time></trkpt><trkpt lat="38.1853698" lon="15.8435127"><ele>1282.0</ele><time>2026-04-11T08:24:02.335Z</time></trkpt><trkpt lat="38.1854796" lon="15.8434263"><ele>1282.0</ele><time>2026-04-11T08:24:03.335Z</time></trkpt><trkpt lat="38.1855893" lon="15.8433379"><ele>1282.0</ele><time>2026-04-11T08:24:04.335Z</time></trkpt><trkpt lat="38.1856845" lon="15.8432567"><ele>1278.1999999999998</ele><time>2026-04-11T08:24:05.335Z</time></trkpt><trkpt lat="38.1857826" lon="15.8431947"><ele>1274.3999999999999</ele><time>2026-04-11T08:24:06.335Z</time></trkpt><trkpt lat="38.1858842" lon="15.8431462"><ele>1270.6</ele><time>2026-04-11T08:24:07.335Z</time></trkpt><trkpt lat="38.1859871" lon="15.8431169"><ele>1266.8</ele><time>2026-04-11T08:24:08.335Z</time></trkpt><trkpt lat="38.186084" lon="15.8431185"><ele>1263.0</ele><time>2026-04-11T08:24:09.335Z</time></trkpt><trkpt lat="38.1861756" lon="15.8431389"><ele>1263.0</ele><time>2026-04-11T08:24:10.335Z</time></trkpt><trkpt lat="38.1862682" lon="15.8432073"><ele>1263.0</ele><time>2026-04-11T08:24:11.335Z</time></trkpt><trkpt lat="38.186374" lon="15.8433162"><ele>1263.0</ele><time>2026-04-11T08:24:12.335Z</time></trkpt><trkpt lat="38.1864708" lon="15.8434154"><ele>1263.0</ele><time>2026-04-11T08:24:13.335Z</time></trkpt><trkpt lat="38.1865567" lon="15.8435025"><ele>1264.6</ele><time>2026-04-11T08:24:14.335Z</time></trkpt><trkpt lat="38.186625" lon="15.8435998"><ele>1266.1999999999998</ele><time>2026-04-11T08:24:15.335Z</time></trkpt><trkpt lat="38.1866786" lon="15.8436933"><ele>1267.8</ele><time>2026-04-11T08:24:16.336Z</time></trkpt><trkpt lat="38.186733" lon="15.843797"><ele>1269.3999999999999</ele><time>2026-04-11T08:24:17.336Z</time></trkpt><trkpt lat="38.1867738" lon="15.843905"><ele>1271.0</ele><time>2026-04-11T08:24:18.336Z</time></trkpt><trkpt lat="38.1868097" lon="15.8440037"><ele>1271.0</ele><time>2026-04-11T08:24:19.336Z</time></trkpt><trkpt lat="38.1868591" lon="15.8440972"><ele>1271.0</ele><time>2026-04-11T08:24:20.335Z</time></trkpt><trkpt lat="38.1869208" lon="15.8441704"><ele>1271.0</ele><time>2026-04-11T08:24:21.336Z</time></trkpt><trkpt lat="38.1869999" lon="15.8442136"><ele>1271.0</ele><time>2026-04-11T08:24:22.335Z</time></trkpt><trkpt lat="38.1871072" lon="15.8442174"><ele>1271.0</ele><time>2026-04-11T08:24:23.335Z</time></trkpt><trkpt lat="38.1872131" lon="15.8442335"><ele>1271.0</ele><time>2026-04-11T08:24:24.335Z</time></trkpt><trkpt lat="38.1873066" lon="15.8442716"><ele>1271.0</ele><time>2026-04-11T08:24:25.335Z</time></trkpt><trkpt lat="38.1873981" lon="15.844339"><ele>1271.0</ele><time>2026-04-11T08:24:26.336Z</time></trkpt><trkpt lat="38.1874763" lon="15.844443"><ele>1271.0</ele><time>2026-04-11T08:24:27.335Z</time></trkpt><trkpt lat="38.1875402" lon="15.8445505"><ele>1271.0</ele><time>2026-04-11T08:24:28.336Z</time></trkpt><trkpt lat="38.1875954" lon="15.8446634"><ele>1269.3999999999999</ele><time>2026-04-11T08:24:29.335Z</time></trkpt><trkpt lat="38.1876467" lon="15.8447936"><ele>1267.8</ele><time>2026-04-11T08:24:30.335Z</time></trkpt><trkpt lat="38.1876881" lon="15.8449201"><ele>1266.1999999999998</ele><time>2026-04-11T08:24:31.335Z</time></trkpt><trkpt lat="38.187714" lon="15.8450473"><ele>1264.6</ele><time>2026-04-11T08:24:32.336Z</time></trkpt><trkpt lat="38.1877226" lon="15.8451675"><ele>1263.0</ele><time>2026-04-11T08:24:33.335Z</time></trkpt><trkpt lat="38.187713" lon="15.845304"><ele>1262.75</ele><time>2026-04-11T08:24:34.336Z</time></trkpt><trkpt lat="38.1876917" lon="15.8454341"><ele>1262.5</ele><time>2026-04-11T08:24:35.335Z</time></trkpt><trkpt lat="38.1876706" lon="15.8455793"><ele>1262.25</ele><time>2026-04-11T08:24:36.336Z</time></trkpt><trkpt lat="38.1876442" lon="15.8457342"><ele>1262.0</ele><time>2026-04-11T08:24:37.335Z</time></trkpt><trkpt lat="38.187609" lon="15.8458744"><ele>1261.0</ele><time>2026-04-11T08:24:38.336Z</time></trkpt><trkpt lat="38.1875821" lon="15.8460116"><ele>1260.0</ele><time>2026-04-11T08:24:39.335Z</time></trkpt><trkpt lat="38.1875602" lon="15.8461439"><ele>1259.0</ele><time>2026-04-11T08:24:40.335Z</time></trkpt><trkpt lat="38.1875577" lon="15.8462586"><ele>1258.0</ele><time>2026-04-11T08:24:41.335Z</time></trkpt><trkpt lat="38.1875623" lon="15.8463471"><ele>1257.0</ele><time>2026-04-11T08:24:42.335Z</time></trkpt><trkpt lat="38.187625" lon="15.8464602"><ele>1257.0</ele><time>2026-04-11T08:24:44.336Z</time></trkpt><trkpt lat="38.1876885" lon="15.846486"><ele>1257.0</ele><time>2026-04-11T08:24:45.335Z</time></trkpt><trkpt lat="38.1877854" lon="15.8464696"><ele>1257.0</ele><time>2026-04-11T08:24:46.335Z</time></trkpt><trkpt lat="38.1878978" lon="15.8464196"><ele>1257.0</ele><time>2026-04-11T08:24:47.335Z</time></trkpt><trkpt lat="38.1879932" lon="15.8463299"><ele>1257.0</ele><time>2026-04-11T08:24:48.335Z</time></trkpt><trkpt lat="38.1880758" lon="15.8462239"><ele>1257.0</ele><time>2026-04-11T08:24:49.335Z</time></trkpt><trkpt lat="38.1881498" lon="15.8460992"><ele>1257.0</ele><time>2026-04-11T08:24:50.335Z</time></trkpt><trkpt lat="38.1882372" lon="15.8459293"><ele>1257.0</ele><time>2026-04-11T08:24:51.335Z</time></trkpt><trkpt lat="38.1883287" lon="15.8457435"><ele>1253.75</ele><time>2026-04-11T08:24:52.336Z</time></trkpt><trkpt lat="38.1884097" lon="15.8455826"><ele>1250.5</ele><time>2026-04-11T08:24:53.335Z</time></trkpt><trkpt lat="38.1884774" lon="15.845436"><ele>1247.25</ele><time>2026-04-11T08:24:54.335Z</time></trkpt><trkpt lat="38.1885374" lon="15.8453043"><ele>1244.0</ele><time>2026-04-11T08:24:55.335Z</time></trkpt><trkpt lat="38.1885893" lon="15.8451885"><ele>1241.75</ele><time>2026-04-11T08:24:56.336Z</time></trkpt><trkpt lat="38.1886365" lon="15.8450777"><ele>1239.5</ele><time>2026-04-11T08:24:57.335Z</time></trkpt><trkpt lat="38.1886859" lon="15.84496"><ele>1237.25</ele><time>2026-04-11T08:24:58.336Z</time></trkpt><trkpt lat="38.1887308" lon="15.8448189"><ele>1235.0</ele><time>2026-04-11T08:24:59.335Z</time></trkpt><trkpt lat="38.1887407" lon="15.844654"><ele>1235.0</ele><time>2026-04-11T08:25:00.335Z</time></trkpt><trkpt lat="38.1887329" lon="15.8444901"><ele>1235.0</ele><time>2026-04-11T08:25:01.335Z</time></trkpt><trkpt lat="38.1887113" lon="15.8443213"><ele>1235.0</ele><time>2026-04-11T08:25:02.335Z</time></trkpt><trkpt lat="38.1887011" lon="15.8441596"><ele>1235.0</ele><time>2026-04-11T08:25:03.335Z</time></trkpt><trkpt lat="38.1886868" lon="15.8440078"><ele>1232.75</ele><time>2026-04-11T08:25:04.336Z</time></trkpt><trkpt lat="38.1886755" lon="15.8438444"><ele>1230.5</ele><time>2026-04-11T08:25:05.335Z</time></trkpt><trkpt lat="38.1886716" lon="15.843702"><ele>1228.25</ele><time>2026-04-11T08:25:06.336Z</time></trkpt><trkpt lat="38.1886841" lon="15.8435658"><ele>1226.0</ele><time>2026-04-11T08:25:07.336Z</time></trkpt><trkpt lat="38.188714" lon="15.8434311"><ele>1225.6</ele><time>2026-04-11T08:25:08.336Z</time></trkpt><trkpt lat="38.1887744" lon="15.8433058"><ele>1225.1999999999998</ele><time>2026-04-11T08:25:09.336Z</time></trkpt><trkpt lat="38.1888475" lon="15.8431961"><ele>1224.8000000000002</ele><time>2026-04-11T08:25:10.336Z</time></trkpt><trkpt lat="38.1889258" lon="15.8430973"><ele>1224.4</ele><time>2026-04-11T08:25:11.335Z</time></trkpt><trkpt lat="38.1890138" lon="15.8430269"><ele>1224.0</ele><time>2026-04-11T08:25:12.335Z</time></trkpt><trkpt lat="38.1891137" lon="15.8429871"><ele>1224.0</ele><time>2026-04-11T08:25:13.335Z</time></trkpt><trkpt lat="38.1892154" lon="15.8429718"><ele>1224.0</ele><time>2026-04-11T08:25:14.335Z</time></trkpt><trkpt lat="38.1893265" lon="15.8429585"><ele>1224.0</ele><time>2026-04-11T08:25:15.335Z</time></trkpt><trkpt lat="38.1894356" lon="15.8429392"><ele>1224.0</ele><time>2026-04-11T08:25:16.335Z</time></trkpt><trkpt lat="38.1895455" lon="15.8429102"><ele>1224.0</ele><time>2026-04-11T08:25:17.335Z</time></trkpt><trkpt lat="38.1896597" lon="15.8429015"><ele>1224.0</ele><time>2026-04-11T08:25:18.335Z</time></trkpt><trkpt lat="38.189768" lon="15.8429121"><ele>1224.0</ele><time>2026-04-11T08:25:19.335Z</time></trkpt><trkpt lat="38.1898668" lon="15.8429537"><ele>1224.0</ele><time>2026-04-11T08:25:20.335Z</time></trkpt><trkpt lat="38.1899632" lon="15.843006"><ele>1224.0</ele><time>2026-04-11T08:25:21.335Z</time></trkpt><trkpt lat="38.1900692" lon="15.8430761"><ele>1224.0</ele><time>2026-04-11T08:25:22.335Z</time></trkpt><trkpt lat="38.1901847" lon="15.8431506"><ele>1223.75</ele><time>2026-04-11T08:25:23.335Z</time></trkpt><trkpt lat="38.1902902" lon="15.843222"><ele>1223.5</ele><time>2026-04-11T08:25:24.335Z</time></trkpt><trkpt lat="38.1903826" lon="15.8432973"><ele>1223.25</ele><time>2026-04-11T08:25:25.335Z</time></trkpt><trkpt lat="38.1904708" lon="15.8434001"><ele>1223.0</ele><time>2026-04-11T08:25:26.335Z</time></trkpt><trkpt lat="38.1905392" lon="15.8435121"><ele>1221.5</ele><time>2026-04-11T08:25:27.335Z</time></trkpt><trkpt lat="38.1906062" lon="15.8436363"><ele>1220.0</ele><time>2026-04-11T08:25:28.335Z</time></trkpt><trkpt lat="38.1906701" lon="15.843776"><ele>1218.5</ele><time>2026-04-11T08:25:29.335Z</time></trkpt><trkpt lat="38.1907287" lon="15.8439247"><ele>1217.0</ele><time>2026-04-11T08:25:30.335Z</time></trkpt><trkpt lat="38.1907826" lon="15.8440735"><ele>1217.0</ele><time>2026-04-11T08:25:31.335Z</time></trkpt><trkpt lat="38.190834" lon="15.8442254"><ele>1217.0</ele><time>2026-04-11T08:25:32.335Z</time></trkpt><trkpt lat="38.1908877" lon="15.8443854"><ele>1217.0</ele><time>2026-04-11T08:25:33.335Z</time></trkpt><trkpt lat="38.1909419" lon="15.844545"><ele>1217.0</ele><time>2026-04-11T08:25:34.335Z</time></trkpt><trkpt lat="38.190988" lon="15.8446942"><ele>1219.75</ele><time>2026-04-11T08:25:35.336Z</time></trkpt><trkpt lat="38.1910375" lon="15.8448369"><ele>1222.5</ele><time>2026-04-11T08:25:36.335Z</time></trkpt><trkpt lat="38.1911047" lon="15.8449579"><ele>1225.25</ele><time>2026-04-11T08:25:37.336Z</time></trkpt><trkpt lat="38.1911894" lon="15.845052"><ele>1228.0</ele><time>2026-04-11T08:25:38.335Z</time></trkpt><trkpt lat="38.1912884" lon="15.8451252"><ele>1228.5</ele><time>2026-04-11T08:25:39.335Z</time></trkpt><trkpt lat="38.1914098" lon="15.8451639"><ele>1229.0</ele><time>2026-04-11T08:25:40.335Z</time></trkpt><trkpt lat="38.1915524" lon="15.84518"><ele>1229.5</ele><time>2026-04-11T08:25:41.335Z</time></trkpt><trkpt lat="38.1917158" lon="15.8451746"><ele>1230.0</ele><time>2026-04-11T08:25:42.336Z</time></trkpt><trkpt lat="38.1918933" lon="15.8451643"><ele>1230.0</ele><time>2026-04-11T08:25:43.336Z</time></trkpt><trkpt lat="38.1920617" lon="15.8451756"><ele>1230.0</ele><time>2026-04-11T08:25:44.336Z</time></trkpt><trkpt lat="38.1922347" lon="15.8452108"><ele>1230.0</ele><time>2026-04-11T08:25:45.336Z</time></trkpt><trkpt lat="38.1924065" lon="15.8452641"><ele>1223.6666666666667</ele><time>2026-04-11T08:25:46.335Z</time></trkpt><trkpt lat="38.1925753" lon="15.8452997"><ele>1217.3333333333335</ele><time>2026-04-11T08:25:47.335Z</time></trkpt><trkpt lat="38.1927517" lon="15.8453336"><ele>1211.0</ele><time>2026-04-11T08:25:48.336Z</time></trkpt><trkpt lat="38.1929257" lon="15.8453763"><ele>1211.0</ele><time>2026-04-11T08:25:49.335Z</time></trkpt><trkpt lat="38.1930903" lon="15.8454139"><ele>1211.0</ele><time>2026-04-11T08:25:50.335Z</time></trkpt><trkpt lat="38.1932506" lon="15.8454512"><ele>1211.0</ele><time>2026-04-11T08:25:51.335Z</time></trkpt><trkpt lat="38.1934106" lon="15.8454795"><ele>1204.6666666666667</ele><time>2026-04-11T08:25:52.335Z</time></trkpt><trkpt lat="38.1935708" lon="15.8455101"><ele>1198.3333333333333</ele><time>2026-04-11T08:25:53.335Z</time></trkpt><trkpt lat="38.1937269" lon="15.8455397"><ele>1192.0</ele><time>2026-04-11T08:25:54.335Z</time></trkpt><trkpt lat="38.1938833" lon="15.8455696"><ele>1191.0</ele><time>2026-04-11T08:25:55.336Z</time></trkpt><trkpt lat="38.1940329" lon="15.8456058"><ele>1190.0</ele><time>2026-04-11T08:25:56.335Z</time></trkpt><trkpt lat="38.194187" lon="15.8456466"><ele>1189.0</ele><time>2026-04-11T08:25:57.335Z</time></trkpt><trkpt lat="38.1943446" lon="15.845683"><ele>1189.0</ele><time>2026-04-11T08:25:58.335Z</time></trkpt><trkpt lat="38.1944987" lon="15.8457182"><ele>1189.0</ele><time>2026-04-11T08:25:59.335Z</time></trkpt><trkpt lat="38.1946549" lon="15.8457485"><ele>1189.0</ele><time>2026-04-11T08:26:00.335Z</time></trkpt><trkpt lat="38.1948044" lon="15.84578"><ele>1185.6666666666665</ele><time>2026-04-11T08:26:01.335Z</time></trkpt><trkpt lat="38.1949568" lon="15.8458116"><ele>1182.3333333333333</ele><time>2026-04-11T08:26:02.335Z</time></trkpt><trkpt lat="38.1951145" lon="15.8458419"><ele>1179.0</ele><time>2026-04-11T08:26:03.336Z</time></trkpt><trkpt lat="38.1952701" lon="15.8458747"><ele>1179.0</ele><time>2026-04-11T08:26:04.335Z</time></trkpt><trkpt lat="38.1954237" lon="15.8459037"><ele>1179.0</ele><time>2026-04-11T08:26:05.335Z</time></trkpt><trkpt lat="38.1955827" lon="15.8459378"><ele>1179.0</ele><time>2026-04-11T08:26:06.335Z</time></trkpt><trkpt lat="38.1957383" lon="15.8459656"><ele>1180.0</ele><time>2026-04-11T08:26:07.335Z</time></trkpt><trkpt lat="38.195895" lon="15.8459934"><ele>1181.0</ele><time>2026-04-11T08:26:08.335Z</time></trkpt><trkpt lat="38.1960517" lon="15.846023"><ele>1182.0</ele><time>2026-04-11T08:26:09.335Z</time></trkpt><trkpt lat="38.1962181" lon="15.8460563"><ele>1182.0</ele><time>2026-04-11T08:26:10.336Z</time></trkpt><trkpt lat="38.1963793" lon="15.8460897"><ele>1182.0</ele><time>2026-04-11T08:26:11.335Z</time></trkpt><trkpt lat="38.1965281" lon="15.8461258"><ele>1182.0</ele><time>2026-04-11T08:26:12.336Z</time></trkpt><trkpt lat="38.1966804" lon="15.8461652"><ele>1179.6666666666667</ele><time>2026-04-11T08:26:13.335Z</time></trkpt><trkpt lat="38.1968336" lon="15.8462036"><ele>1177.3333333333335</ele><time>2026-04-11T08:26:14.335Z</time></trkpt><trkpt lat="38.1969913" lon="15.8462378"><ele>1175.0</ele><time>2026-04-11T08:26:15.336Z</time></trkpt><trkpt lat="38.1971452" lon="15.8462713"><ele>1175.0</ele><time>2026-04-11T08:26:16.335Z</time></trkpt><trkpt lat="38.1972971" lon="15.8462989"><ele>1175.0</ele><time>2026-04-11T08:26:17.335Z</time></trkpt><trkpt lat="38.1974502" lon="15.8463314"><ele>1175.0</ele><time>2026-04-11T08:26:18.336Z</time></trkpt><trkpt lat="38.1976035" lon="15.8463688"><ele>1173.0</ele><time>2026-04-11T08:26:19.335Z</time></trkpt><trkpt lat="38.1977585" lon="15.8464015"><ele>1171.0</ele><time>2026-04-11T08:26:20.335Z</time></trkpt><trkpt lat="38.1979222" lon="15.8464319"><ele>1169.0</ele><time>2026-04-11T08:26:21.336Z</time></trkpt><trkpt lat="38.1980858" lon="15.8464663"><ele>1167.0</ele><time>2026-04-11T08:26:22.335Z</time></trkpt><trkpt lat="38.1982492" lon="15.8464989"><ele>1165.0</ele><time>2026-04-11T08:26:23.335Z</time></trkpt><trkpt lat="38.1984087" lon="15.8465302"><ele>1163.0</ele><time>2026-04-11T08:26:24.335Z</time></trkpt><trkpt lat="38.1985702" lon="15.8465647"><ele>1163.0</ele><time>2026-04-11T08:26:25.335Z</time></trkpt><trkpt lat="38.1987293" lon="15.8466018"><ele>1163.0</ele><time>2026-04-11T08:26:26.336Z</time></trkpt><trkpt lat="38.1988917" lon="15.846649"><ele>1163.0</ele><time>2026-04-11T08:26:27.335Z</time></trkpt><trkpt lat="38.1990575" lon="15.8466802"><ele>1161.6666666666667</ele><time>2026-04-11T08:26:28.335Z</time></trkpt><trkpt lat="38.1992195" lon="15.8467182"><ele>1160.3333333333333</ele><time>2026-04-11T08:26:29.335Z</time></trkpt><trkpt lat="38.1993818" lon="15.8467487"><ele>1159.0</ele><time>2026-04-11T08:26:30.336Z</time></trkpt><trkpt lat="38.1995471" lon="15.8467773"><ele>1159.0</ele><time>2026-04-11T08:26:31.335Z</time></trkpt><trkpt lat="38.1997108" lon="15.8468071"><ele>1159.0</ele><time>2026-04-11T08:26:32.335Z</time></trkpt><trkpt lat="38.1998643" lon="15.8468384"><ele>1159.0</ele><time>2026-04-11T08:26:33.335Z</time></trkpt><trkpt lat="38.2000115" lon="15.8468666"><ele>1157.3333333333333</ele><time>2026-04-11T08:26:34.335Z</time></trkpt><trkpt lat="38.200154" lon="15.8469024"><ele>1155.6666666666667</ele><time>2026-04-11T08:26:35.335Z</time></trkpt><trkpt lat="38.2003052" lon="15.8469361"><ele>1154.0</ele><time>2026-04-11T08:26:36.335Z</time></trkpt><trkpt lat="38.2004582" lon="15.8469653"><ele>1154.0</ele><time>2026-04-11T08:26:37.335Z</time></trkpt><trkpt lat="38.2006141" lon="15.8469937"><ele>1154.0</ele><time>2026-04-11T08:26:38.335Z</time></trkpt><trkpt lat="38.2007679" lon="15.8470243"><ele>1154.0</ele><time>2026-04-11T08:26:39.335Z</time></trkpt><trkpt lat="38.2009114" lon="15.847062"><ele>1153.75</ele><time>2026-04-11T08:26:40.335Z</time></trkpt><trkpt lat="38.2010555" lon="15.8470972"><ele>1153.5</ele><time>2026-04-11T08:26:41.335Z</time></trkpt><trkpt lat="38.2011952" lon="15.8471218"><ele>1153.25</ele><time>2026-04-11T08:26:42.336Z</time></trkpt><trkpt lat="38.2013289" lon="15.8471471"><ele>1153.0</ele><time>2026-04-11T08:26:43.335Z</time></trkpt><trkpt lat="38.2014567" lon="15.847169"><ele>1151.75</ele><time>2026-04-11T08:26:44.335Z</time></trkpt><trkpt lat="38.2015724" lon="15.8472274"><ele>1150.5</ele><time>2026-04-11T08:26:45.335Z</time></trkpt><trkpt lat="38.2016744" lon="15.8473108"><ele>1149.25</ele><time>2026-04-11T08:26:46.335Z</time></trkpt><trkpt lat="38.2017619" lon="15.8474207"><ele>1148.0</ele><time>2026-04-11T08:26:47.335Z</time></trkpt><trkpt lat="38.2018226" lon="15.8475508"><ele>1148.0</ele><time>2026-04-11T08:26:48.335Z</time></trkpt><trkpt lat="38.2018697" lon="15.8476857"><ele>1148.0</ele><time>2026-04-11T08:26:49.336Z</time></trkpt><trkpt lat="38.2019016" lon="15.8478338"><ele>1148.0</ele><time>2026-04-11T08:26:50.335Z</time></trkpt><trkpt lat="38.2019303" lon="15.8479952"><ele>1148.0</ele><time>2026-04-11T08:26:51.336Z</time></trkpt><trkpt lat="38.2019628" lon="15.8481696"><ele>1148.0</ele><time>2026-04-11T08:26:52.335Z</time></trkpt><trkpt lat="38.2019814" lon="15.848353"><ele>1148.0</ele><time>2026-04-11T08:26:53.336Z</time></trkpt><trkpt lat="38.2020014" lon="15.8485446"><ele>1148.0</ele><time>2026-04-11T08:26:54.336Z</time></trkpt><trkpt lat="38.2020285" lon="15.8487297"><ele>1148.0</ele><time>2026-04-11T08:26:55.335Z</time></trkpt><trkpt lat="38.2020533" lon="15.8489016"><ele>1147.75</ele><time>2026-04-11T08:26:56.336Z</time></trkpt><trkpt lat="38.2020726" lon="15.8490668"><ele>1147.5</ele><time>2026-04-11T08:26:57.336Z</time></trkpt><trkpt lat="38.2020891" lon="15.8492376"><ele>1147.25</ele><time>2026-04-11T08:26:58.335Z</time></trkpt><trkpt lat="38.2021064" lon="15.8494002"><ele>1147.0</ele><time>2026-04-11T08:26:59.335Z</time></trkpt><trkpt lat="38.2021097" lon="15.8495584"><ele>1147.75</ele><time>2026-04-11T08:27:00.336Z</time></trkpt><trkpt lat="38.2021015" lon="15.8497117"><ele>1148.5</ele><time>2026-04-11T08:27:01.335Z</time></trkpt><trkpt lat="38.2020951" lon="15.8498606"><ele>1149.25</ele><time>2026-04-11T08:27:02.335Z</time></trkpt><trkpt lat="38.2020811" lon="15.8499995"><ele>1150.0</ele><time>2026-04-11T08:27:03.336Z</time></trkpt><trkpt lat="38.2020827" lon="15.8501322"><ele>1149.2</ele><time>2026-04-11T08:27:04.335Z</time></trkpt><trkpt lat="38.2021105" lon="15.8502572"><ele>1148.4</ele><time>2026-04-11T08:27:05.336Z</time></trkpt><trkpt lat="38.2021641" lon="15.8503576"><ele>1147.6</ele><time>2026-04-11T08:27:06.336Z</time></trkpt><trkpt lat="38.20225" lon="15.8504289"><ele>1146.8</ele><time>2026-04-11T08:27:07.335Z</time></trkpt><trkpt lat="38.2023596" lon="15.8504844"><ele>1146.0</ele><time>2026-04-11T08:27:08.336Z</time></trkpt><trkpt lat="38.202485" lon="15.8505582"><ele>1146.0</ele><time>2026-04-11T08:27:09.335Z</time></trkpt><trkpt lat="38.2026093" lon="15.8506221"><ele>1146.0</ele><time>2026-04-11T08:27:10.335Z</time></trkpt><trkpt lat="38.2027266" lon="15.850678"><ele>1146.0</ele><time>2026-04-11T08:27:11.335Z</time></trkpt><trkpt lat="38.2028355" lon="15.8507412"><ele>1146.0</ele><time>2026-04-11T08:27:12.336Z</time></trkpt><trkpt lat="38.2029389" lon="15.8508027"><ele>1146.0</ele><time>2026-04-11T08:27:13.335Z</time></trkpt><trkpt lat="38.2030278" lon="15.8508725"><ele>1146.0</ele><time>2026-04-11T08:27:14.336Z</time></trkpt><trkpt lat="38.2031046" lon="15.8509491"><ele>1146.0</ele><time>2026-04-11T08:27:15.336Z</time></trkpt><trkpt lat="38.2031565" lon="15.8510481"><ele>1146.0</ele><time>2026-04-11T08:27:16.335Z</time></trkpt><trkpt lat="38.2031827" lon="15.8511526"><ele>1146.0</ele><time>2026-04-11T08:27:17.335Z</time></trkpt><trkpt lat="38.2031908" lon="15.851266"><ele>1143.6</ele><time>2026-04-11T08:27:18.336Z</time></trkpt><trkpt lat="38.2031845" lon="15.8513855"><ele>1141.1999999999998</ele><time>2026-04-11T08:27:19.336Z</time></trkpt><trkpt lat="38.2031719" lon="15.8515164"><ele>1138.8000000000002</ele><time>2026-04-11T08:27:20.335Z</time></trkpt><trkpt lat="38.2031691" lon="15.8516581"><ele>1136.4</ele><time>2026-04-11T08:27:21.335Z</time></trkpt><trkpt lat="38.2031489" lon="15.8518003"><ele>1134.0</ele><time>2026-04-11T08:27:22.335Z</time></trkpt><trkpt lat="38.203133" lon="15.8519407"><ele>1137.0</ele><time>2026-04-11T08:27:23.336Z</time></trkpt><trkpt lat="38.2031192" lon="15.8520716"><ele>1140.0</ele><time>2026-04-11T08:27:24.336Z</time></trkpt><trkpt lat="38.2031124" lon="15.8521906"><ele>1143.0</ele><time>2026-04-11T08:27:25.335Z</time></trkpt><trkpt lat="38.2031303" lon="15.8523038"><ele>1146.0</ele><time>2026-04-11T08:27:26.336Z</time></trkpt><trkpt lat="38.2031784" lon="15.8524092"><ele>1149.0</ele><time>2026-04-11T08:27:27.336Z</time></trkpt><trkpt lat="38.2032575" lon="15.8524983"><ele>1149.0</ele><time>2026-04-11T08:27:28.335Z</time></trkpt><trkpt lat="38.2033489" lon="15.8525559"><ele>1149.0</ele><time>2026-04-11T08:27:29.335Z</time></trkpt><trkpt lat="38.203445" lon="15.8525969"><ele>1149.0</ele><time>2026-04-11T08:27:30.335Z</time></trkpt><trkpt lat="38.2035439" lon="15.8526248"><ele>1149.0</ele><time>2026-04-11T08:27:31.336Z</time></trkpt><trkpt lat="38.2036559" lon="15.852651"><ele>1149.0</ele><time>2026-04-11T08:27:32.335Z</time></trkpt><trkpt lat="38.2037681" lon="15.8526589"><ele>1151.0</ele><time>2026-04-11T08:27:33.335Z</time></trkpt><trkpt lat="38.2038758" lon="15.8526493"><ele>1153.0</ele><time>2026-04-11T08:27:34.336Z</time></trkpt><trkpt lat="38.2039754" lon="15.8526369"><ele>1155.0</ele><time>2026-04-11T08:27:35.336Z</time></trkpt><trkpt lat="38.2040708" lon="15.8526224"><ele>1157.0</ele><time>2026-04-11T08:27:36.335Z</time></trkpt><trkpt lat="38.2041698" lon="15.852619"><ele>1159.0</ele><time>2026-04-11T08:27:37.336Z</time></trkpt><trkpt lat="38.204274" lon="15.8526206"><ele>1153.75</ele><time>2026-04-11T08:27:38.336Z</time></trkpt><trkpt lat="38.2043983" lon="15.8526193"><ele>1148.5</ele><time>2026-04-11T08:27:39.336Z</time></trkpt><trkpt lat="38.2045231" lon="15.8526099"><ele>1143.25</ele><time>2026-04-11T08:27:40.335Z</time></trkpt><trkpt lat="38.2046528" lon="15.8526134"><ele>1138.0</ele><time>2026-04-11T08:27:41.335Z</time></trkpt><trkpt lat="38.2047749" lon="15.8526217"><ele>1137.0</ele><time>2026-04-11T08:27:42.335Z</time></trkpt><trkpt lat="38.2048819" lon="15.8526188"><ele>1136.0</ele><time>2026-04-11T08:27:43.335Z</time></trkpt><trkpt lat="38.2049911" lon="15.8526124"><ele>1135.0</ele><time>2026-04-11T08:27:44.336Z</time></trkpt><trkpt lat="38.2051011" lon="15.8526108"><ele>1134.0</ele><time>2026-04-11T08:27:45.336Z</time></trkpt><trkpt lat="38.2052076" lon="15.852615"><ele>1133.0</ele><time>2026-04-11T08:27:46.335Z</time></trkpt><trkpt lat="38.2053056" lon="15.8526527"><ele>1133.0</ele><time>2026-04-11T08:27:47.335Z</time></trkpt><trkpt lat="38.2053905" lon="15.8527242"><ele>1133.0</ele><time>2026-04-11T08:27:48.336Z</time></trkpt><trkpt lat="38.2054535" lon="15.8528277"><ele>1133.0</ele><time>2026-04-11T08:27:49.335Z</time></trkpt><trkpt lat="38.2054907" lon="15.8529494"><ele>1133.0</ele><time>2026-04-11T08:27:50.336Z</time></trkpt><trkpt lat="38.2055018" lon="15.853073"><ele>1133.0</ele><time>2026-04-11T08:27:51.335Z</time></trkpt><trkpt lat="38.2054832" lon="15.853185"><ele>1133.0</ele><time>2026-04-11T08:27:52.335Z</time></trkpt><trkpt lat="38.2054449" lon="15.8532822"><ele>1133.0</ele><time>2026-04-11T08:27:53.336Z</time></trkpt><trkpt lat="38.205393" lon="15.85337"><ele>1133.0</ele><time>2026-04-11T08:27:54.335Z</time></trkpt><trkpt lat="38.2053281" lon="15.8534574"><ele>1133.0</ele><time>2026-04-11T08:27:55.336Z</time></trkpt><trkpt lat="38.2052536" lon="15.8535483"><ele>1133.0</ele><time>2026-04-11T08:27:56.336Z</time></trkpt><trkpt lat="38.2051844" lon="15.853643"><ele>1132.6</ele><time>2026-04-11T08:27:57.336Z</time></trkpt><trkpt lat="38.2051224" lon="15.853744"><ele>1132.1999999999998</ele><time>2026-04-11T08:27:58.335Z</time></trkpt><trkpt lat="38.2050785" lon="15.8538481"><ele>1131.8</ele><time>2026-04-11T08:27:59.336Z</time></trkpt><trkpt lat="38.2050567" lon="15.8539552"><ele>1131.3999999999999</ele><time>2026-04-11T08:28:00.336Z</time></trkpt><trkpt lat="38.2050414" lon="15.8540691"><ele>1131.0</ele><time>2026-04-11T08:28:01.335Z</time></trkpt><trkpt lat="38.2050578" lon="15.8541795"><ele>1131.0</ele><time>2026-04-11T08:28:02.336Z</time></trkpt><trkpt lat="38.205102" lon="15.8542841"><ele>1131.0</ele><time>2026-04-11T08:28:03.335Z</time></trkpt><trkpt lat="38.2051683" lon="15.8543813"><ele>1131.0</ele><time>2026-04-11T08:28:04.336Z</time></trkpt><trkpt lat="38.2052717" lon="15.854463"><ele>1131.0</ele><time>2026-04-11T08:28:05.335Z</time></trkpt><trkpt lat="38.2053844" lon="15.8545296"><ele>1131.0</ele><time>2026-04-11T08:28:06.335Z</time></trkpt><trkpt lat="38.2055004" lon="15.8545678"><ele>1130.5</ele><time>2026-04-11T08:28:07.335Z</time></trkpt><trkpt lat="38.2056359" lon="15.8545987"><ele>1130.0</ele><time>2026-04-11T08:28:08.336Z</time></trkpt><trkpt lat="38.2057779" lon="15.8545781"><ele>1129.5</ele><time>2026-04-11T08:28:09.335Z</time></trkpt><trkpt lat="38.2059059" lon="15.8545363"><ele>1129.0</ele><time>2026-04-11T08:28:10.336Z</time></trkpt><trkpt lat="38.2060333" lon="15.8544802"><ele>1129.0</ele><time>2026-04-11T08:28:11.335Z</time></trkpt><trkpt lat="38.2061654" lon="15.8544126"><ele>1129.0</ele><time>2026-04-11T08:28:12.335Z</time></trkpt><trkpt lat="38.2062891" lon="15.8543512"><ele>1129.0</ele><time>2026-04-11T08:28:13.335Z</time></trkpt><trkpt lat="38.2064098" lon="15.8543017"><ele>1129.0</ele><time>2026-04-11T08:28:14.335Z</time></trkpt><trkpt lat="38.2065345" lon="15.8542544"><ele>1125.75</ele><time>2026-04-11T08:28:15.335Z</time></trkpt><trkpt lat="38.2066506" lon="15.8542139"><ele>1122.5</ele><time>2026-04-11T08:28:16.335Z</time></trkpt><trkpt lat="38.2067541" lon="15.8541791"><ele>1119.25</ele><time>2026-04-11T08:28:17.335Z</time></trkpt><trkpt lat="38.2068597" lon="15.8541504"><ele>1116.0</ele><time>2026-04-11T08:28:18.335Z</time></trkpt><trkpt lat="38.2069742" lon="15.8541335"><ele>1116.0</ele><time>2026-04-11T08:28:19.335Z</time></trkpt><trkpt lat="38.2070853" lon="15.8541314"><ele>1116.0</ele><time>2026-04-11T08:28:20.335Z</time></trkpt><trkpt lat="38.207202" lon="15.8541447"><ele>1116.0</ele><time>2026-04-11T08:28:21.335Z</time></trkpt><trkpt lat="38.2073265" lon="15.8541682"><ele>1116.0</ele><time>2026-04-11T08:28:22.335Z</time></trkpt><trkpt lat="38.2074522" lon="15.8541874"><ele>1116.0</ele><time>2026-04-11T08:28:23.336Z</time></trkpt><trkpt lat="38.2075825" lon="15.8542111"><ele>1116.0</ele><time>2026-04-11T08:28:24.336Z</time></trkpt><trkpt lat="38.2077196" lon="15.8542349"><ele>1116.0</ele><time>2026-04-11T08:28:25.335Z</time></trkpt><trkpt lat="38.2078512" lon="15.8542522"><ele>1116.0</ele><time>2026-04-11T08:28:26.335Z</time></trkpt><trkpt lat="38.2079804" lon="15.8542915"><ele>1116.0</ele><time>2026-04-11T08:28:27.336Z</time></trkpt><trkpt lat="38.2081042" lon="15.8543449"><ele>1116.0</ele><time>2026-04-11T08:28:28.335Z</time></trkpt><trkpt lat="38.2082344" lon="15.8544043"><ele>1116.0</ele><time>2026-04-11T08:28:29.335Z</time></trkpt><trkpt lat="38.2083517" lon="15.854489"><ele>1116.0</ele><time>2026-04-11T08:28:30.336Z</time></trkpt><trkpt lat="38.2084765" lon="15.8545598"><ele>1115.25</ele><time>2026-04-11T08:28:31.336Z</time></trkpt><trkpt lat="38.2085985" lon="15.8546272"><ele>1114.5</ele><time>2026-04-11T08:28:32.335Z</time></trkpt><trkpt lat="38.2087152" lon="15.8546976"><ele>1113.75</ele><time>2026-04-11T08:28:33.336Z</time></trkpt><trkpt lat="38.2088309" lon="15.8547606"><ele>1113.0</ele><time>2026-04-11T08:28:34.336Z</time></trkpt><trkpt lat="38.2089295" lon="15.8548223"><ele>1113.0</ele><time>2026-04-11T08:28:35.335Z</time></trkpt><trkpt lat="38.2090192" lon="15.8548941"><ele>1113.0</ele><time>2026-04-11T08:28:36.335Z</time></trkpt><trkpt lat="38.2090857" lon="15.8549884"><ele>1113.0</ele><time>2026-04-11T08:28:37.335Z</time></trkpt><trkpt lat="38.2091236" lon="15.8551013"><ele>1113.0</ele><time>2026-04-11T08:28:38.335Z</time></trkpt><trkpt lat="38.2091324" lon="15.8552238"><ele>1113.0</ele><time>2026-04-11T08:28:39.335Z</time></trkpt><trkpt lat="38.2091177" lon="15.8553492"><ele>1113.0</ele><time>2026-04-11T08:28:40.336Z</time></trkpt><trkpt lat="38.2090959" lon="15.8554774"><ele>1113.0</ele><time>2026-04-11T08:28:41.336Z</time></trkpt><trkpt lat="38.2090671" lon="15.8556121"><ele>1113.0</ele><time>2026-04-11T08:28:42.335Z</time></trkpt><trkpt lat="38.2090339" lon="15.8557557"><ele>1113.0</ele><time>2026-04-11T08:28:43.335Z</time></trkpt><trkpt lat="38.2089997" lon="15.85589"><ele>1113.0</ele><time>2026-04-11T08:28:44.335Z</time></trkpt><trkpt lat="38.2089663" lon="15.8560205"><ele>1115.0</ele><time>2026-04-11T08:28:45.335Z</time></trkpt><trkpt lat="38.2089288" lon="15.8561604"><ele>1117.0</ele><time>2026-04-11T08:28:46.335Z</time></trkpt><trkpt lat="38.2088901" lon="15.8563123"><ele>1119.0</ele><time>2026-04-11T08:28:47.335Z</time></trkpt><trkpt lat="38.2088562" lon="15.8564602"><ele>1121.0</ele><time>2026-04-11T08:28:48.335Z</time></trkpt><trkpt lat="38.2088289" lon="15.8565963"><ele>1121.0</ele><time>2026-04-11T08:28:49.335Z</time></trkpt><trkpt lat="38.2088138" lon="15.8567325"><ele>1121.0</ele><time>2026-04-11T08:28:50.335Z</time></trkpt><trkpt lat="38.2087965" lon="15.8568666"><ele>1121.0</ele><time>2026-04-11T08:28:51.336Z</time></trkpt><trkpt lat="38.2087893" lon="15.8569996"><ele>1121.0</ele><time>2026-04-11T08:28:52.336Z</time></trkpt><trkpt lat="38.2087839" lon="15.8571405"><ele>1121.0</ele><time>2026-04-11T08:28:53.336Z</time></trkpt><trkpt lat="38.2087792" lon="15.8572834"><ele>1121.6</ele><time>2026-04-11T08:28:54.335Z</time></trkpt><trkpt lat="38.2087736" lon="15.8574153"><ele>1122.1999999999998</ele><time>2026-04-11T08:28:55.335Z</time></trkpt><trkpt lat="38.2087574" lon="15.8575389"><ele>1122.8000000000002</ele><time>2026-04-11T08:28:56.335Z</time></trkpt><trkpt lat="38.2087567" lon="15.8576572"><ele>1123.4</ele><time>2026-04-11T08:28:57.335Z</time></trkpt><trkpt lat="38.2087976" lon="15.8577707"><ele>1124.0</ele><time>2026-04-11T08:28:58.336Z</time></trkpt><trkpt lat="38.2088484" lon="15.8578645"><ele>1124.4</ele><time>2026-04-11T08:28:59.335Z</time></trkpt><trkpt lat="38.2089166" lon="15.8579302"><ele>1124.8000000000002</ele><time>2026-04-11T08:29:00.335Z</time></trkpt><trkpt lat="38.2089958" lon="15.8579723"><ele>1125.1999999999998</ele><time>2026-04-11T08:29:01.335Z</time></trkpt><trkpt lat="38.2090891" lon="15.857987"><ele>1125.6</ele><time>2026-04-11T08:29:02.335Z</time></trkpt><trkpt lat="38.209192" lon="15.8579895"><ele>1126.0</ele><time>2026-04-11T08:29:03.335Z</time></trkpt><trkpt lat="38.2093141" lon="15.8579788"><ele>1121.0</ele><time>2026-04-11T08:29:04.335Z</time></trkpt><trkpt lat="38.2094643" lon="15.8579689"><ele>1116.0</ele><time>2026-04-11T08:29:05.335Z</time></trkpt><trkpt lat="38.2096134" lon="15.8579671"><ele>1111.0</ele><time>2026-04-11T08:29:06.335Z</time></trkpt><trkpt lat="38.2097939" lon="15.857978"><ele>1107.5</ele><time>2026-04-11T08:29:07.335Z</time></trkpt><trkpt lat="38.2099457" lon="15.8579928"><ele>1104.0</ele><time>2026-04-11T08:29:08.335Z</time></trkpt><trkpt lat="38.2100918" lon="15.8580063"><ele>1100.5</ele><time>2026-04-11T08:29:09.335Z</time></trkpt><trkpt lat="38.2102355" lon="15.8580127"><ele>1097.0</ele><time>2026-04-11T08:29:10.335Z</time></trkpt><trkpt lat="38.2103818" lon="15.8580119"><ele>1097.0</ele><time>2026-04-11T08:29:11.335Z</time></trkpt><trkpt lat="38.2105242" lon="15.8580065"><ele>1097.0</ele><time>2026-04-11T08:29:12.336Z</time></trkpt><trkpt lat="38.2106631" lon="15.8579981"><ele>1097.0</ele><time>2026-04-11T08:29:13.335Z</time></trkpt><trkpt lat="38.2108017" lon="15.8580044"><ele>1097.0</ele><time>2026-04-11T08:29:14.335Z</time></trkpt><trkpt lat="38.2109385" lon="15.8580049"><ele>1096.0</ele><time>2026-04-11T08:29:15.336Z</time></trkpt><trkpt lat="38.2110721" lon="15.8579885"><ele>1095.0</ele><time>2026-04-11T08:29:16.335Z</time></trkpt><trkpt lat="38.2111901" lon="15.8579721"><ele>1094.0</ele><time>2026-04-11T08:29:17.335Z</time></trkpt><trkpt lat="38.2113102" lon="15.8579482"><ele>1093.0</ele><time>2026-04-11T08:29:18.335Z</time></trkpt><trkpt lat="38.2114222" lon="15.8579378"><ele>1093.2</ele><time>2026-04-11T08:29:19.335Z</time></trkpt><trkpt lat="38.2115231" lon="15.8579403"><ele>1093.4</ele><time>2026-04-11T08:29:20.335Z</time></trkpt><trkpt lat="38.2116228" lon="15.8579637"><ele>1093.6000000000001</ele><time>2026-04-11T08:29:21.336Z</time></trkpt><trkpt lat="38.2117208" lon="15.8580096"><ele>1093.8</ele><time>2026-04-11T08:29:22.335Z</time></trkpt><trkpt lat="38.2118172" lon="15.8580805"><ele>1094.0</ele><time>2026-04-11T08:29:23.335Z</time></trkpt><trkpt lat="38.2119177" lon="15.8581687"><ele>1094.0</ele><time>2026-04-11T08:29:24.335Z</time></trkpt><trkpt lat="38.212021" lon="15.8582684"><ele>1094.0</ele><time>2026-04-11T08:29:25.336Z</time></trkpt><trkpt lat="38.2121251" lon="15.8583735"><ele>1094.0</ele><time>2026-04-11T08:29:26.335Z</time></trkpt><trkpt lat="38.2122251" lon="15.8584784"><ele>1094.0</ele><time>2026-04-11T08:29:27.335Z</time></trkpt><trkpt lat="38.2123213" lon="15.8585665"><ele>1093.0</ele><time>2026-04-11T08:29:28.336Z</time></trkpt><trkpt lat="38.2124276" lon="15.858655"><ele>1092.0</ele><time>2026-04-11T08:29:29.335Z</time></trkpt><trkpt lat="38.2125419" lon="15.8587438"><ele>1091.0</ele><time>2026-04-11T08:29:30.335Z</time></trkpt><trkpt lat="38.2126436" lon="15.8588346"><ele>1090.0</ele><time>2026-04-11T08:29:31.335Z</time></trkpt><trkpt lat="38.212748" lon="15.8589304"><ele>1090.0</ele><time>2026-04-11T08:29:32.335Z</time></trkpt><trkpt lat="38.2128556" lon="15.8590355"><ele>1090.0</ele><time>2026-04-11T08:29:33.336Z</time></trkpt><trkpt lat="38.2129638" lon="15.8591205"><ele>1090.0</ele><time>2026-04-11T08:29:34.335Z</time></trkpt><trkpt lat="38.2130658" lon="15.8592038"><ele>1090.0</ele><time>2026-04-11T08:29:35.335Z</time></trkpt><trkpt lat="38.2131554" lon="15.8592851"><ele>1089.4</ele><time>2026-04-11T08:29:36.336Z</time></trkpt><trkpt lat="38.2132389" lon="15.859373"><ele>1088.8</ele><time>2026-04-11T08:29:37.335Z</time></trkpt><trkpt lat="38.2133045" lon="15.8594716"><ele>1088.2</ele><time>2026-04-11T08:29:38.335Z</time></trkpt><trkpt lat="38.2133565" lon="15.8595832"><ele>1087.6</ele><time>2026-04-11T08:29:39.335Z</time></trkpt><trkpt lat="38.2133982" lon="15.8597166"><ele>1087.0</ele><time>2026-04-11T08:29:40.336Z</time></trkpt><trkpt lat="38.2134066" lon="15.8598658"><ele>1087.0</ele><time>2026-04-11T08:29:41.335Z</time></trkpt><trkpt lat="38.2133762" lon="15.8600231"><ele>1087.0</ele><time>2026-04-11T08:29:42.335Z</time></trkpt><trkpt lat="38.2133276" lon="15.8601797"><ele>1087.0</ele><time>2026-04-11T08:29:43.335Z</time></trkpt><trkpt lat="38.2132753" lon="15.8603337"><ele>1087.0</ele><time>2026-04-11T08:29:44.335Z</time></trkpt><trkpt lat="38.2132291" lon="15.8604732"><ele>1086.2</ele><time>2026-04-11T08:29:45.336Z</time></trkpt><trkpt lat="38.2131943" lon="15.8606077"><ele>1085.4</ele><time>2026-04-11T08:29:46.336Z</time></trkpt><trkpt lat="38.2131638" lon="15.8607342"><ele>1084.6</ele><time>2026-04-11T08:29:47.335Z</time></trkpt><trkpt lat="38.2131369" lon="15.8608481"><ele>1083.8</ele><time>2026-04-11T08:29:48.335Z</time></trkpt><trkpt lat="38.2130929" lon="15.8609375"><ele>1083.0</ele><time>2026-04-11T08:29:49.336Z</time></trkpt><trkpt lat="38.2130356" lon="15.8609998"><ele>1082.5</ele><time>2026-04-11T08:29:50.335Z</time></trkpt><trkpt lat="38.2129744" lon="15.8610336"><ele>1082.0</ele><time>2026-04-11T08:29:51.335Z</time></trkpt><trkpt lat="38.2128955" lon="15.8610385"><ele>1081.5</ele><time>2026-04-11T08:29:52.335Z</time></trkpt><trkpt lat="38.2128025" lon="15.8610157"><ele>1081.0</ele><time>2026-04-11T08:29:53.336Z</time></trkpt><trkpt lat="38.2127059" lon="15.8610063"><ele>1080.5</ele><time>2026-04-11T08:29:54.335Z</time></trkpt><trkpt lat="38.2126134" lon="15.8610275"><ele>1080.0</ele><time>2026-04-11T08:29:55.336Z</time></trkpt><trkpt lat="38.2125373" lon="15.8611001"><ele>1080.0</ele><time>2026-04-11T08:29:56.336Z</time></trkpt><trkpt lat="38.2124827" lon="15.8612193"><ele>1080.0</ele><time>2026-04-11T08:29:57.335Z</time></trkpt><trkpt lat="38.2124469" lon="15.8613345"><ele>1080.0</ele><time>2026-04-11T08:29:58.335Z</time></trkpt><trkpt lat="38.2124179" lon="15.8614442"><ele>1080.0</ele><time>2026-04-11T08:29:59.336Z</time></trkpt><trkpt lat="38.2124043" lon="15.8615526"><ele>1080.0</ele><time>2026-04-11T08:30:00.335Z</time></trkpt><trkpt lat="38.212421" lon="15.8616663"><ele>1080.0</ele><time>2026-04-11T08:30:01.335Z</time></trkpt><trkpt lat="38.2124693" lon="15.8617674"><ele>1080.0</ele><time>2026-04-11T08:30:02.335Z</time></trkpt><trkpt lat="38.2125498" lon="15.8618443"><ele>1080.0</ele><time>2026-04-11T08:30:03.336Z</time></trkpt><trkpt lat="38.2126509" lon="15.861902"><ele>1080.0</ele><time>2026-04-11T08:30:04.336Z</time></trkpt><trkpt lat="38.2127547" lon="15.8619586"><ele>1080.0</ele><time>2026-04-11T08:30:05.335Z</time></trkpt><trkpt lat="38.2128586" lon="15.862017"><ele>1080.4</ele><time>2026-04-11T08:30:06.335Z</time></trkpt><trkpt lat="38.2129551" lon="15.8620814"><ele>1080.8</ele><time>2026-04-11T08:30:07.335Z</time></trkpt><trkpt lat="38.2130426" lon="15.8621619"><ele>1081.2</ele><time>2026-04-11T08:30:08.335Z</time></trkpt><trkpt lat="38.2131166" lon="15.8622565"><ele>1081.6</ele><time>2026-04-11T08:30:09.335Z</time></trkpt><trkpt lat="38.2131703" lon="15.8623673"><ele>1082.0</ele><time>2026-04-11T08:30:10.335Z</time></trkpt><trkpt lat="38.2132013" lon="15.8625028"><ele>1081.5</ele><time>2026-04-11T08:30:11.335Z</time></trkpt><trkpt lat="38.2132135" lon="15.8626532"><ele>1081.0</ele><time>2026-04-11T08:30:12.335Z</time></trkpt><trkpt lat="38.2132034" lon="15.8628161"><ele>1080.5</ele><time>2026-04-11T08:30:13.335Z</time></trkpt><trkpt lat="38.2132016" lon="15.8629875"><ele>1080.0</ele><time>2026-04-11T08:30:14.336Z</time></trkpt><trkpt lat="38.2132013" lon="15.8631587"><ele>1080.0</ele><time>2026-04-11T08:30:15.335Z</time></trkpt><trkpt lat="38.2132073" lon="15.8633325"><ele>1080.0</ele><time>2026-04-11T08:30:16.336Z</time></trkpt><trkpt lat="38.2132135" lon="15.8635019"><ele>1080.0</ele><time>2026-04-11T08:30:17.335Z</time></trkpt><trkpt lat="38.2132212" lon="15.8636735"><ele>1080.0</ele><time>2026-04-11T08:30:18.335Z</time></trkpt><trkpt lat="38.213227" lon="15.8638487"><ele>1080.0</ele><time>2026-04-11T08:30:19.335Z</time></trkpt><trkpt lat="38.2132321" lon="15.8640256"><ele>1080.0</ele><time>2026-04-11T08:30:20.336Z</time></trkpt><trkpt lat="38.2132357" lon="15.8642083"><ele>1080.0</ele><time>2026-04-11T08:30:21.335Z</time></trkpt><trkpt lat="38.2132345" lon="15.8643922"><ele>1080.0</ele><time>2026-04-11T08:30:22.335Z</time></trkpt><trkpt lat="38.2132399" lon="15.8645637"><ele>1080.0</ele><time>2026-04-11T08:30:23.335Z</time></trkpt><trkpt lat="38.2132647" lon="15.8647319"><ele>1080.0</ele><time>2026-04-11T08:30:24.335Z</time></trkpt><trkpt lat="38.2133072" lon="15.8648979"><ele>1080.0</ele><time>2026-04-11T08:30:25.335Z</time></trkpt><trkpt lat="38.2133653" lon="15.8650446"><ele>1080.0</ele><time>2026-04-11T08:30:26.335Z</time></trkpt><trkpt lat="38.2134406" lon="15.8651831"><ele>1079.75</ele><time>2026-04-11T08:30:27.335Z</time></trkpt><trkpt lat="38.2135304" lon="15.8653099"><ele>1079.5</ele><time>2026-04-11T08:30:28.336Z</time></trkpt><trkpt lat="38.2136103" lon="15.8654596"><ele>1079.25</ele><time>2026-04-11T08:30:29.336Z</time></trkpt><trkpt lat="38.2136872" lon="15.8656155"><ele>1079.0</ele><time>2026-04-11T08:30:30.335Z</time></trkpt><trkpt lat="38.2137705" lon="15.8657745"><ele>1079.0</ele><time>2026-04-11T08:30:31.335Z</time></trkpt><trkpt lat="38.2138529" lon="15.8659303"><ele>1079.0</ele><time>2026-04-11T08:30:32.335Z</time></trkpt><trkpt lat="38.2139381" lon="15.8660941"><ele>1079.0</ele><time>2026-04-11T08:30:33.335Z</time></trkpt><trkpt lat="38.2140192" lon="15.8662566"><ele>1077.3333333333335</ele><time>2026-04-11T08:30:34.335Z</time></trkpt><trkpt lat="38.2141052" lon="15.8664122"><ele>1075.6666666666667</ele><time>2026-04-11T08:30:35.335Z</time></trkpt><trkpt lat="38.2141981" lon="15.8665704"><ele>1074.0</ele><time>2026-04-11T08:30:36.335Z</time></trkpt><trkpt lat="38.2142914" lon="15.8667429"><ele>1073.6666666666667</ele><time>2026-04-11T08:30:37.335Z</time></trkpt><trkpt lat="38.2143873" lon="15.8669125"><ele>1073.3333333333335</ele><time>2026-04-11T08:30:38.335Z</time></trkpt><trkpt lat="38.2144801" lon="15.8670887"><ele>1073.0</ele><time>2026-04-11T08:30:39.336Z</time></trkpt><trkpt lat="38.2145674" lon="15.8672657"><ele>1073.0</ele><time>2026-04-11T08:30:40.335Z</time></trkpt><trkpt lat="38.2146539" lon="15.8674387"><ele>1073.0</ele><time>2026-04-11T08:30:41.336Z</time></trkpt><trkpt lat="38.2147451" lon="15.8676103"><ele>1073.0</ele><time>2026-04-11T08:30:42.335Z</time></trkpt><trkpt lat="38.2148384" lon="15.8677717"><ele>1071.3333333333335</ele><time>2026-04-11T08:30:43.336Z</time></trkpt><trkpt lat="38.214927" lon="15.8679337"><ele>1069.6666666666667</ele><time>2026-04-11T08:30:44.335Z</time></trkpt><trkpt lat="38.2150135" lon="15.868092"><ele>1068.0</ele><time>2026-04-11T08:30:45.335Z</time></trkpt><trkpt lat="38.2150999" lon="15.8682505"><ele>1068.0</ele><time>2026-04-11T08:30:46.335Z</time></trkpt><trkpt lat="38.2151849" lon="15.8684085"><ele>1068.0</ele><time>2026-04-11T08:30:47.335Z</time></trkpt><trkpt lat="38.2152679" lon="15.8685732"><ele>1068.0</ele><time>2026-04-11T08:30:48.336Z</time></trkpt><trkpt lat="38.215344" lon="15.868753"><ele>1067.6666666666667</ele><time>2026-04-11T08:30:49.335Z</time></trkpt><trkpt lat="38.2154199" lon="15.8689294"><ele>1067.3333333333335</ele><time>2026-04-11T08:30:50.336Z</time></trkpt><trkpt lat="38.2154954" lon="15.8691095"><ele>1067.0</ele><time>2026-04-11T08:30:51.335Z</time></trkpt><trkpt lat="38.2155782" lon="15.8692778"><ele>1066.3333333333335</ele><time>2026-04-11T08:30:52.335Z</time></trkpt><trkpt lat="38.2156567" lon="15.8694486"><ele>1065.6666666666667</ele><time>2026-04-11T08:30:53.335Z</time></trkpt><trkpt lat="38.2157305" lon="15.8696169"><ele>1065.0</ele><time>2026-04-11T08:30:54.335Z</time></trkpt><trkpt lat="38.2157988" lon="15.8697881"><ele>1065.0</ele><time>2026-04-11T08:30:55.336Z</time></trkpt><trkpt lat="38.2158678" lon="15.8699642"><ele>1065.0</ele><time>2026-04-11T08:30:56.335Z</time></trkpt><trkpt lat="38.2159352" lon="15.870146"><ele>1065.0</ele><time>2026-04-11T08:30:57.335Z</time></trkpt><trkpt lat="38.2159975" lon="15.8703283"><ele>1063.6666666666667</ele><time>2026-04-11T08:30:58.335Z</time></trkpt><trkpt lat="38.2160604" lon="15.8705175"><ele>1062.3333333333335</ele><time>2026-04-11T08:30:59.335Z</time></trkpt><trkpt lat="38.2161233" lon="15.8707066"><ele>1061.0</ele><time>2026-04-11T08:31:00.335Z</time></trkpt><trkpt lat="38.2161866" lon="15.870895"><ele>1060.6666666666667</ele><time>2026-04-11T08:31:01.336Z</time></trkpt><trkpt lat="38.2162533" lon="15.8710921"><ele>1060.3333333333333</ele><time>2026-04-11T08:31:02.335Z</time></trkpt><trkpt lat="38.2163155" lon="15.871288"><ele>1060.0</ele><time>2026-04-11T08:31:03.335Z</time></trkpt><trkpt lat="38.2163759" lon="15.8714863"><ele>1060.0</ele><time>2026-04-11T08:31:04.336Z</time></trkpt><trkpt lat="38.2164375" lon="15.8716876"><ele>1060.0</ele><time>2026-04-11T08:31:05.336Z</time></trkpt><trkpt lat="38.2164977" lon="15.8718862"><ele>1060.0</ele><time>2026-04-11T08:31:06.336Z</time></trkpt><trkpt lat="38.216562" lon="15.8720849"><ele>1057.0</ele><time>2026-04-11T08:31:07.336Z</time></trkpt><trkpt lat="38.2166265" lon="15.8722765"><ele>1054.0</ele><time>2026-04-11T08:31:08.335Z</time></trkpt><trkpt lat="38.2166926" lon="15.8724634"><ele>1051.0</ele><time>2026-04-11T08:31:09.336Z</time></trkpt><trkpt lat="38.2167507" lon="15.8726373"><ele>1050.0</ele><time>2026-04-11T08:31:10.336Z</time></trkpt><trkpt lat="38.2168068" lon="15.8727969"><ele>1049.0</ele><time>2026-04-11T08:31:11.335Z</time></trkpt><trkpt lat="38.2168527" lon="15.8729333"><ele>1048.0</ele><time>2026-04-11T08:31:12.336Z</time></trkpt><trkpt lat="38.2168778" lon="15.8730664"><ele>1047.0</ele><time>2026-04-11T08:31:13.336Z</time></trkpt><trkpt lat="38.2168638" lon="15.8731919"><ele>1047.0</ele><time>2026-04-11T08:31:14.336Z</time></trkpt><trkpt lat="38.2168137" lon="15.8732831"><ele>1047.0</ele><time>2026-04-11T08:31:15.335Z</time></trkpt><trkpt lat="38.2167376" lon="15.8733418"><ele>1047.0</ele><time>2026-04-11T08:31:16.335Z</time></trkpt><trkpt lat="38.2166332" lon="15.873357"><ele>1047.0</ele><time>2026-04-11T08:31:17.335Z</time></trkpt><trkpt lat="38.2165154" lon="15.873332"><ele>1047.0</ele><time>2026-04-11T08:31:18.335Z</time></trkpt><trkpt lat="38.2163933" lon="15.8732773"><ele>1048.0</ele><time>2026-04-11T08:31:19.335Z</time></trkpt><trkpt lat="38.2162799" lon="15.8732578"><ele>1049.0</ele><time>2026-04-11T08:31:20.335Z</time></trkpt><trkpt lat="38.2161702" lon="15.8733167"><ele>1050.0</ele><time>2026-04-11T08:31:21.335Z</time></trkpt><trkpt lat="38.216088" lon="15.8734266"><ele>1051.0</ele><time>2026-04-11T08:31:22.335Z</time></trkpt><trkpt lat="38.2160216" lon="15.8735446"><ele>1051.0</ele><time>2026-04-11T08:31:23.335Z</time></trkpt><trkpt lat="38.2159798" lon="15.8736572"><ele>1051.0</ele><time>2026-04-11T08:31:24.335Z</time></trkpt><trkpt lat="38.2159642" lon="15.8737842"><ele>1051.0</ele><time>2026-04-11T08:31:25.335Z</time></trkpt><trkpt lat="38.2159954" lon="15.8739033"><ele>1051.0</ele><time>2026-04-11T08:31:26.335Z</time></trkpt><trkpt lat="38.2160704" lon="15.8739931"><ele>1051.0</ele><time>2026-04-11T08:31:27.335Z</time></trkpt><trkpt lat="38.2161613" lon="15.8740515"><ele>1051.0</ele><time>2026-04-11T08:31:28.336Z</time></trkpt><trkpt lat="38.2162571" lon="15.8740961"><ele>1051.0</ele><time>2026-04-11T08:31:29.335Z</time></trkpt><trkpt lat="38.2163603" lon="15.874126"><ele>1051.0</ele><time>2026-04-11T08:31:30.336Z</time></trkpt><trkpt lat="38.216466" lon="15.8741488"><ele>1051.0</ele><time>2026-04-11T08:31:31.336Z</time></trkpt><trkpt lat="38.2165729" lon="15.8741764"><ele>1051.0</ele><time>2026-04-11T08:31:32.335Z</time></trkpt><trkpt lat="38.2166769" lon="15.8742096"><ele>1049.0</ele><time>2026-04-11T08:31:33.335Z</time></trkpt><trkpt lat="38.216774" lon="15.8742689"><ele>1047.0</ele><time>2026-04-11T08:31:34.335Z</time></trkpt><trkpt lat="38.2168565" lon="15.8743551"><ele>1045.0</ele><time>2026-04-11T08:31:35.335Z</time></trkpt><trkpt lat="38.2169231" lon="15.8744735"><ele>1043.0</ele><time>2026-04-11T08:31:36.335Z</time></trkpt><trkpt lat="38.2169793" lon="15.8746032"><ele>1041.0</ele><time>2026-04-11T08:31:37.335Z</time></trkpt><trkpt lat="38.2170286" lon="15.8747511"><ele>1040.5</ele><time>2026-04-11T08:31:38.335Z</time></trkpt><trkpt lat="38.2170799" lon="15.8749075"><ele>1040.0</ele><time>2026-04-11T08:31:39.335Z</time></trkpt><trkpt lat="38.2171404" lon="15.8750545"><ele>1039.5</ele><time>2026-04-11T08:31:40.335Z</time></trkpt><trkpt lat="38.2172059" lon="15.875203"><ele>1039.0</ele><time>2026-04-11T08:31:41.335Z</time></trkpt><trkpt lat="38.2172707" lon="15.8753531"><ele>1037.5</ele><time>2026-04-11T08:31:42.335Z</time></trkpt><trkpt lat="38.2173316" lon="15.8755005"><ele>1036.0</ele><time>2026-04-11T08:31:43.335Z</time></trkpt><trkpt lat="38.2173916" lon="15.8756527"><ele>1034.5</ele><time>2026-04-11T08:31:44.335Z</time></trkpt><trkpt lat="38.2174503" lon="15.8757952"><ele>1033.0</ele><time>2026-04-11T08:31:45.336Z</time></trkpt><trkpt lat="38.217511" lon="15.8759354"><ele>1032.75</ele><time>2026-04-11T08:31:46.335Z</time></trkpt><trkpt lat="38.2175686" lon="15.8760794"><ele>1032.5</ele><time>2026-04-11T08:31:47.335Z</time></trkpt><trkpt lat="38.217624" lon="15.8762271"><ele>1032.25</ele><time>2026-04-11T08:31:48.335Z</time></trkpt><trkpt lat="38.2176805" lon="15.876367"><ele>1032.0</ele><time>2026-04-11T08:31:49.335Z</time></trkpt><trkpt lat="38.2177371" lon="15.876504"><ele>1032.0</ele><time>2026-04-11T08:31:50.335Z</time></trkpt><trkpt lat="38.2177951" lon="15.8766421"><ele>1032.0</ele><time>2026-04-11T08:31:51.335Z</time></trkpt><trkpt lat="38.2178454" lon="15.876777"><ele>1032.0</ele><time>2026-04-11T08:31:52.336Z</time></trkpt><trkpt lat="38.2178839" lon="15.8769121"><ele>1032.0</ele><time>2026-04-11T08:31:53.335Z</time></trkpt><trkpt lat="38.2179077" lon="15.8770549"><ele>1030.25</ele><time>2026-04-11T08:31:54.336Z</time></trkpt><trkpt lat="38.2179157" lon="15.8772088"><ele>1028.5</ele><time>2026-04-11T08:31:55.336Z</time></trkpt><trkpt lat="38.2179119" lon="15.8773614"><ele>1026.75</ele><time>2026-04-11T08:31:56.336Z</time></trkpt><trkpt lat="38.2178956" lon="15.8775103"><ele>1025.0</ele><time>2026-04-11T08:31:57.336Z</time></trkpt><trkpt lat="38.2178778" lon="15.877651"><ele>1024.0</ele><time>2026-04-11T08:31:58.335Z</time></trkpt><trkpt lat="38.2178482" lon="15.8777876"><ele>1023.0</ele><time>2026-04-11T08:31:59.336Z</time></trkpt><trkpt lat="38.2177866" lon="15.8779099"><ele>1022.0</ele><time>2026-04-11T08:32:00.335Z</time></trkpt><trkpt lat="38.2177092" lon="15.8780286"><ele>1021.0</ele><time>2026-04-11T08:32:01.335Z</time></trkpt><trkpt lat="38.2176276" lon="15.8781303"><ele>1021.0</ele><time>2026-04-11T08:32:02.335Z</time></trkpt><trkpt lat="38.2175421" lon="15.8782177"><ele>1020.9999999999999</ele><time>2026-04-11T08:32:03.336Z</time></trkpt><trkpt lat="38.2174569" lon="15.8782923"><ele>1020.9999999999999</ele><time>2026-04-11T08:32:04.335Z</time></trkpt><trkpt lat="38.2173577" lon="15.8783447"><ele>1021.0</ele><time>2026-04-11T08:32:05.335Z</time></trkpt><trkpt lat="38.2172413" lon="15.8783623"><ele>1021.0</ele><time>2026-04-11T08:32:06.335Z</time></trkpt><trkpt lat="38.2171211" lon="15.8783685"><ele>1021.0</ele><time>2026-04-11T08:32:07.336Z</time></trkpt><trkpt lat="38.2170015" lon="15.8783951"><ele>1021.0</ele><time>2026-04-11T08:32:08.336Z</time></trkpt><trkpt lat="38.2168864" lon="15.878448"><ele>1021.0</ele><time>2026-04-11T08:32:09.335Z</time></trkpt><trkpt lat="38.2167889" lon="15.8785202"><ele>1021.0</ele><time>2026-04-11T08:32:10.335Z</time></trkpt><trkpt lat="38.2167119" lon="15.8786062"><ele>1020.0</ele><time>2026-04-11T08:32:11.335Z</time></trkpt><trkpt lat="38.2166458" lon="15.8787017"><ele>1018.9999999999999</ele><time>2026-04-11T08:32:12.335Z</time></trkpt><trkpt lat="38.2165962" lon="15.8787982"><ele>1017.9999999999999</ele><time>2026-04-11T08:32:13.335Z</time></trkpt><trkpt lat="38.2165436" lon="15.8788997"><ele>1017.0</ele><time>2026-04-11T08:32:14.336Z</time></trkpt><trkpt lat="38.2164917" lon="15.8790101"><ele>1016.0</ele><time>2026-04-11T08:32:15.335Z</time></trkpt><trkpt lat="38.2164401" lon="15.879117"><ele>1016.0000000000001</ele><time>2026-04-11T08:32:16.335Z</time></trkpt><trkpt lat="38.2164103" lon="15.8792192"><ele>1016.0</ele><time>2026-04-11T08:32:17.335Z</time></trkpt><trkpt lat="38.2164055" lon="15.8793259"><ele>1016.0</ele><time>2026-04-11T08:32:18.335Z</time></trkpt><trkpt lat="38.2164354" lon="15.8794313"><ele>1016.0</ele><time>2026-04-11T08:32:19.336Z</time></trkpt><trkpt lat="38.2164938" lon="15.8795224"><ele>1016.0000000000001</ele><time>2026-04-11T08:32:20.335Z</time></trkpt><trkpt lat="38.2165714" lon="15.8795927"><ele>1016.0</ele><time>2026-04-11T08:32:21.336Z</time></trkpt><trkpt lat="38.2166549" lon="15.8796551"><ele>1015.4</ele><time>2026-04-11T08:32:22.335Z</time></trkpt><trkpt lat="38.2167413" lon="15.8797126"><ele>1014.8</ele><time>2026-04-11T08:32:23.336Z</time></trkpt><trkpt lat="38.2168245" lon="15.8797734"><ele>1014.1999999999999</ele><time>2026-04-11T08:32:24.335Z</time></trkpt><trkpt lat="38.2169082" lon="15.8798437"><ele>1013.5999999999999</ele><time>2026-04-11T08:32:25.335Z</time></trkpt><trkpt lat="38.2169991" lon="15.8799099"><ele>1013.0</ele><time>2026-04-11T08:32:26.336Z</time></trkpt><trkpt lat="38.2170924" lon="15.8799786"><ele>1013.0</ele><time>2026-04-11T08:32:27.335Z</time></trkpt><trkpt lat="38.2171865" lon="15.8800406"><ele>1013.0</ele><time>2026-04-11T08:32:28.336Z</time></trkpt><trkpt lat="38.2172858" lon="15.8800891"><ele>1013.0</ele><time>2026-04-11T08:32:29.335Z</time></trkpt><trkpt lat="38.2173894" lon="15.8801072"><ele>1013.0</ele><time>2026-04-11T08:32:30.336Z</time></trkpt><trkpt lat="38.2174993" lon="15.8801061"><ele>1013.0</ele><time>2026-04-11T08:32:31.335Z</time></trkpt><trkpt lat="38.2176083" lon="15.8801006"><ele>1012.2</ele><time>2026-04-11T08:32:32.336Z</time></trkpt><trkpt lat="38.2177182" lon="15.8800933"><ele>1011.4</ele><time>2026-04-11T08:32:33.335Z</time></trkpt><trkpt lat="38.2178225" lon="15.8800958"><ele>1010.6000000000001</ele><time>2026-04-11T08:32:34.336Z</time></trkpt><trkpt lat="38.2179256" lon="15.8801159"><ele>1009.8000000000001</ele><time>2026-04-11T08:32:35.335Z</time></trkpt><trkpt lat="38.2180319" lon="15.8801672"><ele>1009.0</ele><time>2026-04-11T08:32:36.336Z</time></trkpt><trkpt lat="38.2181387" lon="15.8802454"><ele>1006.75</ele><time>2026-04-11T08:32:37.335Z</time></trkpt><trkpt lat="38.218242" lon="15.8803269"><ele>1004.5</ele><time>2026-04-11T08:32:38.335Z</time></trkpt><trkpt lat="38.2183442" lon="15.880414"><ele>1002.25</ele><time>2026-04-11T08:32:39.335Z</time></trkpt><trkpt lat="38.2184499" lon="15.8804921"><ele>1000.0</ele><time>2026-04-11T08:32:40.335Z</time></trkpt><trkpt lat="38.2185486" lon="15.8805637"><ele>1000.0</ele><time>2026-04-11T08:32:41.335Z</time></trkpt><trkpt lat="38.2186424" lon="15.880608"><ele>1000.0</ele><time>2026-04-11T08:32:42.335Z</time></trkpt><trkpt lat="38.2187412" lon="15.8806282"><ele>1000.0</ele><time>2026-04-11T08:32:43.336Z</time></trkpt><trkpt lat="38.2188442" lon="15.8806223"><ele>1000.0</ele><time>2026-04-11T08:32:44.335Z</time></trkpt><trkpt lat="38.2189433" lon="15.8805937"><ele>1000.0</ele><time>2026-04-11T08:32:45.335Z</time></trkpt><trkpt lat="38.2190433" lon="15.8805523"><ele>1001.0</ele><time>2026-04-11T08:32:46.335Z</time></trkpt><trkpt lat="38.2191434" lon="15.8805017"><ele>1002.0</ele><time>2026-04-11T08:32:47.335Z</time></trkpt><trkpt lat="38.2192345" lon="15.8804634"><ele>1003.0</ele><time>2026-04-11T08:32:48.335Z</time></trkpt><trkpt lat="38.2193239" lon="15.8804402"><ele>1004.0</ele><time>2026-04-11T08:32:49.335Z</time></trkpt><trkpt lat="38.2194108" lon="15.880442"><ele>1005.0</ele><time>2026-04-11T08:32:50.335Z</time></trkpt><trkpt lat="38.2194958" lon="15.880462"><ele>1005.0</ele><time>2026-04-11T08:32:51.335Z</time></trkpt><trkpt lat="38.2195822" lon="15.8804906"><ele>1005.0</ele><time>2026-04-11T08:32:52.335Z</time></trkpt><trkpt lat="38.2196712" lon="15.880519"><ele>1005.0</ele><time>2026-04-11T08:32:53.335Z</time></trkpt><trkpt lat="38.2197698" lon="15.8805394"><ele>1005.0</ele><time>2026-04-11T08:32:54.335Z</time></trkpt><trkpt lat="38.2198851" lon="15.8805656"><ele>1005.0</ele><time>2026-04-11T08:32:55.336Z</time></trkpt><trkpt lat="38.220004" lon="15.8805734"><ele>1004.5</ele><time>2026-04-11T08:32:56.335Z</time></trkpt><trkpt lat="38.2201283" lon="15.8805663"><ele>1004.0</ele><time>2026-04-11T08:32:57.335Z</time></trkpt><trkpt lat="38.2202502" lon="15.8805246"><ele>1003.5</ele><time>2026-04-11T08:32:58.335Z</time></trkpt><trkpt lat="38.2203593" lon="15.8804722"><ele>1003.0</ele><time>2026-04-11T08:32:59.336Z</time></trkpt><trkpt lat="38.2204593" lon="15.8804268"><ele>1002.9999999999999</ele><time>2026-04-11T08:33:00.335Z</time></trkpt><trkpt lat="38.220552" lon="15.880389"><ele>1003.0</ele><time>2026-04-11T08:33:01.335Z</time></trkpt><trkpt lat="38.2206394" lon="15.8803662"><ele>1003.0</ele><time>2026-04-11T08:33:02.335Z</time></trkpt><trkpt lat="38.2207162" lon="15.8803772"><ele>1003.0</ele><time>2026-04-11T08:33:03.336Z</time></trkpt><trkpt lat="38.2207967" lon="15.88042"><ele>1002.9999999999999</ele><time>2026-04-11T08:33:04.335Z</time></trkpt><trkpt lat="38.2208285" lon="15.8805054"><ele>1003.0</ele><time>2026-04-11T08:33:05.335Z</time></trkpt><trkpt lat="38.2208084" lon="15.8806202"><ele>1002.0</ele><time>2026-04-11T08:33:06.335Z</time></trkpt><trkpt lat="38.2207511" lon="15.8807523"><ele>1001.0</ele><time>2026-04-11T08:33:07.335Z</time></trkpt><trkpt lat="38.2206871" lon="15.8808811"><ele>1000.0</ele><time>2026-04-11T08:33:08.336Z</time></trkpt><trkpt lat="38.2206247" lon="15.8810148"><ele>999.0</ele><time>2026-04-11T08:33:09.336Z</time></trkpt><trkpt lat="38.2205614" lon="15.8811521"><ele>999.0</ele><time>2026-04-11T08:33:10.335Z</time></trkpt><trkpt lat="38.2205027" lon="15.8812899"><ele>999.0</ele><time>2026-04-11T08:33:11.335Z</time></trkpt><trkpt lat="38.2204414" lon="15.8814155"><ele>999.0</ele><time>2026-04-11T08:33:12.335Z</time></trkpt><trkpt lat="38.2203791" lon="15.8815298"><ele>999.0</ele><time>2026-04-11T08:33:13.335Z</time></trkpt><trkpt lat="38.2203086" lon="15.8816343"><ele>999.0</ele><time>2026-04-11T08:33:14.335Z</time></trkpt><trkpt lat="38.2202304" lon="15.8817049"><ele>999.0000000000001</ele><time>2026-04-11T08:33:15.336Z</time></trkpt><trkpt lat="38.2201417" lon="15.8817486"><ele>999.0000000000001</ele><time>2026-04-11T08:33:16.335Z</time></trkpt><trkpt lat="38.220043" lon="15.8817899"><ele>999.0</ele><time>2026-04-11T08:33:17.335Z</time></trkpt><trkpt lat="38.2199431" lon="15.8818546"><ele>999.0</ele><time>2026-04-11T08:33:18.335Z</time></trkpt><trkpt lat="38.2198601" lon="15.8819469"><ele>997.0</ele><time>2026-04-11T08:33:19.335Z</time></trkpt><trkpt lat="38.2197848" lon="15.8820608"><ele>995.0000000000001</ele><time>2026-04-11T08:33:20.336Z</time></trkpt><trkpt lat="38.219715" lon="15.8821646"><ele>993.0000000000001</ele><time>2026-04-11T08:33:21.335Z</time></trkpt><trkpt lat="38.2196488" lon="15.8822511"><ele>991.0</ele><time>2026-04-11T08:33:22.335Z</time></trkpt><trkpt lat="38.2195745" lon="15.882319"><ele>989.0</ele><time>2026-04-11T08:33:23.335Z</time></trkpt><trkpt lat="38.2194843" lon="15.8823641"><ele>989.0</ele><time>2026-04-11T08:33:24.336Z</time></trkpt><trkpt lat="38.2193873" lon="15.8824012"><ele>989.0000000000001</ele><time>2026-04-11T08:33:25.335Z</time></trkpt><trkpt lat="38.2192911" lon="15.8824402"><ele>989.0000000000001</ele><time>2026-04-11T08:33:26.335Z</time></trkpt><trkpt lat="38.2191953" lon="15.8824894"><ele>989.0</ele><time>2026-04-11T08:33:27.335Z</time></trkpt><trkpt lat="38.2190929" lon="15.8825398"><ele>989.0</ele><time>2026-04-11T08:33:28.335Z</time></trkpt><trkpt lat="38.2189936" lon="15.8825762"><ele>985.8000000000001</ele><time>2026-04-11T08:33:29.336Z</time></trkpt><trkpt lat="38.2188936" lon="15.88259"><ele>982.6000000000001</ele><time>2026-04-11T08:33:30.335Z</time></trkpt><trkpt lat="38.2187892" lon="15.8825871"><ele>979.4</ele><time>2026-04-11T08:33:31.336Z</time></trkpt><trkpt lat="38.2186854" lon="15.8825815"><ele>976.2</ele><time>2026-04-11T08:33:32.335Z</time></trkpt><trkpt lat="38.2185782" lon="15.8825759"><ele>973.0</ele><time>2026-04-11T08:33:33.336Z</time></trkpt><trkpt lat="38.2184682" lon="15.8825594"><ele>973.0</ele><time>2026-04-11T08:33:34.335Z</time></trkpt><trkpt lat="38.2183628" lon="15.8825427"><ele>973.0</ele><time>2026-04-11T08:33:35.335Z</time></trkpt><trkpt lat="38.2182606" lon="15.8824877"><ele>973.0</ele><time>2026-04-11T08:33:36.336Z</time></trkpt><trkpt lat="38.2181736" lon="15.882395"><ele>973.0</ele><time>2026-04-11T08:33:37.335Z</time></trkpt><trkpt lat="38.2181189" lon="15.8822649"><ele>973.0</ele><time>2026-04-11T08:33:38.335Z</time></trkpt><trkpt lat="38.2180928" lon="15.8821161"><ele>969.75</ele><time>2026-04-11T08:33:39.336Z</time></trkpt><trkpt lat="38.2180736" lon="15.8819637"><ele>966.5</ele><time>2026-04-11T08:33:40.336Z</time></trkpt><trkpt lat="38.2180531" lon="15.8818159"><ele>963.25</ele><time>2026-04-11T08:33:41.336Z</time></trkpt><trkpt lat="38.2180059" lon="15.8816932"><ele>960.0</ele><time>2026-04-11T08:33:42.335Z</time></trkpt><trkpt lat="38.2179387" lon="15.8815923"><ele>960.0</ele><time>2026-04-11T08:33:43.335Z</time></trkpt><trkpt lat="38.2178599" lon="15.8815088"><ele>960.0</ele><time>2026-04-11T08:33:44.335Z</time></trkpt><trkpt lat="38.2177749" lon="15.8814351"><ele>960.0</ele><time>2026-04-11T08:33:45.336Z</time></trkpt><trkpt lat="38.2176821" lon="15.881354"><ele>960.0</ele><time>2026-04-11T08:33:46.336Z</time></trkpt><trkpt lat="38.2175818" lon="15.8812845"><ele>960.0</ele><time>2026-04-11T08:33:47.336Z</time></trkpt><trkpt lat="38.2174782" lon="15.8812374"><ele>960.0</ele><time>2026-04-11T08:33:48.335Z</time></trkpt><trkpt lat="38.2173687" lon="15.8812269"><ele>960.0</ele><time>2026-04-11T08:33:49.335Z</time></trkpt><trkpt lat="38.2172657" lon="15.8812274"><ele>960.0</ele><time>2026-04-11T08:33:50.335Z</time></trkpt><trkpt lat="38.2171633" lon="15.8812254"><ele>960.0</ele><time>2026-04-11T08:33:51.335Z</time></trkpt><trkpt lat="38.2170738" lon="15.8812216"><ele>960.0</ele><time>2026-04-11T08:33:52.335Z</time></trkpt><trkpt lat="38.2169926" lon="15.8812343"><ele>961.0</ele><time>2026-04-11T08:33:53.335Z</time></trkpt><trkpt lat="38.2169162" lon="15.8812728"><ele>962.0</ele><time>2026-04-11T08:33:54.335Z</time></trkpt><trkpt lat="38.2168544" lon="15.8813293"><ele>963.0</ele><time>2026-04-11T08:33:55.335Z</time></trkpt><trkpt lat="38.216799" lon="15.8814056"><ele>964.0</ele><time>2026-04-11T08:33:56.336Z</time></trkpt><trkpt lat="38.2167636" lon="15.8814809"><ele>965.0</ele><time>2026-04-11T08:33:57.335Z</time></trkpt><trkpt lat="38.216721" lon="15.8815858"><ele>966.0</ele><time>2026-04-11T08:33:59.336Z</time></trkpt><trkpt lat="38.2166741" lon="15.8816734"><ele>966.0</ele><time>2026-04-11T08:34:01.335Z</time></trkpt><trkpt lat="38.2166302" lon="15.8817651"><ele>965.9999999999999</ele><time>2026-04-11T08:34:03.335Z</time></trkpt><trkpt lat="38.2165797" lon="15.8818611"><ele>965.9999999999999</ele><time>2026-04-11T08:34:05.336Z</time></trkpt><trkpt lat="38.2165331" lon="15.8819635"><ele>966.0</ele><time>2026-04-11T08:34:07.335Z</time></trkpt><trkpt lat="38.2164617" lon="15.8820753"><ele>966.0</ele><time>2026-04-11T08:34:09.336Z</time></trkpt><trkpt lat="38.216385" lon="15.882184"><ele>961.3333333333334</ele><time>2026-04-11T08:34:11.335Z</time></trkpt><trkpt lat="38.21628" lon="15.8822533"><ele>956.6666666666667</ele><time>2026-04-11T08:34:13.335Z</time></trkpt><trkpt lat="38.2162195" lon="15.8822757"><ele>952.0</ele><time>2026-04-11T08:34:14.336Z</time></trkpt><trkpt lat="38.2161547" lon="15.8822949"><ele>947.3333333333334</ele><time>2026-04-11T08:34:15.336Z</time></trkpt><trkpt lat="38.2160834" lon="15.8823006"><ele>942.6666666666667</ele><time>2026-04-11T08:34:16.335Z</time></trkpt><trkpt lat="38.216008" lon="15.8822952"><ele>938.0</ele><time>2026-04-11T08:34:17.335Z</time></trkpt><trkpt lat="38.2159437" lon="15.8822771"><ele>938.0000000000001</ele><time>2026-04-11T08:34:18.335Z</time></trkpt><trkpt lat="38.2158816" lon="15.8822322"><ele>938.0</ele><time>2026-04-11T08:34:19.335Z</time></trkpt><trkpt lat="38.2158235" lon="15.8821636"><ele>938.0</ele><time>2026-04-11T08:34:20.335Z</time></trkpt><trkpt lat="38.2157745" lon="15.8820751"><ele>938.0</ele><time>2026-04-11T08:34:21.335Z</time></trkpt><trkpt lat="38.2157289" lon="15.8819855"><ele>938.0000000000001</ele><time>2026-04-11T08:34:22.335Z</time></trkpt><trkpt lat="38.2156765" lon="15.8818993"><ele>938.0</ele><time>2026-04-11T08:34:23.336Z</time></trkpt><trkpt lat="38.2156239" lon="15.8818157"><ele>937.5000000000001</ele><time>2026-04-11T08:34:24.335Z</time></trkpt><trkpt lat="38.2155603" lon="15.8817445"><ele>937.0</ele><time>2026-04-11T08:34:25.335Z</time></trkpt><trkpt lat="38.2155018" lon="15.8816758"><ele>936.5</ele><time>2026-04-11T08:34:26.335Z</time></trkpt><trkpt lat="38.2154471" lon="15.8816141"><ele>936.0</ele><time>2026-04-11T08:34:27.336Z</time></trkpt><trkpt lat="38.2153923" lon="15.8815558"><ele>935.5000000000001</ele><time>2026-04-11T08:34:28.335Z</time></trkpt><trkpt lat="38.2153383" lon="15.8814846"><ele>935.0</ele><time>2026-04-11T08:34:29.335Z</time></trkpt><trkpt lat="38.2152755" lon="15.881417"><ele>935.0000000000001</ele><time>2026-04-11T08:34:30.335Z</time></trkpt><trkpt lat="38.2151998" lon="15.8813511"><ele>935.0</ele><time>2026-04-11T08:34:31.335Z</time></trkpt><trkpt lat="38.215124" lon="15.8812899"><ele>935.0</ele><time>2026-04-11T08:34:32.335Z</time></trkpt><trkpt lat="38.215044" lon="15.8812344"><ele>935.0</ele><time>2026-04-11T08:34:33.335Z</time></trkpt><trkpt lat="38.2149635" lon="15.8811864"><ele>935.0000000000001</ele><time>2026-04-11T08:34:34.336Z</time></trkpt><trkpt lat="38.2148875" lon="15.881151"><ele>935.0</ele><time>2026-04-11T08:34:35.335Z</time></trkpt><trkpt lat="38.2148085" lon="15.8811356"><ele>934.6</ele><time>2026-04-11T08:34:36.335Z</time></trkpt><trkpt lat="38.2147198" lon="15.8811357"><ele>934.2</ele><time>2026-04-11T08:34:37.336Z</time></trkpt><trkpt lat="38.214614" lon="15.8811478"><ele>933.8</ele><time>2026-04-11T08:34:38.335Z</time></trkpt><trkpt lat="38.2144996" lon="15.881167"><ele>933.4</ele><time>2026-04-11T08:34:39.335Z</time></trkpt><trkpt lat="38.2143806" lon="15.8811986"><ele>933.0</ele><time>2026-04-11T08:34:40.335Z</time></trkpt><trkpt lat="38.2142731" lon="15.8812307"><ele>933.0</ele><time>2026-04-11T08:34:41.335Z</time></trkpt><trkpt lat="38.2141749" lon="15.8812628"><ele>933.0</ele><time>2026-04-11T08:34:42.335Z</time></trkpt><trkpt lat="38.2140782" lon="15.8813075"><ele>933.0</ele><time>2026-04-11T08:34:43.336Z</time></trkpt><trkpt lat="38.2139862" lon="15.8813701"><ele>933.0</ele><time>2026-04-11T08:34:44.336Z</time></trkpt><trkpt lat="38.2138962" lon="15.8814427"><ele>933.0</ele><time>2026-04-11T08:34:45.335Z</time></trkpt><trkpt lat="38.2138077" lon="15.8815078"><ele>933.4</ele><time>2026-04-11T08:34:46.335Z</time></trkpt><trkpt lat="38.2137226" lon="15.8815782"><ele>933.8</ele><time>2026-04-11T08:34:47.336Z</time></trkpt><trkpt lat="38.213635" lon="15.8816261"><ele>934.2</ele><time>2026-04-11T08:34:48.335Z</time></trkpt><trkpt lat="38.2135466" lon="15.8816583"><ele>934.6</ele><time>2026-04-11T08:34:49.335Z</time></trkpt><trkpt lat="38.2134537" lon="15.8816864"><ele>935.0</ele><time>2026-04-11T08:34:50.335Z</time></trkpt><trkpt lat="38.2133683" lon="15.8816808"><ele>935.0</ele><time>2026-04-11T08:34:51.335Z</time></trkpt><trkpt lat="38.2132998" lon="15.8816655"><ele>935.0</ele><time>2026-04-11T08:34:52.335Z</time></trkpt><trkpt lat="38.2131913" lon="15.8816209"><ele>935.0</ele><time>2026-04-11T08:34:54.335Z</time></trkpt><trkpt lat="38.2131024" lon="15.8815582"><ele>935.0</ele><time>2026-04-11T08:34:56.336Z</time></trkpt><trkpt lat="38.2130172" lon="15.881514"><ele>935.0</ele><time>2026-04-11T08:34:58.336Z</time></trkpt><trkpt lat="38.2129249" lon="15.8815134"><ele>933.6</ele><time>2026-04-11T08:35:00.335Z</time></trkpt><trkpt lat="38.2128472" lon="15.8815326"><ele>932.2</ele><time>2026-04-11T08:35:02.335Z</time></trkpt><trkpt lat="38.2127846" lon="15.8815708"><ele>930.8</ele><time>2026-04-11T08:35:04.336Z</time></trkpt><trkpt lat="38.2127025" lon="15.8816272"><ele>929.4</ele><time>2026-04-11T08:35:06.335Z</time></trkpt><trkpt lat="38.2126083" lon="15.8816864"><ele>928.0</ele><time>2026-04-11T08:35:08.336Z</time></trkpt><trkpt lat="38.2125053" lon="15.8817602"><ele>929.6666666666666</ele><time>2026-04-11T08:35:10.336Z</time></trkpt><trkpt lat="38.2124285" lon="15.8818886"><ele>931.3333333333333</ele><time>2026-04-11T08:35:12.335Z</time></trkpt><trkpt lat="38.2124039" lon="15.8819771"><ele>933.0</ele><time>2026-04-11T08:35:13.336Z</time></trkpt><trkpt lat="38.2123946" lon="15.8820625"><ele>934.6666666666667</ele><time>2026-04-11T08:35:14.336Z</time></trkpt><trkpt lat="38.2124024" lon="15.8821534"><ele>936.3333333333334</ele><time>2026-04-11T08:35:15.336Z</time></trkpt><trkpt lat="38.2124141" lon="15.8822444"><ele>938.0</ele><time>2026-04-11T08:35:16.335Z</time></trkpt><trkpt lat="38.2124308" lon="15.8823326"><ele>938.0000000000001</ele><time>2026-04-11T08:35:17.335Z</time></trkpt><trkpt lat="38.2124567" lon="15.8824119"><ele>938.0</ele><time>2026-04-11T08:35:18.335Z</time></trkpt><trkpt lat="38.2124841" lon="15.8824959"><ele>938.0</ele><time>2026-04-11T08:35:19.335Z</time></trkpt><trkpt lat="38.2125123" lon="15.8825878"><ele>938.0</ele><time>2026-04-11T08:35:20.335Z</time></trkpt><trkpt lat="38.2125486" lon="15.8826832"><ele>938.0000000000001</ele><time>2026-04-11T08:35:21.335Z</time></trkpt><trkpt lat="38.2125857" lon="15.8827897"><ele>938.0</ele><time>2026-04-11T08:35:22.336Z</time></trkpt><trkpt lat="38.2126198" lon="15.8829074"><ele>941.5999999999999</ele><time>2026-04-11T08:35:23.335Z</time></trkpt><trkpt lat="38.2126547" lon="15.8830189"><ele>945.1999999999999</ele><time>2026-04-11T08:35:24.336Z</time></trkpt><trkpt lat="38.2126901" lon="15.883135"><ele>948.8</ele><time>2026-04-11T08:35:25.336Z</time></trkpt><trkpt lat="38.2127393" lon="15.8832538"><ele>952.4</ele><time>2026-04-11T08:35:26.336Z</time></trkpt><trkpt lat="38.2127944" lon="15.8833656"><ele>956.0</ele><time>2026-04-11T08:35:27.336Z</time></trkpt><trkpt lat="38.2128444" lon="15.8834662"><ele>956.5000000000001</ele><time>2026-04-11T08:35:28.335Z</time></trkpt><trkpt lat="38.2128999" lon="15.883568"><ele>957.0</ele><time>2026-04-11T08:35:29.335Z</time></trkpt><trkpt lat="38.2129538" lon="15.8836573"><ele>957.5</ele><time>2026-04-11T08:35:30.335Z</time></trkpt><trkpt lat="38.2130116" lon="15.8837453"><ele>958.0</ele><time>2026-04-11T08:35:31.336Z</time></trkpt><trkpt lat="38.2130645" lon="15.8838308"><ele>958.5000000000001</ele><time>2026-04-11T08:35:32.336Z</time></trkpt><trkpt lat="38.2131217" lon="15.8839121"><ele>959.0</ele><time>2026-04-11T08:35:33.335Z</time></trkpt><trkpt lat="38.213184" lon="15.8839833"><ele>959.0000000000001</ele><time>2026-04-11T08:35:34.335Z</time></trkpt><trkpt lat="38.2132551" lon="15.8840296"><ele>959.0</ele><time>2026-04-11T08:35:35.335Z</time></trkpt><trkpt lat="38.2133244" lon="15.8840481"><ele>959.0</ele><time>2026-04-11T08:35:36.335Z</time></trkpt><trkpt lat="38.2133999" lon="15.8840404"><ele>959.0</ele><time>2026-04-11T08:35:37.336Z</time></trkpt><trkpt lat="38.2134717" lon="15.8840109"><ele>959.0000000000001</ele><time>2026-04-11T08:35:38.335Z</time></trkpt><trkpt lat="38.2135534" lon="15.8839419"><ele>959.0</ele><time>2026-04-11T08:35:39.335Z</time></trkpt><trkpt lat="38.2136473" lon="15.88385"><ele>959.0</ele><time>2026-04-11T08:35:40.335Z</time></trkpt><trkpt lat="38.2137416" lon="15.883754"><ele>959.0</ele><time>2026-04-11T08:35:41.335Z</time></trkpt><trkpt lat="38.2138328" lon="15.883666"><ele>959.0</ele><time>2026-04-11T08:35:42.335Z</time></trkpt><trkpt lat="38.2139246" lon="15.8835857"><ele>959.0</ele><time>2026-04-11T08:35:43.335Z</time></trkpt><trkpt lat="38.2140201" lon="15.8835277"><ele>961.6</ele><time>2026-04-11T08:35:44.335Z</time></trkpt><trkpt lat="38.2141202" lon="15.8834903"><ele>964.2</ele><time>2026-04-11T08:35:45.336Z</time></trkpt><trkpt lat="38.2142195" lon="15.8834862"><ele>966.8000000000001</ele><time>2026-04-11T08:35:46.336Z</time></trkpt><trkpt lat="38.2143239" lon="15.8835084"><ele>969.4000000000001</ele><time>2026-04-11T08:35:47.335Z</time></trkpt><trkpt lat="38.2144342" lon="15.8835384"><ele>972.0</ele><time>2026-04-11T08:35:48.335Z</time></trkpt><trkpt lat="38.2145401" lon="15.883585"><ele>972.0</ele><time>2026-04-11T08:35:49.335Z</time></trkpt><trkpt lat="38.2146453" lon="15.8836293"><ele>972.0</ele><time>2026-04-11T08:35:50.335Z</time></trkpt><trkpt lat="38.2147441" lon="15.8836745"><ele>972.0</ele><time>2026-04-11T08:35:51.335Z</time></trkpt><trkpt lat="38.2148392" lon="15.8837243"><ele>972.0</ele><time>2026-04-11T08:35:52.335Z</time></trkpt><trkpt lat="38.2149291" lon="15.8837707"><ele>972.0</ele><time>2026-04-11T08:35:53.335Z</time></trkpt><trkpt lat="38.2150152" lon="15.8838084"><ele>972.6666666666666</ele><time>2026-04-11T08:35:54.335Z</time></trkpt><trkpt lat="38.2151014" lon="15.8838402"><ele>973.3333333333333</ele><time>2026-04-11T08:35:55.336Z</time></trkpt><trkpt lat="38.2151861" lon="15.8838796"><ele>974.0</ele><time>2026-04-11T08:35:56.335Z</time></trkpt><trkpt lat="38.2152741" lon="15.8839066"><ele>974.6666666666666</ele><time>2026-04-11T08:35:57.335Z</time></trkpt><trkpt lat="38.2153614" lon="15.8839249"><ele>975.3333333333333</ele><time>2026-04-11T08:35:58.335Z</time></trkpt><trkpt lat="38.2154493" lon="15.8839423"><ele>976.0</ele><time>2026-04-11T08:35:59.336Z</time></trkpt><trkpt lat="38.2155367" lon="15.8839585"><ele>975.9999999999999</ele><time>2026-04-11T08:36:00.335Z</time></trkpt><trkpt lat="38.2156231" lon="15.8839717"><ele>976.0</ele><time>2026-04-11T08:36:01.335Z</time></trkpt><trkpt lat="38.2157025" lon="15.8839875"><ele>976.0</ele><time>2026-04-11T08:36:02.336Z</time></trkpt><trkpt lat="38.2157919" lon="15.8840179"><ele>976.0</ele><time>2026-04-11T08:36:03.336Z</time></trkpt><trkpt lat="38.2158803" lon="15.8840295"><ele>975.9999999999999</ele><time>2026-04-11T08:36:04.335Z</time></trkpt><trkpt lat="38.2159703" lon="15.8840322"><ele>976.0</ele><time>2026-04-11T08:36:05.335Z</time></trkpt><trkpt lat="38.2160579" lon="15.8840221"><ele>974.6666666666666</ele><time>2026-04-11T08:36:06.336Z</time></trkpt><trkpt lat="38.2161432" lon="15.884017"><ele>973.3333333333333</ele><time>2026-04-11T08:36:07.335Z</time></trkpt><trkpt lat="38.2162257" lon="15.8840115"><ele>972.0</ele><time>2026-04-11T08:36:08.335Z</time></trkpt><trkpt lat="38.2163027" lon="15.8840264"><ele>970.6666666666667</ele><time>2026-04-11T08:36:09.335Z</time></trkpt><trkpt lat="38.2163775" lon="15.8840868"><ele>969.3333333333334</ele><time>2026-04-11T08:36:10.335Z</time></trkpt><trkpt lat="38.2164372" lon="15.884166"><ele>968.0</ele><time>2026-04-11T08:36:11.336Z</time></trkpt><trkpt lat="38.2164685" lon="15.8842615"><ele>975.4</ele><time>2026-04-11T08:36:12.335Z</time></trkpt><trkpt lat="38.2164791" lon="15.8843747"><ele>982.8</ele><time>2026-04-11T08:36:13.335Z</time></trkpt><trkpt lat="38.2164829" lon="15.8844919"><ele>990.2</ele><time>2026-04-11T08:36:14.335Z</time></trkpt><trkpt lat="38.2164738" lon="15.8846435"><ele>997.6</ele><time>2026-04-11T08:36:15.335Z</time></trkpt><trkpt lat="38.2164641" lon="15.8848027"><ele>1005.0</ele><time>2026-04-11T08:36:16.335Z</time></trkpt><trkpt lat="38.2164629" lon="15.8849476"><ele>1005.0</ele><time>2026-04-11T08:36:17.335Z</time></trkpt><trkpt lat="38.2164631" lon="15.8850886"><ele>1005.0</ele><time>2026-04-11T08:36:18.335Z</time></trkpt><trkpt lat="38.2164729" lon="15.8852296"><ele>1005.0</ele><time>2026-04-11T08:36:19.336Z</time></trkpt><trkpt lat="38.2165049" lon="15.8853562"><ele>1005.0</ele><time>2026-04-11T08:36:20.336Z</time></trkpt><trkpt lat="38.2165508" lon="15.8854747"><ele>1005.0</ele><time>2026-04-11T08:36:21.335Z</time></trkpt><trkpt lat="38.2166186" lon="15.885588"><ele>1005.2</ele><time>2026-04-11T08:36:22.335Z</time></trkpt><trkpt lat="38.2166935" lon="15.8856985"><ele>1005.4</ele><time>2026-04-11T08:36:23.335Z</time></trkpt><trkpt lat="38.2167732" lon="15.8857976"><ele>1005.5999999999999</ele><time>2026-04-11T08:36:24.336Z</time></trkpt><trkpt lat="38.2168617" lon="15.8858671"><ele>1005.8</ele><time>2026-04-11T08:36:25.335Z</time></trkpt><trkpt lat="38.2169597" lon="15.8859054"><ele>1006.0</ele><time>2026-04-11T08:36:26.335Z</time></trkpt><trkpt lat="38.2170628" lon="15.8859466"><ele>1006.0</ele><time>2026-04-11T08:36:27.335Z</time></trkpt><trkpt lat="38.2171773" lon="15.8859889"><ele>1005.9999999999999</ele><time>2026-04-11T08:36:28.335Z</time></trkpt><trkpt lat="38.2172815" lon="15.8860144"><ele>1005.9999999999999</ele><time>2026-04-11T08:36:29.335Z</time></trkpt><trkpt lat="38.2173887" lon="15.886069"><ele>1006.0</ele><time>2026-04-11T08:36:30.336Z</time></trkpt><trkpt lat="38.2174741" lon="15.8861367"><ele>1006.0</ele><time>2026-04-11T08:36:31.335Z</time></trkpt><trkpt lat="38.2175401" lon="15.8862212"><ele>1004.8</ele><time>2026-04-11T08:36:32.335Z</time></trkpt><trkpt lat="38.2175807" lon="15.8863111"><ele>1003.5999999999999</ele><time>2026-04-11T08:36:33.335Z</time></trkpt><trkpt lat="38.2176077" lon="15.8864223"><ele>1002.4</ele><time>2026-04-11T08:36:34.335Z</time></trkpt><trkpt lat="38.2176343" lon="15.8865399"><ele>1001.2</ele><time>2026-04-11T08:36:35.335Z</time></trkpt><trkpt lat="38.2176724" lon="15.8866555"><ele>1000.0</ele><time>2026-04-11T08:36:36.335Z</time></trkpt><trkpt lat="38.2177203" lon="15.8867657"><ele>1000.0</ele><time>2026-04-11T08:36:37.336Z</time></trkpt><trkpt lat="38.2177841" lon="15.886872"><ele>1000.0</ele><time>2026-04-11T08:36:38.335Z</time></trkpt><trkpt lat="38.2178603" lon="15.8869654"><ele>1000.0</ele><time>2026-04-11T08:36:39.335Z</time></trkpt><trkpt lat="38.2179497" lon="15.8870485"><ele>1000.0</ele><time>2026-04-11T08:36:40.335Z</time></trkpt><trkpt lat="38.2180397" lon="15.8871221"><ele>1000.0</ele><time>2026-04-11T08:36:41.335Z</time></trkpt><trkpt lat="38.2181432" lon="15.8871831"><ele>997.25</ele><time>2026-04-11T08:36:42.335Z</time></trkpt><trkpt lat="38.2182622" lon="15.8872485"><ele>994.5</ele><time>2026-04-11T08:36:43.335Z</time></trkpt><trkpt lat="38.2183805" lon="15.887314"><ele>991.75</ele><time>2026-04-11T08:36:44.335Z</time></trkpt><trkpt lat="38.2184887" lon="15.8873865"><ele>989.0</ele><time>2026-04-11T08:36:45.336Z</time></trkpt><trkpt lat="38.2185842" lon="15.8874584"><ele>989.0</ele><time>2026-04-11T08:36:46.335Z</time></trkpt><trkpt lat="38.2186669" lon="15.8875343"><ele>989.0000000000001</ele><time>2026-04-11T08:36:47.335Z</time></trkpt><trkpt lat="38.2187419" lon="15.8876029"><ele>989.0000000000001</ele><time>2026-04-11T08:36:48.335Z</time></trkpt><trkpt lat="38.2188237" lon="15.8876759"><ele>989.0</ele><time>2026-04-11T08:36:49.335Z</time></trkpt><trkpt lat="38.2189046" lon="15.8877309"><ele>989.0</ele><time>2026-04-11T08:36:50.335Z</time></trkpt><trkpt lat="38.2189689" lon="15.8877773"><ele>989.1666666666667</ele><time>2026-04-11T08:36:51.335Z</time></trkpt><trkpt lat="38.21905" lon="15.8878439"><ele>989.3333333333334</ele><time>2026-04-11T08:36:53.335Z</time></trkpt><trkpt lat="38.2189868" lon="15.8879023"><ele>989.5</ele><time>2026-04-11T08:36:57.335Z</time></trkpt><trkpt lat="38.2189138" lon="15.8878985"><ele>989.6666666666667</ele><time>2026-04-11T08:36:59.335Z</time></trkpt><trkpt lat="38.2188326" lon="15.8878757"><ele>989.8333333333334</ele><time>2026-04-11T08:37:49.335Z</time></trkpt><trkpt lat="38.2187687" lon="15.8878541"><ele>990.0</ele><time>2026-04-11T08:37:51.335Z</time></trkpt><trkpt lat="38.218684" lon="15.887819"><ele>990.0</ele><time>2026-04-11T08:37:54.335Z</time></trkpt><trkpt lat="38.2185908" lon="15.887759"><ele>990.0</ele><time>2026-04-11T08:37:57.336Z</time></trkpt><trkpt lat="38.2184784" lon="15.8877422"><ele>990.0</ele><time>2026-04-11T08:37:59.336Z</time></trkpt><trkpt lat="38.2183506" lon="15.8877527"><ele>990.0</ele><time>2026-04-11T08:38:01.335Z</time></trkpt><trkpt lat="38.2182333" lon="15.8877478"><ele>991.142857142857</ele><time>2026-04-11T08:38:03.336Z</time></trkpt><trkpt lat="38.2181259" lon="15.8877254"><ele>992.2857142857142</ele><time>2026-04-11T08:38:05.336Z</time></trkpt><trkpt lat="38.2180636" lon="15.8877003"><ele>993.4285714285714</ele><time>2026-04-11T08:38:06.335Z</time></trkpt><trkpt lat="38.2179912" lon="15.8876738"><ele>994.5714285714286</ele><time>2026-04-11T08:38:07.336Z</time></trkpt><trkpt lat="38.2179301" lon="15.8876524"><ele>995.7142857142858</ele><time>2026-04-11T08:38:08.336Z</time></trkpt><trkpt lat="38.217867" lon="15.8876335"><ele>996.857142857143</ele><time>2026-04-11T08:38:09.335Z</time></trkpt><trkpt lat="38.2178036" lon="15.8876165"><ele>998.0000000000001</ele><time>2026-04-11T08:38:10.336Z</time></trkpt><trkpt lat="38.2177361" lon="15.8875972"><ele>998.2857142857144</ele><time>2026-04-11T08:38:11.335Z</time></trkpt><trkpt lat="38.2176707" lon="15.8875655"><ele>998.5714285714287</ele><time>2026-04-11T08:38:12.336Z</time></trkpt><trkpt lat="38.2176113" lon="15.8875283"><ele>998.8571428571429</ele><time>2026-04-11T08:38:13.335Z</time></trkpt><trkpt lat="38.2175563" lon="15.887482"><ele>999.1428571428572</ele><time>2026-04-11T08:38:14.336Z</time></trkpt><trkpt lat="38.2174914" lon="15.8874301"><ele>999.4285714285716</ele><time>2026-04-11T08:38:15.335Z</time></trkpt><trkpt lat="38.2174187" lon="15.8873735"><ele>999.7142857142857</ele><time>2026-04-11T08:38:16.335Z</time></trkpt><trkpt lat="38.2173496" lon="15.8873164"><ele>1000.0</ele><time>2026-04-11T08:38:17.335Z</time></trkpt><trkpt lat="38.2172809" lon="15.8872623"><ele>1001.8333333333333</ele><time>2026-04-11T08:38:18.335Z</time></trkpt><trkpt lat="38.217204" lon="15.8872057"><ele>1003.6666666666666</ele><time>2026-04-11T08:38:19.335Z</time></trkpt><trkpt lat="38.2171337" lon="15.8871536"><ele>1005.5</ele><time>2026-04-11T08:38:20.335Z</time></trkpt><trkpt lat="38.2170624" lon="15.8871017"><ele>1007.3333333333333</ele><time>2026-04-11T08:38:21.335Z</time></trkpt><trkpt lat="38.2169932" lon="15.8870473"><ele>1009.1666666666666</ele><time>2026-04-11T08:38:22.335Z</time></trkpt><trkpt lat="38.216925" lon="15.8869908"><ele>1011.0</ele><time>2026-04-11T08:38:23.335Z</time></trkpt><trkpt lat="38.2168581" lon="15.8869381"><ele>1011.0</ele><time>2026-04-11T08:38:24.335Z</time></trkpt><trkpt lat="38.2167875" lon="15.886882"><ele>1011.0</ele><time>2026-04-11T08:38:25.336Z</time></trkpt><trkpt lat="38.2167188" lon="15.8868253"><ele>1011.0</ele><time>2026-04-11T08:38:26.335Z</time></trkpt><trkpt lat="38.2166475" lon="15.8867718"><ele>1011.0</ele><time>2026-04-11T08:38:27.335Z</time></trkpt><trkpt lat="38.2165777" lon="15.886724"><ele>1011.0</ele><time>2026-04-11T08:38:28.335Z</time></trkpt><trkpt lat="38.2165102" lon="15.8866741"><ele>1011.0</ele><time>2026-04-11T08:38:29.335Z</time></trkpt><trkpt lat="38.2164354" lon="15.8866197"><ele>1012.1999999999999</ele><time>2026-04-11T08:38:30.335Z</time></trkpt><trkpt lat="38.2163576" lon="15.8865634"><ele>1013.3999999999999</ele><time>2026-04-11T08:38:31.336Z</time></trkpt><trkpt lat="38.2162729" lon="15.8864995"><ele>1014.6</ele><time>2026-04-11T08:38:32.336Z</time></trkpt><trkpt lat="38.2161938" lon="15.8864381"><ele>1015.8</ele><time>2026-04-11T08:38:33.336Z</time></trkpt><trkpt lat="38.2161168" lon="15.886375"><ele>1017.0</ele><time>2026-04-11T08:38:34.335Z</time></trkpt><trkpt lat="38.2160389" lon="15.8863169"><ele>1017.0</ele><time>2026-04-11T08:38:35.336Z</time></trkpt><trkpt lat="38.215962" lon="15.8862599"><ele>1017.0</ele><time>2026-04-11T08:38:36.335Z</time></trkpt><trkpt lat="38.2158868" lon="15.8862015"><ele>1017.0</ele><time>2026-04-11T08:38:37.335Z</time></trkpt><trkpt lat="38.2158162" lon="15.8861443"><ele>1017.0</ele><time>2026-04-11T08:38:38.335Z</time></trkpt><trkpt lat="38.2157449" lon="15.8860762"><ele>1017.0</ele><time>2026-04-11T08:38:39.335Z</time></trkpt><trkpt lat="38.2156789" lon="15.8860065"><ele>1017.0</ele><time>2026-04-11T08:38:40.335Z</time></trkpt><trkpt lat="38.2156098" lon="15.8859425"><ele>1018.1666666666666</ele><time>2026-04-11T08:38:41.335Z</time></trkpt><trkpt lat="38.2155414" lon="15.885879"><ele>1019.3333333333333</ele><time>2026-04-11T08:38:42.335Z</time></trkpt><trkpt lat="38.2154642" lon="15.8858181"><ele>1020.5</ele><time>2026-04-11T08:38:43.336Z</time></trkpt><trkpt lat="38.2153871" lon="15.8857524"><ele>1021.6666666666666</ele><time>2026-04-11T08:38:44.335Z</time></trkpt><trkpt lat="38.2153119" lon="15.8856898"><ele>1022.8333333333333</ele><time>2026-04-11T08:38:45.336Z</time></trkpt><trkpt lat="38.2152411" lon="15.8856252"><ele>1024.0</ele><time>2026-04-11T08:38:46.336Z</time></trkpt><trkpt lat="38.2151768" lon="15.8855633"><ele>1023.9999999999999</ele><time>2026-04-11T08:38:47.336Z</time></trkpt><trkpt lat="38.2151078" lon="15.8855136"><ele>1024.0</ele><time>2026-04-11T08:38:48.337Z</time></trkpt><trkpt lat="38.2150303" lon="15.8854768"><ele>1024.0</ele><time>2026-04-11T08:38:49.336Z</time></trkpt><trkpt lat="38.2149488" lon="15.8854626"><ele>1024.0</ele><time>2026-04-11T08:38:50.336Z</time></trkpt><trkpt lat="38.2148658" lon="15.8854734"><ele>1023.9999999999999</ele><time>2026-04-11T08:38:51.337Z</time></trkpt><trkpt lat="38.214781" lon="15.8855031"><ele>1024.0</ele><time>2026-04-11T08:38:52.336Z</time></trkpt><trkpt lat="38.214694" lon="15.8855365"><ele>1023.6</ele><time>2026-04-11T08:38:53.336Z</time></trkpt><trkpt lat="38.2146036" lon="15.8855778"><ele>1023.2</ele><time>2026-04-11T08:38:54.337Z</time></trkpt><trkpt lat="38.2145116" lon="15.8856141"><ele>1022.8000000000001</ele><time>2026-04-11T08:38:55.336Z</time></trkpt><trkpt lat="38.2144154" lon="15.8856519"><ele>1022.4000000000001</ele><time>2026-04-11T08:38:56.336Z</time></trkpt><trkpt lat="38.214316" lon="15.8856841"><ele>1022.0</ele><time>2026-04-11T08:38:57.337Z</time></trkpt><trkpt lat="38.2142186" lon="15.8857171"><ele>1022.0</ele><time>2026-04-11T08:38:58.336Z</time></trkpt><trkpt lat="38.2141202" lon="15.8857564"><ele>1022.0</ele><time>2026-04-11T08:38:59.336Z</time></trkpt><trkpt lat="38.2140218" lon="15.8857977"><ele>1022.0</ele><time>2026-04-11T08:39:00.337Z</time></trkpt><trkpt lat="38.2139202" lon="15.8858395"><ele>1022.0</ele><time>2026-04-11T08:39:01.337Z</time></trkpt><trkpt lat="38.2138142" lon="15.8858826"><ele>1022.0</ele><time>2026-04-11T08:39:02.336Z</time></trkpt><trkpt lat="38.2137085" lon="15.8859201"><ele>1024.4</ele><time>2026-04-11T08:39:03.336Z</time></trkpt><trkpt lat="38.2136089" lon="15.8859556"><ele>1026.8000000000002</ele><time>2026-04-11T08:39:04.336Z</time></trkpt><trkpt lat="38.2135085" lon="15.8859861"><ele>1029.2</ele><time>2026-04-11T08:39:05.337Z</time></trkpt><trkpt lat="38.2134056" lon="15.8860208"><ele>1031.6000000000001</ele><time>2026-04-11T08:39:06.336Z</time></trkpt><trkpt lat="38.2133083" lon="15.8860528"><ele>1034.0</ele><time>2026-04-11T08:39:07.336Z</time></trkpt><trkpt lat="38.213215" lon="15.8860747"><ele>1036.1666666666667</ele><time>2026-04-11T08:39:08.336Z</time></trkpt><trkpt lat="38.2131354" lon="15.886085"><ele>1038.3333333333335</ele><time>2026-04-11T08:39:09.336Z</time></trkpt><trkpt lat="38.2130635" lon="15.8860743"><ele>1040.5</ele><time>2026-04-11T08:39:10.336Z</time></trkpt><trkpt lat="38.2129959" lon="15.8860493"><ele>1042.6666666666667</ele><time>2026-04-11T08:39:11.336Z</time></trkpt><trkpt lat="38.2129219" lon="15.8860165"><ele>1044.8333333333333</ele><time>2026-04-11T08:39:12.336Z</time></trkpt><trkpt lat="38.2128463" lon="15.8859914"><ele>1047.0</ele><time>2026-04-11T08:39:13.337Z</time></trkpt><trkpt lat="38.2127726" lon="15.8859751"><ele>1047.0</ele><time>2026-04-11T08:39:14.337Z</time></trkpt><trkpt lat="38.2127022" lon="15.8859784"><ele>1047.0</ele><time>2026-04-11T08:39:15.337Z</time></trkpt><trkpt lat="38.2126358" lon="15.8859981"><ele>1047.0</ele><time>2026-04-11T08:39:16.336Z</time></trkpt><trkpt lat="38.2125831" lon="15.8860462"><ele>1047.0</ele><time>2026-04-11T08:39:17.336Z</time></trkpt><trkpt lat="38.2125259" lon="15.8861857"><ele>1047.0</ele><time>2026-04-11T08:39:19.336Z</time></trkpt><trkpt lat="38.2125053" lon="15.8862789"><ele>1047.0</ele><time>2026-04-11T08:39:20.336Z</time></trkpt><trkpt lat="38.2124849" lon="15.8863755"><ele>1047.0000000000002</ele><time>2026-04-11T08:39:21.336Z</time></trkpt><trkpt lat="38.2124634" lon="15.8864725"><ele>1047.0</ele><time>2026-04-11T08:39:22.336Z</time></trkpt><trkpt lat="38.2124457" lon="15.8865677"><ele>1047.0</ele><time>2026-04-11T08:39:23.336Z</time></trkpt><trkpt lat="38.2124227" lon="15.8866507"><ele>1047.0</ele><time>2026-04-11T08:39:24.336Z</time></trkpt><trkpt lat="38.212385" lon="15.8867231"><ele>1047.0</ele><time>2026-04-11T08:39:25.337Z</time></trkpt><trkpt lat="38.2123364" lon="15.8867851"><ele>1047.0000000000002</ele><time>2026-04-11T08:39:26.336Z</time></trkpt><trkpt lat="38.2122884" lon="15.8868417"><ele>1047.0</ele><time>2026-04-11T08:39:27.337Z</time></trkpt><trkpt lat="38.2122386" lon="15.8869062"><ele>1047.1666666666667</ele><time>2026-04-11T08:39:28.336Z</time></trkpt><trkpt lat="38.2121961" lon="15.8869677"><ele>1047.3333333333333</ele><time>2026-04-11T08:39:29.337Z</time></trkpt><trkpt lat="38.2121225" lon="15.887074"><ele>1047.5</ele><time>2026-04-11T08:39:31.336Z</time></trkpt><trkpt lat="38.2120409" lon="15.8871347"><ele>1047.6666666666665</ele><time>2026-04-11T08:39:33.337Z</time></trkpt><trkpt lat="38.2119658" lon="15.8871026"><ele>1047.8333333333333</ele><time>2026-04-11T08:39:35.336Z</time></trkpt><trkpt lat="38.2119495" lon="15.8869809"><ele>1048.0</ele><time>2026-04-11T08:39:37.336Z</time></trkpt><trkpt lat="38.211981" lon="15.8868296"><ele>1050.8333333333333</ele><time>2026-04-11T08:39:39.336Z</time></trkpt><trkpt lat="38.2120041" lon="15.8867426"><ele>1053.6666666666665</ele><time>2026-04-11T08:39:40.336Z</time></trkpt><trkpt lat="38.2120318" lon="15.8866581"><ele>1056.5</ele><time>2026-04-11T08:39:41.336Z</time></trkpt><trkpt lat="38.2120622" lon="15.8865618"><ele>1059.3333333333333</ele><time>2026-04-11T08:39:42.336Z</time></trkpt><trkpt lat="38.2120786" lon="15.8864692"><ele>1062.1666666666667</ele><time>2026-04-11T08:39:43.337Z</time></trkpt><trkpt lat="38.2120818" lon="15.8863858"><ele>1065.0</ele><time>2026-04-11T08:39:44.337Z</time></trkpt><trkpt lat="38.212051" lon="15.8862394"><ele>1065.0</ele><time>2026-04-11T08:39:46.336Z</time></trkpt><trkpt lat="38.2119992" lon="15.8860888"><ele>1065.0</ele><time>2026-04-11T08:39:48.336Z</time></trkpt><trkpt lat="38.211962" lon="15.8860016"><ele>1065.0</ele><time>2026-04-11T08:39:49.336Z</time></trkpt><trkpt lat="38.2119205" lon="15.885907"><ele>1065.0</ele><time>2026-04-11T08:39:50.337Z</time></trkpt><trkpt lat="38.2118673" lon="15.8858199"><ele>1065.0</ele><time>2026-04-11T08:39:51.336Z</time></trkpt><trkpt lat="38.2118207" lon="15.8857463"><ele>1065.0</ele><time>2026-04-11T08:39:52.337Z</time></trkpt><trkpt lat="38.2117701" lon="15.8856972"><ele>1065.0</ele><time>2026-04-11T08:39:53.336Z</time></trkpt><trkpt lat="38.211657" lon="15.885687"><ele>1065.0</ele><time>2026-04-11T08:39:55.337Z</time></trkpt><trkpt lat="38.2116112" lon="15.8857884"><ele>1065.0</ele><time>2026-04-11T08:39:57.336Z</time></trkpt><trkpt lat="38.2116158" lon="15.88587"><ele>1065.0</ele><time>2026-04-11T08:39:58.336Z</time></trkpt><trkpt lat="38.2116165" lon="15.8859604"><ele>1065.0</ele><time>2026-04-11T08:39:59.336Z</time></trkpt><trkpt lat="38.2116211" lon="15.8860497"><ele>1065.0</ele><time>2026-04-11T08:40:00.336Z</time></trkpt><trkpt lat="38.2116165" lon="15.8861347"><ele>1065.0</ele><time>2026-04-11T08:40:01.337Z</time></trkpt><trkpt lat="38.2116071" lon="15.8862187"><ele>1065.0</ele><time>2026-04-11T08:40:02.336Z</time></trkpt><trkpt lat="38.2115857" lon="15.8863766"><ele>1065.0</ele><time>2026-04-11T08:40:04.336Z</time></trkpt><trkpt lat="38.2115423" lon="15.8865216"><ele>1065.0</ele><time>2026-04-11T08:40:06.336Z</time></trkpt><trkpt lat="38.2115143" lon="15.8865966"><ele>1065.0</ele><time>2026-04-11T08:40:07.336Z</time></trkpt><trkpt lat="38.2114846" lon="15.8866729"><ele>1067.2</ele><time>2026-04-11T08:40:08.336Z</time></trkpt><trkpt lat="38.2114179" lon="15.8867686"><ele>1069.4</ele><time>2026-04-11T08:40:10.336Z</time></trkpt><trkpt lat="38.2113579" lon="15.88673"><ele>1071.6</ele><time>2026-04-11T08:40:12.336Z</time></trkpt><trkpt lat="38.2113589" lon="15.8866086"><ele>1073.8</ele><time>2026-04-11T08:40:14.336Z</time></trkpt><trkpt lat="38.2113908" lon="15.886456"><ele>1076.0</ele><time>2026-04-11T08:40:16.336Z</time></trkpt><trkpt lat="38.2113905" lon="15.8863714"><ele>1076.3333333333335</ele><time>2026-04-11T08:40:17.336Z</time></trkpt><trkpt lat="38.2113808" lon="15.8862853"><ele>1076.6666666666667</ele><time>2026-04-11T08:40:18.337Z</time></trkpt><trkpt lat="38.2113586" lon="15.8861984"><ele>1077.0</ele><time>2026-04-11T08:40:19.337Z</time></trkpt><trkpt lat="38.2113279" lon="15.8861054"><ele>1077.3333333333333</ele><time>2026-04-11T08:40:20.336Z</time></trkpt><trkpt lat="38.2113031" lon="15.8860163"><ele>1077.6666666666665</ele><time>2026-04-11T08:40:21.336Z</time></trkpt><trkpt lat="38.2112662" lon="15.8859356"><ele>1078.0</ele><time>2026-04-11T08:40:22.336Z</time></trkpt><trkpt lat="38.2111789" lon="15.8858415"><ele>1078.0</ele><time>2026-04-11T08:40:24.336Z</time></trkpt><trkpt lat="38.2110669" lon="15.8858692"><ele>1078.0</ele><time>2026-04-11T08:40:26.336Z</time></trkpt><trkpt lat="38.2110087" lon="15.8859301"><ele>1078.0</ele><time>2026-04-11T08:40:27.336Z</time></trkpt><trkpt lat="38.210953" lon="15.8860023"><ele>1078.0</ele><time>2026-04-11T08:40:28.337Z</time></trkpt><trkpt lat="38.2109043" lon="15.8860719"><ele>1078.0</ele><time>2026-04-11T08:40:29.337Z</time></trkpt><trkpt lat="38.2108577" lon="15.8861308"><ele>1078.0</ele><time>2026-04-11T08:40:30.336Z</time></trkpt><trkpt lat="38.2107706" lon="15.8862074"><ele>1078.0</ele><time>2026-04-11T08:40:32.336Z</time></trkpt><trkpt lat="38.2106952" lon="15.8862657"><ele>1078.0</ele><time>2026-04-11T08:40:34.336Z</time></trkpt><trkpt lat="38.210596" lon="15.886332"><ele>1078.0</ele><time>2026-04-11T08:40:36.336Z</time></trkpt><trkpt lat="38.2105423" lon="15.886379"><ele>1078.0</ele><time>2026-04-11T08:40:37.336Z</time></trkpt><trkpt lat="38.2104915" lon="15.8864341"><ele>1078.0</ele><time>2026-04-11T08:40:38.336Z</time></trkpt><trkpt lat="38.2104322" lon="15.8865708"><ele>1080.6</ele><time>2026-04-11T08:40:40.336Z</time></trkpt><trkpt lat="38.2104326" lon="15.8867372"><ele>1083.1999999999998</ele><time>2026-04-11T08:40:42.336Z</time></trkpt><trkpt lat="38.2104429" lon="15.8868213"><ele>1085.8</ele><time>2026-04-11T08:40:43.336Z</time></trkpt><trkpt lat="38.2104582" lon="15.8869004"><ele>1088.3999999999999</ele><time>2026-04-11T08:40:44.336Z</time></trkpt><trkpt lat="38.2104672" lon="15.8869854"><ele>1091.0</ele><time>2026-04-11T08:40:45.337Z</time></trkpt><trkpt lat="38.2104888" lon="15.8871436"><ele>1093.0</ele><time>2026-04-11T08:40:47.337Z</time></trkpt><trkpt lat="38.2104878" lon="15.8872332"><ele>1095.0</ele><time>2026-04-11T08:40:48.336Z</time></trkpt><trkpt lat="38.2104867" lon="15.8873224"><ele>1097.0</ele><time>2026-04-11T08:40:49.336Z</time></trkpt><trkpt lat="38.2104743" lon="15.8874104"><ele>1099.0</ele><time>2026-04-11T08:40:50.336Z</time></trkpt><trkpt lat="38.2104515" lon="15.887495"><ele>1101.0</ele><time>2026-04-11T08:40:51.336Z</time></trkpt><trkpt lat="38.2104187" lon="15.8875708"><ele>1103.0</ele><time>2026-04-11T08:40:52.336Z</time></trkpt><trkpt lat="38.2103457" lon="15.8876606"><ele>1103.0</ele><time>2026-04-11T08:40:54.337Z</time></trkpt><trkpt lat="38.2102747" lon="15.8876224"><ele>1103.0</ele><time>2026-04-11T08:40:56.336Z</time></trkpt><trkpt lat="38.2102733" lon="15.8875134"><ele>1103.0</ele><time>2026-04-11T08:40:58.336Z</time></trkpt><trkpt lat="38.2103185" lon="15.8873582"><ele>1103.0</ele><time>2026-04-11T08:41:00.336Z</time></trkpt><trkpt lat="38.2103329" lon="15.8872658"><ele>1103.0</ele><time>2026-04-11T08:41:01.336Z</time></trkpt><trkpt lat="38.2103378" lon="15.8871801"><ele>1103.0</ele><time>2026-04-11T08:41:02.336Z</time></trkpt><trkpt lat="38.2103044" lon="15.8870189"><ele>1103.3333333333335</ele><time>2026-04-11T08:41:04.336Z</time></trkpt><trkpt lat="38.2102708" lon="15.8869308"><ele>1103.6666666666667</ele><time>2026-04-11T08:41:05.336Z</time></trkpt><trkpt lat="38.2102335" lon="15.8868482"><ele>1104.0</ele><time>2026-04-11T08:41:06.336Z</time></trkpt><trkpt lat="38.2101885" lon="15.8867797"><ele>1104.3333333333333</ele><time>2026-04-11T08:41:07.336Z</time></trkpt><trkpt lat="38.210074" lon="15.8867207"><ele>1104.6666666666665</ele><time>2026-04-11T08:41:09.337Z</time></trkpt><trkpt lat="38.2100073" lon="15.8867321"><ele>1105.0</ele><time>2026-04-11T08:41:10.336Z</time></trkpt><trkpt lat="38.2099401" lon="15.8867705"><ele>1105.0</ele><time>2026-04-11T08:41:11.336Z</time></trkpt><trkpt lat="38.2098715" lon="15.8868316"><ele>1105.0</ele><time>2026-04-11T08:41:12.336Z</time></trkpt><trkpt lat="38.2098015" lon="15.8868913"><ele>1105.0</ele><time>2026-04-11T08:41:13.337Z</time></trkpt><trkpt lat="38.2097355" lon="15.886949"><ele>1105.0</ele><time>2026-04-11T08:41:14.336Z</time></trkpt><trkpt lat="38.2096764" lon="15.8870101"><ele>1105.0</ele><time>2026-04-11T08:41:15.336Z</time></trkpt><trkpt lat="38.2096126" lon="15.8870629"><ele>1105.0</ele><time>2026-04-11T08:41:16.336Z</time></trkpt><trkpt lat="38.2095547" lon="15.8871168"><ele>1106.1666666666665</ele><time>2026-04-11T08:41:17.336Z</time></trkpt><trkpt lat="38.2094938" lon="15.887169"><ele>1107.3333333333333</ele><time>2026-04-11T08:41:18.337Z</time></trkpt><trkpt lat="38.20943" lon="15.887279"><ele>1108.5</ele><time>2026-04-11T08:41:20.336Z</time></trkpt><trkpt lat="38.209461" lon="15.8873865"><ele>1109.6666666666667</ele><time>2026-04-11T08:41:22.336Z</time></trkpt><trkpt lat="38.2095655" lon="15.8873872"><ele>1110.8333333333335</ele><time>2026-04-11T08:41:24.337Z</time></trkpt><trkpt lat="38.2096257" lon="15.8873398"><ele>1112.0</ele><time>2026-04-11T08:41:25.337Z</time></trkpt><trkpt lat="38.2096881" lon="15.8872829"><ele>1112.0</ele><time>2026-04-11T08:41:26.336Z</time></trkpt><trkpt lat="38.2097463" lon="15.8872152"><ele>1112.0</ele><time>2026-04-11T08:41:27.336Z</time></trkpt><trkpt lat="38.2098035" lon="15.8871493"><ele>1112.0</ele><time>2026-04-11T08:41:28.336Z</time></trkpt><trkpt lat="38.2098523" lon="15.8870866"><ele>1112.0</ele><time>2026-04-11T08:41:29.336Z</time></trkpt><trkpt lat="38.2099505" lon="15.8870233"><ele>1112.0</ele><time>2026-04-11T08:41:31.336Z</time></trkpt><trkpt lat="38.2100284" lon="15.8870992"><ele>1112.0</ele><time>2026-04-11T08:41:33.336Z</time></trkpt><trkpt lat="38.209998" lon="15.8872321"><ele>1112.0</ele><time>2026-04-11T08:41:35.336Z</time></trkpt><trkpt lat="38.2099635" lon="15.8873077"><ele>1112.0</ele><time>2026-04-11T08:41:36.337Z</time></trkpt><trkpt lat="38.2099242" lon="15.8873764"><ele>1112.0</ele><time>2026-04-11T08:41:37.336Z</time></trkpt><trkpt lat="38.2098742" lon="15.8874345"><ele>1112.0</ele><time>2026-04-11T08:41:38.336Z</time></trkpt><trkpt lat="38.2098159" lon="15.8874955"><ele>1112.0</ele><time>2026-04-11T08:41:39.336Z</time></trkpt><trkpt lat="38.2097564" lon="15.8875541"><ele>1112.0</ele><time>2026-04-11T08:41:40.336Z</time></trkpt><trkpt lat="38.2096976" lon="15.8876233"><ele>1112.0</ele><time>2026-04-11T08:41:41.336Z</time></trkpt><trkpt lat="38.2096343" lon="15.8876845"><ele>1116.3333333333335</ele><time>2026-04-11T08:41:42.337Z</time></trkpt><trkpt lat="38.2095701" lon="15.8877486"><ele>1120.6666666666667</ele><time>2026-04-11T08:41:43.337Z</time></trkpt><trkpt lat="38.2095121" lon="15.8878048"><ele>1125.0</ele><time>2026-04-11T08:41:44.337Z</time></trkpt><trkpt lat="38.2094569" lon="15.8878504"><ele>1129.3333333333333</ele><time>2026-04-11T08:41:45.336Z</time></trkpt><trkpt lat="38.2093681" lon="15.8879185"><ele>1133.6666666666665</ele><time>2026-04-11T08:41:47.336Z</time></trkpt><trkpt lat="38.2092778" lon="15.8879758"><ele>1138.0</ele><time>2026-04-11T08:41:49.337Z</time></trkpt><trkpt lat="38.2092264" lon="15.8880599"><ele>1138.0</ele><time>2026-04-11T08:41:51.336Z</time></trkpt><trkpt lat="38.2092143" lon="15.8881459"><ele>1138.0</ele><time>2026-04-11T08:41:53.336Z</time></trkpt><trkpt lat="38.2092317" lon="15.8882469"><ele>1138.0</ele><time>2026-04-11T08:41:55.336Z</time></trkpt><trkpt lat="38.2092863" lon="15.8884043"><ele>1138.0</ele><time>2026-04-11T08:41:57.336Z</time></trkpt><trkpt lat="38.2093168" lon="15.8884807"><ele>1138.0</ele><time>2026-04-11T08:41:58.336Z</time></trkpt><trkpt lat="38.2093444" lon="15.8885561"><ele>1138.0</ele><time>2026-04-11T08:41:59.336Z</time></trkpt><trkpt lat="38.2093672" lon="15.8886324"><ele>1140.5714285714287</ele><time>2026-04-11T08:42:00.336Z</time></trkpt><trkpt lat="38.2093876" lon="15.8887137"><ele>1143.142857142857</ele><time>2026-04-11T08:42:01.336Z</time></trkpt><trkpt lat="38.2094117" lon="15.8888077"><ele>1145.7142857142858</ele><time>2026-04-11T08:42:02.336Z</time></trkpt><trkpt lat="38.2094371" lon="15.8889006"><ele>1148.2857142857142</ele><time>2026-04-11T08:42:03.337Z</time></trkpt><trkpt lat="38.209463" lon="15.8889761"><ele>1150.857142857143</ele><time>2026-04-11T08:42:04.337Z</time></trkpt><trkpt lat="38.2094685" lon="15.88908"><ele>1153.4285714285716</ele><time>2026-04-11T08:42:06.336Z</time></trkpt><trkpt lat="38.209406" lon="15.8890524"><ele>1156.0</ele><time>2026-04-11T08:42:10.336Z</time></trkpt><trkpt lat="38.2093672" lon="15.8889465"><ele>1156.0</ele><time>2026-04-11T08:42:12.336Z</time></trkpt><trkpt lat="38.209324" lon="15.8888172"><ele>1156.0</ele><time>2026-04-11T08:42:14.336Z</time></trkpt><trkpt lat="38.209262" lon="15.8886966"><ele>1156.0</ele><time>2026-04-11T08:42:16.336Z</time></trkpt><trkpt lat="38.2092194" lon="15.8886315"><ele>1156.0</ele><time>2026-04-11T08:42:17.336Z</time></trkpt><trkpt lat="38.2091417" lon="15.8885125"><ele>1156.0</ele><time>2026-04-11T08:42:19.337Z</time></trkpt><trkpt lat="38.2090667" lon="15.8884103"><ele>1156.0</ele><time>2026-04-11T08:42:21.336Z</time></trkpt><trkpt lat="38.2089767" lon="15.8883158"><ele>1156.0</ele><time>2026-04-11T08:42:23.337Z</time></trkpt><trkpt lat="38.20887" lon="15.8882187"><ele>1156.0</ele><time>2026-04-11T08:42:25.337Z</time></trkpt><trkpt lat="38.2087762" lon="15.8881537"><ele>1156.0</ele><time>2026-04-11T08:42:27.336Z</time></trkpt><trkpt lat="38.208705" lon="15.8881741"><ele>1156.0</ele><time>2026-04-11T08:42:29.336Z</time></trkpt><trkpt lat="38.208716" lon="15.8882814"><ele>1156.0</ele><time>2026-04-11T08:42:31.336Z</time></trkpt><trkpt lat="38.2087686" lon="15.8883832"><ele>1156.0</ele><time>2026-04-11T08:42:33.336Z</time></trkpt><trkpt lat="38.2088162" lon="15.8884624"><ele>1156.0</ele><time>2026-04-11T08:42:34.336Z</time></trkpt><trkpt lat="38.2088819" lon="15.8885592"><ele>1156.0</ele><time>2026-04-11T08:42:36.336Z</time></trkpt><trkpt lat="38.2089373" lon="15.888676"><ele>1156.0</ele><time>2026-04-11T08:42:38.336Z</time></trkpt><trkpt lat="38.2089952" lon="15.8888079"><ele>1156.0</ele><time>2026-04-11T08:42:40.336Z</time></trkpt><trkpt lat="38.2090462" lon="15.8889378"><ele>1156.0</ele><time>2026-04-11T08:42:42.336Z</time></trkpt><trkpt lat="38.2090821" lon="15.889057"><ele>1156.0</ele><time>2026-04-11T08:42:44.337Z</time></trkpt><trkpt lat="38.2090352" lon="15.8891218"><ele>1156.0</ele><time>2026-04-11T08:42:48.336Z</time></trkpt><trkpt lat="38.2089749" lon="15.8890476"><ele>1156.0</ele><time>2026-04-11T08:42:51.337Z</time></trkpt><trkpt lat="38.208941" lon="15.8889443"><ele>1161.0</ele><time>2026-04-11T08:42:53.336Z</time></trkpt><trkpt lat="38.2088704" lon="15.8888264"><ele>1166.0</ele><time>2026-04-11T08:42:55.336Z</time></trkpt><trkpt lat="38.2087789" lon="15.8887138"><ele>1171.0</ele><time>2026-04-11T08:42:57.336Z</time></trkpt><trkpt lat="38.2087311" lon="15.8886583"><ele>1176.0</ele><time>2026-04-11T08:42:58.337Z</time></trkpt><trkpt lat="38.2086423" lon="15.8885633"><ele>1181.0</ele><time>2026-04-11T08:43:00.336Z</time></trkpt><trkpt lat="38.2085494" lon="15.8884542"><ele>1176.0</ele><time>2026-04-11T08:43:02.336Z</time></trkpt><trkpt lat="38.2084516" lon="15.88835"><ele>1171.0</ele><time>2026-04-11T08:43:04.337Z</time></trkpt><trkpt lat="38.2083999" lon="15.8882945"><ele>1166.0</ele><time>2026-04-11T08:43:05.336Z</time></trkpt><trkpt lat="38.2083484" lon="15.8882454"><ele>1161.0</ele><time>2026-04-11T08:43:06.336Z</time></trkpt><trkpt lat="38.2082613" lon="15.8881646"><ele>1156.0</ele><time>2026-04-11T08:43:08.336Z</time></trkpt><trkpt lat="38.2081659" lon="15.8881946"><ele>1156.0</ele><time>2026-04-11T08:43:10.337Z</time></trkpt><trkpt lat="38.2081338" lon="15.8882889"><ele>1156.0</ele><time>2026-04-11T08:43:12.336Z</time></trkpt><trkpt lat="38.2081821" lon="15.8883834"><ele>1156.0</ele><time>2026-04-11T08:43:14.336Z</time></trkpt><trkpt lat="38.2082698" lon="15.8884764"><ele>1156.0</ele><time>2026-04-11T08:43:16.337Z</time></trkpt><trkpt lat="38.2083497" lon="15.8885683"><ele>1156.0</ele><time>2026-04-11T08:43:18.337Z</time></trkpt><trkpt lat="38.2084244" lon="15.8886528"><ele>1160.1666666666665</ele><time>2026-04-11T08:43:20.337Z</time></trkpt><trkpt lat="38.2084867" lon="15.8887651"><ele>1164.3333333333333</ele><time>2026-04-11T08:43:22.336Z</time></trkpt><trkpt lat="38.2085435" lon="15.888884"><ele>1168.5</ele><time>2026-04-11T08:43:24.336Z</time></trkpt><trkpt lat="38.2085699" lon="15.8889647"><ele>1172.6666666666667</ele><time>2026-04-11T08:43:25.336Z</time></trkpt><trkpt lat="38.2085926" lon="15.8890462"><ele>1176.8333333333335</ele><time>2026-04-11T08:43:26.337Z</time></trkpt><trkpt lat="38.2086124" lon="15.8891258"><ele>1181.0</ele><time>2026-04-11T08:43:27.337Z</time></trkpt><trkpt lat="38.2086395" lon="15.8892742"><ele>1183.2</ele><time>2026-04-11T08:43:29.336Z</time></trkpt><trkpt lat="38.2086757" lon="15.8894179"><ele>1185.3999999999999</ele><time>2026-04-11T08:43:31.336Z</time></trkpt><trkpt lat="38.2087111" lon="15.8895502"><ele>1187.6</ele><time>2026-04-11T08:43:33.336Z</time></trkpt><trkpt lat="38.2086949" lon="15.8896946"><ele>1189.8</ele><time>2026-04-11T08:43:35.336Z</time></trkpt><trkpt lat="38.2086554" lon="15.8897646"><ele>1192.0</ele><time>2026-04-11T08:43:37.336Z</time></trkpt><trkpt lat="38.2085634" lon="15.8897179"><ele>1192.0</ele><time>2026-04-11T08:43:40.337Z</time></trkpt><trkpt lat="38.2084989" lon="15.88962"><ele>1192.0</ele><time>2026-04-11T08:43:42.336Z</time></trkpt><trkpt lat="38.2084519" lon="15.8894998"><ele>1192.0</ele><time>2026-04-11T08:43:44.336Z</time></trkpt><trkpt lat="38.2083818" lon="15.8893659"><ele>1192.0</ele><time>2026-04-11T08:43:46.337Z</time></trkpt><trkpt lat="38.2083331" lon="15.8892327"><ele>1192.0</ele><time>2026-04-11T08:43:48.336Z</time></trkpt><trkpt lat="38.2082925" lon="15.8891558"><ele>1191.6666666666665</ele><time>2026-04-11T08:43:49.336Z</time></trkpt><trkpt lat="38.2082509" lon="15.8890877"><ele>1191.3333333333333</ele><time>2026-04-11T08:43:50.336Z</time></trkpt><trkpt lat="38.2082119" lon="15.8890198"><ele>1191.0</ele><time>2026-04-11T08:43:51.336Z</time></trkpt><trkpt lat="38.208165" lon="15.8889515"><ele>1190.6666666666667</ele><time>2026-04-11T08:43:52.337Z</time></trkpt><trkpt lat="38.20812" lon="15.8888846"><ele>1190.3333333333335</ele><time>2026-04-11T08:43:53.337Z</time></trkpt><trkpt lat="38.2080825" lon="15.8888167"><ele>1190.0</ele><time>2026-04-11T08:43:54.336Z</time></trkpt><trkpt lat="38.2080069" lon="15.8887006"><ele>1190.0</ele><time>2026-04-11T08:43:56.337Z</time></trkpt><trkpt lat="38.2079202" lon="15.8886803"><ele>1190.0</ele><time>2026-04-11T08:43:58.336Z</time></trkpt><trkpt lat="38.207858" lon="15.8887494"><ele>1190.0</ele><time>2026-04-11T08:44:00.337Z</time></trkpt><trkpt lat="38.2079116" lon="15.8888682"><ele>1190.0</ele><time>2026-04-11T08:44:02.337Z</time></trkpt><trkpt lat="38.2080101" lon="15.8889635"><ele>1190.0</ele><time>2026-04-11T08:44:04.337Z</time></trkpt><trkpt lat="38.208095" lon="15.8890636"><ele>1190.0</ele><time>2026-04-11T08:44:06.336Z</time></trkpt><trkpt lat="38.2081515" lon="15.889172"><ele>1190.0</ele><time>2026-04-11T08:44:08.336Z</time></trkpt><trkpt lat="38.2081806" lon="15.8893012"><ele>1190.0</ele><time>2026-04-11T08:44:10.336Z</time></trkpt><trkpt lat="38.2082043" lon="15.8894447"><ele>1190.0</ele><time>2026-04-11T08:44:12.336Z</time></trkpt><trkpt lat="38.2082142" lon="15.8896288"><ele>1190.3333333333335</ele><time>2026-04-11T08:44:14.336Z</time></trkpt><trkpt lat="38.2082221" lon="15.8897181"><ele>1190.6666666666667</ele><time>2026-04-11T08:44:15.336Z</time></trkpt><trkpt lat="38.2082404" lon="15.8898516"><ele>1191.0</ele><time>2026-04-11T08:44:17.336Z</time></trkpt><trkpt lat="38.2082256" lon="15.8899432"><ele>1191.3333333333333</ele><time>2026-04-11T08:44:19.336Z</time></trkpt><trkpt lat="38.2081484" lon="15.8899288"><ele>1191.6666666666665</ele><time>2026-04-11T08:44:22.337Z</time></trkpt><trkpt lat="38.2081337" lon="15.8898339"><ele>1192.0</ele><time>2026-04-11T08:44:24.336Z</time></trkpt><trkpt lat="38.208125" lon="15.8896974"><ele>1191.5</ele><time>2026-04-11T08:44:26.336Z</time></trkpt><trkpt lat="38.2080846" lon="15.8895531"><ele>1191.0</ele><time>2026-04-11T08:44:28.336Z</time></trkpt><trkpt lat="38.2080348" lon="15.8894356"><ele>1190.5</ele><time>2026-04-11T08:44:30.336Z</time></trkpt><trkpt lat="38.2079713" lon="15.8893185"><ele>1190.0</ele><time>2026-04-11T08:44:32.336Z</time></trkpt><trkpt lat="38.2078663" lon="15.889213"><ele>1190.0</ele><time>2026-04-11T08:44:34.337Z</time></trkpt><trkpt lat="38.2078075" lon="15.889166"><ele>1190.0</ele><time>2026-04-11T08:44:35.337Z</time></trkpt><trkpt lat="38.2077535" lon="15.889123"><ele>1190.0</ele><time>2026-04-11T08:44:36.336Z</time></trkpt><trkpt lat="38.2076914" lon="15.8890903"><ele>1190.0</ele><time>2026-04-11T08:44:37.336Z</time></trkpt><trkpt lat="38.2076253" lon="15.8890751"><ele>1190.0</ele><time>2026-04-11T08:44:38.336Z</time></trkpt><trkpt lat="38.2075611" lon="15.8890694"><ele>1190.0</ele><time>2026-04-11T08:44:39.336Z</time></trkpt><trkpt lat="38.207441" lon="15.8890775"><ele>1190.0</ele><time>2026-04-11T08:44:41.337Z</time></trkpt><trkpt lat="38.2073776" lon="15.8890923"><ele>1190.0</ele><time>2026-04-11T08:44:42.336Z</time></trkpt><trkpt lat="38.2073114" lon="15.8891067"><ele>1190.0</ele><time>2026-04-11T08:44:43.336Z</time></trkpt><trkpt lat="38.2072392" lon="15.8891361"><ele>1190.0</ele><time>2026-04-11T08:44:44.337Z</time></trkpt><trkpt lat="38.2071613" lon="15.8891654"><ele>1190.0</ele><time>2026-04-11T08:44:45.336Z</time></trkpt><trkpt lat="38.2070911" lon="15.8891886"><ele>1190.0</ele><time>2026-04-11T08:44:46.336Z</time></trkpt><trkpt lat="38.2070193" lon="15.8892166"><ele>1190.0</ele><time>2026-04-11T08:44:47.336Z</time></trkpt><trkpt lat="38.2069561" lon="15.8892528"><ele>1190.4</ele><time>2026-04-11T08:44:48.337Z</time></trkpt><trkpt lat="38.2068364" lon="15.8892676"><ele>1190.8</ele><time>2026-04-11T08:44:50.336Z</time></trkpt><trkpt lat="38.2067174" lon="15.889263"><ele>1191.2</ele><time>2026-04-11T08:44:52.336Z</time></trkpt><trkpt lat="38.2066505" lon="15.8892683"><ele>1191.6</ele><time>2026-04-11T08:44:53.336Z</time></trkpt><trkpt lat="38.2065249" lon="15.8892977"><ele>1192.0</ele><time>2026-04-11T08:44:55.336Z</time></trkpt><trkpt lat="38.2064086" lon="15.8892573"><ele>1192.0</ele><time>2026-04-11T08:44:57.336Z</time></trkpt><trkpt lat="38.2063253" lon="15.8891873"><ele>1192.0</ele><time>2026-04-11T08:44:59.336Z</time></trkpt><trkpt lat="38.2062263" lon="15.8891637"><ele>1192.0</ele><time>2026-04-11T08:45:01.336Z</time></trkpt><trkpt lat="38.2061344" lon="15.8892052"><ele>1192.0</ele><time>2026-04-11T08:45:03.337Z</time></trkpt><trkpt lat="38.206136" lon="15.889334"><ele>1192.0</ele><time>2026-04-11T08:45:05.337Z</time></trkpt><trkpt lat="38.2062111" lon="15.8894005"><ele>1196.1666666666665</ele><time>2026-04-11T08:45:07.336Z</time></trkpt><trkpt lat="38.2063384" lon="15.8894213"><ele>1200.3333333333333</ele><time>2026-04-11T08:45:09.336Z</time></trkpt><trkpt lat="38.2064048" lon="15.8894557"><ele>1204.5</ele><time>2026-04-11T08:45:10.337Z</time></trkpt><trkpt lat="38.20647" lon="15.8895023"><ele>1208.6666666666667</ele><time>2026-04-11T08:45:11.337Z</time></trkpt><trkpt lat="38.2065295" lon="15.889554"><ele>1212.8333333333335</ele><time>2026-04-11T08:45:12.336Z</time></trkpt><trkpt lat="38.2065951" lon="15.8895933"><ele>1217.0</ele><time>2026-04-11T08:45:13.336Z</time></trkpt><trkpt lat="38.2066603" lon="15.8896184"><ele>1218.1666666666667</ele><time>2026-04-11T08:45:14.336Z</time></trkpt><trkpt lat="38.2067258" lon="15.8896215"><ele>1219.3333333333335</ele><time>2026-04-11T08:45:15.336Z</time></trkpt><trkpt lat="38.2067878" lon="15.8896064"><ele>1220.5</ele><time>2026-04-11T08:45:16.336Z</time></trkpt><trkpt lat="38.2068479" lon="15.8895781"><ele>1221.6666666666667</ele><time>2026-04-11T08:45:17.336Z</time></trkpt><trkpt lat="38.2069582" lon="15.8895037"><ele>1222.8333333333333</ele><time>2026-04-11T08:45:19.336Z</time></trkpt><trkpt lat="38.2070255" lon="15.889494"><ele>1224.0</ele><time>2026-04-11T08:45:20.336Z</time></trkpt><trkpt lat="38.2070942" lon="15.8894736"><ele>1224.0</ele><time>2026-04-11T08:45:21.336Z</time></trkpt><trkpt lat="38.2071626" lon="15.8894767"><ele>1224.0</ele><time>2026-04-11T08:45:22.336Z</time></trkpt><trkpt lat="38.2072593" lon="15.8895288"><ele>1224.0</ele><time>2026-04-11T08:45:24.336Z</time></trkpt><trkpt lat="38.2073076" lon="15.8896693"><ele>1224.0</ele><time>2026-04-11T08:45:26.336Z</time></trkpt><trkpt lat="38.207329" lon="15.8897475"><ele>1224.0</ele><time>2026-04-11T08:45:27.336Z</time></trkpt><trkpt lat="38.2073548" lon="15.8898211"><ele>1224.0</ele><time>2026-04-11T08:45:28.336Z</time></trkpt><trkpt lat="38.2074034" lon="15.889958"><ele>1223.75</ele><time>2026-04-11T08:45:30.336Z</time></trkpt><trkpt lat="38.2074517" lon="15.8900906"><ele>1223.5</ele><time>2026-04-11T08:45:32.336Z</time></trkpt><trkpt lat="38.2074825" lon="15.8902234"><ele>1223.25</ele><time>2026-04-11T08:45:34.337Z</time></trkpt><trkpt lat="38.207492" lon="15.8903671"><ele>1223.0</ele><time>2026-04-11T08:45:36.336Z</time></trkpt><trkpt lat="38.207487" lon="15.8905286"><ele>1223.0</ele><time>2026-04-11T08:45:38.337Z</time></trkpt><trkpt lat="38.2074745" lon="15.8906129"><ele>1223.0</ele><time>2026-04-11T08:45:39.337Z</time></trkpt><trkpt lat="38.207457" lon="15.8906936"><ele>1223.0</ele><time>2026-04-11T08:45:40.337Z</time></trkpt><trkpt lat="38.2073915" lon="15.8908137"><ele>1223.0</ele><time>2026-04-11T08:45:42.336Z</time></trkpt><trkpt lat="38.2073187" lon="15.8908336"><ele>1223.0</ele><time>2026-04-11T08:45:44.336Z</time></trkpt><trkpt lat="38.2072519" lon="15.8907455"><ele>1223.0</ele><time>2026-04-11T08:45:46.336Z</time></trkpt><trkpt lat="38.2072191" lon="15.8906152"><ele>1225.857142857143</ele><time>2026-04-11T08:45:48.336Z</time></trkpt><trkpt lat="38.2071894" lon="15.8904771"><ele>1228.7142857142858</ele><time>2026-04-11T08:45:50.337Z</time></trkpt><trkpt lat="38.207162" lon="15.8903951"><ele>1231.5714285714287</ele><time>2026-04-11T08:45:51.337Z</time></trkpt><trkpt lat="38.2071226" lon="15.8903307"><ele>1234.4285714285716</ele><time>2026-04-11T08:45:52.336Z</time></trkpt><trkpt lat="38.2070681" lon="15.8902857"><ele>1237.2857142857142</ele><time>2026-04-11T08:45:53.336Z</time></trkpt><trkpt lat="38.207009" lon="15.8902509"><ele>1240.1428571428573</ele><time>2026-04-11T08:45:54.336Z</time></trkpt><trkpt lat="38.206947" lon="15.8902308"><ele>1243.0</ele><time>2026-04-11T08:45:55.337Z</time></trkpt><trkpt lat="38.2068248" lon="15.8902109"><ele>1243.0</ele><time>2026-04-11T08:45:57.336Z</time></trkpt><trkpt lat="38.2067023" lon="15.8902201"><ele>1243.0</ele><time>2026-04-11T08:45:59.336Z</time></trkpt><trkpt lat="38.2066152" lon="15.8902664"><ele>1243.0</ele><time>2026-04-11T08:46:01.337Z</time></trkpt><trkpt lat="38.2066064" lon="15.8903571"><ele>1243.0</ele><time>2026-04-11T08:46:03.336Z</time></trkpt><trkpt lat="38.2066539" lon="15.8904282"><ele>1243.0</ele><time>2026-04-11T08:46:05.336Z</time></trkpt><trkpt lat="38.2067091" lon="15.8904671"><ele>1243.0</ele><time>2026-04-11T08:46:06.336Z</time></trkpt><trkpt lat="38.2067681" lon="15.8905264"><ele>1243.0</ele><time>2026-04-11T08:46:07.336Z</time></trkpt><trkpt lat="38.2068178" lon="15.8905908"><ele>1243.0</ele><time>2026-04-11T08:46:08.336Z</time></trkpt><trkpt lat="38.2068779" lon="15.8907083"><ele>1243.0</ele><time>2026-04-11T08:46:10.337Z</time></trkpt><trkpt lat="38.2069055" lon="15.8908035"><ele>1243.0</ele><time>2026-04-11T08:46:12.337Z</time></trkpt><trkpt lat="38.206855" lon="15.8908854"><ele>1243.0</ele><time>2026-04-11T08:46:15.336Z</time></trkpt><trkpt lat="38.2067956" lon="15.890828"><ele>1243.0</ele><time>2026-04-11T08:46:18.337Z</time></trkpt><trkpt lat="38.206751" lon="15.8907434"><ele>1243.0</ele><time>2026-04-11T08:46:20.336Z</time></trkpt><trkpt lat="38.2066956" lon="15.8907025"><ele>1243.0</ele><time>2026-04-11T08:46:22.336Z</time></trkpt><trkpt lat="38.2066151" lon="15.8907"><ele>1243.0</ele><time>2026-04-11T08:46:24.336Z</time></trkpt><trkpt lat="38.2065013" lon="15.8907389"><ele>1243.0</ele><time>2026-04-11T08:46:26.337Z</time></trkpt><trkpt lat="38.2064337" lon="15.8907737"><ele>1243.0</ele><time>2026-04-11T08:46:27.337Z</time></trkpt><trkpt lat="38.2063659" lon="15.8908123"><ele>1243.0</ele><time>2026-04-11T08:46:28.336Z</time></trkpt><trkpt lat="38.2062801" lon="15.8908531"><ele>1242.8333333333333</ele><time>2026-04-11T08:46:29.336Z</time></trkpt><trkpt lat="38.206188" lon="15.8908971"><ele>1242.6666666666665</ele><time>2026-04-11T08:46:30.336Z</time></trkpt><trkpt lat="38.2060909" lon="15.8909365"><ele>1242.5</ele><time>2026-04-11T08:46:31.337Z</time></trkpt><trkpt lat="38.2060041" lon="15.8909679"><ele>1242.3333333333333</ele><time>2026-04-11T08:46:32.336Z</time></trkpt><trkpt lat="38.2059229" lon="15.8909934"><ele>1242.1666666666667</ele><time>2026-04-11T08:46:33.336Z</time></trkpt><trkpt lat="38.2058547" lon="15.8910152"><ele>1242.0</ele><time>2026-04-11T08:46:34.336Z</time></trkpt><trkpt lat="38.2057797" lon="15.8910398"><ele>1242.0</ele><time>2026-04-11T08:46:35.336Z</time></trkpt><trkpt lat="38.2056987" lon="15.8910659"><ele>1242.0</ele><time>2026-04-11T08:46:36.336Z</time></trkpt><trkpt lat="38.2056163" lon="15.8911006"><ele>1242.0</ele><time>2026-04-11T08:46:37.337Z</time></trkpt><trkpt lat="38.2055369" lon="15.8911374"><ele>1242.0</ele><time>2026-04-11T08:46:38.336Z</time></trkpt><trkpt lat="38.2054581" lon="15.8911793"><ele>1242.0</ele><time>2026-04-11T08:46:39.336Z</time></trkpt><trkpt lat="38.2053744" lon="15.8912186"><ele>1242.0</ele><time>2026-04-11T08:46:40.336Z</time></trkpt><trkpt lat="38.2052947" lon="15.8912464"><ele>1243.3333333333333</ele><time>2026-04-11T08:46:41.337Z</time></trkpt><trkpt lat="38.2052189" lon="15.8912732"><ele>1244.6666666666667</ele><time>2026-04-11T08:46:42.337Z</time></trkpt><trkpt lat="38.2051494" lon="15.8913"><ele>1246.0</ele><time>2026-04-11T08:46:43.336Z</time></trkpt><trkpt lat="38.2050768" lon="15.891324"><ele>1247.3333333333335</ele><time>2026-04-11T08:46:44.337Z</time></trkpt><trkpt lat="38.2050008" lon="15.8913478"><ele>1248.6666666666667</ele><time>2026-04-11T08:46:45.336Z</time></trkpt><trkpt lat="38.204927" lon="15.8913763"><ele>1250.0</ele><time>2026-04-11T08:46:46.336Z</time></trkpt><trkpt lat="38.2048449" lon="15.8913966"><ele>1251.6666666666667</ele><time>2026-04-11T08:46:47.336Z</time></trkpt><trkpt lat="38.2047717" lon="15.8914298"><ele>1253.3333333333335</ele><time>2026-04-11T08:46:48.336Z</time></trkpt><trkpt lat="38.2047063" lon="15.8914683"><ele>1255.0</ele><time>2026-04-11T08:46:49.336Z</time></trkpt><trkpt lat="38.2046416" lon="15.8915143"><ele>1256.6666666666667</ele><time>2026-04-11T08:46:50.337Z</time></trkpt><trkpt lat="38.2045779" lon="15.8915609"><ele>1258.3333333333333</ele><time>2026-04-11T08:46:51.336Z</time></trkpt><trkpt lat="38.2045056" lon="15.8916054"><ele>1260.0</ele><time>2026-04-11T08:46:52.336Z</time></trkpt><trkpt lat="38.2044307" lon="15.8916499"><ele>1260.0</ele><time>2026-04-11T08:46:53.336Z</time></trkpt><trkpt lat="38.2043596" lon="15.8916899"><ele>1260.0</ele><time>2026-04-11T08:46:54.337Z</time></trkpt><trkpt lat="38.2042895" lon="15.8917296"><ele>1260.0</ele><time>2026-04-11T08:46:55.337Z</time></trkpt><trkpt lat="38.20422" lon="15.8917723"><ele>1260.0</ele><time>2026-04-11T08:46:56.336Z</time></trkpt><trkpt lat="38.2041503" lon="15.8918144"><ele>1260.0</ele><time>2026-04-11T08:46:57.336Z</time></trkpt><trkpt lat="38.2040836" lon="15.8918431"><ele>1260.0</ele><time>2026-04-11T08:46:58.336Z</time></trkpt><trkpt lat="38.2040228" lon="15.8918664"><ele>1260.0</ele><time>2026-04-11T08:46:59.337Z</time></trkpt><trkpt lat="38.2039089" lon="15.8918899"><ele>1263.8</ele><time>2026-04-11T08:47:01.336Z</time></trkpt><trkpt lat="38.2038109" lon="15.8919172"><ele>1267.6</ele><time>2026-04-11T08:47:03.336Z</time></trkpt><trkpt lat="38.203751" lon="15.8919843"><ele>1271.4</ele><time>2026-04-11T08:47:05.336Z</time></trkpt><trkpt lat="38.203762" lon="15.8920752"><ele>1275.2</ele><time>2026-04-11T08:47:07.336Z</time></trkpt><trkpt lat="38.2038256" lon="15.8921346"><ele>1279.0</ele><time>2026-04-11T08:47:09.336Z</time></trkpt><trkpt lat="38.2039322" lon="15.8922114"><ele>1278.1666666666665</ele><time>2026-04-11T08:47:11.336Z</time></trkpt><trkpt lat="38.2040036" lon="15.8922524"><ele>1277.3333333333333</ele><time>2026-04-11T08:47:12.336Z</time></trkpt><trkpt lat="38.2040703" lon="15.8922971"><ele>1276.5</ele><time>2026-04-11T08:47:13.336Z</time></trkpt><trkpt lat="38.2041216" lon="15.892355"><ele>1275.6666666666667</ele><time>2026-04-11T08:47:14.336Z</time></trkpt><trkpt lat="38.2041875" lon="15.8924816"><ele>1274.8333333333335</ele><time>2026-04-11T08:47:16.336Z</time></trkpt><trkpt lat="38.2041891" lon="15.892605"><ele>1274.0</ele><time>2026-04-11T08:47:18.336Z</time></trkpt><trkpt lat="38.2041349" lon="15.8927474"><ele>1273.5</ele><time>2026-04-11T08:47:20.336Z</time></trkpt><trkpt lat="38.2040869" lon="15.8928077"><ele>1273.0</ele><time>2026-04-11T08:47:21.337Z</time></trkpt><trkpt lat="38.2039855" lon="15.8928329"><ele>1272.5</ele><time>2026-04-11T08:47:23.337Z</time></trkpt><trkpt lat="38.2038687" lon="15.8927814"><ele>1272.0</ele><time>2026-04-11T08:47:25.336Z</time></trkpt><trkpt lat="38.203806" lon="15.8927407"><ele>1271.5</ele><time>2026-04-11T08:47:26.336Z</time></trkpt><trkpt lat="38.203744" lon="15.8926979"><ele>1271.0</ele><time>2026-04-11T08:47:27.336Z</time></trkpt><trkpt lat="38.2036706" lon="15.8926645"><ele>1272.3333333333335</ele><time>2026-04-11T08:47:28.336Z</time></trkpt><trkpt lat="38.2036007" lon="15.892632"><ele>1273.6666666666667</ele><time>2026-04-11T08:47:29.337Z</time></trkpt><trkpt lat="38.2035392" lon="15.8926027"><ele>1275.0</ele><time>2026-04-11T08:47:30.337Z</time></trkpt><trkpt lat="38.2034344" lon="15.892582"><ele>1276.3333333333333</ele><time>2026-04-11T08:47:32.336Z</time></trkpt><trkpt lat="38.2033568" lon="15.8926247"><ele>1277.6666666666665</ele><time>2026-04-11T08:47:34.337Z</time></trkpt><trkpt lat="38.2033501" lon="15.8927189"><ele>1279.0</ele><time>2026-04-11T08:47:36.336Z</time></trkpt><trkpt lat="38.2034133" lon="15.8928245"><ele>1280.5</ele><time>2026-04-11T08:47:38.337Z</time></trkpt><trkpt lat="38.2034788" lon="15.8929293"><ele>1282.0</ele><time>2026-04-11T08:47:40.336Z</time></trkpt><trkpt lat="38.2034981" lon="15.8930136"><ele>1283.5</ele><time>2026-04-11T08:47:42.336Z</time></trkpt><trkpt lat="38.2034304" lon="15.8930828"><ele>1285.0</ele><time>2026-04-11T08:47:44.336Z</time></trkpt><trkpt lat="38.2033193" lon="15.8930866"><ele>1286.5</ele><time>2026-04-11T08:47:46.336Z</time></trkpt><trkpt lat="38.2032558" lon="15.8930687"><ele>1288.0</ele><time>2026-04-11T08:47:47.336Z</time></trkpt><trkpt lat="38.2031938" lon="15.8930545"><ele>1289.0</ele><time>2026-04-11T08:47:48.336Z</time></trkpt><trkpt lat="38.2031292" lon="15.8930526"><ele>1290.0</ele><time>2026-04-11T08:47:49.336Z</time></trkpt><trkpt lat="38.2030205" lon="15.8930857"><ele>1291.0</ele><time>2026-04-11T08:47:51.336Z</time></trkpt><trkpt lat="38.2029219" lon="15.8931427"><ele>1292.0</ele><time>2026-04-11T08:47:53.336Z</time></trkpt><trkpt lat="38.2028597" lon="15.8931703"><ele>1293.0</ele><time>2026-04-11T08:47:54.336Z</time></trkpt><trkpt lat="38.2027406" lon="15.8932361"><ele>1293.0</ele><time>2026-04-11T08:47:56.336Z</time></trkpt><trkpt lat="38.2026794" lon="15.8932927"><ele>1293.0</ele><time>2026-04-11T08:47:57.336Z</time></trkpt><trkpt lat="38.2026263" lon="15.8933653"><ele>1293.0</ele><time>2026-04-11T08:47:58.336Z</time></trkpt><trkpt lat="38.2025725" lon="15.8934447"><ele>1293.0</ele><time>2026-04-11T08:47:59.337Z</time></trkpt><trkpt lat="38.2025144" lon="15.8935282"><ele>1293.0</ele><time>2026-04-11T08:48:00.336Z</time></trkpt><trkpt lat="38.2024635" lon="15.8936083"><ele>1293.0</ele><time>2026-04-11T08:48:01.336Z</time></trkpt><trkpt lat="38.202414" lon="15.8936853"><ele>1293.8333333333333</ele><time>2026-04-11T08:48:02.336Z</time></trkpt><trkpt lat="38.2023661" lon="15.8937522"><ele>1294.6666666666667</ele><time>2026-04-11T08:48:03.336Z</time></trkpt><trkpt lat="38.2022703" lon="15.8938665"><ele>1295.5</ele><time>2026-04-11T08:48:05.337Z</time></trkpt><trkpt lat="38.2022086" lon="15.8939261"><ele>1296.3333333333335</ele><time>2026-04-11T08:48:06.336Z</time></trkpt><trkpt lat="38.2021392" lon="15.8939827"><ele>1297.1666666666667</ele><time>2026-04-11T08:48:07.337Z</time></trkpt><trkpt lat="38.2020688" lon="15.8940344"><ele>1298.0</ele><time>2026-04-11T08:48:08.336Z</time></trkpt><trkpt lat="38.2019947" lon="15.8940825"><ele>1298.0</ele><time>2026-04-11T08:48:09.336Z</time></trkpt><trkpt lat="38.201931" lon="15.894122"><ele>1298.0</ele><time>2026-04-11T08:48:10.337Z</time></trkpt><trkpt lat="38.2018679" lon="15.8941543"><ele>1298.0</ele><time>2026-04-11T08:48:11.336Z</time></trkpt><trkpt lat="38.2017531" lon="15.8942232"><ele>1298.0</ele><time>2026-04-11T08:48:13.336Z</time></trkpt><trkpt lat="38.2016929" lon="15.894251"><ele>1298.0</ele><time>2026-04-11T08:48:14.336Z</time></trkpt><trkpt lat="38.2016317" lon="15.8942793"><ele>1298.0</ele><time>2026-04-11T08:48:15.336Z</time></trkpt><trkpt lat="38.2015673" lon="15.8943036"><ele>1298.0</ele><time>2026-04-11T08:48:16.336Z</time></trkpt><trkpt lat="38.2014999" lon="15.8943294"><ele>1298.0</ele><time>2026-04-11T08:48:17.337Z</time></trkpt><trkpt lat="38.2014139" lon="15.8943584"><ele>1298.0</ele><time>2026-04-11T08:48:18.336Z</time></trkpt><trkpt lat="38.2013408" lon="15.894368"><ele>1298.0</ele><time>2026-04-11T08:48:19.336Z</time></trkpt><trkpt lat="38.2012418" lon="15.8943796"><ele>1298.0</ele><time>2026-04-11T08:48:20.336Z</time></trkpt><trkpt lat="38.2011611" lon="15.8943869"><ele>1298.0</ele><time>2026-04-11T08:48:21.336Z</time></trkpt><trkpt lat="38.2010372" lon="15.894405"><ele>1301.6000000000001</ele><time>2026-04-11T08:48:23.336Z</time></trkpt><trkpt lat="38.2009335" lon="15.8944467"><ele>1305.2</ele><time>2026-04-11T08:48:25.336Z</time></trkpt><trkpt lat="38.2008307" lon="15.8945161"><ele>1308.8</ele><time>2026-04-11T08:48:27.336Z</time></trkpt><trkpt lat="38.2007737" lon="15.894573"><ele>1312.4</ele><time>2026-04-11T08:48:28.337Z</time></trkpt><trkpt lat="38.2007203" lon="15.8946442"><ele>1316.0</ele><time>2026-04-11T08:48:29.337Z</time></trkpt><trkpt lat="38.2006543" lon="15.894742"><ele>1317.8</ele><time>2026-04-11T08:48:30.336Z</time></trkpt><trkpt lat="38.2005852" lon="15.8948588"><ele>1319.6</ele><time>2026-04-11T08:48:31.337Z</time></trkpt><trkpt lat="38.2005243" lon="15.8949627"><ele>1321.4</ele><time>2026-04-11T08:48:32.336Z</time></trkpt><trkpt lat="38.2004659" lon="15.8950653"><ele>1323.2</ele><time>2026-04-11T08:48:33.336Z</time></trkpt><trkpt lat="38.2004102" lon="15.8951585"><ele>1325.0</ele><time>2026-04-11T08:48:34.337Z</time></trkpt><trkpt lat="38.2003592" lon="15.8952516"><ele>1325.0</ele><time>2026-04-11T08:48:35.336Z</time></trkpt><trkpt lat="38.2002973" lon="15.8953516"><ele>1325.0</ele><time>2026-04-11T08:48:36.336Z</time></trkpt><trkpt lat="38.2002423" lon="15.8954473"><ele>1325.0</ele><time>2026-04-11T08:48:37.336Z</time></trkpt><trkpt lat="38.2001924" lon="15.8955348"><ele>1325.0</ele><time>2026-04-11T08:48:38.336Z</time></trkpt><trkpt lat="38.2001421" lon="15.8956216"><ele>1325.0</ele><time>2026-04-11T08:48:39.336Z</time></trkpt><trkpt lat="38.2000828" lon="15.8956986"><ele>1325.0</ele><time>2026-04-11T08:48:40.337Z</time></trkpt><trkpt lat="38.2000053" lon="15.895783"><ele>1325.0</ele><time>2026-04-11T08:48:41.336Z</time></trkpt><trkpt lat="38.1999407" lon="15.8958564"><ele>1325.0</ele><time>2026-04-11T08:48:42.336Z</time></trkpt><trkpt lat="38.1998697" lon="15.8959209"><ele>1325.0</ele><time>2026-04-11T08:48:43.337Z</time></trkpt><trkpt lat="38.1997978" lon="15.8959761"><ele>1325.0</ele><time>2026-04-11T08:48:44.337Z</time></trkpt><trkpt lat="38.1997304" lon="15.8960361"><ele>1325.0</ele><time>2026-04-11T08:48:45.337Z</time></trkpt><trkpt lat="38.1996637" lon="15.8960993"><ele>1325.0</ele><time>2026-04-11T08:48:46.336Z</time></trkpt><trkpt lat="38.1995987" lon="15.8961611"><ele>1325.7142857142858</ele><time>2026-04-11T08:48:47.336Z</time></trkpt><trkpt lat="38.1995326" lon="15.8962203"><ele>1326.4285714285713</ele><time>2026-04-11T08:48:48.336Z</time></trkpt><trkpt lat="38.1994743" lon="15.8962785"><ele>1327.142857142857</ele><time>2026-04-11T08:48:49.336Z</time></trkpt><trkpt lat="38.1994178" lon="15.8963362"><ele>1327.857142857143</ele><time>2026-04-11T08:48:50.336Z</time></trkpt><trkpt lat="38.1993642" lon="15.8963888"><ele>1328.5714285714284</ele><time>2026-04-11T08:48:51.336Z</time></trkpt><trkpt lat="38.1993038" lon="15.8964369"><ele>1329.2857142857142</ele><time>2026-04-11T08:48:52.336Z</time></trkpt><trkpt lat="38.1992475" lon="15.8964775"><ele>1330.0</ele><time>2026-04-11T08:48:53.337Z</time></trkpt><trkpt lat="38.1991898" lon="15.896512"><ele>1330.0</ele><time>2026-04-11T08:48:54.336Z</time></trkpt><trkpt lat="38.1991245" lon="15.8965419"><ele>1330.0</ele><time>2026-04-11T08:48:55.336Z</time></trkpt><trkpt lat="38.1990062" lon="15.896542"><ele>1330.0</ele><time>2026-04-11T08:48:57.337Z</time></trkpt><trkpt lat="38.1989063" lon="15.8965037"><ele>1330.0</ele><time>2026-04-11T08:48:59.336Z</time></trkpt><trkpt lat="38.1987993" lon="15.8964638"><ele>1330.0</ele><time>2026-04-11T08:49:01.336Z</time></trkpt><trkpt lat="38.1986743" lon="15.8964382"><ele>1330.8333333333333</ele><time>2026-04-11T08:49:03.336Z</time></trkpt><trkpt lat="38.1985996" lon="15.896425"><ele>1331.6666666666665</ele><time>2026-04-11T08:49:04.336Z</time></trkpt><trkpt lat="38.1985208" lon="15.8964103"><ele>1332.5</ele><time>2026-04-11T08:49:05.336Z</time></trkpt><trkpt lat="38.1984534" lon="15.8963967"><ele>1333.3333333333333</ele><time>2026-04-11T08:49:06.336Z</time></trkpt><trkpt lat="38.1983273" lon="15.8963607"><ele>1334.1666666666667</ele><time>2026-04-11T08:49:08.337Z</time></trkpt><trkpt lat="38.198257" lon="15.8963407"><ele>1335.0</ele><time>2026-04-11T08:49:09.337Z</time></trkpt><trkpt lat="38.1981816" lon="15.8963209"><ele>1336.3333333333333</ele><time>2026-04-11T08:49:10.336Z</time></trkpt><trkpt lat="38.1981053" lon="15.8962975"><ele>1337.6666666666667</ele><time>2026-04-11T08:49:11.337Z</time></trkpt><trkpt lat="38.1980245" lon="15.8962727"><ele>1339.0</ele><time>2026-04-11T08:49:12.336Z</time></trkpt><trkpt lat="38.1979381" lon="15.8962499"><ele>1340.3333333333335</ele><time>2026-04-11T08:49:13.337Z</time></trkpt><trkpt lat="38.1978481" lon="15.8962303"><ele>1341.6666666666667</ele><time>2026-04-11T08:49:14.336Z</time></trkpt><trkpt lat="38.1977615" lon="15.8962093"><ele>1343.0</ele><time>2026-04-11T08:49:15.336Z</time></trkpt><trkpt lat="38.197672" lon="15.8961832"><ele>1343.0</ele><time>2026-04-11T08:49:16.336Z</time></trkpt><trkpt lat="38.1975901" lon="15.8961601"><ele>1343.0</ele><time>2026-04-11T08:49:17.337Z</time></trkpt><trkpt lat="38.1975127" lon="15.8961458"><ele>1343.0</ele><time>2026-04-11T08:49:18.336Z</time></trkpt><trkpt lat="38.1974286" lon="15.8961349"><ele>1343.0</ele><time>2026-04-11T08:49:19.337Z</time></trkpt><trkpt lat="38.197351" lon="15.8961368"><ele>1343.0</ele><time>2026-04-11T08:49:20.336Z</time></trkpt><trkpt lat="38.1972729" lon="15.8961428"><ele>1343.0</ele><time>2026-04-11T08:49:21.336Z</time></trkpt><trkpt lat="38.197186" lon="15.896156"><ele>1344.3333333333335</ele><time>2026-04-11T08:49:22.337Z</time></trkpt><trkpt lat="38.1971021" lon="15.8961698"><ele>1345.6666666666667</ele><time>2026-04-11T08:49:23.336Z</time></trkpt><trkpt lat="38.1970078" lon="15.8961916"><ele>1347.0</ele><time>2026-04-11T08:49:24.336Z</time></trkpt><trkpt lat="38.1969225" lon="15.8962167"><ele>1348.3333333333333</ele><time>2026-04-11T08:49:25.337Z</time></trkpt><trkpt lat="38.1968361" lon="15.8962567"><ele>1349.6666666666665</ele><time>2026-04-11T08:49:26.336Z</time></trkpt><trkpt lat="38.1967648" lon="15.8962963"><ele>1351.0</ele><time>2026-04-11T08:49:27.336Z</time></trkpt><trkpt lat="38.1967017" lon="15.8963598"><ele>1351.0</ele><time>2026-04-11T08:49:28.336Z</time></trkpt><trkpt lat="38.196653" lon="15.896422"><ele>1351.0</ele><time>2026-04-11T08:49:29.336Z</time></trkpt><trkpt lat="38.1966059" lon="15.8964918"><ele>1351.0</ele><time>2026-04-11T08:49:30.336Z</time></trkpt><trkpt lat="38.1965832" lon="15.8965812"><ele>1351.0</ele><time>2026-04-11T08:49:31.337Z</time></trkpt><trkpt lat="38.1965634" lon="15.8966767"><ele>1351.0</ele><time>2026-04-11T08:49:32.336Z</time></trkpt><trkpt lat="38.1965423" lon="15.8967524"><ele>1351.0</ele><time>2026-04-11T08:49:33.336Z</time></trkpt><trkpt lat="38.1964769" lon="15.896883"><ele>1351.4</ele><time>2026-04-11T08:49:35.337Z</time></trkpt><trkpt lat="38.1963937" lon="15.896985"><ele>1351.8</ele><time>2026-04-11T08:49:37.337Z</time></trkpt><trkpt lat="38.1962928" lon="15.8970385"><ele>1352.2</ele><time>2026-04-11T08:49:39.336Z</time></trkpt><trkpt lat="38.19617" lon="15.8971039"><ele>1352.6000000000001</ele><time>2026-04-11T08:49:41.337Z</time></trkpt><trkpt lat="38.1961085" lon="15.8971343"><ele>1353.0</ele><time>2026-04-11T08:49:42.336Z</time></trkpt><trkpt lat="38.1960267" lon="15.8971615"><ele>1353.0</ele><time>2026-04-11T08:49:43.336Z</time></trkpt><trkpt lat="38.1959399" lon="15.8971919"><ele>1353.0</ele><time>2026-04-11T08:49:44.336Z</time></trkpt><trkpt lat="38.1958581" lon="15.8972226"><ele>1353.0</ele><time>2026-04-11T08:49:45.336Z</time></trkpt><trkpt lat="38.1957795" lon="15.8972517"><ele>1353.0</ele><time>2026-04-11T08:49:46.336Z</time></trkpt><trkpt lat="38.195709" lon="15.8972795"><ele>1353.0</ele><time>2026-04-11T08:49:47.337Z</time></trkpt><trkpt lat="38.1956347" lon="15.8973011"><ele>1353.0</ele><time>2026-04-11T08:49:48.336Z</time></trkpt><trkpt lat="38.1955541" lon="15.8973207"><ele>1353.2</ele><time>2026-04-11T08:49:49.336Z</time></trkpt><trkpt lat="38.1954824" lon="15.8973428"><ele>1353.4</ele><time>2026-04-11T08:49:50.336Z</time></trkpt><trkpt lat="38.195372" lon="15.8973684"><ele>1353.6000000000001</ele><time>2026-04-11T08:49:52.337Z</time></trkpt><trkpt lat="38.1952764" lon="15.8974042"><ele>1353.8000000000002</ele><time>2026-04-11T08:49:54.336Z</time></trkpt><trkpt lat="38.195171" lon="15.8974397"><ele>1354.0</ele><time>2026-04-11T08:49:56.336Z</time></trkpt><trkpt lat="38.1950794" lon="15.897475"><ele>1354.0</ele><time>2026-04-11T08:49:58.336Z</time></trkpt><trkpt lat="38.1949765" lon="15.897508"><ele>1354.0</ele><time>2026-04-11T08:50:00.337Z</time></trkpt><trkpt lat="38.1948438" lon="15.8975434"><ele>1354.0</ele><time>2026-04-11T08:50:02.336Z</time></trkpt><trkpt lat="38.1947247" lon="15.8975698"><ele>1354.0</ele><time>2026-04-11T08:50:04.336Z</time></trkpt><trkpt lat="38.1946182" lon="15.8976143"><ele>1354.3333333333333</ele><time>2026-04-11T08:50:06.337Z</time></trkpt><trkpt lat="38.1945224" lon="15.8976517"><ele>1354.6666666666665</ele><time>2026-04-11T08:50:08.336Z</time></trkpt><trkpt lat="38.1944325" lon="15.8976763"><ele>1355.0</ele><time>2026-04-11T08:50:10.337Z</time></trkpt><trkpt lat="38.1943467" lon="15.8977119"><ele>1355.3333333333333</ele><time>2026-04-11T08:50:12.336Z</time></trkpt><trkpt lat="38.1942563" lon="15.8977607"><ele>1355.6666666666667</ele><time>2026-04-11T08:50:14.336Z</time></trkpt><trkpt lat="38.1941981" lon="15.8978021"><ele>1356.0</ele><time>2026-04-11T08:50:15.336Z</time></trkpt><trkpt lat="38.194115" lon="15.897907"><ele>1356.0</ele><time>2026-04-11T08:50:17.336Z</time></trkpt><trkpt lat="38.19408" lon="15.8979764"><ele>1356.0</ele><time>2026-04-11T08:50:18.336Z</time></trkpt><trkpt lat="38.1940427" lon="15.8980493"><ele>1356.0</ele><time>2026-04-11T08:50:19.336Z</time></trkpt><trkpt lat="38.1940052" lon="15.8981233"><ele>1356.0</ele><time>2026-04-11T08:50:20.337Z</time></trkpt><trkpt lat="38.1939447" lon="15.8982191"><ele>1356.0</ele><time>2026-04-11T08:50:21.336Z</time></trkpt><trkpt lat="38.1939028" lon="15.8983133"><ele>1356.0</ele><time>2026-04-11T08:50:22.336Z</time></trkpt><trkpt lat="38.193863" lon="15.8983964"><ele>1358.3333333333333</ele><time>2026-04-11T08:50:23.336Z</time></trkpt><trkpt lat="38.1938225" lon="15.8984661"><ele>1360.6666666666667</ele><time>2026-04-11T08:50:24.336Z</time></trkpt><trkpt lat="38.193759" lon="15.8985603"><ele>1363.0</ele><time>2026-04-11T08:50:26.336Z</time></trkpt><trkpt lat="38.1937036" lon="15.8986699"><ele>1365.3333333333335</ele><time>2026-04-11T08:50:28.336Z</time></trkpt><trkpt lat="38.193649" lon="15.8988008"><ele>1367.6666666666667</ele><time>2026-04-11T08:50:30.336Z</time></trkpt><trkpt lat="38.1936163" lon="15.8988693"><ele>1370.0</ele><time>2026-04-11T08:50:31.336Z</time></trkpt><trkpt lat="38.1935835" lon="15.898944"><ele>1370.0</ele><time>2026-04-11T08:50:32.336Z</time></trkpt><trkpt lat="38.1935571" lon="15.8990279"><ele>1370.0</ele><time>2026-04-11T08:50:33.336Z</time></trkpt><trkpt lat="38.1935308" lon="15.899106"><ele>1370.0</ele><time>2026-04-11T08:50:34.336Z</time></trkpt><trkpt lat="38.1935036" lon="15.8991824"><ele>1370.0</ele><time>2026-04-11T08:50:35.337Z</time></trkpt><trkpt lat="38.1934691" lon="15.8992575"><ele>1370.0</ele><time>2026-04-11T08:50:36.336Z</time></trkpt><trkpt lat="38.1934249" lon="15.8993326"><ele>1370.0</ele><time>2026-04-11T08:50:37.336Z</time></trkpt><trkpt lat="38.193378" lon="15.8994102"><ele>1370.0</ele><time>2026-04-11T08:50:38.336Z</time></trkpt><trkpt lat="38.1933314" lon="15.8994806"><ele>1369.3333333333335</ele><time>2026-04-11T08:50:39.336Z</time></trkpt><trkpt lat="38.19329" lon="15.8995467"><ele>1368.6666666666667</ele><time>2026-04-11T08:50:40.336Z</time></trkpt><trkpt lat="38.1932351" lon="15.899686"><ele>1368.0</ele><time>2026-04-11T08:50:42.337Z</time></trkpt><trkpt lat="38.193193" lon="15.8997651"><ele>1367.3333333333333</ele><time>2026-04-11T08:50:43.336Z</time></trkpt><trkpt lat="38.1931573" lon="15.8998395"><ele>1366.6666666666665</ele><time>2026-04-11T08:50:44.336Z</time></trkpt><trkpt lat="38.1931237" lon="15.8999155"><ele>1366.0</ele><time>2026-04-11T08:50:45.336Z</time></trkpt><trkpt lat="38.1931021" lon="15.8999909"><ele>1367.1666666666665</ele><time>2026-04-11T08:50:46.336Z</time></trkpt><trkpt lat="38.1930793" lon="15.9001127"><ele>1368.3333333333333</ele><time>2026-04-11T08:50:48.336Z</time></trkpt><trkpt lat="38.1931062" lon="15.90019"><ele>1369.5</ele><time>2026-04-11T08:50:50.336Z</time></trkpt><trkpt lat="38.1931688" lon="15.9002293"><ele>1370.6666666666667</ele><time>2026-04-11T08:50:52.336Z</time></trkpt><trkpt lat="38.1932572" lon="15.900219"><ele>1371.8333333333335</ele><time>2026-04-11T08:50:54.336Z</time></trkpt><trkpt lat="38.1933773" lon="15.9002011"><ele>1373.0</ele><time>2026-04-11T08:50:56.337Z</time></trkpt><trkpt lat="38.1934515" lon="15.9002005"><ele>1373.0</ele><time>2026-04-11T08:50:57.336Z</time></trkpt><trkpt lat="38.1935319" lon="15.9002223"><ele>1373.0</ele><time>2026-04-11T08:50:58.337Z</time></trkpt><trkpt lat="38.1936085" lon="15.9002592"><ele>1373.0</ele><time>2026-04-11T08:50:59.336Z</time></trkpt><trkpt lat="38.1936837" lon="15.9003143"><ele>1373.0</ele><time>2026-04-11T08:51:00.336Z</time></trkpt><trkpt lat="38.1937529" lon="15.9003806"><ele>1373.0</ele><time>2026-04-11T08:51:01.336Z</time></trkpt><trkpt lat="38.193809" lon="15.9004604"><ele>1373.0</ele><time>2026-04-11T08:51:02.336Z</time></trkpt><trkpt lat="38.1938557" lon="15.9005522"><ele>1373.0</ele><time>2026-04-11T08:51:03.337Z</time></trkpt><trkpt lat="38.1939011" lon="15.9006458"><ele>1373.0</ele><time>2026-04-11T08:51:04.337Z</time></trkpt><trkpt lat="38.193943" lon="15.9007348"><ele>1373.0</ele><time>2026-04-11T08:51:05.336Z</time></trkpt><trkpt lat="38.1939829" lon="15.9008131"><ele>1373.0</ele><time>2026-04-11T08:51:06.336Z</time></trkpt><trkpt lat="38.1940269" lon="15.9008947"><ele>1373.0</ele><time>2026-04-11T08:51:07.336Z</time></trkpt><trkpt lat="38.1940799" lon="15.9009724"><ele>1373.0</ele><time>2026-04-11T08:51:08.336Z</time></trkpt><trkpt lat="38.1941443" lon="15.9010445"><ele>1373.3333333333335</ele><time>2026-04-11T08:51:09.337Z</time></trkpt><trkpt lat="38.1942126" lon="15.9011142"><ele>1373.6666666666667</ele><time>2026-04-11T08:51:10.336Z</time></trkpt><trkpt lat="38.1942789" lon="15.9011971"><ele>1374.0</ele><time>2026-04-11T08:51:11.337Z</time></trkpt><trkpt lat="38.1943377" lon="15.9012785"><ele>1374.3333333333333</ele><time>2026-04-11T08:51:12.336Z</time></trkpt><trkpt lat="38.1943902" lon="15.9013669"><ele>1374.6666666666665</ele><time>2026-04-11T08:51:13.336Z</time></trkpt><trkpt lat="38.1944317" lon="15.9014507"><ele>1375.0</ele><time>2026-04-11T08:51:14.336Z</time></trkpt><trkpt lat="38.1944681" lon="15.9015439"><ele>1375.0</ele><time>2026-04-11T08:51:15.336Z</time></trkpt><trkpt lat="38.1944937" lon="15.9016283"><ele>1375.0</ele><time>2026-04-11T08:51:16.336Z</time></trkpt><trkpt lat="38.1945209" lon="15.901706"><ele>1375.0</ele><time>2026-04-11T08:51:17.336Z</time></trkpt><trkpt lat="38.1945612" lon="15.9018275"><ele>1375.0</ele><time>2026-04-11T08:51:19.336Z</time></trkpt><trkpt lat="38.1945944" lon="15.9019261"><ele>1375.0</ele><time>2026-04-11T08:51:21.336Z</time></trkpt><trkpt lat="38.1946238" lon="15.9020255"><ele>1375.0</ele><time>2026-04-11T08:51:23.337Z</time></trkpt><trkpt lat="38.1946674" lon="15.9021482"><ele>1376.0</ele><time>2026-04-11T08:51:25.336Z</time></trkpt><trkpt lat="38.1947188" lon="15.9022821"><ele>1377.0</ele><time>2026-04-11T08:51:27.336Z</time></trkpt><trkpt lat="38.1947404" lon="15.9023608"><ele>1378.0</ele><time>2026-04-11T08:51:28.336Z</time></trkpt><trkpt lat="38.194765" lon="15.9024361"><ele>1379.0</ele><time>2026-04-11T08:51:29.337Z</time></trkpt><trkpt lat="38.1947928" lon="15.9025137"><ele>1380.0</ele><time>2026-04-11T08:51:30.336Z</time></trkpt><trkpt lat="38.1948151" lon="15.9026514"><ele>1381.0</ele><time>2026-04-11T08:51:32.336Z</time></trkpt><trkpt lat="38.1948041" lon="15.9028022"><ele>1381.4</ele><time>2026-04-11T08:51:34.336Z</time></trkpt><trkpt lat="38.1947978" lon="15.9028909"><ele>1381.8</ele><time>2026-04-11T08:51:35.337Z</time></trkpt><trkpt lat="38.1948017" lon="15.9029883"><ele>1382.2</ele><time>2026-04-11T08:51:36.336Z</time></trkpt><trkpt lat="38.1947929" lon="15.9030742"><ele>1382.6000000000001</ele><time>2026-04-11T08:51:37.337Z</time></trkpt><trkpt lat="38.1947642" lon="15.9032318"><ele>1383.0</ele><time>2026-04-11T08:51:39.336Z</time></trkpt><trkpt lat="38.1947228" lon="15.9033595"><ele>1382.0</ele><time>2026-04-11T08:51:41.337Z</time></trkpt><trkpt lat="38.1946759" lon="15.9034655"><ele>1381.0</ele><time>2026-04-11T08:51:43.336Z</time></trkpt><trkpt lat="38.1946255" lon="15.903577"><ele>1380.0</ele><time>2026-04-11T08:51:45.336Z</time></trkpt><trkpt lat="38.1946278" lon="15.9037039"><ele>1379.0</ele><time>2026-04-11T08:51:47.336Z</time></trkpt><trkpt lat="38.1946725" lon="15.9038409"><ele>1378.0</ele><time>2026-04-11T08:51:49.337Z</time></trkpt><trkpt lat="38.1947258" lon="15.9039152"><ele>1378.0</ele><time>2026-04-11T08:51:51.337Z</time></trkpt><trkpt lat="38.1948061" lon="15.9038593"><ele>1378.0</ele><time>2026-04-11T08:51:53.336Z</time></trkpt><trkpt lat="38.1948506" lon="15.9038017"><ele>1378.0</ele><time>2026-04-11T08:51:54.337Z</time></trkpt><trkpt lat="38.1949016" lon="15.9037467"><ele>1378.0</ele><time>2026-04-11T08:51:55.337Z</time></trkpt><trkpt lat="38.1949552" lon="15.9037025"><ele>1378.0</ele><time>2026-04-11T08:51:56.336Z</time></trkpt><trkpt lat="38.195063" lon="15.9036593"><ele>1378.0</ele><time>2026-04-11T08:51:58.336Z</time></trkpt><trkpt lat="38.1951707" lon="15.9036539"><ele>1376.1666666666665</ele><time>2026-04-11T08:52:00.336Z</time></trkpt><trkpt lat="38.1952906" lon="15.9036381"><ele>1374.3333333333333</ele><time>2026-04-11T08:52:02.337Z</time></trkpt><trkpt lat="38.1953498" lon="15.9036093"><ele>1372.5</ele><time>2026-04-11T08:52:03.336Z</time></trkpt><trkpt lat="38.1954186" lon="15.9035682"><ele>1370.6666666666667</ele><time>2026-04-11T08:52:04.337Z</time></trkpt><trkpt lat="38.1954848" lon="15.9035319"><ele>1368.8333333333335</ele><time>2026-04-11T08:52:05.336Z</time></trkpt><trkpt lat="38.1955482" lon="15.9035016"><ele>1367.0</ele><time>2026-04-11T08:52:06.336Z</time></trkpt><trkpt lat="38.1956084" lon="15.9034762"><ele>1367.3333333333335</ele><time>2026-04-11T08:52:07.336Z</time></trkpt><trkpt lat="38.1957128" lon="15.9034679"><ele>1367.6666666666667</ele><time>2026-04-11T08:52:09.336Z</time></trkpt><trkpt lat="38.1957831" lon="15.9035007"><ele>1368.0</ele><time>2026-04-11T08:52:11.337Z</time></trkpt><trkpt lat="38.1957848" lon="15.903603"><ele>1368.3333333333333</ele><time>2026-04-11T08:52:14.336Z</time></trkpt><trkpt lat="38.1957605" lon="15.903698"><ele>1368.6666666666665</ele><time>2026-04-11T08:52:16.336Z</time></trkpt><trkpt lat="38.1957356" lon="15.9038098"><ele>1369.0</ele><time>2026-04-11T08:52:18.336Z</time></trkpt><trkpt lat="38.1957415" lon="15.9039476"><ele>1369.0</ele><time>2026-04-11T08:52:20.337Z</time></trkpt><trkpt lat="38.1957539" lon="15.9040469"><ele>1369.0</ele><time>2026-04-11T08:52:21.336Z</time></trkpt><trkpt lat="38.1957699" lon="15.9041289"><ele>1369.0</ele><time>2026-04-11T08:52:22.337Z</time></trkpt><trkpt lat="38.1958204" lon="15.9042603"><ele>1369.0</ele><time>2026-04-11T08:52:24.337Z</time></trkpt><trkpt lat="38.1958635" lon="15.9043961"><ele>1369.0</ele><time>2026-04-11T08:52:26.337Z</time></trkpt><trkpt lat="38.1958742" lon="15.9045297"><ele>1369.6</ele><time>2026-04-11T08:52:28.337Z</time></trkpt><trkpt lat="38.1958753" lon="15.9046479"><ele>1370.2</ele><time>2026-04-11T08:52:30.336Z</time></trkpt><trkpt lat="38.1958832" lon="15.9047653"><ele>1370.8</ele><time>2026-04-11T08:52:32.336Z</time></trkpt><trkpt lat="38.1958965" lon="15.9048761"><ele>1371.3999999999999</ele><time>2026-04-11T08:52:34.337Z</time></trkpt><trkpt lat="38.1959237" lon="15.9049879"><ele>1372.0</ele><time>2026-04-11T08:52:36.337Z</time></trkpt><trkpt lat="38.1959882" lon="15.9051053"><ele>1373.6666666666665</ele><time>2026-04-11T08:52:38.336Z</time></trkpt><trkpt lat="38.1960606" lon="15.9051827"><ele>1375.3333333333333</ele><time>2026-04-11T08:52:40.336Z</time></trkpt><trkpt lat="38.1961411" lon="15.9052299"><ele>1377.0</ele><time>2026-04-11T08:52:43.336Z</time></trkpt><trkpt lat="38.1962185" lon="15.9052858"><ele>1378.6666666666667</ele><time>2026-04-11T08:52:47.336Z</time></trkpt><trkpt lat="38.1962913" lon="15.9053494"><ele>1380.3333333333335</ele><time>2026-04-11T08:52:50.337Z</time></trkpt><trkpt lat="38.1963529" lon="15.9053897"><ele>1382.0</ele><time>2026-04-11T08:52:52.336Z</time></trkpt><trkpt lat="38.196437" lon="15.9054549"><ele>1380.0</ele><time>2026-04-11T08:52:54.336Z</time></trkpt><trkpt lat="38.1965145" lon="15.9055037"><ele>1378.0</ele><time>2026-04-11T08:52:56.336Z</time></trkpt><trkpt lat="38.196594" lon="15.9055471"><ele>1376.0</ele><time>2026-04-11T08:52:58.336Z</time></trkpt><trkpt lat="38.1966663" lon="15.9056056"><ele>1374.0</ele><time>2026-04-11T08:53:00.336Z</time></trkpt><trkpt lat="38.196736" lon="15.9056668"><ele>1372.0</ele><time>2026-04-11T08:53:02.336Z</time></trkpt><trkpt lat="38.1968161" lon="15.9057302"><ele>1370.0</ele><time>2026-04-11T08:53:04.337Z</time></trkpt><trkpt lat="38.1969066" lon="15.9057898"><ele>1370.0</ele><time>2026-04-11T08:53:06.337Z</time></trkpt><trkpt lat="38.19701" lon="15.9058505"><ele>1370.0</ele><time>2026-04-11T08:53:08.336Z</time></trkpt><trkpt lat="38.1971058" lon="15.9059065"><ele>1370.0</ele><time>2026-04-11T08:53:10.336Z</time></trkpt><trkpt lat="38.1971963" lon="15.9059743"><ele>1370.0</ele><time>2026-04-11T08:53:12.336Z</time></trkpt><trkpt lat="38.1972875" lon="15.9060359"><ele>1370.0</ele><time>2026-04-11T08:53:14.336Z</time></trkpt><trkpt lat="38.1973579" lon="15.9060768"><ele>1370.5</ele><time>2026-04-11T08:53:16.336Z</time></trkpt><trkpt lat="38.197449" lon="15.9060776"><ele>1371.0</ele><time>2026-04-11T08:53:19.336Z</time></trkpt><trkpt lat="38.1975145" lon="15.9060619"><ele>1371.5</ele><time>2026-04-11T08:53:21.336Z</time></trkpt><trkpt lat="38.1975904" lon="15.906007"><ele>1372.0</ele><time>2026-04-11T08:53:23.336Z</time></trkpt><trkpt lat="38.1976964" lon="15.9059072"><ele>1372.5</ele><time>2026-04-11T08:53:25.337Z</time></trkpt><trkpt lat="38.1977503" lon="15.9058473"><ele>1373.0</ele><time>2026-04-11T08:53:26.336Z</time></trkpt><trkpt lat="38.1978071" lon="15.9057826"><ele>1371.2</ele><time>2026-04-11T08:53:27.336Z</time></trkpt><trkpt lat="38.197857" lon="15.9057232"><ele>1369.4</ele><time>2026-04-11T08:53:28.337Z</time></trkpt><trkpt lat="38.1979458" lon="15.9056125"><ele>1367.6000000000001</ele><time>2026-04-11T08:53:30.336Z</time></trkpt><trkpt lat="38.1980486" lon="15.9055198"><ele>1365.8000000000002</ele><time>2026-04-11T08:53:32.337Z</time></trkpt><trkpt lat="38.1981616" lon="15.9054484"><ele>1364.0</ele><time>2026-04-11T08:53:34.336Z</time></trkpt><trkpt lat="38.1982188" lon="15.9054087"><ele>1364.0</ele><time>2026-04-11T08:53:35.336Z</time></trkpt><trkpt lat="38.1982809" lon="15.9053625"><ele>1364.0</ele><time>2026-04-11T08:53:36.337Z</time></trkpt><trkpt lat="38.1983399" lon="15.9053079"><ele>1364.0</ele><time>2026-04-11T08:53:37.337Z</time></trkpt><trkpt lat="38.1983973" lon="15.9052513"><ele>1364.0</ele><time>2026-04-11T08:53:38.336Z</time></trkpt><trkpt lat="38.1984511" lon="15.9052001"><ele>1364.0</ele><time>2026-04-11T08:53:39.337Z</time></trkpt><trkpt lat="38.198497" lon="15.9051398"><ele>1364.0</ele><time>2026-04-11T08:53:40.336Z</time></trkpt><trkpt lat="38.198553" lon="15.9050792"><ele>1364.0</ele><time>2026-04-11T08:53:41.337Z</time></trkpt><trkpt lat="38.1986137" lon="15.9050118"><ele>1362.2857142857142</ele><time>2026-04-11T08:53:42.336Z</time></trkpt><trkpt lat="38.1986672" lon="15.9049508"><ele>1360.5714285714287</ele><time>2026-04-11T08:53:43.336Z</time></trkpt><trkpt lat="38.1987179" lon="15.9048935"><ele>1358.857142857143</ele><time>2026-04-11T08:53:44.337Z</time></trkpt><trkpt lat="38.1987635" lon="15.9048363"><ele>1357.142857142857</ele><time>2026-04-11T08:53:45.336Z</time></trkpt><trkpt lat="38.1988141" lon="15.9047769"><ele>1355.4285714285713</ele><time>2026-04-11T08:53:46.336Z</time></trkpt><trkpt lat="38.1988674" lon="15.9047179"><ele>1353.7142857142858</ele><time>2026-04-11T08:53:47.336Z</time></trkpt><trkpt lat="38.1989178" lon="15.90466"><ele>1352.0</ele><time>2026-04-11T08:53:48.336Z</time></trkpt><trkpt lat="38.1989768" lon="15.9046082"><ele>1352.8333333333335</ele><time>2026-04-11T08:53:49.336Z</time></trkpt><trkpt lat="38.1990385" lon="15.9045609"><ele>1353.6666666666667</ele><time>2026-04-11T08:53:50.337Z</time></trkpt><trkpt lat="38.1991093" lon="15.90451"><ele>1354.5</ele><time>2026-04-11T08:53:51.336Z</time></trkpt><trkpt lat="38.1991754" lon="15.9044667"><ele>1355.3333333333333</ele><time>2026-04-11T08:53:52.337Z</time></trkpt><trkpt lat="38.199246" lon="15.904421"><ele>1356.1666666666665</ele><time>2026-04-11T08:53:53.337Z</time></trkpt><trkpt lat="38.1993118" lon="15.9043691"><ele>1357.0</ele><time>2026-04-11T08:53:54.337Z</time></trkpt><trkpt lat="38.1993765" lon="15.9043201"><ele>1357.0</ele><time>2026-04-11T08:53:55.336Z</time></trkpt><trkpt lat="38.1994403" lon="15.9042839"><ele>1357.0</ele><time>2026-04-11T08:53:56.337Z</time></trkpt><trkpt lat="38.1995066" lon="15.9042628"><ele>1357.0</ele><time>2026-04-11T08:53:57.337Z</time></trkpt><trkpt lat="38.1995792" lon="15.9042503"><ele>1357.0</ele><time>2026-04-11T08:53:58.337Z</time></trkpt><trkpt lat="38.1996481" lon="15.9042349"><ele>1357.0</ele><time>2026-04-11T08:53:59.336Z</time></trkpt><trkpt lat="38.1997103" lon="15.9042212"><ele>1357.0</ele><time>2026-04-11T08:54:00.336Z</time></trkpt><trkpt lat="38.1997902" lon="15.9041492"><ele>1357.0</ele><time>2026-04-11T08:54:02.336Z</time></trkpt><trkpt lat="38.1997989" lon="15.9040423"><ele>1355.6</ele><time>2026-04-11T08:54:04.336Z</time></trkpt><trkpt lat="38.1998358" lon="15.9039363"><ele>1354.1999999999998</ele><time>2026-04-11T08:54:06.336Z</time></trkpt><trkpt lat="38.1999143" lon="15.9038752"><ele>1352.8</ele><time>2026-04-11T08:54:08.336Z</time></trkpt><trkpt lat="38.2000215" lon="15.903829"><ele>1351.4</ele><time>2026-04-11T08:54:10.337Z</time></trkpt><trkpt lat="38.2001506" lon="15.903795"><ele>1350.0</ele><time>2026-04-11T08:54:12.336Z</time></trkpt><trkpt lat="38.2002201" lon="15.9037889"><ele>1350.0</ele><time>2026-04-11T08:54:13.337Z</time></trkpt><trkpt lat="38.2002961" lon="15.9037948"><ele>1350.0</ele><time>2026-04-11T08:54:14.336Z</time></trkpt><trkpt lat="38.2003585" lon="15.9038238"><ele>1350.0</ele><time>2026-04-11T08:54:15.337Z</time></trkpt><trkpt lat="38.2004219" lon="15.9038545"><ele>1350.0</ele><time>2026-04-11T08:54:16.336Z</time></trkpt><trkpt lat="38.2004866" lon="15.9038921"><ele>1350.0</ele><time>2026-04-11T08:54:17.336Z</time></trkpt><trkpt lat="38.2005394" lon="15.9039365"><ele>1350.0</ele><time>2026-04-11T08:54:18.336Z</time></trkpt><trkpt lat="38.2006004" lon="15.9039874"><ele>1350.0</ele><time>2026-04-11T08:54:19.336Z</time></trkpt><trkpt lat="38.2006673" lon="15.9040354"><ele>1348.857142857143</ele><time>2026-04-11T08:54:20.336Z</time></trkpt><trkpt lat="38.2007291" lon="15.9040782"><ele>1347.7142857142858</ele><time>2026-04-11T08:54:21.337Z</time></trkpt><trkpt lat="38.2007931" lon="15.9041167"><ele>1346.5714285714284</ele><time>2026-04-11T08:54:22.336Z</time></trkpt><trkpt lat="38.2008557" lon="15.9041518"><ele>1345.4285714285716</ele><time>2026-04-11T08:54:23.336Z</time></trkpt><trkpt lat="38.2009202" lon="15.9041822"><ele>1344.2857142857144</ele><time>2026-04-11T08:54:24.336Z</time></trkpt><trkpt lat="38.2009852" lon="15.9042045"><ele>1343.142857142857</ele><time>2026-04-11T08:54:25.336Z</time></trkpt><trkpt lat="38.2010518" lon="15.9042225"><ele>1342.0</ele><time>2026-04-11T08:54:26.336Z</time></trkpt><trkpt lat="38.2011318" lon="15.9042344"><ele>1342.5</ele><time>2026-04-11T08:54:27.337Z</time></trkpt><trkpt lat="38.2012129" lon="15.9042483"><ele>1343.0</ele><time>2026-04-11T08:54:28.336Z</time></trkpt><trkpt lat="38.2012878" lon="15.9042614"><ele>1343.5</ele><time>2026-04-11T08:54:29.336Z</time></trkpt><trkpt lat="38.2013669" lon="15.9042751"><ele>1344.0</ele><time>2026-04-11T08:54:30.336Z</time></trkpt><trkpt lat="38.2014482" lon="15.9042924"><ele>1344.5</ele><time>2026-04-11T08:54:31.337Z</time></trkpt><trkpt lat="38.2015299" lon="15.9043107"><ele>1345.0</ele><time>2026-04-11T08:54:32.336Z</time></trkpt><trkpt lat="38.2016042" lon="15.9043249"><ele>1343.6</ele><time>2026-04-11T08:54:33.336Z</time></trkpt><trkpt lat="38.2017291" lon="15.9043206"><ele>1342.2</ele><time>2026-04-11T08:54:35.336Z</time></trkpt><trkpt lat="38.2018251" lon="15.9042578"><ele>1340.8000000000002</ele><time>2026-04-11T08:54:37.336Z</time></trkpt><trkpt lat="38.201877" lon="15.9041554"><ele>1339.4</ele><time>2026-04-11T08:54:39.337Z</time></trkpt><trkpt lat="38.2019144" lon="15.9040279"><ele>1338.0</ele><time>2026-04-11T08:54:41.336Z</time></trkpt><trkpt lat="38.2019651" lon="15.9039135"><ele>1337.5</ele><time>2026-04-11T08:54:43.336Z</time></trkpt><trkpt lat="38.202042" lon="15.9038659"><ele>1337.0</ele><time>2026-04-11T08:54:45.336Z</time></trkpt><trkpt lat="38.2021458" lon="15.9038761"><ele>1336.5</ele><time>2026-04-11T08:54:47.336Z</time></trkpt><trkpt lat="38.2022158" lon="15.9038942"><ele>1336.0</ele><time>2026-04-11T08:54:48.337Z</time></trkpt><trkpt lat="38.2022809" lon="15.9039208"><ele>1335.5</ele><time>2026-04-11T08:54:49.337Z</time></trkpt><trkpt lat="38.202339" lon="15.9039625"><ele>1335.0</ele><time>2026-04-11T08:54:50.336Z</time></trkpt><trkpt lat="38.2024056" lon="15.9040242"><ele>1334.1666666666667</ele><time>2026-04-11T08:54:51.336Z</time></trkpt><trkpt lat="38.2024654" lon="15.9040816"><ele>1333.3333333333333</ele><time>2026-04-11T08:54:52.336Z</time></trkpt><trkpt lat="38.2025329" lon="15.9041446"><ele>1332.5</ele><time>2026-04-11T08:54:53.336Z</time></trkpt><trkpt lat="38.2025941" lon="15.904191"><ele>1331.6666666666665</ele><time>2026-04-11T08:54:54.336Z</time></trkpt><trkpt lat="38.2026568" lon="15.904228"><ele>1330.8333333333333</ele><time>2026-04-11T08:54:55.336Z</time></trkpt><trkpt lat="38.202771" lon="15.9042521"><ele>1330.0</ele><time>2026-04-11T08:54:57.337Z</time></trkpt><trkpt lat="38.2028838" lon="15.9042493"><ele>1330.0</ele><time>2026-04-11T08:54:59.337Z</time></trkpt><trkpt lat="38.2029879" lon="15.9042613"><ele>1330.0</ele><time>2026-04-11T08:55:01.336Z</time></trkpt><trkpt lat="38.203106" lon="15.9043092"><ele>1330.0</ele><time>2026-04-11T08:55:03.336Z</time></trkpt><trkpt lat="38.203174" lon="15.9043542"><ele>1330.0</ele><time>2026-04-11T08:55:04.337Z</time></trkpt><trkpt lat="38.203246" lon="15.9044287"><ele>1330.0</ele><time>2026-04-11T08:55:05.336Z</time></trkpt><trkpt lat="38.2033088" lon="15.9045083"><ele>1328.5</ele><time>2026-04-11T08:55:06.337Z</time></trkpt><trkpt lat="38.2033602" lon="15.9045817"><ele>1327.0</ele><time>2026-04-11T08:55:07.336Z</time></trkpt><trkpt lat="38.2034075" lon="15.9046615"><ele>1325.5</ele><time>2026-04-11T08:55:08.336Z</time></trkpt><trkpt lat="38.2034609" lon="15.9047397"><ele>1324.0</ele><time>2026-04-11T08:55:09.336Z</time></trkpt><trkpt lat="38.2035084" lon="15.9048133"><ele>1322.5</ele><time>2026-04-11T08:55:10.336Z</time></trkpt><trkpt lat="38.2035455" lon="15.9048863"><ele>1321.0</ele><time>2026-04-11T08:55:11.336Z</time></trkpt><trkpt lat="38.2035668" lon="15.9050115"><ele>1321.3333333333333</ele><time>2026-04-11T08:55:13.336Z</time></trkpt><trkpt lat="38.2035323" lon="15.9051414"><ele>1321.6666666666665</ele><time>2026-04-11T08:55:15.336Z</time></trkpt><trkpt lat="38.2034893" lon="15.9052477"><ele>1322.0</ele><time>2026-04-11T08:55:17.336Z</time></trkpt><trkpt lat="38.2034876" lon="15.90533"><ele>1322.3333333333333</ele><time>2026-04-11T08:55:19.336Z</time></trkpt><trkpt lat="38.2035392" lon="15.9053895"><ele>1322.6666666666667</ele><time>2026-04-11T08:55:22.336Z</time></trkpt><trkpt lat="38.2036083" lon="15.9053871"><ele>1323.0</ele><time>2026-04-11T08:55:24.337Z</time></trkpt><trkpt lat="38.2036822" lon="15.9053583"><ele>1323.0</ele><time>2026-04-11T08:55:26.336Z</time></trkpt><trkpt lat="38.2037784" lon="15.9053049"><ele>1323.0</ele><time>2026-04-11T08:55:28.336Z</time></trkpt><trkpt lat="38.203866" lon="15.905239"><ele>1323.0</ele><time>2026-04-11T08:55:30.336Z</time></trkpt><trkpt lat="38.2039528" lon="15.905199"><ele>1323.0</ele><time>2026-04-11T08:55:32.336Z</time></trkpt><trkpt lat="38.2040571" lon="15.9052109"><ele>1323.0</ele><time>2026-04-11T08:55:34.336Z</time></trkpt><trkpt lat="38.2041228" lon="15.9052285"><ele>1323.3333333333333</ele><time>2026-04-11T08:55:35.337Z</time></trkpt><trkpt lat="38.2041943" lon="15.9052684"><ele>1323.6666666666667</ele><time>2026-04-11T08:55:36.336Z</time></trkpt><trkpt lat="38.2042593" lon="15.9052936"><ele>1324.0</ele><time>2026-04-11T08:55:37.336Z</time></trkpt><trkpt lat="38.2043256" lon="15.9053218"><ele>1324.3333333333335</ele><time>2026-04-11T08:55:38.337Z</time></trkpt><trkpt lat="38.2044013" lon="15.9053552"><ele>1324.6666666666667</ele><time>2026-04-11T08:55:39.336Z</time></trkpt><trkpt lat="38.2044859" lon="15.9053862"><ele>1325.0</ele><time>2026-04-11T08:55:40.336Z</time></trkpt><trkpt lat="38.2045588" lon="15.9054113"><ele>1325.0</ele><time>2026-04-11T08:55:41.337Z</time></trkpt><trkpt lat="38.2046255" lon="15.9054356"><ele>1325.0</ele><time>2026-04-11T08:55:42.337Z</time></trkpt><trkpt lat="38.2047057" lon="15.9054809"><ele>1325.0</ele><time>2026-04-11T08:55:43.336Z</time></trkpt><trkpt lat="38.2048003" lon="15.9055496"><ele>1325.0</ele><time>2026-04-11T08:55:44.336Z</time></trkpt><trkpt lat="38.2048814" lon="15.9056339"><ele>1325.0</ele><time>2026-04-11T08:55:45.336Z</time></trkpt><trkpt lat="38.2049484" lon="15.9057125"><ele>1324.4</ele><time>2026-04-11T08:55:46.336Z</time></trkpt><trkpt lat="38.2050253" lon="15.9058158"><ele>1323.8</ele><time>2026-04-11T08:55:48.336Z</time></trkpt><trkpt lat="38.2051064" lon="15.9059369"><ele>1323.1999999999998</ele><time>2026-04-11T08:55:50.337Z</time></trkpt><trkpt lat="38.2051528" lon="15.9060082"><ele>1322.6</ele><time>2026-04-11T08:55:51.336Z</time></trkpt><trkpt lat="38.2052103" lon="15.9060848"><ele>1322.0</ele><time>2026-04-11T08:55:52.336Z</time></trkpt><trkpt lat="38.2052847" lon="15.9061947"><ele>1322.0</ele><time>2026-04-11T08:55:54.336Z</time></trkpt><trkpt lat="38.205331" lon="15.9062613"><ele>1322.0</ele><time>2026-04-11T08:55:55.337Z</time></trkpt><trkpt lat="38.2053715" lon="15.9063325"><ele>1322.0</ele><time>2026-04-11T08:55:56.337Z</time></trkpt><trkpt lat="38.2054113" lon="15.9064037"><ele>1322.0</ele><time>2026-04-11T08:55:57.336Z</time></trkpt><trkpt lat="38.2054573" lon="15.9064699"><ele>1322.0</ele><time>2026-04-11T08:55:58.337Z</time></trkpt><trkpt lat="38.2054958" lon="15.906542"><ele>1322.0</ele><time>2026-04-11T08:55:59.337Z</time></trkpt><trkpt lat="38.2055349" lon="15.9066141"><ele>1322.0</ele><time>2026-04-11T08:56:00.336Z</time></trkpt><trkpt lat="38.2055729" lon="15.906682"><ele>1322.1999999999998</ele><time>2026-04-11T08:56:01.336Z</time></trkpt><trkpt lat="38.2056144" lon="15.9067449"><ele>1322.4</ele><time>2026-04-11T08:56:02.336Z</time></trkpt><trkpt lat="38.2056761" lon="15.9068578"><ele>1322.6</ele><time>2026-04-11T08:56:04.336Z</time></trkpt><trkpt lat="38.2057254" lon="15.906967"><ele>1322.8000000000002</ele><time>2026-04-11T08:56:06.336Z</time></trkpt><trkpt lat="38.2057755" lon="15.9070882"><ele>1323.0</ele><time>2026-04-11T08:56:08.336Z</time></trkpt><trkpt lat="38.205835" lon="15.9072216"><ele>1321.0</ele><time>2026-04-11T08:56:10.336Z</time></trkpt><trkpt lat="38.2058753" lon="15.9073438"><ele>1319.0</ele><time>2026-04-11T08:56:12.336Z</time></trkpt><trkpt lat="38.2059095" lon="15.9074642"><ele>1317.0</ele><time>2026-04-11T08:56:14.336Z</time></trkpt><trkpt lat="38.2059224" lon="15.9075906"><ele>1315.0</ele><time>2026-04-11T08:56:16.337Z</time></trkpt><trkpt lat="38.2059544" lon="15.9077243"><ele>1313.0</ele><time>2026-04-11T08:56:18.337Z</time></trkpt><trkpt lat="38.2059965" lon="15.9078563"><ele>1312.8000000000002</ele><time>2026-04-11T08:56:20.336Z</time></trkpt><trkpt lat="38.2060496" lon="15.908012"><ele>1312.6</ele><time>2026-04-11T08:56:22.336Z</time></trkpt><trkpt lat="38.2060701" lon="15.9080906"><ele>1312.4</ele><time>2026-04-11T08:56:23.336Z</time></trkpt><trkpt lat="38.2060853" lon="15.9081711"><ele>1312.1999999999998</ele><time>2026-04-11T08:56:24.336Z</time></trkpt><trkpt lat="38.2060956" lon="15.9082522"><ele>1312.0</ele><time>2026-04-11T08:56:25.336Z</time></trkpt><trkpt lat="38.2061119" lon="15.9084175"><ele>1312.0</ele><time>2026-04-11T08:56:27.337Z</time></trkpt><trkpt lat="38.2061185" lon="15.9085087"><ele>1312.0</ele><time>2026-04-11T08:56:28.336Z</time></trkpt><trkpt lat="38.2061319" lon="15.9085994"><ele>1312.0</ele><time>2026-04-11T08:56:29.336Z</time></trkpt><trkpt lat="38.2061446" lon="15.9086888"><ele>1312.0</ele><time>2026-04-11T08:56:30.336Z</time></trkpt><trkpt lat="38.2061622" lon="15.9087856"><ele>1312.0</ele><time>2026-04-11T08:56:31.336Z</time></trkpt><trkpt lat="38.206184" lon="15.9088812"><ele>1312.0</ele><time>2026-04-11T08:56:32.337Z</time></trkpt><trkpt lat="38.2062163" lon="15.9089902"><ele>1312.0</ele><time>2026-04-11T08:56:33.337Z</time></trkpt><trkpt lat="38.2062378" lon="15.9090775"><ele>1312.0</ele><time>2026-04-11T08:56:34.336Z</time></trkpt><trkpt lat="38.2062848" lon="15.9092013"><ele>1312.0</ele><time>2026-04-11T08:56:36.336Z</time></trkpt><trkpt lat="38.2063283" lon="15.9092917"><ele>1312.0</ele><time>2026-04-11T08:56:38.336Z</time></trkpt><trkpt lat="38.2063713" lon="15.9093508"><ele>1312.0</ele><time>2026-04-11T08:56:40.337Z</time></trkpt><trkpt lat="38.2064251" lon="15.9094072"><ele>1312.0</ele><time>2026-04-11T09:02:39.336Z</time></trkpt><trkpt lat="38.2065094" lon="15.9094662"><ele>1309.1666666666665</ele><time>2026-04-11T09:02:41.337Z</time></trkpt><trkpt lat="38.2065678" lon="15.9095108"><ele>1306.3333333333333</ele><time>2026-04-11T09:02:42.336Z</time></trkpt><trkpt lat="38.2066304" lon="15.9095685"><ele>1303.5</ele><time>2026-04-11T09:02:43.337Z</time></trkpt><trkpt lat="38.2066878" lon="15.9096361"><ele>1300.6666666666667</ele><time>2026-04-11T09:02:44.336Z</time></trkpt><trkpt lat="38.2067507" lon="15.9097228"><ele>1297.8333333333335</ele><time>2026-04-11T09:02:45.336Z</time></trkpt><trkpt lat="38.2067866" lon="15.9097963"><ele>1295.0</ele><time>2026-04-11T09:02:46.336Z</time></trkpt><trkpt lat="38.2068107" lon="15.90994"><ele>1295.0</ele><time>2026-04-11T09:02:48.336Z</time></trkpt><trkpt lat="38.2067977" lon="15.9100606"><ele>1295.0</ele><time>2026-04-11T09:02:50.336Z</time></trkpt><trkpt lat="38.206751" lon="15.9101737"><ele>1295.0</ele><time>2026-04-11T09:02:52.337Z</time></trkpt><trkpt lat="38.2066756" lon="15.9102657"><ele>1295.0</ele><time>2026-04-11T09:02:54.337Z</time></trkpt><trkpt lat="38.2066012" lon="15.9103648"><ele>1295.0</ele><time>2026-04-11T09:02:56.337Z</time></trkpt><trkpt lat="38.2065508" lon="15.9104627"><ele>1295.0</ele><time>2026-04-11T09:02:58.336Z</time></trkpt><trkpt lat="38.2065086" lon="15.9105648"><ele>1295.0</ele><time>2026-04-11T09:03:00.336Z</time></trkpt><trkpt lat="38.2064495" lon="15.910704"><ele>1295.0</ele><time>2026-04-11T09:03:02.336Z</time></trkpt><trkpt lat="38.2064095" lon="15.9107741"><ele>1295.0</ele><time>2026-04-11T09:03:03.336Z</time></trkpt><trkpt lat="38.206354" lon="15.9108491"><ele>1295.0</ele><time>2026-04-11T09:03:04.336Z</time></trkpt><trkpt lat="38.206295" lon="15.9109262"><ele>1295.0</ele><time>2026-04-11T09:03:05.336Z</time></trkpt><trkpt lat="38.2062389" lon="15.9109927"><ele>1287.6</ele><time>2026-04-11T09:03:06.336Z</time></trkpt><trkpt lat="38.2061811" lon="15.9110562"><ele>1280.2</ele><time>2026-04-11T09:03:07.337Z</time></trkpt><trkpt lat="38.2061242" lon="15.9111057"><ele>1272.8</ele><time>2026-04-11T09:03:08.336Z</time></trkpt><trkpt lat="38.2060678" lon="15.9111439"><ele>1265.4</ele><time>2026-04-11T09:03:09.336Z</time></trkpt><trkpt lat="38.205951" lon="15.9111821"><ele>1258.0</ele><time>2026-04-11T09:03:11.336Z</time></trkpt><trkpt lat="38.2058186" lon="15.9111821"><ele>1258.0</ele><time>2026-04-11T09:03:13.336Z</time></trkpt><trkpt lat="38.2057418" lon="15.9111787"><ele>1258.0</ele><time>2026-04-11T09:03:14.336Z</time></trkpt><trkpt lat="38.2056735" lon="15.911176"><ele>1258.0</ele><time>2026-04-11T09:03:15.336Z</time></trkpt><trkpt lat="38.2056102" lon="15.9111816"><ele>1258.0</ele><time>2026-04-11T09:03:16.337Z</time></trkpt><trkpt lat="38.2055411" lon="15.911179"><ele>1258.0</ele><time>2026-04-11T09:03:17.336Z</time></trkpt><trkpt lat="38.2054644" lon="15.9111752"><ele>1258.0</ele><time>2026-04-11T09:03:18.336Z</time></trkpt><trkpt lat="38.2053943" lon="15.9111596"><ele>1258.0</ele><time>2026-04-11T09:03:19.336Z</time></trkpt><trkpt lat="38.2053234" lon="15.9111358"><ele>1256.3333333333333</ele><time>2026-04-11T09:03:20.336Z</time></trkpt><trkpt lat="38.2052489" lon="15.911111"><ele>1254.6666666666665</ele><time>2026-04-11T09:03:21.337Z</time></trkpt><trkpt lat="38.2051735" lon="15.9110903"><ele>1253.0</ele><time>2026-04-11T09:03:22.336Z</time></trkpt><trkpt lat="38.2050952" lon="15.9110816"><ele>1251.3333333333333</ele><time>2026-04-11T09:03:23.336Z</time></trkpt><trkpt lat="38.2050137" lon="15.9110832"><ele>1249.6666666666667</ele><time>2026-04-11T09:03:24.336Z</time></trkpt><trkpt lat="38.2049322" lon="15.91108"><ele>1248.0</ele><time>2026-04-11T09:03:25.336Z</time></trkpt><trkpt lat="38.2048561" lon="15.9110745"><ele>1247.4285714285716</ele><time>2026-04-11T09:03:26.336Z</time></trkpt><trkpt lat="38.2047859" lon="15.9110563"><ele>1246.8571428571427</ele><time>2026-04-11T09:03:27.336Z</time></trkpt><trkpt lat="38.2047196" lon="15.9110318"><ele>1246.2857142857142</ele><time>2026-04-11T09:03:28.336Z</time></trkpt><trkpt lat="38.204653" lon="15.9109936"><ele>1245.7142857142858</ele><time>2026-04-11T09:03:29.337Z</time></trkpt><trkpt lat="38.2045848" lon="15.9109428"><ele>1245.1428571428573</ele><time>2026-04-11T09:03:30.337Z</time></trkpt><trkpt lat="38.2045195" lon="15.9108958"><ele>1244.5714285714284</ele><time>2026-04-11T09:03:31.337Z</time></trkpt><trkpt lat="38.2044602" lon="15.9108482"><ele>1244.0</ele><time>2026-04-11T09:03:32.336Z</time></trkpt><trkpt lat="38.2043445" lon="15.9107646"><ele>1247.2857142857142</ele><time>2026-04-11T09:03:34.337Z</time></trkpt><trkpt lat="38.2042854" lon="15.9107247"><ele>1250.5714285714287</ele><time>2026-04-11T09:03:35.336Z</time></trkpt><trkpt lat="38.2042278" lon="15.9106841"><ele>1253.857142857143</ele><time>2026-04-11T09:03:36.336Z</time></trkpt><trkpt lat="38.2041698" lon="15.9106506"><ele>1257.142857142857</ele><time>2026-04-11T09:03:37.336Z</time></trkpt><trkpt lat="38.2041043" lon="15.9106217"><ele>1260.4285714285716</ele><time>2026-04-11T09:03:38.336Z</time></trkpt><trkpt lat="38.2040296" lon="15.9105853"><ele>1263.7142857142858</ele><time>2026-04-11T09:03:39.336Z</time></trkpt><trkpt lat="38.2039641" lon="15.9105586"><ele>1267.0</ele><time>2026-04-11T09:03:40.336Z</time></trkpt><trkpt lat="38.2038674" lon="15.910512"><ele>1268.0</ele><time>2026-04-11T09:03:42.336Z</time></trkpt><trkpt lat="38.2037971" lon="15.9104934"><ele>1269.0</ele><time>2026-04-11T09:03:44.336Z</time></trkpt><trkpt lat="38.20372" lon="15.910548"><ele>1270.0</ele><time>2026-04-11T09:03:47.336Z</time></trkpt><trkpt lat="38.2036575" lon="15.910672"><ele>1271.0</ele><time>2026-04-11T09:03:49.337Z</time></trkpt><trkpt lat="38.2036009" lon="15.9108014"><ele>1272.0</ele><time>2026-04-11T09:03:51.336Z</time></trkpt><trkpt lat="38.2035151" lon="15.9109217"><ele>1272.8333333333333</ele><time>2026-04-11T09:03:53.336Z</time></trkpt><trkpt lat="38.2034557" lon="15.9109849"><ele>1273.6666666666667</ele><time>2026-04-11T09:03:54.337Z</time></trkpt><trkpt lat="38.203405" lon="15.9110559"><ele>1274.5</ele><time>2026-04-11T09:03:55.337Z</time></trkpt><trkpt lat="38.2033573" lon="15.9111216"><ele>1275.3333333333335</ele><time>2026-04-11T09:03:56.337Z</time></trkpt><trkpt lat="38.2032637" lon="15.9112183"><ele>1276.1666666666667</ele><time>2026-04-11T09:03:58.337Z</time></trkpt><trkpt lat="38.2031699" lon="15.9112532"><ele>1277.0</ele><time>2026-04-11T09:04:00.336Z</time></trkpt><trkpt lat="38.2030685" lon="15.9112261"><ele>1277.0</ele><time>2026-04-11T09:04:02.336Z</time></trkpt><trkpt lat="38.2029843" lon="15.9111784"><ele>1277.0</ele><time>2026-04-11T09:04:04.336Z</time></trkpt><trkpt lat="38.20291" lon="15.9111519"><ele>1277.0</ele><time>2026-04-11T09:04:06.337Z</time></trkpt><trkpt lat="38.2028434" lon="15.9111725"><ele>1277.0</ele><time>2026-04-11T09:04:08.336Z</time></trkpt><trkpt lat="38.2027627" lon="15.9112416"><ele>1277.0</ele><time>2026-04-11T09:04:11.336Z</time></trkpt><trkpt lat="38.2027126" lon="15.9113177"><ele>1277.0</ele><time>2026-04-11T09:04:13.337Z</time></trkpt><trkpt lat="38.2026805" lon="15.911408"><ele>1277.0</ele><time>2026-04-11T09:04:15.337Z</time></trkpt><trkpt lat="38.2026701" lon="15.9115041"><ele>1277.0</ele><time>2026-04-11T09:04:17.337Z</time></trkpt><trkpt lat="38.2026991" lon="15.911629"><ele>1277.0</ele><time>2026-04-11T09:04:19.336Z</time></trkpt><trkpt lat="38.2027727" lon="15.9117598"><ele>1277.0</ele><time>2026-04-11T09:04:21.336Z</time></trkpt><trkpt lat="38.2028195" lon="15.9118258"><ele>1277.0</ele><time>2026-04-11T09:04:22.336Z</time></trkpt><trkpt lat="38.2028739" lon="15.911873"><ele>1277.0</ele><time>2026-04-11T09:04:23.336Z</time></trkpt><trkpt lat="38.2029312" lon="15.9119146"><ele>1277.2857142857142</ele><time>2026-04-11T09:04:24.336Z</time></trkpt><trkpt lat="38.2029919" lon="15.9119545"><ele>1277.5714285714284</ele><time>2026-04-11T09:04:25.336Z</time></trkpt><trkpt lat="38.2030547" lon="15.9119887"><ele>1277.8571428571427</ele><time>2026-04-11T09:04:26.336Z</time></trkpt><trkpt lat="38.2031172" lon="15.9120213"><ele>1278.142857142857</ele><time>2026-04-11T09:04:27.337Z</time></trkpt><trkpt lat="38.2031832" lon="15.9120573"><ele>1278.4285714285716</ele><time>2026-04-11T09:04:28.337Z</time></trkpt><trkpt lat="38.2032603" lon="15.9120914"><ele>1278.7142857142856</ele><time>2026-04-11T09:04:29.337Z</time></trkpt><trkpt lat="38.2033347" lon="15.9121191"><ele>1279.0</ele><time>2026-04-11T09:04:30.336Z</time></trkpt><trkpt lat="38.2034025" lon="15.9121306"><ele>1279.0</ele><time>2026-04-11T09:04:31.337Z</time></trkpt><trkpt lat="38.2035189" lon="15.912114"><ele>1279.0</ele><time>2026-04-11T09:04:33.336Z</time></trkpt><trkpt lat="38.2036322" lon="15.9120991"><ele>1279.0</ele><time>2026-04-11T09:04:35.336Z</time></trkpt><trkpt lat="38.203716" lon="15.9121227"><ele>1279.0</ele><time>2026-04-11T09:04:37.336Z</time></trkpt><trkpt lat="38.20368" lon="15.9122017"><ele>1279.0</ele><time>2026-04-11T09:04:41.337Z</time></trkpt><trkpt lat="38.2035893" lon="15.9122342"><ele>1279.0</ele><time>2026-04-11T09:04:43.336Z</time></trkpt><trkpt lat="38.2035266" lon="15.9122479"><ele>1279.0</ele><time>2026-04-11T09:04:44.336Z</time></trkpt><trkpt lat="38.2034638" lon="15.9122539"><ele>1279.0</ele><time>2026-04-11T09:04:45.336Z</time></trkpt><trkpt lat="38.2033997" lon="15.9122615"><ele>1279.0</ele><time>2026-04-11T09:04:46.336Z</time></trkpt><trkpt lat="38.2032952" lon="15.9123047"><ele>1279.0</ele><time>2026-04-11T09:04:48.336Z</time></trkpt><trkpt lat="38.2032149" lon="15.9123887"><ele>1279.0</ele><time>2026-04-11T09:04:50.337Z</time></trkpt><trkpt lat="38.2032237" lon="15.9124855"><ele>1279.0</ele><time>2026-04-11T09:04:52.336Z</time></trkpt><trkpt lat="38.2033143" lon="15.9125568"><ele>1279.0</ele><time>2026-04-11T09:04:54.336Z</time></trkpt><trkpt lat="38.2034261" lon="15.9125985"><ele>1279.0</ele><time>2026-04-11T09:04:56.337Z</time></trkpt><trkpt lat="38.2035428" lon="15.9126186"><ele>1279.0</ele><time>2026-04-11T09:04:58.336Z</time></trkpt><trkpt lat="38.2036122" lon="15.912636"><ele>1279.0</ele><time>2026-04-11T09:04:59.336Z</time></trkpt><trkpt lat="38.2036847" lon="15.9126904"><ele>1278.2857142857142</ele><time>2026-04-11T09:05:00.336Z</time></trkpt><trkpt lat="38.2037479" lon="15.9127385"><ele>1277.5714285714287</ele><time>2026-04-11T09:05:01.337Z</time></trkpt><trkpt lat="38.2038007" lon="15.9127916"><ele>1276.857142857143</ele><time>2026-04-11T09:05:02.336Z</time></trkpt><trkpt lat="38.2038443" lon="15.9128657"><ele>1276.142857142857</ele><time>2026-04-11T09:05:03.336Z</time></trkpt><trkpt lat="38.2038886" lon="15.9129378"><ele>1275.4285714285716</ele><time>2026-04-11T09:05:04.336Z</time></trkpt><trkpt lat="38.2039276" lon="15.9130043"><ele>1274.7142857142858</ele><time>2026-04-11T09:05:05.337Z</time></trkpt><trkpt lat="38.2039739" lon="15.9130691"><ele>1274.0</ele><time>2026-04-11T09:05:06.336Z</time></trkpt><trkpt lat="38.2040131" lon="15.9131376"><ele>1274.0</ele><time>2026-04-11T09:05:07.336Z</time></trkpt><trkpt lat="38.2040533" lon="15.9132005"><ele>1274.0</ele><time>2026-04-11T09:05:08.337Z</time></trkpt><trkpt lat="38.2040909" lon="15.9133173"><ele>1274.0</ele><time>2026-04-11T09:05:10.336Z</time></trkpt><trkpt lat="38.2040553" lon="15.9133982"><ele>1274.0</ele><time>2026-04-11T09:05:12.336Z</time></trkpt><trkpt lat="38.2039825" lon="15.91344"><ele>1274.0</ele><time>2026-04-11T09:05:14.337Z</time></trkpt><trkpt lat="38.2038867" lon="15.9134721"><ele>1274.0</ele><time>2026-04-11T09:05:16.336Z</time></trkpt><trkpt lat="38.203775" lon="15.9135305"><ele>1276.0</ele><time>2026-04-11T09:05:18.336Z</time></trkpt><trkpt lat="38.2037111" lon="15.9135614"><ele>1278.0</ele><time>2026-04-11T09:05:19.336Z</time></trkpt><trkpt lat="38.2036451" lon="15.9135973"><ele>1280.0</ele><time>2026-04-11T09:05:20.336Z</time></trkpt><trkpt lat="38.2035838" lon="15.9136245"><ele>1282.0</ele><time>2026-04-11T09:05:21.336Z</time></trkpt><trkpt lat="38.2035158" lon="15.913667"><ele>1284.0</ele><time>2026-04-11T09:05:22.336Z</time></trkpt><trkpt lat="38.2034449" lon="15.9137273"><ele>1286.0</ele><time>2026-04-11T09:05:23.337Z</time></trkpt><trkpt lat="38.2033634" lon="15.9138046"><ele>1286.0</ele><time>2026-04-11T09:05:24.337Z</time></trkpt><trkpt lat="38.2032947" lon="15.9138931"><ele>1286.0</ele><time>2026-04-11T09:05:25.336Z</time></trkpt><trkpt lat="38.2032327" lon="15.9139896"><ele>1286.0</ele><time>2026-04-11T09:05:26.337Z</time></trkpt><trkpt lat="38.2031809" lon="15.9140829"><ele>1286.0</ele><time>2026-04-11T09:05:27.337Z</time></trkpt><trkpt lat="38.2031334" lon="15.9141684"><ele>1286.0</ele><time>2026-04-11T09:05:28.336Z</time></trkpt><trkpt lat="38.2030793" lon="15.9142484"><ele>1287.5</ele><time>2026-04-11T09:05:29.337Z</time></trkpt><trkpt lat="38.20301" lon="15.9143208"><ele>1289.0</ele><time>2026-04-11T09:05:30.336Z</time></trkpt><trkpt lat="38.2029426" lon="15.9143941"><ele>1290.5</ele><time>2026-04-11T09:05:31.337Z</time></trkpt><trkpt lat="38.2028843" lon="15.914468"><ele>1292.0</ele><time>2026-04-11T09:05:32.336Z</time></trkpt><trkpt lat="38.202827" lon="15.9145415"><ele>1293.5</ele><time>2026-04-11T09:05:33.337Z</time></trkpt><trkpt lat="38.2027717" lon="15.9146162"><ele>1295.0</ele><time>2026-04-11T09:05:34.336Z</time></trkpt><trkpt lat="38.2027165" lon="15.9146763"><ele>1295.0</ele><time>2026-04-11T09:05:35.337Z</time></trkpt><trkpt lat="38.2026297" lon="15.9147419"><ele>1295.0</ele><time>2026-04-11T09:05:37.337Z</time></trkpt><trkpt lat="38.2025702" lon="15.9147748"><ele>1295.0</ele><time>2026-04-11T09:05:39.336Z</time></trkpt><trkpt lat="38.2025072" lon="15.9147982"><ele>1295.0</ele><time>2026-04-11T09:05:42.336Z</time></trkpt><trkpt lat="38.2024469" lon="15.9148396"><ele>1295.0</ele><time>2026-04-11T09:05:44.336Z</time></trkpt><trkpt lat="38.2023687" lon="15.9148962"><ele>1295.0</ele><time>2026-04-11T09:05:46.336Z</time></trkpt><trkpt lat="38.2022919" lon="15.9149701"><ele>1295.8</ele><time>2026-04-11T09:05:48.336Z</time></trkpt><trkpt lat="38.2022071" lon="15.9150644"><ele>1296.6</ele><time>2026-04-11T09:05:50.336Z</time></trkpt><trkpt lat="38.2021228" lon="15.9151455"><ele>1297.4</ele><time>2026-04-11T09:05:52.336Z</time></trkpt><trkpt lat="38.202038" lon="15.9151923"><ele>1298.2</ele><time>2026-04-11T09:05:54.337Z</time></trkpt><trkpt lat="38.2019471" lon="15.9152014"><ele>1299.0</ele><time>2026-04-11T09:05:56.336Z</time></trkpt><trkpt lat="38.2018607" lon="15.9152005"><ele>1299.0</ele><time>2026-04-11T09:05:58.336Z</time></trkpt><trkpt lat="38.2017462" lon="15.9152249"><ele>1299.0</ele><time>2026-04-11T09:06:00.336Z</time></trkpt><trkpt lat="38.2016928" lon="15.9152759"><ele>1299.0</ele><time>2026-04-11T09:06:02.336Z</time></trkpt><trkpt lat="38.201637" lon="15.9153698"><ele>1299.0</ele><time>2026-04-11T09:06:04.336Z</time></trkpt><trkpt lat="38.2015838" lon="15.9155009"><ele>1299.0</ele><time>2026-04-11T09:06:06.337Z</time></trkpt><trkpt lat="38.2015538" lon="15.9155825"><ele>1299.0</ele><time>2026-04-11T09:06:07.336Z</time></trkpt><trkpt lat="38.2015197" lon="15.9156547"><ele>1299.0</ele><time>2026-04-11T09:06:08.336Z</time></trkpt><trkpt lat="38.2014786" lon="15.9157234"><ele>1299.0</ele><time>2026-04-11T09:06:09.336Z</time></trkpt><trkpt lat="38.2014434" lon="15.9157913"><ele>1299.0</ele><time>2026-04-11T09:06:10.336Z</time></trkpt><trkpt lat="38.2013718" lon="15.9158908"><ele>1299.0</ele><time>2026-04-11T09:06:12.337Z</time></trkpt><trkpt lat="38.2012666" lon="15.9159392"><ele>1299.0</ele><time>2026-04-11T09:06:14.336Z</time></trkpt><trkpt lat="38.2011515" lon="15.9159247"><ele>1300.8000000000002</ele><time>2026-04-11T09:06:16.336Z</time></trkpt><trkpt lat="38.2010455" lon="15.9158814"><ele>1302.6000000000001</ele><time>2026-04-11T09:06:18.336Z</time></trkpt><trkpt lat="38.2009428" lon="15.9158722"><ele>1304.4</ele><time>2026-04-11T09:06:20.336Z</time></trkpt><trkpt lat="38.2008344" lon="15.9159132"><ele>1306.2</ele><time>2026-04-11T09:06:22.337Z</time></trkpt><trkpt lat="38.2007487" lon="15.9159618"><ele>1308.0</ele><time>2026-04-11T09:06:24.337Z</time></trkpt><trkpt lat="38.2006768" lon="15.9160206"><ele>1308.2</ele><time>2026-04-11T09:06:26.336Z</time></trkpt><trkpt lat="38.2006131" lon="15.9160727"><ele>1308.4</ele><time>2026-04-11T09:06:28.336Z</time></trkpt><trkpt lat="38.2005274" lon="15.916116"><ele>1308.6000000000001</ele><time>2026-04-11T09:06:30.336Z</time></trkpt><trkpt lat="38.20042" lon="15.9161305"><ele>1308.8000000000002</ele><time>2026-04-11T09:06:32.337Z</time></trkpt><trkpt lat="38.2003004" lon="15.9161268"><ele>1309.0</ele><time>2026-04-11T09:06:34.336Z</time></trkpt><trkpt lat="38.2001813" lon="15.9161303"><ele>1309.0</ele><time>2026-04-11T09:06:36.337Z</time></trkpt><trkpt lat="38.20009" lon="15.9161667"><ele>1309.0</ele><time>2026-04-11T09:06:38.336Z</time></trkpt><trkpt lat="38.2000157" lon="15.9162448"><ele>1309.0</ele><time>2026-04-11T09:06:40.336Z</time></trkpt><trkpt lat="38.1999983" lon="15.9163265"><ele>1309.0</ele><time>2026-04-11T09:06:42.336Z</time></trkpt><trkpt lat="38.1999923" lon="15.9164367"><ele>1309.0</ele><time>2026-04-11T09:06:45.337Z</time></trkpt><trkpt lat="38.1999758" lon="15.9165246"><ele>1309.0</ele><time>2026-04-11T09:06:47.336Z</time></trkpt><trkpt lat="38.1999865" lon="15.9166306"><ele>1309.0</ele><time>2026-04-11T09:06:50.336Z</time></trkpt><trkpt lat="38.2000007" lon="15.9167087"><ele>1309.0</ele><time>2026-04-11T09:06:52.337Z</time></trkpt><trkpt lat="38.2000382" lon="15.9168026"><ele>1309.0</ele><time>2026-04-11T09:06:54.336Z</time></trkpt><trkpt lat="38.2001034" lon="15.9168941"><ele>1309.0</ele><time>2026-04-11T09:06:56.336Z</time></trkpt><trkpt lat="38.2001578" lon="15.9169876"><ele>1309.0</ele><time>2026-04-11T09:06:58.336Z</time></trkpt><trkpt lat="38.2002136" lon="15.9170835"><ele>1309.0</ele><time>2026-04-11T09:07:00.336Z</time></trkpt><trkpt lat="38.2002731" lon="15.9171585"><ele>1310.6</ele><time>2026-04-11T09:07:02.336Z</time></trkpt><trkpt lat="38.2003491" lon="15.9171862"><ele>1312.2</ele><time>2026-04-11T09:07:04.336Z</time></trkpt><trkpt lat="38.200433" lon="15.9171782"><ele>1313.8</ele><time>2026-04-11T09:07:06.336Z</time></trkpt><trkpt lat="38.2005146" lon="15.9171058"><ele>1315.3999999999999</ele><time>2026-04-11T09:07:08.336Z</time></trkpt><trkpt lat="38.2005772" lon="15.9170166"><ele>1317.0</ele><time>2026-04-11T09:07:10.337Z</time></trkpt><trkpt lat="38.2006442" lon="15.9169333"><ele>1318.0</ele><time>2026-04-11T09:07:12.336Z</time></trkpt><trkpt lat="38.2007244" lon="15.9168789"><ele>1319.0</ele><time>2026-04-11T09:07:14.336Z</time></trkpt><trkpt lat="38.2008203" lon="15.9168688"><ele>1320.0</ele><time>2026-04-11T09:07:16.336Z</time></trkpt><trkpt lat="38.200916" lon="15.9169009"><ele>1321.0</ele><time>2026-04-11T09:07:18.336Z</time></trkpt><trkpt lat="38.2010215" lon="15.9169843"><ele>1322.0</ele><time>2026-04-11T09:07:20.336Z</time></trkpt><trkpt lat="38.2010731" lon="15.9170411"><ele>1322.0</ele><time>2026-04-11T09:07:21.336Z</time></trkpt><trkpt lat="38.2011252" lon="15.9170993"><ele>1322.0</ele><time>2026-04-11T09:07:22.336Z</time></trkpt><trkpt lat="38.2011829" lon="15.9171494"><ele>1322.0</ele><time>2026-04-11T09:07:23.336Z</time></trkpt><trkpt lat="38.2012436" lon="15.9171905"><ele>1322.0</ele><time>2026-04-11T09:07:24.336Z</time></trkpt><trkpt lat="38.2013057" lon="15.9172209"><ele>1322.0</ele><time>2026-04-11T09:07:25.336Z</time></trkpt><trkpt lat="38.2013677" lon="15.9172441"><ele>1322.0</ele><time>2026-04-11T09:07:26.336Z</time></trkpt><trkpt lat="38.2014948" lon="15.9172549"><ele>1322.3333333333335</ele><time>2026-04-11T09:07:28.336Z</time></trkpt><trkpt lat="38.2015714" lon="15.9172539"><ele>1322.6666666666667</ele><time>2026-04-11T09:07:29.336Z</time></trkpt><trkpt lat="38.2016491" lon="15.9172502"><ele>1323.0</ele><time>2026-04-11T09:07:30.337Z</time></trkpt><trkpt lat="38.2017259" lon="15.917247"><ele>1323.3333333333333</ele><time>2026-04-11T09:07:31.336Z</time></trkpt><trkpt lat="38.2018047" lon="15.9172483"><ele>1323.6666666666665</ele><time>2026-04-11T09:07:32.336Z</time></trkpt><trkpt lat="38.2018922" lon="15.9172568"><ele>1324.0</ele><time>2026-04-11T09:07:33.336Z</time></trkpt><trkpt lat="38.2019779" lon="15.9172558"><ele>1324.0</ele><time>2026-04-11T09:07:34.336Z</time></trkpt><trkpt lat="38.2020633" lon="15.9172622"><ele>1324.0</ele><time>2026-04-11T09:07:35.337Z</time></trkpt><trkpt lat="38.2021509" lon="15.9172666"><ele>1324.0</ele><time>2026-04-11T09:07:36.337Z</time></trkpt><trkpt lat="38.2022346" lon="15.9172714"><ele>1324.0</ele><time>2026-04-11T09:07:37.336Z</time></trkpt><trkpt lat="38.2023149" lon="15.9172787"><ele>1324.0</ele><time>2026-04-11T09:07:38.336Z</time></trkpt><trkpt lat="38.2023901" lon="15.9172897"><ele>1324.0</ele><time>2026-04-11T09:07:39.337Z</time></trkpt><trkpt lat="38.2024702" lon="15.9173074"><ele>1324.3333333333333</ele><time>2026-04-11T09:07:40.336Z</time></trkpt><trkpt lat="38.2025489" lon="15.9173258"><ele>1324.6666666666665</ele><time>2026-04-11T09:07:41.336Z</time></trkpt><trkpt lat="38.2026271" lon="15.917336"><ele>1325.0</ele><time>2026-04-11T09:07:42.336Z</time></trkpt><trkpt lat="38.2026998" lon="15.9173474"><ele>1325.3333333333333</ele><time>2026-04-11T09:07:43.337Z</time></trkpt><trkpt lat="38.2027823" lon="15.9173566"><ele>1325.6666666666667</ele><time>2026-04-11T09:07:44.336Z</time></trkpt><trkpt lat="38.2028677" lon="15.9173649"><ele>1326.0</ele><time>2026-04-11T09:07:45.337Z</time></trkpt><trkpt lat="38.2029618" lon="15.9173641"><ele>1326.0</ele><time>2026-04-11T09:07:46.337Z</time></trkpt><trkpt lat="38.2030515" lon="15.9173708"><ele>1326.0</ele><time>2026-04-11T09:07:47.336Z</time></trkpt><trkpt lat="38.203136" lon="15.9173723"><ele>1326.0</ele><time>2026-04-11T09:07:48.336Z</time></trkpt><trkpt lat="38.2032162" lon="15.9173761"><ele>1326.0</ele><time>2026-04-11T09:07:49.337Z</time></trkpt><trkpt lat="38.2033086" lon="15.9173797"><ele>1326.0</ele><time>2026-04-11T09:07:50.337Z</time></trkpt><trkpt lat="38.2034038" lon="15.9173734"><ele>1326.0</ele><time>2026-04-11T09:07:51.336Z</time></trkpt><trkpt lat="38.2034914" lon="15.917366"><ele>1325.1999999999998</ele><time>2026-04-11T09:07:52.336Z</time></trkpt><trkpt lat="38.2035754" lon="15.9173717"><ele>1324.3999999999999</ele><time>2026-04-11T09:07:53.336Z</time></trkpt><trkpt lat="38.2036517" lon="15.917382"><ele>1323.6</ele><time>2026-04-11T09:07:54.336Z</time></trkpt><trkpt lat="38.2037712" lon="15.9174043"><ele>1322.8</ele><time>2026-04-11T09:07:56.336Z</time></trkpt><trkpt lat="38.2038818" lon="15.9174524"><ele>1322.0</ele><time>2026-04-11T09:07:58.337Z</time></trkpt><trkpt lat="38.2039914" lon="15.9175298"><ele>1321.0</ele><time>2026-04-11T09:08:00.336Z</time></trkpt><trkpt lat="38.2040545" lon="15.9175632"><ele>1320.0</ele><time>2026-04-11T09:08:01.336Z</time></trkpt><trkpt lat="38.2041623" lon="15.9176445"><ele>1319.0</ele><time>2026-04-11T09:08:03.336Z</time></trkpt><trkpt lat="38.2042254" lon="15.9177382"><ele>1318.0</ele><time>2026-04-11T09:08:05.336Z</time></trkpt><trkpt lat="38.2042025" lon="15.9178157"><ele>1317.0</ele><time>2026-04-11T09:08:08.337Z</time></trkpt><trkpt lat="38.2041467" lon="15.917681"><ele>1312.0</ele><time>2026-04-11T09:18:37.336Z</time></trkpt></trkseg><trkseg><trkpt lat="38.2041078" lon="15.9177784"><ele>1312.0</ele><time>2026-04-11T09:54:25.7Z</time></trkpt><trkpt lat="38.2040306" lon="15.9177644"><ele>1312.0</ele><time>2026-04-11T09:54:30.699Z</time></trkpt><trkpt lat="38.203966" lon="15.9177967"><ele>1312.0</ele><time>2026-04-11T09:54:33.7Z</time></trkpt><trkpt lat="38.2039021" lon="15.9178308"><ele>1312.0</ele><time>2026-04-11T09:54:37.7Z</time></trkpt><trkpt lat="38.2038154" lon="15.9178523"><ele>1312.0</ele><time>2026-04-11T09:55:24.699Z</time></trkpt><trkpt lat="38.2037398" lon="15.9178677"><ele>1312.0</ele><time>2026-04-11T09:55:26.7Z</time></trkpt><trkpt lat="38.203648" lon="15.9178838"><ele>1312.8</ele><time>2026-04-11T09:55:28.699Z</time></trkpt><trkpt lat="38.2035398" lon="15.9179007"><ele>1313.6</ele><time>2026-04-11T09:55:30.7Z</time></trkpt><trkpt lat="38.2034261" lon="15.9179288"><ele>1314.3999999999999</ele><time>2026-04-11T09:55:32.699Z</time></trkpt><trkpt lat="38.2033046" lon="15.9179531"><ele>1315.1999999999998</ele><time>2026-04-11T09:55:34.699Z</time></trkpt><trkpt lat="38.2032414" lon="15.9179647"><ele>1316.0</ele><time>2026-04-11T09:55:35.7Z</time></trkpt><trkpt lat="38.2031712" lon="15.9179816"><ele>1317.0</ele><time>2026-04-11T09:55:36.699Z</time></trkpt><trkpt lat="38.2030969" lon="15.9180001"><ele>1318.0</ele><time>2026-04-11T09:55:37.7Z</time></trkpt><trkpt lat="38.2030253" lon="15.9180191"><ele>1319.0</ele><time>2026-04-11T09:55:38.7Z</time></trkpt><trkpt lat="38.2029533" lon="15.9180381"><ele>1320.0</ele><time>2026-04-11T09:55:39.699Z</time></trkpt><trkpt lat="38.2028689" lon="15.9180501"><ele>1321.0</ele><time>2026-04-11T09:55:40.7Z</time></trkpt><trkpt lat="38.2027925" lon="15.9180626"><ele>1322.0</ele><time>2026-04-11T09:55:41.7Z</time></trkpt><trkpt lat="38.202723" lon="15.9180763"><ele>1322.0</ele><time>2026-04-11T09:55:42.699Z</time></trkpt><trkpt lat="38.2026544" lon="15.9180854"><ele>1322.0</ele><time>2026-04-11T09:55:43.699Z</time></trkpt><trkpt lat="38.202585" lon="15.9180948"><ele>1322.0</ele><time>2026-04-11T09:55:44.699Z</time></trkpt><trkpt lat="38.202519" lon="15.918102"><ele>1322.0</ele><time>2026-04-11T09:55:45.7Z</time></trkpt><trkpt lat="38.2024005" lon="15.9181254"><ele>1322.0</ele><time>2026-04-11T09:55:47.699Z</time></trkpt><trkpt lat="38.2022833" lon="15.9181595"><ele>1322.0</ele><time>2026-04-11T09:55:49.7Z</time></trkpt><trkpt lat="38.2021624" lon="15.9182066"><ele>1323.1666666666667</ele><time>2026-04-11T09:55:51.699Z</time></trkpt><trkpt lat="38.2020891" lon="15.9182307"><ele>1324.3333333333335</ele><time>2026-04-11T09:55:52.699Z</time></trkpt><trkpt lat="38.2020194" lon="15.9182464"><ele>1325.5</ele><time>2026-04-11T09:55:53.7Z</time></trkpt><trkpt lat="38.2019496" lon="15.9182634"><ele>1326.6666666666667</ele><time>2026-04-11T09:55:54.699Z</time></trkpt><trkpt lat="38.2018806" lon="15.9182749"><ele>1327.8333333333333</ele><time>2026-04-11T09:55:55.7Z</time></trkpt><trkpt lat="38.2017583" lon="15.9183065"><ele>1329.0</ele><time>2026-04-11T09:55:57.7Z</time></trkpt><trkpt lat="38.201658" lon="15.9183725"><ele>1328.1666666666667</ele><time>2026-04-11T09:55:59.699Z</time></trkpt><trkpt lat="38.2015938" lon="15.9185035"><ele>1327.3333333333333</ele><time>2026-04-11T09:56:01.7Z</time></trkpt><trkpt lat="38.2015782" lon="15.9185924"><ele>1326.5</ele><time>2026-04-11T09:56:02.699Z</time></trkpt><trkpt lat="38.2015717" lon="15.9186845"><ele>1325.6666666666665</ele><time>2026-04-11T09:56:03.699Z</time></trkpt><trkpt lat="38.2015752" lon="15.9187793"><ele>1324.8333333333333</ele><time>2026-04-11T09:56:04.7Z</time></trkpt><trkpt lat="38.2015847" lon="15.9188786"><ele>1324.0</ele><time>2026-04-11T09:56:05.699Z</time></trkpt><trkpt lat="38.2016003" lon="15.9189866"><ele>1324.0</ele><time>2026-04-11T09:56:06.7Z</time></trkpt><trkpt lat="38.2016218" lon="15.9191065"><ele>1324.0</ele><time>2026-04-11T09:56:07.699Z</time></trkpt><trkpt lat="38.2016429" lon="15.9192216"><ele>1324.0</ele><time>2026-04-11T09:56:08.699Z</time></trkpt><trkpt lat="38.2016558" lon="15.9193377"><ele>1324.0</ele><time>2026-04-11T09:56:09.699Z</time></trkpt><trkpt lat="38.2016611" lon="15.9194543"><ele>1324.0</ele><time>2026-04-11T09:56:10.699Z</time></trkpt><trkpt lat="38.2016642" lon="15.9195798"><ele>1323.8000000000002</ele><time>2026-04-11T09:56:11.699Z</time></trkpt><trkpt lat="38.2016667" lon="15.9197101"><ele>1323.6000000000001</ele><time>2026-04-11T09:56:12.699Z</time></trkpt><trkpt lat="38.2016683" lon="15.9198477"><ele>1323.4</ele><time>2026-04-11T09:56:13.699Z</time></trkpt><trkpt lat="38.2016691" lon="15.9199841"><ele>1323.2</ele><time>2026-04-11T09:56:14.7Z</time></trkpt><trkpt lat="38.2016624" lon="15.9201136"><ele>1323.0</ele><time>2026-04-11T09:56:15.699Z</time></trkpt><trkpt lat="38.2016517" lon="15.9202428"><ele>1323.0</ele><time>2026-04-11T09:56:16.699Z</time></trkpt><trkpt lat="38.2016496" lon="15.9203642"><ele>1323.0</ele><time>2026-04-11T09:56:17.699Z</time></trkpt><trkpt lat="38.2016689" lon="15.9204751"><ele>1323.0</ele><time>2026-04-11T09:56:18.699Z</time></trkpt><trkpt lat="38.2017113" lon="15.9205763"><ele>1323.0</ele><time>2026-04-11T09:56:19.7Z</time></trkpt><trkpt lat="38.2017752" lon="15.9206697"><ele>1323.0</ele><time>2026-04-11T09:56:20.7Z</time></trkpt><trkpt lat="38.2018507" lon="15.9207604"><ele>1323.0</ele><time>2026-04-11T09:56:21.699Z</time></trkpt><trkpt lat="38.2019417" lon="15.9208455"><ele>1323.0</ele><time>2026-04-11T09:56:22.699Z</time></trkpt><trkpt lat="38.2020344" lon="15.9209346"><ele>1323.0</ele><time>2026-04-11T09:56:23.699Z</time></trkpt><trkpt lat="38.2021263" lon="15.9210364"><ele>1323.0</ele><time>2026-04-11T09:56:24.699Z</time></trkpt><trkpt lat="38.2022099" lon="15.9211372"><ele>1323.8000000000002</ele><time>2026-04-11T09:56:25.7Z</time></trkpt><trkpt lat="38.2022843" lon="15.9212378"><ele>1324.6</ele><time>2026-04-11T09:56:26.699Z</time></trkpt><trkpt lat="38.2023511" lon="15.921338"><ele>1325.4</ele><time>2026-04-11T09:56:27.699Z</time></trkpt><trkpt lat="38.2024184" lon="15.9214342"><ele>1326.1999999999998</ele><time>2026-04-11T09:56:28.699Z</time></trkpt><trkpt lat="38.2024861" lon="15.9215308"><ele>1327.0</ele><time>2026-04-11T09:56:29.7Z</time></trkpt><trkpt lat="38.2025504" lon="15.9216328"><ele>1324.6</ele><time>2026-04-11T09:56:30.699Z</time></trkpt><trkpt lat="38.2026175" lon="15.9217362"><ele>1322.1999999999998</ele><time>2026-04-11T09:56:31.699Z</time></trkpt><trkpt lat="38.2026765" lon="15.9218394"><ele>1319.8</ele><time>2026-04-11T09:56:32.699Z</time></trkpt><trkpt lat="38.2027289" lon="15.9219341"><ele>1317.4</ele><time>2026-04-11T09:56:33.7Z</time></trkpt><trkpt lat="38.2027809" lon="15.922022"><ele>1315.0</ele><time>2026-04-11T09:56:34.699Z</time></trkpt><trkpt lat="38.20282" lon="15.9221072"><ele>1315.0</ele><time>2026-04-11T09:56:35.7Z</time></trkpt><trkpt lat="38.2028517" lon="15.9221806"><ele>1315.0</ele><time>2026-04-11T09:56:36.699Z</time></trkpt><trkpt lat="38.2028774" lon="15.92232"><ele>1315.0</ele><time>2026-04-11T09:56:38.699Z</time></trkpt><trkpt lat="38.2028161" lon="15.9224632"><ele>1315.0</ele><time>2026-04-11T09:56:40.7Z</time></trkpt><trkpt lat="38.202773" lon="15.9225415"><ele>1315.0</ele><time>2026-04-11T09:56:41.7Z</time></trkpt><trkpt lat="38.202733" lon="15.9226251"><ele>1314.8333333333333</ele><time>2026-04-11T09:56:42.7Z</time></trkpt><trkpt lat="38.2026974" lon="15.922709"><ele>1314.6666666666665</ele><time>2026-04-11T09:56:43.699Z</time></trkpt><trkpt lat="38.2026736" lon="15.9227945"><ele>1314.5</ele><time>2026-04-11T09:56:44.699Z</time></trkpt><trkpt lat="38.202663" lon="15.9228928"><ele>1314.3333333333333</ele><time>2026-04-11T09:56:45.699Z</time></trkpt><trkpt lat="38.2026537" lon="15.9230197"><ele>1314.1666666666667</ele><time>2026-04-11T09:56:46.699Z</time></trkpt><trkpt lat="38.2026527" lon="15.923161"><ele>1314.0</ele><time>2026-04-11T09:56:47.7Z</time></trkpt><trkpt lat="38.2026574" lon="15.923298"><ele>1314.3333333333333</ele><time>2026-04-11T09:56:48.699Z</time></trkpt><trkpt lat="38.2026681" lon="15.9234208"><ele>1314.6666666666667</ele><time>2026-04-11T09:56:49.699Z</time></trkpt><trkpt lat="38.2026738" lon="15.9235326"><ele>1315.0</ele><time>2026-04-11T09:56:50.699Z</time></trkpt><trkpt lat="38.2026765" lon="15.9236299"><ele>1315.3333333333335</ele><time>2026-04-11T09:56:51.699Z</time></trkpt><trkpt lat="38.2026717" lon="15.9237143"><ele>1315.6666666666667</ele><time>2026-04-11T09:56:52.699Z</time></trkpt><trkpt lat="38.202633" lon="15.9238454"><ele>1316.0</ele><time>2026-04-11T09:56:54.7Z</time></trkpt><trkpt lat="38.2025763" lon="15.9239852"><ele>1316.0</ele><time>2026-04-11T09:56:56.699Z</time></trkpt><trkpt lat="38.2025405" lon="15.9240737"><ele>1316.0</ele><time>2026-04-11T09:56:57.7Z</time></trkpt><trkpt lat="38.2025014" lon="15.9241644"><ele>1316.0</ele><time>2026-04-11T09:56:58.7Z</time></trkpt><trkpt lat="38.2024555" lon="15.9242483"><ele>1316.0</ele><time>2026-04-11T09:56:59.699Z</time></trkpt><trkpt lat="38.2024078" lon="15.9243246"><ele>1316.0</ele><time>2026-04-11T09:57:00.7Z</time></trkpt><trkpt lat="38.2023679" lon="15.9243941"><ele>1316.0</ele><time>2026-04-11T09:57:01.699Z</time></trkpt><trkpt lat="38.2022994" lon="15.9245192"><ele>1317.4</ele><time>2026-04-11T09:57:03.7Z</time></trkpt><trkpt lat="38.2022563" lon="15.9246757"><ele>1318.8</ele><time>2026-04-11T09:57:05.699Z</time></trkpt><trkpt lat="38.2022366" lon="15.9247834"><ele>1320.2</ele><time>2026-04-11T09:57:06.699Z</time></trkpt><trkpt lat="38.202226" lon="15.9248956"><ele>1321.6000000000001</ele><time>2026-04-11T09:57:07.699Z</time></trkpt><trkpt lat="38.2022205" lon="15.925009"><ele>1323.0</ele><time>2026-04-11T09:57:08.7Z</time></trkpt><trkpt lat="38.2022279" lon="15.9251174"><ele>1323.0</ele><time>2026-04-11T09:57:09.699Z</time></trkpt><trkpt lat="38.2022415" lon="15.9252215"><ele>1323.0</ele><time>2026-04-11T09:57:10.699Z</time></trkpt><trkpt lat="38.2022553" lon="15.9253257"><ele>1323.0</ele><time>2026-04-11T09:57:11.7Z</time></trkpt><trkpt lat="38.2022713" lon="15.9254272"><ele>1323.0</ele><time>2026-04-11T09:57:12.7Z</time></trkpt><trkpt lat="38.2022953" lon="15.9255292"><ele>1323.0</ele><time>2026-04-11T09:57:13.7Z</time></trkpt><trkpt lat="38.2023163" lon="15.9256405"><ele>1323.0</ele><time>2026-04-11T09:57:14.7Z</time></trkpt><trkpt lat="38.2023362" lon="15.9257581"><ele>1320.6000000000001</ele><time>2026-04-11T09:57:15.7Z</time></trkpt><trkpt lat="38.2023533" lon="15.9258757"><ele>1318.2</ele><time>2026-04-11T09:57:16.699Z</time></trkpt><trkpt lat="38.2023756" lon="15.9259997"><ele>1315.8</ele><time>2026-04-11T09:57:17.7Z</time></trkpt><trkpt lat="38.2023956" lon="15.9261304"><ele>1313.4</ele><time>2026-04-11T09:57:18.699Z</time></trkpt><trkpt lat="38.2024211" lon="15.926259"><ele>1311.0</ele><time>2026-04-11T09:57:19.699Z</time></trkpt><trkpt lat="38.2024539" lon="15.9263932"><ele>1310.5</ele><time>2026-04-11T09:57:20.699Z</time></trkpt><trkpt lat="38.2024826" lon="15.9265287"><ele>1310.0</ele><time>2026-04-11T09:57:21.7Z</time></trkpt><trkpt lat="38.2025039" lon="15.9266643"><ele>1309.5</ele><time>2026-04-11T09:57:22.699Z</time></trkpt><trkpt lat="38.2025253" lon="15.9268075"><ele>1309.0</ele><time>2026-04-11T09:57:23.699Z</time></trkpt><trkpt lat="38.2025504" lon="15.9269528"><ele>1307.75</ele><time>2026-04-11T09:57:24.7Z</time></trkpt><trkpt lat="38.2025792" lon="15.9270985"><ele>1306.5</ele><time>2026-04-11T09:57:25.7Z</time></trkpt><trkpt lat="38.2026041" lon="15.9272417"><ele>1305.25</ele><time>2026-04-11T09:57:26.7Z</time></trkpt><trkpt lat="38.2026314" lon="15.9273882"><ele>1304.0</ele><time>2026-04-11T09:57:27.699Z</time></trkpt><trkpt lat="38.2026553" lon="15.927538"><ele>1302.75</ele><time>2026-04-11T09:57:28.7Z</time></trkpt><trkpt lat="38.2026797" lon="15.9276884"><ele>1301.5</ele><time>2026-04-11T09:57:29.7Z</time></trkpt><trkpt lat="38.2027017" lon="15.9278416"><ele>1300.25</ele><time>2026-04-11T09:57:30.699Z</time></trkpt><trkpt lat="38.2027181" lon="15.9280005"><ele>1299.0</ele><time>2026-04-11T09:57:31.699Z</time></trkpt><trkpt lat="38.2027291" lon="15.9281596"><ele>1299.0</ele><time>2026-04-11T09:57:32.699Z</time></trkpt><trkpt lat="38.2027472" lon="15.9283146"><ele>1299.0</ele><time>2026-04-11T09:57:33.699Z</time></trkpt><trkpt lat="38.202765" lon="15.9284643"><ele>1299.0</ele><time>2026-04-11T09:57:34.699Z</time></trkpt><trkpt lat="38.2027868" lon="15.9286061"><ele>1299.0</ele><time>2026-04-11T09:57:35.699Z</time></trkpt><trkpt lat="38.2028039" lon="15.9287385"><ele>1298.6</ele><time>2026-04-11T09:57:36.698Z</time></trkpt><trkpt lat="38.2028187" lon="15.9288769"><ele>1298.2</ele><time>2026-04-11T09:57:37.699Z</time></trkpt><trkpt lat="38.2028208" lon="15.9290076"><ele>1297.8</ele><time>2026-04-11T09:57:38.699Z</time></trkpt><trkpt lat="38.2028111" lon="15.9291372"><ele>1297.3999999999999</ele><time>2026-04-11T09:57:39.698Z</time></trkpt><trkpt lat="38.2027843" lon="15.9292705"><ele>1297.0</ele><time>2026-04-11T09:57:40.699Z</time></trkpt><trkpt lat="38.202763" lon="15.929393"><ele>1296.0</ele><time>2026-04-11T09:57:41.698Z</time></trkpt><trkpt lat="38.2027306" lon="15.9295205"><ele>1295.0</ele><time>2026-04-11T09:57:42.698Z</time></trkpt><trkpt lat="38.2026903" lon="15.9296644"><ele>1294.0</ele><time>2026-04-11T09:57:43.698Z</time></trkpt><trkpt lat="38.2026371" lon="15.9298138"><ele>1293.0</ele><time>2026-04-11T09:57:44.698Z</time></trkpt><trkpt lat="38.2025916" lon="15.9299686"><ele>1293.5</ele><time>2026-04-11T09:57:45.699Z</time></trkpt><trkpt lat="38.2025488" lon="15.9301226"><ele>1294.0</ele><time>2026-04-11T09:57:46.698Z</time></trkpt><trkpt lat="38.2025041" lon="15.9302642"><ele>1294.5</ele><time>2026-04-11T09:57:47.699Z</time></trkpt><trkpt lat="38.2024646" lon="15.9303917"><ele>1295.0</ele><time>2026-04-11T09:57:48.698Z</time></trkpt><trkpt lat="38.2024272" lon="15.9305132"><ele>1295.0</ele><time>2026-04-11T09:57:49.699Z</time></trkpt><trkpt lat="38.2024011" lon="15.9306236"><ele>1295.0</ele><time>2026-04-11T09:57:50.698Z</time></trkpt><trkpt lat="38.2023899" lon="15.93072"><ele>1295.0</ele><time>2026-04-11T09:57:51.699Z</time></trkpt><trkpt lat="38.2024104" lon="15.9308075"><ele>1295.0</ele><time>2026-04-11T09:57:52.698Z</time></trkpt><trkpt lat="38.2024515" lon="15.9308929"><ele>1295.0</ele><time>2026-04-11T09:57:53.698Z</time></trkpt><trkpt lat="38.202507" lon="15.9309671"><ele>1295.0</ele><time>2026-04-11T09:57:54.698Z</time></trkpt><trkpt lat="38.2025885" lon="15.931028"><ele>1297.0</ele><time>2026-04-11T09:57:55.698Z</time></trkpt><trkpt lat="38.2027006" lon="15.931073"><ele>1299.0</ele><time>2026-04-11T09:57:56.698Z</time></trkpt><trkpt lat="38.2027996" lon="15.9311366"><ele>1301.0</ele><time>2026-04-11T09:57:57.698Z</time></trkpt><trkpt lat="38.2028792" lon="15.9312186"><ele>1303.0</ele><time>2026-04-11T09:57:58.699Z</time></trkpt><trkpt lat="38.2029363" lon="15.931317"><ele>1305.0</ele><time>2026-04-11T09:57:59.699Z</time></trkpt><trkpt lat="38.2029704" lon="15.9314218"><ele>1305.0</ele><time>2026-04-11T09:58:00.699Z</time></trkpt><trkpt lat="38.2029938" lon="15.9315242"><ele>1305.0</ele><time>2026-04-11T09:58:01.699Z</time></trkpt><trkpt lat="38.2030214" lon="15.9316179"><ele>1305.0</ele><time>2026-04-11T09:58:02.698Z</time></trkpt><trkpt lat="38.2030721" lon="15.93173"><ele>1305.0</ele><time>2026-04-11T09:58:03.698Z</time></trkpt><trkpt lat="38.2031364" lon="15.9318334"><ele>1305.0</ele><time>2026-04-11T09:58:04.699Z</time></trkpt><trkpt lat="38.2032112" lon="15.9319248"><ele>1303.8</ele><time>2026-04-11T09:58:05.698Z</time></trkpt><trkpt lat="38.2032907" lon="15.9320169"><ele>1302.6</ele><time>2026-04-11T09:58:06.698Z</time></trkpt><trkpt lat="38.2033702" lon="15.932114"><ele>1301.4</ele><time>2026-04-11T09:58:07.698Z</time></trkpt><trkpt lat="38.2034402" lon="15.9322195"><ele>1300.2</ele><time>2026-04-11T09:58:08.698Z</time></trkpt><trkpt lat="38.2034911" lon="15.9323313"><ele>1299.0</ele><time>2026-04-11T09:58:09.698Z</time></trkpt><trkpt lat="38.2035209" lon="15.9324459"><ele>1299.8000000000002</ele><time>2026-04-11T09:58:10.698Z</time></trkpt><trkpt lat="38.20353" lon="15.9325569"><ele>1300.6000000000001</ele><time>2026-04-11T09:58:11.698Z</time></trkpt><trkpt lat="38.2035217" lon="15.9326823"><ele>1301.4</ele><time>2026-04-11T09:58:12.698Z</time></trkpt><trkpt lat="38.2035042" lon="15.9328296"><ele>1302.2</ele><time>2026-04-11T09:58:13.698Z</time></trkpt><trkpt lat="38.2034896" lon="15.9329895"><ele>1303.0</ele><time>2026-04-11T09:58:14.699Z</time></trkpt><trkpt lat="38.2034905" lon="15.9331358"><ele>1303.0</ele><time>2026-04-11T09:58:15.698Z</time></trkpt><trkpt lat="38.2035133" lon="15.9332685"><ele>1303.0</ele><time>2026-04-11T09:58:16.698Z</time></trkpt><trkpt lat="38.2035508" lon="15.9333984"><ele>1303.0</ele><time>2026-04-11T09:58:17.699Z</time></trkpt><trkpt lat="38.2036141" lon="15.9335137"><ele>1303.0</ele><time>2026-04-11T09:58:18.698Z</time></trkpt><trkpt lat="38.2036884" lon="15.9336167"><ele>1303.0</ele><time>2026-04-11T09:58:19.698Z</time></trkpt><trkpt lat="38.2037627" lon="15.9337127"><ele>1300.2</ele><time>2026-04-11T09:58:20.698Z</time></trkpt><trkpt lat="38.2038378" lon="15.9337984"><ele>1297.4</ele><time>2026-04-11T09:58:21.699Z</time></trkpt><trkpt lat="38.2038947" lon="15.9338787"><ele>1294.6000000000001</ele><time>2026-04-11T09:58:22.698Z</time></trkpt><trkpt lat="38.2039334" lon="15.9339556"><ele>1291.8000000000002</ele><time>2026-04-11T09:58:23.698Z</time></trkpt><trkpt lat="38.2039398" lon="15.9340936"><ele>1289.0</ele><time>2026-04-11T09:58:25.699Z</time></trkpt><trkpt lat="38.2038439" lon="15.9342024"><ele>1283.75</ele><time>2026-04-11T09:58:27.698Z</time></trkpt><trkpt lat="38.203755" lon="15.9342393"><ele>1278.5</ele><time>2026-04-11T09:58:28.698Z</time></trkpt><trkpt lat="38.2036456" lon="15.9342694"><ele>1273.25</ele><time>2026-04-11T09:58:29.699Z</time></trkpt><trkpt lat="38.2035163" lon="15.9342876"><ele>1268.0</ele><time>2026-04-11T09:58:30.698Z</time></trkpt><trkpt lat="38.203385" lon="15.9343099"><ele>1268.0</ele><time>2026-04-11T09:58:31.698Z</time></trkpt><trkpt lat="38.2032591" lon="15.9343509"><ele>1268.0</ele><time>2026-04-11T09:58:32.699Z</time></trkpt><trkpt lat="38.2031353" lon="15.9344244"><ele>1268.0</ele><time>2026-04-11T09:58:33.698Z</time></trkpt><trkpt lat="38.2030297" lon="15.9345191"><ele>1268.0</ele><time>2026-04-11T09:58:34.698Z</time></trkpt><trkpt lat="38.2029472" lon="15.9346"><ele>1271.0</ele><time>2026-04-11T09:58:35.699Z</time></trkpt><trkpt lat="38.2028658" lon="15.9346814"><ele>1274.0</ele><time>2026-04-11T09:58:36.698Z</time></trkpt><trkpt lat="38.2027838" lon="15.9347579"><ele>1277.0</ele><time>2026-04-11T09:58:37.699Z</time></trkpt><trkpt lat="38.2026986" lon="15.934824"><ele>1280.0</ele><time>2026-04-11T09:58:38.699Z</time></trkpt><trkpt lat="38.2026088" lon="15.9348888"><ele>1283.0</ele><time>2026-04-11T09:58:39.699Z</time></trkpt><trkpt lat="38.2025196" lon="15.9349444"><ele>1283.0</ele><time>2026-04-11T09:58:40.698Z</time></trkpt><trkpt lat="38.2024322" lon="15.934998"><ele>1283.0</ele><time>2026-04-11T09:58:41.699Z</time></trkpt><trkpt lat="38.2023594" lon="15.9350518"><ele>1283.0</ele><time>2026-04-11T09:58:42.699Z</time></trkpt><trkpt lat="38.202291" lon="15.9351155"><ele>1283.0</ele><time>2026-04-11T09:58:43.698Z</time></trkpt><trkpt lat="38.2022299" lon="15.9351819"><ele>1283.0</ele><time>2026-04-11T09:58:44.698Z</time></trkpt><trkpt lat="38.2021759" lon="15.9352491"><ele>1283.0</ele><time>2026-04-11T09:58:45.698Z</time></trkpt><trkpt lat="38.202113" lon="15.9353932"><ele>1284.2</ele><time>2026-04-11T09:58:47.698Z</time></trkpt><trkpt lat="38.2020973" lon="15.935492"><ele>1285.4</ele><time>2026-04-11T09:58:48.698Z</time></trkpt><trkpt lat="38.2020922" lon="15.9355995"><ele>1286.6000000000001</ele><time>2026-04-11T09:58:49.699Z</time></trkpt><trkpt lat="38.2020991" lon="15.9357159"><ele>1287.8000000000002</ele><time>2026-04-11T09:58:50.698Z</time></trkpt><trkpt lat="38.2021239" lon="15.9358428"><ele>1289.0</ele><time>2026-04-11T09:58:51.698Z</time></trkpt><trkpt lat="38.2021739" lon="15.935966"><ele>1287.5</ele><time>2026-04-11T09:58:52.699Z</time></trkpt><trkpt lat="38.2022496" lon="15.9360584"><ele>1286.0</ele><time>2026-04-11T09:58:53.698Z</time></trkpt><trkpt lat="38.2023509" lon="15.9361226"><ele>1284.5</ele><time>2026-04-11T09:58:54.698Z</time></trkpt><trkpt lat="38.2024843" lon="15.9361648"><ele>1283.0</ele><time>2026-04-11T09:58:55.698Z</time></trkpt><trkpt lat="38.2026326" lon="15.9361845"><ele>1283.0</ele><time>2026-04-11T09:58:56.698Z</time></trkpt><trkpt lat="38.2027738" lon="15.9362019"><ele>1283.0</ele><time>2026-04-11T09:58:57.698Z</time></trkpt><trkpt lat="38.2029125" lon="15.9362236"><ele>1283.0</ele><time>2026-04-11T09:58:58.699Z</time></trkpt><trkpt lat="38.2030417" lon="15.9362337"><ele>1283.0</ele><time>2026-04-11T09:58:59.698Z</time></trkpt><trkpt lat="38.2031559" lon="15.9362407"><ele>1279.8333333333335</ele><time>2026-04-11T09:59:00.698Z</time></trkpt><trkpt lat="38.2032572" lon="15.9362574"><ele>1276.6666666666667</ele><time>2026-04-11T09:59:01.699Z</time></trkpt><trkpt lat="38.2033411" lon="15.9362945"><ele>1273.5</ele><time>2026-04-11T09:59:02.698Z</time></trkpt><trkpt lat="38.2033997" lon="15.9363544"><ele>1270.3333333333333</ele><time>2026-04-11T09:59:03.699Z</time></trkpt><trkpt lat="38.2034156" lon="15.9364338"><ele>1267.1666666666665</ele><time>2026-04-11T09:59:04.698Z</time></trkpt><trkpt lat="38.2034059" lon="15.9365376"><ele>1264.0</ele><time>2026-04-11T09:59:05.698Z</time></trkpt><trkpt lat="38.2033944" lon="15.9366619"><ele>1265.75</ele><time>2026-04-11T09:59:06.698Z</time></trkpt><trkpt lat="38.2033744" lon="15.9368177"><ele>1267.5</ele><time>2026-04-11T09:59:07.698Z</time></trkpt><trkpt lat="38.2033727" lon="15.9369668"><ele>1269.25</ele><time>2026-04-11T09:59:08.699Z</time></trkpt><trkpt lat="38.2033962" lon="15.9371153"><ele>1271.0</ele><time>2026-04-11T09:59:09.698Z</time></trkpt><trkpt lat="38.2034388" lon="15.93726"><ele>1271.0</ele><time>2026-04-11T09:59:10.699Z</time></trkpt><trkpt lat="38.203494" lon="15.9374046"><ele>1271.0</ele><time>2026-04-11T09:59:11.698Z</time></trkpt><trkpt lat="38.2035545" lon="15.9375373"><ele>1271.0</ele><time>2026-04-11T09:59:12.698Z</time></trkpt><trkpt lat="38.2036059" lon="15.9376637"><ele>1271.0</ele><time>2026-04-11T09:59:13.698Z</time></trkpt><trkpt lat="38.2036551" lon="15.9377863"><ele>1270.2</ele><time>2026-04-11T09:59:14.699Z</time></trkpt><trkpt lat="38.203707" lon="15.9379055"><ele>1269.3999999999999</ele><time>2026-04-11T09:59:15.698Z</time></trkpt><trkpt lat="38.2037574" lon="15.9380198"><ele>1268.6</ele><time>2026-04-11T09:59:16.699Z</time></trkpt><trkpt lat="38.2038009" lon="15.93813"><ele>1267.8</ele><time>2026-04-11T09:59:17.698Z</time></trkpt><trkpt lat="38.2038346" lon="15.9382369"><ele>1267.0</ele><time>2026-04-11T09:59:18.699Z</time></trkpt><trkpt lat="38.2038496" lon="15.9383456"><ele>1265.3333333333333</ele><time>2026-04-11T09:59:19.699Z</time></trkpt><trkpt lat="38.2038507" lon="15.9384485"><ele>1263.6666666666665</ele><time>2026-04-11T09:59:20.699Z</time></trkpt><trkpt lat="38.203831" lon="15.9385484"><ele>1262.0</ele><time>2026-04-11T09:59:21.698Z</time></trkpt><trkpt lat="38.203788" lon="15.9386372"><ele>1260.3333333333333</ele><time>2026-04-11T09:59:22.698Z</time></trkpt><trkpt lat="38.2037229" lon="15.938713"><ele>1258.6666666666667</ele><time>2026-04-11T09:59:23.699Z</time></trkpt><trkpt lat="38.2036416" lon="15.9387727"><ele>1257.0</ele><time>2026-04-11T09:59:24.698Z</time></trkpt><trkpt lat="38.2035647" lon="15.9388351"><ele>1257.0</ele><time>2026-04-11T09:59:25.699Z</time></trkpt><trkpt lat="38.203509" lon="15.9388991"><ele>1257.0</ele><time>2026-04-11T09:59:26.699Z</time></trkpt><trkpt lat="38.2034654" lon="15.938981"><ele>1257.0</ele><time>2026-04-11T09:59:27.698Z</time></trkpt><trkpt lat="38.2034384" lon="15.939073"><ele>1257.0</ele><time>2026-04-11T09:59:28.698Z</time></trkpt><trkpt lat="38.2034365" lon="15.9391806"><ele>1257.0</ele><time>2026-04-11T09:59:29.699Z</time></trkpt><trkpt lat="38.2034613" lon="15.939301"><ele>1257.0</ele><time>2026-04-11T09:59:30.698Z</time></trkpt><trkpt lat="38.2035155" lon="15.9394203"><ele>1256.0</ele><time>2026-04-11T09:59:31.698Z</time></trkpt><trkpt lat="38.2035743" lon="15.9395346"><ele>1255.0</ele><time>2026-04-11T09:59:32.698Z</time></trkpt><trkpt lat="38.2036153" lon="15.9396378"><ele>1254.0</ele><time>2026-04-11T09:59:33.699Z</time></trkpt><trkpt lat="38.203642" lon="15.9397222"><ele>1253.0</ele><time>2026-04-11T09:59:34.698Z</time></trkpt><trkpt lat="38.2036309" lon="15.9398678"><ele>1252.0</ele><time>2026-04-11T09:59:36.698Z</time></trkpt><trkpt lat="38.2035295" lon="15.9399439"><ele>1252.0</ele><time>2026-04-11T09:59:38.698Z</time></trkpt><trkpt lat="38.2034581" lon="15.9399719"><ele>1252.0</ele><time>2026-04-11T09:59:39.698Z</time></trkpt><trkpt lat="38.2033843" lon="15.9400092"><ele>1252.0</ele><time>2026-04-11T09:59:40.698Z</time></trkpt><trkpt lat="38.2033258" lon="15.9400804"><ele>1252.0</ele><time>2026-04-11T09:59:41.698Z</time></trkpt><trkpt lat="38.2032933" lon="15.9401694"><ele>1252.0</ele><time>2026-04-11T09:59:42.698Z</time></trkpt><trkpt lat="38.2032734" lon="15.9402657"><ele>1252.0</ele><time>2026-04-11T09:59:43.699Z</time></trkpt><trkpt lat="38.2032735" lon="15.940361"><ele>1253.3333333333333</ele><time>2026-04-11T09:59:44.698Z</time></trkpt><trkpt lat="38.2032976" lon="15.9404496"><ele>1254.6666666666665</ele><time>2026-04-11T09:59:45.699Z</time></trkpt><trkpt lat="38.2033434" lon="15.9405285"><ele>1256.0</ele><time>2026-04-11T09:59:46.698Z</time></trkpt><trkpt lat="38.2034052" lon="15.9405852"><ele>1257.3333333333333</ele><time>2026-04-11T09:59:47.698Z</time></trkpt><trkpt lat="38.2034775" lon="15.9406302"><ele>1258.6666666666667</ele><time>2026-04-11T09:59:48.699Z</time></trkpt><trkpt lat="38.2035576" lon="15.9406636"><ele>1260.0</ele><time>2026-04-11T09:59:49.699Z</time></trkpt><trkpt lat="38.2036427" lon="15.9406761"><ele>1260.0</ele><time>2026-04-11T09:59:50.698Z</time></trkpt><trkpt lat="38.2037373" lon="15.9406759"><ele>1260.0</ele><time>2026-04-11T09:59:51.699Z</time></trkpt><trkpt lat="38.2038353" lon="15.9406666"><ele>1260.0</ele><time>2026-04-11T09:59:52.698Z</time></trkpt><trkpt lat="38.2039464" lon="15.9406532"><ele>1260.0</ele><time>2026-04-11T09:59:53.699Z</time></trkpt><trkpt lat="38.2040721" lon="15.9406472"><ele>1260.0</ele><time>2026-04-11T09:59:54.699Z</time></trkpt><trkpt lat="38.2041951" lon="15.9406235"><ele>1259.0</ele><time>2026-04-11T09:59:55.699Z</time></trkpt><trkpt lat="38.2043118" lon="15.9406131"><ele>1258.0</ele><time>2026-04-11T09:59:56.698Z</time></trkpt><trkpt lat="38.204419" lon="15.9406121"><ele>1257.0</ele><time>2026-04-11T09:59:57.698Z</time></trkpt><trkpt lat="38.2045182" lon="15.9406201"><ele>1256.0</ele><time>2026-04-11T09:59:58.698Z</time></trkpt><trkpt lat="38.2046088" lon="15.9406332"><ele>1255.0</ele><time>2026-04-11T09:59:59.698Z</time></trkpt><trkpt lat="38.2046896" lon="15.9406478"><ele>1255.0</ele><time>2026-04-11T10:00:00.698Z</time></trkpt><trkpt lat="38.2047668" lon="15.9406678"><ele>1255.0</ele><time>2026-04-11T10:00:01.698Z</time></trkpt><trkpt lat="38.2048442" lon="15.9406943"><ele>1255.0</ele><time>2026-04-11T10:00:02.698Z</time></trkpt><trkpt lat="38.2049114" lon="15.940732"><ele>1255.0</ele><time>2026-04-11T10:00:03.699Z</time></trkpt><trkpt lat="38.2049628" lon="15.9407927"><ele>1255.0</ele><time>2026-04-11T10:00:04.699Z</time></trkpt><trkpt lat="38.2050033" lon="15.9408697"><ele>1255.0</ele><time>2026-04-11T10:00:05.699Z</time></trkpt><trkpt lat="38.2050175" lon="15.9409566"><ele>1255.0</ele><time>2026-04-11T10:00:06.699Z</time></trkpt><trkpt lat="38.2050059" lon="15.9410521"><ele>1256.0</ele><time>2026-04-11T10:00:07.699Z</time></trkpt><trkpt lat="38.2049632" lon="15.9411489"><ele>1257.0</ele><time>2026-04-11T10:00:08.698Z</time></trkpt><trkpt lat="38.2049054" lon="15.9412479"><ele>1258.0</ele><time>2026-04-11T10:00:09.699Z</time></trkpt><trkpt lat="38.2048372" lon="15.9413428"><ele>1259.0</ele><time>2026-04-11T10:00:10.699Z</time></trkpt><trkpt lat="38.2047765" lon="15.9414374"><ele>1260.0</ele><time>2026-04-11T10:00:11.698Z</time></trkpt><trkpt lat="38.2047264" lon="15.9415367"><ele>1260.0</ele><time>2026-04-11T10:00:12.699Z</time></trkpt><trkpt lat="38.2046901" lon="15.9416471"><ele>1260.0</ele><time>2026-04-11T10:00:13.698Z</time></trkpt><trkpt lat="38.2046777" lon="15.9417564"><ele>1260.0</ele><time>2026-04-11T10:00:14.698Z</time></trkpt><trkpt lat="38.2046856" lon="15.9418453"><ele>1260.0</ele><time>2026-04-11T10:00:15.699Z</time></trkpt><trkpt lat="38.204726" lon="15.9419482"><ele>1260.0</ele><time>2026-04-11T10:00:16.699Z</time></trkpt><trkpt lat="38.2047691" lon="15.9420645"><ele>1260.0</ele><time>2026-04-11T10:00:17.698Z</time></trkpt><trkpt lat="38.2048031" lon="15.9421712"><ele>1259.4</ele><time>2026-04-11T10:00:18.698Z</time></trkpt><trkpt lat="38.2048387" lon="15.942285"><ele>1258.8</ele><time>2026-04-11T10:00:19.698Z</time></trkpt><trkpt lat="38.2048709" lon="15.9424045"><ele>1258.2</ele><time>2026-04-11T10:00:20.698Z</time></trkpt><trkpt lat="38.2049023" lon="15.9425183"><ele>1257.6</ele><time>2026-04-11T10:00:21.699Z</time></trkpt><trkpt lat="38.2049378" lon="15.9426223"><ele>1257.0</ele><time>2026-04-11T10:00:22.699Z</time></trkpt><trkpt lat="38.2049761" lon="15.9427155"><ele>1257.0000000000002</ele><time>2026-04-11T10:00:23.698Z</time></trkpt><trkpt lat="38.2050224" lon="15.9428006"><ele>1257.0</ele><time>2026-04-11T10:00:24.699Z</time></trkpt><trkpt lat="38.2050711" lon="15.9428756"><ele>1257.0</ele><time>2026-04-11T10:00:25.698Z</time></trkpt><trkpt lat="38.2051206" lon="15.9429368"><ele>1257.0</ele><time>2026-04-11T10:00:26.699Z</time></trkpt><trkpt lat="38.2051737" lon="15.9429846"><ele>1257.0</ele><time>2026-04-11T10:00:27.699Z</time></trkpt><trkpt lat="38.2052341" lon="15.9430148"><ele>1257.0000000000002</ele><time>2026-04-11T10:00:28.698Z</time></trkpt><trkpt lat="38.2053109" lon="15.9430367"><ele>1257.0</ele><time>2026-04-11T10:00:29.699Z</time></trkpt><trkpt lat="38.2053943" lon="15.9430551"><ele>1257.0</ele><time>2026-04-11T10:00:30.698Z</time></trkpt><trkpt lat="38.2055027" lon="15.9430756"><ele>1257.0</ele><time>2026-04-11T10:00:31.699Z</time></trkpt><trkpt lat="38.2056948" lon="15.9431061"><ele>1257.0</ele><time>2026-04-11T10:00:33.698Z</time></trkpt><trkpt lat="38.2057907" lon="15.9431148"><ele>1257.0</ele><time>2026-04-11T10:00:34.698Z</time></trkpt><trkpt lat="38.2058767" lon="15.9431316"><ele>1251.5</ele><time>2026-04-11T10:00:35.698Z</time></trkpt><trkpt lat="38.2059628" lon="15.9431432"><ele>1246.0</ele><time>2026-04-11T10:00:36.698Z</time></trkpt><trkpt lat="38.2050175" lon="15.9409566"><ele>1243.3999999999999</ele><time>2026-04-11T10:00:06.699Z</time></trkpt><trkpt lat="38.2050059" lon="15.9410521"><ele>1240.8</ele><time>2026-04-11T10:00:07.699Z</time></trkpt><trkpt lat="38.2049632" lon="15.9411489"><ele>1238.1999999999998</ele><time>2026-04-11T10:00:08.698Z</time></trkpt><trkpt lat="38.2049054" lon="15.9412479"><ele>1235.6</ele><time>2026-04-11T10:00:09.699Z</time></trkpt><trkpt lat="38.2048372" lon="15.9413428"><ele>1233.0</ele><time>2026-04-11T10:00:10.699Z</time></trkpt><trkpt lat="38.2047765" lon="15.9414374"><ele>1237.5</ele><time>2026-04-11T10:00:11.698Z</time></trkpt><trkpt lat="38.2047264" lon="15.9415367"><ele>1242.0</ele><time>2026-04-11T10:00:12.699Z</time></trkpt><trkpt lat="38.2046901" lon="15.9416471"><ele>1246.5</ele><time>2026-04-11T10:00:13.698Z</time></trkpt><trkpt lat="38.2046777" lon="15.9417564"><ele>1251.0</ele><time>2026-04-11T10:00:14.698Z</time></trkpt><trkpt lat="38.2046856" lon="15.9418453"><ele>1255.5</ele><time>2026-04-11T10:00:15.699Z</time></trkpt><trkpt lat="38.204726" lon="15.9419482"><ele>1260.0</ele><time>2026-04-11T10:00:16.699Z</time></trkpt><trkpt lat="38.2047691" lon="15.9420645"><ele>1259.4</ele><time>2026-04-11T10:00:17.698Z</time></trkpt><trkpt lat="38.2048031" lon="15.9421712"><ele>1258.8</ele><time>2026-04-11T10:00:18.698Z</time></trkpt><trkpt lat="38.2048387" lon="15.942285"><ele>1258.2</ele><time>2026-04-11T10:00:19.698Z</time></trkpt><trkpt lat="38.2048709" lon="15.9424045"><ele>1257.6</ele><time>2026-04-11T10:00:20.698Z</time></trkpt><trkpt lat="38.2049023" lon="15.9425183"><ele>1257.0</ele><time>2026-04-11T10:00:21.699Z</time></trkpt><trkpt lat="38.2049378" lon="15.9426223"><ele>1257.0000000000002</ele><time>2026-04-11T10:00:22.699Z</time></trkpt><trkpt lat="38.2049761" lon="15.9427155"><ele>1257.0</ele><time>2026-04-11T10:00:23.698Z</time></trkpt><trkpt lat="38.2050224" lon="15.9428006"><ele>1257.0</ele><time>2026-04-11T10:00:24.699Z</time></trkpt><trkpt lat="38.2050711" lon="15.9428756"><ele>1257.0</ele><time>2026-04-11T10:00:25.698Z</time></trkpt><trkpt lat="38.2051206" lon="15.9429368"><ele>1257.0</ele><time>2026-04-11T10:00:26.699Z</time></trkpt><trkpt lat="38.2051737" lon="15.9429846"><ele>1257.0000000000002</ele><time>2026-04-11T10:00:27.699Z</time></trkpt><trkpt lat="38.2052341" lon="15.9430148"><ele>1257.0</ele><time>2026-04-11T10:00:28.698Z</time></trkpt><trkpt lat="38.2053109" lon="15.9430367"><ele>1257.0</ele><time>2026-04-11T10:00:29.699Z</time></trkpt><trkpt lat="38.2053943" lon="15.9430551"><ele>1257.0</ele><time>2026-04-11T10:00:30.698Z</time></trkpt><trkpt lat="38.2055027" lon="15.9430756"><ele>1257.0</ele><time>2026-04-11T10:00:31.699Z</time></trkpt><trkpt lat="38.2056948" lon="15.9431061"><ele>1257.0</ele><time>2026-04-11T10:00:33.698Z</time></trkpt><trkpt lat="38.2057907" lon="15.9431148"><ele>1255.1666666666667</ele><time>2026-04-11T10:00:34.698Z</time></trkpt><trkpt lat="38.2058767" lon="15.9431316"><ele>1253.3333333333333</ele><time>2026-04-11T10:00:35.698Z</time></trkpt><trkpt lat="38.2059628" lon="15.9431432"><ele>1251.5</ele><time>2026-04-11T10:00:36.698Z</time></trkpt><trkpt lat="38.2060427" lon="15.9431533"><ele>1249.6666666666665</ele><time>2026-04-11T10:00:37.698Z</time></trkpt><trkpt lat="38.2061238" lon="15.9431722"><ele>1247.8333333333333</ele><time>2026-04-11T10:00:38.698Z</time></trkpt><trkpt lat="38.2062152" lon="15.9431917"><ele>1246.0</ele><time>2026-04-11T10:00:39.698Z</time></trkpt><trkpt lat="38.2063043" lon="15.9431993"><ele>1246.0</ele><time>2026-04-11T10:00:40.698Z</time></trkpt><trkpt lat="38.2063913" lon="15.943207"><ele>1246.0</ele><time>2026-04-11T10:00:41.698Z</time></trkpt><trkpt lat="38.2064669" lon="15.9432014"><ele>1246.0</ele><time>2026-04-11T10:00:42.698Z</time></trkpt><trkpt lat="38.2065433" lon="15.9431968"><ele>1246.0</ele><time>2026-04-11T10:00:43.698Z</time></trkpt><trkpt lat="38.2066213" lon="15.9431956"><ele>1246.0</ele><time>2026-04-11T10:00:44.698Z</time></trkpt><trkpt lat="38.2067052" lon="15.9431931"><ele>1246.0</ele><time>2026-04-11T10:00:45.698Z</time></trkpt><trkpt lat="38.2067905" lon="15.9432021"><ele>1244.6666666666665</ele><time>2026-04-11T10:00:46.698Z</time></trkpt><trkpt lat="38.2068786" lon="15.943203"><ele>1243.3333333333333</ele><time>2026-04-11T10:00:47.698Z</time></trkpt><trkpt lat="38.2069722" lon="15.9431991"><ele>1242.0</ele><time>2026-04-11T10:00:48.698Z</time></trkpt><trkpt lat="38.2070645" lon="15.943196"><ele>1240.6666666666667</ele><time>2026-04-11T10:00:49.699Z</time></trkpt><trkpt lat="38.2071514" lon="15.9431982"><ele>1239.3333333333335</ele><time>2026-04-11T10:00:50.699Z</time></trkpt><trkpt lat="38.2072354" lon="15.9432183"><ele>1238.0</ele><time>2026-04-11T10:00:51.698Z</time></trkpt><trkpt lat="38.2073186" lon="15.9432541"><ele>1236.1666666666667</ele><time>2026-04-11T10:00:52.698Z</time></trkpt><trkpt lat="38.2074056" lon="15.9432964"><ele>1234.3333333333335</ele><time>2026-04-11T10:00:53.699Z</time></trkpt><trkpt lat="38.2074696" lon="15.9433663"><ele>1232.5</ele><time>2026-04-11T10:00:54.699Z</time></trkpt><trkpt lat="38.2075156" lon="15.9434577"><ele>1230.6666666666667</ele><time>2026-04-11T10:00:55.698Z</time></trkpt><trkpt lat="38.2075272" lon="15.943573"><ele>1228.8333333333333</ele><time>2026-04-11T10:00:56.698Z</time></trkpt><trkpt lat="38.2075223" lon="15.9436875"><ele>1227.0</ele><time>2026-04-11T10:00:57.698Z</time></trkpt><trkpt lat="38.2074964" lon="15.943809"><ele>1225.0</ele><time>2026-04-11T10:00:58.699Z</time></trkpt><trkpt lat="38.20746" lon="15.943926"><ele>1223.0</ele><time>2026-04-11T10:00:59.698Z</time></trkpt><trkpt lat="38.2074038" lon="15.9440448"><ele>1221.0</ele><time>2026-04-11T10:01:00.699Z</time></trkpt><trkpt lat="38.2073299" lon="15.9441544"><ele>1219.0</ele><time>2026-04-11T10:01:01.698Z</time></trkpt><trkpt lat="38.2072298" lon="15.9442687"><ele>1218.25</ele><time>2026-04-11T10:01:02.698Z</time></trkpt><trkpt lat="38.2071129" lon="15.9443634"><ele>1217.5</ele><time>2026-04-11T10:01:03.698Z</time></trkpt><trkpt lat="38.2069975" lon="15.9444337"><ele>1216.75</ele><time>2026-04-11T10:01:04.698Z</time></trkpt><trkpt lat="38.2068893" lon="15.9444826"><ele>1216.0</ele><time>2026-04-11T10:01:05.699Z</time></trkpt><trkpt lat="38.2067899" lon="15.9445079"><ele>1216.0</ele><time>2026-04-11T10:01:06.698Z</time></trkpt><trkpt lat="38.2066829" lon="15.944501"><ele>1216.0</ele><time>2026-04-11T10:01:07.699Z</time></trkpt><trkpt lat="38.2065754" lon="15.9444913"><ele>1216.0</ele><time>2026-04-11T10:01:08.698Z</time></trkpt><trkpt lat="38.2064672" lon="15.9444961"><ele>1216.0</ele><time>2026-04-11T10:01:09.698Z</time></trkpt><trkpt lat="38.2063726" lon="15.9445214"><ele>1216.0</ele><time>2026-04-11T10:01:10.698Z</time></trkpt><trkpt lat="38.2062833" lon="15.9445846"><ele>1217.6</ele><time>2026-04-11T10:01:11.699Z</time></trkpt><trkpt lat="38.2061916" lon="15.9446696"><ele>1219.1999999999998</ele><time>2026-04-11T10:01:12.698Z</time></trkpt><trkpt lat="38.206095" lon="15.9447494"><ele>1220.8000000000002</ele><time>2026-04-11T10:01:13.699Z</time></trkpt><trkpt lat="38.2060016" lon="15.9448114"><ele>1222.4</ele><time>2026-04-11T10:01:14.698Z</time></trkpt><trkpt lat="38.205912" lon="15.9448622"><ele>1224.0</ele><time>2026-04-11T10:01:15.698Z</time></trkpt><trkpt lat="38.2058277" lon="15.9448965"><ele>1224.0</ele><time>2026-04-11T10:01:16.698Z</time></trkpt><trkpt lat="38.205757" lon="15.944975"><ele>1224.0</ele><time>2026-04-11T10:01:17.698Z</time></trkpt><trkpt lat="38.2057073" lon="15.9450674"><ele>1224.0</ele><time>2026-04-11T10:01:18.698Z</time></trkpt><trkpt lat="38.2056824" lon="15.9451611"><ele>1224.0</ele><time>2026-04-11T10:01:19.698Z</time></trkpt><trkpt lat="38.2056893" lon="15.9452484"><ele>1224.0</ele><time>2026-04-11T10:01:20.698Z</time></trkpt><trkpt lat="38.205738" lon="15.9453196"><ele>1224.0</ele><time>2026-04-11T10:01:21.698Z</time></trkpt><trkpt lat="38.2058138" lon="15.9453821"><ele>1225.0</ele><time>2026-04-11T10:01:22.698Z</time></trkpt><trkpt lat="38.2058828" lon="15.9454439"><ele>1226.0</ele><time>2026-04-11T10:01:23.698Z</time></trkpt><trkpt lat="38.2059558" lon="15.9455064"><ele>1227.0</ele><time>2026-04-11T10:01:24.699Z</time></trkpt><trkpt lat="38.2060301" lon="15.9455742"><ele>1228.0</ele><time>2026-04-11T10:01:25.699Z</time></trkpt><trkpt lat="38.206109" lon="15.9456386"><ele>1229.0</ele><time>2026-04-11T10:01:26.699Z</time></trkpt><trkpt lat="38.20619" lon="15.9456899"><ele>1230.0</ele><time>2026-04-11T10:01:27.698Z</time></trkpt><trkpt lat="38.2062713" lon="15.9457298"><ele>1230.0</ele><time>2026-04-11T10:01:28.698Z</time></trkpt><trkpt lat="38.2063551" lon="15.9457529"><ele>1230.0</ele><time>2026-04-11T10:01:29.698Z</time></trkpt><trkpt lat="38.2064385" lon="15.9457694"><ele>1230.0</ele><time>2026-04-11T10:01:30.699Z</time></trkpt><trkpt lat="38.2065262" lon="15.945779"><ele>1230.0</ele><time>2026-04-11T10:01:31.698Z</time></trkpt><trkpt lat="38.2066124" lon="15.9457882"><ele>1230.0</ele><time>2026-04-11T10:01:32.698Z</time></trkpt><trkpt lat="38.206698" lon="15.9458009"><ele>1230.0</ele><time>2026-04-11T10:01:33.698Z</time></trkpt><trkpt lat="38.2067848" lon="15.9458219"><ele>1229.0</ele><time>2026-04-11T10:01:34.698Z</time></trkpt><trkpt lat="38.2068697" lon="15.9458522"><ele>1228.0</ele><time>2026-04-11T10:01:35.698Z</time></trkpt><trkpt lat="38.2069616" lon="15.9458888"><ele>1227.0</ele><time>2026-04-11T10:01:36.698Z</time></trkpt><trkpt lat="38.2070529" lon="15.9459332"><ele>1226.0</ele><time>2026-04-11T10:01:37.698Z</time></trkpt><trkpt lat="38.2071431" lon="15.9459881"><ele>1225.0</ele><time>2026-04-11T10:01:38.698Z</time></trkpt><trkpt lat="38.207237" lon="15.9460509"><ele>1226.5</ele><time>2026-04-11T10:01:39.699Z</time></trkpt><trkpt lat="38.2073295" lon="15.9461234"><ele>1228.0</ele><time>2026-04-11T10:01:40.698Z</time></trkpt><trkpt lat="38.2074241" lon="15.9462038"><ele>1229.5</ele><time>2026-04-11T10:01:41.699Z</time></trkpt><trkpt lat="38.2075195" lon="15.946291"><ele>1231.0</ele><time>2026-04-11T10:01:42.698Z</time></trkpt><trkpt lat="38.2076137" lon="15.9463886"><ele>1231.0</ele><time>2026-04-11T10:01:43.699Z</time></trkpt><trkpt lat="38.2077062" lon="15.9464981"><ele>1231.0</ele><time>2026-04-11T10:01:44.699Z</time></trkpt><trkpt lat="38.2077976" lon="15.9466139"><ele>1231.0</ele><time>2026-04-11T10:01:45.699Z</time></trkpt><trkpt lat="38.2078739" lon="15.9467404"><ele>1231.0</ele><time>2026-04-11T10:01:46.698Z</time></trkpt><trkpt lat="38.2079371" lon="15.9468619"><ele>1231.0</ele><time>2026-04-11T10:01:47.698Z</time></trkpt><trkpt lat="38.2079865" lon="15.9469768"><ele>1231.0</ele><time>2026-04-11T10:01:48.698Z</time></trkpt><trkpt lat="38.208029" lon="15.9470747"><ele>1231.0</ele><time>2026-04-11T10:01:49.699Z</time></trkpt><trkpt lat="38.2080552" lon="15.9471761"><ele>1231.0</ele><time>2026-04-11T10:01:50.699Z</time></trkpt><trkpt lat="38.2080639" lon="15.9472802"><ele>1231.0</ele><time>2026-04-11T10:01:51.699Z</time></trkpt><trkpt lat="38.2080528" lon="15.9473952"><ele>1231.0</ele><time>2026-04-11T10:01:52.699Z</time></trkpt><trkpt lat="38.2080224" lon="15.9475195"><ele>1230.75</ele><time>2026-04-11T10:01:53.698Z</time></trkpt><trkpt lat="38.2079591" lon="15.9476624"><ele>1230.5</ele><time>2026-04-11T10:01:54.698Z</time></trkpt><trkpt lat="38.2078859" lon="15.947814"><ele>1230.25</ele><time>2026-04-11T10:01:55.698Z</time></trkpt><trkpt lat="38.2078181" lon="15.9479599"><ele>1230.0</ele><time>2026-04-11T10:01:56.698Z</time></trkpt><trkpt lat="38.2077422" lon="15.9481053"><ele>1230.0</ele><time>2026-04-11T10:01:57.698Z</time></trkpt><trkpt lat="38.2076693" lon="15.9482502"><ele>1230.0</ele><time>2026-04-11T10:01:58.698Z</time></trkpt><trkpt lat="38.2075993" lon="15.9483984"><ele>1230.0</ele><time>2026-04-11T10:01:59.698Z</time></trkpt><trkpt lat="38.2075452" lon="15.9485441"><ele>1230.0</ele><time>2026-04-11T10:02:00.699Z</time></trkpt><trkpt lat="38.2075041" lon="15.9487056"><ele>1230.25</ele><time>2026-04-11T10:02:01.698Z</time></trkpt><trkpt lat="38.2074775" lon="15.9488684"><ele>1230.5</ele><time>2026-04-11T10:02:02.698Z</time></trkpt><trkpt lat="38.2074526" lon="15.9490514"><ele>1230.75</ele><time>2026-04-11T10:02:03.698Z</time></trkpt><trkpt lat="38.2074248" lon="15.9492453"><ele>1231.0</ele><time>2026-04-11T10:02:04.698Z</time></trkpt><trkpt lat="38.2073985" lon="15.9494415"><ele>1231.0</ele><time>2026-04-11T10:02:05.699Z</time></trkpt><trkpt lat="38.20738" lon="15.9496387"><ele>1231.0</ele><time>2026-04-11T10:02:06.698Z</time></trkpt><trkpt lat="38.2073649" lon="15.9498335"><ele>1231.0</ele><time>2026-04-11T10:02:07.699Z</time></trkpt><trkpt lat="38.2073461" lon="15.9500285"><ele>1232.6666666666665</ele><time>2026-04-11T10:02:08.698Z</time></trkpt><trkpt lat="38.2073256" lon="15.95022"><ele>1234.3333333333333</ele><time>2026-04-11T10:02:09.699Z</time></trkpt><trkpt lat="38.2073017" lon="15.9504146"><ele>1236.0</ele><time>2026-04-11T10:02:10.698Z</time></trkpt><trkpt lat="38.2072768" lon="15.9506122"><ele>1236.0</ele><time>2026-04-11T10:02:11.698Z</time></trkpt><trkpt lat="38.2072294" lon="15.9508213"><ele>1236.0</ele><time>2026-04-11T10:02:12.699Z</time></trkpt><trkpt lat="38.2071956" lon="15.9510209"><ele>1236.0</ele><time>2026-04-11T10:02:13.698Z</time></trkpt><trkpt lat="38.207172" lon="15.9512036"><ele>1237.0</ele><time>2026-04-11T10:02:14.699Z</time></trkpt><trkpt lat="38.2071419" lon="15.9513848"><ele>1238.0</ele><time>2026-04-11T10:02:15.698Z</time></trkpt><trkpt lat="38.2070998" lon="15.9515549"><ele>1239.0</ele><time>2026-04-11T10:02:16.698Z</time></trkpt><trkpt lat="38.2070556" lon="15.9517216"><ele>1240.0</ele><time>2026-04-11T10:02:17.698Z</time></trkpt><trkpt lat="38.2070171" lon="15.951889"><ele>1240.0</ele><time>2026-04-11T10:02:18.699Z</time></trkpt><trkpt lat="38.2069756" lon="15.9520559"><ele>1240.0</ele><time>2026-04-11T10:02:19.698Z</time></trkpt><trkpt lat="38.2069304" lon="15.9522225"><ele>1240.0</ele><time>2026-04-11T10:02:20.698Z</time></trkpt><trkpt lat="38.2068831" lon="15.9523842"><ele>1240.0</ele><time>2026-04-11T10:02:21.698Z</time></trkpt><trkpt lat="38.2068311" lon="15.9525534"><ele>1241.0</ele><time>2026-04-11T10:02:22.699Z</time></trkpt><trkpt lat="38.2067814" lon="15.9527261"><ele>1242.0</ele><time>2026-04-11T10:02:23.698Z</time></trkpt><trkpt lat="38.2067289" lon="15.9528995"><ele>1243.0</ele><time>2026-04-11T10:02:24.698Z</time></trkpt><trkpt lat="38.2066733" lon="15.9530707"><ele>1244.0</ele><time>2026-04-11T10:02:25.699Z</time></trkpt><trkpt lat="38.2066262" lon="15.9532426"><ele>1244.75</ele><time>2026-04-11T10:02:26.698Z</time></trkpt><trkpt lat="38.2065844" lon="15.9534105"><ele>1245.5</ele><time>2026-04-11T10:02:27.698Z</time></trkpt><trkpt lat="38.2065548" lon="15.9535726"><ele>1246.25</ele><time>2026-04-11T10:02:28.699Z</time></trkpt><trkpt lat="38.2065394" lon="15.9537241"><ele>1247.0</ele><time>2026-04-11T10:02:29.698Z</time></trkpt><trkpt lat="38.2065291" lon="15.9538799"><ele>1247.0</ele><time>2026-04-11T10:02:30.699Z</time></trkpt><trkpt lat="38.2065326" lon="15.9540418"><ele>1247.0</ele><time>2026-04-11T10:02:31.698Z</time></trkpt><trkpt lat="38.2065562" lon="15.9542111"><ele>1247.0</ele><time>2026-04-11T10:02:32.698Z</time></trkpt><trkpt lat="38.2065881" lon="15.9543801"><ele>1247.0</ele><time>2026-04-11T10:02:33.699Z</time></trkpt><trkpt lat="38.2066221" lon="15.9545612"><ele>1246.6666666666667</ele><time>2026-04-11T10:02:34.699Z</time></trkpt><trkpt lat="38.2066586" lon="15.9547538"><ele>1246.3333333333333</ele><time>2026-04-11T10:02:35.698Z</time></trkpt><trkpt lat="38.206698" lon="15.9549518"><ele>1246.0</ele><time>2026-04-11T10:02:36.698Z</time></trkpt><trkpt lat="38.2067379" lon="15.955147"><ele>1247.6666666666665</ele><time>2026-04-11T10:02:37.698Z</time></trkpt><trkpt lat="38.2067868" lon="15.9553337"><ele>1249.3333333333333</ele><time>2026-04-11T10:02:38.699Z</time></trkpt><trkpt lat="38.2068456" lon="15.9555201"><ele>1251.0</ele><time>2026-04-11T10:02:39.699Z</time></trkpt><trkpt lat="38.2069146" lon="15.9557068"><ele>1251.3333333333333</ele><time>2026-04-11T10:02:40.698Z</time></trkpt><trkpt lat="38.2069866" lon="15.9558841"><ele>1251.6666666666665</ele><time>2026-04-11T10:02:41.698Z</time></trkpt><trkpt lat="38.2070641" lon="15.956057"><ele>1252.0</ele><time>2026-04-11T10:02:42.698Z</time></trkpt><trkpt lat="38.2071344" lon="15.956237"><ele>1252.0</ele><time>2026-04-11T10:02:43.698Z</time></trkpt><trkpt lat="38.2071978" lon="15.9564111"><ele>1252.0</ele><time>2026-04-11T10:02:44.698Z</time></trkpt><trkpt lat="38.2072591" lon="15.9565748"><ele>1252.0</ele><time>2026-04-11T10:02:45.698Z</time></trkpt><trkpt lat="38.2073186" lon="15.9567305"><ele>1252.0</ele><time>2026-04-11T10:02:46.698Z</time></trkpt><trkpt lat="38.2073768" lon="15.9568869"><ele>1250.0</ele><time>2026-04-11T10:02:47.699Z</time></trkpt><trkpt lat="38.2074266" lon="15.9570379"><ele>1248.0</ele><time>2026-04-11T10:02:48.698Z</time></trkpt><trkpt lat="38.2074619" lon="15.9571747"><ele>1246.0</ele><time>2026-04-11T10:02:49.699Z</time></trkpt><trkpt lat="38.2074662" lon="15.9573071"><ele>1244.0</ele><time>2026-04-11T10:02:50.699Z</time></trkpt><trkpt lat="38.2074454" lon="15.9574248"><ele>1242.0</ele><time>2026-04-11T10:02:51.699Z</time></trkpt><trkpt lat="38.2074007" lon="15.9575209"><ele>1240.8</ele><time>2026-04-11T10:02:52.698Z</time></trkpt><trkpt lat="38.2073295" lon="15.9575934"><ele>1239.6</ele><time>2026-04-11T10:02:53.698Z</time></trkpt><trkpt lat="38.2072439" lon="15.9576445"><ele>1238.3999999999999</ele><time>2026-04-11T10:02:54.698Z</time></trkpt><trkpt lat="38.2071402" lon="15.9576789"><ele>1237.2</ele><time>2026-04-11T10:02:55.698Z</time></trkpt><trkpt lat="38.207025" lon="15.9576918"><ele>1236.0</ele><time>2026-04-11T10:02:56.698Z</time></trkpt><trkpt lat="38.2068847" lon="15.9576694"><ele>1236.0</ele><time>2026-04-11T10:02:57.698Z</time></trkpt><trkpt lat="38.2067374" lon="15.9576337"><ele>1236.0</ele><time>2026-04-11T10:02:58.699Z</time></trkpt><trkpt lat="38.2066019" lon="15.957607"><ele>1236.0</ele><time>2026-04-11T10:02:59.698Z</time></trkpt><trkpt lat="38.2064743" lon="15.9575894"><ele>1236.0</ele><time>2026-04-11T10:03:00.698Z</time></trkpt><trkpt lat="38.2063508" lon="15.9575849"><ele>1239.0</ele><time>2026-04-11T10:03:01.699Z</time></trkpt><trkpt lat="38.2062299" lon="15.957594"><ele>1242.0</ele><time>2026-04-11T10:03:02.698Z</time></trkpt><trkpt lat="38.2061037" lon="15.9576225"><ele>1245.0</ele><time>2026-04-11T10:03:03.699Z</time></trkpt><trkpt lat="38.2059825" lon="15.9576654"><ele>1248.0</ele><time>2026-04-11T10:03:04.698Z</time></trkpt><trkpt lat="38.2058687" lon="15.9577203"><ele>1248.0</ele><time>2026-04-11T10:03:05.699Z</time></trkpt><trkpt lat="38.2057668" lon="15.9577796"><ele>1248.0</ele><time>2026-04-11T10:03:06.698Z</time></trkpt><trkpt lat="38.2056845" lon="15.9578394"><ele>1248.0</ele><time>2026-04-11T10:03:07.699Z</time></trkpt><trkpt lat="38.205619" lon="15.9578967"><ele>1248.0</ele><time>2026-04-11T10:03:08.699Z</time></trkpt><trkpt lat="38.2055688" lon="15.9579592"><ele>1248.0</ele><time>2026-04-11T10:03:09.698Z</time></trkpt><trkpt lat="38.2055344" lon="15.9580353"><ele>1248.0</ele><time>2026-04-11T10:03:10.698Z</time></trkpt><trkpt lat="38.2055117" lon="15.9581275"><ele>1250.2</ele><time>2026-04-11T10:03:11.698Z</time></trkpt><trkpt lat="38.2055153" lon="15.9582291"><ele>1252.4</ele><time>2026-04-11T10:03:12.698Z</time></trkpt><trkpt lat="38.2055472" lon="15.9583319"><ele>1254.6000000000001</ele><time>2026-04-11T10:03:13.699Z</time></trkpt><trkpt lat="38.2056183" lon="15.958414"><ele>1256.8</ele><time>2026-04-11T10:03:14.698Z</time></trkpt><trkpt lat="38.2056957" lon="15.9584882"><ele>1259.0</ele><time>2026-04-11T10:03:15.698Z</time></trkpt><trkpt lat="38.2057983" lon="15.958537"><ele>1260.5</ele><time>2026-04-11T10:03:16.699Z</time></trkpt><trkpt lat="38.2059292" lon="15.9585649"><ele>1262.0</ele><time>2026-04-11T10:03:17.698Z</time></trkpt><trkpt lat="38.2060614" lon="15.9585859"><ele>1263.5</ele><time>2026-04-11T10:03:18.698Z</time></trkpt><trkpt lat="38.206182" lon="15.958621"><ele>1265.0</ele><time>2026-04-11T10:03:19.698Z</time></trkpt><trkpt lat="38.2063002" lon="15.9586762"><ele>1265.0</ele><time>2026-04-11T10:03:20.699Z</time></trkpt><trkpt lat="38.2064067" lon="15.958738"><ele>1265.0</ele><time>2026-04-11T10:03:21.698Z</time></trkpt><trkpt lat="38.2064973" lon="15.958814"><ele>1265.0</ele><time>2026-04-11T10:03:22.698Z</time></trkpt><trkpt lat="38.2065632" lon="15.958901"><ele>1265.0</ele><time>2026-04-11T10:03:23.698Z</time></trkpt><trkpt lat="38.2066043" lon="15.9589965"><ele>1265.0</ele><time>2026-04-11T10:03:24.699Z</time></trkpt><trkpt lat="38.2066246" lon="15.9591101"><ele>1261.8</ele><time>2026-04-11T10:03:25.698Z</time></trkpt><trkpt lat="38.2066215" lon="15.959239"><ele>1258.6</ele><time>2026-04-11T10:03:26.699Z</time></trkpt><trkpt lat="38.2066052" lon="15.95938"><ele>1255.4</ele><time>2026-04-11T10:03:27.698Z</time></trkpt><trkpt lat="38.2065774" lon="15.9595179"><ele>1252.2</ele><time>2026-04-11T10:03:28.699Z</time></trkpt><trkpt lat="38.2065583" lon="15.9596472"><ele>1249.0</ele><time>2026-04-11T10:03:29.699Z</time></trkpt><trkpt lat="38.2065455" lon="15.9597586"><ele>1249.0</ele><time>2026-04-11T10:03:30.698Z</time></trkpt><trkpt lat="38.2065507" lon="15.9598598"><ele>1249.0</ele><time>2026-04-11T10:03:31.699Z</time></trkpt><trkpt lat="38.2065759" lon="15.9599519"><ele>1249.0</ele><time>2026-04-11T10:03:32.699Z</time></trkpt><trkpt lat="38.2066369" lon="15.9600277"><ele>1249.0</ele><time>2026-04-11T10:03:33.698Z</time></trkpt><trkpt lat="38.206743" lon="15.9600873"><ele>1249.0</ele><time>2026-04-11T10:03:34.698Z</time></trkpt><trkpt lat="38.206892" lon="15.9601354"><ele>1250.0</ele><time>2026-04-11T10:03:35.698Z</time></trkpt><trkpt lat="38.207061" lon="15.960187"><ele>1251.0</ele><time>2026-04-11T10:03:36.698Z</time></trkpt><trkpt lat="38.2072279" lon="15.9602592"><ele>1252.0</ele><time>2026-04-11T10:03:37.698Z</time></trkpt><trkpt lat="38.2073869" lon="15.9603414"><ele>1249.5</ele><time>2026-04-11T10:03:38.698Z</time></trkpt><trkpt lat="38.2075341" lon="15.9604234"><ele>1247.0</ele><time>2026-04-11T10:03:39.698Z</time></trkpt><trkpt lat="38.2076619" lon="15.9604972"><ele>1244.5</ele><time>2026-04-11T10:03:40.698Z</time></trkpt><trkpt lat="38.2077627" lon="15.9605773"><ele>1242.0</ele><time>2026-04-11T10:03:41.698Z</time></trkpt><trkpt lat="38.2078425" lon="15.9606701"><ele>1242.0</ele><time>2026-04-11T10:03:42.698Z</time></trkpt><trkpt lat="38.2079048" lon="15.9607813"><ele>1242.0</ele><time>2026-04-11T10:03:43.698Z</time></trkpt><trkpt lat="38.2079547" lon="15.9609227"><ele>1242.0</ele><time>2026-04-11T10:03:44.698Z</time></trkpt><trkpt lat="38.2080076" lon="15.9610762"><ele>1242.0</ele><time>2026-04-11T10:03:45.698Z</time></trkpt><trkpt lat="38.2080406" lon="15.9612318"><ele>1240.0</ele><time>2026-04-11T10:03:46.698Z</time></trkpt><trkpt lat="38.2080547" lon="15.9613698"><ele>1238.0</ele><time>2026-04-11T10:03:47.698Z</time></trkpt><trkpt lat="38.2080592" lon="15.961481"><ele>1236.0</ele><time>2026-04-11T10:03:48.699Z</time></trkpt><trkpt lat="38.2080529" lon="15.9615754"><ele>1234.0</ele><time>2026-04-11T10:03:49.698Z</time></trkpt><trkpt lat="38.2080204" lon="15.9616776"><ele>1232.0</ele><time>2026-04-11T10:03:50.698Z</time></trkpt><trkpt lat="38.2079682" lon="15.9617962"><ele>1230.0</ele><time>2026-04-11T10:03:51.698Z</time></trkpt><trkpt lat="38.2078877" lon="15.961919"><ele>1228.0</ele><time>2026-04-11T10:03:52.699Z</time></trkpt><trkpt lat="38.2078085" lon="15.9620328"><ele>1226.0</ele><time>2026-04-11T10:03:53.698Z</time></trkpt><trkpt lat="38.2077474" lon="15.9621289"><ele>1224.0</ele><time>2026-04-11T10:03:54.698Z</time></trkpt><trkpt lat="38.2077086" lon="15.9622224"><ele>1222.0</ele><time>2026-04-11T10:03:55.699Z</time></trkpt><trkpt lat="38.2076901" lon="15.9623212"><ele>1222.0</ele><time>2026-04-11T10:03:56.698Z</time></trkpt><trkpt lat="38.2077006" lon="15.9624141"><ele>1222.0</ele><time>2026-04-11T10:03:57.698Z</time></trkpt><trkpt lat="38.207741" lon="15.9624944"><ele>1222.0</ele><time>2026-04-11T10:03:58.698Z</time></trkpt><trkpt lat="38.2077993" lon="15.9625554"><ele>1222.0</ele><time>2026-04-11T10:03:59.698Z</time></trkpt><trkpt lat="38.2078787" lon="15.9625961"><ele>1222.0</ele><time>2026-04-11T10:04:00.698Z</time></trkpt><trkpt lat="38.2079793" lon="15.9626153"><ele>1222.0</ele><time>2026-04-11T10:04:01.699Z</time></trkpt><trkpt lat="38.2080913" lon="15.9626139"><ele>1221.0</ele><time>2026-04-11T10:04:02.699Z</time></trkpt><trkpt lat="38.2082194" lon="15.9625769"><ele>1220.0</ele><time>2026-04-11T10:04:03.699Z</time></trkpt><trkpt lat="38.2083643" lon="15.9624965"><ele>1219.0</ele><time>2026-04-11T10:04:04.698Z</time></trkpt><trkpt lat="38.2085022" lon="15.9624231"><ele>1218.0</ele><time>2026-04-11T10:04:05.699Z</time></trkpt><trkpt lat="38.2086314" lon="15.9623606"><ele>1217.8</ele><time>2026-04-11T10:04:06.699Z</time></trkpt><trkpt lat="38.2087521" lon="15.9623231"><ele>1217.6</ele><time>2026-04-11T10:04:07.699Z</time></trkpt><trkpt lat="38.2088563" lon="15.9623126"><ele>1217.4</ele><time>2026-04-11T10:04:08.698Z</time></trkpt><trkpt lat="38.2089428" lon="15.9623256"><ele>1217.2</ele><time>2026-04-11T10:04:09.698Z</time></trkpt><trkpt lat="38.2090044" lon="15.9623787"><ele>1217.0</ele><time>2026-04-11T10:04:10.699Z</time></trkpt><trkpt lat="38.2090416" lon="15.9625154"><ele>1217.25</ele><time>2026-04-11T10:04:12.699Z</time></trkpt><trkpt lat="38.2089382" lon="15.9626459"><ele>1217.5</ele><time>2026-04-11T10:04:14.698Z</time></trkpt><trkpt lat="38.208831" lon="15.9627023"><ele>1217.75</ele><time>2026-04-11T10:04:15.699Z</time></trkpt><trkpt lat="38.2086952" lon="15.962749"><ele>1218.0</ele><time>2026-04-11T10:04:16.698Z</time></trkpt><trkpt lat="38.2085532" lon="15.9627873"><ele>1218.0</ele><time>2026-04-11T10:04:17.698Z</time></trkpt><trkpt lat="38.2084187" lon="15.9628173"><ele>1218.0</ele><time>2026-04-11T10:04:18.698Z</time></trkpt><trkpt lat="38.2082771" lon="15.96286"><ele>1218.0</ele><time>2026-04-11T10:04:19.698Z</time></trkpt><trkpt lat="38.2081505" lon="15.9629009"><ele>1218.0</ele><time>2026-04-11T10:04:20.699Z</time></trkpt><trkpt lat="38.2080069" lon="15.9629555"><ele>1217.75</ele><time>2026-04-11T10:04:21.699Z</time></trkpt><trkpt lat="38.2078657" lon="15.9630088"><ele>1217.5</ele><time>2026-04-11T10:04:22.699Z</time></trkpt><trkpt lat="38.2077313" lon="15.9630618"><ele>1217.25</ele><time>2026-04-11T10:04:23.698Z</time></trkpt><trkpt lat="38.2075901" lon="15.9631137"><ele>1217.0</ele><time>2026-04-11T10:04:24.698Z</time></trkpt><trkpt lat="38.2074535" lon="15.9631593"><ele>1219.0</ele><time>2026-04-11T10:04:25.698Z</time></trkpt><trkpt lat="38.2073219" lon="15.9632013"><ele>1221.0</ele><time>2026-04-11T10:04:26.698Z</time></trkpt><trkpt lat="38.2071822" lon="15.9632457"><ele>1223.0</ele><time>2026-04-11T10:04:27.699Z</time></trkpt><trkpt lat="38.2070496" lon="15.9632801"><ele>1225.0</ele><time>2026-04-11T10:04:28.699Z</time></trkpt><trkpt lat="38.2069279" lon="15.9633139"><ele>1225.0</ele><time>2026-04-11T10:04:29.698Z</time></trkpt><trkpt lat="38.2068105" lon="15.9633353"><ele>1225.0</ele><time>2026-04-11T10:04:30.698Z</time></trkpt><trkpt lat="38.2067014" lon="15.9633521"><ele>1225.0</ele><time>2026-04-11T10:04:31.698Z</time></trkpt><trkpt lat="38.2065962" lon="15.9633746"><ele>1225.0</ele><time>2026-04-11T10:04:32.699Z</time></trkpt><trkpt lat="38.2065019" lon="15.9634167"><ele>1225.0</ele><time>2026-04-11T10:04:33.698Z</time></trkpt><trkpt lat="38.2064153" lon="15.9634838"><ele>1229.5</ele><time>2026-04-11T10:04:34.699Z</time></trkpt><trkpt lat="38.2063294" lon="15.9635832"><ele>1234.0</ele><time>2026-04-11T10:04:35.699Z</time></trkpt><trkpt lat="38.2062533" lon="15.963695"><ele>1238.5</ele><time>2026-04-11T10:04:36.698Z</time></trkpt><trkpt lat="38.2061808" lon="15.9638258"><ele>1243.0</ele><time>2026-04-11T10:04:37.698Z</time></trkpt><trkpt lat="38.2061268" lon="15.9639624"><ele>1243.0</ele><time>2026-04-11T10:04:38.698Z</time></trkpt><trkpt lat="38.2060944" lon="15.9641046"><ele>1243.0</ele><time>2026-04-11T10:04:39.699Z</time></trkpt><trkpt lat="38.2060697" lon="15.9642405"><ele>1243.0</ele><time>2026-04-11T10:04:40.699Z</time></trkpt><trkpt lat="38.2060588" lon="15.9643661"><ele>1243.0</ele><time>2026-04-11T10:04:41.698Z</time></trkpt><trkpt lat="38.2060545" lon="15.9644778"><ele>1243.0</ele><time>2026-04-11T10:04:42.698Z</time></trkpt><trkpt lat="38.2060851" lon="15.9645664"><ele>1243.1666666666665</ele><time>2026-04-11T10:04:43.698Z</time></trkpt><trkpt lat="38.2061415" lon="15.964633"><ele>1243.3333333333333</ele><time>2026-04-11T10:04:44.699Z</time></trkpt><trkpt lat="38.2061964" lon="15.9646839"><ele>1243.5</ele><time>2026-04-11T10:04:45.699Z</time></trkpt><trkpt lat="38.2062568" lon="15.9647102"><ele>1243.6666666666667</ele><time>2026-04-11T10:04:46.698Z</time></trkpt><trkpt lat="38.206332" lon="15.96471"><ele>1243.8333333333335</ele><time>2026-04-11T10:04:47.698Z</time></trkpt><trkpt lat="38.2064154" lon="15.9646726"><ele>1244.0</ele><time>2026-04-11T10:04:48.698Z</time></trkpt><trkpt lat="38.2065073" lon="15.9646293"><ele>1241.0</ele><time>2026-04-11T10:04:49.699Z</time></trkpt><trkpt lat="38.2065957" lon="15.9646007"><ele>1238.0</ele><time>2026-04-11T10:04:50.699Z</time></trkpt><trkpt lat="38.2066808" lon="15.9646023"><ele>1235.0</ele><time>2026-04-11T10:04:51.699Z</time></trkpt><trkpt lat="38.2067506" lon="15.9646492"><ele>1232.0</ele><time>2026-04-11T10:04:52.698Z</time></trkpt><trkpt lat="38.2067961" lon="15.964727"><ele>1229.0</ele><time>2026-04-11T10:04:53.698Z</time></trkpt><trkpt lat="38.2068106" lon="15.9648241"><ele>1226.0</ele><time>2026-04-11T10:04:54.698Z</time></trkpt><trkpt lat="38.2068024" lon="15.9649332"><ele>1227.2</ele><time>2026-04-11T10:04:55.698Z</time></trkpt><trkpt lat="38.2067871" lon="15.9650575"><ele>1228.3999999999999</ele><time>2026-04-11T10:04:56.698Z</time></trkpt><trkpt lat="38.2067739" lon="15.9651855"><ele>1229.6</ele><time>2026-04-11T10:04:57.698Z</time></trkpt><trkpt lat="38.2067809" lon="15.9653084"><ele>1230.8</ele><time>2026-04-11T10:04:58.698Z</time></trkpt><trkpt lat="38.2068001" lon="15.9654329"><ele>1232.0</ele><time>2026-04-11T10:04:59.699Z</time></trkpt><trkpt lat="38.206824" lon="15.9655509"><ele>1232.0</ele><time>2026-04-11T10:05:00.698Z</time></trkpt><trkpt lat="38.2068455" lon="15.9656556"><ele>1232.0</ele><time>2026-04-11T10:05:01.698Z</time></trkpt><trkpt lat="38.2068438" lon="15.9657601"><ele>1232.0</ele><time>2026-04-11T10:05:02.698Z</time></trkpt><trkpt lat="38.2068133" lon="15.9658585"><ele>1232.0</ele><time>2026-04-11T10:05:03.699Z</time></trkpt><trkpt lat="38.2067589" lon="15.9659498"><ele>1232.0</ele><time>2026-04-11T10:05:04.699Z</time></trkpt><trkpt lat="38.2066783" lon="15.9660277"><ele>1232.0</ele><time>2026-04-11T10:05:05.699Z</time></trkpt><trkpt lat="38.2066133" lon="15.966109"><ele>1233.3333333333335</ele><time>2026-04-11T10:05:06.699Z</time></trkpt><trkpt lat="38.2065576" lon="15.9661905"><ele>1234.6666666666667</ele><time>2026-04-11T10:05:07.698Z</time></trkpt><trkpt lat="38.2065018" lon="15.9662688"><ele>1236.0</ele><time>2026-04-11T10:05:08.699Z</time></trkpt><trkpt lat="38.2064495" lon="15.9663659"><ele>1237.3333333333333</ele><time>2026-04-11T10:05:09.698Z</time></trkpt><trkpt lat="38.2063958" lon="15.9664516"><ele>1238.6666666666665</ele><time>2026-04-11T10:05:10.699Z</time></trkpt><trkpt lat="38.2063431" lon="15.9665197"><ele>1240.0</ele><time>2026-04-11T10:05:11.698Z</time></trkpt><trkpt lat="38.2062799" lon="15.9665701"><ele>1240.0</ele><time>2026-04-11T10:05:12.698Z</time></trkpt><trkpt lat="38.2062001" lon="15.9666149"><ele>1240.0</ele><time>2026-04-11T10:05:13.699Z</time></trkpt><trkpt lat="38.2061074" lon="15.9666488"><ele>1240.0</ele><time>2026-04-11T10:05:14.698Z</time></trkpt><trkpt lat="38.2060031" lon="15.9666946"><ele>1240.0</ele><time>2026-04-11T10:05:15.698Z</time></trkpt><trkpt lat="38.2059048" lon="15.9667454"><ele>1240.0</ele><time>2026-04-11T10:05:16.698Z</time></trkpt><trkpt lat="38.2058189" lon="15.9667935"><ele>1237.2</ele><time>2026-04-11T10:05:17.698Z</time></trkpt><trkpt lat="38.2057376" lon="15.9668585"><ele>1234.4</ele><time>2026-04-11T10:05:18.699Z</time></trkpt><trkpt lat="38.2056698" lon="15.9669512"><ele>1231.6</ele><time>2026-04-11T10:05:19.698Z</time></trkpt><trkpt lat="38.2056036" lon="15.9670678"><ele>1228.8</ele><time>2026-04-11T10:05:20.698Z</time></trkpt><trkpt lat="38.2055349" lon="15.9671782"><ele>1226.0</ele><time>2026-04-11T10:05:21.698Z</time></trkpt><trkpt lat="38.2054643" lon="15.967296"><ele>1234.0</ele><time>2026-04-11T10:05:22.698Z</time></trkpt><trkpt lat="38.2053963" lon="15.9674025"><ele>1242.0</ele><time>2026-04-11T10:05:23.698Z</time></trkpt><trkpt lat="38.2053304" lon="15.9675031"><ele>1250.0</ele><time>2026-04-11T10:05:24.699Z</time></trkpt><trkpt lat="38.2052746" lon="15.9676008"><ele>1258.0</ele><time>2026-04-11T10:05:25.698Z</time></trkpt><trkpt lat="38.205234" lon="15.9676947"><ele>1266.0</ele><time>2026-04-11T10:05:26.698Z</time></trkpt><trkpt lat="38.2052137" lon="15.9677792"><ele>1266.2</ele><time>2026-04-11T10:05:27.699Z</time></trkpt><trkpt lat="38.2052423" lon="15.9679315"><ele>1266.3999999999999</ele><time>2026-04-11T10:05:29.698Z</time></trkpt><trkpt lat="38.2053126" lon="15.9679915"><ele>1266.6</ele><time>2026-04-11T10:05:30.699Z</time></trkpt><trkpt lat="38.2053956" lon="15.9680247"><ele>1266.8</ele><time>2026-04-11T10:05:31.699Z</time></trkpt><trkpt lat="38.2054814" lon="15.9680179"><ele>1267.0</ele><time>2026-04-11T10:05:32.699Z</time></trkpt><trkpt lat="38.2055638" lon="15.9679832"><ele>1267.0</ele><time>2026-04-11T10:05:33.698Z</time></trkpt><trkpt lat="38.2056459" lon="15.9679397"><ele>1267.0</ele><time>2026-04-11T10:05:34.699Z</time></trkpt><trkpt lat="38.2057287" lon="15.9679113"><ele>1267.0</ele><time>2026-04-11T10:05:35.698Z</time></trkpt><trkpt lat="38.2058166" lon="15.9679003"><ele>1267.0</ele><time>2026-04-11T10:05:36.698Z</time></trkpt><trkpt lat="38.2059143" lon="15.9679128"><ele>1267.0</ele><time>2026-04-11T10:05:37.699Z</time></trkpt><trkpt lat="38.2060067" lon="15.9679601"><ele>1264.4</ele><time>2026-04-11T10:05:38.699Z</time></trkpt><trkpt lat="38.2060808" lon="15.9680217"><ele>1261.8000000000002</ele><time>2026-04-11T10:05:39.699Z</time></trkpt><trkpt lat="38.2061391" lon="15.9681181"><ele>1259.2</ele><time>2026-04-11T10:05:40.698Z</time></trkpt><trkpt lat="38.2061892" lon="15.9682331"><ele>1256.6000000000001</ele><time>2026-04-11T10:05:41.698Z</time></trkpt><trkpt lat="38.2062271" lon="15.9683553"><ele>1254.0</ele><time>2026-04-11T10:05:42.699Z</time></trkpt><trkpt lat="38.2062428" lon="15.9684972"><ele>1254.0</ele><time>2026-04-11T10:05:43.699Z</time></trkpt><trkpt lat="38.2062607" lon="15.9686298"><ele>1254.0</ele><time>2026-04-11T10:05:44.698Z</time></trkpt><trkpt lat="38.2062707" lon="15.9687576"><ele>1254.0</ele><time>2026-04-11T10:05:45.698Z</time></trkpt><trkpt lat="38.2062668" lon="15.9688834"><ele>1254.0</ele><time>2026-04-11T10:05:46.698Z</time></trkpt><trkpt lat="38.2062448" lon="15.9690112"><ele>1254.0</ele><time>2026-04-11T10:05:47.698Z</time></trkpt><trkpt lat="38.2062125" lon="15.9691352"><ele>1254.2</ele><time>2026-04-11T10:05:48.699Z</time></trkpt><trkpt lat="38.2061758" lon="15.9692441"><ele>1254.4</ele><time>2026-04-11T10:05:49.698Z</time></trkpt><trkpt lat="38.2061339" lon="15.9693402"><ele>1254.6</ele><time>2026-04-11T10:05:50.699Z</time></trkpt><trkpt lat="38.2060921" lon="15.9694184"><ele>1254.8</ele><time>2026-04-11T10:05:51.698Z</time></trkpt><trkpt lat="38.2060491" lon="15.969533"><ele>1255.0</ele><time>2026-04-11T10:05:53.699Z</time></trkpt><trkpt lat="38.2060975" lon="15.9696501"><ele>1255.0</ele><time>2026-04-11T10:05:55.698Z</time></trkpt><trkpt lat="38.2061515" lon="15.969705"><ele>1255.0</ele><time>2026-04-11T10:05:56.699Z</time></trkpt><trkpt lat="38.2062138" lon="15.969747"><ele>1255.0</ele><time>2026-04-11T10:05:57.699Z</time></trkpt><trkpt lat="38.2062799" lon="15.9697664"><ele>1255.0</ele><time>2026-04-11T10:05:58.699Z</time></trkpt><trkpt lat="38.2063477" lon="15.9697668"><ele>1255.0</ele><time>2026-04-11T10:05:59.699Z</time></trkpt><trkpt lat="38.206417" lon="15.9697439"><ele>1255.0</ele><time>2026-04-11T10:06:00.698Z</time></trkpt><trkpt lat="38.2064916" lon="15.9697025"><ele>1255.0</ele><time>2026-04-11T10:06:01.699Z</time></trkpt><trkpt lat="38.2065803" lon="15.9696348"><ele>1254.75</ele><time>2026-04-11T10:06:02.698Z</time></trkpt><trkpt lat="38.2066785" lon="15.9695469"><ele>1254.5</ele><time>2026-04-11T10:06:03.699Z</time></trkpt><trkpt lat="38.2067834" lon="15.96946"><ele>1254.25</ele><time>2026-04-11T10:06:04.698Z</time></trkpt><trkpt lat="38.2068988" lon="15.9693827"><ele>1254.0</ele><time>2026-04-11T10:06:05.698Z</time></trkpt><trkpt lat="38.2070176" lon="15.9693096"><ele>1254.0</ele><time>2026-04-11T10:06:06.699Z</time></trkpt><trkpt lat="38.2071338" lon="15.9692393"><ele>1254.0</ele><time>2026-04-11T10:06:07.698Z</time></trkpt><trkpt lat="38.2072449" lon="15.9691579"><ele>1254.0</ele><time>2026-04-11T10:06:08.698Z</time></trkpt><trkpt lat="38.2073335" lon="15.9690522"><ele>1254.0</ele><time>2026-04-11T10:06:09.699Z</time></trkpt><trkpt lat="38.2074029" lon="15.9689171"><ele>1252.25</ele><time>2026-04-11T10:06:10.699Z</time></trkpt><trkpt lat="38.2074506" lon="15.9687646"><ele>1250.5</ele><time>2026-04-11T10:06:11.699Z</time></trkpt><trkpt lat="38.2074674" lon="15.9686036"><ele>1248.75</ele><time>2026-04-11T10:06:12.698Z</time></trkpt><trkpt lat="38.2075063" lon="15.9684712"><ele>1247.0</ele><time>2026-04-11T10:06:13.698Z</time></trkpt><trkpt lat="38.2075503" lon="15.9683665"><ele>1243.2</ele><time>2026-04-11T10:06:14.698Z</time></trkpt><trkpt lat="38.2076011" lon="15.968288"><ele>1239.4</ele><time>2026-04-11T10:06:15.698Z</time></trkpt><trkpt lat="38.2076775" lon="15.9682374"><ele>1235.6</ele><time>2026-04-11T10:06:16.698Z</time></trkpt><trkpt lat="38.2077685" lon="15.968211"><ele>1231.8</ele><time>2026-04-11T10:06:17.698Z</time></trkpt><trkpt lat="38.2078699" lon="15.9682181"><ele>1228.0</ele><time>2026-04-11T10:06:18.699Z</time></trkpt><trkpt lat="38.2079732" lon="15.9682566"><ele>1228.0</ele><time>2026-04-11T10:06:19.698Z</time></trkpt><trkpt lat="38.2080688" lon="15.9683107"><ele>1228.0</ele><time>2026-04-11T10:06:20.698Z</time></trkpt><trkpt lat="38.2081625" lon="15.9683704"><ele>1228.0</ele><time>2026-04-11T10:06:21.699Z</time></trkpt><trkpt lat="38.2082581" lon="15.9684257"><ele>1228.0</ele><time>2026-04-11T10:06:22.699Z</time></trkpt><trkpt lat="38.208359" lon="15.9684934"><ele>1228.0</ele><time>2026-04-11T10:06:23.698Z</time></trkpt><trkpt lat="38.2084629" lon="15.9685675"><ele>1234.0</ele><time>2026-04-11T10:06:24.698Z</time></trkpt><trkpt lat="38.2085645" lon="15.9686391"><ele>1240.0</ele><time>2026-04-11T10:06:25.699Z</time></trkpt><trkpt lat="38.2086603" lon="15.9687286"><ele>1246.0</ele><time>2026-04-11T10:06:26.698Z</time></trkpt><trkpt lat="38.2087464" lon="15.9688469"><ele>1252.0</ele><time>2026-04-11T10:06:27.699Z</time></trkpt><trkpt lat="38.2088342" lon="15.9689669"><ele>1252.0</ele><time>2026-04-11T10:06:28.698Z</time></trkpt><trkpt lat="38.2089128" lon="15.9690946"><ele>1252.0</ele><time>2026-04-11T10:06:29.699Z</time></trkpt><trkpt lat="38.2089818" lon="15.9692201"><ele>1252.0</ele><time>2026-04-11T10:06:30.698Z</time></trkpt><trkpt lat="38.2090385" lon="15.9693372"><ele>1252.0</ele><time>2026-04-11T10:06:31.699Z</time></trkpt><trkpt lat="38.2090874" lon="15.9694481"><ele>1250.4</ele><time>2026-04-11T10:06:32.699Z</time></trkpt><trkpt lat="38.2091236" lon="15.9695547"><ele>1248.8000000000002</ele><time>2026-04-11T10:06:33.699Z</time></trkpt><trkpt lat="38.2091504" lon="15.9696786"><ele>1247.2</ele><time>2026-04-11T10:06:34.699Z</time></trkpt><trkpt lat="38.2091766" lon="15.9698128"><ele>1245.6000000000001</ele><time>2026-04-11T10:06:35.699Z</time></trkpt><trkpt lat="38.2091953" lon="15.969943"><ele>1244.0</ele><time>2026-04-11T10:06:36.698Z</time></trkpt><trkpt lat="38.2091972" lon="15.9700806"><ele>1244.0</ele><time>2026-04-11T10:06:37.698Z</time></trkpt><trkpt lat="38.2091824" lon="15.9702286"><ele>1244.0</ele><time>2026-04-11T10:06:38.699Z</time></trkpt><trkpt lat="38.2091577" lon="15.9703744"><ele>1244.0</ele><time>2026-04-11T10:06:39.699Z</time></trkpt><trkpt lat="38.2091351" lon="15.970519"><ele>1244.0</ele><time>2026-04-11T10:06:40.699Z</time></trkpt><trkpt lat="38.2091112" lon="15.9706565"><ele>1244.0</ele><time>2026-04-11T10:06:41.698Z</time></trkpt><trkpt lat="38.2090874" lon="15.9707873"><ele>1244.0</ele><time>2026-04-11T10:06:42.699Z</time></trkpt><trkpt lat="38.2090703" lon="15.9709062"><ele>1244.0</ele><time>2026-04-11T10:06:43.698Z</time></trkpt><trkpt lat="38.2090571" lon="15.9710116"><ele>1244.0</ele><time>2026-04-11T10:06:44.699Z</time></trkpt><trkpt lat="38.2090573" lon="15.9711041"><ele>1244.0</ele><time>2026-04-11T10:06:45.699Z</time></trkpt><trkpt lat="38.2090711" lon="15.9711874"><ele>1244.0</ele><time>2026-04-11T10:06:46.699Z</time></trkpt><trkpt lat="38.2091027" lon="15.9712731"><ele>1244.8</ele><time>2026-04-11T10:06:47.699Z</time></trkpt><trkpt lat="38.2091516" lon="15.971359"><ele>1245.6000000000001</ele><time>2026-04-11T10:06:48.698Z</time></trkpt><trkpt lat="38.2092111" lon="15.9714501"><ele>1246.4</ele><time>2026-04-11T10:06:49.698Z</time></trkpt><trkpt lat="38.209271" lon="15.9715527"><ele>1247.2</ele><time>2026-04-11T10:06:50.698Z</time></trkpt><trkpt lat="38.2093466" lon="15.9716582"><ele>1248.0</ele><time>2026-04-11T10:06:51.699Z</time></trkpt><trkpt lat="38.209424" lon="15.9717648"><ele>1249.4</ele><time>2026-04-11T10:06:52.698Z</time></trkpt><trkpt lat="38.2094996" lon="15.9718715"><ele>1250.8</ele><time>2026-04-11T10:06:53.698Z</time></trkpt><trkpt lat="38.2095728" lon="15.9719767"><ele>1252.2</ele><time>2026-04-11T10:06:54.699Z</time></trkpt><trkpt lat="38.2096406" lon="15.9720761"><ele>1253.6</ele><time>2026-04-11T10:06:55.698Z</time></trkpt><trkpt lat="38.2096992" lon="15.9721686"><ele>1255.0</ele><time>2026-04-11T10:06:56.698Z</time></trkpt><trkpt lat="38.2097539" lon="15.9722596"><ele>1255.0</ele><time>2026-04-11T10:06:57.699Z</time></trkpt><trkpt lat="38.2097938" lon="15.9723533"><ele>1255.0</ele><time>2026-04-11T10:06:58.698Z</time></trkpt><trkpt lat="38.2098219" lon="15.9724463"><ele>1255.0</ele><time>2026-04-11T10:06:59.698Z</time></trkpt><trkpt lat="38.2098398" lon="15.9725357"><ele>1255.0</ele><time>2026-04-11T10:07:00.698Z</time></trkpt><trkpt lat="38.2098512" lon="15.972633"><ele>1255.0</ele><time>2026-04-11T10:07:01.699Z</time></trkpt><trkpt lat="38.2098541" lon="15.9727336"><ele>1255.0</ele><time>2026-04-11T10:07:02.699Z</time></trkpt><trkpt lat="38.2098369" lon="15.9728326"><ele>1254.8</ele><time>2026-04-11T10:07:03.698Z</time></trkpt><trkpt lat="38.2098021" lon="15.9729297"><ele>1254.6</ele><time>2026-04-11T10:07:04.698Z</time></trkpt><trkpt lat="38.2097378" lon="15.9730249"><ele>1254.4</ele><time>2026-04-11T10:07:05.699Z</time></trkpt><trkpt lat="38.2096765" lon="15.9730977"><ele>1254.2</ele><time>2026-04-11T10:07:06.699Z</time></trkpt><trkpt lat="38.2096242" lon="15.9731643"><ele>1254.0</ele><time>2026-04-11T10:07:07.699Z</time></trkpt><trkpt lat="38.2095587" lon="15.9732811"><ele>1255.2</ele><time>2026-04-11T10:07:09.699Z</time></trkpt><trkpt lat="38.2095605" lon="15.9734106"><ele>1256.4</ele><time>2026-04-11T10:07:11.699Z</time></trkpt><trkpt lat="38.2095984" lon="15.9735747"><ele>1257.6</ele><time>2026-04-11T10:07:13.698Z</time></trkpt><trkpt lat="38.20962" lon="15.9736739"><ele>1258.8</ele><time>2026-04-11T10:07:14.699Z</time></trkpt><trkpt lat="38.2096363" lon="15.9737786"><ele>1260.0</ele><time>2026-04-11T10:07:15.698Z</time></trkpt><trkpt lat="38.2096512" lon="15.9738844"><ele>1260.0</ele><time>2026-04-11T10:07:16.698Z</time></trkpt><trkpt lat="38.2096775" lon="15.9740027"><ele>1260.0</ele><time>2026-04-11T10:07:17.698Z</time></trkpt><trkpt lat="38.2097096" lon="15.9741276"><ele>1260.0</ele><time>2026-04-11T10:07:18.698Z</time></trkpt><trkpt lat="38.209741" lon="15.9742529"><ele>1260.0</ele><time>2026-04-11T10:07:19.698Z</time></trkpt><trkpt lat="38.2097866" lon="15.9743801"><ele>1260.0</ele><time>2026-04-11T10:07:20.698Z</time></trkpt><trkpt lat="38.2098441" lon="15.9745016"><ele>1256.5</ele><time>2026-04-11T10:07:21.698Z</time></trkpt><trkpt lat="38.2099134" lon="15.9746128"><ele>1253.0</ele><time>2026-04-11T10:07:22.699Z</time></trkpt><trkpt lat="38.2099969" lon="15.9747161"><ele>1249.5</ele><time>2026-04-11T10:07:23.699Z</time></trkpt><trkpt lat="38.2100763" lon="15.9748247"><ele>1246.0</ele><time>2026-04-11T10:07:24.699Z</time></trkpt><trkpt lat="38.210156" lon="15.9749313"><ele>1245.1666666666665</ele><time>2026-04-11T10:07:25.699Z</time></trkpt><trkpt lat="38.2102282" lon="15.9750322"><ele>1244.3333333333333</ele><time>2026-04-11T10:07:26.699Z</time></trkpt><trkpt lat="38.2102914" lon="15.9751267"><ele>1243.5</ele><time>2026-04-11T10:07:27.698Z</time></trkpt><trkpt lat="38.2103348" lon="15.9752097"><ele>1242.6666666666667</ele><time>2026-04-11T10:07:28.698Z</time></trkpt><trkpt lat="38.2103516" lon="15.9752969"><ele>1241.8333333333335</ele><time>2026-04-11T10:07:29.699Z</time></trkpt><trkpt lat="38.2103501" lon="15.9753872"><ele>1241.0</ele><time>2026-04-11T10:07:30.698Z</time></trkpt><trkpt lat="38.210324" lon="15.9754798"><ele>1241.0</ele><time>2026-04-11T10:07:31.698Z</time></trkpt><trkpt lat="38.2102703" lon="15.9755777"><ele>1241.0</ele><time>2026-04-11T10:07:32.698Z</time></trkpt><trkpt lat="38.2102097" lon="15.9756788"><ele>1241.0</ele><time>2026-04-11T10:07:33.698Z</time></trkpt><trkpt lat="38.2101332" lon="15.975795"><ele>1241.0</ele><time>2026-04-11T10:07:34.698Z</time></trkpt><trkpt lat="38.2100515" lon="15.9759237"><ele>1241.0</ele><time>2026-04-11T10:07:35.698Z</time></trkpt><trkpt lat="38.2099848" lon="15.9760487"><ele>1240.2</ele><time>2026-04-11T10:07:36.699Z</time></trkpt><trkpt lat="38.2099358" lon="15.9761634"><ele>1239.3999999999999</ele><time>2026-04-11T10:07:37.699Z</time></trkpt><trkpt lat="38.2098993" lon="15.9762738"><ele>1238.6</ele><time>2026-04-11T10:07:38.699Z</time></trkpt><trkpt lat="38.2098834" lon="15.976383"><ele>1237.8</ele><time>2026-04-11T10:07:39.699Z</time></trkpt><trkpt lat="38.2098928" lon="15.9764927"><ele>1237.0</ele><time>2026-04-11T10:07:40.699Z</time></trkpt><trkpt lat="38.2099334" lon="15.9766017"><ele>1239.5</ele><time>2026-04-11T10:07:41.699Z</time></trkpt><trkpt lat="38.2099992" lon="15.9767013"><ele>1242.0</ele><time>2026-04-11T10:07:42.699Z</time></trkpt><trkpt lat="38.2100817" lon="15.9768033"><ele>1244.5</ele><time>2026-04-11T10:07:43.698Z</time></trkpt><trkpt lat="38.2101858" lon="15.976902"><ele>1247.0</ele><time>2026-04-11T10:07:44.698Z</time></trkpt><trkpt lat="38.210303" lon="15.9770121"><ele>1247.0</ele><time>2026-04-11T10:07:45.698Z</time></trkpt><trkpt lat="38.2104278" lon="15.9771324"><ele>1247.0</ele><time>2026-04-11T10:07:46.699Z</time></trkpt><trkpt lat="38.210553" lon="15.977253"><ele>1247.0</ele><time>2026-04-11T10:07:47.698Z</time></trkpt><trkpt lat="38.2106693" lon="15.9773757"><ele>1243.0</ele><time>2026-04-11T10:07:48.698Z</time></trkpt><trkpt lat="38.2107772" lon="15.9774896"><ele>1239.0</ele><time>2026-04-11T10:07:49.698Z</time></trkpt><trkpt lat="38.210882" lon="15.9775895"><ele>1235.0</ele><time>2026-04-11T10:07:50.698Z</time></trkpt><trkpt lat="38.2109671" lon="15.9776881"><ele>1231.0</ele><time>2026-04-11T10:07:51.698Z</time></trkpt><trkpt lat="38.2110362" lon="15.9777839"><ele>1231.0</ele><time>2026-04-11T10:07:52.699Z</time></trkpt><trkpt lat="38.2110924" lon="15.977896"><ele>1231.0</ele><time>2026-04-11T10:07:53.698Z</time></trkpt><trkpt lat="38.2111293" lon="15.9780283"><ele>1231.0</ele><time>2026-04-11T10:07:54.698Z</time></trkpt><trkpt lat="38.2111636" lon="15.9781796"><ele>1231.0</ele><time>2026-04-11T10:07:55.699Z</time></trkpt><trkpt lat="38.2112059" lon="15.9783341"><ele>1232.25</ele><time>2026-04-11T10:07:56.698Z</time></trkpt><trkpt lat="38.2112568" lon="15.9784893"><ele>1233.5</ele><time>2026-04-11T10:07:57.699Z</time></trkpt><trkpt lat="38.211318" lon="15.9786398"><ele>1234.75</ele><time>2026-04-11T10:07:58.698Z</time></trkpt><trkpt lat="38.2113908" lon="15.9787801"><ele>1236.0</ele><time>2026-04-11T10:07:59.698Z</time></trkpt><trkpt lat="38.2114776" lon="15.9789087"><ele>1236.2</ele><time>2026-04-11T10:08:00.699Z</time></trkpt><trkpt lat="38.2115584" lon="15.9790377"><ele>1236.3999999999999</ele><time>2026-04-11T10:08:01.698Z</time></trkpt><trkpt lat="38.2116304" lon="15.9791566"><ele>1236.6</ele><time>2026-04-11T10:08:02.699Z</time></trkpt><trkpt lat="38.211702" lon="15.9792594"><ele>1236.8</ele><time>2026-04-11T10:08:03.698Z</time></trkpt><trkpt lat="38.2117683" lon="15.9793435"><ele>1237.0</ele><time>2026-04-11T10:08:04.698Z</time></trkpt><trkpt lat="38.2118336" lon="15.9794101"><ele>1237.0</ele><time>2026-04-11T10:08:05.699Z</time></trkpt><trkpt lat="38.2119026" lon="15.9794606"><ele>1237.0</ele><time>2026-04-11T10:08:06.698Z</time></trkpt><trkpt lat="38.2119791" lon="15.9795106"><ele>1237.0</ele><time>2026-04-11T10:08:07.698Z</time></trkpt><trkpt lat="38.2120671" lon="15.9795599"><ele>1237.0</ele><time>2026-04-11T10:08:08.699Z</time></trkpt><trkpt lat="38.2121593" lon="15.9796162"><ele>1237.0</ele><time>2026-04-11T10:08:09.699Z</time></trkpt><trkpt lat="38.2122633" lon="15.9796773"><ele>1235.0</ele><time>2026-04-11T10:08:10.698Z</time></trkpt><trkpt lat="38.2123686" lon="15.9797361"><ele>1233.0</ele><time>2026-04-11T10:08:11.699Z</time></trkpt><trkpt lat="38.2124658" lon="15.9797984"><ele>1231.0</ele><time>2026-04-11T10:08:12.699Z</time></trkpt><trkpt lat="38.2125538" lon="15.9798661"><ele>1229.0</ele><time>2026-04-11T10:08:13.699Z</time></trkpt><trkpt lat="38.2126279" lon="15.9799356"><ele>1227.0</ele><time>2026-04-11T10:08:14.699Z</time></trkpt><trkpt lat="38.2126846" lon="15.980019"><ele>1227.0</ele><time>2026-04-11T10:08:15.699Z</time></trkpt><trkpt lat="38.2127215" lon="15.9801111"><ele>1227.0</ele><time>2026-04-11T10:08:16.698Z</time></trkpt><trkpt lat="38.212748" lon="15.9802132"><ele>1227.0</ele><time>2026-04-11T10:08:17.698Z</time></trkpt><trkpt lat="38.2127663" lon="15.9803241"><ele>1227.0</ele><time>2026-04-11T10:08:18.699Z</time></trkpt><trkpt lat="38.2127766" lon="15.9804468"><ele>1227.0</ele><time>2026-04-11T10:08:19.699Z</time></trkpt><trkpt lat="38.2127783" lon="15.9805867"><ele>1227.0</ele><time>2026-04-11T10:08:20.698Z</time></trkpt><trkpt lat="38.2127866" lon="15.9807299"><ele>1227.0</ele><time>2026-04-11T10:08:21.698Z</time></trkpt><trkpt lat="38.2128131" lon="15.9808665"><ele>1227.0</ele><time>2026-04-11T10:08:22.698Z</time></trkpt><trkpt lat="38.2128571" lon="15.9810001"><ele>1227.0</ele><time>2026-04-11T10:08:23.699Z</time></trkpt><trkpt lat="38.2129075" lon="15.9811364"><ele>1225.6</ele><time>2026-04-11T10:08:24.699Z</time></trkpt><trkpt lat="38.212968" lon="15.9812771"><ele>1224.2</ele><time>2026-04-11T10:08:25.699Z</time></trkpt><trkpt lat="38.2130252" lon="15.9814103"><ele>1222.8</ele><time>2026-04-11T10:08:26.698Z</time></trkpt><trkpt lat="38.2130716" lon="15.9815368"><ele>1221.4</ele><time>2026-04-11T10:08:27.699Z</time></trkpt><trkpt lat="38.2131052" lon="15.9816459"><ele>1220.0</ele><time>2026-04-11T10:08:28.698Z</time></trkpt><trkpt lat="38.2131268" lon="15.9817479"><ele>1218.5</ele><time>2026-04-11T10:08:29.698Z</time></trkpt><trkpt lat="38.2131279" lon="15.9818435"><ele>1217.0</ele><time>2026-04-11T10:08:30.699Z</time></trkpt><trkpt lat="38.2131121" lon="15.9819286"><ele>1215.5</ele><time>2026-04-11T10:08:31.698Z</time></trkpt><trkpt lat="38.2130694" lon="15.9820033"><ele>1214.0</ele><time>2026-04-11T10:08:32.698Z</time></trkpt><trkpt lat="38.2129972" lon="15.9820512"><ele>1212.5</ele><time>2026-04-11T10:08:33.698Z</time></trkpt><trkpt lat="38.2128889" lon="15.9820685"><ele>1211.0</ele><time>2026-04-11T10:08:34.698Z</time></trkpt><trkpt lat="38.2127667" lon="15.982089"><ele>1211.0</ele><time>2026-04-11T10:08:35.698Z</time></trkpt><trkpt lat="38.2126551" lon="15.9821323"><ele>1211.0</ele><time>2026-04-11T10:08:36.698Z</time></trkpt><trkpt lat="38.2125674" lon="15.9821903"><ele>1211.0</ele><time>2026-04-11T10:08:37.699Z</time></trkpt><trkpt lat="38.2125073" lon="15.9822672"><ele>1211.0</ele><time>2026-04-11T10:08:38.699Z</time></trkpt><trkpt lat="38.2124737" lon="15.982376"><ele>1211.0</ele><time>2026-04-11T10:08:39.698Z</time></trkpt><trkpt lat="38.2124583" lon="15.9824924"><ele>1212.8</ele><time>2026-04-11T10:08:40.699Z</time></trkpt><trkpt lat="38.2124715" lon="15.9826045"><ele>1214.6</ele><time>2026-04-11T10:08:41.698Z</time></trkpt><trkpt lat="38.2125076" lon="15.9827238"><ele>1216.4</ele><time>2026-04-11T10:08:42.699Z</time></trkpt><trkpt lat="38.2125855" lon="15.9828442"><ele>1218.2</ele><time>2026-04-11T10:08:43.699Z</time></trkpt><trkpt lat="38.2126805" lon="15.982959"><ele>1220.0</ele><time>2026-04-11T10:08:44.698Z</time></trkpt><trkpt lat="38.2127722" lon="15.9830813"><ele>1220.0</ele><time>2026-04-11T10:08:45.699Z</time></trkpt><trkpt lat="38.2128637" lon="15.9831973"><ele>1220.0</ele><time>2026-04-11T10:08:46.698Z</time></trkpt><trkpt lat="38.2129435" lon="15.9833138"><ele>1220.0</ele><time>2026-04-11T10:08:47.698Z</time></trkpt><trkpt lat="38.2130104" lon="15.9834288"><ele>1220.0</ele><time>2026-04-11T10:08:48.698Z</time></trkpt><trkpt lat="38.2130566" lon="15.9835362"><ele>1221.0</ele><time>2026-04-11T10:08:49.698Z</time></trkpt><trkpt lat="38.2130744" lon="15.9836342"><ele>1222.0</ele><time>2026-04-11T10:08:50.698Z</time></trkpt><trkpt lat="38.2130795" lon="15.9837306"><ele>1223.0</ele><time>2026-04-11T10:08:51.698Z</time></trkpt><trkpt lat="38.213067" lon="15.9838282"><ele>1224.0</ele><time>2026-04-11T10:08:52.698Z</time></trkpt><trkpt lat="38.2130466" lon="15.9839423"><ele>1225.0</ele><time>2026-04-11T10:08:53.698Z</time></trkpt><trkpt lat="38.213032" lon="15.9840689"><ele>1226.0</ele><time>2026-04-11T10:08:54.698Z</time></trkpt><trkpt lat="38.21302" lon="15.9841988"><ele>1226.0</ele><time>2026-04-11T10:08:55.699Z</time></trkpt><trkpt lat="38.2129966" lon="15.9843331"><ele>1226.0</ele><time>2026-04-11T10:08:56.699Z</time></trkpt><trkpt lat="38.2129596" lon="15.9844608"><ele>1226.0</ele><time>2026-04-11T10:08:57.698Z</time></trkpt><trkpt lat="38.2129028" lon="15.9845849"><ele>1226.0</ele><time>2026-04-11T10:08:58.699Z</time></trkpt><trkpt lat="38.2128287" lon="15.9847099"><ele>1226.0</ele><time>2026-04-11T10:08:59.699Z</time></trkpt><trkpt lat="38.2127485" lon="15.9848263"><ele>1226.0</ele><time>2026-04-11T10:09:00.698Z</time></trkpt><trkpt lat="38.2126646" lon="15.9849346"><ele>1226.0</ele><time>2026-04-11T10:09:01.698Z</time></trkpt><trkpt lat="38.2125792" lon="15.9850304"><ele>1226.0</ele><time>2026-04-11T10:09:02.699Z</time></trkpt><trkpt lat="38.212498" lon="15.985116"><ele>1226.0</ele><time>2026-04-11T10:09:03.698Z</time></trkpt><trkpt lat="38.2124234" lon="15.9851965"><ele>1226.0</ele><time>2026-04-11T10:09:04.699Z</time></trkpt><trkpt lat="38.2123669" lon="15.9852778"><ele>1226.0</ele><time>2026-04-11T10:09:05.698Z</time></trkpt><trkpt lat="38.212338" lon="15.985364"><ele>1226.0</ele><time>2026-04-11T10:09:06.699Z</time></trkpt><trkpt lat="38.2123303" lon="15.985461"><ele>1226.0</ele><time>2026-04-11T10:09:07.699Z</time></trkpt><trkpt lat="38.2123389" lon="15.9855603"><ele>1226.0</ele><time>2026-04-11T10:09:08.698Z</time></trkpt><trkpt lat="38.2123576" lon="15.9856585"><ele>1226.0</ele><time>2026-04-11T10:09:09.698Z</time></trkpt><trkpt lat="38.2124265" lon="15.9857475"><ele>1226.0</ele><time>2026-04-11T10:09:10.698Z</time></trkpt><trkpt lat="38.212515" lon="15.9858161"><ele>1226.0</ele><time>2026-04-11T10:09:11.698Z</time></trkpt><trkpt lat="38.212605" lon="15.9858687"><ele>1226.0</ele><time>2026-04-11T10:09:12.698Z</time></trkpt><trkpt lat="38.2126887" lon="15.9858979"><ele>1226.0</ele><time>2026-04-11T10:09:13.698Z</time></trkpt><trkpt lat="38.2127727" lon="15.9859142"><ele>1229.3999999999999</ele><time>2026-04-11T10:09:14.698Z</time></trkpt><trkpt lat="38.2128578" lon="15.9859279"><ele>1232.8</ele><time>2026-04-11T10:09:15.699Z</time></trkpt><trkpt lat="38.2129567" lon="15.9859229"><ele>1236.1999999999998</ele><time>2026-04-11T10:09:16.698Z</time></trkpt><trkpt lat="38.2130584" lon="15.9859269"><ele>1239.6</ele><time>2026-04-11T10:09:17.698Z</time></trkpt><trkpt lat="38.2131625" lon="15.9859255"><ele>1243.0</ele><time>2026-04-11T10:09:18.698Z</time></trkpt><trkpt lat="38.2132644" lon="15.9859262"><ele>1243.0</ele><time>2026-04-11T10:09:19.699Z</time></trkpt><trkpt lat="38.2133718" lon="15.9859237"><ele>1243.0</ele><time>2026-04-11T10:09:20.698Z</time></trkpt><trkpt lat="38.2134879" lon="15.9859113"><ele>1243.0</ele><time>2026-04-11T10:09:21.698Z</time></trkpt><trkpt lat="38.2136059" lon="15.9858982"><ele>1243.0</ele><time>2026-04-11T10:09:22.699Z</time></trkpt><trkpt lat="38.2137099" lon="15.9859075"><ele>1243.0</ele><time>2026-04-11T10:09:23.699Z</time></trkpt><trkpt lat="38.2137869" lon="15.9859478"><ele>1243.0</ele><time>2026-04-11T10:09:24.698Z</time></trkpt><trkpt lat="38.2138464" lon="15.9860157"><ele>1243.0</ele><time>2026-04-11T10:09:25.699Z</time></trkpt><trkpt lat="38.2138951" lon="15.9861092"><ele>1243.0</ele><time>2026-04-11T10:09:26.699Z</time></trkpt><trkpt lat="38.213938" lon="15.9862226"><ele>1243.0</ele><time>2026-04-11T10:09:27.698Z</time></trkpt><trkpt lat="38.2139803" lon="15.9863518"><ele>1243.0</ele><time>2026-04-11T10:09:28.699Z</time></trkpt><trkpt lat="38.214025" lon="15.9864855"><ele>1241.0</ele><time>2026-04-11T10:09:29.699Z</time></trkpt><trkpt lat="38.2140654" lon="15.9866283"><ele>1239.0</ele><time>2026-04-11T10:09:30.699Z</time></trkpt><trkpt lat="38.2141035" lon="15.986771"><ele>1237.0</ele><time>2026-04-11T10:09:31.698Z</time></trkpt><trkpt lat="38.2141302" lon="15.9869193"><ele>1235.0</ele><time>2026-04-11T10:09:32.699Z</time></trkpt><trkpt lat="38.2141576" lon="15.9870666"><ele>1235.0</ele><time>2026-04-11T10:09:33.699Z</time></trkpt><trkpt lat="38.2141849" lon="15.9872192"><ele>1235.0</ele><time>2026-04-11T10:09:34.698Z</time></trkpt><trkpt lat="38.2142055" lon="15.9873732"><ele>1235.0</ele><time>2026-04-11T10:09:35.698Z</time></trkpt><trkpt lat="38.2142173" lon="15.9875209"><ele>1235.0</ele><time>2026-04-11T10:09:36.699Z</time></trkpt><trkpt lat="38.2142265" lon="15.9876701"><ele>1235.8</ele><time>2026-04-11T10:09:37.698Z</time></trkpt><trkpt lat="38.2142333" lon="15.9878147"><ele>1236.6</ele><time>2026-04-11T10:09:38.698Z</time></trkpt><trkpt lat="38.2142412" lon="15.9879531"><ele>1237.4</ele><time>2026-04-11T10:09:39.698Z</time></trkpt><trkpt lat="38.2142539" lon="15.9880873"><ele>1238.2</ele><time>2026-04-11T10:09:40.698Z</time></trkpt><trkpt lat="38.2142606" lon="15.9882162"><ele>1239.0</ele><time>2026-04-11T10:09:41.699Z</time></trkpt><trkpt lat="38.2142799" lon="15.9883259"><ele>1240.0</ele><time>2026-04-11T10:09:42.699Z</time></trkpt><trkpt lat="38.2143174" lon="15.9884279"><ele>1241.0</ele><time>2026-04-11T10:09:43.699Z</time></trkpt><trkpt lat="38.2143744" lon="15.9885291"><ele>1242.0</ele><time>2026-04-11T10:09:44.699Z</time></trkpt><trkpt lat="38.2144566" lon="15.9886344"><ele>1243.0</ele><time>2026-04-11T10:09:45.699Z</time></trkpt><trkpt lat="38.214563" lon="15.9887307"><ele>1244.0</ele><time>2026-04-11T10:09:46.698Z</time></trkpt><trkpt lat="38.2146917" lon="15.9888103"><ele>1239.6666666666667</ele><time>2026-04-11T10:09:47.699Z</time></trkpt><trkpt lat="38.2148431" lon="15.9888825"><ele>1235.3333333333333</ele><time>2026-04-11T10:09:48.698Z</time></trkpt><trkpt lat="38.215004" lon="15.9889399"><ele>1231.0</ele><time>2026-04-11T10:09:49.699Z</time></trkpt><trkpt lat="38.2151571" lon="15.9889969"><ele>1231.0</ele><time>2026-04-11T10:09:50.698Z</time></trkpt><trkpt lat="38.2153099" lon="15.9890637"><ele>1231.0</ele><time>2026-04-11T10:09:51.698Z</time></trkpt><trkpt lat="38.2154579" lon="15.9891402"><ele>1231.0</ele><time>2026-04-11T10:09:52.699Z</time></trkpt><trkpt lat="38.2155981" lon="15.9892159"><ele>1227.75</ele><time>2026-04-11T10:09:53.699Z</time></trkpt><trkpt lat="38.2157281" lon="15.9892864"><ele>1224.5</ele><time>2026-04-11T10:09:54.698Z</time></trkpt><trkpt lat="38.2158562" lon="15.9893574"><ele>1221.25</ele><time>2026-04-11T10:09:55.698Z</time></trkpt><trkpt lat="38.2159737" lon="15.9894258"><ele>1218.0</ele><time>2026-04-11T10:09:56.698Z</time></trkpt><trkpt lat="38.2160885" lon="15.9894971"><ele>1218.0</ele><time>2026-04-11T10:09:57.698Z</time></trkpt><trkpt lat="38.2161986" lon="15.989575"><ele>1218.0</ele><time>2026-04-11T10:09:58.699Z</time></trkpt><trkpt lat="38.2163035" lon="15.9896694"><ele>1218.0</ele><time>2026-04-11T10:09:59.699Z</time></trkpt><trkpt lat="38.2164043" lon="15.989766"><ele>1218.0</ele><time>2026-04-11T10:10:00.699Z</time></trkpt><trkpt lat="38.2164868" lon="15.9898542"><ele>1215.8333333333333</ele><time>2026-04-11T10:10:01.699Z</time></trkpt><trkpt lat="38.2165589" lon="15.9899128"><ele>1213.6666666666667</ele><time>2026-04-11T10:10:02.699Z</time></trkpt><trkpt lat="38.2166229" lon="15.9899501"><ele>1211.5</ele><time>2026-04-11T10:10:03.699Z</time></trkpt><trkpt lat="38.2166852" lon="15.9899694"><ele>1209.3333333333335</ele><time>2026-04-11T10:10:04.699Z</time></trkpt><trkpt lat="38.2168086" lon="15.9899395"><ele>1207.1666666666667</ele><time>2026-04-11T10:10:06.699Z</time></trkpt><trkpt lat="38.2168812" lon="15.9898924"><ele>1205.0</ele><time>2026-04-11T10:10:07.698Z</time></trkpt><trkpt lat="38.2169634" lon="15.9898275"><ele>1205.0</ele><time>2026-04-11T10:10:08.698Z</time></trkpt><trkpt lat="38.2170509" lon="15.9897627"><ele>1205.0</ele><time>2026-04-11T10:10:09.698Z</time></trkpt><trkpt lat="38.2171425" lon="15.9897023"><ele>1205.0</ele><time>2026-04-11T10:10:10.698Z</time></trkpt><trkpt lat="38.2172409" lon="15.989648"><ele>1205.0</ele><time>2026-04-11T10:10:11.698Z</time></trkpt><trkpt lat="38.217335" lon="15.989628"><ele>1205.0</ele><time>2026-04-11T10:10:12.698Z</time></trkpt><trkpt lat="38.2174141" lon="15.9896336"><ele>1203.3333333333335</ele><time>2026-04-11T10:10:13.698Z</time></trkpt><trkpt lat="38.2174776" lon="15.9896745"><ele>1201.6666666666667</ele><time>2026-04-11T10:10:14.698Z</time></trkpt><trkpt lat="38.2175247" lon="15.9897427"><ele>1200.0</ele><time>2026-04-11T10:10:15.699Z</time></trkpt><trkpt lat="38.2175361" lon="15.9898368"><ele>1198.3333333333333</ele><time>2026-04-11T10:10:16.698Z</time></trkpt><trkpt lat="38.217532" lon="15.9899385"><ele>1196.6666666666665</ele><time>2026-04-11T10:10:17.698Z</time></trkpt><trkpt lat="38.2175032" lon="15.9900421"><ele>1195.0</ele><time>2026-04-11T10:10:18.698Z</time></trkpt><trkpt lat="38.2174475" lon="15.9901432"><ele>1195.0</ele><time>2026-04-11T10:10:19.698Z</time></trkpt><trkpt lat="38.2173679" lon="15.9902429"><ele>1195.0</ele><time>2026-04-11T10:10:20.699Z</time></trkpt><trkpt lat="38.2172817" lon="15.9903462"><ele>1195.0</ele><time>2026-04-11T10:10:21.699Z</time></trkpt><trkpt lat="38.2172179" lon="15.9904385"><ele>1195.0</ele><time>2026-04-11T10:10:22.699Z</time></trkpt><trkpt lat="38.2171762" lon="15.9905289"><ele>1195.0</ele><time>2026-04-11T10:10:23.698Z</time></trkpt><trkpt lat="38.2171675" lon="15.9906099"><ele>1196.6666666666665</ele><time>2026-04-11T10:10:24.699Z</time></trkpt><trkpt lat="38.2171828" lon="15.990695"><ele>1198.3333333333333</ele><time>2026-04-11T10:10:25.698Z</time></trkpt><trkpt lat="38.2172179" lon="15.9907671"><ele>1200.0</ele><time>2026-04-11T10:10:26.698Z</time></trkpt><trkpt lat="38.2172693" lon="15.9908228"><ele>1201.6666666666667</ele><time>2026-04-11T10:10:27.698Z</time></trkpt><trkpt lat="38.2173404" lon="15.9908679"><ele>1203.3333333333335</ele><time>2026-04-11T10:10:28.699Z</time></trkpt><trkpt lat="38.2174239" lon="15.990899"><ele>1205.0</ele><time>2026-04-11T10:10:29.699Z</time></trkpt><trkpt lat="38.2175142" lon="15.9909292"><ele>1205.4</ele><time>2026-04-11T10:10:30.698Z</time></trkpt><trkpt lat="38.2176082" lon="15.9909608"><ele>1205.8</ele><time>2026-04-11T10:10:31.698Z</time></trkpt><trkpt lat="38.2177021" lon="15.9910064"><ele>1206.2</ele><time>2026-04-11T10:10:32.698Z</time></trkpt><trkpt lat="38.2177916" lon="15.991064"><ele>1206.6</ele><time>2026-04-11T10:10:33.698Z</time></trkpt><trkpt lat="38.2178708" lon="15.9911344"><ele>1207.0</ele><time>2026-04-11T10:10:34.698Z</time></trkpt><trkpt lat="38.2179302" lon="15.9912297"><ele>1207.0</ele><time>2026-04-11T10:10:35.698Z</time></trkpt><trkpt lat="38.2179862" lon="15.9913327"><ele>1207.0</ele><time>2026-04-11T10:10:36.698Z</time></trkpt><trkpt lat="38.2180422" lon="15.9914425"><ele>1207.0</ele><time>2026-04-11T10:10:37.699Z</time></trkpt><trkpt lat="38.2181014" lon="15.9915518"><ele>1207.0</ele><time>2026-04-11T10:10:38.699Z</time></trkpt><trkpt lat="38.2181695" lon="15.9916597"><ele>1207.0</ele><time>2026-04-11T10:10:39.698Z</time></trkpt><trkpt lat="38.2182426" lon="15.9917565"><ele>1206.4</ele><time>2026-04-11T10:10:40.698Z</time></trkpt><trkpt lat="38.2183244" lon="15.991828"><ele>1205.8000000000002</ele><time>2026-04-11T10:10:41.699Z</time></trkpt><trkpt lat="38.2184111" lon="15.991868"><ele>1205.2</ele><time>2026-04-11T10:10:42.698Z</time></trkpt><trkpt lat="38.2185011" lon="15.9919038"><ele>1204.6000000000001</ele><time>2026-04-11T10:10:43.698Z</time></trkpt><trkpt lat="38.2185916" lon="15.9919429"><ele>1204.0</ele><time>2026-04-11T10:10:44.698Z</time></trkpt><trkpt lat="38.2186795" lon="15.9919942"><ele>1204.0</ele><time>2026-04-11T10:10:45.698Z</time></trkpt><trkpt lat="38.2187557" lon="15.9920624"><ele>1204.0</ele><time>2026-04-11T10:10:46.698Z</time></trkpt><trkpt lat="38.2188107" lon="15.9921561"><ele>1204.0</ele><time>2026-04-11T10:10:47.698Z</time></trkpt><trkpt lat="38.2188361" lon="15.9922651"><ele>1204.0</ele><time>2026-04-11T10:10:48.698Z</time></trkpt><trkpt lat="38.2188362" lon="15.9923859"><ele>1204.0</ele><time>2026-04-11T10:10:49.699Z</time></trkpt><trkpt lat="38.2188144" lon="15.9925138"><ele>1203.6000000000001</ele><time>2026-04-11T10:10:50.699Z</time></trkpt><trkpt lat="38.218778" lon="15.9926455"><ele>1203.2</ele><time>2026-04-11T10:10:51.698Z</time></trkpt><trkpt lat="38.2187355" lon="15.9927791"><ele>1202.8000000000002</ele><time>2026-04-11T10:10:52.699Z</time></trkpt><trkpt lat="38.218686" lon="15.9929041"><ele>1202.4</ele><time>2026-04-11T10:10:53.698Z</time></trkpt><trkpt lat="38.2186409" lon="15.9930178"><ele>1202.0</ele><time>2026-04-11T10:10:54.699Z</time></trkpt><trkpt lat="38.2185854" lon="15.9931253"><ele>1202.0</ele><time>2026-04-11T10:10:55.698Z</time></trkpt><trkpt lat="38.2185143" lon="15.9932314"><ele>1202.0</ele><time>2026-04-11T10:10:56.699Z</time></trkpt><trkpt lat="38.2184265" lon="15.9933282"><ele>1202.0</ele><time>2026-04-11T10:10:57.698Z</time></trkpt><trkpt lat="38.2183349" lon="15.9934201"><ele>1202.0</ele><time>2026-04-11T10:10:58.698Z</time></trkpt><trkpt lat="38.2182445" lon="15.9935233"><ele>1201.25</ele><time>2026-04-11T10:10:59.698Z</time></trkpt><trkpt lat="38.2181717" lon="15.9936366"><ele>1200.5</ele><time>2026-04-11T10:11:00.698Z</time></trkpt><trkpt lat="38.2181102" lon="15.9937616"><ele>1199.75</ele><time>2026-04-11T10:11:01.698Z</time></trkpt><trkpt lat="38.2180683" lon="15.9938963"><ele>1199.0</ele><time>2026-04-11T10:11:02.699Z</time></trkpt><trkpt lat="38.2180364" lon="15.9940406"><ele>1202.5</ele><time>2026-04-11T10:11:03.699Z</time></trkpt><trkpt lat="38.2180111" lon="15.9941921"><ele>1206.0</ele><time>2026-04-11T10:11:04.699Z</time></trkpt><trkpt lat="38.2179926" lon="15.9943563"><ele>1209.5</ele><time>2026-04-11T10:11:05.698Z</time></trkpt><trkpt lat="38.2179866" lon="15.9945182"><ele>1213.0</ele><time>2026-04-11T10:11:06.698Z</time></trkpt><trkpt lat="38.2179959" lon="15.9946745"><ele>1213.0</ele><time>2026-04-11T10:11:07.699Z</time></trkpt><trkpt lat="38.2180119" lon="15.9948227"><ele>1213.0</ele><time>2026-04-11T10:11:08.698Z</time></trkpt><trkpt lat="38.2180482" lon="15.9949695"><ele>1213.0</ele><time>2026-04-11T10:11:09.699Z</time></trkpt><trkpt lat="38.2180866" lon="15.995108"><ele>1213.0</ele><time>2026-04-11T10:11:10.698Z</time></trkpt><trkpt lat="38.2181158" lon="15.9952452"><ele>1211.8</ele><time>2026-04-11T10:11:11.698Z</time></trkpt><trkpt lat="38.2181434" lon="15.9953776"><ele>1210.6</ele><time>2026-04-11T10:11:12.698Z</time></trkpt><trkpt lat="38.2181746" lon="15.9955034"><ele>1209.4</ele><time>2026-04-11T10:11:13.698Z</time></trkpt><trkpt lat="38.2182186" lon="15.9956143"><ele>1208.2</ele><time>2026-04-11T10:11:14.698Z</time></trkpt><trkpt lat="38.2182853" lon="15.9957076"><ele>1207.0</ele><time>2026-04-11T10:11:15.699Z</time></trkpt><trkpt lat="38.2183591" lon="15.9957915"><ele>1209.25</ele><time>2026-04-11T10:11:16.698Z</time></trkpt><trkpt lat="38.2184504" lon="15.9958633"><ele>1211.5</ele><time>2026-04-11T10:11:17.698Z</time></trkpt><trkpt lat="38.2185456" lon="15.9959263"><ele>1213.75</ele><time>2026-04-11T10:11:18.698Z</time></trkpt><trkpt lat="38.218663" lon="15.9959818"><ele>1216.0</ele><time>2026-04-11T10:11:19.699Z</time></trkpt><trkpt lat="38.2187813" lon="15.9960434"><ele>1216.0</ele><time>2026-04-11T10:11:20.698Z</time></trkpt><trkpt lat="38.2189056" lon="15.99612"><ele>1216.0</ele><time>2026-04-11T10:11:21.698Z</time></trkpt><trkpt lat="38.2190371" lon="15.9962045"><ele>1216.0</ele><time>2026-04-11T10:11:22.698Z</time></trkpt><trkpt lat="38.2191668" lon="15.9962901"><ele>1216.0</ele><time>2026-04-11T10:11:23.698Z</time></trkpt><trkpt lat="38.2192932" lon="15.996373"><ele>1216.75</ele><time>2026-04-11T10:11:24.699Z</time></trkpt><trkpt lat="38.2194199" lon="15.9964539"><ele>1217.5</ele><time>2026-04-11T10:11:25.699Z</time></trkpt><trkpt lat="38.2195409" lon="15.9965338"><ele>1218.25</ele><time>2026-04-11T10:11:26.699Z</time></trkpt><trkpt lat="38.2196541" lon="15.9966185"><ele>1219.0</ele><time>2026-04-11T10:11:27.698Z</time></trkpt><trkpt lat="38.2197534" lon="15.9967116"><ele>1216.8</ele><time>2026-04-11T10:11:28.698Z</time></trkpt><trkpt lat="38.219844" lon="15.996808"><ele>1214.6000000000001</ele><time>2026-04-11T10:11:29.699Z</time></trkpt><trkpt lat="38.2199227" lon="15.9969045"><ele>1212.4</ele><time>2026-04-11T10:11:30.698Z</time></trkpt><trkpt lat="38.2199981" lon="15.9970009"><ele>1210.2</ele><time>2026-04-11T10:11:31.699Z</time></trkpt><trkpt lat="38.2200724" lon="15.997092"><ele>1208.0</ele><time>2026-04-11T10:11:32.698Z</time></trkpt><trkpt lat="38.2201569" lon="15.99716"><ele>1208.0</ele><time>2026-04-11T10:11:33.698Z</time></trkpt><trkpt lat="38.2202469" lon="15.9972137"><ele>1208.0</ele><time>2026-04-11T10:11:34.699Z</time></trkpt><trkpt lat="38.2203473" lon="15.9972494"><ele>1208.0</ele><time>2026-04-11T10:11:35.698Z</time></trkpt><trkpt lat="38.2204483" lon="15.9972664"><ele>1208.0</ele><time>2026-04-11T10:11:36.698Z</time></trkpt><trkpt lat="38.2205503" lon="15.9972872"><ele>1208.0</ele><time>2026-04-11T10:11:37.699Z</time></trkpt><trkpt lat="38.2206626" lon="15.9973043"><ele>1206.25</ele><time>2026-04-11T10:11:38.699Z</time></trkpt><trkpt lat="38.2207742" lon="15.9973209"><ele>1204.5</ele><time>2026-04-11T10:11:39.698Z</time></trkpt><trkpt lat="38.220889" lon="15.9973433"><ele>1202.75</ele><time>2026-04-11T10:11:40.699Z</time></trkpt><trkpt lat="38.2209997" lon="15.9973729"><ele>1201.0</ele><time>2026-04-11T10:11:41.699Z</time></trkpt><trkpt lat="38.221115" lon="15.9974023"><ele>1201.0</ele><time>2026-04-11T10:11:42.699Z</time></trkpt><trkpt lat="38.2212303" lon="15.9974269"><ele>1201.0</ele><time>2026-04-11T10:11:43.698Z</time></trkpt><trkpt lat="38.2213435" lon="15.9974546"><ele>1201.0</ele><time>2026-04-11T10:11:44.699Z</time></trkpt><trkpt lat="38.221457" lon="15.9974933"><ele>1201.0</ele><time>2026-04-11T10:11:45.698Z</time></trkpt><trkpt lat="38.2215664" lon="15.9975416"><ele>1198.6666666666665</ele><time>2026-04-11T10:11:46.698Z</time></trkpt><trkpt lat="38.2216714" lon="15.9975936"><ele>1196.3333333333333</ele><time>2026-04-11T10:11:47.698Z</time></trkpt><trkpt lat="38.2217625" lon="15.9976487"><ele>1194.0</ele><time>2026-04-11T10:11:48.699Z</time></trkpt><trkpt lat="38.2218363" lon="15.9977102"><ele>1191.6666666666667</ele><time>2026-04-11T10:11:49.699Z</time></trkpt><trkpt lat="38.2218903" lon="15.9977854"><ele>1189.3333333333335</ele><time>2026-04-11T10:11:50.698Z</time></trkpt><trkpt lat="38.221921" lon="15.9978617"><ele>1187.0</ele><time>2026-04-11T10:11:51.699Z</time></trkpt><trkpt lat="38.2219242" lon="15.9979487"><ele>1187.0</ele><time>2026-04-11T10:11:52.699Z</time></trkpt><trkpt lat="38.2218996" lon="15.9980264"><ele>1187.0</ele><time>2026-04-11T10:11:53.699Z</time></trkpt><trkpt lat="38.2218522" lon="15.9980971"><ele>1187.0</ele><time>2026-04-11T10:11:54.698Z</time></trkpt><trkpt lat="38.2218" lon="15.9981602"><ele>1187.0</ele><time>2026-04-11T10:11:55.698Z</time></trkpt><trkpt lat="38.2217438" lon="15.9982267"><ele>1187.0</ele><time>2026-04-11T10:11:56.699Z</time></trkpt><trkpt lat="38.2217051" lon="15.9982917"><ele>1187.0</ele><time>2026-04-11T10:11:57.698Z</time></trkpt><trkpt lat="38.2216525" lon="15.9984313"><ele>1187.3333333333335</ele><time>2026-04-11T10:11:59.698Z</time></trkpt><trkpt lat="38.2216332" lon="15.9985481"><ele>1187.6666666666667</ele><time>2026-04-11T10:12:01.698Z</time></trkpt><trkpt lat="38.2216349" lon="15.998635"><ele>1188.0</ele><time>2026-04-11T10:12:03.698Z</time></trkpt><trkpt lat="38.2216649" lon="15.99873"><ele>1188.3333333333333</ele><time>2026-04-11T10:12:06.698Z</time></trkpt><trkpt lat="38.2216746" lon="15.9988144"><ele>1188.6666666666665</ele><time>2026-04-11T10:12:09.698Z</time></trkpt><trkpt lat="38.2217009" lon="15.9989043"><ele>1189.0</ele><time>2026-04-11T10:14:07.697Z</time></trkpt><trkpt lat="38.2217193" lon="15.999016"><ele>1189.0</ele><time>2026-04-11T10:14:10.697Z</time></trkpt><trkpt lat="38.2217369" lon="15.9991501"><ele>1189.0</ele><time>2026-04-11T10:14:12.698Z</time></trkpt><trkpt lat="38.2217607" lon="15.9992981"><ele>1189.0</ele><time>2026-04-11T10:14:14.698Z</time></trkpt><trkpt lat="38.2217693" lon="15.9994367"><ele>1189.0</ele><time>2026-04-11T10:14:16.697Z</time></trkpt><trkpt lat="38.221745" lon="15.9995643"><ele>1189.0</ele><time>2026-04-11T10:14:18.698Z</time></trkpt><trkpt lat="38.2217358" lon="15.9996969"><ele>1190.2</ele><time>2026-04-11T10:14:20.698Z</time></trkpt><trkpt lat="38.2217667" lon="15.9998314"><ele>1191.4</ele><time>2026-04-11T10:14:22.697Z</time></trkpt><trkpt lat="38.2218624" lon="15.9999263"><ele>1192.6</ele><time>2026-04-11T10:14:24.697Z</time></trkpt><trkpt lat="38.2219314" lon="15.9999593"><ele>1193.8</ele><time>2026-04-11T10:14:25.697Z</time></trkpt><trkpt lat="38.2220044" lon="15.9999946"><ele>1195.0</ele><time>2026-04-11T10:14:26.697Z</time></trkpt><trkpt lat="38.2220812" lon="16.0000342"><ele>1195.0</ele><time>2026-04-11T10:14:27.698Z</time></trkpt><trkpt lat="38.2221648" lon="16.000083"><ele>1195.0</ele><time>2026-04-11T10:14:28.697Z</time></trkpt><trkpt lat="38.2222572" lon="16.000136"><ele>1195.0</ele><time>2026-04-11T10:14:29.697Z</time></trkpt><trkpt lat="38.222341" lon="16.0002068"><ele>1195.0</ele><time>2026-04-11T10:14:30.697Z</time></trkpt><trkpt lat="38.2224132" lon="16.0002839"><ele>1195.0</ele><time>2026-04-11T10:14:31.697Z</time></trkpt><trkpt lat="38.2224704" lon="16.0003842"><ele>1194.2</ele><time>2026-04-11T10:14:32.697Z</time></trkpt><trkpt lat="38.222518" lon="16.0004965"><ele>1193.4</ele><time>2026-04-11T10:14:33.697Z</time></trkpt><trkpt lat="38.2225635" lon="16.0006176"><ele>1192.6</ele><time>2026-04-11T10:14:34.697Z</time></trkpt><trkpt lat="38.2226075" lon="16.0007477"><ele>1191.8</ele><time>2026-04-11T10:14:35.697Z</time></trkpt><trkpt lat="38.2226578" lon="16.0008799"><ele>1191.0</ele><time>2026-04-11T10:14:36.697Z</time></trkpt><trkpt lat="38.2227036" lon="16.001021"><ele>1193.75</ele><time>2026-04-11T10:14:37.697Z</time></trkpt><trkpt lat="38.2227536" lon="16.0011603"><ele>1196.5</ele><time>2026-04-11T10:14:38.698Z</time></trkpt><trkpt lat="38.2228103" lon="16.001301"><ele>1199.25</ele><time>2026-04-11T10:14:39.698Z</time></trkpt><trkpt lat="38.2228768" lon="16.0014437"><ele>1202.0</ele><time>2026-04-11T10:14:40.698Z</time></trkpt><trkpt lat="38.2229495" lon="16.0015827"><ele>1202.0</ele><time>2026-04-11T10:14:41.697Z</time></trkpt><trkpt lat="38.2230263" lon="16.0017105"><ele>1202.0</ele><time>2026-04-11T10:14:42.697Z</time></trkpt><trkpt lat="38.2231115" lon="16.0018247"><ele>1202.0</ele><time>2026-04-11T10:14:43.697Z</time></trkpt><trkpt lat="38.2231919" lon="16.0019306"><ele>1202.0</ele><time>2026-04-11T10:14:44.697Z</time></trkpt><trkpt lat="38.2232652" lon="16.0020433"><ele>1202.0</ele><time>2026-04-11T10:14:45.698Z</time></trkpt><trkpt lat="38.2233229" lon="16.0021542"><ele>1202.0</ele><time>2026-04-11T10:14:46.697Z</time></trkpt><trkpt lat="38.2233665" lon="16.0022766"><ele>1202.0</ele><time>2026-04-11T10:14:47.698Z</time></trkpt><trkpt lat="38.2234005" lon="16.002402"><ele>1202.0</ele><time>2026-04-11T10:14:48.697Z</time></trkpt><trkpt lat="38.2234289" lon="16.0025211"><ele>1202.0</ele><time>2026-04-11T10:14:49.698Z</time></trkpt><trkpt lat="38.2234534" lon="16.0026452"><ele>1203.75</ele><time>2026-04-11T10:14:50.697Z</time></trkpt><trkpt lat="38.2234772" lon="16.0027811"><ele>1205.5</ele><time>2026-04-11T10:14:51.697Z</time></trkpt><trkpt lat="38.2235051" lon="16.0029209"><ele>1207.25</ele><time>2026-04-11T10:14:52.697Z</time></trkpt><trkpt lat="38.22354" lon="16.003066"><ele>1209.0</ele><time>2026-04-11T10:14:53.698Z</time></trkpt><trkpt lat="38.2235921" lon="16.0032067"><ele>1210.5</ele><time>2026-04-11T10:14:54.698Z</time></trkpt><trkpt lat="38.2236633" lon="16.0033358"><ele>1212.0</ele><time>2026-04-11T10:14:55.698Z</time></trkpt><trkpt lat="38.2237299" lon="16.0034491"><ele>1213.5</ele><time>2026-04-11T10:14:56.698Z</time></trkpt><trkpt lat="38.2238093" lon="16.0035464"><ele>1215.0</ele><time>2026-04-11T10:14:57.697Z</time></trkpt><trkpt lat="38.2238894" lon="16.003633"><ele>1215.0</ele><time>2026-04-11T10:14:58.697Z</time></trkpt><trkpt lat="38.2239769" lon="16.0037085"><ele>1215.0</ele><time>2026-04-11T10:14:59.698Z</time></trkpt><trkpt lat="38.2240666" lon="16.0037742"><ele>1215.0</ele><time>2026-04-11T10:15:00.697Z</time></trkpt><trkpt lat="38.2241743" lon="16.0038334"><ele>1215.0</ele><time>2026-04-11T10:15:01.698Z</time></trkpt><trkpt lat="38.2242988" lon="16.0038973"><ele>1214.5</ele><time>2026-04-11T10:15:02.697Z</time></trkpt><trkpt lat="38.2244354" lon="16.0039656"><ele>1214.0</ele><time>2026-04-11T10:15:03.697Z</time></trkpt><trkpt lat="38.2245643" lon="16.0040378"><ele>1213.5</ele><time>2026-04-11T10:15:04.697Z</time></trkpt><trkpt lat="38.2246818" lon="16.0041151"><ele>1213.0</ele><time>2026-04-11T10:15:05.697Z</time></trkpt><trkpt lat="38.2247831" lon="16.0041953"><ele>1211.0</ele><time>2026-04-11T10:15:06.697Z</time></trkpt><trkpt lat="38.2248728" lon="16.0042787"><ele>1209.0</ele><time>2026-04-11T10:15:07.698Z</time></trkpt><trkpt lat="38.2249556" lon="16.0043636"><ele>1207.0</ele><time>2026-04-11T10:15:08.697Z</time></trkpt><trkpt lat="38.2250337" lon="16.0044667"><ele>1205.0</ele><time>2026-04-11T10:15:09.698Z</time></trkpt><trkpt lat="38.2251051" lon="16.0045935"><ele>1205.0</ele><time>2026-04-11T10:15:10.697Z</time></trkpt><trkpt lat="38.2251627" lon="16.0047281"><ele>1205.0</ele><time>2026-04-11T10:15:11.697Z</time></trkpt><trkpt lat="38.2252175" lon="16.0048628"><ele>1205.0</ele><time>2026-04-11T10:15:12.698Z</time></trkpt><trkpt lat="38.2252839" lon="16.0049971"><ele>1205.0</ele><time>2026-04-11T10:15:13.698Z</time></trkpt><trkpt lat="38.225364" lon="16.0051319"><ele>1203.75</ele><time>2026-04-11T10:15:14.697Z</time></trkpt><trkpt lat="38.2254578" lon="16.0052513"><ele>1202.5</ele><time>2026-04-11T10:15:15.698Z</time></trkpt><trkpt lat="38.2255631" lon="16.0053609"><ele>1201.25</ele><time>2026-04-11T10:15:16.697Z</time></trkpt><trkpt lat="38.2256786" lon="16.0054686"><ele>1200.0</ele><time>2026-04-11T10:15:17.698Z</time></trkpt><trkpt lat="38.2257961" lon="16.0055778"><ele>1200.0</ele><time>2026-04-11T10:15:18.697Z</time></trkpt><trkpt lat="38.2259084" lon="16.0056914"><ele>1200.0</ele><time>2026-04-11T10:15:19.698Z</time></trkpt><trkpt lat="38.2260098" lon="16.0058116"><ele>1200.0</ele><time>2026-04-11T10:15:20.698Z</time></trkpt><trkpt lat="38.226104" lon="16.005941"><ele>1200.0</ele><time>2026-04-11T10:15:21.697Z</time></trkpt><trkpt lat="38.2261874" lon="16.0060734"><ele>1201.75</ele><time>2026-04-11T10:15:22.698Z</time></trkpt><trkpt lat="38.2262618" lon="16.0062152"><ele>1203.5</ele><time>2026-04-11T10:15:23.698Z</time></trkpt><trkpt lat="38.2263353" lon="16.0063555"><ele>1205.25</ele><time>2026-04-11T10:15:24.698Z</time></trkpt><trkpt lat="38.2264104" lon="16.0064887"><ele>1207.0</ele><time>2026-04-11T10:15:25.697Z</time></trkpt><trkpt lat="38.22648" lon="16.0066231"><ele>1204.5</ele><time>2026-04-11T10:15:26.697Z</time></trkpt><trkpt lat="38.2265454" lon="16.0067514"><ele>1202.0</ele><time>2026-04-11T10:15:27.697Z</time></trkpt><trkpt lat="38.2266058" lon="16.0068713"><ele>1199.5</ele><time>2026-04-11T10:15:28.697Z</time></trkpt><trkpt lat="38.2266689" lon="16.006984"><ele>1197.0</ele><time>2026-04-11T10:15:29.698Z</time></trkpt><trkpt lat="38.2267229" lon="16.0071058"><ele>1197.0</ele><time>2026-04-11T10:15:30.697Z</time></trkpt><trkpt lat="38.2267701" lon="16.0072369"><ele>1197.0</ele><time>2026-04-11T10:15:31.697Z</time></trkpt><trkpt lat="38.2268171" lon="16.007383"><ele>1197.0</ele><time>2026-04-11T10:15:32.697Z</time></trkpt><trkpt lat="38.2268579" lon="16.0075424"><ele>1197.0</ele><time>2026-04-11T10:15:33.697Z</time></trkpt><trkpt lat="38.2268984" lon="16.007703"><ele>1197.0</ele><time>2026-04-11T10:15:34.698Z</time></trkpt><trkpt lat="38.2269396" lon="16.007867"><ele>1197.0</ele><time>2026-04-11T10:15:35.698Z</time></trkpt><trkpt lat="38.2269878" lon="16.0080289"><ele>1197.0</ele><time>2026-04-11T10:15:36.698Z</time></trkpt><trkpt lat="38.2270421" lon="16.0081939"><ele>1197.0</ele><time>2026-04-11T10:15:37.697Z</time></trkpt><trkpt lat="38.2271017" lon="16.0083496"><ele>1197.0</ele><time>2026-04-11T10:15:38.697Z</time></trkpt><trkpt lat="38.2271679" lon="16.0085044"><ele>1197.0</ele><time>2026-04-11T10:15:39.697Z</time></trkpt><trkpt lat="38.2272425" lon="16.0086483"><ele>1197.0</ele><time>2026-04-11T10:15:40.697Z</time></trkpt><trkpt lat="38.2273188" lon="16.0087635"><ele>1197.0</ele><time>2026-04-11T10:15:41.697Z</time></trkpt><trkpt lat="38.2273964" lon="16.0089078"><ele>1191.0</ele><time>2026-04-11T10:15:42.698Z</time></trkpt><trkpt lat="38.2274725" lon="16.0090589"><ele>1185.0</ele><time>2026-04-11T10:15:43.698Z</time></trkpt><trkpt lat="38.2275645" lon="16.0092225"><ele>1179.0</ele><time>2026-04-11T10:15:44.697Z</time></trkpt><trkpt lat="38.2276599" lon="16.0093835"><ele>1179.0</ele><time>2026-04-11T10:15:45.698Z</time></trkpt><trkpt lat="38.2277584" lon="16.009548"><ele>1179.0</ele><time>2026-04-11T10:15:46.698Z</time></trkpt><trkpt lat="38.2278485" lon="16.0097188"><ele>1179.0</ele><time>2026-04-11T10:15:47.697Z</time></trkpt><trkpt lat="38.2279448" lon="16.0098862"><ele>1179.75</ele><time>2026-04-11T10:15:48.697Z</time></trkpt><trkpt lat="38.2280317" lon="16.0100432"><ele>1180.5</ele><time>2026-04-11T10:15:49.698Z</time></trkpt><trkpt lat="38.2281081" lon="16.0101898"><ele>1181.25</ele><time>2026-04-11T10:15:50.698Z</time></trkpt><trkpt lat="38.2281864" lon="16.0103318"><ele>1182.0</ele><time>2026-04-11T10:15:51.697Z</time></trkpt><trkpt lat="38.2282717" lon="16.0104506"><ele>1177.5</ele><time>2026-04-11T10:15:52.697Z</time></trkpt><trkpt lat="38.2283624" lon="16.010541"><ele>1173.0</ele><time>2026-04-11T10:15:53.697Z</time></trkpt><trkpt lat="38.2284672" lon="16.0106198"><ele>1168.5</ele><time>2026-04-11T10:15:54.697Z</time></trkpt><trkpt lat="38.2285859" lon="16.010682"><ele>1164.0</ele><time>2026-04-11T10:15:55.697Z</time></trkpt><trkpt lat="38.2287284" lon="16.0107353"><ele>1164.0</ele><time>2026-04-11T10:15:56.698Z</time></trkpt><trkpt lat="38.2288825" lon="16.010784"><ele>1164.0</ele><time>2026-04-11T10:15:57.697Z</time></trkpt><trkpt lat="38.2290544" lon="16.0108418"><ele>1164.0</ele><time>2026-04-11T10:15:58.698Z</time></trkpt><trkpt lat="38.2292216" lon="16.0109065"><ele>1163.3333333333333</ele><time>2026-04-11T10:15:59.698Z</time></trkpt><trkpt lat="38.2293956" lon="16.0109735"><ele>1162.6666666666665</ele><time>2026-04-11T10:16:00.697Z</time></trkpt><trkpt lat="38.2295696" lon="16.0110491"><ele>1162.0</ele><time>2026-04-11T10:16:01.698Z</time></trkpt><trkpt lat="38.2297524" lon="16.0111315"><ele>1159.6666666666665</ele><time>2026-04-11T10:16:02.698Z</time></trkpt><trkpt lat="38.2299293" lon="16.0112153"><ele>1157.3333333333333</ele><time>2026-04-11T10:16:03.697Z</time></trkpt><trkpt lat="38.2301053" lon="16.0113041"><ele>1155.0</ele><time>2026-04-11T10:16:04.698Z</time></trkpt><trkpt lat="38.230285" lon="16.0113891"><ele>1155.0</ele><time>2026-04-11T10:16:05.697Z</time></trkpt><trkpt lat="38.2304697" lon="16.0114693"><ele>1155.0</ele><time>2026-04-11T10:16:06.697Z</time></trkpt><trkpt lat="38.2306439" lon="16.0115517"><ele>1155.0</ele><time>2026-04-11T10:16:07.698Z</time></trkpt><trkpt lat="38.2308218" lon="16.0116334"><ele>1153.6666666666667</ele><time>2026-04-11T10:16:08.697Z</time></trkpt><trkpt lat="38.2309946" lon="16.0117174"><ele>1152.3333333333335</ele><time>2026-04-11T10:16:09.698Z</time></trkpt><trkpt lat="38.2311646" lon="16.0117962"><ele>1151.0</ele><time>2026-04-11T10:16:10.698Z</time></trkpt><trkpt lat="38.2313239" lon="16.0118668"><ele>1151.3333333333335</ele><time>2026-04-11T10:16:11.698Z</time></trkpt><trkpt lat="38.2314775" lon="16.0119386"><ele>1151.6666666666667</ele><time>2026-04-11T10:16:12.697Z</time></trkpt><trkpt lat="38.2316299" lon="16.0120145"><ele>1152.0</ele><time>2026-04-11T10:16:13.697Z</time></trkpt><trkpt lat="38.2317762" lon="16.0120914"><ele>1152.0</ele><time>2026-04-11T10:16:14.698Z</time></trkpt><trkpt lat="38.2319267" lon="16.0121656"><ele>1152.0</ele><time>2026-04-11T10:16:15.698Z</time></trkpt><trkpt lat="38.2320699" lon="16.0122473"><ele>1152.0</ele><time>2026-04-11T10:16:16.697Z</time></trkpt><trkpt lat="38.2322141" lon="16.0123219"><ele>1151.6666666666667</ele><time>2026-04-11T10:16:17.697Z</time></trkpt><trkpt lat="38.2323527" lon="16.0123911"><ele>1151.3333333333335</ele><time>2026-04-11T10:16:18.698Z</time></trkpt><trkpt lat="38.2324977" lon="16.0124577"><ele>1151.0</ele><time>2026-04-11T10:16:19.698Z</time></trkpt><trkpt lat="38.2326439" lon="16.012524"><ele>1150.3333333333335</ele><time>2026-04-11T10:16:20.697Z</time></trkpt><trkpt lat="38.2327769" lon="16.0125974"><ele>1149.6666666666667</ele><time>2026-04-11T10:16:21.697Z</time></trkpt><trkpt lat="38.2329125" lon="16.0126691"><ele>1149.0</ele><time>2026-04-11T10:16:22.697Z</time></trkpt><trkpt lat="38.2330744" lon="16.0127349"><ele>1147.3333333333333</ele><time>2026-04-11T10:16:23.698Z</time></trkpt><trkpt lat="38.2332436" lon="16.0128131"><ele>1145.6666666666665</ele><time>2026-04-11T10:16:24.697Z</time></trkpt><trkpt lat="38.2334206" lon="16.0128973"><ele>1144.0</ele><time>2026-04-11T10:16:25.698Z</time></trkpt><trkpt lat="38.2336121" lon="16.0129865"><ele>1144.0</ele><time>2026-04-11T10:16:26.698Z</time></trkpt><trkpt lat="38.2338101" lon="16.0130786"><ele>1144.0</ele><time>2026-04-11T10:16:27.697Z</time></trkpt><trkpt lat="38.234012" lon="16.0131745"><ele>1144.0</ele><time>2026-04-11T10:16:28.697Z</time></trkpt><trkpt lat="38.2342188" lon="16.0132642"><ele>1140.6666666666665</ele><time>2026-04-11T10:16:29.698Z</time></trkpt><trkpt lat="38.2344288" lon="16.0133586"><ele>1137.3333333333333</ele><time>2026-04-11T10:16:30.697Z</time></trkpt><trkpt lat="38.2346408" lon="16.0134524"><ele>1134.0</ele><time>2026-04-11T10:16:31.697Z</time></trkpt><trkpt lat="38.2348459" lon="16.0135454"><ele>1133.5</ele><time>2026-04-11T10:16:32.697Z</time></trkpt><trkpt lat="38.2350553" lon="16.0136482"><ele>1133.0</ele><time>2026-04-11T10:16:33.697Z</time></trkpt><trkpt lat="38.2352657" lon="16.0137504"><ele>1133.0</ele><time>2026-04-11T10:16:34.697Z</time></trkpt><trkpt lat="38.23548" lon="16.0138554"><ele>1133.0</ele><time>2026-04-11T10:16:35.698Z</time></trkpt><trkpt lat="38.2357039" lon="16.0139473"><ele>1132.0</ele><time>2026-04-11T10:16:36.697Z</time></trkpt><trkpt lat="38.2359228" lon="16.0140375"><ele>1131.0</ele><time>2026-04-11T10:16:37.697Z</time></trkpt><trkpt lat="38.2361341" lon="16.0141252"><ele>1132.6666666666667</ele><time>2026-04-11T10:16:38.698Z</time></trkpt><trkpt lat="38.2363371" lon="16.0142174"><ele>1134.3333333333335</ele><time>2026-04-11T10:16:39.697Z</time></trkpt><trkpt lat="38.2365359" lon="16.0143146"><ele>1136.0</ele><time>2026-04-11T10:16:40.697Z</time></trkpt><trkpt lat="38.2367276" lon="16.0144157"><ele>1136.3333333333335</ele><time>2026-04-11T10:16:41.697Z</time></trkpt><trkpt lat="38.2369237" lon="16.0145026"><ele>1136.6666666666667</ele><time>2026-04-11T10:16:42.698Z</time></trkpt><trkpt lat="38.2371147" lon="16.0145818"><ele>1137.0</ele><time>2026-04-11T10:16:43.698Z</time></trkpt><trkpt lat="38.2373145" lon="16.0146498"><ele>1136.3333333333333</ele><time>2026-04-11T10:16:44.697Z</time></trkpt><trkpt lat="38.237493" lon="16.0147329"><ele>1135.6666666666665</ele><time>2026-04-11T10:16:45.698Z</time></trkpt><trkpt lat="38.2376758" lon="16.0148174"><ele>1135.0</ele><time>2026-04-11T10:16:46.698Z</time></trkpt><trkpt lat="38.2378577" lon="16.0149187"><ele>1134.6666666666665</ele><time>2026-04-11T10:16:47.697Z</time></trkpt><trkpt lat="38.2380416" lon="16.0150241"><ele>1134.3333333333333</ele><time>2026-04-11T10:16:48.697Z</time></trkpt><trkpt lat="38.2382376" lon="16.0151303"><ele>1134.0</ele><time>2026-04-11T10:16:49.698Z</time></trkpt><trkpt lat="38.2384437" lon="16.0152436"><ele>1134.0</ele><time>2026-04-11T10:16:50.698Z</time></trkpt><trkpt lat="38.2386535" lon="16.0153675"><ele>1134.0</ele><time>2026-04-11T10:16:51.698Z</time></trkpt><trkpt lat="38.2388531" lon="16.0154908"><ele>1133.3333333333333</ele><time>2026-04-11T10:16:52.697Z</time></trkpt><trkpt lat="38.2390491" lon="16.0156145"><ele>1132.6666666666665</ele><time>2026-04-11T10:16:53.697Z</time></trkpt><trkpt lat="38.2392401" lon="16.0157371"><ele>1132.0</ele><time>2026-04-11T10:16:54.697Z</time></trkpt><trkpt lat="38.2394268" lon="16.0158562"><ele>1132.0</ele><time>2026-04-11T10:16:55.697Z</time></trkpt><trkpt lat="38.2396127" lon="16.015975"><ele>1132.0</ele><time>2026-04-11T10:16:56.697Z</time></trkpt><trkpt lat="38.2397989" lon="16.0160917"><ele>1132.0</ele><time>2026-04-11T10:16:57.697Z</time></trkpt><trkpt lat="38.2399865" lon="16.0162039"><ele>1130.6666666666665</ele><time>2026-04-11T10:16:58.697Z</time></trkpt><trkpt lat="38.240176" lon="16.0163114"><ele>1129.3333333333333</ele><time>2026-04-11T10:16:59.698Z</time></trkpt><trkpt lat="38.2403635" lon="16.0164177"><ele>1128.0</ele><time>2026-04-11T10:17:00.698Z</time></trkpt><trkpt lat="38.2405506" lon="16.0165183"><ele>1127.0</ele><time>2026-04-11T10:17:01.698Z</time></trkpt><trkpt lat="38.2407333" lon="16.0166231"><ele>1126.0</ele><time>2026-04-11T10:17:02.697Z</time></trkpt><trkpt lat="38.240912" lon="16.0167308"><ele>1125.0</ele><time>2026-04-11T10:17:03.698Z</time></trkpt><trkpt lat="38.2410865" lon="16.0168375"><ele>1125.0</ele><time>2026-04-11T10:17:04.697Z</time></trkpt><trkpt lat="38.2412622" lon="16.0169415"><ele>1125.0</ele><time>2026-04-11T10:17:05.697Z</time></trkpt><trkpt lat="38.2414395" lon="16.0170454"><ele>1125.0</ele><time>2026-04-11T10:17:06.697Z</time></trkpt><trkpt lat="38.2416161" lon="16.0171515"><ele>1124.0</ele><time>2026-04-11T10:17:07.698Z</time></trkpt><trkpt lat="38.2417936" lon="16.0172608"><ele>1123.0</ele><time>2026-04-11T10:17:08.698Z</time></trkpt><trkpt lat="38.2419642" lon="16.0173784"><ele>1122.0</ele><time>2026-04-11T10:17:09.697Z</time></trkpt><trkpt lat="38.2421295" lon="16.0174933"><ele>1121.6666666666667</ele><time>2026-04-11T10:17:10.698Z</time></trkpt><trkpt lat="38.2422894" lon="16.017604"><ele>1121.3333333333335</ele><time>2026-04-11T10:17:11.697Z</time></trkpt><trkpt lat="38.2424376" lon="16.0177063"><ele>1121.0</ele><time>2026-04-11T10:17:12.698Z</time></trkpt><trkpt lat="38.242575" lon="16.0177953"><ele>1119.5</ele><time>2026-04-11T10:17:13.697Z</time></trkpt><trkpt lat="38.2426982" lon="16.0178731"><ele>1118.0</ele><time>2026-04-11T10:17:14.697Z</time></trkpt><trkpt lat="38.2428076" lon="16.0179197"><ele>1116.5</ele><time>2026-04-11T10:17:15.697Z</time></trkpt><trkpt lat="38.2429103" lon="16.0179298"><ele>1115.0</ele><time>2026-04-11T10:17:16.698Z</time></trkpt><trkpt lat="38.2430038" lon="16.0179138"><ele>1115.0</ele><time>2026-04-11T10:17:17.697Z</time></trkpt><trkpt lat="38.2431007" lon="16.017873"><ele>1115.0</ele><time>2026-04-11T10:17:18.697Z</time></trkpt><trkpt lat="38.2431916" lon="16.0178478"><ele>1115.0</ele><time>2026-04-11T10:17:19.697Z</time></trkpt><trkpt lat="38.2432837" lon="16.0178436"><ele>1115.0</ele><time>2026-04-11T10:17:20.698Z</time></trkpt><trkpt lat="38.243377" lon="16.0178685"><ele>1115.0</ele><time>2026-04-11T10:17:21.697Z</time></trkpt><trkpt lat="38.2434688" lon="16.0179155"><ele>1113.5</ele><time>2026-04-11T10:17:22.697Z</time></trkpt><trkpt lat="38.2435612" lon="16.0180027"><ele>1112.0</ele><time>2026-04-11T10:17:23.697Z</time></trkpt><trkpt lat="38.2436498" lon="16.0181243"><ele>1110.5</ele><time>2026-04-11T10:17:24.698Z</time></trkpt><trkpt lat="38.2437469" lon="16.018263"><ele>1109.0</ele><time>2026-04-11T10:17:25.697Z</time></trkpt><trkpt lat="38.2438613" lon="16.0183889"><ele>1105.6666666666667</ele><time>2026-04-11T10:17:26.698Z</time></trkpt><trkpt lat="38.2439733" lon="16.0185361"><ele>1102.3333333333333</ele><time>2026-04-11T10:17:27.697Z</time></trkpt><trkpt lat="38.2440855" lon="16.0187108"><ele>1099.0</ele><time>2026-04-11T10:17:28.697Z</time></trkpt><trkpt lat="38.2441792" lon="16.0188903"><ele>1099.0</ele><time>2026-04-11T10:17:29.697Z</time></trkpt><trkpt lat="38.2442619" lon="16.0190718"><ele>1099.0</ele><time>2026-04-11T10:17:30.698Z</time></trkpt><trkpt lat="38.2443395" lon="16.0192518"><ele>1099.0</ele><time>2026-04-11T10:17:31.698Z</time></trkpt><trkpt lat="38.2444221" lon="16.0194292"><ele>1098.3333333333333</ele><time>2026-04-11T10:17:32.698Z</time></trkpt><trkpt lat="38.2445211" lon="16.0195994"><ele>1097.6666666666667</ele><time>2026-04-11T10:17:33.697Z</time></trkpt><trkpt lat="38.2446349" lon="16.0197632"><ele>1097.0</ele><time>2026-04-11T10:17:34.698Z</time></trkpt><trkpt lat="38.2447592" lon="16.0199146"><ele>1095.0</ele><time>2026-04-11T10:17:35.697Z</time></trkpt><trkpt lat="38.2448843" lon="16.0200743"><ele>1093.0</ele><time>2026-04-11T10:17:36.697Z</time></trkpt><trkpt lat="38.2450112" lon="16.0202349"><ele>1091.0</ele><time>2026-04-11T10:17:37.697Z</time></trkpt><trkpt lat="38.245136" lon="16.0203869"><ele>1091.0</ele><time>2026-04-11T10:17:38.697Z</time></trkpt><trkpt lat="38.2452541" lon="16.0205379"><ele>1091.0</ele><time>2026-04-11T10:17:39.697Z</time></trkpt><trkpt lat="38.2453734" lon="16.0206713"><ele>1091.0</ele><time>2026-04-11T10:17:40.697Z</time></trkpt><trkpt lat="38.24549" lon="16.0208107"><ele>1091.6666666666667</ele><time>2026-04-11T10:17:41.697Z</time></trkpt><trkpt lat="38.2456049" lon="16.0209561"><ele>1092.3333333333333</ele><time>2026-04-11T10:17:42.697Z</time></trkpt><trkpt lat="38.2457203" lon="16.0211074"><ele>1093.0</ele><time>2026-04-11T10:17:43.698Z</time></trkpt><trkpt lat="38.2458354" lon="16.0212722"><ele>1093.0</ele><time>2026-04-11T10:17:44.697Z</time></trkpt><trkpt lat="38.2459623" lon="16.0214367"><ele>1093.0</ele><time>2026-04-11T10:17:45.698Z</time></trkpt><trkpt lat="38.2460888" lon="16.0216012"><ele>1093.0</ele><time>2026-04-11T10:17:46.698Z</time></trkpt><trkpt lat="38.2462189" lon="16.0217703"><ele>1093.0</ele><time>2026-04-11T10:17:47.698Z</time></trkpt><trkpt lat="38.2463491" lon="16.0219464"><ele>1093.0</ele><time>2026-04-11T10:17:48.698Z</time></trkpt><trkpt lat="38.2464865" lon="16.0221222"><ele>1093.0</ele><time>2026-04-11T10:17:49.698Z</time></trkpt><trkpt lat="38.2466314" lon="16.0222923"><ele>1092.0</ele><time>2026-04-11T10:17:50.697Z</time></trkpt><trkpt lat="38.2467784" lon="16.0224667"><ele>1091.0</ele><time>2026-04-11T10:17:51.698Z</time></trkpt><trkpt lat="38.2469233" lon="16.0226446"><ele>1090.0</ele><time>2026-04-11T10:17:52.698Z</time></trkpt><trkpt lat="38.2470699" lon="16.0228244"><ele>1089.3333333333333</ele><time>2026-04-11T10:17:53.697Z</time></trkpt><trkpt lat="38.2472191" lon="16.023001"><ele>1088.6666666666667</ele><time>2026-04-11T10:17:54.697Z</time></trkpt><trkpt lat="38.2473665" lon="16.0231775"><ele>1088.0</ele><time>2026-04-11T10:17:55.697Z</time></trkpt><trkpt lat="38.2475101" lon="16.0233489"><ele>1086.3333333333335</ele><time>2026-04-11T10:17:56.698Z</time></trkpt><trkpt lat="38.2476479" lon="16.0235157"><ele>1084.6666666666667</ele><time>2026-04-11T10:17:57.697Z</time></trkpt><trkpt lat="38.2477883" lon="16.0236792"><ele>1083.0</ele><time>2026-04-11T10:17:58.697Z</time></trkpt><trkpt lat="38.2479163" lon="16.0238459"><ele>1083.0</ele><time>2026-04-11T10:17:59.697Z</time></trkpt><trkpt lat="38.2480428" lon="16.0240079"><ele>1083.0</ele><time>2026-04-11T10:18:00.697Z</time></trkpt><trkpt lat="38.2481713" lon="16.0241733"><ele>1083.0</ele><time>2026-04-11T10:18:01.697Z</time></trkpt><trkpt lat="38.2483055" lon="16.0243421"><ele>1081.6666666666667</ele><time>2026-04-11T10:18:02.697Z</time></trkpt><trkpt lat="38.2484426" lon="16.0245094"><ele>1080.3333333333335</ele><time>2026-04-11T10:18:03.697Z</time></trkpt><trkpt lat="38.2485795" lon="16.0246764"><ele>1079.0</ele><time>2026-04-11T10:18:04.697Z</time></trkpt><trkpt lat="38.2487174" lon="16.0248457"><ele>1079.0</ele><time>2026-04-11T10:18:05.697Z</time></trkpt><trkpt lat="38.2488561" lon="16.0250142"><ele>1079.0</ele><time>2026-04-11T10:18:06.698Z</time></trkpt><trkpt lat="38.2489908" lon="16.0251736"><ele>1079.0</ele><time>2026-04-11T10:18:07.697Z</time></trkpt><trkpt lat="38.2491153" lon="16.0253374"><ele>1079.0</ele><time>2026-04-11T10:18:08.698Z</time></trkpt><trkpt lat="38.2492411" lon="16.0254895"><ele>1079.0</ele><time>2026-04-11T10:18:09.697Z</time></trkpt><trkpt lat="38.2493573" lon="16.0256243"><ele>1079.0</ele><time>2026-04-11T10:18:10.698Z</time></trkpt><trkpt lat="38.2494631" lon="16.0257479"><ele>1078.6000000000001</ele><time>2026-04-11T10:18:11.698Z</time></trkpt><trkpt lat="38.2495562" lon="16.0258555"><ele>1078.2</ele><time>2026-04-11T10:18:12.698Z</time></trkpt><trkpt lat="38.2496492" lon="16.0259478"><ele>1077.8000000000002</ele><time>2026-04-11T10:18:13.698Z</time></trkpt><trkpt lat="38.2497443" lon="16.0260096"><ele>1077.4</ele><time>2026-04-11T10:18:14.697Z</time></trkpt><trkpt lat="38.2498292" lon="16.0260415"><ele>1077.0</ele><time>2026-04-11T10:18:15.697Z</time></trkpt><trkpt lat="38.2499322" lon="16.0260403"><ele>1076.25</ele><time>2026-04-11T10:18:16.697Z</time></trkpt><trkpt lat="38.2500373" lon="16.0260214"><ele>1075.5</ele><time>2026-04-11T10:18:17.697Z</time></trkpt><trkpt lat="38.2501517" lon="16.0260153"><ele>1074.75</ele><time>2026-04-11T10:18:18.697Z</time></trkpt><trkpt lat="38.2502733" lon="16.0260346"><ele>1074.0</ele><time>2026-04-11T10:18:19.698Z</time></trkpt><trkpt lat="38.2504018" lon="16.0260768"><ele>1074.0</ele><time>2026-04-11T10:18:20.698Z</time></trkpt><trkpt lat="38.2505125" lon="16.0261569"><ele>1074.0</ele><time>2026-04-11T10:18:21.698Z</time></trkpt><trkpt lat="38.2506076" lon="16.0262593"><ele>1074.0</ele><time>2026-04-11T10:18:22.697Z</time></trkpt><trkpt lat="38.2506912" lon="16.0263655"><ele>1074.0</ele><time>2026-04-11T10:18:23.697Z</time></trkpt><trkpt lat="38.250761" lon="16.0264715"><ele>1073.0</ele><time>2026-04-11T10:18:24.698Z</time></trkpt><trkpt lat="38.2508339" lon="16.0265674"><ele>1072.0</ele><time>2026-04-11T10:18:25.698Z</time></trkpt><trkpt lat="38.2509082" lon="16.0266523"><ele>1071.0</ele><time>2026-04-11T10:18:26.698Z</time></trkpt><trkpt lat="38.2509654" lon="16.0267336"><ele>1070.0</ele><time>2026-04-11T10:18:27.698Z</time></trkpt><trkpt lat="38.2510098" lon="16.0268073"><ele>1069.0</ele><time>2026-04-11T10:18:28.697Z</time></trkpt><trkpt lat="38.2510477" lon="16.0269302"><ele>1068.2</ele><time>2026-04-11T10:18:30.697Z</time></trkpt><trkpt lat="38.2510223" lon="16.0270186"><ele>1067.4</ele><time>2026-04-11T10:18:32.697Z</time></trkpt><trkpt lat="38.250963" lon="16.0270887"><ele>1066.6</ele><time>2026-04-11T10:18:34.697Z</time></trkpt><trkpt lat="38.2508781" lon="16.0271573"><ele>1065.8</ele><time>2026-04-11T10:18:36.697Z</time></trkpt><trkpt lat="38.2507897" lon="16.0272318"><ele>1065.0</ele><time>2026-04-11T10:18:38.698Z</time></trkpt><trkpt lat="38.2507106" lon="16.0273038"><ele>1066.0</ele><time>2026-04-11T10:18:40.697Z</time></trkpt><trkpt lat="38.250613" lon="16.027385"><ele>1067.0</ele><time>2026-04-11T10:18:42.698Z</time></trkpt><trkpt lat="38.2505141" lon="16.0274792"><ele>1068.0</ele><time>2026-04-11T10:18:44.697Z</time></trkpt><trkpt lat="38.2504622" lon="16.0275303"><ele>1069.0</ele><time>2026-04-11T10:18:45.697Z</time></trkpt><trkpt lat="38.2504074" lon="16.0275853"><ele>1070.0</ele><time>2026-04-11T10:18:46.697Z</time></trkpt><trkpt lat="38.2503462" lon="16.0276407"><ele>1070.0</ele><time>2026-04-11T10:18:47.698Z</time></trkpt><trkpt lat="38.2502885" lon="16.027695"><ele>1070.0</ele><time>2026-04-11T10:18:48.698Z</time></trkpt><trkpt lat="38.2502341" lon="16.027748"><ele>1070.0</ele><time>2026-04-11T10:18:49.698Z</time></trkpt><trkpt lat="38.2501848" lon="16.0278021"><ele>1070.0</ele><time>2026-04-11T10:18:50.697Z</time></trkpt><trkpt lat="38.2501225" lon="16.0279119"><ele>1070.0</ele><time>2026-04-11T10:18:52.697Z</time></trkpt><trkpt lat="38.2501269" lon="16.0280095"><ele>1070.0</ele><time>2026-04-11T10:18:54.697Z</time></trkpt><trkpt lat="38.2501916" lon="16.0280768"><ele>1070.0</ele><time>2026-04-11T10:20:15.698Z</time></trkpt><trkpt lat="38.2502442" lon="16.0281477"><ele>1070.0</ele><time>2026-04-11T10:20:17.698Z</time></trkpt><trkpt lat="38.2502937" lon="16.028275"><ele>1070.0</ele><time>2026-04-11T10:20:19.697Z</time></trkpt><trkpt lat="38.2503159" lon="16.0283537"><ele>1070.0</ele><time>2026-04-11T10:20:20.697Z</time></trkpt><trkpt lat="38.2503358" lon="16.0284336"><ele>1070.0</ele><time>2026-04-11T10:20:21.698Z</time></trkpt><trkpt lat="38.25035" lon="16.0285249"><ele>1070.0</ele><time>2026-04-11T10:20:22.697Z</time></trkpt><trkpt lat="38.2503616" lon="16.028626"><ele>1068.8</ele><time>2026-04-11T10:20:23.697Z</time></trkpt><trkpt lat="38.2503726" lon="16.0287374"><ele>1067.6</ele><time>2026-04-11T10:20:24.698Z</time></trkpt><trkpt lat="38.2503783" lon="16.0288526"><ele>1066.4</ele><time>2026-04-11T10:20:25.698Z</time></trkpt><trkpt lat="38.2503852" lon="16.0289837"><ele>1065.2</ele><time>2026-04-11T10:20:26.698Z</time></trkpt><trkpt lat="38.2503955" lon="16.0291184"><ele>1064.0</ele><time>2026-04-11T10:20:27.698Z</time></trkpt><trkpt lat="38.2504022" lon="16.0292509"><ele>1062.2</ele><time>2026-04-11T10:20:28.697Z</time></trkpt><trkpt lat="38.2504115" lon="16.0293837"><ele>1060.4</ele><time>2026-04-11T10:20:29.697Z</time></trkpt><trkpt lat="38.2504199" lon="16.0295211"><ele>1058.6</ele><time>2026-04-11T10:20:30.697Z</time></trkpt><trkpt lat="38.250419" lon="16.0296649"><ele>1056.8</ele><time>2026-04-11T10:20:31.698Z</time></trkpt><trkpt lat="38.2504176" lon="16.0297997"><ele>1055.0</ele><time>2026-04-11T10:20:32.698Z</time></trkpt><trkpt lat="38.2504073" lon="16.0299298"><ele>1054.0</ele><time>2026-04-11T10:20:33.697Z</time></trkpt><trkpt lat="38.2503895" lon="16.0300588"><ele>1053.0</ele><time>2026-04-11T10:20:34.697Z</time></trkpt><trkpt lat="38.25037" lon="16.0301798"><ele>1052.0</ele><time>2026-04-11T10:20:35.698Z</time></trkpt><trkpt lat="38.2503455" lon="16.0302965"><ele>1051.0</ele><time>2026-04-11T10:20:36.697Z</time></trkpt><trkpt lat="38.2503191" lon="16.0304023"><ele>1050.0</ele><time>2026-04-11T10:20:37.698Z</time></trkpt><trkpt lat="38.2502908" lon="16.0305054"><ele>1050.0</ele><time>2026-04-11T10:20:38.697Z</time></trkpt><trkpt lat="38.2502675" lon="16.0306043"><ele>1050.0</ele><time>2026-04-11T10:20:39.697Z</time></trkpt><trkpt lat="38.2502515" lon="16.0307058"><ele>1050.0</ele><time>2026-04-11T10:20:40.697Z</time></trkpt><trkpt lat="38.2502485" lon="16.0308094"><ele>1050.0</ele><time>2026-04-11T10:20:41.698Z</time></trkpt><trkpt lat="38.2502573" lon="16.0309043"><ele>1050.0</ele><time>2026-04-11T10:20:42.697Z</time></trkpt><trkpt lat="38.2502881" lon="16.0310127"><ele>1050.0</ele><time>2026-04-11T10:20:43.697Z</time></trkpt><trkpt lat="38.2503347" lon="16.0311325"><ele>1048.5</ele><time>2026-04-11T10:20:44.697Z</time></trkpt><trkpt lat="38.2503892" lon="16.0312527"><ele>1047.0</ele><time>2026-04-11T10:20:45.697Z</time></trkpt><trkpt lat="38.2504424" lon="16.0313699"><ele>1045.5</ele><time>2026-04-11T10:20:46.697Z</time></trkpt><trkpt lat="38.2505034" lon="16.0314902"><ele>1044.0</ele><time>2026-04-11T10:20:47.697Z</time></trkpt><trkpt lat="38.2505736" lon="16.0316221"><ele>1045.0</ele><time>2026-04-11T10:20:48.697Z</time></trkpt><trkpt lat="38.2506437" lon="16.0317519"><ele>1046.0</ele><time>2026-04-11T10:20:49.697Z</time></trkpt><trkpt lat="38.2507223" lon="16.0318749"><ele>1047.0</ele><time>2026-04-11T10:20:50.698Z</time></trkpt><trkpt lat="38.2508098" lon="16.0319971"><ele>1048.0</ele><time>2026-04-11T10:20:51.697Z</time></trkpt><trkpt lat="38.2509063" lon="16.0321149"><ele>1048.0</ele><time>2026-04-11T10:20:52.698Z</time></trkpt><trkpt lat="38.2510138" lon="16.0322314"><ele>1048.0</ele><time>2026-04-11T10:20:53.697Z</time></trkpt><trkpt lat="38.2511236" lon="16.0323429"><ele>1048.0</ele><time>2026-04-11T10:20:54.698Z</time></trkpt><trkpt lat="38.2512299" lon="16.0324603"><ele>1048.0</ele><time>2026-04-11T10:20:55.697Z</time></trkpt><trkpt lat="38.251333" lon="16.0325732"><ele>1047.25</ele><time>2026-04-11T10:20:56.698Z</time></trkpt><trkpt lat="38.2514394" lon="16.0326853"><ele>1046.5</ele><time>2026-04-11T10:20:57.697Z</time></trkpt><trkpt lat="38.2515379" lon="16.0327948"><ele>1045.75</ele><time>2026-04-11T10:20:58.697Z</time></trkpt><trkpt lat="38.2516303" lon="16.0328977"><ele>1045.0</ele><time>2026-04-11T10:20:59.698Z</time></trkpt><trkpt lat="38.2517087" lon="16.032997"><ele>1045.0</ele><time>2026-04-11T10:21:00.697Z</time></trkpt><trkpt lat="38.2517833" lon="16.0330807"><ele>1045.0</ele><time>2026-04-11T10:21:01.697Z</time></trkpt><trkpt lat="38.251856" lon="16.0331577"><ele>1045.0</ele><time>2026-04-11T10:21:02.698Z</time></trkpt><trkpt lat="38.2519263" lon="16.0332372"><ele>1045.0</ele><time>2026-04-11T10:21:03.697Z</time></trkpt><trkpt lat="38.2520025" lon="16.0333025"><ele>1045.0</ele><time>2026-04-11T10:21:04.697Z</time></trkpt><trkpt lat="38.2520859" lon="16.0333484"><ele>1043.0</ele><time>2026-04-11T10:21:05.697Z</time></trkpt><trkpt lat="38.2521775" lon="16.0333882"><ele>1041.0</ele><time>2026-04-11T10:21:06.698Z</time></trkpt><trkpt lat="38.2522761" lon="16.0334164"><ele>1039.0</ele><time>2026-04-11T10:21:07.697Z</time></trkpt><trkpt lat="38.2523789" lon="16.0334365"><ele>1037.0</ele><time>2026-04-11T10:21:08.698Z</time></trkpt><trkpt lat="38.2524762" lon="16.0334601"><ele>1035.0</ele><time>2026-04-11T10:21:09.697Z</time></trkpt><trkpt lat="38.2525592" lon="16.0334933"><ele>1035.0</ele><time>2026-04-11T10:21:10.697Z</time></trkpt><trkpt lat="38.2526343" lon="16.0335312"><ele>1035.0</ele><time>2026-04-11T10:21:11.697Z</time></trkpt><trkpt lat="38.2526987" lon="16.0335937"><ele>1035.0</ele><time>2026-04-11T10:21:12.697Z</time></trkpt><trkpt lat="38.252754" lon="16.0336854"><ele>1035.0</ele><time>2026-04-11T10:21:13.697Z</time></trkpt><trkpt lat="38.2528113" lon="16.0337977"><ele>1035.0</ele><time>2026-04-11T10:21:14.698Z</time></trkpt><trkpt lat="38.2528741" lon="16.0339125"><ele>1035.0</ele><time>2026-04-11T10:21:15.697Z</time></trkpt><trkpt lat="38.2529443" lon="16.0340083"><ele>1035.0</ele><time>2026-04-11T10:21:16.697Z</time></trkpt><trkpt lat="38.2530111" lon="16.034089"><ele>1035.0</ele><time>2026-04-11T10:21:17.697Z</time></trkpt><trkpt lat="38.2530576" lon="16.0341625"><ele>1035.0</ele><time>2026-04-11T10:21:18.697Z</time></trkpt><trkpt lat="38.2530869" lon="16.0342346"><ele>1035.0</ele><time>2026-04-11T10:21:19.697Z</time></trkpt><trkpt lat="38.2530876" lon="16.0343737"><ele>1035.0</ele><time>2026-04-11T10:21:21.698Z</time></trkpt><trkpt lat="38.2529973" lon="16.0344797"><ele>1034.0</ele><time>2026-04-11T10:21:23.698Z</time></trkpt><trkpt lat="38.2529205" lon="16.0344971"><ele>1033.0</ele><time>2026-04-11T10:21:24.698Z</time></trkpt><trkpt lat="38.2528196" lon="16.0344748"><ele>1032.0</ele><time>2026-04-11T10:21:25.697Z</time></trkpt><trkpt lat="38.2526991" lon="16.0344339"><ele>1031.0</ele><time>2026-04-11T10:21:26.697Z</time></trkpt><trkpt lat="38.2525743" lon="16.0343808"><ele>1030.0</ele><time>2026-04-11T10:21:27.697Z</time></trkpt><trkpt lat="38.2524376" lon="16.0343128"><ele>1030.0</ele><time>2026-04-11T10:21:28.698Z</time></trkpt><trkpt lat="38.252304" lon="16.0342385"><ele>1030.0</ele><time>2026-04-11T10:21:29.698Z</time></trkpt><trkpt lat="38.2521686" lon="16.0341721"><ele>1030.0</ele><time>2026-04-11T10:21:30.698Z</time></trkpt><trkpt lat="38.2520438" lon="16.0341081"><ele>1030.0</ele><time>2026-04-11T10:21:31.697Z</time></trkpt><trkpt lat="38.2519302" lon="16.034054"><ele>1031.0</ele><time>2026-04-11T10:21:32.697Z</time></trkpt><trkpt lat="38.2518205" lon="16.0340137"><ele>1032.0</ele><time>2026-04-11T10:21:33.697Z</time></trkpt><trkpt lat="38.2517229" lon="16.0339962"><ele>1033.0</ele><time>2026-04-11T10:21:34.697Z</time></trkpt><trkpt lat="38.2516354" lon="16.0340042"><ele>1034.0</ele><time>2026-04-11T10:21:35.698Z</time></trkpt><trkpt lat="38.2515517" lon="16.0340375"><ele>1035.0</ele><time>2026-04-11T10:21:36.697Z</time></trkpt><trkpt lat="38.2514639" lon="16.0340976"><ele>1026.5</ele><time>2026-04-11T10:21:37.698Z</time></trkpt><trkpt lat="38.2513736" lon="16.0341971"><ele>1018.0</ele><time>2026-04-11T10:21:38.697Z</time></trkpt><trkpt lat="38.2512872" lon="16.0343287"><ele>1009.5</ele><time>2026-04-11T10:21:39.697Z</time></trkpt><trkpt lat="38.251203" lon="16.0344756"><ele>1001.0</ele><time>2026-04-11T10:21:40.697Z</time></trkpt><trkpt lat="38.2511236" lon="16.0346161"><ele>1001.0</ele><time>2026-04-11T10:21:41.698Z</time></trkpt><trkpt lat="38.2510471" lon="16.0347547"><ele>1001.0</ele><time>2026-04-11T10:21:42.698Z</time></trkpt><trkpt lat="38.2509625" lon="16.0349099"><ele>1001.0</ele><time>2026-04-11T10:21:43.697Z</time></trkpt><trkpt lat="38.2508894" lon="16.035074"><ele>1001.0</ele><time>2026-04-11T10:21:44.697Z</time></trkpt><trkpt lat="38.2508353" lon="16.0352425"><ele>1004.0</ele><time>2026-04-11T10:21:45.697Z</time></trkpt><trkpt lat="38.2507927" lon="16.0354293"><ele>1007.0</ele><time>2026-04-11T10:21:46.697Z</time></trkpt><trkpt lat="38.2507462" lon="16.0356111"><ele>1010.0</ele><time>2026-04-11T10:21:47.698Z</time></trkpt><trkpt lat="38.2506706" lon="16.0357793"><ele>1008.25</ele><time>2026-04-11T10:21:48.698Z</time></trkpt><trkpt lat="38.2505895" lon="16.0359368"><ele>1006.5</ele><time>2026-04-11T10:21:49.697Z</time></trkpt><trkpt lat="38.2505075" lon="16.0360813"><ele>1004.75</ele><time>2026-04-11T10:21:50.697Z</time></trkpt><trkpt lat="38.2504295" lon="16.0362317"><ele>1003.0</ele><time>2026-04-11T10:21:51.697Z</time></trkpt><trkpt lat="38.2503612" lon="16.0363977"><ele>1003.0</ele><time>2026-04-11T10:21:52.698Z</time></trkpt><trkpt lat="38.2503067" lon="16.0365805"><ele>1003.0</ele><time>2026-04-11T10:21:53.697Z</time></trkpt><trkpt lat="38.2502509" lon="16.0367763"><ele>1003.0</ele><time>2026-04-11T10:21:54.698Z</time></trkpt><trkpt lat="38.2501862" lon="16.0369686"><ele>1008.3333333333333</ele><time>2026-04-11T10:21:55.697Z</time></trkpt><trkpt lat="38.2501121" lon="16.0371452"><ele>1013.6666666666667</ele><time>2026-04-11T10:21:56.697Z</time></trkpt><trkpt lat="38.250031" lon="16.0373121"><ele>1019.0</ele><time>2026-04-11T10:21:57.697Z</time></trkpt><trkpt lat="38.2499613" lon="16.0374739"><ele>1019.0</ele><time>2026-04-11T10:21:58.697Z</time></trkpt><trkpt lat="38.2499075" lon="16.0376254"><ele>1019.0</ele><time>2026-04-11T10:21:59.698Z</time></trkpt><trkpt lat="38.2498505" lon="16.0377573"><ele>1019.0</ele><time>2026-04-11T10:22:00.697Z</time></trkpt><trkpt lat="38.2497759" lon="16.037879"><ele>1019.0</ele><time>2026-04-11T10:22:01.698Z</time></trkpt><trkpt lat="38.2496867" lon="16.0379899"><ele>1018.25</ele><time>2026-04-11T10:22:02.697Z</time></trkpt><trkpt lat="38.2495786" lon="16.0380917"><ele>1017.5</ele><time>2026-04-11T10:22:03.697Z</time></trkpt><trkpt lat="38.249469" lon="16.0382099"><ele>1016.75</ele><time>2026-04-11T10:22:04.697Z</time></trkpt><trkpt lat="38.2493674" lon="16.0383166"><ele>1016.0</ele><time>2026-04-11T10:22:05.697Z</time></trkpt><trkpt lat="38.2492858" lon="16.0384238"><ele>1018.5</ele><time>2026-04-11T10:22:06.697Z</time></trkpt><trkpt lat="38.2492311" lon="16.0385334"><ele>1021.0</ele><time>2026-04-11T10:22:07.697Z</time></trkpt><trkpt lat="38.2491839" lon="16.0386643"><ele>1023.5</ele><time>2026-04-11T10:22:08.698Z</time></trkpt><trkpt lat="38.2491655" lon="16.0388213"><ele>1026.0</ele><time>2026-04-11T10:22:09.697Z</time></trkpt><trkpt lat="38.2491727" lon="16.0389742"><ele>1026.0</ele><time>2026-04-11T10:22:10.697Z</time></trkpt><trkpt lat="38.2492143" lon="16.0391227"><ele>1026.0</ele><time>2026-04-11T10:22:11.697Z</time></trkpt><trkpt lat="38.2492658" lon="16.0392728"><ele>1026.0</ele><time>2026-04-11T10:22:12.698Z</time></trkpt><trkpt lat="38.2493206" lon="16.0394169"><ele>1026.0</ele><time>2026-04-11T10:22:13.697Z</time></trkpt><trkpt lat="38.2493523" lon="16.0395601"><ele>1026.0</ele><time>2026-04-11T10:22:14.697Z</time></trkpt><trkpt lat="38.2493595" lon="16.0397144"><ele>1026.0</ele><time>2026-04-11T10:22:15.697Z</time></trkpt><trkpt lat="38.2493603" lon="16.0398728"><ele>1026.0</ele><time>2026-04-11T10:22:16.697Z</time></trkpt><trkpt lat="38.2493581" lon="16.0400358"><ele>1026.0</ele><time>2026-04-11T10:22:17.697Z</time></trkpt><trkpt lat="38.2493663" lon="16.0401963"><ele>1022.8</ele><time>2026-04-11T10:22:18.697Z</time></trkpt><trkpt lat="38.2493875" lon="16.0403388"><ele>1019.5999999999999</ele><time>2026-04-11T10:22:19.697Z</time></trkpt><trkpt lat="38.2494315" lon="16.0404678"><ele>1016.4</ele><time>2026-04-11T10:22:20.697Z</time></trkpt><trkpt lat="38.2495026" lon="16.0405727"><ele>1013.2</ele><time>2026-04-11T10:22:21.697Z</time></trkpt><trkpt lat="38.2495945" lon="16.0406516"><ele>1010.0</ele><time>2026-04-11T10:22:22.697Z</time></trkpt><trkpt lat="38.2497037" lon="16.0407074"><ele>1011.25</ele><time>2026-04-11T10:22:23.697Z</time></trkpt><trkpt lat="38.2498199" lon="16.040769"><ele>1012.5</ele><time>2026-04-11T10:22:24.697Z</time></trkpt><trkpt lat="38.2499187" lon="16.0408431"><ele>1013.75</ele><time>2026-04-11T10:22:25.697Z</time></trkpt><trkpt lat="38.2499878" lon="16.0409505"><ele>1015.0</ele><time>2026-04-11T10:22:26.698Z</time></trkpt><trkpt lat="38.2500273" lon="16.0410707"><ele>1018.6</ele><time>2026-04-11T10:22:27.697Z</time></trkpt><trkpt lat="38.2500508" lon="16.041192"><ele>1022.2</ele><time>2026-04-11T10:22:28.698Z</time></trkpt><trkpt lat="38.2500716" lon="16.0413115"><ele>1025.8</ele><time>2026-04-11T10:22:29.697Z</time></trkpt><trkpt lat="38.2501077" lon="16.0414135"><ele>1029.4</ele><time>2026-04-11T10:22:30.697Z</time></trkpt><trkpt lat="38.2501633" lon="16.0414966"><ele>1033.0</ele><time>2026-04-11T10:22:31.697Z</time></trkpt><trkpt lat="38.2502357" lon="16.0415598"><ele>1033.0</ele><time>2026-04-11T10:22:32.697Z</time></trkpt><trkpt lat="38.2503164" lon="16.0416058"><ele>1033.0</ele><time>2026-04-11T10:22:33.698Z</time></trkpt><trkpt lat="38.2504115" lon="16.0416109"><ele>1033.0</ele><time>2026-04-11T10:22:34.697Z</time></trkpt><trkpt lat="38.2505203" lon="16.0415823"><ele>1033.0</ele><time>2026-04-11T10:22:35.698Z</time></trkpt><trkpt lat="38.2506344" lon="16.0415144"><ele>1033.0</ele><time>2026-04-11T10:22:36.697Z</time></trkpt><trkpt lat="38.2507374" lon="16.0413975"><ele>1033.8</ele><time>2026-04-11T10:22:37.697Z</time></trkpt><trkpt lat="38.2508226" lon="16.0412859"><ele>1034.6</ele><time>2026-04-11T10:22:38.697Z</time></trkpt><trkpt lat="38.2509018" lon="16.0411966"><ele>1035.4</ele><time>2026-04-11T10:22:39.698Z</time></trkpt><trkpt lat="38.2509883" lon="16.0411404"><ele>1036.2</ele><time>2026-04-11T10:22:40.697Z</time></trkpt><trkpt lat="38.2510877" lon="16.0411262"><ele>1037.0</ele><time>2026-04-11T10:22:41.697Z</time></trkpt><trkpt lat="38.2511846" lon="16.0411442"><ele>1037.0</ele><time>2026-04-11T10:22:42.698Z</time></trkpt><trkpt lat="38.2512847" lon="16.0412015"><ele>1037.0</ele><time>2026-04-11T10:22:43.698Z</time></trkpt><trkpt lat="38.2513846" lon="16.0412958"><ele>1037.0</ele><time>2026-04-11T10:22:44.698Z</time></trkpt><trkpt lat="38.2514693" lon="16.0413932"><ele>1037.0</ele><time>2026-04-11T10:22:45.697Z</time></trkpt><trkpt lat="38.2515405" lon="16.0414932"><ele>1035.8333333333335</ele><time>2026-04-11T10:22:46.698Z</time></trkpt><trkpt lat="38.2515836" lon="16.0415993"><ele>1034.6666666666667</ele><time>2026-04-11T10:22:47.698Z</time></trkpt><trkpt lat="38.2516101" lon="16.0417053"><ele>1033.5</ele><time>2026-04-11T10:22:48.698Z</time></trkpt><trkpt lat="38.2516129" lon="16.0418105"><ele>1032.3333333333333</ele><time>2026-04-11T10:22:49.698Z</time></trkpt><trkpt lat="38.2515868" lon="16.0419115"><ele>1031.1666666666665</ele><time>2026-04-11T10:22:50.698Z</time></trkpt><trkpt lat="38.2515444" lon="16.0419971"><ele>1030.0</ele><time>2026-04-11T10:22:51.697Z</time></trkpt><trkpt lat="38.2514824" lon="16.0420742"><ele>1035.3333333333333</ele><time>2026-04-11T10:22:52.697Z</time></trkpt><trkpt lat="38.2514024" lon="16.0421247"><ele>1040.6666666666665</ele><time>2026-04-11T10:22:53.698Z</time></trkpt><trkpt lat="38.2513141" lon="16.042144"><ele>1046.0</ele><time>2026-04-11T10:22:54.697Z</time></trkpt><trkpt lat="38.2512431" lon="16.042126"><ele>1051.3333333333333</ele><time>2026-04-11T10:22:55.698Z</time></trkpt><trkpt lat="38.2511962" lon="16.0420719"><ele>1056.6666666666667</ele><time>2026-04-11T10:22:56.698Z</time></trkpt><trkpt lat="38.2511859" lon="16.0419846"><ele>1062.0</ele><time>2026-04-11T10:22:57.697Z</time></trkpt><trkpt lat="38.2512109" lon="16.0418892"><ele>1062.0</ele><time>2026-04-11T10:22:58.697Z</time></trkpt><trkpt lat="38.2512526" lon="16.0417882"><ele>1062.0</ele><time>2026-04-11T10:22:59.697Z</time></trkpt><trkpt lat="38.2512888" lon="16.0416841"><ele>1062.0</ele><time>2026-04-11T10:23:00.697Z</time></trkpt><trkpt lat="38.25131" lon="16.0415855"><ele>1062.0</ele><time>2026-04-11T10:23:01.697Z</time></trkpt><trkpt lat="38.2513031" lon="16.0414966"><ele>1062.0</ele><time>2026-04-11T10:23:02.697Z</time></trkpt><trkpt lat="38.2512603" lon="16.0414265"><ele>1062.0</ele><time>2026-04-11T10:23:03.698Z</time></trkpt><trkpt lat="38.2512021" lon="16.0413837"><ele>1062.0</ele><time>2026-04-11T10:23:04.697Z</time></trkpt><trkpt lat="38.2511329" lon="16.0413753"><ele>1062.0</ele><time>2026-04-11T10:23:05.698Z</time></trkpt><trkpt lat="38.2510597" lon="16.0414041"><ele>1062.0</ele><time>2026-04-11T10:23:06.697Z</time></trkpt><trkpt lat="38.250978" lon="16.041468"><ele>1062.0</ele><time>2026-04-11T10:23:07.697Z</time></trkpt><trkpt lat="38.25089" lon="16.041558"><ele>1062.0</ele><time>2026-04-11T10:23:08.697Z</time></trkpt><trkpt lat="38.2507919" lon="16.0416599"><ele>1062.0</ele><time>2026-04-11T10:23:09.697Z</time></trkpt><trkpt lat="38.2506927" lon="16.0417644"><ele>1062.0</ele><time>2026-04-11T10:23:10.697Z</time></trkpt><trkpt lat="38.2505842" lon="16.0418728"><ele>1062.0</ele><time>2026-04-11T10:23:11.697Z</time></trkpt><trkpt lat="38.2504712" lon="16.0419812"><ele>1062.0</ele><time>2026-04-11T10:23:12.697Z</time></trkpt><trkpt lat="38.2503563" lon="16.0420855"><ele>1059.5</ele><time>2026-04-11T10:23:13.698Z</time></trkpt><trkpt lat="38.2502498" lon="16.0421882"><ele>1057.0</ele><time>2026-04-11T10:23:14.698Z</time></trkpt><trkpt lat="38.2501502" lon="16.0422902"><ele>1054.5</ele><time>2026-04-11T10:23:15.697Z</time></trkpt><trkpt lat="38.2500505" lon="16.0424024"><ele>1052.0</ele><time>2026-04-11T10:23:16.697Z</time></trkpt><trkpt lat="38.2499464" lon="16.0425257"><ele>1054.5</ele><time>2026-04-11T10:23:17.697Z</time></trkpt><trkpt lat="38.2498544" lon="16.0426506"><ele>1057.0</ele><time>2026-04-11T10:23:18.698Z</time></trkpt><trkpt lat="38.2497694" lon="16.042783"><ele>1059.5</ele><time>2026-04-11T10:23:19.697Z</time></trkpt><trkpt lat="38.2496835" lon="16.0429174"><ele>1062.0</ele><time>2026-04-11T10:23:20.697Z</time></trkpt><trkpt lat="38.2495973" lon="16.0430495"><ele>1062.0</ele><time>2026-04-11T10:23:21.698Z</time></trkpt><trkpt lat="38.2494992" lon="16.0431892"><ele>1062.0</ele><time>2026-04-11T10:23:22.697Z</time></trkpt><trkpt lat="38.2493952" lon="16.0433281"><ele>1062.0</ele><time>2026-04-11T10:23:23.697Z</time></trkpt><trkpt lat="38.2492932" lon="16.0434617"><ele>1062.0</ele><time>2026-04-11T10:23:24.697Z</time></trkpt><trkpt lat="38.2491945" lon="16.0435888"><ele>1060.75</ele><time>2026-04-11T10:23:25.697Z</time></trkpt><trkpt lat="38.2490997" lon="16.0437142"><ele>1059.5</ele><time>2026-04-11T10:23:26.697Z</time></trkpt><trkpt lat="38.249012" lon="16.0438443"><ele>1058.25</ele><time>2026-04-11T10:23:27.697Z</time></trkpt><trkpt lat="38.2489363" lon="16.0439797"><ele>1057.0</ele><time>2026-04-11T10:23:28.698Z</time></trkpt><trkpt lat="38.2488785" lon="16.04412"><ele>1062.75</ele><time>2026-04-11T10:23:29.697Z</time></trkpt><trkpt lat="38.2488487" lon="16.0442682"><ele>1068.5</ele><time>2026-04-11T10:23:30.697Z</time></trkpt><trkpt lat="38.2488634" lon="16.0444279"><ele>1074.25</ele><time>2026-04-11T10:23:31.697Z</time></trkpt><trkpt lat="38.2489283" lon="16.0445816"><ele>1080.0</ele><time>2026-04-11T10:23:32.697Z</time></trkpt><trkpt lat="38.2490325" lon="16.0447167"><ele>1082.0</ele><time>2026-04-11T10:23:33.697Z</time></trkpt><trkpt lat="38.2491534" lon="16.044823"><ele>1084.0</ele><time>2026-04-11T10:23:34.698Z</time></trkpt><trkpt lat="38.2492725" lon="16.0449155"><ele>1086.0</ele><time>2026-04-11T10:23:35.697Z</time></trkpt><trkpt lat="38.2494107" lon="16.0449888"><ele>1088.0</ele><time>2026-04-11T10:23:36.698Z</time></trkpt><trkpt lat="38.2495573" lon="16.0450688"><ele>1088.25</ele><time>2026-04-11T10:23:37.698Z</time></trkpt><trkpt lat="38.2496841" lon="16.045164"><ele>1088.5</ele><time>2026-04-11T10:23:38.697Z</time></trkpt><trkpt lat="38.2498066" lon="16.045263"><ele>1088.75</ele><time>2026-04-11T10:23:39.698Z</time></trkpt><trkpt lat="38.2499149" lon="16.045375"><ele>1089.0</ele><time>2026-04-11T10:23:40.697Z</time></trkpt><trkpt lat="38.2500174" lon="16.0454971"><ele>1089.0</ele><time>2026-04-11T10:23:41.697Z</time></trkpt><trkpt lat="38.2501107" lon="16.0456373"><ele>1089.0</ele><time>2026-04-11T10:23:42.697Z</time></trkpt><trkpt lat="38.2501921" lon="16.0457931"><ele>1089.0</ele><time>2026-04-11T10:23:43.697Z</time></trkpt><trkpt lat="38.2502736" lon="16.0459591"><ele>1089.0</ele><time>2026-04-11T10:23:44.697Z</time></trkpt><trkpt lat="38.2503467" lon="16.0461364"><ele>1089.0</ele><time>2026-04-11T10:23:45.698Z</time></trkpt><trkpt lat="38.2504098" lon="16.0463104"><ele>1089.0</ele><time>2026-04-11T10:23:46.698Z</time></trkpt><trkpt lat="38.2504623" lon="16.0464972"><ele>1089.0</ele><time>2026-04-11T10:23:47.697Z</time></trkpt><trkpt lat="38.2504998" lon="16.0466999"><ele>1088.25</ele><time>2026-04-11T10:23:48.697Z</time></trkpt><trkpt lat="38.2505247" lon="16.0468954"><ele>1087.5</ele><time>2026-04-11T10:23:49.697Z</time></trkpt><trkpt lat="38.2505374" lon="16.0470779"><ele>1086.75</ele><time>2026-04-11T10:23:50.697Z</time></trkpt><trkpt lat="38.2505316" lon="16.0472621"><ele>1086.0</ele><time>2026-04-11T10:23:51.698Z</time></trkpt><trkpt lat="38.2505145" lon="16.0474461"><ele>1085.3333333333333</ele><time>2026-04-11T10:23:52.697Z</time></trkpt><trkpt lat="38.2504905" lon="16.0476327"><ele>1084.6666666666665</ele><time>2026-04-11T10:23:53.697Z</time></trkpt><trkpt lat="38.2504703" lon="16.0478278"><ele>1084.0</ele><time>2026-04-11T10:23:54.697Z</time></trkpt><trkpt lat="38.2504587" lon="16.0480246"><ele>1084.0</ele><time>2026-04-11T10:23:55.698Z</time></trkpt><trkpt lat="38.2504485" lon="16.0482178"><ele>1084.0</ele><time>2026-04-11T10:23:56.698Z</time></trkpt><trkpt lat="38.2504366" lon="16.0484206"><ele>1084.0</ele><time>2026-04-11T10:23:57.697Z</time></trkpt><trkpt lat="38.2504325" lon="16.0486275"><ele>1084.3333333333333</ele><time>2026-04-11T10:23:58.697Z</time></trkpt><trkpt lat="38.2504243" lon="16.048838"><ele>1084.6666666666667</ele><time>2026-04-11T10:23:59.697Z</time></trkpt><trkpt lat="38.250417" lon="16.0490525"><ele>1085.0</ele><time>2026-04-11T10:24:00.697Z</time></trkpt><trkpt lat="38.2504006" lon="16.0492638"><ele>1085.0</ele><time>2026-04-11T10:24:01.697Z</time></trkpt><trkpt lat="38.2503916" lon="16.0494679"><ele>1085.0</ele><time>2026-04-11T10:24:02.697Z</time></trkpt><trkpt lat="38.2503776" lon="16.0496761"><ele>1085.0</ele><time>2026-04-11T10:24:03.697Z</time></trkpt><trkpt lat="38.250362" lon="16.0498811"><ele>1085.0</ele><time>2026-04-11T10:24:04.697Z</time></trkpt><trkpt lat="38.2503413" lon="16.0500836"><ele>1085.0</ele><time>2026-04-11T10:24:05.697Z</time></trkpt><trkpt lat="38.2503261" lon="16.0502974"><ele>1085.0</ele><time>2026-04-11T10:24:06.698Z</time></trkpt><trkpt lat="38.2503259" lon="16.0505172"><ele>1085.0</ele><time>2026-04-11T10:24:07.697Z</time></trkpt><trkpt lat="38.2503256" lon="16.0507301"><ele>1085.0</ele><time>2026-04-11T10:24:08.698Z</time></trkpt><trkpt lat="38.2503185" lon="16.0509378"><ele>1085.0</ele><time>2026-04-11T10:24:09.698Z</time></trkpt><trkpt lat="38.2502992" lon="16.0511426"><ele>1084.0</ele><time>2026-04-11T10:24:10.698Z</time></trkpt><trkpt lat="38.2502729" lon="16.0513458"><ele>1083.0</ele><time>2026-04-11T10:24:11.698Z</time></trkpt><trkpt lat="38.2502522" lon="16.0515463"><ele>1082.0</ele><time>2026-04-11T10:24:12.698Z</time></trkpt><trkpt lat="38.2502334" lon="16.0517432"><ele>1081.0</ele><time>2026-04-11T10:24:13.697Z</time></trkpt><trkpt lat="38.2502176" lon="16.0519343"><ele>1080.0</ele><time>2026-04-11T10:24:14.697Z</time></trkpt><trkpt lat="38.2502076" lon="16.0521279"><ele>1079.0</ele><time>2026-04-11T10:24:15.697Z</time></trkpt><trkpt lat="38.2502115" lon="16.0523223"><ele>1078.0</ele><time>2026-04-11T10:24:16.697Z</time></trkpt><trkpt lat="38.2502317" lon="16.0525218"><ele>1077.0</ele><time>2026-04-11T10:24:17.697Z</time></trkpt><trkpt lat="38.2502732" lon="16.0527251"><ele>1076.0</ele><time>2026-04-11T10:24:18.697Z</time></trkpt><trkpt lat="38.2503292" lon="16.0529244"><ele>1076.0</ele><time>2026-04-11T10:24:19.698Z</time></trkpt><trkpt lat="38.2503944" lon="16.0531275"><ele>1076.0</ele><time>2026-04-11T10:24:20.698Z</time></trkpt><trkpt lat="38.2504651" lon="16.0533302"><ele>1076.0</ele><time>2026-04-11T10:24:21.698Z</time></trkpt><trkpt lat="38.2505428" lon="16.0535509"><ele>1076.0</ele><time>2026-04-11T10:24:22.697Z</time></trkpt><trkpt lat="38.2506218" lon="16.0537674"><ele>1076.0</ele><time>2026-04-11T10:24:23.697Z</time></trkpt><trkpt lat="38.2506917" lon="16.0539844"><ele>1076.0</ele><time>2026-04-11T10:24:24.697Z</time></trkpt><trkpt lat="38.2507694" lon="16.0542237"><ele>1074.6666666666667</ele><time>2026-04-11T10:24:25.697Z</time></trkpt><trkpt lat="38.2508488" lon="16.054456"><ele>1073.3333333333333</ele><time>2026-04-11T10:24:26.698Z</time></trkpt><trkpt lat="38.2509289" lon="16.0546831"><ele>1072.0</ele><time>2026-04-11T10:24:27.697Z</time></trkpt><trkpt lat="38.2510108" lon="16.054909"><ele>1069.3333333333333</ele><time>2026-04-11T10:24:28.697Z</time></trkpt><trkpt lat="38.2510931" lon="16.0551307"><ele>1066.6666666666667</ele><time>2026-04-11T10:24:29.697Z</time></trkpt><trkpt lat="38.25117" lon="16.0553525"><ele>1064.0</ele><time>2026-04-11T10:24:30.697Z</time></trkpt><trkpt lat="38.25124" lon="16.0555545"><ele>1064.0</ele><time>2026-04-11T10:24:31.697Z</time></trkpt><trkpt lat="38.2513079" lon="16.0557607"><ele>1064.0</ele><time>2026-04-11T10:24:32.698Z</time></trkpt><trkpt lat="38.2513693" lon="16.0559723"><ele>1064.0</ele><time>2026-04-11T10:24:33.698Z</time></trkpt><trkpt lat="38.2514291" lon="16.0561792"><ele>1062.3333333333335</ele><time>2026-04-11T10:24:34.697Z</time></trkpt><trkpt lat="38.2514837" lon="16.0563901"><ele>1060.6666666666667</ele><time>2026-04-11T10:24:35.698Z</time></trkpt><trkpt lat="38.2515408" lon="16.0566058"><ele>1059.0</ele><time>2026-04-11T10:24:36.697Z</time></trkpt><trkpt lat="38.2515996" lon="16.0568193"><ele>1059.0</ele><time>2026-04-11T10:24:37.698Z</time></trkpt><trkpt lat="38.2516496" lon="16.057031"><ele>1059.0</ele><time>2026-04-11T10:24:38.697Z</time></trkpt><trkpt lat="38.2516948" lon="16.0572467"><ele>1059.0</ele><time>2026-04-11T10:24:39.697Z</time></trkpt><trkpt lat="38.2517357" lon="16.0574513"><ele>1059.0</ele><time>2026-04-11T10:24:40.697Z</time></trkpt><trkpt lat="38.2517787" lon="16.0576695"><ele>1059.0</ele><time>2026-04-11T10:24:41.697Z</time></trkpt><trkpt lat="38.2518234" lon="16.0578827"><ele>1059.0</ele><time>2026-04-11T10:24:42.697Z</time></trkpt><trkpt lat="38.2518683" lon="16.0580996"><ele>1058.6666666666667</ele><time>2026-04-11T10:24:43.697Z</time></trkpt><trkpt lat="38.2519106" lon="16.0583116"><ele>1058.3333333333335</ele><time>2026-04-11T10:24:44.697Z</time></trkpt><trkpt lat="38.2519437" lon="16.0585212"><ele>1058.0</ele><time>2026-04-11T10:24:45.697Z</time></trkpt><trkpt lat="38.2519915" lon="16.0587422"><ele>1058.0</ele><time>2026-04-11T10:24:46.697Z</time></trkpt><trkpt lat="38.252036" lon="16.0589607"><ele>1058.0</ele><time>2026-04-11T10:24:47.697Z</time></trkpt><trkpt lat="38.2520731" lon="16.0591644"><ele>1058.0</ele><time>2026-04-11T10:24:48.697Z</time></trkpt><trkpt lat="38.2521103" lon="16.0593533"><ele>1057.5</ele><time>2026-04-11T10:24:49.697Z</time></trkpt><trkpt lat="38.2521503" lon="16.059526"><ele>1057.0</ele><time>2026-04-11T10:24:50.698Z</time></trkpt><trkpt lat="38.2521942" lon="16.0596847"><ele>1056.5</ele><time>2026-04-11T10:24:51.698Z</time></trkpt><trkpt lat="38.2522417" lon="16.0598193"><ele>1056.0</ele><time>2026-04-11T10:24:52.698Z</time></trkpt><trkpt lat="38.2523085" lon="16.0599441"><ele>1054.0</ele><time>2026-04-11T10:24:53.697Z</time></trkpt><trkpt lat="38.2523936" lon="16.0600346"><ele>1052.0</ele><time>2026-04-11T10:24:54.697Z</time></trkpt><trkpt lat="38.2524974" lon="16.0600781"><ele>1050.0</ele><time>2026-04-11T10:24:55.698Z</time></trkpt><trkpt lat="38.2526066" lon="16.060071"><ele>1048.0</ele><time>2026-04-11T10:24:56.697Z</time></trkpt><trkpt lat="38.2527242" lon="16.0600185"><ele>1050.0</ele><time>2026-04-11T10:24:57.697Z</time></trkpt><trkpt lat="38.2528354" lon="16.0599208"><ele>1052.0</ele><time>2026-04-11T10:24:58.697Z</time></trkpt><trkpt lat="38.252942" lon="16.0598005"><ele>1054.0</ele><time>2026-04-11T10:24:59.698Z</time></trkpt><trkpt lat="38.2530374" lon="16.0596644"><ele>1056.0</ele><time>2026-04-11T10:25:00.698Z</time></trkpt><trkpt lat="38.2531061" lon="16.0595221"><ele>1054.25</ele><time>2026-04-11T10:25:01.698Z</time></trkpt><trkpt lat="38.253162" lon="16.0593695"><ele>1052.5</ele><time>2026-04-11T10:25:02.698Z</time></trkpt><trkpt lat="38.2532168" lon="16.0592179"><ele>1050.75</ele><time>2026-04-11T10:25:03.697Z</time></trkpt><trkpt lat="38.2532859" lon="16.059065"><ele>1049.0</ele><time>2026-04-11T10:25:04.697Z</time></trkpt><trkpt lat="38.2533652" lon="16.058917"><ele>1049.0</ele><time>2026-04-11T10:25:05.697Z</time></trkpt><trkpt lat="38.2534601" lon="16.0587635"><ele>1049.0</ele><time>2026-04-11T10:25:06.698Z</time></trkpt><trkpt lat="38.2535603" lon="16.0586248"><ele>1049.0</ele><time>2026-04-11T10:25:07.697Z</time></trkpt><trkpt lat="38.2536663" lon="16.0584942"><ele>1049.0</ele><time>2026-04-11T10:25:08.698Z</time></trkpt><trkpt lat="38.2537692" lon="16.0583737"><ele>1050.0</ele><time>2026-04-11T10:25:09.697Z</time></trkpt><trkpt lat="38.253872" lon="16.0582727"><ele>1051.0</ele><time>2026-04-11T10:25:10.697Z</time></trkpt><trkpt lat="38.25397" lon="16.0581806"><ele>1052.0</ele><time>2026-04-11T10:25:11.698Z</time></trkpt><trkpt lat="38.2540693" lon="16.0581027"><ele>1053.0</ele><time>2026-04-11T10:25:12.697Z</time></trkpt><trkpt lat="38.2541657" lon="16.0580452"><ele>1048.6</ele><time>2026-04-11T10:25:13.697Z</time></trkpt><trkpt lat="38.2542627" lon="16.0580127"><ele>1044.1999999999998</ele><time>2026-04-11T10:25:14.697Z</time></trkpt><trkpt lat="38.2543667" lon="16.057995"><ele>1039.8</ele><time>2026-04-11T10:25:15.697Z</time></trkpt><trkpt lat="38.2544773" lon="16.057986"><ele>1035.3999999999999</ele><time>2026-04-11T10:25:16.697Z</time></trkpt><trkpt lat="38.2545924" lon="16.0579771"><ele>1031.0</ele><time>2026-04-11T10:25:17.698Z</time></trkpt><trkpt lat="38.2547176" lon="16.0579593"><ele>1026.0</ele><time>2026-04-11T10:25:18.697Z</time></trkpt><trkpt lat="38.254844" lon="16.0579306"><ele>1021.0</ele><time>2026-04-11T10:25:19.697Z</time></trkpt><trkpt lat="38.2549766" lon="16.0578821"><ele>1016.0</ele><time>2026-04-11T10:25:20.698Z</time></trkpt><trkpt lat="38.2551155" lon="16.0578245"><ele>1011.0</ele><time>2026-04-11T10:25:21.697Z</time></trkpt><trkpt lat="38.2552496" lon="16.0577641"><ele>1011.0</ele><time>2026-04-11T10:25:22.697Z</time></trkpt><trkpt lat="38.2553802" lon="16.0576996"><ele>1011.0</ele><time>2026-04-11T10:25:23.698Z</time></trkpt><trkpt lat="38.2555021" lon="16.0576485"><ele>1011.0</ele><time>2026-04-11T10:25:24.697Z</time></trkpt><trkpt lat="38.2556202" lon="16.0576054"><ele>1011.0</ele><time>2026-04-11T10:25:25.697Z</time></trkpt><trkpt lat="38.2557288" lon="16.0575824"><ele>1012.5</ele><time>2026-04-11T10:25:26.697Z</time></trkpt><trkpt lat="38.2558352" lon="16.0575906"><ele>1014.0</ele><time>2026-04-11T10:25:27.698Z</time></trkpt><trkpt lat="38.2559378" lon="16.0576311"><ele>1015.5</ele><time>2026-04-11T10:25:28.698Z</time></trkpt><trkpt lat="38.2560353" lon="16.0577087"><ele>1017.0</ele><time>2026-04-11T10:25:29.697Z</time></trkpt><trkpt lat="38.2561353" lon="16.0578061"><ele>1017.0</ele><time>2026-04-11T10:25:30.697Z</time></trkpt><trkpt lat="38.2562367" lon="16.0579133"><ele>1017.0</ele><time>2026-04-11T10:25:31.698Z</time></trkpt><trkpt lat="38.256337" lon="16.0580234"><ele>1017.0</ele><time>2026-04-11T10:25:32.697Z</time></trkpt><trkpt lat="38.2564299" lon="16.0581232"><ele>1017.0</ele><time>2026-04-11T10:25:33.697Z</time></trkpt><trkpt lat="38.2565229" lon="16.058224"><ele>1020.4000000000001</ele><time>2026-04-11T10:25:34.697Z</time></trkpt><trkpt lat="38.2566042" lon="16.0583159"><ele>1023.8000000000001</ele><time>2026-04-11T10:25:35.698Z</time></trkpt><trkpt lat="38.2566771" lon="16.0584002"><ele>1027.2</ele><time>2026-04-11T10:25:36.697Z</time></trkpt><trkpt lat="38.2567548" lon="16.0584843"><ele>1030.6000000000001</ele><time>2026-04-11T10:25:37.697Z</time></trkpt><trkpt lat="38.2568394" lon="16.0585686"><ele>1034.0</ele><time>2026-04-11T10:25:38.697Z</time></trkpt><trkpt lat="38.2569338" lon="16.0586519"><ele>1034.0</ele><time>2026-04-11T10:25:39.698Z</time></trkpt><trkpt lat="38.257035" lon="16.0587328"><ele>1034.0</ele><time>2026-04-11T10:25:40.697Z</time></trkpt><trkpt lat="38.2571366" lon="16.0588125"><ele>1034.0</ele><time>2026-04-11T10:25:41.698Z</time></trkpt><trkpt lat="38.2572415" lon="16.058889"><ele>1034.0</ele><time>2026-04-11T10:25:42.698Z</time></trkpt><trkpt lat="38.2573592" lon="16.0589575"><ele>1036.25</ele><time>2026-04-11T10:25:43.697Z</time></trkpt><trkpt lat="38.2574821" lon="16.0590281"><ele>1038.5</ele><time>2026-04-11T10:25:44.697Z</time></trkpt><trkpt lat="38.2576022" lon="16.0591035"><ele>1040.75</ele><time>2026-04-11T10:25:45.698Z</time></trkpt><trkpt lat="38.2577143" lon="16.0591824"><ele>1043.0</ele><time>2026-04-11T10:25:46.697Z</time></trkpt><trkpt lat="38.2578121" lon="16.059262"><ele>1043.0</ele><time>2026-04-11T10:25:47.697Z</time></trkpt><trkpt lat="38.2579044" lon="16.0593358"><ele>1043.0</ele><time>2026-04-11T10:25:48.697Z</time></trkpt><trkpt lat="38.2579931" lon="16.0594137"><ele>1043.0</ele><time>2026-04-11T10:25:49.698Z</time></trkpt><trkpt lat="38.2580838" lon="16.0594941"><ele>1043.0</ele><time>2026-04-11T10:25:50.697Z</time></trkpt><trkpt lat="38.258171" lon="16.0595837"><ele>1043.0</ele><time>2026-04-11T10:25:51.697Z</time></trkpt><trkpt lat="38.2582636" lon="16.0596734"><ele>1043.5</ele><time>2026-04-11T10:25:52.698Z</time></trkpt><trkpt lat="38.2583531" lon="16.0597777"><ele>1044.0</ele><time>2026-04-11T10:25:53.697Z</time></trkpt><trkpt lat="38.2584371" lon="16.0598851"><ele>1044.5</ele><time>2026-04-11T10:25:54.697Z</time></trkpt><trkpt lat="38.2585206" lon="16.0599869"><ele>1045.0</ele><time>2026-04-11T10:25:55.698Z</time></trkpt><trkpt lat="38.2586075" lon="16.0600913"><ele>1045.0</ele><time>2026-04-11T10:25:56.698Z</time></trkpt><trkpt lat="38.2586918" lon="16.0601904"><ele>1045.0</ele><time>2026-04-11T10:25:57.697Z</time></trkpt><trkpt lat="38.258768" lon="16.0602953"><ele>1045.0</ele><time>2026-04-11T10:25:58.697Z</time></trkpt><trkpt lat="38.2588482" lon="16.0603953"><ele>1045.0</ele><time>2026-04-11T10:25:59.697Z</time></trkpt><trkpt lat="38.2589293" lon="16.0604905"><ele>1045.0</ele><time>2026-04-11T10:26:00.697Z</time></trkpt><trkpt lat="38.2590069" lon="16.060585"><ele>1044.25</ele><time>2026-04-11T10:26:01.698Z</time></trkpt><trkpt lat="38.2590936" lon="16.0606772"><ele>1043.5</ele><time>2026-04-11T10:26:02.698Z</time></trkpt><trkpt lat="38.2591769" lon="16.0607705"><ele>1042.75</ele><time>2026-04-11T10:26:03.698Z</time></trkpt><trkpt lat="38.2592615" lon="16.060865"><ele>1042.0</ele><time>2026-04-11T10:26:04.697Z</time></trkpt><trkpt lat="38.2593491" lon="16.0609632"><ele>1042.0</ele><time>2026-04-11T10:26:05.697Z</time></trkpt><trkpt lat="38.2594367" lon="16.0610651"><ele>1042.0</ele><time>2026-04-11T10:26:06.698Z</time></trkpt><trkpt lat="38.2595337" lon="16.061169"><ele>1042.0</ele><time>2026-04-11T10:26:07.697Z</time></trkpt><trkpt lat="38.2596392" lon="16.0612686"><ele>1042.0</ele><time>2026-04-11T10:26:08.697Z</time></trkpt><trkpt lat="38.2597346" lon="16.0613674"><ele>1041.25</ele><time>2026-04-11T10:26:09.697Z</time></trkpt><trkpt lat="38.259827" lon="16.0614688"><ele>1040.5</ele><time>2026-04-11T10:26:10.697Z</time></trkpt><trkpt lat="38.2599129" lon="16.0615784"><ele>1039.75</ele><time>2026-04-11T10:26:11.698Z</time></trkpt><trkpt lat="38.2600033" lon="16.0616904"><ele>1039.0</ele><time>2026-04-11T10:26:12.697Z</time></trkpt><trkpt lat="38.2600953" lon="16.061803"><ele>1039.0</ele><time>2026-04-11T10:26:13.697Z</time></trkpt><trkpt lat="38.26019" lon="16.0619216"><ele>1039.0</ele><time>2026-04-11T10:26:14.698Z</time></trkpt><trkpt lat="38.2602877" lon="16.0620455"><ele>1039.0</ele><time>2026-04-11T10:26:15.697Z</time></trkpt><trkpt lat="38.2603923" lon="16.0621695"><ele>1039.0</ele><time>2026-04-11T10:26:16.697Z</time></trkpt><trkpt lat="38.2604977" lon="16.0622948"><ele>1039.0</ele><time>2026-04-11T10:26:17.697Z</time></trkpt><trkpt lat="38.260596" lon="16.0624236"><ele>1039.0</ele><time>2026-04-11T10:26:18.697Z</time></trkpt><trkpt lat="38.2606948" lon="16.0625495"><ele>1039.0</ele><time>2026-04-11T10:26:19.697Z</time></trkpt><trkpt lat="38.2608009" lon="16.0626745"><ele>1039.0</ele><time>2026-04-11T10:26:20.697Z</time></trkpt><trkpt lat="38.2609138" lon="16.0627971"><ele>1038.0</ele><time>2026-04-11T10:26:21.698Z</time></trkpt><trkpt lat="38.2610292" lon="16.0629171"><ele>1037.0</ele><time>2026-04-11T10:26:22.697Z</time></trkpt><trkpt lat="38.2611391" lon="16.0630345"><ele>1036.0</ele><time>2026-04-11T10:26:23.697Z</time></trkpt><trkpt lat="38.2612339" lon="16.0631555"><ele>1035.0</ele><time>2026-04-11T10:26:24.698Z</time></trkpt><trkpt lat="38.2613244" lon="16.0632672"><ele>1034.5</ele><time>2026-04-11T10:26:25.698Z</time></trkpt><trkpt lat="38.2614088" lon="16.063374"><ele>1034.0</ele><time>2026-04-11T10:26:26.698Z</time></trkpt><trkpt lat="38.2614988" lon="16.0634764"><ele>1033.5</ele><time>2026-04-11T10:26:27.697Z</time></trkpt><trkpt lat="38.2615896" lon="16.0635818"><ele>1033.0</ele><time>2026-04-11T10:26:28.698Z</time></trkpt><trkpt lat="38.2616772" lon="16.063687"><ele>1033.0</ele><time>2026-04-11T10:26:29.698Z</time></trkpt><trkpt lat="38.2617625" lon="16.0637897"><ele>1033.0</ele><time>2026-04-11T10:26:30.697Z</time></trkpt><trkpt lat="38.2618461" lon="16.0638915"><ele>1033.0</ele><time>2026-04-11T10:26:31.697Z</time></trkpt><trkpt lat="38.2619305" lon="16.0639976"><ele>1033.0</ele><time>2026-04-11T10:26:32.697Z</time></trkpt><trkpt lat="38.2620153" lon="16.0640966"><ele>1033.4</ele><time>2026-04-11T10:26:33.697Z</time></trkpt><trkpt lat="38.2620998" lon="16.0641949"><ele>1033.8</ele><time>2026-04-11T10:26:34.697Z</time></trkpt><trkpt lat="38.2621831" lon="16.0642897"><ele>1034.2</ele><time>2026-04-11T10:26:35.698Z</time></trkpt><trkpt lat="38.2622663" lon="16.0643801"><ele>1034.6</ele><time>2026-04-11T10:26:36.698Z</time></trkpt><trkpt lat="38.2623459" lon="16.0644661"><ele>1035.0</ele><time>2026-04-11T10:26:37.698Z</time></trkpt><trkpt lat="38.2624307" lon="16.0645538"><ele>1035.0</ele><time>2026-04-11T10:26:38.698Z</time></trkpt><trkpt lat="38.262517" lon="16.0646571"><ele>1035.0</ele><time>2026-04-11T10:26:39.697Z</time></trkpt><trkpt lat="38.2626037" lon="16.0647538"><ele>1035.0</ele><time>2026-04-11T10:26:40.697Z</time></trkpt><trkpt lat="38.2626882" lon="16.0648547"><ele>1035.0</ele><time>2026-04-11T10:26:41.697Z</time></trkpt><trkpt lat="38.2627733" lon="16.0649619"><ele>1031.0</ele><time>2026-04-11T10:26:42.697Z</time></trkpt><trkpt lat="38.2628587" lon="16.0650778"><ele>1027.0</ele><time>2026-04-11T10:26:43.697Z</time></trkpt><trkpt lat="38.2629449" lon="16.0651918"><ele>1023.0</ele><time>2026-04-11T10:26:44.698Z</time></trkpt><trkpt lat="38.2630242" lon="16.0653065"><ele>1019.0</ele><time>2026-04-11T10:26:45.697Z</time></trkpt><trkpt lat="38.263093" lon="16.0654246"><ele>1021.4000000000001</ele><time>2026-04-11T10:26:46.697Z</time></trkpt><trkpt lat="38.2631528" lon="16.0655443"><ele>1023.8000000000001</ele><time>2026-04-11T10:26:47.697Z</time></trkpt><trkpt lat="38.2632148" lon="16.0656616"><ele>1026.1999999999998</ele><time>2026-04-11T10:26:48.698Z</time></trkpt><trkpt lat="38.2632726" lon="16.0657727"><ele>1028.6</ele><time>2026-04-11T10:26:49.697Z</time></trkpt><trkpt lat="38.263325" lon="16.0658892"><ele>1031.0</ele><time>2026-04-11T10:26:50.698Z</time></trkpt><trkpt lat="38.2633779" lon="16.0660111"><ele>1031.0</ele><time>2026-04-11T10:26:51.698Z</time></trkpt><trkpt lat="38.2634246" lon="16.0661466"><ele>1031.0</ele><time>2026-04-11T10:26:52.697Z</time></trkpt><trkpt lat="38.2634702" lon="16.0662799"><ele>1031.0</ele><time>2026-04-11T10:26:53.698Z</time></trkpt><trkpt lat="38.2635092" lon="16.0664288"><ele>1031.0</ele><time>2026-04-11T10:26:54.697Z</time></trkpt><trkpt lat="38.2635481" lon="16.0665758"><ele>1030.5</ele><time>2026-04-11T10:26:55.697Z</time></trkpt><trkpt lat="38.2635842" lon="16.066721"><ele>1030.0</ele><time>2026-04-11T10:26:56.697Z</time></trkpt><trkpt lat="38.2636231" lon="16.0668688"><ele>1029.5</ele><time>2026-04-11T10:26:57.697Z</time></trkpt><trkpt lat="38.26366" lon="16.0670282"><ele>1029.0</ele><time>2026-04-11T10:26:58.697Z</time></trkpt><trkpt lat="38.2636944" lon="16.0671869"><ele>1029.0</ele><time>2026-04-11T10:26:59.698Z</time></trkpt><trkpt lat="38.263733" lon="16.0673456"><ele>1029.0</ele><time>2026-04-11T10:27:00.697Z</time></trkpt><trkpt lat="38.2637699" lon="16.0675107"><ele>1029.0</ele><time>2026-04-11T10:27:01.698Z</time></trkpt><trkpt lat="38.2638113" lon="16.0676714"><ele>1029.0</ele><time>2026-04-11T10:27:02.697Z</time></trkpt><trkpt lat="38.2638492" lon="16.0678367"><ele>1029.0</ele><time>2026-04-11T10:27:03.697Z</time></trkpt><trkpt lat="38.2638851" lon="16.0679986"><ele>1029.0</ele><time>2026-04-11T10:27:04.697Z</time></trkpt><trkpt lat="38.2639196" lon="16.0681617"><ele>1029.0</ele><time>2026-04-11T10:27:05.698Z</time></trkpt><trkpt lat="38.2639547" lon="16.0683262"><ele>1029.0</ele><time>2026-04-11T10:27:06.697Z</time></trkpt><trkpt lat="38.26399" lon="16.0684913"><ele>1029.25</ele><time>2026-04-11T10:27:07.698Z</time></trkpt><trkpt lat="38.2640218" lon="16.0686553"><ele>1029.5</ele><time>2026-04-11T10:27:08.697Z</time></trkpt><trkpt lat="38.2640456" lon="16.0688236"><ele>1029.75</ele><time>2026-04-11T10:27:09.697Z</time></trkpt><trkpt lat="38.2640836" lon="16.0689848"><ele>1030.0</ele><time>2026-04-11T10:27:10.697Z</time></trkpt><trkpt lat="38.2641229" lon="16.06915"><ele>1029.0</ele><time>2026-04-11T10:27:11.698Z</time></trkpt><trkpt lat="38.2641661" lon="16.0693092"><ele>1028.0</ele><time>2026-04-11T10:27:12.698Z</time></trkpt><trkpt lat="38.2642133" lon="16.0694833"><ele>1027.0</ele><time>2026-04-11T10:27:13.697Z</time></trkpt><trkpt lat="38.2642537" lon="16.0696716"><ele>1026.0</ele><time>2026-04-11T10:27:14.698Z</time></trkpt><trkpt lat="38.2642938" lon="16.0698662"><ele>1023.6666666666667</ele><time>2026-04-11T10:27:15.697Z</time></trkpt><trkpt lat="38.2643432" lon="16.0700484"><ele>1021.3333333333334</ele><time>2026-04-11T10:27:16.697Z</time></trkpt><trkpt lat="38.2644019" lon="16.0702238"><ele>1019.0</ele><time>2026-04-11T10:27:17.697Z</time></trkpt><trkpt lat="38.2644716" lon="16.0703998"><ele>1019.0</ele><time>2026-04-11T10:27:18.698Z</time></trkpt><trkpt lat="38.2645425" lon="16.0705647"><ele>1019.0</ele><time>2026-04-11T10:27:19.697Z</time></trkpt><trkpt lat="38.2646196" lon="16.0707263"><ele>1019.0</ele><time>2026-04-11T10:27:20.697Z</time></trkpt><trkpt lat="38.2647023" lon="16.070889"><ele>1019.0</ele><time>2026-04-11T10:27:21.697Z</time></trkpt><trkpt lat="38.2647898" lon="16.0710457"><ele>1025.0</ele><time>2026-04-11T10:27:22.698Z</time></trkpt><trkpt lat="38.2648773" lon="16.0711808"><ele>1031.0</ele><time>2026-04-11T10:27:23.697Z</time></trkpt><trkpt lat="38.264983" lon="16.0713319"><ele>1037.0</ele><time>2026-04-11T10:27:24.697Z</time></trkpt><trkpt lat="38.2650997" lon="16.0714902"><ele>1036.3333333333335</ele><time>2026-04-11T10:27:25.698Z</time></trkpt><trkpt lat="38.2652094" lon="16.0716482"><ele>1035.6666666666667</ele><time>2026-04-11T10:27:26.697Z</time></trkpt><trkpt lat="38.2653196" lon="16.0717995"><ele>1035.0</ele><time>2026-04-11T10:27:27.698Z</time></trkpt><trkpt lat="38.2654336" lon="16.0719458"><ele>1035.0</ele><time>2026-04-11T10:27:28.697Z</time></trkpt><trkpt lat="38.2655502" lon="16.0720902"><ele>1035.0</ele><time>2026-04-11T10:27:29.697Z</time></trkpt><trkpt lat="38.2656626" lon="16.0722347"><ele>1035.0</ele><time>2026-04-11T10:27:30.697Z</time></trkpt><trkpt lat="38.2657758" lon="16.0723849"><ele>1034.0</ele><time>2026-04-11T10:27:31.697Z</time></trkpt><trkpt lat="38.2658834" lon="16.0725393"><ele>1033.0</ele><time>2026-04-11T10:27:32.697Z</time></trkpt><trkpt lat="38.2660057" lon="16.0726894"><ele>1032.0</ele><time>2026-04-11T10:27:33.697Z</time></trkpt><trkpt lat="38.2661328" lon="16.072836"><ele>1032.0</ele><time>2026-04-11T10:27:34.697Z</time></trkpt><trkpt lat="38.2662546" lon="16.0729815"><ele>1032.0</ele><time>2026-04-11T10:27:35.697Z</time></trkpt><trkpt lat="38.2663726" lon="16.0731255"><ele>1032.0</ele><time>2026-04-11T10:27:36.698Z</time></trkpt><trkpt lat="38.2664868" lon="16.0732694"><ele>1032.0</ele><time>2026-04-11T10:27:37.697Z</time></trkpt><trkpt lat="38.2665989" lon="16.0734123"><ele>1032.0</ele><time>2026-04-11T10:27:38.698Z</time></trkpt><trkpt lat="38.2667055" lon="16.0735522"><ele>1032.0</ele><time>2026-04-11T10:27:39.697Z</time></trkpt><trkpt lat="38.2668094" lon="16.0736869"><ele>1032.0</ele><time>2026-04-11T10:27:40.697Z</time></trkpt><trkpt lat="38.2669135" lon="16.0738251"><ele>1032.0</ele><time>2026-04-11T10:27:41.697Z</time></trkpt><trkpt lat="38.2670123" lon="16.0739615"><ele>1032.0</ele><time>2026-04-11T10:27:42.697Z</time></trkpt><trkpt lat="38.2671087" lon="16.0740827"><ele>1032.0</ele><time>2026-04-11T10:27:43.697Z</time></trkpt><trkpt lat="38.2671964" lon="16.0741904"><ele>1032.5</ele><time>2026-04-11T10:27:44.697Z</time></trkpt><trkpt lat="38.2672762" lon="16.0742965"><ele>1033.0</ele><time>2026-04-11T10:27:45.697Z</time></trkpt><trkpt lat="38.2673649" lon="16.0743959"><ele>1033.5</ele><time>2026-04-11T10:27:46.698Z</time></trkpt><trkpt lat="38.2674664" lon="16.0744958"><ele>1034.0</ele><time>2026-04-11T10:27:47.697Z</time></trkpt><trkpt lat="38.2675844" lon="16.0745844"><ele>1032.75</ele><time>2026-04-11T10:27:48.697Z</time></trkpt><trkpt lat="38.2677121" lon="16.0746458"><ele>1031.5</ele><time>2026-04-11T10:27:49.697Z</time></trkpt><trkpt lat="38.2678517" lon="16.0746932"><ele>1030.25</ele><time>2026-04-11T10:27:50.698Z</time></trkpt><trkpt lat="38.2679982" lon="16.0747286"><ele>1029.0</ele><time>2026-04-11T10:27:51.698Z</time></trkpt><trkpt lat="38.2681487" lon="16.0747411"><ele>1027.75</ele><time>2026-04-11T10:27:52.697Z</time></trkpt><trkpt lat="38.2682957" lon="16.0747411"><ele>1026.5</ele><time>2026-04-11T10:27:53.697Z</time></trkpt><trkpt lat="38.2684452" lon="16.0747438"><ele>1025.25</ele><time>2026-04-11T10:27:54.698Z</time></trkpt><trkpt lat="38.2685866" lon="16.0747523"><ele>1024.0</ele><time>2026-04-11T10:27:55.697Z</time></trkpt><trkpt lat="38.2687321" lon="16.0747656"><ele>1024.0</ele><time>2026-04-11T10:27:56.697Z</time></trkpt><trkpt lat="38.2688774" lon="16.0747855"><ele>1024.0</ele><time>2026-04-11T10:27:57.698Z</time></trkpt><trkpt lat="38.2690239" lon="16.0748107"><ele>1024.0</ele><time>2026-04-11T10:27:58.698Z</time></trkpt><trkpt lat="38.2691658" lon="16.0748339"><ele>1024.0</ele><time>2026-04-11T10:27:59.697Z</time></trkpt><trkpt lat="38.2693038" lon="16.0748591"><ele>1022.5</ele><time>2026-04-11T10:28:00.697Z</time></trkpt><trkpt lat="38.2694391" lon="16.0748848"><ele>1021.0</ele><time>2026-04-11T10:28:01.697Z</time></trkpt><trkpt lat="38.2695754" lon="16.0749117"><ele>1019.5</ele><time>2026-04-11T10:28:02.697Z</time></trkpt><trkpt lat="38.2697169" lon="16.0749362"><ele>1018.0</ele><time>2026-04-11T10:28:03.697Z</time></trkpt><trkpt lat="38.2698599" lon="16.0749625"><ele>1017.25</ele><time>2026-04-11T10:28:04.697Z</time></trkpt><trkpt lat="38.2700104" lon="16.0750155"><ele>1016.5</ele><time>2026-04-11T10:28:05.697Z</time></trkpt><trkpt lat="38.2701461" lon="16.0750776"><ele>1015.75</ele><time>2026-04-11T10:28:06.698Z</time></trkpt><trkpt lat="38.270266" lon="16.0751665"><ele>1015.0</ele><time>2026-04-11T10:28:07.697Z</time></trkpt><trkpt lat="38.2703648" lon="16.0752878"><ele>1015.0</ele><time>2026-04-11T10:28:08.698Z</time></trkpt><trkpt lat="38.2704447" lon="16.0754279"><ele>1015.0</ele><time>2026-04-11T10:28:09.697Z</time></trkpt><trkpt lat="38.2705108" lon="16.0755823"><ele>1015.0</ele><time>2026-04-11T10:28:10.698Z</time></trkpt><trkpt lat="38.270575" lon="16.0757395"><ele>1015.0</ele><time>2026-04-11T10:28:11.698Z</time></trkpt><trkpt lat="38.2706372" lon="16.0759005"><ele>1015.0</ele><time>2026-04-11T10:28:12.698Z</time></trkpt><trkpt lat="38.2707023" lon="16.0760623"><ele>1015.0</ele><time>2026-04-11T10:28:13.697Z</time></trkpt><trkpt lat="38.2707722" lon="16.0762209"><ele>1015.0</ele><time>2026-04-11T10:28:14.697Z</time></trkpt><trkpt lat="38.2708423" lon="16.076377"><ele>1015.0</ele><time>2026-04-11T10:28:15.698Z</time></trkpt><trkpt lat="38.2709098" lon="16.0765374"><ele>1015.5</ele><time>2026-04-11T10:28:16.697Z</time></trkpt><trkpt lat="38.2709755" lon="16.0766981"><ele>1016.0</ele><time>2026-04-11T10:28:17.697Z</time></trkpt><trkpt lat="38.2710434" lon="16.07686"><ele>1016.5</ele><time>2026-04-11T10:28:18.698Z</time></trkpt><trkpt lat="38.2711169" lon="16.077025"><ele>1017.0</ele><time>2026-04-11T10:28:19.697Z</time></trkpt><trkpt lat="38.2711867" lon="16.0771972"><ele>1017.0</ele><time>2026-04-11T10:28:20.697Z</time></trkpt><trkpt lat="38.2712568" lon="16.0773684"><ele>1017.0</ele><time>2026-04-11T10:28:21.697Z</time></trkpt><trkpt lat="38.2713394" lon="16.0775303"><ele>1017.0</ele><time>2026-04-11T10:28:22.697Z</time></trkpt><trkpt lat="38.2714132" lon="16.077701"><ele>1015.3333333333333</ele><time>2026-04-11T10:28:23.697Z</time></trkpt><trkpt lat="38.2714868" lon="16.0778767"><ele>1013.6666666666666</ele><time>2026-04-11T10:28:24.697Z</time></trkpt><trkpt lat="38.2715628" lon="16.0780561"><ele>1012.0</ele><time>2026-04-11T10:28:25.697Z</time></trkpt><trkpt lat="38.2716383" lon="16.0782389"><ele>1013.3333333333333</ele><time>2026-04-11T10:28:26.697Z</time></trkpt><trkpt lat="38.271721" lon="16.0784188"><ele>1014.6666666666667</ele><time>2026-04-11T10:28:27.698Z</time></trkpt><trkpt lat="38.271803" lon="16.0786025"><ele>1016.0</ele><time>2026-04-11T10:28:28.697Z</time></trkpt><trkpt lat="38.2718857" lon="16.0787826"><ele>1016.0</ele><time>2026-04-11T10:28:29.697Z</time></trkpt><trkpt lat="38.2719674" lon="16.0789675"><ele>1016.0</ele><time>2026-04-11T10:28:30.698Z</time></trkpt><trkpt lat="38.2720483" lon="16.0791374"><ele>1016.0</ele><time>2026-04-11T10:28:31.697Z</time></trkpt><trkpt lat="38.2721327" lon="16.0793051"><ele>1016.6666666666667</ele><time>2026-04-11T10:28:32.697Z</time></trkpt><trkpt lat="38.2722147" lon="16.0794738"><ele>1017.3333333333333</ele><time>2026-04-11T10:28:33.697Z</time></trkpt><trkpt lat="38.2722884" lon="16.0796482"><ele>1018.0</ele><time>2026-04-11T10:28:34.697Z</time></trkpt><trkpt lat="38.2723654" lon="16.0798221"><ele>1018.3333333333333</ele><time>2026-04-11T10:28:35.697Z</time></trkpt><trkpt lat="38.2724473" lon="16.0799948"><ele>1018.6666666666667</ele><time>2026-04-11T10:28:36.697Z</time></trkpt><trkpt lat="38.272531" lon="16.0801683"><ele>1019.0</ele><time>2026-04-11T10:28:37.697Z</time></trkpt><trkpt lat="38.2726219" lon="16.0803391"><ele>1019.0</ele><time>2026-04-11T10:28:38.697Z</time></trkpt><trkpt lat="38.2727266" lon="16.0805042"><ele>1019.0</ele><time>2026-04-11T10:28:39.697Z</time></trkpt><trkpt lat="38.2728341" lon="16.0806563"><ele>1019.0</ele><time>2026-04-11T10:28:40.697Z</time></trkpt><trkpt lat="38.2729551" lon="16.0808003"><ele>1019.3333333333334</ele><time>2026-04-11T10:28:41.697Z</time></trkpt><trkpt lat="38.2730803" lon="16.0809485"><ele>1019.6666666666667</ele><time>2026-04-11T10:28:42.697Z</time></trkpt><trkpt lat="38.2732002" lon="16.0810933"><ele>1020.0</ele><time>2026-04-11T10:28:43.697Z</time></trkpt><trkpt lat="38.2733192" lon="16.0812324"><ele>1020.0</ele><time>2026-04-11T10:28:44.698Z</time></trkpt><trkpt lat="38.2734376" lon="16.0813683"><ele>1020.0</ele><time>2026-04-11T10:28:45.697Z</time></trkpt><trkpt lat="38.2735581" lon="16.0815123"><ele>1020.0</ele><time>2026-04-11T10:28:46.696Z</time></trkpt><trkpt lat="38.2736773" lon="16.0816584"><ele>1020.0</ele><time>2026-04-11T10:28:47.696Z</time></trkpt><trkpt lat="38.2737977" lon="16.0818097"><ele>1020.0</ele><time>2026-04-11T10:28:48.697Z</time></trkpt><trkpt lat="38.2739219" lon="16.0819548"><ele>1020.0</ele><time>2026-04-11T10:28:49.696Z</time></trkpt><trkpt lat="38.2740471" lon="16.0821054"><ele>1019.3333333333333</ele><time>2026-04-11T10:28:50.697Z</time></trkpt><trkpt lat="38.2741837" lon="16.08225"><ele>1018.6666666666666</ele><time>2026-04-11T10:28:51.696Z</time></trkpt><trkpt lat="38.2743208" lon="16.082406"><ele>1018.0</ele><time>2026-04-11T10:28:52.696Z</time></trkpt><trkpt lat="38.2744616" lon="16.0825515"><ele>1018.0</ele><time>2026-04-11T10:28:53.696Z</time></trkpt><trkpt lat="38.2745991" lon="16.0826942"><ele>1018.0</ele><time>2026-04-11T10:28:54.697Z</time></trkpt><trkpt lat="38.2747334" lon="16.0828382"><ele>1018.0</ele><time>2026-04-11T10:28:55.696Z</time></trkpt><trkpt lat="38.274868" lon="16.082974"><ele>1017.6666666666666</ele><time>2026-04-11T10:28:56.696Z</time></trkpt><trkpt lat="38.2750109" lon="16.0831052"><ele>1017.3333333333333</ele><time>2026-04-11T10:28:57.697Z</time></trkpt><trkpt lat="38.2751609" lon="16.0832285"><ele>1017.0</ele><time>2026-04-11T10:28:58.696Z</time></trkpt><trkpt lat="38.2753078" lon="16.0833487"><ele>1017.0</ele><time>2026-04-11T10:28:59.697Z</time></trkpt><trkpt lat="38.2754534" lon="16.0834689"><ele>1017.0</ele><time>2026-04-11T10:29:00.696Z</time></trkpt><trkpt lat="38.2756034" lon="16.0835852"><ele>1017.0</ele><time>2026-04-11T10:29:01.697Z</time></trkpt><trkpt lat="38.275762" lon="16.0837054"><ele>1019.0</ele><time>2026-04-11T10:29:02.696Z</time></trkpt><trkpt lat="38.275917" lon="16.0838335"><ele>1021.0</ele><time>2026-04-11T10:29:03.697Z</time></trkpt><trkpt lat="38.276071" lon="16.0839545"><ele>1023.0</ele><time>2026-04-11T10:29:04.696Z</time></trkpt><trkpt lat="38.2762211" lon="16.0840812"><ele>1022.6666666666667</ele><time>2026-04-11T10:29:05.697Z</time></trkpt><trkpt lat="38.2763641" lon="16.084207"><ele>1022.3333333333334</ele><time>2026-04-11T10:29:06.697Z</time></trkpt><trkpt lat="38.276516" lon="16.0843336"><ele>1022.0</ele><time>2026-04-11T10:29:07.696Z</time></trkpt><trkpt lat="38.2766726" lon="16.0844555"><ele>1022.0</ele><time>2026-04-11T10:29:08.696Z</time></trkpt><trkpt lat="38.2768316" lon="16.0845748"><ele>1022.0</ele><time>2026-04-11T10:29:09.697Z</time></trkpt><trkpt lat="38.2769883" lon="16.0846946"><ele>1022.0</ele><time>2026-04-11T10:29:10.696Z</time></trkpt><trkpt lat="38.2771366" lon="16.0848214"><ele>1022.6666666666667</ele><time>2026-04-11T10:29:11.697Z</time></trkpt><trkpt lat="38.2772827" lon="16.0849548"><ele>1023.3333333333333</ele><time>2026-04-11T10:29:12.697Z</time></trkpt><trkpt lat="38.2774162" lon="16.0850912"><ele>1024.0</ele><time>2026-04-11T10:29:13.697Z</time></trkpt><trkpt lat="38.2775507" lon="16.0852329"><ele>1024.0</ele><time>2026-04-11T10:29:14.696Z</time></trkpt><trkpt lat="38.2776794" lon="16.0853749"><ele>1024.0</ele><time>2026-04-11T10:29:15.696Z</time></trkpt><trkpt lat="38.2778034" lon="16.0855173"><ele>1024.0</ele><time>2026-04-11T10:29:16.697Z</time></trkpt><trkpt lat="38.2779194" lon="16.085674"><ele>1025.3333333333333</ele><time>2026-04-11T10:29:17.697Z</time></trkpt><trkpt lat="38.2780362" lon="16.0858307"><ele>1026.6666666666667</ele><time>2026-04-11T10:29:18.696Z</time></trkpt><trkpt lat="38.2781538" lon="16.0859866"><ele>1028.0</ele><time>2026-04-11T10:29:19.696Z</time></trkpt><trkpt lat="38.2782744" lon="16.0861429"><ele>1028.0</ele><time>2026-04-11T10:29:20.697Z</time></trkpt><trkpt lat="38.2783948" lon="16.0862979"><ele>1028.0</ele><time>2026-04-11T10:29:21.697Z</time></trkpt><trkpt lat="38.2785103" lon="16.0864538"><ele>1028.0</ele><time>2026-04-11T10:29:22.697Z</time></trkpt><trkpt lat="38.2786271" lon="16.08661"><ele>1029.0</ele><time>2026-04-11T10:29:23.696Z</time></trkpt><trkpt lat="38.2787489" lon="16.0867645"><ele>1030.0</ele><time>2026-04-11T10:29:24.697Z</time></trkpt><trkpt lat="38.2788657" lon="16.0869276"><ele>1031.0</ele><time>2026-04-11T10:29:25.696Z</time></trkpt><trkpt lat="38.278992" lon="16.0870795"><ele>1031.0</ele><time>2026-04-11T10:29:26.696Z</time></trkpt><trkpt lat="38.2791165" lon="16.0872436"><ele>1031.0</ele><time>2026-04-11T10:29:27.697Z</time></trkpt><trkpt lat="38.2792391" lon="16.0874111"><ele>1031.0</ele><time>2026-04-11T10:29:28.697Z</time></trkpt><trkpt lat="38.2793638" lon="16.0875772"><ele>1033.0</ele><time>2026-04-11T10:29:29.697Z</time></trkpt><trkpt lat="38.2794923" lon="16.0877453"><ele>1035.0</ele><time>2026-04-11T10:29:30.697Z</time></trkpt><trkpt lat="38.279616" lon="16.0879138"><ele>1037.0</ele><time>2026-04-11T10:29:31.696Z</time></trkpt><trkpt lat="38.2797408" lon="16.0880784"><ele>1037.3333333333335</ele><time>2026-04-11T10:29:32.696Z</time></trkpt><trkpt lat="38.2798696" lon="16.0882393"><ele>1037.6666666666667</ele><time>2026-04-11T10:29:33.696Z</time></trkpt><trkpt lat="38.2799957" lon="16.0883976"><ele>1038.0</ele><time>2026-04-11T10:29:34.697Z</time></trkpt><trkpt lat="38.280123" lon="16.0885531"><ele>1038.0</ele><time>2026-04-11T10:29:35.697Z</time></trkpt><trkpt lat="38.2802421" lon="16.0887191"><ele>1038.0</ele><time>2026-04-11T10:29:36.697Z</time></trkpt><trkpt lat="38.2803579" lon="16.088883"><ele>1038.0</ele><time>2026-04-11T10:29:37.696Z</time></trkpt><trkpt lat="38.2804792" lon="16.0890401"><ele>1038.6666666666667</ele><time>2026-04-11T10:29:38.696Z</time></trkpt><trkpt lat="38.2806004" lon="16.0891922"><ele>1039.3333333333335</ele><time>2026-04-11T10:29:39.696Z</time></trkpt><trkpt lat="38.2807153" lon="16.0893426"><ele>1040.0</ele><time>2026-04-11T10:29:40.697Z</time></trkpt><trkpt lat="38.2808258" lon="16.0894846"><ele>1040.0</ele><time>2026-04-11T10:29:41.697Z</time></trkpt><trkpt lat="38.2809272" lon="16.0896193"><ele>1040.0</ele><time>2026-04-11T10:29:42.696Z</time></trkpt><trkpt lat="38.2810158" lon="16.0897508"><ele>1040.0</ele><time>2026-04-11T10:29:43.697Z</time></trkpt><trkpt lat="38.2810814" lon="16.0898956"><ele>1040.0</ele><time>2026-04-11T10:29:44.697Z</time></trkpt><trkpt lat="38.2811407" lon="16.0900451"><ele>1039.75</ele><time>2026-04-11T10:29:45.696Z</time></trkpt><trkpt lat="38.2811741" lon="16.090206"><ele>1039.5</ele><time>2026-04-11T10:29:46.696Z</time></trkpt><trkpt lat="38.2811884" lon="16.0903781"><ele>1039.25</ele><time>2026-04-11T10:29:47.696Z</time></trkpt><trkpt lat="38.2812018" lon="16.090556"><ele>1039.0</ele><time>2026-04-11T10:29:48.696Z</time></trkpt><trkpt lat="38.2812157" lon="16.0907273"><ele>1038.0</ele><time>2026-04-11T10:29:49.696Z</time></trkpt><trkpt lat="38.2812292" lon="16.090899"><ele>1037.0</ele><time>2026-04-11T10:29:50.697Z</time></trkpt><trkpt lat="38.2812469" lon="16.091072"><ele>1036.0</ele><time>2026-04-11T10:29:51.696Z</time></trkpt><trkpt lat="38.2812661" lon="16.0912447"><ele>1035.0</ele><time>2026-04-11T10:29:52.697Z</time></trkpt><trkpt lat="38.2812867" lon="16.0914349"><ele>1033.6666666666667</ele><time>2026-04-11T10:29:53.697Z</time></trkpt><trkpt lat="38.2813052" lon="16.0916328"><ele>1032.3333333333335</ele><time>2026-04-11T10:29:54.696Z</time></trkpt><trkpt lat="38.2813296" lon="16.0918329"><ele>1031.0</ele><time>2026-04-11T10:29:55.697Z</time></trkpt><trkpt lat="38.2813559" lon="16.0920395"><ele>1031.0</ele><time>2026-04-11T10:29:56.696Z</time></trkpt><trkpt lat="38.2813812" lon="16.0922599"><ele>1031.0</ele><time>2026-04-11T10:29:57.697Z</time></trkpt><trkpt lat="38.2814038" lon="16.0924763"><ele>1031.0</ele><time>2026-04-11T10:29:58.696Z</time></trkpt><trkpt lat="38.2814285" lon="16.0926876"><ele>1030.0</ele><time>2026-04-11T10:29:59.696Z</time></trkpt><trkpt lat="38.2814573" lon="16.0928939"><ele>1029.0</ele><time>2026-04-11T10:30:00.696Z</time></trkpt><trkpt lat="38.2814721" lon="16.0930982"><ele>1028.0</ele><time>2026-04-11T10:30:01.697Z</time></trkpt><trkpt lat="38.2814943" lon="16.0933039"><ele>1027.0</ele><time>2026-04-11T10:30:02.696Z</time></trkpt><trkpt lat="38.2815174" lon="16.0935053"><ele>1026.0</ele><time>2026-04-11T10:30:03.696Z</time></trkpt><trkpt lat="38.2815398" lon="16.0937061"><ele>1025.0</ele><time>2026-04-11T10:30:04.696Z</time></trkpt><trkpt lat="38.281575" lon="16.0938938"><ele>1025.0</ele><time>2026-04-11T10:30:05.696Z</time></trkpt><trkpt lat="38.2816019" lon="16.0940731"><ele>1025.0</ele><time>2026-04-11T10:30:06.696Z</time></trkpt><trkpt lat="38.2816327" lon="16.0942545"><ele>1025.0</ele><time>2026-04-11T10:30:07.696Z</time></trkpt><trkpt lat="38.2816781" lon="16.094413"><ele>1025.0</ele><time>2026-04-11T10:30:08.697Z</time></trkpt><trkpt lat="38.2817489" lon="16.0945608"><ele>1023.3333333333334</ele><time>2026-04-11T10:30:09.696Z</time></trkpt><trkpt lat="38.2818525" lon="16.0946836"><ele>1021.6666666666667</ele><time>2026-04-11T10:30:10.697Z</time></trkpt><trkpt lat="38.2819685" lon="16.0948196"><ele>1020.0</ele><time>2026-04-11T10:30:11.696Z</time></trkpt><trkpt lat="38.2820916" lon="16.0949653"><ele>1020.0</ele><time>2026-04-11T10:30:12.696Z</time></trkpt><trkpt lat="38.2822123" lon="16.095119"><ele>1020.0</ele><time>2026-04-11T10:30:13.697Z</time></trkpt><trkpt lat="38.2823288" lon="16.0952659"><ele>1020.0</ele><time>2026-04-11T10:30:14.696Z</time></trkpt><trkpt lat="38.2824421" lon="16.0954003"><ele>1020.0</ele><time>2026-04-11T10:30:15.696Z</time></trkpt><trkpt lat="38.2825522" lon="16.0955308"><ele>1020.0</ele><time>2026-04-11T10:30:16.697Z</time></trkpt><trkpt lat="38.2826501" lon="16.0956803"><ele>1020.0</ele><time>2026-04-11T10:30:17.696Z</time></trkpt><trkpt lat="38.2827471" lon="16.0958485"><ele>1018.0</ele><time>2026-04-11T10:30:18.697Z</time></trkpt><trkpt lat="38.2828341" lon="16.096013"><ele>1016.0</ele><time>2026-04-11T10:30:19.697Z</time></trkpt><trkpt lat="38.2829186" lon="16.0961795"><ele>1014.0</ele><time>2026-04-11T10:30:20.696Z</time></trkpt><trkpt lat="38.2829976" lon="16.0963539"><ele>1014.0</ele><time>2026-04-11T10:30:21.696Z</time></trkpt><trkpt lat="38.2830727" lon="16.0965252"><ele>1014.0</ele><time>2026-04-11T10:30:22.696Z</time></trkpt><trkpt lat="38.2831427" lon="16.0966773"><ele>1014.0</ele><time>2026-04-11T10:30:23.696Z</time></trkpt><trkpt lat="38.283214" lon="16.0968147"><ele>1014.0</ele><time>2026-04-11T10:30:24.696Z</time></trkpt><trkpt lat="38.2832932" lon="16.0969383"><ele>1014.5</ele><time>2026-04-11T10:30:25.696Z</time></trkpt><trkpt lat="38.2833895" lon="16.0970438"><ele>1015.0</ele><time>2026-04-11T10:30:26.697Z</time></trkpt><trkpt lat="38.2834915" lon="16.0971225"><ele>1015.5</ele><time>2026-04-11T10:30:27.696Z</time></trkpt><trkpt lat="38.2835967" lon="16.0971716"><ele>1016.0</ele><time>2026-04-11T10:30:28.696Z</time></trkpt><trkpt lat="38.2836981" lon="16.0972098"><ele>1016.0</ele><time>2026-04-11T10:30:29.696Z</time></trkpt><trkpt lat="38.2838015" lon="16.097225"><ele>1015.9999999999999</ele><time>2026-04-11T10:30:30.697Z</time></trkpt><trkpt lat="38.2839042" lon="16.0972293"><ele>1015.9999999999999</ele><time>2026-04-11T10:30:31.697Z</time></trkpt><trkpt lat="38.2840023" lon="16.0972182"><ele>1016.0</ele><time>2026-04-11T10:30:32.696Z</time></trkpt><trkpt lat="38.284097" lon="16.0972038"><ele>1016.0</ele><time>2026-04-11T10:30:33.696Z</time></trkpt><trkpt lat="38.2841878" lon="16.0972108"><ele>1017.0</ele><time>2026-04-11T10:30:34.696Z</time></trkpt><trkpt lat="38.2842726" lon="16.0972422"><ele>1017.9999999999999</ele><time>2026-04-11T10:30:35.696Z</time></trkpt><trkpt lat="38.2843567" lon="16.097296"><ele>1018.9999999999999</ele><time>2026-04-11T10:30:36.696Z</time></trkpt><trkpt lat="38.284432" lon="16.0973692"><ele>1020.0</ele><time>2026-04-11T10:30:37.696Z</time></trkpt><trkpt lat="38.2844891" lon="16.0974699"><ele>1021.0</ele><time>2026-04-11T10:30:38.696Z</time></trkpt><trkpt lat="38.2845388" lon="16.0975786"><ele>1021.0</ele><time>2026-04-11T10:30:39.696Z</time></trkpt><trkpt lat="38.2845871" lon="16.0976908"><ele>1020.9999999999999</ele><time>2026-04-11T10:30:40.697Z</time></trkpt><trkpt lat="38.2846447" lon="16.097795"><ele>1020.9999999999999</ele><time>2026-04-11T10:30:41.696Z</time></trkpt><trkpt lat="38.284713" lon="16.0978811"><ele>1021.0</ele><time>2026-04-11T10:30:42.696Z</time></trkpt><trkpt lat="38.2847893" lon="16.0979638"><ele>1021.0</ele><time>2026-04-11T10:30:43.697Z</time></trkpt><trkpt lat="38.2848809" lon="16.0980416"><ele>1019.75</ele><time>2026-04-11T10:30:44.696Z</time></trkpt><trkpt lat="38.2849711" lon="16.098119"><ele>1018.5</ele><time>2026-04-11T10:30:45.697Z</time></trkpt><trkpt lat="38.2850639" lon="16.0981887"><ele>1017.25</ele><time>2026-04-11T10:30:46.696Z</time></trkpt><trkpt lat="38.2851748" lon="16.0982548"><ele>1016.0</ele><time>2026-04-11T10:30:47.697Z</time></trkpt><trkpt lat="38.2852852" lon="16.0983042"><ele>1016.0</ele><time>2026-04-11T10:30:48.697Z</time></trkpt><trkpt lat="38.2853951" lon="16.0983404"><ele>1015.9999999999999</ele><time>2026-04-11T10:30:49.696Z</time></trkpt><trkpt lat="38.2855016" lon="16.0983715"><ele>1015.9999999999999</ele><time>2026-04-11T10:30:50.697Z</time></trkpt><trkpt lat="38.2855942" lon="16.0983849"><ele>1016.0</ele><time>2026-04-11T10:30:51.697Z</time></trkpt><trkpt lat="38.2856716" lon="16.0984005"><ele>1016.0</ele><time>2026-04-11T10:30:52.696Z</time></trkpt><trkpt lat="38.2857498" lon="16.09842"><ele>1017.1666666666667</ele><time>2026-04-11T10:30:53.696Z</time></trkpt><trkpt lat="38.2858183" lon="16.0984447"><ele>1018.3333333333334</ele><time>2026-04-11T10:30:54.696Z</time></trkpt><trkpt lat="38.2858716" lon="16.0984989"><ele>1019.5</ele><time>2026-04-11T10:30:55.696Z</time></trkpt><trkpt lat="38.2859157" lon="16.0985792"><ele>1020.6666666666667</ele><time>2026-04-11T10:30:56.697Z</time></trkpt><trkpt lat="38.2859531" lon="16.0986737"><ele>1021.8333333333334</ele><time>2026-04-11T10:30:57.696Z</time></trkpt><trkpt lat="38.2859838" lon="16.0987791"><ele>1023.0</ele><time>2026-04-11T10:30:58.696Z</time></trkpt><trkpt lat="38.2860136" lon="16.0988805"><ele>1023.0</ele><time>2026-04-11T10:30:59.696Z</time></trkpt><trkpt lat="38.2860509" lon="16.0989682"><ele>1023.0</ele><time>2026-04-11T10:31:00.696Z</time></trkpt><trkpt lat="38.286102" lon="16.099043"><ele>1023.0</ele><time>2026-04-11T10:31:01.697Z</time></trkpt><trkpt lat="38.2861684" lon="16.0991054"><ele>1023.0</ele><time>2026-04-11T10:31:02.696Z</time></trkpt><trkpt lat="38.2862402" lon="16.0991471"><ele>1023.0</ele><time>2026-04-11T10:31:03.696Z</time></trkpt><trkpt lat="38.286317" lon="16.0991693"><ele>1023.0</ele><time>2026-04-11T10:31:04.697Z</time></trkpt><trkpt lat="38.2863981" lon="16.0991779"><ele>1020.1666666666666</ele><time>2026-04-11T10:31:05.696Z</time></trkpt><trkpt lat="38.2864662" lon="16.0991859"><ele>1017.3333333333333</ele><time>2026-04-11T10:31:06.697Z</time></trkpt><trkpt lat="38.2865277" lon="16.099209"><ele>1014.5</ele><time>2026-04-11T10:31:07.696Z</time></trkpt><trkpt lat="38.2865774" lon="16.0992922"><ele>1011.6666666666666</ele><time>2026-04-11T10:31:09.696Z</time></trkpt><trkpt lat="38.2865047" lon="16.099392"><ele>1008.8333333333333</ele><time>2026-04-11T10:31:11.697Z</time></trkpt><trkpt lat="38.2864267" lon="16.0994326"><ele>1006.0</ele><time>2026-04-11T10:31:12.696Z</time></trkpt><trkpt lat="38.2863545" lon="16.0994911"><ele>1006.0</ele><time>2026-04-11T10:31:13.697Z</time></trkpt><trkpt lat="38.286309" lon="16.099565"><ele>1005.9999999999999</ele><time>2026-04-11T10:31:14.697Z</time></trkpt><trkpt lat="38.2863315" lon="16.0996781"><ele>1005.9999999999999</ele><time>2026-04-11T10:31:16.696Z</time></trkpt><trkpt lat="38.2864526" lon="16.0996757"><ele>1006.0</ele><time>2026-04-11T10:31:18.697Z</time></trkpt><trkpt lat="38.2865427" lon="16.0996436"><ele>1006.0</ele><time>2026-04-11T10:31:19.696Z</time></trkpt><trkpt lat="38.2866332" lon="16.0996177"><ele>1006.0</ele><time>2026-04-11T10:31:20.696Z</time></trkpt><trkpt lat="38.2867283" lon="16.0995918"><ele>1005.9999999999999</ele><time>2026-04-11T10:31:21.696Z</time></trkpt><trkpt lat="38.2868271" lon="16.0995676"><ele>1005.9999999999999</ele><time>2026-04-11T10:31:22.696Z</time></trkpt><trkpt lat="38.2869274" lon="16.0995557"><ele>1006.0</ele><time>2026-04-11T10:31:23.696Z</time></trkpt><trkpt lat="38.2870239" lon="16.0995534"><ele>1006.0</ele><time>2026-04-11T10:31:24.696Z</time></trkpt><trkpt lat="38.2871163" lon="16.0995711"><ele>1006.0</ele><time>2026-04-11T10:31:25.696Z</time></trkpt><trkpt lat="38.287218" lon="16.0995991"><ele>1005.9999999999999</ele><time>2026-04-11T10:31:26.696Z</time></trkpt><trkpt lat="38.2873293" lon="16.0996234"><ele>1005.9999999999999</ele><time>2026-04-11T10:31:27.696Z</time></trkpt><trkpt lat="38.2874381" lon="16.0996652"><ele>1006.0</ele><time>2026-04-11T10:31:28.697Z</time></trkpt><trkpt lat="38.2875378" lon="16.0997287"><ele>1006.0</ele><time>2026-04-11T10:31:29.696Z</time></trkpt><trkpt lat="38.28763" lon="16.0998155"><ele>1001.75</ele><time>2026-04-11T10:31:30.697Z</time></trkpt><trkpt lat="38.2877146" lon="16.0999192"><ele>997.5</ele><time>2026-04-11T10:31:31.697Z</time></trkpt><trkpt lat="38.2877926" lon="16.1000252"><ele>993.25</ele><time>2026-04-11T10:31:32.696Z</time></trkpt><trkpt lat="38.2878745" lon="16.1001151"><ele>989.0</ele><time>2026-04-11T10:31:33.696Z</time></trkpt><trkpt lat="38.2879693" lon="16.1001896"><ele>989.0</ele><time>2026-04-11T10:31:34.697Z</time></trkpt><trkpt lat="38.288072" lon="16.1002418"><ele>989.0000000000001</ele><time>2026-04-11T10:31:35.696Z</time></trkpt><trkpt lat="38.2881843" lon="16.1002653"><ele>989.0000000000001</ele><time>2026-04-11T10:31:36.696Z</time></trkpt><trkpt lat="38.2882972" lon="16.1002687"><ele>989.0</ele><time>2026-04-11T10:31:37.697Z</time></trkpt><trkpt lat="38.2884059" lon="16.1002535"><ele>989.0</ele><time>2026-04-11T10:31:38.696Z</time></trkpt><trkpt lat="38.2885131" lon="16.100202"><ele>988.5</ele><time>2026-04-11T10:31:39.696Z</time></trkpt><trkpt lat="38.2886206" lon="16.1001286"><ele>988.0</ele><time>2026-04-11T10:31:40.697Z</time></trkpt><trkpt lat="38.2887212" lon="16.1000469"><ele>987.5</ele><time>2026-04-11T10:31:41.696Z</time></trkpt><trkpt lat="38.2888111" lon="16.0999534"><ele>987.0</ele><time>2026-04-11T10:31:42.697Z</time></trkpt><trkpt lat="38.2888763" lon="16.0998506"><ele>985.6666666666666</ele><time>2026-04-11T10:31:43.697Z</time></trkpt><trkpt lat="38.2889117" lon="16.0997453"><ele>984.3333333333333</ele><time>2026-04-11T10:31:44.696Z</time></trkpt><trkpt lat="38.2889452" lon="16.0996459"><ele>983.0</ele><time>2026-04-11T10:31:45.696Z</time></trkpt><trkpt lat="38.2889848" lon="16.0995597"><ele>981.6666666666666</ele><time>2026-04-11T10:31:46.697Z</time></trkpt><trkpt lat="38.2890281" lon="16.0994928"><ele>980.3333333333333</ele><time>2026-04-11T10:31:47.696Z</time></trkpt><trkpt lat="38.2891217" lon="16.0994338"><ele>979.0</ele><time>2026-04-11T10:31:49.696Z</time></trkpt><trkpt lat="38.2891924" lon="16.0994995"><ele>979.0</ele><time>2026-04-11T10:31:51.696Z</time></trkpt><trkpt lat="38.289225" lon="16.0995816"><ele>979.0000000000001</ele><time>2026-04-11T10:31:52.697Z</time></trkpt><trkpt lat="38.2892567" lon="16.0996859"><ele>979.0000000000001</ele><time>2026-04-11T10:31:53.697Z</time></trkpt><trkpt lat="38.2892848" lon="16.0998271"><ele>979.0</ele><time>2026-04-11T10:31:54.697Z</time></trkpt><trkpt lat="38.289327" lon="16.0999875"><ele>979.0</ele><time>2026-04-11T10:31:55.697Z</time></trkpt><trkpt lat="38.2893921" lon="16.1001513"><ele>975.25</ele><time>2026-04-11T10:31:56.696Z</time></trkpt><trkpt lat="38.2894611" lon="16.1002991"><ele>971.5</ele><time>2026-04-11T10:31:57.696Z</time></trkpt><trkpt lat="38.2895215" lon="16.1004529"><ele>967.75</ele><time>2026-04-11T10:31:58.696Z</time></trkpt><trkpt lat="38.2895596" lon="16.1005987"><ele>964.0</ele><time>2026-04-11T10:31:59.696Z</time></trkpt><trkpt lat="38.2895636" lon="16.1007549"><ele>959.5</ele><time>2026-04-11T10:32:00.696Z</time></trkpt><trkpt lat="38.2895411" lon="16.1009085"><ele>955.0</ele><time>2026-04-11T10:32:01.696Z</time></trkpt><trkpt lat="38.2895128" lon="16.1010614"><ele>950.5</ele><time>2026-04-11T10:32:02.696Z</time></trkpt><trkpt lat="38.2894922" lon="16.1012218"><ele>946.0</ele><time>2026-04-11T10:32:03.696Z</time></trkpt><trkpt lat="38.289493" lon="16.1013775"><ele>946.0</ele><time>2026-04-11T10:32:04.697Z</time></trkpt><trkpt lat="38.2895081" lon="16.1015238"><ele>945.9999999999999</ele><time>2026-04-11T10:32:05.696Z</time></trkpt><trkpt lat="38.2895177" lon="16.1016623"><ele>945.9999999999999</ele><time>2026-04-11T10:32:06.697Z</time></trkpt><trkpt lat="38.2895069" lon="16.1018011"><ele>946.0</ele><time>2026-04-11T10:32:07.696Z</time></trkpt><trkpt lat="38.2894675" lon="16.1019255"><ele>946.0</ele><time>2026-04-11T10:32:08.697Z</time></trkpt><trkpt lat="38.2894439" lon="16.1020329"><ele>943.8</ele><time>2026-04-11T10:32:09.696Z</time></trkpt><trkpt lat="38.2894646" lon="16.102119"><ele>941.5999999999999</ele><time>2026-04-11T10:32:10.696Z</time></trkpt><trkpt lat="38.2895736" lon="16.10214"><ele>939.4</ele><time>2026-04-11T10:32:12.697Z</time></trkpt><trkpt lat="38.2896403" lon="16.102057"><ele>937.2</ele><time>2026-04-11T10:32:13.696Z</time></trkpt><trkpt lat="38.2896904" lon="16.1019099"><ele>935.0</ele><time>2026-04-11T10:32:14.697Z</time></trkpt><trkpt lat="38.2897115" lon="16.1017194"><ele>937.2</ele><time>2026-04-11T10:32:15.696Z</time></trkpt><trkpt lat="38.2897342" lon="16.1015472"><ele>939.4</ele><time>2026-04-11T10:32:16.697Z</time></trkpt><trkpt lat="38.2897778" lon="16.1014346"><ele>941.5999999999999</ele><time>2026-04-11T10:32:17.697Z</time></trkpt><trkpt lat="38.289844" lon="16.1013701"><ele>943.8</ele><time>2026-04-11T10:32:18.696Z</time></trkpt><trkpt lat="38.2899255" lon="16.1013624"><ele>946.0</ele><time>2026-04-11T10:32:19.696Z</time></trkpt><trkpt lat="38.2900112" lon="16.1014025"><ele>948.8</ele><time>2026-04-11T10:32:20.697Z</time></trkpt><trkpt lat="38.2900649" lon="16.1014971"><ele>951.5999999999999</ele><time>2026-04-11T10:32:21.696Z</time></trkpt><trkpt lat="38.2900715" lon="16.1016136"><ele>954.4</ele><time>2026-04-11T10:32:22.697Z</time></trkpt><trkpt lat="38.2900355" lon="16.1017339"><ele>957.2</ele><time>2026-04-11T10:32:23.696Z</time></trkpt><trkpt lat="38.2899673" lon="16.1018643"><ele>960.0</ele><time>2026-04-11T10:32:24.696Z</time></trkpt><trkpt lat="38.2898797" lon="16.1020024"><ele>961.25</ele><time>2026-04-11T10:32:25.696Z</time></trkpt><trkpt lat="38.2897945" lon="16.1021375"><ele>962.5</ele><time>2026-04-11T10:32:26.697Z</time></trkpt><trkpt lat="38.2897185" lon="16.1022644"><ele>963.75</ele><time>2026-04-11T10:32:27.697Z</time></trkpt><trkpt lat="38.2896505" lon="16.102392"><ele>965.0</ele><time>2026-04-11T10:32:28.697Z</time></trkpt><trkpt lat="38.289592" lon="16.1025306"><ele>959.75</ele><time>2026-04-11T10:32:29.696Z</time></trkpt><trkpt lat="38.2895443" lon="16.1026695"><ele>954.5</ele><time>2026-04-11T10:32:30.696Z</time></trkpt><trkpt lat="38.2895052" lon="16.102814"><ele>949.25</ele><time>2026-04-11T10:32:31.696Z</time></trkpt><trkpt lat="38.2894704" lon="16.102966"><ele>944.0</ele><time>2026-04-11T10:32:32.696Z</time></trkpt><trkpt lat="38.2894372" lon="16.1031175"><ele>949.0</ele><time>2026-04-11T10:32:33.696Z</time></trkpt><trkpt lat="38.289405" lon="16.103274"><ele>954.0</ele><time>2026-04-11T10:32:34.696Z</time></trkpt><trkpt lat="38.2893953" lon="16.1034368"><ele>959.0</ele><time>2026-04-11T10:32:35.697Z</time></trkpt><trkpt lat="38.2894065" lon="16.1035987"><ele>964.0</ele><time>2026-04-11T10:32:36.696Z</time></trkpt><trkpt lat="38.2894336" lon="16.103762"><ele>964.0</ele><time>2026-04-11T10:32:37.696Z</time></trkpt><trkpt lat="38.289467" lon="16.103922"><ele>964.0</ele><time>2026-04-11T10:32:38.696Z</time></trkpt><trkpt lat="38.2895064" lon="16.1040848"><ele>964.0</ele><time>2026-04-11T10:32:39.697Z</time></trkpt><trkpt lat="38.2895532" lon="16.1042441"><ele>964.0</ele><time>2026-04-11T10:32:40.696Z</time></trkpt><trkpt lat="38.2896081" lon="16.1044024"><ele>967.75</ele><time>2026-04-11T10:32:41.696Z</time></trkpt><trkpt lat="38.2896781" lon="16.1045577"><ele>971.5</ele><time>2026-04-11T10:32:42.697Z</time></trkpt><trkpt lat="38.2897526" lon="16.1047128"><ele>975.25</ele><time>2026-04-11T10:32:43.697Z</time></trkpt><trkpt lat="38.2898267" lon="16.1048743"><ele>979.0</ele><time>2026-04-11T10:32:44.697Z</time></trkpt><trkpt lat="38.2898972" lon="16.1050388"><ele>984.25</ele><time>2026-04-11T10:32:45.696Z</time></trkpt><trkpt lat="38.2899664" lon="16.1052017"><ele>989.5</ele><time>2026-04-11T10:32:46.696Z</time></trkpt><trkpt lat="38.2900377" lon="16.1053666"><ele>994.75</ele><time>2026-04-11T10:32:47.697Z</time></trkpt><trkpt lat="38.2901042" lon="16.1055345"><ele>1000.0</ele><time>2026-04-11T10:32:48.697Z</time></trkpt><trkpt lat="38.2901657" lon="16.1056983"><ele>1000.0</ele><time>2026-04-11T10:32:49.696Z</time></trkpt><trkpt lat="38.2902271" lon="16.1058626"><ele>1000.0</ele><time>2026-04-11T10:32:50.697Z</time></trkpt><trkpt lat="38.290291" lon="16.1060226"><ele>1000.0</ele><time>2026-04-11T10:32:51.696Z</time></trkpt><trkpt lat="38.2903563" lon="16.1061896"><ele>1000.0</ele><time>2026-04-11T10:32:52.697Z</time></trkpt><trkpt lat="38.2904285" lon="16.1063466"><ele>1000.0</ele><time>2026-04-11T10:32:53.697Z</time></trkpt><trkpt lat="38.2905023" lon="16.1064877"><ele>1000.0</ele><time>2026-04-11T10:32:54.696Z</time></trkpt><trkpt lat="38.2905781" lon="16.1066205"><ele>1000.0</ele><time>2026-04-11T10:32:55.697Z</time></trkpt><trkpt lat="38.2906546" lon="16.1067498"><ele>1000.0</ele><time>2026-04-11T10:32:56.697Z</time></trkpt><trkpt lat="38.2907313" lon="16.1068805"><ele>998.5</ele><time>2026-04-11T10:32:57.697Z</time></trkpt><trkpt lat="38.2908078" lon="16.1070063"><ele>997.0</ele><time>2026-04-11T10:32:58.697Z</time></trkpt><trkpt lat="38.2908829" lon="16.1071351"><ele>995.5</ele><time>2026-04-11T10:32:59.697Z</time></trkpt><trkpt lat="38.290944" lon="16.1072743"><ele>994.0</ele><time>2026-04-11T10:33:00.696Z</time></trkpt><trkpt lat="38.2909885" lon="16.107425"><ele>993.25</ele><time>2026-04-11T10:33:01.696Z</time></trkpt><trkpt lat="38.2910072" lon="16.1075889"><ele>992.5</ele><time>2026-04-11T10:33:02.696Z</time></trkpt><trkpt lat="38.2910222" lon="16.1077561"><ele>991.75</ele><time>2026-04-11T10:33:03.696Z</time></trkpt><trkpt lat="38.2910341" lon="16.1079257"><ele>991.0</ele><time>2026-04-11T10:33:04.696Z</time></trkpt><trkpt lat="38.291056" lon="16.1081026"><ele>989.5</ele><time>2026-04-11T10:33:05.697Z</time></trkpt><trkpt lat="38.2910703" lon="16.1082977"><ele>988.0</ele><time>2026-04-11T10:33:06.696Z</time></trkpt><trkpt lat="38.2910834" lon="16.1084853"><ele>986.5</ele><time>2026-04-11T10:33:07.696Z</time></trkpt><trkpt lat="38.2911007" lon="16.1086669"><ele>985.0</ele><time>2026-04-11T10:33:08.696Z</time></trkpt><trkpt lat="38.2911218" lon="16.1088281"><ele>985.0</ele><time>2026-04-11T10:33:09.697Z</time></trkpt><trkpt lat="38.2911418" lon="16.1089809"><ele>985.0</ele><time>2026-04-11T10:33:10.697Z</time></trkpt><trkpt lat="38.291164" lon="16.10913"><ele>985.0</ele><time>2026-04-11T10:33:11.696Z</time></trkpt><trkpt lat="38.291201" lon="16.1092746"><ele>985.0</ele><time>2026-04-11T10:33:12.696Z</time></trkpt><trkpt lat="38.2912463" lon="16.1094129"><ele>985.0</ele><time>2026-04-11T10:33:13.696Z</time></trkpt><trkpt lat="38.2913035" lon="16.1095378"><ele>985.0</ele><time>2026-04-11T10:33:14.696Z</time></trkpt><trkpt lat="38.2913622" lon="16.1096349"><ele>985.0</ele><time>2026-04-11T10:33:15.696Z</time></trkpt><trkpt lat="38.2914409" lon="16.1097203"><ele>985.0</ele><time>2026-04-11T10:33:16.696Z</time></trkpt><trkpt lat="38.291538" lon="16.1097947"><ele>985.0</ele><time>2026-04-11T10:33:17.696Z</time></trkpt><trkpt lat="38.2916383" lon="16.1098612"><ele>989.25</ele><time>2026-04-11T10:33:18.696Z</time></trkpt><trkpt lat="38.2917511" lon="16.1099206"><ele>993.5</ele><time>2026-04-11T10:33:19.696Z</time></trkpt><trkpt lat="38.2918709" lon="16.1099664"><ele>997.75</ele><time>2026-04-11T10:33:20.696Z</time></trkpt><trkpt lat="38.2919936" lon="16.1100174"><ele>1002.0</ele><time>2026-04-11T10:33:21.696Z</time></trkpt><trkpt lat="38.2921094" lon="16.1100517"><ele>1002.0</ele><time>2026-04-11T10:33:22.696Z</time></trkpt><trkpt lat="38.2922127" lon="16.1100691"><ele>1002.0</ele><time>2026-04-11T10:33:23.696Z</time></trkpt><trkpt lat="38.2923129" lon="16.1100668"><ele>1002.0</ele><time>2026-04-11T10:33:24.697Z</time></trkpt><trkpt lat="38.2924201" lon="16.1100387"><ele>1002.0</ele><time>2026-04-11T10:33:25.696Z</time></trkpt><trkpt lat="38.2925348" lon="16.110007"><ele>1002.0</ele><time>2026-04-11T10:33:26.697Z</time></trkpt><trkpt lat="38.2926498" lon="16.1099921"><ele>1002.75</ele><time>2026-04-11T10:33:27.696Z</time></trkpt><trkpt lat="38.2927591" lon="16.1100008"><ele>1003.5</ele><time>2026-04-11T10:33:28.696Z</time></trkpt><trkpt lat="38.2928725" lon="16.1100222"><ele>1004.25</ele><time>2026-04-11T10:33:29.697Z</time></trkpt><trkpt lat="38.2929858" lon="16.1100607"><ele>1005.0</ele><time>2026-04-11T10:33:30.696Z</time></trkpt><trkpt lat="38.2931003" lon="16.1101006"><ele>1006.0</ele><time>2026-04-11T10:33:31.696Z</time></trkpt><trkpt lat="38.2932139" lon="16.110145"><ele>1007.0</ele><time>2026-04-11T10:33:32.697Z</time></trkpt><trkpt lat="38.2933264" lon="16.1101935"><ele>1008.0</ele><time>2026-04-11T10:33:33.697Z</time></trkpt><trkpt lat="38.2934442" lon="16.1102545"><ele>1009.0</ele><time>2026-04-11T10:33:34.697Z</time></trkpt><trkpt lat="38.2935488" lon="16.1103351"><ele>1009.0</ele><time>2026-04-11T10:33:35.696Z</time></trkpt><trkpt lat="38.293661" lon="16.1104287"><ele>1009.0</ele><time>2026-04-11T10:33:36.696Z</time></trkpt><trkpt lat="38.2937702" lon="16.1105296"><ele>1009.0</ele><time>2026-04-11T10:33:37.696Z</time></trkpt><trkpt lat="38.2938747" lon="16.1106294"><ele>1009.0</ele><time>2026-04-11T10:33:38.696Z</time></trkpt><trkpt lat="38.2939874" lon="16.1107235"><ele>1009.5</ele><time>2026-04-11T10:33:39.696Z</time></trkpt><trkpt lat="38.2941062" lon="16.1108083"><ele>1010.0</ele><time>2026-04-11T10:33:40.696Z</time></trkpt><trkpt lat="38.29423" lon="16.1108942"><ele>1010.5</ele><time>2026-04-11T10:33:41.697Z</time></trkpt><trkpt lat="38.2943558" lon="16.1109619"><ele>1011.0</ele><time>2026-04-11T10:33:42.696Z</time></trkpt><trkpt lat="38.2944857" lon="16.1110228"><ele>1011.0</ele><time>2026-04-11T10:33:43.697Z</time></trkpt><trkpt lat="38.2946164" lon="16.1110772"><ele>1011.0</ele><time>2026-04-11T10:33:44.697Z</time></trkpt><trkpt lat="38.2947369" lon="16.1111335"><ele>1011.0</ele><time>2026-04-11T10:33:45.697Z</time></trkpt><trkpt lat="38.2948658" lon="16.1111949"><ele>1011.0</ele><time>2026-04-11T10:33:46.696Z</time></trkpt><trkpt lat="38.2949928" lon="16.1112586"><ele>1010.5</ele><time>2026-04-11T10:33:47.696Z</time></trkpt><trkpt lat="38.2951276" lon="16.1113189"><ele>1010.0</ele><time>2026-04-11T10:33:48.696Z</time></trkpt><trkpt lat="38.2952581" lon="16.1113735"><ele>1009.5</ele><time>2026-04-11T10:33:49.696Z</time></trkpt><trkpt lat="38.2953835" lon="16.111432"><ele>1009.0</ele><time>2026-04-11T10:33:50.696Z</time></trkpt><trkpt lat="38.295508" lon="16.1114815"><ele>1008.75</ele><time>2026-04-11T10:33:51.697Z</time></trkpt><trkpt lat="38.2956269" lon="16.1115283"><ele>1008.5</ele><time>2026-04-11T10:33:52.697Z</time></trkpt><trkpt lat="38.2957448" lon="16.1115703"><ele>1008.25</ele><time>2026-04-11T10:33:53.697Z</time></trkpt><trkpt lat="38.2958617" lon="16.1116243"><ele>1008.0</ele><time>2026-04-11T10:33:54.696Z</time></trkpt><trkpt lat="38.2959836" lon="16.1116641"><ele>1007.25</ele><time>2026-04-11T10:33:55.696Z</time></trkpt><trkpt lat="38.2961092" lon="16.1117019"><ele>1006.5</ele><time>2026-04-11T10:33:56.696Z</time></trkpt><trkpt lat="38.2962306" lon="16.1117529"><ele>1005.75</ele><time>2026-04-11T10:33:57.696Z</time></trkpt><trkpt lat="38.2963526" lon="16.111799"><ele>1005.0</ele><time>2026-04-11T10:33:58.696Z</time></trkpt><trkpt lat="38.2964839" lon="16.1118296"><ele>1005.0</ele><time>2026-04-11T10:33:59.696Z</time></trkpt><trkpt lat="38.296624" lon="16.1118471"><ele>1005.0</ele><time>2026-04-11T10:34:00.696Z</time></trkpt><trkpt lat="38.2967613" lon="16.111851"><ele>1005.0</ele><time>2026-04-11T10:34:01.697Z</time></trkpt><trkpt lat="38.2969121" lon="16.1118295"><ele>1005.0</ele><time>2026-04-11T10:34:02.696Z</time></trkpt><trkpt lat="38.2970715" lon="16.1117974"><ele>1005.0</ele><time>2026-04-11T10:34:03.696Z</time></trkpt><trkpt lat="38.2972331" lon="16.1117696"><ele>1005.0</ele><time>2026-04-11T10:34:04.696Z</time></trkpt><trkpt lat="38.2973917" lon="16.1117316"><ele>1005.0</ele><time>2026-04-11T10:34:05.697Z</time></trkpt><trkpt lat="38.2975436" lon="16.111697"><ele>1004.5</ele><time>2026-04-11T10:34:06.696Z</time></trkpt><trkpt lat="38.2976875" lon="16.1116727"><ele>1004.0</ele><time>2026-04-11T10:34:07.697Z</time></trkpt><trkpt lat="38.297824" lon="16.1116554"><ele>1003.5</ele><time>2026-04-11T10:34:08.696Z</time></trkpt><trkpt lat="38.2979496" lon="16.111641"><ele>1003.0</ele><time>2026-04-11T10:34:09.696Z</time></trkpt><trkpt lat="38.2980638" lon="16.1116435"><ele>1002.5</ele><time>2026-04-11T10:34:10.697Z</time></trkpt><trkpt lat="38.2981812" lon="16.1116713"><ele>1002.0</ele><time>2026-04-11T10:34:11.696Z</time></trkpt><trkpt lat="38.298301" lon="16.111724"><ele>1001.5</ele><time>2026-04-11T10:34:12.697Z</time></trkpt><trkpt lat="38.2984227" lon="16.1118008"><ele>1001.0</ele><time>2026-04-11T10:34:13.696Z</time></trkpt><trkpt lat="38.2985424" lon="16.1119006"><ele>1001.0</ele><time>2026-04-11T10:34:14.696Z</time></trkpt><trkpt lat="38.2986693" lon="16.1120179"><ele>1001.0</ele><time>2026-04-11T10:34:15.696Z</time></trkpt><trkpt lat="38.2987884" lon="16.1121516"><ele>1001.0</ele><time>2026-04-11T10:34:16.696Z</time></trkpt><trkpt lat="38.2989042" lon="16.1122934"><ele>998.0</ele><time>2026-04-11T10:34:17.696Z</time></trkpt><trkpt lat="38.2990148" lon="16.1124484"><ele>995.0</ele><time>2026-04-11T10:34:18.696Z</time></trkpt><trkpt lat="38.2991156" lon="16.1126135"><ele>992.0</ele><time>2026-04-11T10:34:19.696Z</time></trkpt><trkpt lat="38.2992129" lon="16.1127805"><ele>992.0</ele><time>2026-04-11T10:34:20.697Z</time></trkpt><trkpt lat="38.2993121" lon="16.1129377"><ele>992.0</ele><time>2026-04-11T10:34:21.697Z</time></trkpt><trkpt lat="38.2994156" lon="16.1130872"><ele>992.0</ele><time>2026-04-11T10:34:22.696Z</time></trkpt><trkpt lat="38.2995157" lon="16.1132344"><ele>992.6666666666667</ele><time>2026-04-11T10:34:23.697Z</time></trkpt><trkpt lat="38.2996219" lon="16.1133812"><ele>993.3333333333333</ele><time>2026-04-11T10:34:24.696Z</time></trkpt><trkpt lat="38.2997304" lon="16.1135263"><ele>994.0</ele><time>2026-04-11T10:34:25.696Z</time></trkpt><trkpt lat="38.2998374" lon="16.1136644"><ele>992.5</ele><time>2026-04-11T10:34:26.696Z</time></trkpt><trkpt lat="38.299949" lon="16.1137878"><ele>991.0</ele><time>2026-04-11T10:34:27.696Z</time></trkpt><trkpt lat="38.3000733" lon="16.1138777"><ele>989.5</ele><time>2026-04-11T10:34:28.696Z</time></trkpt><trkpt lat="38.3002098" lon="16.1139354"><ele>988.0</ele><time>2026-04-11T10:34:29.696Z</time></trkpt><trkpt lat="38.3003445" lon="16.1139573"><ele>988.0</ele><time>2026-04-11T10:34:30.697Z</time></trkpt><trkpt lat="38.3004916" lon="16.113945"><ele>988.0</ele><time>2026-04-11T10:34:31.696Z</time></trkpt><trkpt lat="38.3006479" lon="16.1139236"><ele>988.0</ele><time>2026-04-11T10:34:32.697Z</time></trkpt><trkpt lat="38.3007984" lon="16.1139007"><ele>989.0</ele><time>2026-04-11T10:34:33.697Z</time></trkpt><trkpt lat="38.3009597" lon="16.1138723"><ele>990.0</ele><time>2026-04-11T10:34:34.697Z</time></trkpt><trkpt lat="38.3011261" lon="16.1138445"><ele>991.0</ele><time>2026-04-11T10:34:35.696Z</time></trkpt><trkpt lat="38.3013055" lon="16.1138096"><ele>989.0</ele><time>2026-04-11T10:34:36.697Z</time></trkpt><trkpt lat="38.301488" lon="16.1137691"><ele>987.0</ele><time>2026-04-11T10:34:37.696Z</time></trkpt><trkpt lat="38.301673" lon="16.1137367"><ele>985.0</ele><time>2026-04-11T10:34:38.696Z</time></trkpt><trkpt lat="38.3018557" lon="16.1137086"><ele>985.0</ele><time>2026-04-11T10:34:39.696Z</time></trkpt><trkpt lat="38.3020363" lon="16.1136762"><ele>985.0</ele><time>2026-04-11T10:34:40.696Z</time></trkpt><trkpt lat="38.3022076" lon="16.1136519"><ele>985.0</ele><time>2026-04-11T10:34:41.697Z</time></trkpt><trkpt lat="38.3023771" lon="16.1136285"><ele>984.3333333333333</ele><time>2026-04-11T10:34:42.696Z</time></trkpt><trkpt lat="38.3025445" lon="16.1136104"><ele>983.6666666666667</ele><time>2026-04-11T10:34:43.696Z</time></trkpt><trkpt lat="38.3027186" lon="16.1135801"><ele>983.0</ele><time>2026-04-11T10:34:44.696Z</time></trkpt><trkpt lat="38.3028931" lon="16.1135524"><ele>983.0</ele><time>2026-04-11T10:34:45.696Z</time></trkpt><trkpt lat="38.3030589" lon="16.11352"><ele>983.0</ele><time>2026-04-11T10:34:46.696Z</time></trkpt><trkpt lat="38.2987884" lon="16.1121516"><ele>986.0</ele><time>2026-04-11T10:34:16.696Z</time></trkpt><trkpt lat="38.2989042" lon="16.1122934"><ele>989.0</ele><time>2026-04-11T10:34:17.696Z</time></trkpt><trkpt lat="38.2990148" lon="16.1124484"><ele>992.0</ele><time>2026-04-11T10:34:18.696Z</time></trkpt><trkpt lat="38.2991156" lon="16.1126135"><ele>992.0</ele><time>2026-04-11T10:34:19.696Z</time></trkpt><trkpt lat="38.2992129" lon="16.1127805"><ele>992.0</ele><time>2026-04-11T10:34:20.697Z</time></trkpt><trkpt lat="38.2993121" lon="16.1129377"><ele>992.0</ele><time>2026-04-11T10:34:21.697Z</time></trkpt><trkpt lat="38.2994156" lon="16.1130872"><ele>992.0</ele><time>2026-04-11T10:34:22.696Z</time></trkpt><trkpt lat="38.2995157" lon="16.1132344"><ele>992.0</ele><time>2026-04-11T10:34:23.697Z</time></trkpt><trkpt lat="38.2996219" lon="16.1133812"><ele>992.0</ele><time>2026-04-11T10:34:24.696Z</time></trkpt><trkpt lat="38.2997304" lon="16.1135263"><ele>991.0</ele><time>2026-04-11T10:34:25.696Z</time></trkpt><trkpt lat="38.2998374" lon="16.1136644"><ele>990.0</ele><time>2026-04-11T10:34:26.696Z</time></trkpt><trkpt lat="38.299949" lon="16.1137878"><ele>989.0</ele><time>2026-04-11T10:34:27.696Z</time></trkpt><trkpt lat="38.3000733" lon="16.1138777"><ele>988.0</ele><time>2026-04-11T10:34:28.696Z</time></trkpt><trkpt lat="38.3002098" lon="16.1139354"><ele>988.0</ele><time>2026-04-11T10:34:29.696Z</time></trkpt><trkpt lat="38.3003445" lon="16.1139573"><ele>988.0</ele><time>2026-04-11T10:34:30.697Z</time></trkpt><trkpt lat="38.3004916" lon="16.113945"><ele>988.0</ele><time>2026-04-11T10:34:31.696Z</time></trkpt><trkpt lat="38.3006479" lon="16.1139236"><ele>988.0</ele><time>2026-04-11T10:34:32.697Z</time></trkpt><trkpt lat="38.3007984" lon="16.1139007"><ele>989.0</ele><time>2026-04-11T10:34:33.697Z</time></trkpt><trkpt lat="38.3009597" lon="16.1138723"><ele>990.0</ele><time>2026-04-11T10:34:34.697Z</time></trkpt><trkpt lat="38.3011261" lon="16.1138445"><ele>991.0</ele><time>2026-04-11T10:34:35.696Z</time></trkpt><trkpt lat="38.3013055" lon="16.1138096"><ele>989.0</ele><time>2026-04-11T10:34:36.697Z</time></trkpt><trkpt lat="38.301488" lon="16.1137691"><ele>987.0</ele><time>2026-04-11T10:34:37.696Z</time></trkpt><trkpt lat="38.301673" lon="16.1137367"><ele>985.0</ele><time>2026-04-11T10:34:38.696Z</time></trkpt><trkpt lat="38.3018557" lon="16.1137086"><ele>985.0</ele><time>2026-04-11T10:34:39.696Z</time></trkpt><trkpt lat="38.3020363" lon="16.1136762"><ele>985.0</ele><time>2026-04-11T10:34:40.696Z</time></trkpt><trkpt lat="38.3022076" lon="16.1136519"><ele>985.0</ele><time>2026-04-11T10:34:41.697Z</time></trkpt><trkpt lat="38.3023771" lon="16.1136285"><ele>984.3333333333333</ele><time>2026-04-11T10:34:42.696Z</time></trkpt><trkpt lat="38.3025445" lon="16.1136104"><ele>983.6666666666667</ele><time>2026-04-11T10:34:43.696Z</time></trkpt><trkpt lat="38.3027186" lon="16.1135801"><ele>983.0</ele><time>2026-04-11T10:34:44.696Z</time></trkpt><trkpt lat="38.3028931" lon="16.1135524"><ele>983.0</ele><time>2026-04-11T10:34:45.696Z</time></trkpt><trkpt lat="38.3030589" lon="16.11352"><ele>983.0</ele><time>2026-04-11T10:34:46.696Z</time></trkpt><trkpt lat="38.3032066" lon="16.1135011"><ele>983.0</ele><time>2026-04-11T10:34:47.696Z</time></trkpt><trkpt lat="38.3033409" lon="16.1134954"><ele>983.25</ele><time>2026-04-11T10:34:48.697Z</time></trkpt><trkpt lat="38.3034613" lon="16.113509"><ele>983.5</ele><time>2026-04-11T10:34:49.697Z</time></trkpt><trkpt lat="38.3035683" lon="16.1135541"><ele>983.75</ele><time>2026-04-11T10:34:50.697Z</time></trkpt><trkpt lat="38.303673" lon="16.1136251"><ele>984.0</ele><time>2026-04-11T10:34:51.696Z</time></trkpt><trkpt lat="38.3037873" lon="16.1136962"><ele>984.0</ele><time>2026-04-11T10:34:52.697Z</time></trkpt><trkpt lat="38.3039064" lon="16.1137632"><ele>984.0</ele><time>2026-04-11T10:34:53.697Z</time></trkpt><trkpt lat="38.3040338" lon="16.1138233"><ele>984.0</ele><time>2026-04-11T10:34:54.696Z</time></trkpt><trkpt lat="38.3041702" lon="16.1138836"><ele>984.0</ele><time>2026-04-11T10:34:55.697Z</time></trkpt><trkpt lat="38.3043212" lon="16.1139363"><ele>983.5</ele><time>2026-04-11T10:34:56.696Z</time></trkpt><trkpt lat="38.304463" lon="16.1139877"><ele>983.0</ele><time>2026-04-11T10:34:57.696Z</time></trkpt><trkpt lat="38.3045874" lon="16.1140315"><ele>982.5</ele><time>2026-04-11T10:34:58.697Z</time></trkpt><trkpt lat="38.3047057" lon="16.1140512"><ele>982.0</ele><time>2026-04-11T10:34:59.696Z</time></trkpt><trkpt lat="38.3048073" lon="16.1140621"><ele>981.25</ele><time>2026-04-11T10:35:00.696Z</time></trkpt><trkpt lat="38.3049097" lon="16.1140426"><ele>980.5</ele><time>2026-04-11T10:35:01.697Z</time></trkpt><trkpt lat="38.3050243" lon="16.113994"><ele>979.75</ele><time>2026-04-11T10:35:02.696Z</time></trkpt><trkpt lat="38.3051415" lon="16.1139336"><ele>979.0</ele><time>2026-04-11T10:35:03.696Z</time></trkpt><trkpt lat="38.3052621" lon="16.1138747"><ele>979.0</ele><time>2026-04-11T10:35:04.697Z</time></trkpt><trkpt lat="38.3053923" lon="16.1138122"><ele>979.0</ele><time>2026-04-11T10:35:05.696Z</time></trkpt><trkpt lat="38.3055296" lon="16.1137611"><ele>979.0</ele><time>2026-04-11T10:35:06.696Z</time></trkpt><trkpt lat="38.3056776" lon="16.1137277"><ele>979.0</ele><time>2026-04-11T10:35:07.696Z</time></trkpt><trkpt lat="38.3058365" lon="16.1136976"><ele>976.0</ele><time>2026-04-11T10:35:08.696Z</time></trkpt><trkpt lat="38.3059996" lon="16.1136819"><ele>973.0</ele><time>2026-04-11T10:35:09.697Z</time></trkpt><trkpt lat="38.3061665" lon="16.1136647"><ele>970.0</ele><time>2026-04-11T10:35:10.696Z</time></trkpt><trkpt lat="38.306334" lon="16.1136512"><ele>969.0</ele><time>2026-04-11T10:35:11.696Z</time></trkpt><trkpt lat="38.3065013" lon="16.1136345"><ele>968.0</ele><time>2026-04-11T10:35:12.697Z</time></trkpt><trkpt lat="38.3066593" lon="16.1136095"><ele>967.0</ele><time>2026-04-11T10:35:13.696Z</time></trkpt><trkpt lat="38.3068078" lon="16.113587"><ele>967.0</ele><time>2026-04-11T10:35:14.697Z</time></trkpt><trkpt lat="38.3069424" lon="16.1135735"><ele>967.0</ele><time>2026-04-11T10:35:15.696Z</time></trkpt><trkpt lat="38.3070643" lon="16.1135856"><ele>967.0</ele><time>2026-04-11T10:35:16.696Z</time></trkpt><trkpt lat="38.3071809" lon="16.1136134"><ele>967.0</ele><time>2026-04-11T10:35:17.696Z</time></trkpt><trkpt lat="38.3072892" lon="16.1136758"><ele>967.25</ele><time>2026-04-11T10:35:18.697Z</time></trkpt><trkpt lat="38.3073834" lon="16.1137762"><ele>967.5</ele><time>2026-04-11T10:35:19.696Z</time></trkpt><trkpt lat="38.3074525" lon="16.1139113"><ele>967.75</ele><time>2026-04-11T10:35:20.696Z</time></trkpt><trkpt lat="38.3075039" lon="16.1140794"><ele>968.0</ele><time>2026-04-11T10:35:21.697Z</time></trkpt><trkpt lat="38.3075562" lon="16.1142499"><ele>968.0</ele><time>2026-04-11T10:35:22.697Z</time></trkpt><trkpt lat="38.307612" lon="16.1144135"><ele>968.0</ele><time>2026-04-11T10:35:23.696Z</time></trkpt><trkpt lat="38.307668" lon="16.1145741"><ele>968.0</ele><time>2026-04-11T10:35:24.696Z</time></trkpt><trkpt lat="38.3077228" lon="16.114738"><ele>968.0</ele><time>2026-04-11T10:35:25.696Z</time></trkpt><trkpt lat="38.3077841" lon="16.1149004"><ele>968.5</ele><time>2026-04-11T10:35:26.696Z</time></trkpt><trkpt lat="38.3078346" lon="16.1150647"><ele>969.0</ele><time>2026-04-11T10:35:27.696Z</time></trkpt><trkpt lat="38.3078697" lon="16.115234"><ele>969.5</ele><time>2026-04-11T10:35:28.697Z</time></trkpt><trkpt lat="38.3078975" lon="16.1153982"><ele>970.0</ele><time>2026-04-11T10:35:29.696Z</time></trkpt><trkpt lat="38.3079262" lon="16.1155608"><ele>970.0</ele><time>2026-04-11T10:35:30.696Z</time></trkpt><trkpt lat="38.3079475" lon="16.115727"><ele>970.0</ele><time>2026-04-11T10:35:31.696Z</time></trkpt><trkpt lat="38.3079609" lon="16.1158922"><ele>970.0</ele><time>2026-04-11T10:35:32.697Z</time></trkpt><trkpt lat="38.3079609" lon="16.1160487"><ele>970.0</ele><time>2026-04-11T10:35:33.696Z</time></trkpt><trkpt lat="38.3079561" lon="16.1161958"><ele>970.25</ele><time>2026-04-11T10:35:34.696Z</time></trkpt><trkpt lat="38.3079466" lon="16.1163434"><ele>970.5</ele><time>2026-04-11T10:35:35.696Z</time></trkpt><trkpt lat="38.3079306" lon="16.116483"><ele>970.75</ele><time>2026-04-11T10:35:36.696Z</time></trkpt><trkpt lat="38.3079224" lon="16.1166359"><ele>971.0</ele><time>2026-04-11T10:35:37.696Z</time></trkpt><trkpt lat="38.3079105" lon="16.116801"><ele>971.0</ele><time>2026-04-11T10:35:38.697Z</time></trkpt><trkpt lat="38.3078924" lon="16.116975"><ele>971.0</ele><time>2026-04-11T10:35:39.697Z</time></trkpt><trkpt lat="38.3078729" lon="16.1171512"><ele>971.0</ele><time>2026-04-11T10:35:40.697Z</time></trkpt><trkpt lat="38.3078571" lon="16.1173318"><ele>971.0</ele><time>2026-04-11T10:35:41.696Z</time></trkpt><trkpt lat="38.3078586" lon="16.117523"><ele>972.3333333333334</ele><time>2026-04-11T10:35:42.697Z</time></trkpt><trkpt lat="38.307875" lon="16.1177145"><ele>973.6666666666667</ele><time>2026-04-11T10:35:43.696Z</time></trkpt><trkpt lat="38.3079125" lon="16.1179113"><ele>975.0</ele><time>2026-04-11T10:35:44.696Z</time></trkpt><trkpt lat="38.3079726" lon="16.1181051"><ele>974.6666666666667</ele><time>2026-04-11T10:35:45.697Z</time></trkpt><trkpt lat="38.3080459" lon="16.1182906"><ele>974.3333333333334</ele><time>2026-04-11T10:35:46.696Z</time></trkpt><trkpt lat="38.3081255" lon="16.118467"><ele>974.0</ele><time>2026-04-11T10:35:47.697Z</time></trkpt><trkpt lat="38.3081985" lon="16.1186412"><ele>973.0</ele><time>2026-04-11T10:35:48.696Z</time></trkpt><trkpt lat="38.3082761" lon="16.1188174"><ele>972.0</ele><time>2026-04-11T10:35:49.696Z</time></trkpt><trkpt lat="38.308354" lon="16.1190015"><ele>971.0</ele><time>2026-04-11T10:35:50.697Z</time></trkpt><trkpt lat="38.3084306" lon="16.1191852"><ele>971.0</ele><time>2026-04-11T10:35:51.696Z</time></trkpt><trkpt lat="38.308512" lon="16.1193621"><ele>971.0</ele><time>2026-04-11T10:35:52.696Z</time></trkpt><trkpt lat="38.3085931" lon="16.1195371"><ele>971.0</ele><time>2026-04-11T10:35:53.696Z</time></trkpt><trkpt lat="38.3086697" lon="16.1197072"><ele>971.0</ele><time>2026-04-11T10:35:54.696Z</time></trkpt><trkpt lat="38.3087511" lon="16.1198735"><ele>971.0</ele><time>2026-04-11T10:35:55.697Z</time></trkpt><trkpt lat="38.3088275" lon="16.1200243"><ele>971.0</ele><time>2026-04-11T10:35:56.696Z</time></trkpt><trkpt lat="38.3088982" lon="16.120176"><ele>971.0</ele><time>2026-04-11T10:35:57.697Z</time></trkpt><trkpt lat="38.3089571" lon="16.1203359"><ele>970.75</ele><time>2026-04-11T10:35:58.697Z</time></trkpt><trkpt lat="38.3090063" lon="16.1204973"><ele>970.5</ele><time>2026-04-11T10:35:59.696Z</time></trkpt><trkpt lat="38.3090454" lon="16.1206611"><ele>970.25</ele><time>2026-04-11T10:36:00.697Z</time></trkpt><trkpt lat="38.3090716" lon="16.1208259"><ele>970.0</ele><time>2026-04-11T10:36:01.696Z</time></trkpt><trkpt lat="38.309082" lon="16.1209956"><ele>970.25</ele><time>2026-04-11T10:36:02.697Z</time></trkpt><trkpt lat="38.3090831" lon="16.1211755"><ele>970.5</ele><time>2026-04-11T10:36:03.697Z</time></trkpt><trkpt lat="38.3090733" lon="16.121349"><ele>970.75</ele><time>2026-04-11T10:36:04.696Z</time></trkpt><trkpt lat="38.3090665" lon="16.1215291"><ele>971.0</ele><time>2026-04-11T10:36:05.697Z</time></trkpt><trkpt lat="38.3090602" lon="16.1217063"><ele>971.0</ele><time>2026-04-11T10:36:06.696Z</time></trkpt><trkpt lat="38.3090476" lon="16.1218881"><ele>971.0</ele><time>2026-04-11T10:36:07.696Z</time></trkpt><trkpt lat="38.3090394" lon="16.1220651"><ele>971.0</ele><time>2026-04-11T10:36:08.696Z</time></trkpt><trkpt lat="38.3090438" lon="16.1222429"><ele>971.0</ele><time>2026-04-11T10:36:09.696Z</time></trkpt><trkpt lat="38.3090818" lon="16.1224192"><ele>969.6666666666667</ele><time>2026-04-11T10:36:10.697Z</time></trkpt><trkpt lat="38.3091397" lon="16.1225883"><ele>968.3333333333333</ele><time>2026-04-11T10:36:11.696Z</time></trkpt><trkpt lat="38.3092288" lon="16.122747"><ele>967.0</ele><time>2026-04-11T10:36:12.696Z</time></trkpt><trkpt lat="38.3093462" lon="16.1228927"><ele>967.0</ele><time>2026-04-11T10:36:13.697Z</time></trkpt><trkpt lat="38.3094841" lon="16.1230198"><ele>967.0</ele><time>2026-04-11T10:36:14.696Z</time></trkpt><trkpt lat="38.3096323" lon="16.123102"><ele>967.0</ele><time>2026-04-11T10:36:15.696Z</time></trkpt><trkpt lat="38.3097712" lon="16.1231836"><ele>963.6666666666666</ele><time>2026-04-11T10:36:16.696Z</time></trkpt><trkpt lat="38.3099046" lon="16.1232824"><ele>960.3333333333333</ele><time>2026-04-11T10:36:17.697Z</time></trkpt><trkpt lat="38.3100168" lon="16.1234065"><ele>957.0</ele><time>2026-04-11T10:36:18.696Z</time></trkpt><trkpt lat="38.3101168" lon="16.1235487"><ele>957.0</ele><time>2026-04-11T10:36:19.696Z</time></trkpt><trkpt lat="38.3102038" lon="16.1237004"><ele>957.0</ele><time>2026-04-11T10:36:20.696Z</time></trkpt><trkpt lat="38.3102707" lon="16.1238756"><ele>957.0</ele><time>2026-04-11T10:36:21.697Z</time></trkpt><trkpt lat="38.3103231" lon="16.1240607"><ele>958.3333333333333</ele><time>2026-04-11T10:36:22.696Z</time></trkpt><trkpt lat="38.3103567" lon="16.1242621"><ele>959.6666666666666</ele><time>2026-04-11T10:36:23.697Z</time></trkpt><trkpt lat="38.3103866" lon="16.1244559"><ele>961.0</ele><time>2026-04-11T10:36:24.696Z</time></trkpt><trkpt lat="38.3104256" lon="16.1246413"><ele>961.0</ele><time>2026-04-11T10:36:25.696Z</time></trkpt><trkpt lat="38.3104757" lon="16.1248179"><ele>961.0</ele><time>2026-04-11T10:36:26.696Z</time></trkpt><trkpt lat="38.3105421" lon="16.1249832"><ele>961.0</ele><time>2026-04-11T10:36:27.696Z</time></trkpt><trkpt lat="38.3106226" lon="16.1251371"><ele>961.0</ele><time>2026-04-11T10:36:28.696Z</time></trkpt><trkpt lat="38.310705" lon="16.1252911"><ele>958.0</ele><time>2026-04-11T10:36:29.696Z</time></trkpt><trkpt lat="38.3108059" lon="16.1254294"><ele>955.0</ele><time>2026-04-11T10:36:30.697Z</time></trkpt><trkpt lat="38.3109188" lon="16.1255579"><ele>952.0</ele><time>2026-04-11T10:36:31.696Z</time></trkpt><trkpt lat="38.3110461" lon="16.1256784"><ele>952.3333333333333</ele><time>2026-04-11T10:36:32.697Z</time></trkpt><trkpt lat="38.3111814" lon="16.1257837"><ele>952.6666666666667</ele><time>2026-04-11T10:36:33.696Z</time></trkpt><trkpt lat="38.3113133" lon="16.1258867"><ele>953.0</ele><time>2026-04-11T10:36:34.696Z</time></trkpt><trkpt lat="38.31145" lon="16.1259848"><ele>951.0</ele><time>2026-04-11T10:36:35.696Z</time></trkpt><trkpt lat="38.3115916" lon="16.1260725"><ele>949.0</ele><time>2026-04-11T10:36:36.696Z</time></trkpt><trkpt lat="38.3117254" lon="16.1261734"><ele>947.0</ele><time>2026-04-11T10:36:37.696Z</time></trkpt><trkpt lat="38.311859" lon="16.1262652"><ele>947.0</ele><time>2026-04-11T10:36:38.697Z</time></trkpt><trkpt lat="38.3119976" lon="16.1263583"><ele>947.0</ele><time>2026-04-11T10:36:39.697Z</time></trkpt><trkpt lat="38.3121363" lon="16.1264553"><ele>947.0</ele><time>2026-04-11T10:36:40.697Z</time></trkpt><trkpt lat="38.3122835" lon="16.1265572"><ele>946.3333333333334</ele><time>2026-04-11T10:36:41.696Z</time></trkpt><trkpt lat="38.312427" lon="16.126653"><ele>945.6666666666667</ele><time>2026-04-11T10:36:42.696Z</time></trkpt><trkpt lat="38.3125719" lon="16.1267533"><ele>945.0</ele><time>2026-04-11T10:36:43.696Z</time></trkpt><trkpt lat="38.3127199" lon="16.1268534"><ele>945.0</ele><time>2026-04-11T10:36:44.697Z</time></trkpt><trkpt lat="38.3128649" lon="16.1269608"><ele>945.0</ele><time>2026-04-11T10:36:45.696Z</time></trkpt><trkpt lat="38.3130248" lon="16.1270562"><ele>945.0</ele><time>2026-04-11T10:36:46.696Z</time></trkpt><trkpt lat="38.3131779" lon="16.127158"><ele>944.6666666666667</ele><time>2026-04-11T10:36:47.696Z</time></trkpt><trkpt lat="38.3133292" lon="16.1272683"><ele>944.3333333333334</ele><time>2026-04-11T10:36:48.696Z</time></trkpt><trkpt lat="38.313478" lon="16.1273698"><ele>944.0</ele><time>2026-04-11T10:36:49.696Z</time></trkpt><trkpt lat="38.3136318" lon="16.1274839"><ele>943.6666666666667</ele><time>2026-04-11T10:36:50.697Z</time></trkpt><trkpt lat="38.3137929" lon="16.1275916"><ele>943.3333333333333</ele><time>2026-04-11T10:36:51.697Z</time></trkpt><trkpt lat="38.3139499" lon="16.1276917"><ele>943.0</ele><time>2026-04-11T10:36:52.697Z</time></trkpt><trkpt lat="38.314112" lon="16.1277992"><ele>943.0</ele><time>2026-04-11T10:36:53.696Z</time></trkpt><trkpt lat="38.3142725" lon="16.1279216"><ele>943.0</ele><time>2026-04-11T10:36:54.696Z</time></trkpt><trkpt lat="38.3144361" lon="16.1280449"><ele>943.0</ele><time>2026-04-11T10:36:55.696Z</time></trkpt><trkpt lat="38.3145999" lon="16.1281634"><ele>943.0</ele><time>2026-04-11T10:36:56.697Z</time></trkpt><trkpt lat="38.3147655" lon="16.128278"><ele>943.0</ele><time>2026-04-11T10:36:57.696Z</time></trkpt><trkpt lat="38.3149364" lon="16.128394"><ele>943.0</ele><time>2026-04-11T10:36:58.696Z</time></trkpt><trkpt lat="38.3151099" lon="16.1285052"><ele>943.0</ele><time>2026-04-11T10:36:59.696Z</time></trkpt><trkpt lat="38.3152817" lon="16.1286099"><ele>943.0</ele><time>2026-04-11T10:37:00.696Z</time></trkpt><trkpt lat="38.3154632" lon="16.1287044"><ele>943.0</ele><time>2026-04-11T10:37:01.696Z</time></trkpt><trkpt lat="38.3156387" lon="16.1287967"><ele>942.3333333333333</ele><time>2026-04-11T10:37:02.696Z</time></trkpt><trkpt lat="38.3158158" lon="16.1289"><ele>941.6666666666667</ele><time>2026-04-11T10:37:03.696Z</time></trkpt><trkpt lat="38.3159911" lon="16.1290127"><ele>941.0</ele><time>2026-04-11T10:37:04.697Z</time></trkpt><trkpt lat="38.3161623" lon="16.1291219"><ele>941.6666666666667</ele><time>2026-04-11T10:37:05.697Z</time></trkpt><trkpt lat="38.3163351" lon="16.1292174"><ele>942.3333333333333</ele><time>2026-04-11T10:37:06.697Z</time></trkpt><trkpt lat="38.3165046" lon="16.1293221"><ele>943.0</ele><time>2026-04-11T10:37:07.697Z</time></trkpt><trkpt lat="38.3166682" lon="16.1294361"><ele>943.0</ele><time>2026-04-11T10:37:08.696Z</time></trkpt><trkpt lat="38.3168289" lon="16.1295521"><ele>943.0</ele><time>2026-04-11T10:37:09.696Z</time></trkpt><trkpt lat="38.316995" lon="16.1296601"><ele>943.0</ele><time>2026-04-11T10:37:10.696Z</time></trkpt><trkpt lat="38.3171665" lon="16.1297684"><ele>942.3333333333333</ele><time>2026-04-11T10:37:11.697Z</time></trkpt><trkpt lat="38.3173371" lon="16.1298769"><ele>941.6666666666667</ele><time>2026-04-11T10:37:12.696Z</time></trkpt><trkpt lat="38.3175102" lon="16.1299815"><ele>941.0</ele><time>2026-04-11T10:37:13.697Z</time></trkpt><trkpt lat="38.317685" lon="16.1300862"><ele>941.0</ele><time>2026-04-11T10:37:14.696Z</time></trkpt><trkpt lat="38.3178615" lon="16.1301911"><ele>941.0</ele><time>2026-04-11T10:37:15.696Z</time></trkpt><trkpt lat="38.3180344" lon="16.1303015"><ele>941.0</ele><time>2026-04-11T10:37:16.696Z</time></trkpt><trkpt lat="38.3182052" lon="16.1304143"><ele>940.3333333333334</ele><time>2026-04-11T10:37:17.697Z</time></trkpt><trkpt lat="38.3183789" lon="16.1305267"><ele>939.6666666666667</ele><time>2026-04-11T10:37:18.696Z</time></trkpt><trkpt lat="38.3185453" lon="16.1306521"><ele>939.0</ele><time>2026-04-11T10:37:19.696Z</time></trkpt><trkpt lat="38.318723" lon="16.13077"><ele>940.3333333333333</ele><time>2026-04-11T10:37:20.696Z</time></trkpt><trkpt lat="38.3189039" lon="16.1308821"><ele>941.6666666666666</ele><time>2026-04-11T10:37:21.696Z</time></trkpt><trkpt lat="38.3190769" lon="16.1309954"><ele>943.0</ele><time>2026-04-11T10:37:22.696Z</time></trkpt><trkpt lat="38.3192458" lon="16.1311062"><ele>943.0</ele><time>2026-04-11T10:37:23.696Z</time></trkpt><trkpt lat="38.3194101" lon="16.1312186"><ele>943.0</ele><time>2026-04-11T10:37:24.696Z</time></trkpt><trkpt lat="38.3195673" lon="16.1313428"><ele>943.0</ele><time>2026-04-11T10:37:25.696Z</time></trkpt><trkpt lat="38.3197361" lon="16.1314507"><ele>944.0</ele><time>2026-04-11T10:37:26.697Z</time></trkpt><trkpt lat="38.3199057" lon="16.1315584"><ele>945.0</ele><time>2026-04-11T10:37:27.697Z</time></trkpt><trkpt lat="38.3200782" lon="16.1316605"><ele>946.0</ele><time>2026-04-11T10:37:28.696Z</time></trkpt><trkpt lat="38.3202565" lon="16.1317691"><ele>946.0</ele><time>2026-04-11T10:37:29.696Z</time></trkpt><trkpt lat="38.3204299" lon="16.1318715"><ele>946.0</ele><time>2026-04-11T10:37:30.697Z</time></trkpt><trkpt lat="38.3205946" lon="16.1319861"><ele>946.0</ele><time>2026-04-11T10:37:31.696Z</time></trkpt><trkpt lat="38.3207655" lon="16.1321065"><ele>946.6666666666666</ele><time>2026-04-11T10:37:32.697Z</time></trkpt><trkpt lat="38.3209373" lon="16.1322195"><ele>947.3333333333333</ele><time>2026-04-11T10:37:33.697Z</time></trkpt><trkpt lat="38.3211106" lon="16.1323336"><ele>948.0</ele><time>2026-04-11T10:37:34.696Z</time></trkpt><trkpt lat="38.3212916" lon="16.1324465"><ele>946.6666666666667</ele><time>2026-04-11T10:37:35.696Z</time></trkpt><trkpt lat="38.3214696" lon="16.132563"><ele>945.3333333333334</ele><time>2026-04-11T10:37:36.696Z</time></trkpt><trkpt lat="38.3216415" lon="16.1326792"><ele>944.0</ele><time>2026-04-11T10:37:37.696Z</time></trkpt><trkpt lat="38.3218109" lon="16.1328103"><ele>944.0</ele><time>2026-04-11T10:37:38.696Z</time></trkpt><trkpt lat="38.3219803" lon="16.1329192"><ele>944.0</ele><time>2026-04-11T10:37:39.697Z</time></trkpt><trkpt lat="38.322155" lon="16.1330267"><ele>944.0</ele><time>2026-04-11T10:37:40.696Z</time></trkpt><trkpt lat="38.3223349" lon="16.1331333"><ele>944.3333333333334</ele><time>2026-04-11T10:37:41.697Z</time></trkpt><trkpt lat="38.3225103" lon="16.1332406"><ele>944.6666666666667</ele><time>2026-04-11T10:37:42.696Z</time></trkpt><trkpt lat="38.3226842" lon="16.1333532"><ele>945.0</ele><time>2026-04-11T10:37:43.697Z</time></trkpt><trkpt lat="38.3228502" lon="16.1334665"><ele>945.0</ele><time>2026-04-11T10:37:44.696Z</time></trkpt><trkpt lat="38.3230214" lon="16.1335737"><ele>945.0</ele><time>2026-04-11T10:37:45.696Z</time></trkpt><trkpt lat="38.3231991" lon="16.1336852"><ele>945.0</ele><time>2026-04-11T10:37:46.696Z</time></trkpt><trkpt lat="38.3233699" lon="16.1337941"><ele>945.3333333333333</ele><time>2026-04-11T10:37:47.697Z</time></trkpt><trkpt lat="38.3235436" lon="16.1339013"><ele>945.6666666666666</ele><time>2026-04-11T10:37:48.696Z</time></trkpt><trkpt lat="38.3237111" lon="16.1340154"><ele>946.0</ele><time>2026-04-11T10:37:49.696Z</time></trkpt><trkpt lat="38.3238719" lon="16.1341366"><ele>946.3333333333333</ele><time>2026-04-11T10:37:50.696Z</time></trkpt><trkpt lat="38.3240381" lon="16.1342525"><ele>946.6666666666667</ele><time>2026-04-11T10:37:51.697Z</time></trkpt><trkpt lat="38.3242097" lon="16.1343578"><ele>947.0</ele><time>2026-04-11T10:37:52.697Z</time></trkpt><trkpt lat="38.3243773" lon="16.1344658"><ele>947.0</ele><time>2026-04-11T10:37:53.696Z</time></trkpt><trkpt lat="38.3245438" lon="16.1345746"><ele>947.0</ele><time>2026-04-11T10:37:54.697Z</time></trkpt><trkpt lat="38.3247051" lon="16.1346892"><ele>947.0</ele><time>2026-04-11T10:37:55.696Z</time></trkpt><trkpt lat="38.3248688" lon="16.1348019"><ele>948.3333333333334</ele><time>2026-04-11T10:37:56.697Z</time></trkpt><trkpt lat="38.3250352" lon="16.1349085"><ele>949.6666666666667</ele><time>2026-04-11T10:37:57.696Z</time></trkpt><trkpt lat="38.3251978" lon="16.1350219"><ele>951.0</ele><time>2026-04-11T10:37:58.697Z</time></trkpt><trkpt lat="38.3253546" lon="16.1351254"><ele>951.0</ele><time>2026-04-11T10:37:59.696Z</time></trkpt><trkpt lat="38.325506" lon="16.1352272"><ele>951.0</ele><time>2026-04-11T10:38:00.696Z</time></trkpt><trkpt lat="38.3256559" lon="16.1353288"><ele>951.0</ele><time>2026-04-11T10:38:01.696Z</time></trkpt><trkpt lat="38.3258036" lon="16.1354416"><ele>951.0</ele><time>2026-04-11T10:38:02.696Z</time></trkpt><trkpt lat="38.3259548" lon="16.135541"><ele>951.0</ele><time>2026-04-11T10:38:03.696Z</time></trkpt><trkpt lat="38.3260987" lon="16.1356427"><ele>951.0</ele><time>2026-04-11T10:38:04.697Z</time></trkpt><trkpt lat="38.3262366" lon="16.1357414"><ele>951.3333333333333</ele><time>2026-04-11T10:38:05.696Z</time></trkpt><trkpt lat="38.3263741" lon="16.1358313"><ele>951.6666666666666</ele><time>2026-04-11T10:38:06.696Z</time></trkpt><trkpt lat="38.3265056" lon="16.1359209"><ele>952.0</ele><time>2026-04-11T10:38:07.696Z</time></trkpt><trkpt lat="38.3266448" lon="16.1360091"><ele>952.25</ele><time>2026-04-11T10:38:08.696Z</time></trkpt><trkpt lat="38.3267766" lon="16.1361017"><ele>952.5</ele><time>2026-04-11T10:38:09.696Z</time></trkpt><trkpt lat="38.3269039" lon="16.1361943"><ele>952.75</ele><time>2026-04-11T10:38:10.696Z</time></trkpt><trkpt lat="38.3270234" lon="16.1362792"><ele>953.0</ele><time>2026-04-11T10:38:11.696Z</time></trkpt><trkpt lat="38.3271463" lon="16.1363481"><ele>953.0</ele><time>2026-04-11T10:38:12.696Z</time></trkpt><trkpt lat="38.3272639" lon="16.1364245"><ele>953.0</ele><time>2026-04-11T10:38:13.696Z</time></trkpt><trkpt lat="38.3273853" lon="16.1364999"><ele>953.0</ele><time>2026-04-11T10:38:14.697Z</time></trkpt><trkpt lat="38.3275091" lon="16.1365774"><ele>953.0</ele><time>2026-04-11T10:38:15.696Z</time></trkpt><trkpt lat="38.3276295" lon="16.1366571"><ele>953.0</ele><time>2026-04-11T10:38:16.696Z</time></trkpt><trkpt lat="38.3277501" lon="16.1367297"><ele>953.0</ele><time>2026-04-11T10:38:17.697Z</time></trkpt><trkpt lat="38.3278593" lon="16.1367946"><ele>953.0</ele><time>2026-04-11T10:38:18.696Z</time></trkpt><trkpt lat="38.3279613" lon="16.1368532"><ele>953.0</ele><time>2026-04-11T10:38:19.696Z</time></trkpt><trkpt lat="38.3280515" lon="16.1369157"><ele>954.0</ele><time>2026-04-11T10:38:20.697Z</time></trkpt><trkpt lat="38.3281451" lon="16.136976"><ele>955.0</ele><time>2026-04-11T10:38:21.696Z</time></trkpt><trkpt lat="38.3282314" lon="16.1370314"><ele>956.0</ele><time>2026-04-11T10:38:22.696Z</time></trkpt><trkpt lat="38.3283146" lon="16.1370789"><ele>957.0</ele><time>2026-04-11T10:38:23.697Z</time></trkpt><trkpt lat="38.3283935" lon="16.1371215"><ele>958.0</ele><time>2026-04-11T10:38:24.696Z</time></trkpt><trkpt lat="38.3284632" lon="16.1371684"><ele>957.9999999999999</ele><time>2026-04-11T10:38:25.696Z</time></trkpt><trkpt lat="38.3285189" lon="16.1372083"><ele>958.0</ele><time>2026-04-11T10:38:26.696Z</time></trkpt><trkpt lat="38.3285974" lon="16.1372683"><ele>958.0</ele><time>2026-04-11T10:38:28.696Z</time></trkpt><trkpt lat="38.3286565" lon="16.1373099"><ele>958.0</ele><time>2026-04-11T10:38:31.697Z</time></trkpt><trkpt lat="38.3287072" lon="16.1373772"><ele>957.9999999999999</ele><time>2026-04-11T10:40:39.696Z</time></trkpt><trkpt lat="38.3287651" lon="16.1375079"><ele>958.0</ele><time>2026-04-11T10:40:41.696Z</time></trkpt><trkpt lat="38.3287981" lon="16.1376019"><ele>957.75</ele><time>2026-04-11T10:40:42.696Z</time></trkpt><trkpt lat="38.3288363" lon="16.1377134"><ele>957.5</ele><time>2026-04-11T10:40:43.696Z</time></trkpt><trkpt lat="38.3288753" lon="16.1378416"><ele>957.25</ele><time>2026-04-11T10:40:44.697Z</time></trkpt><trkpt lat="38.328913" lon="16.1379917"><ele>957.0</ele><time>2026-04-11T10:40:45.696Z</time></trkpt><trkpt lat="38.3289548" lon="16.1381389"><ele>957.6</ele><time>2026-04-11T10:40:46.696Z</time></trkpt><trkpt lat="38.3289952" lon="16.1382654"><ele>958.2</ele><time>2026-04-11T10:40:47.696Z</time></trkpt><trkpt lat="38.3290301" lon="16.1383775"><ele>958.8</ele><time>2026-04-11T10:40:48.697Z</time></trkpt><trkpt lat="38.3290623" lon="16.1384821"><ele>959.4</ele><time>2026-04-11T10:40:49.697Z</time></trkpt><trkpt lat="38.3290975" lon="16.1385834"><ele>960.0</ele><time>2026-04-11T10:40:50.696Z</time></trkpt><trkpt lat="38.3291296" lon="16.1386753"><ele>960.0</ele><time>2026-04-11T10:40:51.697Z</time></trkpt><trkpt lat="38.3291572" lon="16.1387576"><ele>960.0</ele><time>2026-04-11T10:40:52.696Z</time></trkpt><trkpt lat="38.329186" lon="16.1388467"><ele>960.0</ele><time>2026-04-11T10:40:53.696Z</time></trkpt><trkpt lat="38.3292158" lon="16.1389502"><ele>960.0</ele><time>2026-04-11T10:40:54.696Z</time></trkpt><trkpt lat="38.329245" lon="16.1390691"><ele>960.0</ele><time>2026-04-11T10:40:55.696Z</time></trkpt><trkpt lat="38.3292681" lon="16.1392014"><ele>960.0</ele><time>2026-04-11T10:40:56.696Z</time></trkpt><trkpt lat="38.3293041" lon="16.1393481"><ele>959.5</ele><time>2026-04-11T10:40:57.696Z</time></trkpt><trkpt lat="38.3293462" lon="16.1394953"><ele>959.0</ele><time>2026-04-11T10:40:58.696Z</time></trkpt><trkpt lat="38.3293886" lon="16.1396475"><ele>958.5</ele><time>2026-04-11T10:40:59.697Z</time></trkpt><trkpt lat="38.3294349" lon="16.1398045"><ele>958.0</ele><time>2026-04-11T10:41:00.696Z</time></trkpt><trkpt lat="38.3294871" lon="16.1399608"><ele>959.5</ele><time>2026-04-11T10:41:01.696Z</time></trkpt><trkpt lat="38.3295341" lon="16.1401096"><ele>961.0</ele><time>2026-04-11T10:41:02.697Z</time></trkpt><trkpt lat="38.3295829" lon="16.1402673"><ele>962.5</ele><time>2026-04-11T10:41:03.696Z</time></trkpt><trkpt lat="38.3296331" lon="16.1404234"><ele>964.0</ele><time>2026-04-11T10:41:04.696Z</time></trkpt><trkpt lat="38.3296839" lon="16.1405764"><ele>964.25</ele><time>2026-04-11T10:41:05.696Z</time></trkpt><trkpt lat="38.3297332" lon="16.1407303"><ele>964.5</ele><time>2026-04-11T10:41:06.696Z</time></trkpt><trkpt lat="38.3297792" lon="16.1408792"><ele>964.75</ele><time>2026-04-11T10:41:07.697Z</time></trkpt><trkpt lat="38.3298192" lon="16.1410307"><ele>965.0</ele><time>2026-04-11T10:41:08.696Z</time></trkpt><trkpt lat="38.3298625" lon="16.1411754"><ele>965.0</ele><time>2026-04-11T10:41:09.696Z</time></trkpt><trkpt lat="38.3299102" lon="16.1413193"><ele>965.0</ele><time>2026-04-11T10:41:10.696Z</time></trkpt><trkpt lat="38.3299569" lon="16.1414701"><ele>965.0</ele><time>2026-04-11T10:41:11.696Z</time></trkpt><trkpt lat="38.3299996" lon="16.1416202"><ele>965.0</ele><time>2026-04-11T10:41:12.696Z</time></trkpt><trkpt lat="38.3300366" lon="16.1417646"><ele>964.4</ele><time>2026-04-11T10:41:13.696Z</time></trkpt><trkpt lat="38.3300815" lon="16.1418891"><ele>963.8</ele><time>2026-04-11T10:41:14.696Z</time></trkpt><trkpt lat="38.3301188" lon="16.1420117"><ele>963.2</ele><time>2026-04-11T10:41:15.696Z</time></trkpt><trkpt lat="38.3301537" lon="16.1421233"><ele>962.6</ele><time>2026-04-11T10:41:16.697Z</time></trkpt><trkpt lat="38.3301857" lon="16.1422353"><ele>962.0</ele><time>2026-04-11T10:41:17.697Z</time></trkpt><trkpt lat="38.3302159" lon="16.1423468"><ele>961.2</ele><time>2026-04-11T10:41:18.697Z</time></trkpt><trkpt lat="38.3302485" lon="16.1424606"><ele>960.4000000000001</ele><time>2026-04-11T10:41:19.696Z</time></trkpt><trkpt lat="38.3302818" lon="16.1425724"><ele>959.5999999999999</ele><time>2026-04-11T10:41:20.696Z</time></trkpt><trkpt lat="38.330319" lon="16.1426825"><ele>958.8</ele><time>2026-04-11T10:41:21.696Z</time></trkpt><trkpt lat="38.3303574" lon="16.1427962"><ele>958.0</ele><time>2026-04-11T10:41:22.696Z</time></trkpt><trkpt lat="38.3303999" lon="16.1429272"><ele>958.0</ele><time>2026-04-11T10:41:23.697Z</time></trkpt><trkpt lat="38.3304453" lon="16.1430801"><ele>958.0</ele><time>2026-04-11T10:41:24.696Z</time></trkpt><trkpt lat="38.3304961" lon="16.1432491"><ele>958.0</ele><time>2026-04-11T10:41:25.697Z</time></trkpt><trkpt lat="38.330547" lon="16.1434371"><ele>958.0</ele><time>2026-04-11T10:41:26.697Z</time></trkpt><trkpt lat="38.3305956" lon="16.1436333"><ele>958.0</ele><time>2026-04-11T10:41:27.697Z</time></trkpt><trkpt lat="38.3306496" lon="16.143834"><ele>958.0</ele><time>2026-04-11T10:41:28.697Z</time></trkpt><trkpt lat="38.3307075" lon="16.1440448"><ele>958.0</ele><time>2026-04-11T10:41:29.696Z</time></trkpt><trkpt lat="38.3307689" lon="16.144262"><ele>955.6666666666666</ele><time>2026-04-11T10:41:30.697Z</time></trkpt><trkpt lat="38.3308236" lon="16.1444872"><ele>953.3333333333333</ele><time>2026-04-11T10:41:31.696Z</time></trkpt><trkpt lat="38.3308731" lon="16.1447481"><ele>951.0</ele><time>2026-04-11T10:41:32.696Z</time></trkpt><trkpt lat="38.3309192" lon="16.1450195"><ele>947.0</ele><time>2026-04-11T10:41:33.696Z</time></trkpt><trkpt lat="38.3309671" lon="16.1452977"><ele>943.0</ele><time>2026-04-11T10:41:34.697Z</time></trkpt><trkpt lat="38.3310227" lon="16.1455777"><ele>939.5</ele><time>2026-04-11T10:41:35.696Z</time></trkpt><trkpt lat="38.3310816" lon="16.1458749"><ele>936.0</ele><time>2026-04-11T10:41:36.696Z</time></trkpt><trkpt lat="38.3311351" lon="16.146168"><ele>936.0</ele><time>2026-04-11T10:41:37.696Z</time></trkpt><trkpt lat="38.3311874" lon="16.1464579"><ele>936.0</ele><time>2026-04-11T10:41:38.697Z</time></trkpt><trkpt lat="38.3312443" lon="16.1467436"><ele>932.5</ele><time>2026-04-11T10:41:39.696Z</time></trkpt><trkpt lat="38.3313041" lon="16.147024"><ele>929.0</ele><time>2026-04-11T10:41:40.696Z</time></trkpt><trkpt lat="38.3313605" lon="16.1473004"><ele>929.5</ele><time>2026-04-11T10:41:41.697Z</time></trkpt><trkpt lat="38.3314208" lon="16.1475795"><ele>930.0</ele><time>2026-04-11T10:41:42.696Z</time></trkpt><trkpt lat="38.3314868" lon="16.1478585"><ele>930.0</ele><time>2026-04-11T10:41:43.697Z</time></trkpt><trkpt lat="38.3315504" lon="16.1481451"><ele>930.0</ele><time>2026-04-11T10:41:44.696Z</time></trkpt><trkpt lat="38.331608" lon="16.1484359"><ele>929.5</ele><time>2026-04-11T10:41:45.696Z</time></trkpt><trkpt lat="38.3316669" lon="16.1487254"><ele>929.0</ele><time>2026-04-11T10:41:46.696Z</time></trkpt><trkpt lat="38.331729" lon="16.1490076"><ele>927.3333333333334</ele><time>2026-04-11T10:41:47.696Z</time></trkpt><trkpt lat="38.3317906" lon="16.1492827"><ele>925.6666666666667</ele><time>2026-04-11T10:41:48.696Z</time></trkpt><trkpt lat="38.3318536" lon="16.1495504"><ele>924.0</ele><time>2026-04-11T10:41:49.697Z</time></trkpt><trkpt lat="38.3319164" lon="16.1498275"><ele>922.0</ele><time>2026-04-11T10:41:50.697Z</time></trkpt><trkpt lat="38.3319775" lon="16.1501104"><ele>920.0</ele><time>2026-04-11T10:41:51.696Z</time></trkpt><trkpt lat="38.3320377" lon="16.1503957"><ele>920.0</ele><time>2026-04-11T10:41:52.696Z</time></trkpt><trkpt lat="38.3320936" lon="16.1506786"><ele>920.0</ele><time>2026-04-11T10:41:53.697Z</time></trkpt><trkpt lat="38.3321484" lon="16.150968"><ele>919.5</ele><time>2026-04-11T10:41:54.696Z</time></trkpt><trkpt lat="38.3322017" lon="16.1512527"><ele>919.0</ele><time>2026-04-11T10:41:55.697Z</time></trkpt><trkpt lat="38.332259" lon="16.1515269"><ele>922.3333333333333</ele><time>2026-04-11T10:41:56.696Z</time></trkpt><trkpt lat="38.3323222" lon="16.1518001"><ele>925.6666666666667</ele><time>2026-04-11T10:41:57.696Z</time></trkpt><trkpt lat="38.3323764" lon="16.1520612"><ele>929.0</ele><time>2026-04-11T10:41:58.697Z</time></trkpt><trkpt lat="38.332427" lon="16.1523154"><ele>929.6666666666667</ele><time>2026-04-11T10:41:59.696Z</time></trkpt><trkpt lat="38.3324785" lon="16.152565"><ele>930.3333333333333</ele><time>2026-04-11T10:42:00.696Z</time></trkpt><trkpt lat="38.3325286" lon="16.15281"><ele>931.0</ele><time>2026-04-11T10:42:01.696Z</time></trkpt><trkpt lat="38.3325794" lon="16.1530464"><ele>930.3333333333333</ele><time>2026-04-11T10:42:02.696Z</time></trkpt><trkpt lat="38.3326282" lon="16.1532767"><ele>929.6666666666667</ele><time>2026-04-11T10:42:03.696Z</time></trkpt><trkpt lat="38.3326773" lon="16.1535116"><ele>929.0</ele><time>2026-04-11T10:42:04.696Z</time></trkpt><trkpt lat="38.3327273" lon="16.1537417"><ele>929.0</ele><time>2026-04-11T10:42:05.697Z</time></trkpt><trkpt lat="38.3327788" lon="16.1539634"><ele>929.0</ele><time>2026-04-11T10:42:06.697Z</time></trkpt><trkpt lat="38.3328353" lon="16.1541894"><ele>929.0</ele><time>2026-04-11T10:42:07.697Z</time></trkpt><trkpt lat="38.332887" lon="16.1544154"><ele>926.6666666666667</ele><time>2026-04-11T10:42:08.696Z</time></trkpt><trkpt lat="38.3329359" lon="16.1546351"><ele>924.3333333333333</ele><time>2026-04-11T10:42:09.696Z</time></trkpt><trkpt lat="38.332984" lon="16.1548509"><ele>922.0</ele><time>2026-04-11T10:42:10.696Z</time></trkpt><trkpt lat="38.3330233" lon="16.1550558"><ele>921.0</ele><time>2026-04-11T10:42:11.696Z</time></trkpt><trkpt lat="38.3330626" lon="16.1552512"><ele>920.0</ele><time>2026-04-11T10:42:12.696Z</time></trkpt><trkpt lat="38.3331039" lon="16.1554326"><ele>919.0</ele><time>2026-04-11T10:42:13.696Z</time></trkpt><trkpt lat="38.333129" lon="16.155614"><ele>917.0</ele><time>2026-04-11T10:42:14.696Z</time></trkpt><trkpt lat="38.333153" lon="16.155778"><ele>915.0</ele><time>2026-04-11T10:42:15.695Z</time></trkpt><trkpt lat="38.3331835" lon="16.1559273"><ele>913.0</ele><time>2026-04-11T10:42:16.696Z</time></trkpt><trkpt lat="38.3332058" lon="16.1560657"><ele>911.0</ele><time>2026-04-11T10:42:17.695Z</time></trkpt><trkpt lat="38.3332167" lon="16.1561976"><ele>911.0</ele><time>2026-04-11T10:42:18.695Z</time></trkpt><trkpt lat="38.3332144" lon="16.1563206"><ele>910.9999999999999</ele><time>2026-04-11T10:42:19.696Z</time></trkpt><trkpt lat="38.3331985" lon="16.1564305"><ele>910.9999999999999</ele><time>2026-04-11T10:42:20.695Z</time></trkpt><trkpt lat="38.3331667" lon="16.1565477"><ele>911.0</ele><time>2026-04-11T10:42:21.695Z</time></trkpt><trkpt lat="38.3331182" lon="16.1566587"><ele>911.0</ele><time>2026-04-11T10:42:22.696Z</time></trkpt><trkpt lat="38.3330531" lon="16.1567619"><ele>911.0</ele><time>2026-04-11T10:42:23.695Z</time></trkpt><trkpt lat="38.3329736" lon="16.15686"><ele>910.9999999999999</ele><time>2026-04-11T10:42:24.696Z</time></trkpt><trkpt lat="38.332902" lon="16.1569552"><ele>910.9999999999999</ele><time>2026-04-11T10:42:25.696Z</time></trkpt><trkpt lat="38.3328356" lon="16.1570484"><ele>911.0</ele><time>2026-04-11T10:42:26.696Z</time></trkpt><trkpt lat="38.3327668" lon="16.1571462"><ele>911.0</ele><time>2026-04-11T10:42:27.695Z</time></trkpt><trkpt lat="38.3327003" lon="16.157247"><ele>911.0</ele><time>2026-04-11T10:42:28.696Z</time></trkpt><trkpt lat="38.3326285" lon="16.1573523"><ele>911.0</ele><time>2026-04-11T10:42:29.696Z</time></trkpt><trkpt lat="38.3325585" lon="16.1574633"><ele>911.0</ele><time>2026-04-11T10:42:30.696Z</time></trkpt><trkpt lat="38.332415" lon="16.1576995"><ele>910.0</ele><time>2026-04-11T10:42:32.696Z</time></trkpt><trkpt lat="38.3323435" lon="16.1578182"><ele>909.0</ele><time>2026-04-11T10:42:33.696Z</time></trkpt><trkpt lat="38.3322677" lon="16.1579359"><ele>908.0</ele><time>2026-04-11T10:42:34.696Z</time></trkpt><trkpt lat="38.3321934" lon="16.158057"><ele>907.0</ele><time>2026-04-11T10:42:35.696Z</time></trkpt><trkpt lat="38.3321195" lon="16.1581773"><ele>905.5</ele><time>2026-04-11T10:42:36.695Z</time></trkpt><trkpt lat="38.3320386" lon="16.1582998"><ele>904.0</ele><time>2026-04-11T10:42:37.696Z</time></trkpt><trkpt lat="38.3319541" lon="16.1584244"><ele>902.5</ele><time>2026-04-11T10:42:38.696Z</time></trkpt><trkpt lat="38.331871" lon="16.1585445"><ele>901.0</ele><time>2026-04-11T10:42:39.695Z</time></trkpt><trkpt lat="38.3317962" lon="16.1586671"><ele>901.0</ele><time>2026-04-11T10:42:40.695Z</time></trkpt><trkpt lat="38.3317271" lon="16.1587952"><ele>901.0</ele><time>2026-04-11T10:42:41.695Z</time></trkpt><trkpt lat="38.3316637" lon="16.1589149"><ele>901.0</ele><time>2026-04-11T10:42:42.696Z</time></trkpt><trkpt lat="38.3316019" lon="16.1590281"><ele>901.0</ele><time>2026-04-11T10:42:43.695Z</time></trkpt><trkpt lat="38.331537" lon="16.1591364"><ele>900.8333333333333</ele><time>2026-04-11T10:42:44.695Z</time></trkpt><trkpt lat="38.3314779" lon="16.1592479"><ele>900.6666666666666</ele><time>2026-04-11T10:42:45.695Z</time></trkpt><trkpt lat="38.3314245" lon="16.1593483"><ele>900.5</ele><time>2026-04-11T10:42:46.695Z</time></trkpt><trkpt lat="38.331378" lon="16.1594423"><ele>900.3333333333333</ele><time>2026-04-11T10:42:47.696Z</time></trkpt><trkpt lat="38.3313303" lon="16.1595222"><ele>900.1666666666666</ele><time>2026-04-11T10:42:48.695Z</time></trkpt><trkpt lat="38.3312863" lon="16.159591"><ele>900.0</ele><time>2026-04-11T10:42:49.696Z</time></trkpt><trkpt lat="38.3312067" lon="16.1596835"><ele>899.4285714285716</ele><time>2026-04-11T10:42:51.695Z</time></trkpt><trkpt lat="38.3311391" lon="16.1597248"><ele>898.8571428571429</ele><time>2026-04-11T10:42:54.696Z</time></trkpt><trkpt lat="38.3311655" lon="16.1598203"><ele>898.2857142857143</ele><time>2026-04-11T10:48:04.696Z</time></trkpt><trkpt lat="38.3311052" lon="16.1597962"><ele>897.7142857142858</ele><time>2026-04-11T11:03:51.694Z</time></trkpt><trkpt lat="38.3311689" lon="16.1597938"><ele>897.1428571428571</ele><time>2026-04-11T11:05:12.695Z</time></trkpt><trkpt lat="38.3312259" lon="16.1597108"><ele>896.5714285714286</ele><time>2026-04-11T11:05:14.695Z</time></trkpt><trkpt lat="38.3312723" lon="16.1596288"><ele>896.0</ele><time>2026-04-11T11:05:17.694Z</time></trkpt><trkpt lat="38.3313034" lon="16.1595553"><ele>896.0000000000001</ele><time>2026-04-11T11:05:20.694Z</time></trkpt><trkpt lat="38.3313459" lon="16.1594851"><ele>896.0</ele><time>2026-04-11T11:06:12.694Z</time></trkpt><trkpt lat="38.331396" lon="16.1594091"><ele>896.0</ele><time>2026-04-11T11:06:14.694Z</time></trkpt><trkpt lat="38.3314524" lon="16.1592974"><ele>896.0</ele><time>2026-04-11T11:06:16.694Z</time></trkpt><trkpt lat="38.3314906" lon="16.1592328"><ele>896.0000000000001</ele><time>2026-04-11T11:06:17.695Z</time></trkpt><trkpt lat="38.3315324" lon="16.1591613"><ele>896.0</ele><time>2026-04-11T11:06:18.695Z</time></trkpt><trkpt lat="38.3315814" lon="16.1590905"><ele>896.8333333333334</ele><time>2026-04-11T11:06:19.693Z</time></trkpt><trkpt lat="38.3316345" lon="16.1590101"><ele>897.6666666666667</ele><time>2026-04-11T11:06:20.694Z</time></trkpt><trkpt lat="38.3316869" lon="16.158926"><ele>898.5</ele><time>2026-04-11T11:06:21.694Z</time></trkpt><trkpt lat="38.3317393" lon="16.1588428"><ele>899.3333333333333</ele><time>2026-04-11T11:06:22.694Z</time></trkpt><trkpt lat="38.3317929" lon="16.1587517"><ele>900.1666666666666</ele><time>2026-04-11T11:06:23.693Z</time></trkpt><trkpt lat="38.3318502" lon="16.1586596"><ele>901.0</ele><time>2026-04-11T11:06:24.693Z</time></trkpt><trkpt lat="38.3319063" lon="16.1585673"><ele>901.0</ele><time>2026-04-11T11:06:25.693Z</time></trkpt><trkpt lat="38.331963" lon="16.1584723"><ele>900.9999999999999</ele><time>2026-04-11T11:06:26.694Z</time></trkpt><trkpt lat="38.3320172" lon="16.1583755"><ele>900.9999999999999</ele><time>2026-04-11T11:06:27.694Z</time></trkpt><trkpt lat="38.3320705" lon="16.1582827"><ele>901.0</ele><time>2026-04-11T11:06:28.693Z</time></trkpt><trkpt lat="38.3321248" lon="16.1581943"><ele>901.0</ele><time>2026-04-11T11:06:29.693Z</time></trkpt><trkpt lat="38.3321808" lon="16.158108"><ele>901.5999999999999</ele><time>2026-04-11T11:06:30.694Z</time></trkpt><trkpt lat="38.3322374" lon="16.1580165"><ele>902.1999999999999</ele><time>2026-04-11T11:06:31.693Z</time></trkpt><trkpt lat="38.3322946" lon="16.1579244"><ele>902.8000000000001</ele><time>2026-04-11T11:06:32.693Z</time></trkpt><trkpt lat="38.3323567" lon="16.1578344"><ele>903.4000000000001</ele><time>2026-04-11T11:06:33.693Z</time></trkpt><trkpt lat="38.3324193" lon="16.1577409"><ele>904.0</ele><time>2026-04-11T11:06:34.693Z</time></trkpt><trkpt lat="38.3324854" lon="16.1576377"><ele>904.0</ele><time>2026-04-11T11:06:35.693Z</time></trkpt><trkpt lat="38.332552" lon="16.1575295"><ele>904.0000000000001</ele><time>2026-04-11T11:06:36.693Z</time></trkpt><trkpt lat="38.3326166" lon="16.1574219"><ele>904.0000000000001</ele><time>2026-04-11T11:06:37.694Z</time></trkpt><trkpt lat="38.3326831" lon="16.1573161"><ele>904.0</ele><time>2026-04-11T11:06:38.693Z</time></trkpt><trkpt lat="38.3327525" lon="16.1572062"><ele>904.0</ele><time>2026-04-11T11:06:39.693Z</time></trkpt><trkpt lat="38.3328186" lon="16.1570997"><ele>905.4000000000001</ele><time>2026-04-11T11:06:40.693Z</time></trkpt><trkpt lat="38.3328798" lon="16.1569942"><ele>906.8000000000001</ele><time>2026-04-11T11:06:41.694Z</time></trkpt><trkpt lat="38.3329411" lon="16.1568936"><ele>908.1999999999999</ele><time>2026-04-11T11:06:42.694Z</time></trkpt><trkpt lat="38.3329975" lon="16.1567999"><ele>909.5999999999999</ele><time>2026-04-11T11:06:43.693Z</time></trkpt><trkpt lat="38.333058" lon="16.1567165"><ele>911.0</ele><time>2026-04-11T11:06:44.693Z</time></trkpt><trkpt lat="38.3331121" lon="16.1566355"><ele>911.0000000000001</ele><time>2026-04-11T11:06:45.694Z</time></trkpt><trkpt lat="38.3331597" lon="16.156548"><ele>911.0</ele><time>2026-04-11T11:06:46.693Z</time></trkpt><trkpt lat="38.3331988" lon="16.1564482"><ele>911.0</ele><time>2026-04-11T11:06:47.694Z</time></trkpt><trkpt lat="38.3332267" lon="16.1563523"><ele>911.0</ele><time>2026-04-11T11:06:48.693Z</time></trkpt><trkpt lat="38.3332488" lon="16.1562449"><ele>911.0000000000001</ele><time>2026-04-11T11:06:49.694Z</time></trkpt><trkpt lat="38.3332489" lon="16.1561352"><ele>911.0</ele><time>2026-04-11T11:06:50.694Z</time></trkpt><trkpt lat="38.3332355" lon="16.1560116"><ele>911.0</ele><time>2026-04-11T11:06:51.694Z</time></trkpt><trkpt lat="38.3332114" lon="16.1558698"><ele>911.0</ele><time>2026-04-11T11:06:52.693Z</time></trkpt><trkpt lat="38.333179" lon="16.1557257"><ele>911.0</ele><time>2026-04-11T11:06:53.694Z</time></trkpt><trkpt lat="38.3331359" lon="16.1555741"><ele>911.0</ele><time>2026-04-11T11:06:54.693Z</time></trkpt><trkpt lat="38.3331013" lon="16.1554067"><ele>912.0</ele><time>2026-04-11T11:06:55.694Z</time></trkpt><trkpt lat="38.3330732" lon="16.1552277"><ele>913.0</ele><time>2026-04-11T11:06:56.693Z</time></trkpt><trkpt lat="38.3330361" lon="16.1550467"><ele>914.0</ele><time>2026-04-11T11:06:57.694Z</time></trkpt><trkpt lat="38.3329966" lon="16.1548699"><ele>915.0</ele><time>2026-04-11T11:06:58.694Z</time></trkpt><trkpt lat="38.3329601" lon="16.1546965"><ele>916.75</ele><time>2026-04-11T11:06:59.694Z</time></trkpt><trkpt lat="38.3329243" lon="16.1545279"><ele>918.5</ele><time>2026-04-11T11:07:00.694Z</time></trkpt><trkpt lat="38.3328775" lon="16.1543555"><ele>920.25</ele><time>2026-04-11T11:07:01.693Z</time></trkpt><trkpt lat="38.3328379" lon="16.1541785"><ele>922.0</ele><time>2026-04-11T11:07:02.694Z</time></trkpt><trkpt lat="38.332801" lon="16.1540016"><ele>923.75</ele><time>2026-04-11T11:07:03.693Z</time></trkpt><trkpt lat="38.332768" lon="16.1538224"><ele>925.5</ele><time>2026-04-11T11:07:04.693Z</time></trkpt><trkpt lat="38.3327359" lon="16.1536436"><ele>927.25</ele><time>2026-04-11T11:07:05.693Z</time></trkpt><trkpt lat="38.3327006" lon="16.1534636"><ele>929.0</ele><time>2026-04-11T11:07:06.694Z</time></trkpt><trkpt lat="38.3326643" lon="16.1532807"><ele>929.6666666666667</ele><time>2026-04-11T11:07:07.693Z</time></trkpt><trkpt lat="38.3326252" lon="16.1530944"><ele>930.3333333333333</ele><time>2026-04-11T11:07:08.693Z</time></trkpt><trkpt lat="38.3325877" lon="16.1529039"><ele>931.0</ele><time>2026-04-11T11:07:09.694Z</time></trkpt><trkpt lat="38.3325497" lon="16.1527185"><ele>931.0</ele><time>2026-04-11T11:07:10.693Z</time></trkpt><trkpt lat="38.3325135" lon="16.1525359"><ele>931.0</ele><time>2026-04-11T11:07:11.693Z</time></trkpt><trkpt lat="38.3324716" lon="16.1523498"><ele>931.0</ele><time>2026-04-11T11:07:12.694Z</time></trkpt><trkpt lat="38.3324247" lon="16.1521604"><ele>930.3333333333333</ele><time>2026-04-11T11:07:13.693Z</time></trkpt><trkpt lat="38.3323791" lon="16.1519687"><ele>929.6666666666667</ele><time>2026-04-11T11:07:14.694Z</time></trkpt><trkpt lat="38.3323351" lon="16.1517778"><ele>929.0</ele><time>2026-04-11T11:07:15.693Z</time></trkpt><trkpt lat="38.3322916" lon="16.1515868"><ele>928.3333333333334</ele><time>2026-04-11T11:07:16.693Z</time></trkpt><trkpt lat="38.3322509" lon="16.1513691"><ele>927.6666666666667</ele><time>2026-04-11T11:07:17.694Z</time></trkpt><trkpt lat="38.3322057" lon="16.1511636"><ele>927.0</ele><time>2026-04-11T11:07:18.693Z</time></trkpt><trkpt lat="38.3321589" lon="16.1509616"><ele>924.6666666666667</ele><time>2026-04-11T11:07:19.693Z</time></trkpt><trkpt lat="38.3321122" lon="16.1507597"><ele>922.3333333333334</ele><time>2026-04-11T11:07:20.693Z</time></trkpt><trkpt lat="38.332068" lon="16.1505533"><ele>920.0</ele><time>2026-04-11T11:07:21.693Z</time></trkpt><trkpt lat="38.3320298" lon="16.1503429"><ele>920.0</ele><time>2026-04-11T11:07:22.693Z</time></trkpt><trkpt lat="38.3319927" lon="16.1501389"><ele>920.0</ele><time>2026-04-11T11:07:23.694Z</time></trkpt><trkpt lat="38.3319482" lon="16.1499406"><ele>920.0</ele><time>2026-04-11T11:07:24.694Z</time></trkpt><trkpt lat="38.3319033" lon="16.1497487"><ele>921.3333333333334</ele><time>2026-04-11T11:07:25.693Z</time></trkpt><trkpt lat="38.3318574" lon="16.1495524"><ele>922.6666666666667</ele><time>2026-04-11T11:07:26.693Z</time></trkpt><trkpt lat="38.3318127" lon="16.1493547"><ele>924.0</ele><time>2026-04-11T11:07:27.694Z</time></trkpt><trkpt lat="38.3317726" lon="16.1491521"><ele>925.6666666666667</ele><time>2026-04-11T11:07:28.694Z</time></trkpt><trkpt lat="38.3317321" lon="16.1489541"><ele>927.3333333333334</ele><time>2026-04-11T11:07:29.693Z</time></trkpt><trkpt lat="38.3316909" lon="16.148762"><ele>929.0</ele><time>2026-04-11T11:07:30.694Z</time></trkpt><trkpt lat="38.3316498" lon="16.1485703"><ele>929.0</ele><time>2026-04-11T11:07:31.693Z</time></trkpt><trkpt lat="38.3316097" lon="16.1483765"><ele>929.0</ele><time>2026-04-11T11:07:32.693Z</time></trkpt><trkpt lat="38.3315721" lon="16.1481856"><ele>929.0</ele><time>2026-04-11T11:07:33.694Z</time></trkpt><trkpt lat="38.3315351" lon="16.1479943"><ele>929.3333333333334</ele><time>2026-04-11T11:07:34.694Z</time></trkpt><trkpt lat="38.3314942" lon="16.1478041"><ele>929.6666666666667</ele><time>2026-04-11T11:07:35.693Z</time></trkpt><trkpt lat="38.3314526" lon="16.1476076"><ele>930.0</ele><time>2026-04-11T11:07:36.693Z</time></trkpt><trkpt lat="38.3314107" lon="16.1474167"><ele>929.6666666666667</ele><time>2026-04-11T11:07:37.693Z</time></trkpt><trkpt lat="38.331366" lon="16.1472217"><ele>929.3333333333334</ele><time>2026-04-11T11:07:38.694Z</time></trkpt><trkpt lat="38.3313248" lon="16.1470246"><ele>929.0</ele><time>2026-04-11T11:07:39.694Z</time></trkpt><trkpt lat="38.3312843" lon="16.146831"><ele>929.0</ele><time>2026-04-11T11:07:40.694Z</time></trkpt><trkpt lat="38.3312441" lon="16.1466452"><ele>929.0</ele><time>2026-04-11T11:07:41.694Z</time></trkpt><trkpt lat="38.3312055" lon="16.1464625"><ele>929.0</ele><time>2026-04-11T11:07:42.693Z</time></trkpt><trkpt lat="38.3311658" lon="16.1462719"><ele>931.3333333333334</ele><time>2026-04-11T11:07:43.693Z</time></trkpt><trkpt lat="38.3311265" lon="16.1460766"><ele>933.6666666666667</ele><time>2026-04-11T11:07:44.693Z</time></trkpt><trkpt lat="38.3310889" lon="16.1458856"><ele>936.0</ele><time>2026-04-11T11:07:45.694Z</time></trkpt><trkpt lat="38.331047" lon="16.1457049"><ele>937.75</ele><time>2026-04-11T11:07:46.693Z</time></trkpt><trkpt lat="38.331009" lon="16.1455282"><ele>939.5</ele><time>2026-04-11T11:07:47.694Z</time></trkpt><trkpt lat="38.3309686" lon="16.1453551"><ele>941.25</ele><time>2026-04-11T11:07:48.694Z</time></trkpt><trkpt lat="38.3309336" lon="16.1451816"><ele>943.0</ele><time>2026-04-11T11:07:49.693Z</time></trkpt><trkpt lat="38.3308982" lon="16.1450143"><ele>944.5999999999999</ele><time>2026-04-11T11:07:50.694Z</time></trkpt><trkpt lat="38.330869" lon="16.144854"><ele>946.1999999999999</ele><time>2026-04-11T11:07:51.693Z</time></trkpt><trkpt lat="38.3308533" lon="16.144719"><ele>947.8</ele><time>2026-04-11T11:07:52.693Z</time></trkpt><trkpt lat="38.3308565" lon="16.1446062"><ele>949.4</ele><time>2026-04-11T11:07:53.693Z</time></trkpt><trkpt lat="38.3308847" lon="16.1445185"><ele>951.0</ele><time>2026-04-11T11:07:54.694Z</time></trkpt><trkpt lat="38.3309333" lon="16.1444398"><ele>951.0</ele><time>2026-04-11T11:07:55.693Z</time></trkpt><trkpt lat="38.3309962" lon="16.1443872"><ele>951.0</ele><time>2026-04-11T11:07:56.693Z</time></trkpt><trkpt lat="38.3310767" lon="16.1443519"><ele>951.0</ele><time>2026-04-11T11:07:57.693Z</time></trkpt><trkpt lat="38.3311638" lon="16.1443343"><ele>951.0</ele><time>2026-04-11T11:07:58.693Z</time></trkpt><trkpt lat="38.3312564" lon="16.1443299"><ele>951.0</ele><time>2026-04-11T11:07:59.693Z</time></trkpt><trkpt lat="38.3313455" lon="16.1443404"><ele>951.0</ele><time>2026-04-11T11:08:00.693Z</time></trkpt><trkpt lat="38.3314316" lon="16.1443728"><ele>952.25</ele><time>2026-04-11T11:08:01.693Z</time></trkpt><trkpt lat="38.3315202" lon="16.144434"><ele>953.5</ele><time>2026-04-11T11:08:02.694Z</time></trkpt><trkpt lat="38.331601" lon="16.1445351"><ele>954.75</ele><time>2026-04-11T11:08:03.694Z</time></trkpt><trkpt lat="38.331689" lon="16.1446458"><ele>956.0</ele><time>2026-04-11T11:08:04.693Z</time></trkpt><trkpt lat="38.3317723" lon="16.1447599"><ele>956.0</ele><time>2026-04-11T11:08:05.694Z</time></trkpt><trkpt lat="38.3318592" lon="16.1448728"><ele>956.0</ele><time>2026-04-11T11:08:06.694Z</time></trkpt><trkpt lat="38.3319533" lon="16.1449791"><ele>956.0</ele><time>2026-04-11T11:08:07.693Z</time></trkpt><trkpt lat="38.3320556" lon="16.1450795"><ele>956.0</ele><time>2026-04-11T11:08:08.693Z</time></trkpt><trkpt lat="38.3321648" lon="16.1451789"><ele>955.75</ele><time>2026-04-11T11:08:09.694Z</time></trkpt><trkpt lat="38.3322805" lon="16.1452696"><ele>955.5</ele><time>2026-04-11T11:08:10.694Z</time></trkpt><trkpt lat="38.3324031" lon="16.1453392"><ele>955.25</ele><time>2026-04-11T11:08:11.693Z</time></trkpt><trkpt lat="38.3325328" lon="16.1453958"><ele>955.0</ele><time>2026-04-11T11:08:12.693Z</time></trkpt><trkpt lat="38.3326648" lon="16.1454468"><ele>955.0</ele><time>2026-04-11T11:08:13.693Z</time></trkpt><trkpt lat="38.3328013" lon="16.1454989"><ele>955.0</ele><time>2026-04-11T11:08:14.693Z</time></trkpt><trkpt lat="38.33294" lon="16.1455617"><ele>955.0</ele><time>2026-04-11T11:08:15.694Z</time></trkpt><trkpt lat="38.3330765" lon="16.1456242"><ele>955.0</ele><time>2026-04-11T11:08:16.694Z</time></trkpt><trkpt lat="38.3332123" lon="16.1456866"><ele>954.5</ele><time>2026-04-11T11:08:17.693Z</time></trkpt><trkpt lat="38.3333466" lon="16.1457489"><ele>954.0</ele><time>2026-04-11T11:08:18.693Z</time></trkpt><trkpt lat="38.3334767" lon="16.1458186"><ele>953.5</ele><time>2026-04-11T11:08:19.694Z</time></trkpt><trkpt lat="38.3336094" lon="16.1458839"><ele>953.0</ele><time>2026-04-11T11:08:20.693Z</time></trkpt><trkpt lat="38.3337515" lon="16.1459436"><ele>955.6666666666667</ele><time>2026-04-11T11:08:21.693Z</time></trkpt><trkpt lat="38.3338939" lon="16.14601"><ele>958.3333333333333</ele><time>2026-04-11T11:08:22.693Z</time></trkpt><trkpt lat="38.3340387" lon="16.1460677"><ele>961.0</ele><time>2026-04-11T11:08:23.694Z</time></trkpt><trkpt lat="38.3341888" lon="16.1461277"><ele>961.0</ele><time>2026-04-11T11:08:24.693Z</time></trkpt><trkpt lat="38.3343303" lon="16.1461862"><ele>961.0</ele><time>2026-04-11T11:08:25.693Z</time></trkpt><trkpt lat="38.3344717" lon="16.1462456"><ele>961.0</ele><time>2026-04-11T11:08:26.694Z</time></trkpt><trkpt lat="38.3346057" lon="16.1463105"><ele>961.0</ele><time>2026-04-11T11:08:27.693Z</time></trkpt><trkpt lat="38.3347354" lon="16.146379"><ele>962.5</ele><time>2026-04-11T11:08:28.693Z</time></trkpt><trkpt lat="38.3348674" lon="16.1464438"><ele>964.0</ele><time>2026-04-11T11:08:29.694Z</time></trkpt><trkpt lat="38.3349964" lon="16.1465093"><ele>965.5</ele><time>2026-04-11T11:08:30.693Z</time></trkpt><trkpt lat="38.3351247" lon="16.1465843"><ele>967.0</ele><time>2026-04-11T11:08:31.693Z</time></trkpt><trkpt lat="38.3352538" lon="16.1466796"><ele>967.0</ele><time>2026-04-11T11:08:32.693Z</time></trkpt><trkpt lat="38.3353813" lon="16.1467836"><ele>967.0</ele><time>2026-04-11T11:08:33.693Z</time></trkpt><trkpt lat="38.3355095" lon="16.1469011"><ele>967.0</ele><time>2026-04-11T11:08:34.693Z</time></trkpt><trkpt lat="38.3356237" lon="16.1470333"><ele>967.6666666666666</ele><time>2026-04-11T11:08:35.694Z</time></trkpt><trkpt lat="38.3357343" lon="16.1471677"><ele>968.3333333333333</ele><time>2026-04-11T11:08:36.694Z</time></trkpt><trkpt lat="38.3358385" lon="16.1473058"><ele>969.0</ele><time>2026-04-11T11:08:37.693Z</time></trkpt><trkpt lat="38.3359438" lon="16.1474423"><ele>969.0</ele><time>2026-04-11T11:08:38.693Z</time></trkpt><trkpt lat="38.3360486" lon="16.1475792"><ele>969.0</ele><time>2026-04-11T11:08:39.693Z</time></trkpt><trkpt lat="38.3361505" lon="16.1477124"><ele>969.0</ele><time>2026-04-11T11:08:40.693Z</time></trkpt><trkpt lat="38.3362548" lon="16.1478343"><ele>969.0</ele><time>2026-04-11T11:08:41.693Z</time></trkpt><trkpt lat="38.3363656" lon="16.1479503"><ele>970.0</ele><time>2026-04-11T11:08:42.693Z</time></trkpt><trkpt lat="38.336478" lon="16.1480576"><ele>971.0</ele><time>2026-04-11T11:08:43.694Z</time></trkpt><trkpt lat="38.3366106" lon="16.1481602"><ele>972.0</ele><time>2026-04-11T11:08:44.694Z</time></trkpt><trkpt lat="38.3367473" lon="16.148255"><ele>972.0</ele><time>2026-04-11T11:08:45.693Z</time></trkpt><trkpt lat="38.3368774" lon="16.1483518"><ele>972.0</ele><time>2026-04-11T11:08:46.693Z</time></trkpt><trkpt lat="38.3370112" lon="16.1484466"><ele>972.0</ele><time>2026-04-11T11:08:47.693Z</time></trkpt><trkpt lat="38.3371353" lon="16.1485412"><ele>972.0</ele><time>2026-04-11T11:08:48.694Z</time></trkpt><trkpt lat="38.3372628" lon="16.1486383"><ele>972.6666666666667</ele><time>2026-04-11T11:08:49.693Z</time></trkpt><trkpt lat="38.3373938" lon="16.1487365"><ele>973.3333333333334</ele><time>2026-04-11T11:08:50.694Z</time></trkpt><trkpt lat="38.3375264" lon="16.1488438"><ele>974.0</ele><time>2026-04-11T11:08:51.693Z</time></trkpt><trkpt lat="38.3376662" lon="16.1489463"><ele>973.3333333333334</ele><time>2026-04-11T11:08:52.694Z</time></trkpt><trkpt lat="38.3378051" lon="16.1490573"><ele>972.6666666666667</ele><time>2026-04-11T11:08:53.694Z</time></trkpt><trkpt lat="38.3379481" lon="16.1491748"><ele>972.0</ele><time>2026-04-11T11:08:54.693Z</time></trkpt><trkpt lat="38.3380947" lon="16.1492897"><ele>971.6666666666667</ele><time>2026-04-11T11:08:55.694Z</time></trkpt><trkpt lat="38.3382416" lon="16.1493955"><ele>971.3333333333334</ele><time>2026-04-11T11:08:56.694Z</time></trkpt><trkpt lat="38.3383841" lon="16.1494966"><ele>971.0</ele><time>2026-04-11T11:08:57.694Z</time></trkpt><trkpt lat="38.3385228" lon="16.1495966"><ele>971.0</ele><time>2026-04-11T11:08:58.694Z</time></trkpt><trkpt lat="38.3386664" lon="16.1496913"><ele>971.0</ele><time>2026-04-11T11:08:59.693Z</time></trkpt><trkpt lat="38.3388181" lon="16.1497943"><ele>971.0</ele><time>2026-04-11T11:09:00.694Z</time></trkpt><trkpt lat="38.3389684" lon="16.1499016"><ele>967.6666666666667</ele><time>2026-04-11T11:09:01.693Z</time></trkpt><trkpt lat="38.3391145" lon="16.1500006"><ele>964.3333333333333</ele><time>2026-04-11T11:09:02.693Z</time></trkpt><trkpt lat="38.3392714" lon="16.1500969"><ele>961.0</ele><time>2026-04-11T11:09:03.694Z</time></trkpt><trkpt lat="38.3394238" lon="16.1502008"><ele>961.0</ele><time>2026-04-11T11:09:04.693Z</time></trkpt><trkpt lat="38.3395709" lon="16.150313"><ele>961.0</ele><time>2026-04-11T11:09:05.693Z</time></trkpt><trkpt lat="38.3397211" lon="16.1504192"><ele>961.0</ele><time>2026-04-11T11:09:06.693Z</time></trkpt><trkpt lat="38.3398696" lon="16.1505269"><ele>961.6666666666666</ele><time>2026-04-11T11:09:07.693Z</time></trkpt><trkpt lat="38.3400176" lon="16.1506324"><ele>962.3333333333333</ele><time>2026-04-11T11:09:08.693Z</time></trkpt><trkpt lat="38.3401591" lon="16.1507436"><ele>963.0</ele><time>2026-04-11T11:09:09.693Z</time></trkpt><trkpt lat="38.340298" lon="16.1508629"><ele>963.0</ele><time>2026-04-11T11:09:10.693Z</time></trkpt><trkpt lat="38.3404424" lon="16.1509769"><ele>963.0</ele><time>2026-04-11T11:09:11.693Z</time></trkpt><trkpt lat="38.3405826" lon="16.151097"><ele>963.0</ele><time>2026-04-11T11:09:12.693Z</time></trkpt><trkpt lat="38.3407218" lon="16.1512176"><ele>963.0</ele><time>2026-04-11T11:09:13.693Z</time></trkpt><trkpt lat="38.3408681" lon="16.1513315"><ele>963.0</ele><time>2026-04-11T11:09:14.693Z</time></trkpt><trkpt lat="38.3410115" lon="16.1514407"><ele>963.0</ele><time>2026-04-11T11:09:15.694Z</time></trkpt><trkpt lat="38.3411536" lon="16.1515537"><ele>963.3333333333333</ele><time>2026-04-11T11:09:16.693Z</time></trkpt><trkpt lat="38.3412963" lon="16.1516632"><ele>963.6666666666666</ele><time>2026-04-11T11:09:17.694Z</time></trkpt><trkpt lat="38.3414414" lon="16.1517758"><ele>964.0</ele><time>2026-04-11T11:09:18.694Z</time></trkpt><trkpt lat="38.3415774" lon="16.1518981"><ele>965.0</ele><time>2026-04-11T11:09:19.693Z</time></trkpt><trkpt lat="38.3417145" lon="16.1520219"><ele>966.0</ele><time>2026-04-11T11:09:20.693Z</time></trkpt><trkpt lat="38.3418582" lon="16.1521315"><ele>967.0</ele><time>2026-04-11T11:09:21.693Z</time></trkpt><trkpt lat="38.3420148" lon="16.1522252"><ele>967.0</ele><time>2026-04-11T11:09:22.693Z</time></trkpt><trkpt lat="38.3421736" lon="16.1523128"><ele>967.0</ele><time>2026-04-11T11:09:23.694Z</time></trkpt><trkpt lat="38.3423402" lon="16.1523972"><ele>967.0</ele><time>2026-04-11T11:09:24.693Z</time></trkpt><trkpt lat="38.3425144" lon="16.1524914"><ele>966.0</ele><time>2026-04-11T11:09:25.693Z</time></trkpt><trkpt lat="38.3426908" lon="16.1525874"><ele>965.0</ele><time>2026-04-11T11:09:26.693Z</time></trkpt><trkpt lat="38.3428735" lon="16.1526865"><ele>964.0</ele><time>2026-04-11T11:09:27.694Z</time></trkpt><trkpt lat="38.3430526" lon="16.1527824"><ele>964.0</ele><time>2026-04-11T11:09:28.694Z</time></trkpt><trkpt lat="38.343233" lon="16.152867"><ele>964.0</ele><time>2026-04-11T11:09:29.693Z</time></trkpt><trkpt lat="38.3434183" lon="16.1529564"><ele>964.0</ele><time>2026-04-11T11:09:30.693Z</time></trkpt><trkpt lat="38.3436012" lon="16.1530624"><ele>964.0</ele><time>2026-04-11T11:09:31.694Z</time></trkpt><trkpt lat="38.3437785" lon="16.1531619"><ele>964.0</ele><time>2026-04-11T11:09:32.693Z</time></trkpt><trkpt lat="38.3439436" lon="16.1532645"><ele>964.0</ele><time>2026-04-11T11:09:33.693Z</time></trkpt><trkpt lat="38.344104" lon="16.1533592"><ele>963.0</ele><time>2026-04-11T11:09:34.693Z</time></trkpt><trkpt lat="38.3442489" lon="16.1534394"><ele>962.0</ele><time>2026-04-11T11:09:35.694Z</time></trkpt><trkpt lat="38.3443776" lon="16.1535061"><ele>961.0</ele><time>2026-04-11T11:09:36.694Z</time></trkpt><trkpt lat="38.3444876" lon="16.1535577"><ele>960.0</ele><time>2026-04-11T11:09:37.693Z</time></trkpt><trkpt lat="38.3445953" lon="16.153584"><ele>960.0</ele><time>2026-04-11T11:09:38.693Z</time></trkpt><trkpt lat="38.3446929" lon="16.1535794"><ele>960.0</ele><time>2026-04-11T11:09:39.693Z</time></trkpt><trkpt lat="38.3448007" lon="16.1535282"><ele>960.0</ele><time>2026-04-11T11:09:40.694Z</time></trkpt><trkpt lat="38.3449079" lon="16.1534323"><ele>960.0</ele><time>2026-04-11T11:09:41.693Z</time></trkpt><trkpt lat="38.3450131" lon="16.1533237"><ele>960.0</ele><time>2026-04-11T11:09:42.693Z</time></trkpt><trkpt lat="38.3451231" lon="16.1531998"><ele>960.0</ele><time>2026-04-11T11:09:43.693Z</time></trkpt><trkpt lat="38.345231" lon="16.1530794"><ele>960.0</ele><time>2026-04-11T11:09:44.693Z</time></trkpt><trkpt lat="38.3453373" lon="16.1529641"><ele>960.0</ele><time>2026-04-11T11:09:45.694Z</time></trkpt><trkpt lat="38.3454431" lon="16.152855"><ele>960.0</ele><time>2026-04-11T11:09:46.694Z</time></trkpt><trkpt lat="38.3455432" lon="16.1527424"><ele>960.0</ele><time>2026-04-11T11:09:47.693Z</time></trkpt><trkpt lat="38.3456359" lon="16.1526256"><ele>960.0</ele><time>2026-04-11T11:09:48.694Z</time></trkpt><trkpt lat="38.3457269" lon="16.1524944"><ele>960.0</ele><time>2026-04-11T11:09:49.693Z</time></trkpt><trkpt lat="38.3458234" lon="16.1523569"><ele>958.0</ele><time>2026-04-11T11:09:50.694Z</time></trkpt><trkpt lat="38.3459144" lon="16.1522185"><ele>956.0</ele><time>2026-04-11T11:09:51.694Z</time></trkpt><trkpt lat="38.3460123" lon="16.1520829"><ele>954.0</ele><time>2026-04-11T11:09:52.693Z</time></trkpt><trkpt lat="38.3461049" lon="16.1519549"><ele>952.0</ele><time>2026-04-11T11:09:53.693Z</time></trkpt><trkpt lat="38.3462031" lon="16.1518305"><ele>952.0</ele><time>2026-04-11T11:09:54.694Z</time></trkpt><trkpt lat="38.3462993" lon="16.1517042"><ele>952.0</ele><time>2026-04-11T11:09:55.694Z</time></trkpt><trkpt lat="38.3463983" lon="16.1515763"><ele>952.0</ele><time>2026-04-11T11:09:56.694Z</time></trkpt><trkpt lat="38.3465054" lon="16.1514327"><ele>952.0</ele><time>2026-04-11T11:09:57.693Z</time></trkpt><trkpt lat="38.3466126" lon="16.1512962"><ele>950.6666666666666</ele><time>2026-04-11T11:09:58.693Z</time></trkpt><trkpt lat="38.3467197" lon="16.1511606"><ele>949.3333333333333</ele><time>2026-04-11T11:09:59.694Z</time></trkpt><trkpt lat="38.3468273" lon="16.1510201"><ele>948.0</ele><time>2026-04-11T11:10:00.693Z</time></trkpt><trkpt lat="38.3469403" lon="16.1508804"><ele>948.0</ele><time>2026-04-11T11:10:01.693Z</time></trkpt><trkpt lat="38.3470555" lon="16.1507465"><ele>948.0</ele><time>2026-04-11T11:10:02.693Z</time></trkpt><trkpt lat="38.3471711" lon="16.1506131"><ele>948.0</ele><time>2026-04-11T11:10:03.693Z</time></trkpt><trkpt lat="38.3472827" lon="16.1504813"><ele>949.0</ele><time>2026-04-11T11:10:04.694Z</time></trkpt><trkpt lat="38.3473885" lon="16.150357"><ele>950.0</ele><time>2026-04-11T11:10:05.694Z</time></trkpt><trkpt lat="38.3474879" lon="16.1502464"><ele>951.0</ele><time>2026-04-11T11:10:06.693Z</time></trkpt><trkpt lat="38.3475805" lon="16.150166"><ele>952.0</ele><time>2026-04-11T11:10:07.694Z</time></trkpt><trkpt lat="38.3476794" lon="16.1501124"><ele>952.0</ele><time>2026-04-11T11:10:08.693Z</time></trkpt><trkpt lat="38.3477936" lon="16.15008"><ele>952.0</ele><time>2026-04-11T11:10:09.693Z</time></trkpt><trkpt lat="38.34791" lon="16.1500725"><ele>952.0</ele><time>2026-04-11T11:10:10.693Z</time></trkpt><trkpt lat="38.3480323" lon="16.150066"><ele>952.0</ele><time>2026-04-11T11:10:11.693Z</time></trkpt><trkpt lat="38.3481651" lon="16.1500527"><ele>951.0</ele><time>2026-04-11T11:10:12.693Z</time></trkpt><trkpt lat="38.3483055" lon="16.1500325"><ele>950.0</ele><time>2026-04-11T11:10:13.694Z</time></trkpt><trkpt lat="38.348449" lon="16.1500124"><ele>949.0</ele><time>2026-04-11T11:10:14.693Z</time></trkpt><trkpt lat="38.3485961" lon="16.1499859"><ele>948.0</ele><time>2026-04-11T11:10:15.693Z</time></trkpt><trkpt lat="38.3487463" lon="16.1499565"><ele>947.25</ele><time>2026-04-11T11:10:16.693Z</time></trkpt><trkpt lat="38.3488966" lon="16.1499326"><ele>946.5</ele><time>2026-04-11T11:10:17.694Z</time></trkpt><trkpt lat="38.3490362" lon="16.149913"><ele>945.75</ele><time>2026-04-11T11:10:18.693Z</time></trkpt><trkpt lat="38.3491598" lon="16.1499051"><ele>945.0</ele><time>2026-04-11T11:10:19.693Z</time></trkpt><trkpt lat="38.3492656" lon="16.1499158"><ele>945.0</ele><time>2026-04-11T11:10:20.694Z</time></trkpt><trkpt lat="38.3493578" lon="16.1499412"><ele>945.0</ele><time>2026-04-11T11:10:21.693Z</time></trkpt><trkpt lat="38.3494453" lon="16.1499818"><ele>945.0</ele><time>2026-04-11T11:10:22.694Z</time></trkpt><trkpt lat="38.3495317" lon="16.1500457"><ele>945.0</ele><time>2026-04-11T11:10:23.694Z</time></trkpt><trkpt lat="38.3496267" lon="16.1501385"><ele>945.0</ele><time>2026-04-11T11:10:24.694Z</time></trkpt><trkpt lat="38.3497139" lon="16.150258"><ele>944.75</ele><time>2026-04-11T11:10:25.693Z</time></trkpt><trkpt lat="38.3497902" lon="16.1503941"><ele>944.5</ele><time>2026-04-11T11:10:26.694Z</time></trkpt><trkpt lat="38.3498578" lon="16.1505353"><ele>944.25</ele><time>2026-04-11T11:10:27.694Z</time></trkpt><trkpt lat="38.3499149" lon="16.1506593"><ele>944.0</ele><time>2026-04-11T11:10:28.693Z</time></trkpt><trkpt lat="38.3499736" lon="16.1507587"><ele>941.8000000000001</ele><time>2026-04-11T11:10:29.693Z</time></trkpt><trkpt lat="38.3500537" lon="16.150827"><ele>939.6000000000001</ele><time>2026-04-11T11:10:30.694Z</time></trkpt><trkpt lat="38.3501623" lon="16.1508591"><ele>937.4</ele><time>2026-04-11T11:10:31.693Z</time></trkpt><trkpt lat="38.3502828" lon="16.1508592"><ele>935.2</ele><time>2026-04-11T11:10:32.693Z</time></trkpt><trkpt lat="38.3503868" lon="16.1508412"><ele>933.0</ele><time>2026-04-11T11:10:33.693Z</time></trkpt><trkpt lat="38.3504904" lon="16.1508028"><ele>932.5</ele><time>2026-04-11T11:10:34.693Z</time></trkpt><trkpt lat="38.3505911" lon="16.1507411"><ele>932.0</ele><time>2026-04-11T11:10:35.694Z</time></trkpt><trkpt lat="38.3506784" lon="16.1506561"><ele>931.5</ele><time>2026-04-11T11:10:36.693Z</time></trkpt><trkpt lat="38.3507794" lon="16.1505546"><ele>931.0</ele><time>2026-04-11T11:10:37.693Z</time></trkpt><trkpt lat="38.3508841" lon="16.1504554"><ele>931.25</ele><time>2026-04-11T11:10:38.694Z</time></trkpt><trkpt lat="38.3509967" lon="16.1503689"><ele>931.5</ele><time>2026-04-11T11:10:39.694Z</time></trkpt><trkpt lat="38.3511259" lon="16.1502835"><ele>931.75</ele><time>2026-04-11T11:10:40.694Z</time></trkpt><trkpt lat="38.3512715" lon="16.1502325"><ele>932.0</ele><time>2026-04-11T11:10:41.694Z</time></trkpt><trkpt lat="38.3514158" lon="16.1502001"><ele>932.0</ele><time>2026-04-11T11:10:42.693Z</time></trkpt><trkpt lat="38.3515659" lon="16.150176"><ele>932.0</ele><time>2026-04-11T11:10:43.693Z</time></trkpt><trkpt lat="38.3517224" lon="16.1501555"><ele>932.0</ele><time>2026-04-11T11:10:44.693Z</time></trkpt><trkpt lat="38.3518846" lon="16.1501397"><ele>932.0</ele><time>2026-04-11T11:10:45.694Z</time></trkpt><trkpt lat="38.3520442" lon="16.1501259"><ele>932.0</ele><time>2026-04-11T11:10:46.694Z</time></trkpt><trkpt lat="38.352199" lon="16.150107"><ele>932.0</ele><time>2026-04-11T11:10:47.693Z</time></trkpt><trkpt lat="38.3523506" lon="16.1500826"><ele>932.0</ele><time>2026-04-11T11:10:48.693Z</time></trkpt><trkpt lat="38.3525013" lon="16.1500592"><ele>932.0</ele><time>2026-04-11T11:10:49.694Z</time></trkpt><trkpt lat="38.3526521" lon="16.150041"><ele>932.0</ele><time>2026-04-11T11:10:50.693Z</time></trkpt><trkpt lat="38.3528073" lon="16.1500206"><ele>932.0</ele><time>2026-04-11T11:10:51.694Z</time></trkpt><trkpt lat="38.3529549" lon="16.1499901"><ele>932.0</ele><time>2026-04-11T11:10:52.694Z</time></trkpt><trkpt lat="38.3531044" lon="16.1499479"><ele>932.0</ele><time>2026-04-11T11:10:53.693Z</time></trkpt><trkpt lat="38.3532621" lon="16.1499022"><ele>931.6666666666667</ele><time>2026-04-11T11:10:54.693Z</time></trkpt><trkpt lat="38.3534349" lon="16.149891"><ele>931.3333333333333</ele><time>2026-04-11T11:10:55.694Z</time></trkpt><trkpt lat="38.3535953" lon="16.1498609"><ele>931.0</ele><time>2026-04-11T11:10:56.693Z</time></trkpt><trkpt lat="38.3537497" lon="16.1498235"><ele>932.0</ele><time>2026-04-11T11:10:57.693Z</time></trkpt><trkpt lat="38.3539081" lon="16.1497867"><ele>933.0</ele><time>2026-04-11T11:10:58.693Z</time></trkpt><trkpt lat="38.3540628" lon="16.1497407"><ele>934.0</ele><time>2026-04-11T11:10:59.693Z</time></trkpt><trkpt lat="38.3542275" lon="16.1496876"><ele>934.0</ele><time>2026-04-11T11:11:00.694Z</time></trkpt><trkpt lat="38.3543913" lon="16.1496317"><ele>934.0</ele><time>2026-04-11T11:11:01.693Z</time></trkpt><trkpt lat="38.354555" lon="16.1495841"><ele>934.0</ele><time>2026-04-11T11:11:02.693Z</time></trkpt><trkpt lat="38.3547135" lon="16.1495374"><ele>933.6666666666666</ele><time>2026-04-11T11:11:03.693Z</time></trkpt><trkpt lat="38.3548616" lon="16.1494843"><ele>933.3333333333333</ele><time>2026-04-11T11:11:04.693Z</time></trkpt><trkpt lat="38.3550168" lon="16.1494319"><ele>933.0</ele><time>2026-04-11T11:11:05.693Z</time></trkpt><trkpt lat="38.3551668" lon="16.1493825"><ele>933.0</ele><time>2026-04-11T11:11:06.694Z</time></trkpt><trkpt lat="38.3553151" lon="16.1493371"><ele>933.0</ele><time>2026-04-11T11:11:07.693Z</time></trkpt><trkpt lat="38.3554656" lon="16.1492951"><ele>933.0</ele><time>2026-04-11T11:11:08.693Z</time></trkpt><trkpt lat="38.35562" lon="16.1492514"><ele>933.3333333333333</ele><time>2026-04-11T11:11:09.693Z</time></trkpt><trkpt lat="38.3557721" lon="16.1492075"><ele>933.6666666666666</ele><time>2026-04-11T11:11:10.694Z</time></trkpt><trkpt lat="38.3559252" lon="16.1491581"><ele>934.0</ele><time>2026-04-11T11:11:11.693Z</time></trkpt><trkpt lat="38.356084" lon="16.1491128"><ele>934.0</ele><time>2026-04-11T11:11:12.693Z</time></trkpt><trkpt lat="38.3562441" lon="16.1490695"><ele>934.0</ele><time>2026-04-11T11:11:13.693Z</time></trkpt><trkpt lat="38.3564032" lon="16.149027"><ele>934.0</ele><time>2026-04-11T11:11:14.693Z</time></trkpt><trkpt lat="38.3565591" lon="16.1489788"><ele>933.6666666666666</ele><time>2026-04-11T11:11:15.693Z</time></trkpt><trkpt lat="38.3567251" lon="16.148928"><ele>933.3333333333333</ele><time>2026-04-11T11:11:16.693Z</time></trkpt><trkpt lat="38.356873" lon="16.1488747"><ele>933.0</ele><time>2026-04-11T11:11:17.693Z</time></trkpt><trkpt lat="38.3570057" lon="16.1487993"><ele>933.0</ele><time>2026-04-11T11:11:18.694Z</time></trkpt><trkpt lat="38.3571307" lon="16.1487013"><ele>933.0</ele><time>2026-04-11T11:11:19.694Z</time></trkpt><trkpt lat="38.3572506" lon="16.1485857"><ele>933.0</ele><time>2026-04-11T11:11:20.693Z</time></trkpt><trkpt lat="38.3573546" lon="16.1484636"><ele>933.0</ele><time>2026-04-11T11:11:21.694Z</time></trkpt><trkpt lat="38.3574662" lon="16.148343"><ele>934.6666666666667</ele><time>2026-04-11T11:11:22.693Z</time></trkpt><trkpt lat="38.3575942" lon="16.1482437"><ele>936.3333333333334</ele><time>2026-04-11T11:11:23.693Z</time></trkpt><trkpt lat="38.3577382" lon="16.1481623"><ele>938.0</ele><time>2026-04-11T11:11:24.694Z</time></trkpt><trkpt lat="38.3578803" lon="16.1480976"><ele>937.75</ele><time>2026-04-11T11:11:25.693Z</time></trkpt><trkpt lat="38.3580171" lon="16.148034"><ele>937.5</ele><time>2026-04-11T11:11:26.694Z</time></trkpt><trkpt lat="38.3581508" lon="16.147965"><ele>937.25</ele><time>2026-04-11T11:11:27.693Z</time></trkpt><trkpt lat="38.3582761" lon="16.147894"><ele>937.0</ele><time>2026-04-11T11:11:28.693Z</time></trkpt><trkpt lat="38.3583949" lon="16.1478172"><ele>937.0</ele><time>2026-04-11T11:11:29.694Z</time></trkpt><trkpt lat="38.3584976" lon="16.1477253"><ele>937.0</ele><time>2026-04-11T11:11:30.693Z</time></trkpt><trkpt lat="38.3585907" lon="16.1476111"><ele>937.0</ele><time>2026-04-11T11:11:31.693Z</time></trkpt><trkpt lat="38.3586755" lon="16.1474852"><ele>937.0</ele><time>2026-04-11T11:11:32.693Z</time></trkpt><trkpt lat="38.3587668" lon="16.1473663"><ele>936.75</ele><time>2026-04-11T11:11:33.694Z</time></trkpt><trkpt lat="38.3588568" lon="16.1472468"><ele>936.5</ele><time>2026-04-11T11:11:34.694Z</time></trkpt><trkpt lat="38.3589376" lon="16.1471061"><ele>936.25</ele><time>2026-04-11T11:11:35.694Z</time></trkpt><trkpt lat="38.3590149" lon="16.1469496"><ele>936.0</ele><time>2026-04-11T11:11:36.693Z</time></trkpt><trkpt lat="38.3590942" lon="16.1467774"><ele>936.0</ele><time>2026-04-11T11:11:37.693Z</time></trkpt><trkpt lat="38.3591779" lon="16.1466014"><ele>936.0</ele><time>2026-04-11T11:11:38.694Z</time></trkpt><trkpt lat="38.3592641" lon="16.1464285"><ele>936.0</ele><time>2026-04-11T11:11:39.693Z</time></trkpt><trkpt lat="38.359347" lon="16.1462645"><ele>934.0</ele><time>2026-04-11T11:11:40.693Z</time></trkpt><trkpt lat="38.3594278" lon="16.146114"><ele>932.0</ele><time>2026-04-11T11:11:41.693Z</time></trkpt><trkpt lat="38.3595039" lon="16.1459748"><ele>930.0</ele><time>2026-04-11T11:11:42.694Z</time></trkpt><trkpt lat="38.3595639" lon="16.1458531"><ele>928.0</ele><time>2026-04-11T11:11:43.693Z</time></trkpt><trkpt lat="38.3595999" lon="16.145747"><ele>926.8</ele><time>2026-04-11T11:11:44.694Z</time></trkpt><trkpt lat="38.3596186" lon="16.145632"><ele>925.5999999999999</ele><time>2026-04-11T11:11:45.694Z</time></trkpt><trkpt lat="38.3596281" lon="16.1455115"><ele>924.4000000000001</ele><time>2026-04-11T11:11:46.693Z</time></trkpt><trkpt lat="38.3596224" lon="16.1453903"><ele>923.2</ele><time>2026-04-11T11:11:47.693Z</time></trkpt><trkpt lat="38.3596067" lon="16.1452618"><ele>922.0</ele><time>2026-04-11T11:11:48.693Z</time></trkpt><trkpt lat="38.3595816" lon="16.1451101"><ele>922.0</ele><time>2026-04-11T11:11:49.693Z</time></trkpt><trkpt lat="38.3595551" lon="16.1449456"><ele>922.0</ele><time>2026-04-11T11:11:50.693Z</time></trkpt><trkpt lat="38.3595344" lon="16.1447671"><ele>922.0</ele><time>2026-04-11T11:11:51.693Z</time></trkpt><trkpt lat="38.3595233" lon="16.1446043"><ele>922.0</ele><time>2026-04-11T11:11:52.693Z</time></trkpt><trkpt lat="38.3595288" lon="16.1444301"><ele>922.5</ele><time>2026-04-11T11:11:53.694Z</time></trkpt><trkpt lat="38.3595488" lon="16.1442525"><ele>923.0</ele><time>2026-04-11T11:11:54.693Z</time></trkpt><trkpt lat="38.3595759" lon="16.1440822"><ele>923.5</ele><time>2026-04-11T11:11:55.693Z</time></trkpt><trkpt lat="38.3596028" lon="16.1439118"><ele>924.0</ele><time>2026-04-11T11:11:56.694Z</time></trkpt><trkpt lat="38.3596278" lon="16.1437437"><ele>923.25</ele><time>2026-04-11T11:11:57.693Z</time></trkpt><trkpt lat="38.3596549" lon="16.1435618"><ele>922.5</ele><time>2026-04-11T11:11:58.694Z</time></trkpt><trkpt lat="38.3596992" lon="16.1433804"><ele>921.75</ele><time>2026-04-11T11:11:59.694Z</time></trkpt><trkpt lat="38.359754" lon="16.1432053"><ele>921.0</ele><time>2026-04-11T11:12:00.693Z</time></trkpt><trkpt lat="38.359821" lon="16.1430363"><ele>921.0</ele><time>2026-04-11T11:12:01.694Z</time></trkpt><trkpt lat="38.3599027" lon="16.142865"><ele>921.0</ele><time>2026-04-11T11:12:02.693Z</time></trkpt><trkpt lat="38.3600071" lon="16.142681"><ele>921.0</ele><time>2026-04-11T11:12:03.694Z</time></trkpt><trkpt lat="38.3601261" lon="16.1425122"><ele>916.6666666666667</ele><time>2026-04-11T11:12:04.694Z</time></trkpt><trkpt lat="38.3602447" lon="16.1423551"><ele>912.3333333333334</ele><time>2026-04-11T11:12:05.694Z</time></trkpt><trkpt lat="38.360353" lon="16.1422168"><ele>908.0</ele><time>2026-04-11T11:12:06.693Z</time></trkpt><trkpt lat="38.3604535" lon="16.1420823"><ele>908.0</ele><time>2026-04-11T11:12:07.693Z</time></trkpt><trkpt lat="38.3605434" lon="16.1419438"><ele>908.0</ele><time>2026-04-11T11:12:08.693Z</time></trkpt><trkpt lat="38.3606312" lon="16.1418085"><ele>908.0</ele><time>2026-04-11T11:12:09.693Z</time></trkpt><trkpt lat="38.3607219" lon="16.1416674"><ele>908.0</ele><time>2026-04-11T11:12:10.693Z</time></trkpt><trkpt lat="38.360805" lon="16.1415468"><ele>906.8333333333334</ele><time>2026-04-11T11:12:11.693Z</time></trkpt><trkpt lat="38.3608579" lon="16.1414422"><ele>905.6666666666667</ele><time>2026-04-11T11:12:12.693Z</time></trkpt><trkpt lat="38.3608809" lon="16.1413514"><ele>904.5</ele><time>2026-04-11T11:12:13.693Z</time></trkpt><trkpt lat="38.3608878" lon="16.1412701"><ele>903.3333333333333</ele><time>2026-04-11T11:12:14.693Z</time></trkpt><trkpt lat="38.3608553" lon="16.1411925"><ele>902.1666666666666</ele><time>2026-04-11T11:12:15.693Z</time></trkpt><trkpt lat="38.3607968" lon="16.1411308"><ele>901.0</ele><time>2026-04-11T11:12:16.693Z</time></trkpt><trkpt lat="38.3606912" lon="16.1411046"><ele>901.0</ele><time>2026-04-11T11:12:17.693Z</time></trkpt><trkpt lat="38.3605594" lon="16.1410883"><ele>901.0</ele><time>2026-04-11T11:12:18.693Z</time></trkpt><trkpt lat="38.3604321" lon="16.1410547"><ele>901.0</ele><time>2026-04-11T11:12:19.694Z</time></trkpt><trkpt lat="38.3603181" lon="16.1409993"><ele>901.0</ele><time>2026-04-11T11:12:20.693Z</time></trkpt><trkpt lat="38.3602223" lon="16.1409115"><ele>900.0</ele><time>2026-04-11T11:12:21.693Z</time></trkpt><trkpt lat="38.360145" lon="16.1407951"><ele>899.0</ele><time>2026-04-11T11:12:22.693Z</time></trkpt><trkpt lat="38.3600831" lon="16.14065"><ele>898.0</ele><time>2026-04-11T11:12:23.694Z</time></trkpt><trkpt lat="38.3600259" lon="16.1405124"><ele>897.0</ele><time>2026-04-11T11:12:24.694Z</time></trkpt><trkpt lat="38.3599635" lon="16.1403772"><ele>897.3333333333334</ele><time>2026-04-11T11:12:25.693Z</time></trkpt><trkpt lat="38.3599037" lon="16.1402532"><ele>897.6666666666667</ele><time>2026-04-11T11:12:26.694Z</time></trkpt><trkpt lat="38.3598541" lon="16.1401429"><ele>898.0</ele><time>2026-04-11T11:12:27.694Z</time></trkpt><trkpt lat="38.3598303" lon="16.1400409"><ele>898.3333333333334</ele><time>2026-04-11T11:12:28.694Z</time></trkpt><trkpt lat="38.3598297" lon="16.1399506"><ele>898.6666666666667</ele><time>2026-04-11T11:12:29.693Z</time></trkpt><trkpt lat="38.3598584" lon="16.1398717"><ele>899.0</ele><time>2026-04-11T11:12:30.693Z</time></trkpt><trkpt lat="38.3599161" lon="16.1398173"><ele>899.0</ele><time>2026-04-11T11:12:31.693Z</time></trkpt><trkpt lat="38.3600022" lon="16.1397863"><ele>899.0000000000001</ele><time>2026-04-11T11:12:32.693Z</time></trkpt><trkpt lat="38.3601006" lon="16.1397786"><ele>899.0000000000001</ele><time>2026-04-11T11:12:33.693Z</time></trkpt><trkpt lat="38.3602125" lon="16.1397943"><ele>899.0</ele><time>2026-04-11T11:12:34.694Z</time></trkpt><trkpt lat="38.3603162" lon="16.1398322"><ele>899.0</ele><time>2026-04-11T11:12:35.693Z</time></trkpt><trkpt lat="38.3604013" lon="16.1398903"><ele>897.6666666666667</ele><time>2026-04-11T11:12:36.694Z</time></trkpt><trkpt lat="38.3604665" lon="16.1399616"><ele>896.3333333333334</ele><time>2026-04-11T11:12:37.693Z</time></trkpt><trkpt lat="38.3605093" lon="16.1400626"><ele>895.0</ele><time>2026-04-11T11:12:38.694Z</time></trkpt><trkpt lat="38.3605432" lon="16.1401809"><ele>893.6666666666667</ele><time>2026-04-11T11:12:39.694Z</time></trkpt><trkpt lat="38.3605868" lon="16.1402761"><ele>892.3333333333334</ele><time>2026-04-11T11:12:40.693Z</time></trkpt><trkpt lat="38.3606426" lon="16.1403372"><ele>891.0</ele><time>2026-04-11T11:12:41.693Z</time></trkpt><trkpt lat="38.3607108" lon="16.1403486"><ele>890.0</ele><time>2026-04-11T11:12:42.694Z</time></trkpt><trkpt lat="38.3607946" lon="16.1403142"><ele>889.0</ele><time>2026-04-11T11:12:43.694Z</time></trkpt><trkpt lat="38.3608848" lon="16.1402334"><ele>888.0</ele><time>2026-04-11T11:12:44.694Z</time></trkpt><trkpt lat="38.3609811" lon="16.140129"><ele>887.0</ele><time>2026-04-11T11:12:45.693Z</time></trkpt><trkpt lat="38.3610812" lon="16.1400243"><ele>887.0</ele><time>2026-04-11T11:12:46.694Z</time></trkpt><trkpt lat="38.36118" lon="16.1399301"><ele>887.0</ele><time>2026-04-11T11:12:47.693Z</time></trkpt><trkpt lat="38.3612791" lon="16.1398348"><ele>887.0</ele><time>2026-04-11T11:12:48.693Z</time></trkpt><trkpt lat="38.3613711" lon="16.1397273"><ele>887.0</ele><time>2026-04-11T11:12:49.694Z</time></trkpt><trkpt lat="38.3614484" lon="16.1396072"><ele>884.5</ele><time>2026-04-11T11:12:50.693Z</time></trkpt><trkpt lat="38.3615185" lon="16.1394831"><ele>882.0</ele><time>2026-04-11T11:12:51.694Z</time></trkpt><trkpt lat="38.3615885" lon="16.1393544"><ele>879.5</ele><time>2026-04-11T11:12:52.693Z</time></trkpt><trkpt lat="38.3616603" lon="16.1392253"><ele>877.0</ele><time>2026-04-11T11:12:53.694Z</time></trkpt><trkpt lat="38.3617337" lon="16.139102"><ele>873.75</ele><time>2026-04-11T11:12:54.693Z</time></trkpt><trkpt lat="38.3618093" lon="16.1389895"><ele>870.5</ele><time>2026-04-11T11:12:55.693Z</time></trkpt><trkpt lat="38.3618977" lon="16.1388728"><ele>867.25</ele><time>2026-04-11T11:12:56.693Z</time></trkpt><trkpt lat="38.361999" lon="16.138765"><ele>864.0</ele><time>2026-04-11T11:12:57.693Z</time></trkpt><trkpt lat="38.3620969" lon="16.138659"><ele>864.0</ele><time>2026-04-11T11:12:58.693Z</time></trkpt><trkpt lat="38.3621943" lon="16.1385564"><ele>864.0</ele><time>2026-04-11T11:12:59.694Z</time></trkpt><trkpt lat="38.3622876" lon="16.1384599"><ele>864.0</ele><time>2026-04-11T11:13:00.694Z</time></trkpt><trkpt lat="38.3623827" lon="16.1383671"><ele>864.0</ele><time>2026-04-11T11:13:01.693Z</time></trkpt><trkpt lat="38.3624764" lon="16.1382846"><ele>863.25</ele><time>2026-04-11T11:13:02.693Z</time></trkpt><trkpt lat="38.3625811" lon="16.1382114"><ele>862.5</ele><time>2026-04-11T11:13:03.693Z</time></trkpt><trkpt lat="38.3626899" lon="16.1381505"><ele>861.75</ele><time>2026-04-11T11:13:04.694Z</time></trkpt><trkpt lat="38.3628005" lon="16.1381029"><ele>861.0</ele><time>2026-04-11T11:13:05.693Z</time></trkpt><trkpt lat="38.3629176" lon="16.1380629"><ele>862.5</ele><time>2026-04-11T11:13:06.693Z</time></trkpt><trkpt lat="38.3630377" lon="16.1380198"><ele>864.0</ele><time>2026-04-11T11:13:07.693Z</time></trkpt><trkpt lat="38.3631556" lon="16.1379719"><ele>865.5</ele><time>2026-04-11T11:13:08.693Z</time></trkpt><trkpt lat="38.3632711" lon="16.1379258"><ele>867.0</ele><time>2026-04-11T11:13:09.693Z</time></trkpt><trkpt lat="38.3633844" lon="16.1378725"><ele>867.0</ele><time>2026-04-11T11:13:10.693Z</time></trkpt><trkpt lat="38.363487" lon="16.1378156"><ele>867.0</ele><time>2026-04-11T11:13:11.693Z</time></trkpt><trkpt lat="38.3635827" lon="16.1377646"><ele>867.0</ele><time>2026-04-11T11:13:12.694Z</time></trkpt><trkpt lat="38.3636702" lon="16.1377232"><ele>867.0</ele><time>2026-04-11T11:13:13.693Z</time></trkpt><trkpt lat="38.363753" lon="16.1376935"><ele>867.0</ele><time>2026-04-11T11:13:14.694Z</time></trkpt><trkpt lat="38.3638238" lon="16.137695"><ele>867.0</ele><time>2026-04-11T11:13:15.694Z</time></trkpt><trkpt lat="38.3638817" lon="16.1377344"><ele>867.0</ele><time>2026-04-11T11:13:16.694Z</time></trkpt><trkpt lat="38.3639184" lon="16.1378021"><ele>867.0</ele><time>2026-04-11T11:13:17.694Z</time></trkpt><trkpt lat="38.3639201" lon="16.1378844"><ele>867.0</ele><time>2026-04-11T11:13:18.694Z</time></trkpt><trkpt lat="38.3638884" lon="16.1379783"><ele>867.0</ele><time>2026-04-11T11:13:19.693Z</time></trkpt><trkpt lat="38.3638208" lon="16.1380612"><ele>867.0</ele><time>2026-04-11T11:13:20.693Z</time></trkpt><trkpt lat="38.3637257" lon="16.1381314"><ele>867.0</ele><time>2026-04-11T11:13:21.694Z</time></trkpt><trkpt lat="38.3636348" lon="16.1382104"><ele>867.0</ele><time>2026-04-11T11:13:22.693Z</time></trkpt><trkpt lat="38.3635749" lon="16.1382974"><ele>867.0</ele><time>2026-04-11T11:13:23.694Z</time></trkpt><trkpt lat="38.3635393" lon="16.1383972"><ele>867.0</ele><time>2026-04-11T11:13:24.693Z</time></trkpt><trkpt lat="38.3635361" lon="16.1385144"><ele>867.0</ele><time>2026-04-11T11:13:25.693Z</time></trkpt><trkpt lat="38.363562" lon="16.1386429"><ele>866.25</ele><time>2026-04-11T11:13:26.693Z</time></trkpt><trkpt lat="38.3636089" lon="16.1387859"><ele>865.5</ele><time>2026-04-11T11:13:27.693Z</time></trkpt><trkpt lat="38.3636759" lon="16.138939"><ele>864.75</ele><time>2026-04-11T11:13:28.694Z</time></trkpt><trkpt lat="38.3637529" lon="16.1390872"><ele>864.0</ele><time>2026-04-11T11:13:29.693Z</time></trkpt><trkpt lat="38.3638366" lon="16.1392241"><ele>860.25</ele><time>2026-04-11T11:13:30.694Z</time></trkpt><trkpt lat="38.3639218" lon="16.1393414"><ele>856.5</ele><time>2026-04-11T11:13:31.693Z</time></trkpt><trkpt lat="38.3640136" lon="16.1394308"><ele>852.75</ele><time>2026-04-11T11:13:32.694Z</time></trkpt><trkpt lat="38.364108" lon="16.1395228"><ele>849.0</ele><time>2026-04-11T11:13:33.693Z</time></trkpt><trkpt lat="38.3642209" lon="16.1396215"><ele>849.0</ele><time>2026-04-11T11:13:34.694Z</time></trkpt><trkpt lat="38.3643261" lon="16.1397202"><ele>849.0</ele><time>2026-04-11T11:13:35.694Z</time></trkpt><trkpt lat="38.3644403" lon="16.1398341"><ele>849.0</ele><time>2026-04-11T11:13:36.694Z</time></trkpt><trkpt lat="38.3645494" lon="16.139941"><ele>849.0</ele><time>2026-04-11T11:13:37.693Z</time></trkpt><trkpt lat="38.3646585" lon="16.1400373"><ele>846.75</ele><time>2026-04-11T11:13:38.693Z</time></trkpt><trkpt lat="38.3647647" lon="16.1401002"><ele>844.5</ele><time>2026-04-11T11:13:39.693Z</time></trkpt><trkpt lat="38.3648788" lon="16.1401234"><ele>842.25</ele><time>2026-04-11T11:13:40.694Z</time></trkpt><trkpt lat="38.3650053" lon="16.1400973"><ele>840.0</ele><time>2026-04-11T11:13:41.693Z</time></trkpt><trkpt lat="38.3651352" lon="16.1400477"><ele>840.0</ele><time>2026-04-11T11:13:42.693Z</time></trkpt><trkpt lat="38.3652684" lon="16.1399899"><ele>840.0</ele><time>2026-04-11T11:13:43.694Z</time></trkpt><trkpt lat="38.3653883" lon="16.1399178"><ele>840.0</ele><time>2026-04-11T11:13:44.693Z</time></trkpt><trkpt lat="38.365496" lon="16.1398143"><ele>840.0</ele><time>2026-04-11T11:13:45.693Z</time></trkpt><trkpt lat="38.3655985" lon="16.1396895"><ele>839.75</ele><time>2026-04-11T11:13:46.694Z</time></trkpt><trkpt lat="38.3656945" lon="16.1395558"><ele>839.5</ele><time>2026-04-11T11:13:47.694Z</time></trkpt><trkpt lat="38.3657949" lon="16.1394204"><ele>839.25</ele><time>2026-04-11T11:13:48.693Z</time></trkpt><trkpt lat="38.3659053" lon="16.1392861"><ele>839.0</ele><time>2026-04-11T11:13:49.693Z</time></trkpt><trkpt lat="38.3660133" lon="16.1391588"><ele>839.0</ele><time>2026-04-11T11:13:50.693Z</time></trkpt><trkpt lat="38.3661206" lon="16.1390351"><ele>839.0</ele><time>2026-04-11T11:13:51.693Z</time></trkpt><trkpt lat="38.3662246" lon="16.1389156"><ele>839.0</ele><time>2026-04-11T11:13:52.694Z</time></trkpt><trkpt lat="38.366329" lon="16.1387952"><ele>839.0</ele><time>2026-04-11T11:13:53.693Z</time></trkpt><trkpt lat="38.3664337" lon="16.1386744"><ele>839.0</ele><time>2026-04-11T11:13:54.693Z</time></trkpt><trkpt lat="38.3665331" lon="16.1385548"><ele>839.0</ele><time>2026-04-11T11:13:55.693Z</time></trkpt><trkpt lat="38.3666354" lon="16.138446"><ele>839.0</ele><time>2026-04-11T11:13:56.693Z</time></trkpt><trkpt lat="38.3667395" lon="16.1383569"><ele>839.0</ele><time>2026-04-11T11:13:57.694Z</time></trkpt><trkpt lat="38.366852" lon="16.1382904"><ele>839.0</ele><time>2026-04-11T11:13:58.693Z</time></trkpt><trkpt lat="38.3669748" lon="16.1382463"><ele>839.0</ele><time>2026-04-11T11:13:59.693Z</time></trkpt><trkpt lat="38.3671142" lon="16.1382076"><ele>839.0</ele><time>2026-04-11T11:14:00.694Z</time></trkpt><trkpt lat="38.3672639" lon="16.1381689"><ele>839.0</ele><time>2026-04-11T11:14:01.693Z</time></trkpt><trkpt lat="38.3674156" lon="16.1381252"><ele>837.6666666666667</ele><time>2026-04-11T11:14:02.693Z</time></trkpt><trkpt lat="38.3675732" lon="16.1380746"><ele>836.3333333333333</ele><time>2026-04-11T11:14:03.693Z</time></trkpt><trkpt lat="38.3677294" lon="16.1380112"><ele>835.0</ele><time>2026-04-11T11:14:04.694Z</time></trkpt><trkpt lat="38.3678763" lon="16.137926"><ele>835.0</ele><time>2026-04-11T11:14:05.693Z</time></trkpt><trkpt lat="38.3680139" lon="16.1378276"><ele>835.0</ele><time>2026-04-11T11:14:06.694Z</time></trkpt><trkpt lat="38.3681443" lon="16.1377099"><ele>835.0</ele><time>2026-04-11T11:14:07.693Z</time></trkpt><trkpt lat="38.368267" lon="16.1375941"><ele>836.0</ele><time>2026-04-11T11:14:08.694Z</time></trkpt><trkpt lat="38.3683849" lon="16.1374906"><ele>837.0</ele><time>2026-04-11T11:14:09.693Z</time></trkpt><trkpt lat="38.3684954" lon="16.1373991"><ele>838.0</ele><time>2026-04-11T11:14:10.693Z</time></trkpt><trkpt lat="38.3685927" lon="16.1373153"><ele>839.0</ele><time>2026-04-11T11:14:11.693Z</time></trkpt><trkpt lat="38.3686858" lon="16.1372399"><ele>838.0</ele><time>2026-04-11T11:14:12.693Z</time></trkpt><trkpt lat="38.3687798" lon="16.137176"><ele>837.0</ele><time>2026-04-11T11:14:13.693Z</time></trkpt><trkpt lat="38.3688736" lon="16.1371183"><ele>836.0</ele><time>2026-04-11T11:14:14.693Z</time></trkpt><trkpt lat="38.3689614" lon="16.137083"><ele>835.0</ele><time>2026-04-11T11:14:15.693Z</time></trkpt><trkpt lat="38.3690338" lon="16.1370751"><ele>834.0</ele><time>2026-04-11T11:14:16.694Z</time></trkpt><trkpt lat="38.3691288" lon="16.1371384"><ele>834.0</ele><time>2026-04-11T11:14:18.693Z</time></trkpt><trkpt lat="38.3691619" lon="16.1372619"><ele>834.0</ele><time>2026-04-11T11:14:20.693Z</time></trkpt><trkpt lat="38.3691551" lon="16.1373994"><ele>834.0</ele><time>2026-04-11T11:14:22.693Z</time></trkpt><trkpt lat="38.3691371" lon="16.1375569"><ele>834.0</ele><time>2026-04-11T11:14:24.693Z</time></trkpt><trkpt lat="38.3691259" lon="16.1376448"><ele>834.0</ele><time>2026-04-11T11:14:25.694Z</time></trkpt><trkpt lat="38.36911" lon="16.1377416"><ele>834.3333333333334</ele><time>2026-04-11T11:14:26.693Z</time></trkpt><trkpt lat="38.3690941" lon="16.1378399"><ele>834.6666666666667</ele><time>2026-04-11T11:14:27.693Z</time></trkpt><trkpt lat="38.3690761" lon="16.1379365"><ele>835.0</ele><time>2026-04-11T11:14:28.693Z</time></trkpt><trkpt lat="38.3690628" lon="16.1380271"><ele>835.3333333333334</ele><time>2026-04-11T11:14:29.694Z</time></trkpt><trkpt lat="38.369055" lon="16.1381249"><ele>835.6666666666667</ele><time>2026-04-11T11:14:30.693Z</time></trkpt><trkpt lat="38.3690448" lon="16.1382295"><ele>836.0</ele><time>2026-04-11T11:14:31.693Z</time></trkpt><trkpt lat="38.3690327" lon="16.1383445"><ele>836.1666666666667</ele><time>2026-04-11T11:14:32.693Z</time></trkpt><trkpt lat="38.369029" lon="16.1384614"><ele>836.3333333333334</ele><time>2026-04-11T11:14:33.694Z</time></trkpt><trkpt lat="38.3690255" lon="16.138572"><ele>836.5</ele><time>2026-04-11T11:14:34.694Z</time></trkpt><trkpt lat="38.369032" lon="16.1386859"><ele>836.6666666666667</ele><time>2026-04-11T11:14:35.694Z</time></trkpt><trkpt lat="38.3690449" lon="16.1387984"><ele>836.8333333333334</ele><time>2026-04-11T11:14:36.694Z</time></trkpt><trkpt lat="38.3690481" lon="16.1389104"><ele>837.0</ele><time>2026-04-11T11:14:37.693Z</time></trkpt><trkpt lat="38.3690657" lon="16.1390144"><ele>839.5</ele><time>2026-04-11T11:14:38.694Z</time></trkpt><trkpt lat="38.3691053" lon="16.1391079"><ele>842.0</ele><time>2026-04-11T11:14:39.694Z</time></trkpt><trkpt lat="38.3691617" lon="16.1391811"><ele>844.5</ele><time>2026-04-11T11:14:40.693Z</time></trkpt><trkpt lat="38.3692344" lon="16.139238"><ele>847.0</ele><time>2026-04-11T11:14:41.694Z</time></trkpt><trkpt lat="38.3693067" lon="16.1392767"><ele>849.5</ele><time>2026-04-11T11:14:42.693Z</time></trkpt><trkpt lat="38.3693929" lon="16.1393021"><ele>852.0</ele><time>2026-04-11T11:14:43.694Z</time></trkpt><trkpt lat="38.3694828" lon="16.1393259"><ele>852.0</ele><time>2026-04-11T11:14:44.694Z</time></trkpt><trkpt lat="38.3695718" lon="16.1393589"><ele>852.0</ele><time>2026-04-11T11:14:45.693Z</time></trkpt><trkpt lat="38.3696635" lon="16.139401"><ele>852.0</ele><time>2026-04-11T11:14:46.693Z</time></trkpt><trkpt lat="38.3697485" lon="16.1394604"><ele>852.0</ele><time>2026-04-11T11:14:47.693Z</time></trkpt><trkpt lat="38.3698186" lon="16.1395476"><ele>852.0</ele><time>2026-04-11T11:14:48.693Z</time></trkpt><trkpt lat="38.3698744" lon="16.1396577"><ele>849.4000000000001</ele><time>2026-04-11T11:14:49.693Z</time></trkpt><trkpt lat="38.3699206" lon="16.1397771"><ele>846.8000000000001</ele><time>2026-04-11T11:14:50.694Z</time></trkpt><trkpt lat="38.3699565" lon="16.1399034"><ele>844.2</ele><time>2026-04-11T11:14:51.694Z</time></trkpt><trkpt lat="38.3699688" lon="16.1400315"><ele>841.6</ele><time>2026-04-11T11:14:52.693Z</time></trkpt><trkpt lat="38.369954" lon="16.1401473"><ele>839.0</ele><time>2026-04-11T11:14:53.694Z</time></trkpt><trkpt lat="38.3699068" lon="16.1402489"><ele>839.0</ele><time>2026-04-11T11:14:54.693Z</time></trkpt><trkpt lat="38.3698338" lon="16.140323"><ele>839.0</ele><time>2026-04-11T11:14:55.694Z</time></trkpt><trkpt lat="38.3697466" lon="16.140369"><ele>839.0</ele><time>2026-04-11T11:14:56.693Z</time></trkpt><trkpt lat="38.3696532" lon="16.1403921"><ele>839.0</ele><time>2026-04-11T11:14:57.694Z</time></trkpt><trkpt lat="38.3695473" lon="16.1403927"><ele>839.0</ele><time>2026-04-11T11:14:58.694Z</time></trkpt><trkpt lat="38.369437" lon="16.1403859"><ele>844.6</ele><time>2026-04-11T11:14:59.694Z</time></trkpt><trkpt lat="38.3693287" lon="16.1403854"><ele>850.2</ele><time>2026-04-11T11:15:00.694Z</time></trkpt><trkpt lat="38.3692309" lon="16.1404036"><ele>855.8000000000001</ele><time>2026-04-11T11:15:01.693Z</time></trkpt><trkpt lat="38.3691454" lon="16.140442"><ele>861.4000000000001</ele><time>2026-04-11T11:15:02.693Z</time></trkpt><trkpt lat="38.3690671" lon="16.1404876"><ele>867.0</ele><time>2026-04-11T11:15:03.694Z</time></trkpt><trkpt lat="38.3689991" lon="16.1405586"><ele>867.0</ele><time>2026-04-11T11:15:04.694Z</time></trkpt><trkpt lat="38.3689446" lon="16.140637"><ele>867.0</ele><time>2026-04-11T11:15:05.694Z</time></trkpt><trkpt lat="38.3688897" lon="16.1407567"><ele>867.0</ele><time>2026-04-11T11:15:07.693Z</time></trkpt><trkpt lat="38.3688808" lon="16.140881"><ele>867.0</ele><time>2026-04-11T11:15:09.693Z</time></trkpt><trkpt lat="38.36888" lon="16.1410161"><ele>867.0</ele><time>2026-04-11T11:15:11.693Z</time></trkpt><trkpt lat="38.3688834" lon="16.1411824"><ele>864.1666666666666</ele><time>2026-04-11T11:15:13.693Z</time></trkpt><trkpt lat="38.3688808" lon="16.1412638"><ele>861.3333333333333</ele><time>2026-04-11T11:15:14.693Z</time></trkpt><trkpt lat="38.3688873" lon="16.1413564"><ele>858.5</ele><time>2026-04-11T11:15:15.693Z</time></trkpt><trkpt lat="38.3688947" lon="16.141463"><ele>855.6666666666666</ele><time>2026-04-11T11:15:16.694Z</time></trkpt><trkpt lat="38.3689035" lon="16.1415836"><ele>852.8333333333333</ele><time>2026-04-11T11:15:17.694Z</time></trkpt><trkpt lat="38.3689137" lon="16.1417054"><ele>850.0</ele><time>2026-04-11T11:15:18.694Z</time></trkpt><trkpt lat="38.3689241" lon="16.1418332"><ele>849.9999999999999</ele><time>2026-04-11T11:15:19.694Z</time></trkpt><trkpt lat="38.3689219" lon="16.1419608"><ele>850.0</ele><time>2026-04-11T11:15:20.693Z</time></trkpt><trkpt lat="38.3689182" lon="16.1420846"><ele>850.0</ele><time>2026-04-11T11:15:21.693Z</time></trkpt><trkpt lat="38.3689163" lon="16.1421942"><ele>850.0</ele><time>2026-04-11T11:15:22.693Z</time></trkpt><trkpt lat="38.3688999" lon="16.1423085"><ele>849.9999999999999</ele><time>2026-04-11T11:15:23.694Z</time></trkpt><trkpt lat="38.3688743" lon="16.1423897"><ele>850.0</ele><time>2026-04-11T11:15:24.694Z</time></trkpt><trkpt lat="38.3687947" lon="16.1424935"><ele>849.9999999999999</ele><time>2026-04-11T11:15:26.693Z</time></trkpt><trkpt lat="38.3687284" lon="16.1425165"><ele>850.0</ele><time>2026-04-11T11:15:27.694Z</time></trkpt><trkpt lat="38.3686485" lon="16.1425165"><ele>850.0</ele><time>2026-04-11T11:15:28.693Z</time></trkpt><trkpt lat="38.3685682" lon="16.142497"><ele>850.0</ele><time>2026-04-11T11:15:29.693Z</time></trkpt><trkpt lat="38.3684795" lon="16.1424646"><ele>849.9999999999999</ele><time>2026-04-11T11:15:30.694Z</time></trkpt><trkpt lat="38.368388" lon="16.142418"><ele>850.0</ele><time>2026-04-11T11:15:31.693Z</time></trkpt><trkpt lat="38.3682861" lon="16.1423592"><ele>852.3333333333333</ele><time>2026-04-11T11:15:32.694Z</time></trkpt><trkpt lat="38.3681927" lon="16.1422815"><ele>854.6666666666666</ele><time>2026-04-11T11:15:33.693Z</time></trkpt><trkpt lat="38.3681056" lon="16.1422135"><ele>857.0</ele><time>2026-04-11T11:15:34.693Z</time></trkpt><trkpt lat="38.3680348" lon="16.1421506"><ele>859.3333333333333</ele><time>2026-04-11T11:15:35.693Z</time></trkpt><trkpt lat="38.3679751" lon="16.1421032"><ele>861.6666666666666</ele><time>2026-04-11T11:15:36.693Z</time></trkpt><trkpt lat="38.3679056" lon="16.1420793"><ele>864.0</ele><time>2026-04-11T11:15:37.694Z</time></trkpt><trkpt lat="38.3677854" lon="16.1420961"><ele>864.6666666666666</ele><time>2026-04-11T11:15:39.693Z</time></trkpt><trkpt lat="38.3677222" lon="16.1421394"><ele>865.3333333333333</ele><time>2026-04-11T11:15:40.693Z</time></trkpt><trkpt lat="38.3676719" lon="16.1421927"><ele>866.0</ele><time>2026-04-11T11:15:41.693Z</time></trkpt><trkpt lat="38.3676175" lon="16.1423355"><ele>866.6666666666666</ele><time>2026-04-11T11:15:43.694Z</time></trkpt><trkpt lat="38.3676084" lon="16.1424226"><ele>867.3333333333333</ele><time>2026-04-11T11:15:44.693Z</time></trkpt><trkpt lat="38.3676139" lon="16.1425081"><ele>868.0</ele><time>2026-04-11T11:15:45.693Z</time></trkpt><trkpt lat="38.3676316" lon="16.1425897"><ele>868.0</ele><time>2026-04-11T11:15:46.693Z</time></trkpt><trkpt lat="38.3676585" lon="16.1426655"><ele>868.0</ele><time>2026-04-11T11:15:47.694Z</time></trkpt><trkpt lat="38.3676862" lon="16.1427396"><ele>868.0</ele><time>2026-04-11T11:15:48.694Z</time></trkpt><trkpt lat="38.3677172" lon="16.1428145"><ele>868.0</ele><time>2026-04-11T11:15:49.694Z</time></trkpt><trkpt lat="38.367749" lon="16.1428909"><ele>868.0</ele><time>2026-04-11T11:15:50.693Z</time></trkpt><trkpt lat="38.3677896" lon="16.1429676"><ele>868.0</ele><time>2026-04-11T11:15:51.693Z</time></trkpt><trkpt lat="38.3678365" lon="16.1430391"><ele>868.0</ele><time>2026-04-11T11:15:52.693Z</time></trkpt><trkpt lat="38.3678862" lon="16.1431052"><ele>867.9999999999999</ele><time>2026-04-11T11:15:53.693Z</time></trkpt><trkpt lat="38.3679378" lon="16.143167"><ele>868.0</ele><time>2026-04-11T11:15:54.693Z</time></trkpt><trkpt lat="38.3679965" lon="16.1432281"><ele>868.0</ele><time>2026-04-11T11:15:55.694Z</time></trkpt><trkpt lat="38.3680596" lon="16.1432905"><ele>868.0</ele><time>2026-04-11T11:15:56.693Z</time></trkpt><trkpt lat="38.36812" lon="16.1433559"><ele>867.9999999999999</ele><time>2026-04-11T11:15:57.693Z</time></trkpt><trkpt lat="38.3681726" lon="16.1434251"><ele>868.0</ele><time>2026-04-11T11:15:58.693Z</time></trkpt><trkpt lat="38.3682162" lon="16.143498"><ele>865.8571428571429</ele><time>2026-04-11T11:15:59.693Z</time></trkpt><trkpt lat="38.3682573" lon="16.1435728"><ele>863.7142857142858</ele><time>2026-04-11T11:16:00.693Z</time></trkpt><trkpt lat="38.36829" lon="16.1436519"><ele>861.5714285714286</ele><time>2026-04-11T11:16:01.694Z</time></trkpt><trkpt lat="38.3683097" lon="16.1437419"><ele>859.4285714285714</ele><time>2026-04-11T11:16:02.694Z</time></trkpt><trkpt lat="38.368305" lon="16.1438312"><ele>857.2857142857143</ele><time>2026-04-11T11:16:03.694Z</time></trkpt><trkpt lat="38.3682824" lon="16.1439175"><ele>855.1428571428571</ele><time>2026-04-11T11:16:04.694Z</time></trkpt><trkpt lat="38.3682439" lon="16.1439978"><ele>853.0</ele><time>2026-04-11T11:16:05.694Z</time></trkpt><trkpt lat="38.368192" lon="16.1440749"><ele>852.8</ele><time>2026-04-11T11:16:06.693Z</time></trkpt><trkpt lat="38.3681348" lon="16.1441509"><ele>852.5999999999999</ele><time>2026-04-11T11:16:07.694Z</time></trkpt><trkpt lat="38.3680641" lon="16.1442253"><ele>852.4000000000001</ele><time>2026-04-11T11:16:08.694Z</time></trkpt><trkpt lat="38.3679798" lon="16.1442961"><ele>852.2</ele><time>2026-04-11T11:16:09.694Z</time></trkpt><trkpt lat="38.3678881" lon="16.1443545"><ele>852.0</ele><time>2026-04-11T11:16:10.693Z</time></trkpt><trkpt lat="38.3677943" lon="16.1444036"><ele>854.8</ele><time>2026-04-11T11:16:11.693Z</time></trkpt><trkpt lat="38.3676995" lon="16.1444337"><ele>857.6</ele><time>2026-04-11T11:16:12.693Z</time></trkpt><trkpt lat="38.3676057" lon="16.1444566"><ele>860.3999999999999</ele><time>2026-04-11T11:16:13.693Z</time></trkpt><trkpt lat="38.3675128" lon="16.1444719"><ele>863.1999999999999</ele><time>2026-04-11T11:16:14.694Z</time></trkpt><trkpt lat="38.3674202" lon="16.1444849"><ele>866.0</ele><time>2026-04-11T11:16:15.693Z</time></trkpt><trkpt lat="38.3673264" lon="16.1444984"><ele>866.0000000000001</ele><time>2026-04-11T11:16:16.693Z</time></trkpt><trkpt lat="38.3672377" lon="16.1445048"><ele>866.0</ele><time>2026-04-11T11:16:17.693Z</time></trkpt><trkpt lat="38.3671583" lon="16.1445101"><ele>866.0</ele><time>2026-04-11T11:16:18.693Z</time></trkpt><trkpt lat="38.3670825" lon="16.1445117"><ele>866.0</ele><time>2026-04-11T11:16:19.693Z</time></trkpt><trkpt lat="38.3670037" lon="16.1444982"><ele>866.0000000000001</ele><time>2026-04-11T11:16:20.693Z</time></trkpt><trkpt lat="38.3669204" lon="16.1444663"><ele>866.0</ele><time>2026-04-11T11:16:21.694Z</time></trkpt><trkpt lat="38.366832" lon="16.1444293"><ele>867.0000000000001</ele><time>2026-04-11T11:16:22.693Z</time></trkpt><trkpt lat="38.366745" lon="16.1444049"><ele>868.0</ele><time>2026-04-11T11:16:23.693Z</time></trkpt><trkpt lat="38.3666584" lon="16.1443994"><ele>869.0</ele><time>2026-04-11T11:16:24.694Z</time></trkpt><trkpt lat="38.3665768" lon="16.144424"><ele>870.0</ele><time>2026-04-11T11:16:25.694Z</time></trkpt><trkpt lat="38.3665078" lon="16.1444857"><ele>871.0000000000001</ele><time>2026-04-11T11:16:26.694Z</time></trkpt><trkpt lat="38.366455" lon="16.1445741"><ele>872.0</ele><time>2026-04-11T11:16:27.694Z</time></trkpt><trkpt lat="38.3664274" lon="16.1446795"><ele>872.0</ele><time>2026-04-11T11:16:28.694Z</time></trkpt><trkpt lat="38.3664268" lon="16.1448077"><ele>872.0</ele><time>2026-04-11T11:16:29.693Z</time></trkpt><trkpt lat="38.3664561" lon="16.1449496"><ele>872.0</ele><time>2026-04-11T11:16:30.693Z</time></trkpt><trkpt lat="38.366504" lon="16.1450937"><ele>872.0</ele><time>2026-04-11T11:16:31.693Z</time></trkpt><trkpt lat="38.3665471" lon="16.1452323"><ele>870.8</ele><time>2026-04-11T11:16:32.694Z</time></trkpt><trkpt lat="38.3665845" lon="16.1453621"><ele>869.6</ele><time>2026-04-11T11:16:33.693Z</time></trkpt><trkpt lat="38.3666224" lon="16.145493"><ele>868.3999999999999</ele><time>2026-04-11T11:16:34.693Z</time></trkpt><trkpt lat="38.3666661" lon="16.145623"><ele>867.1999999999999</ele><time>2026-04-11T11:16:35.693Z</time></trkpt><trkpt lat="38.3667136" lon="16.1457501"><ele>866.0</ele><time>2026-04-11T11:16:36.694Z</time></trkpt><trkpt lat="38.3667422" lon="16.1458813"><ele>866.0</ele><time>2026-04-11T11:16:37.693Z</time></trkpt><trkpt lat="38.3667556" lon="16.1460213"><ele>866.0</ele><time>2026-04-11T11:16:38.694Z</time></trkpt><trkpt lat="38.3667502" lon="16.1461661"><ele>866.0</ele><time>2026-04-11T11:16:39.694Z</time></trkpt><trkpt lat="38.3667186" lon="16.1463132"><ele>866.0</ele><time>2026-04-11T11:16:40.694Z</time></trkpt><trkpt lat="38.3666779" lon="16.146455"><ele>866.0</ele><time>2026-04-11T11:16:41.693Z</time></trkpt><trkpt lat="38.3666348" lon="16.1465917"><ele>865.9999999999999</ele><time>2026-04-11T11:16:42.693Z</time></trkpt><trkpt lat="38.3665906" lon="16.1467373"><ele>865.9999999999999</ele><time>2026-04-11T11:16:43.693Z</time></trkpt><trkpt lat="38.3665481" lon="16.1468728"><ele>866.0</ele><time>2026-04-11T11:16:44.694Z</time></trkpt><trkpt lat="38.3665163" lon="16.1469806"><ele>866.0</ele><time>2026-04-11T11:16:45.693Z</time></trkpt><trkpt lat="38.3664974" lon="16.1470848"><ele>866.0000000000001</ele><time>2026-04-11T11:16:46.693Z</time></trkpt><trkpt lat="38.3665013" lon="16.1471833"><ele>866.0</ele><time>2026-04-11T11:16:47.693Z</time></trkpt><trkpt lat="38.3665231" lon="16.1472686"><ele>866.0</ele><time>2026-04-11T11:16:48.693Z</time></trkpt><trkpt lat="38.3665562" lon="16.1473386"><ele>866.0</ele><time>2026-04-11T11:16:49.694Z</time></trkpt><trkpt lat="38.3666441" lon="16.1474186"><ele>866.0000000000001</ele><time>2026-04-11T11:16:51.694Z</time></trkpt><trkpt lat="38.3667114" lon="16.1474546"><ele>866.0</ele><time>2026-04-11T11:16:53.694Z</time></trkpt><trkpt lat="38.3666725" lon="16.1473532"><ele>866.0000000000001</ele><time>2026-04-11T11:17:26.693Z</time></trkpt><trkpt lat="38.3666027" lon="16.1473021"><ele>866.0</ele><time>2026-04-11T11:17:36.693Z</time></trkpt><trkpt lat="38.3666578" lon="16.1473632"><ele>866.0</ele><time>2026-04-11T11:17:41.693Z</time></trkpt><trkpt lat="38.3667262" lon="16.1474311"><ele>866.0</ele><time>2026-04-11T11:17:43.694Z</time></trkpt><trkpt lat="38.3667753" lon="16.1474851"><ele>866.0000000000001</ele><time>2026-04-11T11:17:46.693Z</time></trkpt><trkpt lat="38.3668455" lon="16.1475727"><ele>866.0</ele><time>2026-04-11T11:17:49.693Z</time></trkpt><trkpt lat="38.3669265" lon="16.1476747"><ele>867.2857142857142</ele><time>2026-04-11T11:17:51.694Z</time></trkpt><trkpt lat="38.3669649" lon="16.1477442"><ele>868.5714285714286</ele><time>2026-04-11T11:17:52.694Z</time></trkpt><trkpt lat="38.3669966" lon="16.1478195"><ele>869.8571428571429</ele><time>2026-04-11T11:17:53.693Z</time></trkpt><trkpt lat="38.3670199" lon="16.147897"><ele>871.1428571428571</ele><time>2026-04-11T11:17:54.693Z</time></trkpt><trkpt lat="38.3670358" lon="16.1479824"><ele>872.4285714285714</ele><time>2026-04-11T11:17:55.693Z</time></trkpt><trkpt lat="38.3670411" lon="16.1480751"><ele>873.7142857142857</ele><time>2026-04-11T11:17:56.693Z</time></trkpt><trkpt lat="38.3670361" lon="16.1481732"><ele>875.0</ele><time>2026-04-11T11:17:57.693Z</time></trkpt><trkpt lat="38.3670248" lon="16.1482672"><ele>877.2</ele><time>2026-04-11T11:17:58.693Z</time></trkpt><trkpt lat="38.3670019" lon="16.1483626"><ele>879.4</ele><time>2026-04-11T11:17:59.694Z</time></trkpt><trkpt lat="38.3669615" lon="16.1484609"><ele>881.5999999999999</ele><time>2026-04-11T11:18:00.693Z</time></trkpt><trkpt lat="38.3669089" lon="16.1485609"><ele>883.8</ele><time>2026-04-11T11:18:01.694Z</time></trkpt><trkpt lat="38.3668427" lon="16.1486593"><ele>886.0</ele><time>2026-04-11T11:18:02.693Z</time></trkpt><trkpt lat="38.3667624" lon="16.1487521"><ele>885.9999999999999</ele><time>2026-04-11T11:18:03.694Z</time></trkpt><trkpt lat="38.3666884" lon="16.1488361"><ele>886.0</ele><time>2026-04-11T11:18:04.693Z</time></trkpt><trkpt lat="38.3666213" lon="16.1489153"><ele>886.0</ele><time>2026-04-11T11:18:05.694Z</time></trkpt><trkpt lat="38.3665672" lon="16.1489967"><ele>886.0</ele><time>2026-04-11T11:18:06.693Z</time></trkpt><trkpt lat="38.3665349" lon="16.1490741"><ele>885.9999999999999</ele><time>2026-04-11T11:18:07.693Z</time></trkpt><trkpt lat="38.3665294" lon="16.1491544"><ele>886.0</ele><time>2026-04-11T11:18:08.694Z</time></trkpt><trkpt lat="38.3665479" lon="16.1492419"><ele>885.1999999999999</ele><time>2026-04-11T11:18:09.694Z</time></trkpt><trkpt lat="38.3666003" lon="16.1493281"><ele>884.3999999999999</ele><time>2026-04-11T11:18:10.693Z</time></trkpt><trkpt lat="38.3666706" lon="16.1494173"><ele>883.6</ele><time>2026-04-11T11:18:11.693Z</time></trkpt><trkpt lat="38.3667607" lon="16.1495091"><ele>882.8</ele><time>2026-04-11T11:18:12.694Z</time></trkpt><trkpt lat="38.3668683" lon="16.149601"><ele>882.0</ele><time>2026-04-11T11:18:13.693Z</time></trkpt><trkpt lat="38.3669791" lon="16.1496938"><ele>882.0</ele><time>2026-04-11T11:18:14.693Z</time></trkpt><trkpt lat="38.3670937" lon="16.1497816"><ele>882.0</ele><time>2026-04-11T11:18:15.693Z</time></trkpt><trkpt lat="38.3671962" lon="16.1498615"><ele>882.0</ele><time>2026-04-11T11:18:16.694Z</time></trkpt><trkpt lat="38.3673017" lon="16.1499325"><ele>882.0</ele><time>2026-04-11T11:18:17.693Z</time></trkpt><trkpt lat="38.3674131" lon="16.1499817"><ele>881.5</ele><time>2026-04-11T11:18:18.694Z</time></trkpt><trkpt lat="38.3675272" lon="16.1500132"><ele>881.0</ele><time>2026-04-11T11:18:19.694Z</time></trkpt><trkpt lat="38.3676513" lon="16.1500234"><ele>880.5</ele><time>2026-04-11T11:18:20.694Z</time></trkpt><trkpt lat="38.3677768" lon="16.1500171"><ele>880.0</ele><time>2026-04-11T11:18:21.693Z</time></trkpt><trkpt lat="38.3679049" lon="16.1500123"><ele>881.0</ele><time>2026-04-11T11:18:22.694Z</time></trkpt><trkpt lat="38.3680422" lon="16.1500154"><ele>882.0</ele><time>2026-04-11T11:18:23.693Z</time></trkpt><trkpt lat="38.3681816" lon="16.1500193"><ele>883.0</ele><time>2026-04-11T11:18:24.693Z</time></trkpt><trkpt lat="38.3683237" lon="16.1500254"><ele>884.0</ele><time>2026-04-11T11:18:25.693Z</time></trkpt><trkpt lat="38.3684532" lon="16.1500258"><ele>884.0</ele><time>2026-04-11T11:18:26.693Z</time></trkpt><trkpt lat="38.3685634" lon="16.1500327"><ele>884.0</ele><time>2026-04-11T11:18:27.693Z</time></trkpt><trkpt lat="38.3686712" lon="16.1500491"><ele>884.0</ele><time>2026-04-11T11:18:28.694Z</time></trkpt><trkpt lat="38.3687912" lon="16.1501078"><ele>884.0</ele><time>2026-04-11T11:18:29.694Z</time></trkpt><trkpt lat="38.3689077" lon="16.150194"><ele>884.3333333333334</ele><time>2026-04-11T11:18:30.693Z</time></trkpt><trkpt lat="38.3690281" lon="16.1503115"><ele>884.6666666666667</ele><time>2026-04-11T11:18:31.693Z</time></trkpt><trkpt lat="38.3691306" lon="16.1504464"><ele>885.0</ele><time>2026-04-11T11:18:32.694Z</time></trkpt><trkpt lat="38.369231" lon="16.1505926"><ele>885.0</ele><time>2026-04-11T11:18:33.694Z</time></trkpt><trkpt lat="38.3693218" lon="16.1506946"><ele>885.0</ele><time>2026-04-11T11:18:34.693Z</time></trkpt><trkpt lat="38.3694163" lon="16.1507677"><ele>885.0</ele><time>2026-04-11T11:18:35.694Z</time></trkpt><trkpt lat="38.3695094" lon="16.1507894"><ele>885.0</ele><time>2026-04-11T11:18:36.694Z</time></trkpt><trkpt lat="38.369601" lon="16.1507789"><ele>885.0</ele><time>2026-04-11T11:18:37.694Z</time></trkpt><trkpt lat="38.3696996" lon="16.1507437"><ele>886.2</ele><time>2026-04-11T11:18:38.693Z</time></trkpt><trkpt lat="38.369794" lon="16.1506872"><ele>887.4</ele><time>2026-04-11T11:18:39.693Z</time></trkpt><trkpt lat="38.3698737" lon="16.1506076"><ele>888.5999999999999</ele><time>2026-04-11T11:18:40.693Z</time></trkpt><trkpt lat="38.3699413" lon="16.1505015"><ele>889.8</ele><time>2026-04-11T11:18:41.694Z</time></trkpt><trkpt lat="38.3699908" lon="16.1503754"><ele>891.0</ele><time>2026-04-11T11:18:42.694Z</time></trkpt><trkpt lat="38.3700251" lon="16.1502555"><ele>891.0</ele><time>2026-04-11T11:18:43.693Z</time></trkpt><trkpt lat="38.3700173" lon="16.1501263"><ele>890.9999999999999</ele><time>2026-04-11T11:18:44.693Z</time></trkpt><trkpt lat="38.3699967" lon="16.1499883"><ele>890.9999999999999</ele><time>2026-04-11T11:18:45.694Z</time></trkpt><trkpt lat="38.3699897" lon="16.1498557"><ele>891.0</ele><time>2026-04-11T11:18:46.694Z</time></trkpt><trkpt lat="38.3699982" lon="16.1497251"><ele>891.0</ele><time>2026-04-11T11:18:47.693Z</time></trkpt><trkpt lat="38.370019" lon="16.1495987"><ele>890.4</ele><time>2026-04-11T11:18:48.694Z</time></trkpt><trkpt lat="38.3700449" lon="16.1494788"><ele>889.8</ele><time>2026-04-11T11:18:49.693Z</time></trkpt><trkpt lat="38.3700871" lon="16.1493568"><ele>889.1999999999999</ele><time>2026-04-11T11:18:50.692Z</time></trkpt><trkpt lat="38.3701416" lon="16.1492367"><ele>888.5999999999999</ele><time>2026-04-11T11:18:51.693Z</time></trkpt><trkpt lat="38.3702023" lon="16.1491278"><ele>888.0</ele><time>2026-04-11T11:18:52.692Z</time></trkpt><trkpt lat="38.3702812" lon="16.1490283"><ele>888.5</ele><time>2026-04-11T11:18:53.692Z</time></trkpt><trkpt lat="38.3703859" lon="16.1489292"><ele>889.0</ele><time>2026-04-11T11:18:54.693Z</time></trkpt><trkpt lat="38.370496" lon="16.1488458"><ele>889.5</ele><time>2026-04-11T11:18:55.692Z</time></trkpt><trkpt lat="38.3706037" lon="16.1487801"><ele>890.0</ele><time>2026-04-11T11:18:56.692Z</time></trkpt><trkpt lat="38.3707105" lon="16.1487285"><ele>890.0</ele><time>2026-04-11T11:18:57.692Z</time></trkpt><trkpt lat="38.3708247" lon="16.1486848"><ele>890.0</ele><time>2026-04-11T11:18:58.692Z</time></trkpt><trkpt lat="38.3709437" lon="16.1486477"><ele>890.0</ele><time>2026-04-11T11:18:59.692Z</time></trkpt><trkpt lat="38.3710669" lon="16.1486187"><ele>890.0</ele><time>2026-04-11T11:19:00.693Z</time></trkpt><trkpt lat="38.371182" lon="16.1485946"><ele>890.0</ele><time>2026-04-11T11:19:01.692Z</time></trkpt><trkpt lat="38.3712885" lon="16.1485742"><ele>890.0</ele><time>2026-04-11T11:19:02.693Z</time></trkpt><trkpt lat="38.37139" lon="16.1485681"><ele>890.0</ele><time>2026-04-11T11:19:03.693Z</time></trkpt><trkpt lat="38.3714902" lon="16.1485751"><ele>890.0</ele><time>2026-04-11T11:19:04.692Z</time></trkpt><trkpt lat="38.3715853" lon="16.1486037"><ele>890.0</ele><time>2026-04-11T11:19:05.693Z</time></trkpt><trkpt lat="38.3716791" lon="16.1486535"><ele>890.5</ele><time>2026-04-11T11:19:06.692Z</time></trkpt><trkpt lat="38.3717789" lon="16.1487145"><ele>891.0</ele><time>2026-04-11T11:19:07.692Z</time></trkpt><trkpt lat="38.3718829" lon="16.148796"><ele>891.5</ele><time>2026-04-11T11:19:08.692Z</time></trkpt><trkpt lat="38.3719939" lon="16.1488908"><ele>892.0</ele><time>2026-04-11T11:19:09.693Z</time></trkpt><trkpt lat="38.3721178" lon="16.1489804"><ele>890.4000000000001</ele><time>2026-04-11T11:19:10.692Z</time></trkpt><trkpt lat="38.3722384" lon="16.1490553"><ele>888.8000000000001</ele><time>2026-04-11T11:19:11.692Z</time></trkpt><trkpt lat="38.3723419" lon="16.1491139"><ele>887.2</ele><time>2026-04-11T11:19:12.692Z</time></trkpt><trkpt lat="38.3724299" lon="16.1491634"><ele>885.6</ele><time>2026-04-11T11:19:13.693Z</time></trkpt><trkpt lat="38.3725074" lon="16.1492208"><ele>884.0</ele><time>2026-04-11T11:19:14.692Z</time></trkpt><trkpt lat="38.3725676" lon="16.1492938"><ele>884.0</ele><time>2026-04-11T11:19:15.692Z</time></trkpt><trkpt lat="38.3726133" lon="16.1493821"><ele>884.0000000000001</ele><time>2026-04-11T11:19:16.692Z</time></trkpt><trkpt lat="38.3726401" lon="16.1494839"><ele>884.0000000000001</ele><time>2026-04-11T11:19:17.692Z</time></trkpt><trkpt lat="38.3726503" lon="16.1495964"><ele>884.0</ele><time>2026-04-11T11:19:18.693Z</time></trkpt><trkpt lat="38.372647" lon="16.1497218"><ele>884.0</ele><time>2026-04-11T11:19:19.692Z</time></trkpt><trkpt lat="38.3726514" lon="16.1498484"><ele>884.6</ele><time>2026-04-11T11:19:20.692Z</time></trkpt><trkpt lat="38.3726931" lon="16.1499573"><ele>885.2</ele><time>2026-04-11T11:19:21.692Z</time></trkpt><trkpt lat="38.3727626" lon="16.1500339"><ele>885.8000000000001</ele><time>2026-04-11T11:19:22.692Z</time></trkpt><trkpt lat="38.3728404" lon="16.1500713"><ele>886.4000000000001</ele><time>2026-04-11T11:19:23.692Z</time></trkpt><trkpt lat="38.3729249" lon="16.1500739"><ele>887.0</ele><time>2026-04-11T11:19:24.692Z</time></trkpt><trkpt lat="38.3730245" lon="16.1500278"><ele>887.0</ele><time>2026-04-11T11:19:25.693Z</time></trkpt><trkpt lat="38.3731351" lon="16.149956"><ele>887.0</ele><time>2026-04-11T11:19:26.692Z</time></trkpt><trkpt lat="38.3732535" lon="16.1498779"><ele>887.0</ele><time>2026-04-11T11:19:27.693Z</time></trkpt><trkpt lat="38.3733695" lon="16.1498021"><ele>887.0</ele><time>2026-04-11T11:19:28.693Z</time></trkpt><trkpt lat="38.3734761" lon="16.1497328"><ele>886.6666666666667</ele><time>2026-04-11T11:19:29.692Z</time></trkpt><trkpt lat="38.3735707" lon="16.1496727"><ele>886.3333333333334</ele><time>2026-04-11T11:19:30.692Z</time></trkpt><trkpt lat="38.3736571" lon="16.1496278"><ele>886.0</ele><time>2026-04-11T11:19:31.692Z</time></trkpt><trkpt lat="38.3737372" lon="16.1495894"><ele>885.6666666666667</ele><time>2026-04-11T11:19:32.692Z</time></trkpt><trkpt lat="38.373814" lon="16.1495479"><ele>885.3333333333334</ele><time>2026-04-11T11:19:33.692Z</time></trkpt><trkpt lat="38.3738878" lon="16.1495122"><ele>885.0</ele><time>2026-04-11T11:19:34.693Z</time></trkpt><trkpt lat="38.3739657" lon="16.1494862"><ele>886.3333333333334</ele><time>2026-04-11T11:19:35.692Z</time></trkpt><trkpt lat="38.374046" lon="16.1494786"><ele>887.6666666666667</ele><time>2026-04-11T11:19:36.693Z</time></trkpt><trkpt lat="38.3741231" lon="16.1494928"><ele>889.0</ele><time>2026-04-11T11:19:37.693Z</time></trkpt><trkpt lat="38.3742046" lon="16.1495398"><ele>890.3333333333334</ele><time>2026-04-11T11:19:38.692Z</time></trkpt><trkpt lat="38.374286" lon="16.1496087"><ele>891.6666666666667</ele><time>2026-04-11T11:19:39.692Z</time></trkpt><trkpt lat="38.3743676" lon="16.1496888"><ele>893.0</ele><time>2026-04-11T11:19:40.692Z</time></trkpt><trkpt lat="38.3744511" lon="16.1497804"><ele>893.0000000000001</ele><time>2026-04-11T11:19:41.692Z</time></trkpt><trkpt lat="38.374531" lon="16.149868"><ele>893.0</ele><time>2026-04-11T11:19:42.693Z</time></trkpt><trkpt lat="38.3746005" lon="16.1499436"><ele>893.0</ele><time>2026-04-11T11:19:43.692Z</time></trkpt><trkpt lat="38.3746584" lon="16.150013"><ele>893.0</ele><time>2026-04-11T11:19:44.693Z</time></trkpt><trkpt lat="38.3747042" lon="16.150085"><ele>893.0000000000001</ele><time>2026-04-11T11:19:45.692Z</time></trkpt><trkpt lat="38.3747351" lon="16.1501692"><ele>893.0</ele><time>2026-04-11T11:19:46.692Z</time></trkpt><trkpt lat="38.3747813" lon="16.1502666"><ele>894.1666666666667</ele><time>2026-04-11T11:19:47.692Z</time></trkpt><trkpt lat="38.3748339" lon="16.150371"><ele>895.3333333333334</ele><time>2026-04-11T11:19:48.693Z</time></trkpt><trkpt lat="38.3748849" lon="16.1504588"><ele>896.5</ele><time>2026-04-11T11:19:49.693Z</time></trkpt><trkpt lat="38.3749389" lon="16.1505357"><ele>897.6666666666667</ele><time>2026-04-11T11:19:50.692Z</time></trkpt><trkpt lat="38.3749897" lon="16.1505929"><ele>898.8333333333334</ele><time>2026-04-11T11:19:51.693Z</time></trkpt><trkpt lat="38.3750822" lon="16.1506825"><ele>900.0</ele><time>2026-04-11T11:19:53.692Z</time></trkpt><trkpt lat="38.3751594" lon="16.1508119"><ele>900.0</ele><time>2026-04-11T11:19:55.693Z</time></trkpt><trkpt lat="38.3751936" lon="16.1508991"><ele>900.0</ele><time>2026-04-11T11:19:56.692Z</time></trkpt><trkpt lat="38.3752214" lon="16.1510023"><ele>900.0</ele><time>2026-04-11T11:19:57.692Z</time></trkpt><trkpt lat="38.3752486" lon="16.1511323"><ele>900.0</ele><time>2026-04-11T11:19:58.692Z</time></trkpt><trkpt lat="38.3752747" lon="16.1512723"><ele>900.0</ele><time>2026-04-11T11:19:59.692Z</time></trkpt><trkpt lat="38.3753082" lon="16.1514115"><ele>900.0</ele><time>2026-04-11T11:20:00.692Z</time></trkpt><trkpt lat="38.3753333" lon="16.1515327"><ele>900.0</ele><time>2026-04-11T11:20:01.692Z</time></trkpt><trkpt lat="38.3753458" lon="16.1516424"><ele>900.0</ele><time>2026-04-11T11:20:02.692Z</time></trkpt><trkpt lat="38.3753443" lon="16.1517489"><ele>900.0</ele><time>2026-04-11T11:20:03.692Z</time></trkpt><trkpt lat="38.3753249" lon="16.1518622"><ele>900.0</ele><time>2026-04-11T11:20:04.692Z</time></trkpt><trkpt lat="38.3752841" lon="16.1519617"><ele>900.0</ele><time>2026-04-11T11:20:05.692Z</time></trkpt><trkpt lat="38.3752267" lon="16.1520233"><ele>900.0</ele><time>2026-04-11T11:20:06.692Z</time></trkpt><trkpt lat="38.3751348" lon="16.1520471"><ele>900.0</ele><time>2026-04-11T11:20:07.692Z</time></trkpt><trkpt lat="38.3750258" lon="16.1520492"><ele>900.0</ele><time>2026-04-11T11:20:08.692Z</time></trkpt><trkpt lat="38.3749127" lon="16.152031"><ele>900.0</ele><time>2026-04-11T11:20:09.693Z</time></trkpt><trkpt lat="38.3747971" lon="16.1520145"><ele>900.0</ele><time>2026-04-11T11:20:10.692Z</time></trkpt><trkpt lat="38.3746971" lon="16.1520135"><ele>901.2</ele><time>2026-04-11T11:20:11.693Z</time></trkpt><trkpt lat="38.3746068" lon="16.1520161"><ele>902.4</ele><time>2026-04-11T11:20:12.692Z</time></trkpt><trkpt lat="38.374518" lon="16.1520585"><ele>903.5999999999999</ele><time>2026-04-11T11:20:13.692Z</time></trkpt><trkpt lat="38.3744416" lon="16.152119"><ele>904.8</ele><time>2026-04-11T11:20:14.692Z</time></trkpt><trkpt lat="38.3743803" lon="16.1522109"><ele>906.0</ele><time>2026-04-11T11:20:15.692Z</time></trkpt><trkpt lat="38.3743409" lon="16.1523285"><ele>905.75</ele><time>2026-04-11T11:20:16.692Z</time></trkpt><trkpt lat="38.3743215" lon="16.1524654"><ele>905.5</ele><time>2026-04-11T11:20:17.693Z</time></trkpt><trkpt lat="38.3743197" lon="16.1526085"><ele>905.25</ele><time>2026-04-11T11:20:18.692Z</time></trkpt><trkpt lat="38.3743411" lon="16.1527663"><ele>905.0</ele><time>2026-04-11T11:20:19.692Z</time></trkpt><trkpt lat="38.3743786" lon="16.1529301"><ele>905.0</ele><time>2026-04-11T11:20:20.692Z</time></trkpt><trkpt lat="38.3744281" lon="16.1530856"><ele>905.0</ele><time>2026-04-11T11:20:21.692Z</time></trkpt><trkpt lat="38.3744866" lon="16.1532282"><ele>905.0</ele><time>2026-04-11T11:20:22.693Z</time></trkpt><trkpt lat="38.3745473" lon="16.1533614"><ele>905.0</ele><time>2026-04-11T11:20:23.692Z</time></trkpt><trkpt lat="38.3746095" lon="16.1534814"><ele>903.8</ele><time>2026-04-11T11:20:24.692Z</time></trkpt><trkpt lat="38.3746668" lon="16.1535891"><ele>902.6</ele><time>2026-04-11T11:20:25.692Z</time></trkpt><trkpt lat="38.3747257" lon="16.1536994"><ele>901.4000000000001</ele><time>2026-04-11T11:20:26.693Z</time></trkpt><trkpt lat="38.3747832" lon="16.1538081"><ele>900.2</ele><time>2026-04-11T11:20:27.693Z</time></trkpt><trkpt lat="38.3748494" lon="16.1539125"><ele>899.0</ele><time>2026-04-11T11:20:28.693Z</time></trkpt><trkpt lat="38.3749212" lon="16.1540058"><ele>898.2</ele><time>2026-04-11T11:20:29.692Z</time></trkpt><trkpt lat="38.3749986" lon="16.154091"><ele>897.4000000000001</ele><time>2026-04-11T11:20:30.692Z</time></trkpt><trkpt lat="38.3750825" lon="16.1541744"><ele>896.6</ele><time>2026-04-11T11:20:31.692Z</time></trkpt><trkpt lat="38.3751752" lon="16.1542562"><ele>895.8</ele><time>2026-04-11T11:20:32.692Z</time></trkpt><trkpt lat="38.3752515" lon="16.1543284"><ele>895.0</ele><time>2026-04-11T11:20:33.693Z</time></trkpt><trkpt lat="38.3753021" lon="16.1543951"><ele>895.0</ele><time>2026-04-11T11:20:34.692Z</time></trkpt><trkpt lat="38.3753561" lon="16.1545284"><ele>895.0</ele><time>2026-04-11T11:20:36.693Z</time></trkpt><trkpt lat="38.3753278" lon="16.1546696"><ele>895.0</ele><time>2026-04-11T11:20:38.693Z</time></trkpt><trkpt lat="38.3753011" lon="16.1547436"><ele>895.0</ele><time>2026-04-11T11:20:39.692Z</time></trkpt><trkpt lat="38.375262" lon="16.154873"><ele>895.0</ele><time>2026-04-11T11:20:41.692Z</time></trkpt><trkpt lat="38.3752653" lon="16.1549983"><ele>894.1666666666666</ele><time>2026-04-11T11:20:43.692Z</time></trkpt><trkpt lat="38.375289" lon="16.1550737"><ele>893.3333333333333</ele><time>2026-04-11T11:20:44.692Z</time></trkpt><trkpt lat="38.3753285" lon="16.155157"><ele>892.5</ele><time>2026-04-11T11:20:45.692Z</time></trkpt><trkpt lat="38.3753743" lon="16.1552396"><ele>891.6666666666667</ele><time>2026-04-11T11:20:46.692Z</time></trkpt><trkpt lat="38.3754237" lon="16.1553061"><ele>890.8333333333334</ele><time>2026-04-11T11:20:47.693Z</time></trkpt><trkpt lat="38.3754814" lon="16.1553627"><ele>890.0</ele><time>2026-04-11T11:20:48.692Z</time></trkpt><trkpt lat="38.375571" lon="16.1554252"><ele>890.0000000000001</ele><time>2026-04-11T11:20:50.693Z</time></trkpt><trkpt lat="38.3756842" lon="16.1554333"><ele>890.0</ele><time>2026-04-11T11:20:52.692Z</time></trkpt><trkpt lat="38.3757501" lon="16.1554182"><ele>890.0</ele><time>2026-04-11T11:20:53.692Z</time></trkpt><trkpt lat="38.3758211" lon="16.1554022"><ele>890.0</ele><time>2026-04-11T11:20:54.693Z</time></trkpt><trkpt lat="38.3758932" lon="16.1553901"><ele>890.0000000000001</ele><time>2026-04-11T11:20:55.692Z</time></trkpt><trkpt lat="38.3759689" lon="16.1553965"><ele>890.0</ele><time>2026-04-11T11:20:56.692Z</time></trkpt><trkpt lat="38.3760516" lon="16.1554243"><ele>890.0</ele><time>2026-04-11T11:20:57.692Z</time></trkpt><trkpt lat="38.3761336" lon="16.1554833"><ele>890.0</ele><time>2026-04-11T11:20:58.692Z</time></trkpt><trkpt lat="38.3762142" lon="16.1555609"><ele>890.0</ele><time>2026-04-11T11:20:59.692Z</time></trkpt><trkpt lat="38.3762789" lon="16.1556586"><ele>890.0</ele><time>2026-04-11T11:21:00.692Z</time></trkpt><trkpt lat="38.37633" lon="16.1557706"><ele>890.0</ele><time>2026-04-11T11:21:01.692Z</time></trkpt><trkpt lat="38.3763672" lon="16.1558818"><ele>890.0000000000001</ele><time>2026-04-11T11:21:02.692Z</time></trkpt><trkpt lat="38.3763919" lon="16.1559941"><ele>890.0</ele><time>2026-04-11T11:21:03.692Z</time></trkpt><trkpt lat="38.376406" lon="16.1561008"><ele>890.0</ele><time>2026-04-11T11:21:04.692Z</time></trkpt><trkpt lat="38.3764096" lon="16.1562101"><ele>890.0</ele><time>2026-04-11T11:21:05.693Z</time></trkpt><trkpt lat="38.3763925" lon="16.1563198"><ele>890.0000000000001</ele><time>2026-04-11T11:21:06.692Z</time></trkpt><trkpt lat="38.3763603" lon="16.1564224"><ele>890.0</ele><time>2026-04-11T11:21:07.693Z</time></trkpt><trkpt lat="38.3763119" lon="16.1565229"><ele>892.6</ele><time>2026-04-11T11:21:08.693Z</time></trkpt><trkpt lat="38.3762643" lon="16.1566228"><ele>895.2</ele><time>2026-04-11T11:21:09.692Z</time></trkpt><trkpt lat="38.3762176" lon="16.1567312"><ele>897.8</ele><time>2026-04-11T11:21:10.692Z</time></trkpt><trkpt lat="38.3761756" lon="16.1568468"><ele>900.4</ele><time>2026-04-11T11:21:11.693Z</time></trkpt><trkpt lat="38.3761389" lon="16.1569592"><ele>903.0</ele><time>2026-04-11T11:21:12.692Z</time></trkpt><trkpt lat="38.3761055" lon="16.1570743"><ele>903.0</ele><time>2026-04-11T11:21:13.693Z</time></trkpt><trkpt lat="38.3760747" lon="16.1571904"><ele>903.0</ele><time>2026-04-11T11:21:14.693Z</time></trkpt><trkpt lat="38.3760544" lon="16.1572811"><ele>903.0</ele><time>2026-04-11T11:21:15.693Z</time></trkpt><trkpt lat="38.3760394" lon="16.1573698"><ele>903.0</ele><time>2026-04-11T11:21:17.692Z</time></trkpt><trkpt lat="38.3760146" lon="16.1574639"><ele>903.0</ele><time>2026-04-11T11:21:20.693Z</time></trkpt><trkpt lat="38.3760047" lon="16.157588"><ele>903.0</ele><time>2026-04-11T11:21:22.692Z</time></trkpt><trkpt lat="38.3760201" lon="16.157737"><ele>900.0</ele><time>2026-04-11T11:21:24.693Z</time></trkpt><trkpt lat="38.3760464" lon="16.1578293"><ele>897.0</ele><time>2026-04-11T11:21:25.692Z</time></trkpt><trkpt lat="38.3760869" lon="16.1579315"><ele>894.0</ele><time>2026-04-11T11:21:26.693Z</time></trkpt><trkpt lat="38.3761314" lon="16.1580254"><ele>891.0</ele><time>2026-04-11T11:21:27.692Z</time></trkpt><trkpt lat="38.376175" lon="16.1581048"><ele>888.0</ele><time>2026-04-11T11:21:28.692Z</time></trkpt><trkpt lat="38.3762177" lon="16.1581644"><ele>885.0</ele><time>2026-04-11T11:21:29.692Z</time></trkpt><trkpt lat="38.3763023" lon="16.1582493"><ele>885.0</ele><time>2026-04-11T11:21:31.692Z</time></trkpt><trkpt lat="38.3763611" lon="16.1583062"><ele>885.0</ele><time>2026-04-11T11:21:33.692Z</time></trkpt><trkpt lat="38.3764274" lon="16.1583403"><ele>885.0</ele><time>2026-04-11T11:21:35.693Z</time></trkpt><trkpt lat="38.3765148" lon="16.1583575"><ele>885.0</ele><time>2026-04-11T11:21:37.692Z</time></trkpt><trkpt lat="38.3766011" lon="16.1583522"><ele>885.0</ele><time>2026-04-11T11:21:39.693Z</time></trkpt><trkpt lat="38.3766924" lon="16.1583146"><ele>885.0</ele><time>2026-04-11T11:21:41.692Z</time></trkpt><trkpt lat="38.3767724" lon="16.1582715"><ele>885.0</ele><time>2026-04-11T11:21:43.693Z</time></trkpt><trkpt lat="38.3768562" lon="16.1582481"><ele>885.0</ele><time>2026-04-11T11:21:45.693Z</time></trkpt><trkpt lat="38.3769284" lon="16.1582308"><ele>885.0</ele><time>2026-04-11T11:21:47.692Z</time></trkpt><trkpt lat="38.3769966" lon="16.1582159"><ele>885.0</ele><time>2026-04-11T11:21:49.692Z</time></trkpt><trkpt lat="38.3770908" lon="16.1582075"><ele>885.0</ele><time>2026-04-11T11:21:52.693Z</time></trkpt><trkpt lat="38.3771591" lon="16.1582075"><ele>885.0</ele><time>2026-04-11T11:21:54.692Z</time></trkpt><trkpt lat="38.377236" lon="16.158211"><ele>886.0</ele><time>2026-04-11T11:21:56.693Z</time></trkpt><trkpt lat="38.3773208" lon="16.1582156"><ele>887.0</ele><time>2026-04-11T11:21:58.693Z</time></trkpt><trkpt lat="38.3774013" lon="16.1582427"><ele>888.0</ele><time>2026-04-11T11:22:00.692Z</time></trkpt><trkpt lat="38.3774779" lon="16.1582831"><ele>889.0</ele><time>2026-04-11T11:22:02.693Z</time></trkpt><trkpt lat="38.3775612" lon="16.15834"><ele>890.0</ele><time>2026-04-11T11:22:04.692Z</time></trkpt><trkpt lat="38.3776325" lon="16.1583906"><ele>891.0</ele><time>2026-04-11T11:22:06.692Z</time></trkpt><trkpt lat="38.3777061" lon="16.1584628"><ele>891.0</ele><time>2026-04-11T11:22:08.692Z</time></trkpt><trkpt lat="38.3777771" lon="16.1585492"><ele>890.9999999999999</ele><time>2026-04-11T11:22:10.693Z</time></trkpt><trkpt lat="38.3778429" lon="16.1586491"><ele>890.9999999999999</ele><time>2026-04-11T11:22:12.692Z</time></trkpt><trkpt lat="38.3779134" lon="16.1587512"><ele>891.0</ele><time>2026-04-11T11:22:14.692Z</time></trkpt><trkpt lat="38.3779856" lon="16.1588357"><ele>891.0</ele><time>2026-04-11T11:22:16.692Z</time></trkpt><trkpt lat="38.3780699" lon="16.1588776"><ele>890.0</ele><time>2026-04-11T11:22:18.692Z</time></trkpt><trkpt lat="38.3781601" lon="16.1588792"><ele>888.9999999999999</ele><time>2026-04-11T11:22:20.692Z</time></trkpt><trkpt lat="38.3782592" lon="16.1588594"><ele>887.9999999999999</ele><time>2026-04-11T11:22:22.692Z</time></trkpt><trkpt lat="38.378361" lon="16.1588169"><ele>887.0</ele><time>2026-04-11T11:22:24.693Z</time></trkpt><trkpt lat="38.3784756" lon="16.1587754"><ele>886.0</ele><time>2026-04-11T11:22:26.692Z</time></trkpt><trkpt lat="38.3785413" lon="16.1587568"><ele>886.0</ele><time>2026-04-11T11:22:27.692Z</time></trkpt><trkpt lat="38.3786523" lon="16.1587201"><ele>885.9999999999999</ele><time>2026-04-11T11:22:29.692Z</time></trkpt><trkpt lat="38.3787627" lon="16.1586623"><ele>885.9999999999999</ele><time>2026-04-11T11:22:31.692Z</time></trkpt><trkpt lat="38.3788273" lon="16.1586085"><ele>886.0</ele><time>2026-04-11T11:22:32.693Z</time></trkpt><trkpt lat="38.378891" lon="16.1585376"><ele>886.0</ele><time>2026-04-11T11:22:33.692Z</time></trkpt><trkpt lat="38.3789443" lon="16.1584716"><ele>886.1666666666666</ele><time>2026-04-11T11:22:34.692Z</time></trkpt><trkpt lat="38.3789948" lon="16.1584164"><ele>886.3333333333333</ele><time>2026-04-11T11:22:35.692Z</time></trkpt><trkpt lat="38.3791002" lon="16.1583663"><ele>886.5</ele><time>2026-04-11T11:22:37.692Z</time></trkpt><trkpt lat="38.3792195" lon="16.1583857"><ele>886.6666666666667</ele><time>2026-04-11T11:22:39.693Z</time></trkpt><trkpt lat="38.3792742" lon="16.1584275"><ele>886.8333333333334</ele><time>2026-04-11T11:22:40.693Z</time></trkpt><trkpt lat="38.3793243" lon="16.1584932"><ele>887.0</ele><time>2026-04-11T11:22:41.692Z</time></trkpt><trkpt lat="38.3793711" lon="16.1585769"><ele>886.9999999999999</ele><time>2026-04-11T11:22:42.693Z</time></trkpt><trkpt lat="38.3794138" lon="16.1586671"><ele>887.0</ele><time>2026-04-11T11:22:43.692Z</time></trkpt><trkpt lat="38.3794582" lon="16.1587564"><ele>887.0</ele><time>2026-04-11T11:22:44.692Z</time></trkpt><trkpt lat="38.3795027" lon="16.158833"><ele>887.0</ele><time>2026-04-11T11:22:45.693Z</time></trkpt><trkpt lat="38.3795535" lon="16.1588887"><ele>887.0</ele><time>2026-04-11T11:22:46.692Z</time></trkpt><trkpt lat="38.3796106" lon="16.1589293"><ele>886.9999999999999</ele><time>2026-04-11T11:22:47.693Z</time></trkpt><trkpt lat="38.3796732" lon="16.1589559"><ele>887.0</ele><time>2026-04-11T11:22:48.693Z</time></trkpt><trkpt lat="38.379736" lon="16.158969"><ele>887.3333333333334</ele><time>2026-04-11T11:22:49.693Z</time></trkpt><trkpt lat="38.3798708" lon="16.1589479"><ele>887.6666666666667</ele><time>2026-04-11T11:22:51.693Z</time></trkpt><trkpt lat="38.3799393" lon="16.1589126"><ele>888.0</ele><time>2026-04-11T11:22:52.693Z</time></trkpt><trkpt lat="38.3799977" lon="16.1588597"><ele>888.3333333333333</ele><time>2026-04-11T11:22:53.692Z</time></trkpt><trkpt lat="38.3800529" lon="16.1587973"><ele>888.6666666666666</ele><time>2026-04-11T11:22:54.692Z</time></trkpt><trkpt lat="38.3801064" lon="16.1587364"><ele>889.0</ele><time>2026-04-11T11:22:55.693Z</time></trkpt><trkpt lat="38.3801574" lon="16.1586642"><ele>888.9999999999999</ele><time>2026-04-11T11:22:56.693Z</time></trkpt><trkpt lat="38.3802016" lon="16.158583"><ele>889.0</ele><time>2026-04-11T11:22:57.693Z</time></trkpt><trkpt lat="38.3802425" lon="16.1584947"><ele>889.0</ele><time>2026-04-11T11:22:58.692Z</time></trkpt><trkpt lat="38.3802809" lon="16.1584161"><ele>889.0</ele><time>2026-04-11T11:22:59.692Z</time></trkpt><trkpt lat="38.3803574" lon="16.1583214"><ele>888.9999999999999</ele><time>2026-04-11T11:23:01.692Z</time></trkpt><trkpt lat="38.3804138" lon="16.1582855"><ele>889.0</ele><time>2026-04-11T11:23:02.692Z</time></trkpt><trkpt lat="38.3804812" lon="16.1582621"><ele>890.6666666666666</ele><time>2026-04-11T11:23:03.692Z</time></trkpt><trkpt lat="38.3805579" lon="16.1582535"><ele>892.3333333333333</ele><time>2026-04-11T11:23:04.692Z</time></trkpt><trkpt lat="38.380646" lon="16.1582577"><ele>894.0</ele><time>2026-04-11T11:23:05.693Z</time></trkpt><trkpt lat="38.3807357" lon="16.1582681"><ele>895.6666666666667</ele><time>2026-04-11T11:23:06.692Z</time></trkpt><trkpt lat="38.3808291" lon="16.1582765"><ele>897.3333333333334</ele><time>2026-04-11T11:23:07.692Z</time></trkpt><trkpt lat="38.3809069" lon="16.1582787"><ele>899.0</ele><time>2026-04-11T11:23:08.692Z</time></trkpt><trkpt lat="38.3809709" lon="16.158279"><ele>899.0</ele><time>2026-04-11T11:23:09.692Z</time></trkpt><trkpt lat="38.3810724" lon="16.1582778"><ele>899.0000000000001</ele><time>2026-04-11T11:23:11.693Z</time></trkpt><trkpt lat="38.3811957" lon="16.158289"><ele>899.0000000000001</ele><time>2026-04-11T11:23:13.692Z</time></trkpt><trkpt lat="38.3812776" lon="16.1583068"><ele>899.0</ele><time>2026-04-11T11:23:14.692Z</time></trkpt><trkpt lat="38.3813651" lon="16.1583315"><ele>899.0</ele><time>2026-04-11T11:23:15.693Z</time></trkpt><trkpt lat="38.3814462" lon="16.1583815"><ele>896.6666666666667</ele><time>2026-04-11T11:23:16.693Z</time></trkpt><trkpt lat="38.3815161" lon="16.1584476"><ele>894.3333333333334</ele><time>2026-04-11T11:23:17.693Z</time></trkpt><trkpt lat="38.3815615" lon="16.1585255"><ele>892.0</ele><time>2026-04-11T11:23:18.692Z</time></trkpt><trkpt lat="38.3815924" lon="16.1586148"><ele>889.6666666666667</ele><time>2026-04-11T11:23:19.693Z</time></trkpt><trkpt lat="38.3816074" lon="16.1587079"><ele>887.3333333333334</ele><time>2026-04-11T11:23:20.693Z</time></trkpt><trkpt lat="38.381606" lon="16.1588144"><ele>885.0</ele><time>2026-04-11T11:23:21.692Z</time></trkpt><trkpt lat="38.3815981" lon="16.1589347"><ele>886.0</ele><time>2026-04-11T11:23:22.693Z</time></trkpt><trkpt lat="38.3815843" lon="16.1590599"><ele>887.0</ele><time>2026-04-11T11:23:23.692Z</time></trkpt><trkpt lat="38.3815583" lon="16.1591888"><ele>888.0</ele><time>2026-04-11T11:23:24.692Z</time></trkpt><trkpt lat="38.3815202" lon="16.1593049"><ele>889.0</ele><time>2026-04-11T11:23:25.692Z</time></trkpt><trkpt lat="38.3814739" lon="16.1594067"><ele>890.0</ele><time>2026-04-11T11:23:26.692Z</time></trkpt><trkpt lat="38.3814268" lon="16.1594995"><ele>890.0000000000001</ele><time>2026-04-11T11:23:27.693Z</time></trkpt><trkpt lat="38.3813785" lon="16.1595917"><ele>890.0</ele><time>2026-04-11T11:23:28.692Z</time></trkpt><trkpt lat="38.381336" lon="16.1596826"><ele>890.0</ele><time>2026-04-11T11:23:29.693Z</time></trkpt><trkpt lat="38.3813036" lon="16.1597784"><ele>890.0</ele><time>2026-04-11T11:23:30.692Z</time></trkpt><trkpt lat="38.3812767" lon="16.1598769"><ele>890.0000000000001</ele><time>2026-04-11T11:23:31.693Z</time></trkpt><trkpt lat="38.381259" lon="16.1599813"><ele>890.0</ele><time>2026-04-11T11:23:32.692Z</time></trkpt><trkpt lat="38.3812496" lon="16.1600892"><ele>891.6666666666667</ele><time>2026-04-11T11:23:33.693Z</time></trkpt><trkpt lat="38.3812491" lon="16.1601978"><ele>893.3333333333334</ele><time>2026-04-11T11:23:34.692Z</time></trkpt><trkpt lat="38.381256" lon="16.1603127"><ele>895.0</ele><time>2026-04-11T11:23:35.692Z</time></trkpt><trkpt lat="38.3812724" lon="16.1604268"><ele>896.6666666666667</ele><time>2026-04-11T11:23:36.692Z</time></trkpt><trkpt lat="38.3812964" lon="16.1605389"><ele>898.3333333333334</ele><time>2026-04-11T11:23:37.693Z</time></trkpt><trkpt lat="38.3813354" lon="16.1606441"><ele>900.0</ele><time>2026-04-11T11:23:38.693Z</time></trkpt><trkpt lat="38.3813829" lon="16.1607373"><ele>900.0</ele><time>2026-04-11T11:23:39.692Z</time></trkpt><trkpt lat="38.3814425" lon="16.1608154"><ele>900.0</ele><time>2026-04-11T11:23:40.692Z</time></trkpt><trkpt lat="38.3815091" lon="16.1608696"><ele>900.0</ele><time>2026-04-11T11:23:41.692Z</time></trkpt><trkpt lat="38.381579" lon="16.1609061"><ele>900.0</ele><time>2026-04-11T11:23:42.693Z</time></trkpt><trkpt lat="38.3816472" lon="16.1609174"><ele>900.0</ele><time>2026-04-11T11:23:43.692Z</time></trkpt><trkpt lat="38.3817167" lon="16.1609214"><ele>900.0</ele><time>2026-04-11T11:23:44.692Z</time></trkpt><trkpt lat="38.3817914" lon="16.1609279"><ele>900.0</ele><time>2026-04-11T11:23:45.693Z</time></trkpt><trkpt lat="38.3818743" lon="16.1609367"><ele>900.0</ele><time>2026-04-11T11:23:46.692Z</time></trkpt><trkpt lat="38.3819599" lon="16.1609511"><ele>900.0</ele><time>2026-04-11T11:23:47.692Z</time></trkpt><trkpt lat="38.382051" lon="16.1609673"><ele>900.0</ele><time>2026-04-11T11:23:48.693Z</time></trkpt><trkpt lat="38.3821417" lon="16.1609837"><ele>900.0</ele><time>2026-04-11T11:23:49.693Z</time></trkpt><trkpt lat="38.3822293" lon="16.1609987"><ele>900.0</ele><time>2026-04-11T11:23:50.693Z</time></trkpt><trkpt lat="38.382315" lon="16.1610064"><ele>899.1666666666666</ele><time>2026-04-11T11:23:51.693Z</time></trkpt><trkpt lat="38.3824011" lon="16.1610058"><ele>898.3333333333333</ele><time>2026-04-11T11:23:52.692Z</time></trkpt><trkpt lat="38.3824827" lon="16.1610048"><ele>897.5</ele><time>2026-04-11T11:23:53.693Z</time></trkpt><trkpt lat="38.3825708" lon="16.161003"><ele>896.6666666666666</ele><time>2026-04-11T11:23:54.693Z</time></trkpt><trkpt lat="38.3826632" lon="16.161001"><ele>895.8333333333333</ele><time>2026-04-11T11:23:55.692Z</time></trkpt><trkpt lat="38.3827555" lon="16.1610019"><ele>895.0</ele><time>2026-04-11T11:23:56.692Z</time></trkpt><trkpt lat="38.3828499" lon="16.1610008"><ele>895.0</ele><time>2026-04-11T11:23:57.692Z</time></trkpt><trkpt lat="38.3829422" lon="16.1610005"><ele>895.0</ele><time>2026-04-11T11:23:58.693Z</time></trkpt><trkpt lat="38.3830317" lon="16.161011"><ele>895.0</ele><time>2026-04-11T11:23:59.692Z</time></trkpt><trkpt lat="38.3831205" lon="16.1610415"><ele>895.0</ele><time>2026-04-11T11:24:00.693Z</time></trkpt><trkpt lat="38.3832047" lon="16.1610891"><ele>895.0</ele><time>2026-04-11T11:24:01.692Z</time></trkpt><trkpt lat="38.383281" lon="16.1611523"><ele>894.9999999999999</ele><time>2026-04-11T11:24:02.693Z</time></trkpt><trkpt lat="38.3833415" lon="16.161229"><ele>895.0</ele><time>2026-04-11T11:24:03.692Z</time></trkpt><trkpt lat="38.3833891" lon="16.1613109"><ele>895.0</ele><time>2026-04-11T11:24:04.693Z</time></trkpt><trkpt lat="38.383423" lon="16.1614059"><ele>895.0</ele><time>2026-04-11T11:24:05.692Z</time></trkpt><trkpt lat="38.3834489" lon="16.1615164"><ele>894.9999999999999</ele><time>2026-04-11T11:24:06.692Z</time></trkpt><trkpt lat="38.3834795" lon="16.1616147"><ele>895.0</ele><time>2026-04-11T11:24:07.692Z</time></trkpt><trkpt lat="38.383514" lon="16.161708"><ele>897.1666666666666</ele><time>2026-04-11T11:24:08.693Z</time></trkpt><trkpt lat="38.3835508" lon="16.1618034"><ele>899.3333333333333</ele><time>2026-04-11T11:24:09.692Z</time></trkpt><trkpt lat="38.3835872" lon="16.1619043"><ele>901.5</ele><time>2026-04-11T11:24:10.692Z</time></trkpt><trkpt lat="38.3836348" lon="16.1620029"><ele>903.6666666666667</ele><time>2026-04-11T11:24:11.692Z</time></trkpt><trkpt lat="38.3836796" lon="16.162099"><ele>905.8333333333334</ele><time>2026-04-11T11:24:12.692Z</time></trkpt><trkpt lat="38.3837207" lon="16.1621971"><ele>908.0</ele><time>2026-04-11T11:24:13.693Z</time></trkpt><trkpt lat="38.3837522" lon="16.1623009"><ele>908.6666666666667</ele><time>2026-04-11T11:24:14.693Z</time></trkpt><trkpt lat="38.3837728" lon="16.1624087"><ele>909.3333333333334</ele><time>2026-04-11T11:24:15.693Z</time></trkpt><trkpt lat="38.3837824" lon="16.1625198"><ele>910.0</ele><time>2026-04-11T11:24:16.692Z</time></trkpt><trkpt lat="38.3837869" lon="16.162628"><ele>910.6666666666667</ele><time>2026-04-11T11:24:17.692Z</time></trkpt><trkpt lat="38.383796" lon="16.1627341"><ele>911.3333333333334</ele><time>2026-04-11T11:24:18.693Z</time></trkpt><trkpt lat="38.3838087" lon="16.1628391"><ele>912.0</ele><time>2026-04-11T11:24:19.692Z</time></trkpt><trkpt lat="38.3838314" lon="16.1629428"><ele>907.6</ele><time>2026-04-11T11:24:20.693Z</time></trkpt><trkpt lat="38.3838621" lon="16.1630488"><ele>903.2</ele><time>2026-04-11T11:24:21.692Z</time></trkpt><trkpt lat="38.3838929" lon="16.1631557"><ele>898.8</ele><time>2026-04-11T11:24:22.693Z</time></trkpt><trkpt lat="38.3839205" lon="16.1632666"><ele>894.4</ele><time>2026-04-11T11:24:23.692Z</time></trkpt><trkpt lat="38.3839479" lon="16.1633813"><ele>890.0</ele><time>2026-04-11T11:24:24.693Z</time></trkpt><trkpt lat="38.383968" lon="16.1634993"><ele>890.0</ele><time>2026-04-11T11:24:25.692Z</time></trkpt><trkpt lat="38.383968" lon="16.1636195"><ele>890.0</ele><time>2026-04-11T11:24:26.693Z</time></trkpt><trkpt lat="38.3839619" lon="16.1637508"><ele>890.0</ele><time>2026-04-11T11:24:27.693Z</time></trkpt><trkpt lat="38.3839568" lon="16.1638835"><ele>890.0</ele><time>2026-04-11T11:24:28.693Z</time></trkpt><trkpt lat="38.3839557" lon="16.1640136"><ele>890.0</ele><time>2026-04-11T11:24:29.693Z</time></trkpt><trkpt lat="38.3839641" lon="16.1641435"><ele>888.8</ele><time>2026-04-11T11:24:30.692Z</time></trkpt><trkpt lat="38.3839876" lon="16.1642732"><ele>887.6</ele><time>2026-04-11T11:24:31.692Z</time></trkpt><trkpt lat="38.3840183" lon="16.1643943"><ele>886.4000000000001</ele><time>2026-04-11T11:24:32.693Z</time></trkpt><trkpt lat="38.3840346" lon="16.1645161"><ele>885.2</ele><time>2026-04-11T11:24:33.693Z</time></trkpt><trkpt lat="38.384025" lon="16.1646383"><ele>884.0</ele><time>2026-04-11T11:24:34.693Z</time></trkpt><trkpt lat="38.3840019" lon="16.1647492"><ele>884.0000000000001</ele><time>2026-04-11T11:24:35.692Z</time></trkpt><trkpt lat="38.3839674" lon="16.1648493"><ele>884.0</ele><time>2026-04-11T11:24:36.692Z</time></trkpt><trkpt lat="38.3839456" lon="16.1649449"><ele>884.0</ele><time>2026-04-11T11:24:37.692Z</time></trkpt><trkpt lat="38.3839397" lon="16.1650348"><ele>884.0</ele><time>2026-04-11T11:24:38.693Z</time></trkpt><trkpt lat="38.3839609" lon="16.1651219"><ele>884.0000000000001</ele><time>2026-04-11T11:24:39.693Z</time></trkpt><trkpt lat="38.3840022" lon="16.1652208"><ele>884.0</ele><time>2026-04-11T11:24:40.693Z</time></trkpt><trkpt lat="38.384061" lon="16.1653152"><ele>884.5</ele><time>2026-04-11T11:24:41.692Z</time></trkpt><trkpt lat="38.3841402" lon="16.1654069"><ele>885.0</ele><time>2026-04-11T11:24:42.692Z</time></trkpt><trkpt lat="38.3842357" lon="16.1654988"><ele>885.5</ele><time>2026-04-11T11:24:43.693Z</time></trkpt><trkpt lat="38.3843281" lon="16.1656004"><ele>886.0</ele><time>2026-04-11T11:24:44.693Z</time></trkpt><trkpt lat="38.3844047" lon="16.1657068"><ele>886.0</ele><time>2026-04-11T11:24:45.692Z</time></trkpt><trkpt lat="38.384469" lon="16.1658285"><ele>886.0</ele><time>2026-04-11T11:24:46.693Z</time></trkpt><trkpt lat="38.3845264" lon="16.1659529"><ele>886.0</ele><time>2026-04-11T11:24:47.692Z</time></trkpt><trkpt lat="38.3845439" lon="16.1661036"><ele>886.0</ele><time>2026-04-11T11:24:48.692Z</time></trkpt><trkpt lat="38.3845591" lon="16.1662442"><ele>886.0</ele><time>2026-04-11T11:24:49.693Z</time></trkpt><trkpt lat="38.3845535" lon="16.166386"><ele>886.0</ele><time>2026-04-11T11:24:50.692Z</time></trkpt><trkpt lat="38.3845324" lon="16.1665336"><ele>886.0</ele><time>2026-04-11T11:24:51.693Z</time></trkpt><trkpt lat="38.3844928" lon="16.1666737"><ele>886.0</ele><time>2026-04-11T11:24:52.692Z</time></trkpt><trkpt lat="38.3844427" lon="16.1668157"><ele>884.5</ele><time>2026-04-11T11:24:53.692Z</time></trkpt><trkpt lat="38.3843762" lon="16.166947"><ele>883.0</ele><time>2026-04-11T11:24:54.692Z</time></trkpt><trkpt lat="38.3842993" lon="16.1670516"><ele>881.5</ele><time>2026-04-11T11:24:55.693Z</time></trkpt><trkpt lat="38.3841989" lon="16.1671258"><ele>880.0</ele><time>2026-04-11T11:24:56.692Z</time></trkpt><trkpt lat="38.3840801" lon="16.167171"><ele>880.0</ele><time>2026-04-11T11:24:57.692Z</time></trkpt><trkpt lat="38.3839633" lon="16.1672068"><ele>880.0</ele><time>2026-04-11T11:24:58.692Z</time></trkpt><trkpt lat="38.3838581" lon="16.167253"><ele>880.0</ele><time>2026-04-11T11:24:59.692Z</time></trkpt><trkpt lat="38.3837734" lon="16.1673159"><ele>880.0</ele><time>2026-04-11T11:25:00.693Z</time></trkpt><trkpt lat="38.3837103" lon="16.1674008"><ele>880.0</ele><time>2026-04-11T11:25:01.693Z</time></trkpt><trkpt lat="38.383668" lon="16.1675136"><ele>878.25</ele><time>2026-04-11T11:25:02.692Z</time></trkpt><trkpt lat="38.3836365" lon="16.1676463"><ele>876.5</ele><time>2026-04-11T11:25:03.692Z</time></trkpt><trkpt lat="38.383617" lon="16.1677936"><ele>874.75</ele><time>2026-04-11T11:25:04.693Z</time></trkpt><trkpt lat="38.383586" lon="16.1679468"><ele>873.0</ele><time>2026-04-11T11:25:05.692Z</time></trkpt><trkpt lat="38.3835404" lon="16.1680868"><ele>868.0</ele><time>2026-04-11T11:25:06.692Z</time></trkpt><trkpt lat="38.3834876" lon="16.1682042"><ele>863.0</ele><time>2026-04-11T11:25:07.693Z</time></trkpt><trkpt lat="38.3834229" lon="16.1682898"><ele>858.0</ele><time>2026-04-11T11:25:08.692Z</time></trkpt><trkpt lat="38.3833546" lon="16.1683518"><ele>853.0</ele><time>2026-04-11T11:25:09.692Z</time></trkpt><trkpt lat="38.3833035" lon="16.1684073"><ele>848.0</ele><time>2026-04-11T11:25:10.692Z</time></trkpt><trkpt lat="38.3833019" lon="16.1685194"><ele>843.0</ele><time>2026-04-11T11:25:12.692Z</time></trkpt><trkpt lat="38.3834139" lon="16.1685211"><ele>843.0</ele><time>2026-04-11T11:25:14.692Z</time></trkpt><trkpt lat="38.3835118" lon="16.1684466"><ele>843.0</ele><time>2026-04-11T11:25:16.692Z</time></trkpt><trkpt lat="38.3835843" lon="16.1683574"><ele>843.0</ele><time>2026-04-11T11:25:18.692Z</time></trkpt><trkpt lat="38.3836633" lon="16.1682453"><ele>843.0</ele><time>2026-04-11T11:25:20.693Z</time></trkpt><trkpt lat="38.3837072" lon="16.1681753"><ele>843.0</ele><time>2026-04-11T11:25:21.692Z</time></trkpt><trkpt lat="38.3837532" lon="16.1680952"><ele>844.5</ele><time>2026-04-11T11:25:22.692Z</time></trkpt><trkpt lat="38.383802" lon="16.1680025"><ele>846.0</ele><time>2026-04-11T11:25:23.693Z</time></trkpt><trkpt lat="38.3838599" lon="16.1679076"><ele>847.5</ele><time>2026-04-11T11:25:24.692Z</time></trkpt><trkpt lat="38.3839201" lon="16.1678198"><ele>849.0</ele><time>2026-04-11T11:25:25.692Z</time></trkpt><trkpt lat="38.3839711" lon="16.1677418"><ele>850.5</ele><time>2026-04-11T11:25:26.692Z</time></trkpt><trkpt lat="38.3840232" lon="16.167679"><ele>852.0</ele><time>2026-04-11T11:25:27.692Z</time></trkpt><trkpt lat="38.3840829" lon="16.1676294"><ele>852.0</ele><time>2026-04-11T11:25:28.693Z</time></trkpt><trkpt lat="38.3841511" lon="16.1675932"><ele>852.0</ele><time>2026-04-11T11:25:29.692Z</time></trkpt><trkpt lat="38.3842238" lon="16.1675619"><ele>852.0</ele><time>2026-04-11T11:25:30.692Z</time></trkpt><trkpt lat="38.3843082" lon="16.1675358"><ele>852.0</ele><time>2026-04-11T11:25:31.693Z</time></trkpt><trkpt lat="38.3843984" lon="16.1675078"><ele>852.0</ele><time>2026-04-11T11:25:32.692Z</time></trkpt><trkpt lat="38.384503" lon="16.1674805"><ele>852.0</ele><time>2026-04-11T11:25:33.692Z</time></trkpt><trkpt lat="38.3846039" lon="16.1674463"><ele>851.4000000000001</ele><time>2026-04-11T11:25:34.693Z</time></trkpt><trkpt lat="38.3847066" lon="16.1674013"><ele>850.8000000000001</ele><time>2026-04-11T11:25:35.692Z</time></trkpt><trkpt lat="38.3847972" lon="16.1673448"><ele>850.2</ele><time>2026-04-11T11:25:36.692Z</time></trkpt><trkpt lat="38.3848801" lon="16.1672714"><ele>849.6</ele><time>2026-04-11T11:25:37.693Z</time></trkpt><trkpt lat="38.3849543" lon="16.1671743"><ele>849.0</ele><time>2026-04-11T11:25:38.692Z</time></trkpt><trkpt lat="38.3850206" lon="16.167063"><ele>849.0</ele><time>2026-04-11T11:25:39.692Z</time></trkpt><trkpt lat="38.3850773" lon="16.1669393"><ele>849.0</ele><time>2026-04-11T11:25:40.692Z</time></trkpt><trkpt lat="38.385118" lon="16.1668249"><ele>849.0</ele><time>2026-04-11T11:25:41.692Z</time></trkpt><trkpt lat="38.3851553" lon="16.1667317"><ele>849.0</ele><time>2026-04-11T11:25:42.692Z</time></trkpt><trkpt lat="38.3852272" lon="16.1666568"><ele>849.0</ele><time>2026-04-11T11:25:44.693Z</time></trkpt><trkpt lat="38.3852764" lon="16.1667168"><ele>849.0</ele><time>2026-04-11T11:25:46.692Z</time></trkpt><trkpt lat="38.3852664" lon="16.1668688"><ele>849.0</ele><time>2026-04-11T11:25:48.693Z</time></trkpt><trkpt lat="38.3852387" lon="16.1669556"><ele>849.0</ele><time>2026-04-11T11:25:49.693Z</time></trkpt><trkpt lat="38.3852044" lon="16.1670612"><ele>849.0</ele><time>2026-04-11T11:25:50.692Z</time></trkpt><trkpt lat="38.3851616" lon="16.167175"><ele>849.0</ele><time>2026-04-11T11:25:51.692Z</time></trkpt><trkpt lat="38.3851112" lon="16.167276"><ele>846.2</ele><time>2026-04-11T11:25:52.693Z</time></trkpt><trkpt lat="38.3850442" lon="16.167365"><ele>843.4000000000001</ele><time>2026-04-11T11:25:53.692Z</time></trkpt><trkpt lat="38.3849649" lon="16.1674501"><ele>840.6</ele><time>2026-04-11T11:25:54.692Z</time></trkpt><trkpt lat="38.3848695" lon="16.1675223"><ele>837.8</ele><time>2026-04-11T11:25:55.692Z</time></trkpt><trkpt lat="38.3847701" lon="16.1676078"><ele>835.0</ele><time>2026-04-11T11:25:56.693Z</time></trkpt><trkpt lat="38.3846811" lon="16.1676953"><ele>837.8333333333333</ele><time>2026-04-11T11:25:57.692Z</time></trkpt><trkpt lat="38.3845996" lon="16.1677705"><ele>840.6666666666666</ele><time>2026-04-11T11:25:58.692Z</time></trkpt><trkpt lat="38.3845235" lon="16.1678447"><ele>843.5</ele><time>2026-04-11T11:25:59.692Z</time></trkpt><trkpt lat="38.3844547" lon="16.1679184"><ele>846.3333333333333</ele><time>2026-04-11T11:26:00.693Z</time></trkpt><trkpt lat="38.3844003" lon="16.1679814"><ele>849.1666666666666</ele><time>2026-04-11T11:26:01.692Z</time></trkpt><trkpt lat="38.3843578" lon="16.1680419"><ele>852.0</ele><time>2026-04-11T11:26:02.692Z</time></trkpt><trkpt lat="38.3843279" lon="16.168118"><ele>848.4000000000001</ele><time>2026-04-11T11:26:03.693Z</time></trkpt><trkpt lat="38.3843082" lon="16.1682048"><ele>844.8000000000001</ele><time>2026-04-11T11:26:04.693Z</time></trkpt><trkpt lat="38.3843055" lon="16.1683125"><ele>841.2</ele><time>2026-04-11T11:26:05.693Z</time></trkpt><trkpt lat="38.3843146" lon="16.168435"><ele>837.6</ele><time>2026-04-11T11:26:06.692Z</time></trkpt><trkpt lat="38.384342" lon="16.1685881"><ele>834.0</ele><time>2026-04-11T11:26:07.692Z</time></trkpt><trkpt lat="38.3843789" lon="16.1687898"><ele>834.0</ele><time>2026-04-11T11:26:08.692Z</time></trkpt><trkpt lat="38.3844018" lon="16.1689833"><ele>834.0</ele><time>2026-04-11T11:26:09.692Z</time></trkpt><trkpt lat="38.3844278" lon="16.1691613"><ele>834.0</ele><time>2026-04-11T11:26:10.692Z</time></trkpt><trkpt lat="38.3844626" lon="16.1693656"><ele>829.3333333333333</ele><time>2026-04-11T11:26:11.693Z</time></trkpt><trkpt lat="38.384492" lon="16.1695651"><ele>824.6666666666666</ele><time>2026-04-11T11:26:12.693Z</time></trkpt><trkpt lat="38.3845162" lon="16.1697537"><ele>820.0</ele><time>2026-04-11T11:26:13.692Z</time></trkpt><trkpt lat="38.3845441" lon="16.1699573"><ele>814.0</ele><time>2026-04-11T11:26:14.693Z</time></trkpt><trkpt lat="38.3845816" lon="16.170151"><ele>808.0</ele><time>2026-04-11T11:26:15.692Z</time></trkpt><trkpt lat="38.3846116" lon="16.1703372"><ele>802.0</ele><time>2026-04-11T11:26:16.692Z</time></trkpt><trkpt lat="38.3846341" lon="16.170524"><ele>799.0</ele><time>2026-04-11T11:26:17.692Z</time></trkpt><trkpt lat="38.3846571" lon="16.17071"><ele>796.0</ele><time>2026-04-11T11:26:18.692Z</time></trkpt><trkpt lat="38.384683" lon="16.1708982"><ele>793.0</ele><time>2026-04-11T11:26:19.692Z</time></trkpt><trkpt lat="38.3847086" lon="16.1710915"><ele>793.0</ele><time>2026-04-11T11:26:20.692Z</time></trkpt><trkpt lat="38.384736" lon="16.1712854"><ele>793.0</ele><time>2026-04-11T11:26:21.692Z</time></trkpt><trkpt lat="38.3847657" lon="16.1714884"><ele>793.0</ele><time>2026-04-11T11:26:22.693Z</time></trkpt><trkpt lat="38.3847955" lon="16.1716939"><ele>793.0</ele><time>2026-04-11T11:26:23.693Z</time></trkpt><trkpt lat="38.384827" lon="16.1718985"><ele>793.0</ele><time>2026-04-11T11:26:24.692Z</time></trkpt><trkpt lat="38.3848573" lon="16.1720978"><ele>793.0</ele><time>2026-04-11T11:26:25.692Z</time></trkpt><trkpt lat="38.3848947" lon="16.1722857"><ele>791.75</ele><time>2026-04-11T11:26:26.693Z</time></trkpt><trkpt lat="38.3849178" lon="16.1724617"><ele>790.5</ele><time>2026-04-11T11:26:27.693Z</time></trkpt><trkpt lat="38.3849432" lon="16.1726435"><ele>789.25</ele><time>2026-04-11T11:26:28.692Z</time></trkpt><trkpt lat="38.3849721" lon="16.1728399"><ele>788.0</ele><time>2026-04-11T11:26:29.693Z</time></trkpt><trkpt lat="38.3850055" lon="16.1730374"><ele>787.75</ele><time>2026-04-11T11:26:30.692Z</time></trkpt><trkpt lat="38.3850375" lon="16.1732249"><ele>787.5</ele><time>2026-04-11T11:26:31.692Z</time></trkpt><trkpt lat="38.3850589" lon="16.1734033"><ele>787.25</ele><time>2026-04-11T11:26:32.693Z</time></trkpt><trkpt lat="38.3850755" lon="16.1735807"><ele>787.0</ele><time>2026-04-11T11:26:33.692Z</time></trkpt><trkpt lat="38.3850975" lon="16.1737488"><ele>787.0</ele><time>2026-04-11T11:26:34.692Z</time></trkpt><trkpt lat="38.385128" lon="16.1739034"><ele>787.0</ele><time>2026-04-11T11:26:35.693Z</time></trkpt><trkpt lat="38.3851719" lon="16.1740411"><ele>787.0</ele><time>2026-04-11T11:26:36.692Z</time></trkpt><trkpt lat="38.3852342" lon="16.174168"><ele>787.0</ele><time>2026-04-11T11:26:37.692Z</time></trkpt><trkpt lat="38.385315" lon="16.1742869"><ele>786.0</ele><time>2026-04-11T11:26:38.693Z</time></trkpt><trkpt lat="38.3854145" lon="16.1743988"><ele>785.0</ele><time>2026-04-11T11:26:39.692Z</time></trkpt><trkpt lat="38.3855265" lon="16.1745048"><ele>784.0</ele><time>2026-04-11T11:26:40.693Z</time></trkpt><trkpt lat="38.3856311" lon="16.1746099"><ele>783.0</ele><time>2026-04-11T11:26:41.693Z</time></trkpt><trkpt lat="38.3857273" lon="16.1747294"><ele>783.0</ele><time>2026-04-11T11:26:42.692Z</time></trkpt><trkpt lat="38.385813" lon="16.1748618"><ele>783.0</ele><time>2026-04-11T11:26:43.692Z</time></trkpt><trkpt lat="38.3858858" lon="16.1750059"><ele>783.0</ele><time>2026-04-11T11:26:44.692Z</time></trkpt><trkpt lat="38.3859535" lon="16.1751524"><ele>783.0</ele><time>2026-04-11T11:26:45.692Z</time></trkpt><trkpt lat="38.386018" lon="16.1752932"><ele>783.0</ele><time>2026-04-11T11:26:46.692Z</time></trkpt><trkpt lat="38.3860756" lon="16.1754283"><ele>783.0</ele><time>2026-04-11T11:26:47.693Z</time></trkpt><trkpt lat="38.3861282" lon="16.1755503"><ele>783.0</ele><time>2026-04-11T11:26:48.692Z</time></trkpt><trkpt lat="38.3861874" lon="16.1756628"><ele>783.0</ele><time>2026-04-11T11:26:49.692Z</time></trkpt><trkpt lat="38.3862406" lon="16.1757776"><ele>783.0</ele><time>2026-04-11T11:26:50.692Z</time></trkpt><trkpt lat="38.386291" lon="16.175884"><ele>783.1666666666666</ele><time>2026-04-11T11:26:51.693Z</time></trkpt><trkpt lat="38.3863343" lon="16.1759795"><ele>783.3333333333333</ele><time>2026-04-11T11:26:52.693Z</time></trkpt><trkpt lat="38.386383" lon="16.1760771"><ele>783.5</ele><time>2026-04-11T11:26:53.693Z</time></trkpt><trkpt lat="38.3864281" lon="16.1761705"><ele>783.6666666666666</ele><time>2026-04-11T11:26:54.692Z</time></trkpt><trkpt lat="38.3864637" lon="16.1762563"><ele>783.8333333333333</ele><time>2026-04-11T11:26:55.692Z</time></trkpt><trkpt lat="38.3864966" lon="16.1763351"><ele>784.0</ele><time>2026-04-11T11:26:56.692Z</time></trkpt><trkpt lat="38.3865403" lon="16.1764635"><ele>783.0</ele><time>2026-04-11T11:26:58.693Z</time></trkpt><trkpt lat="38.3865677" lon="16.176569"><ele>782.0</ele><time>2026-04-11T11:27:01.693Z</time></trkpt><trkpt lat="38.3865767" lon="16.176666"><ele>781.0</ele><time>2026-04-11T11:27:04.692Z</time></trkpt><trkpt lat="38.3865633" lon="16.1767906"><ele>780.0</ele><time>2026-04-11T11:27:07.693Z</time></trkpt><trkpt lat="38.3865626" lon="16.1769042"><ele>779.0</ele><time>2026-04-11T11:27:09.692Z</time></trkpt><trkpt lat="38.3865637" lon="16.177034"><ele>779.0</ele><time>2026-04-11T11:27:11.693Z</time></trkpt><trkpt lat="38.3865586" lon="16.1771639"><ele>779.0</ele><time>2026-04-11T11:27:13.692Z</time></trkpt><trkpt lat="38.3865532" lon="16.1772868"><ele>779.0</ele><time>2026-04-11T11:27:15.692Z</time></trkpt><trkpt lat="38.3865465" lon="16.1774238"><ele>779.0</ele><time>2026-04-11T11:27:17.692Z</time></trkpt><trkpt lat="38.3865463" lon="16.1775696"><ele>779.0</ele><time>2026-04-11T11:27:19.693Z</time></trkpt><trkpt lat="38.3865478" lon="16.1776524"><ele>779.0000000000001</ele><time>2026-04-11T11:27:20.693Z</time></trkpt><trkpt lat="38.3865487" lon="16.1777361"><ele>779.0</ele><time>2026-04-11T11:27:21.692Z</time></trkpt><trkpt lat="38.3865475" lon="16.1778252"><ele>779.0</ele><time>2026-04-11T11:27:22.692Z</time></trkpt><trkpt lat="38.3865442" lon="16.1779217"><ele>779.0</ele><time>2026-04-11T11:27:23.692Z</time></trkpt><trkpt lat="38.3865393" lon="16.1780176"><ele>779.0</ele><time>2026-04-11T11:27:24.693Z</time></trkpt><trkpt lat="38.3865356" lon="16.1781184"><ele>779.0000000000001</ele><time>2026-04-11T11:27:25.692Z</time></trkpt><trkpt lat="38.3865364" lon="16.1782254"><ele>779.0</ele><time>2026-04-11T11:27:26.692Z</time></trkpt><trkpt lat="38.3865423" lon="16.1783336"><ele>779.0</ele><time>2026-04-11T11:27:27.692Z</time></trkpt><trkpt lat="38.3865453" lon="16.1784466"><ele>779.0</ele><time>2026-04-11T11:27:28.693Z</time></trkpt><trkpt lat="38.3865402" lon="16.1785621"><ele>779.0</ele><time>2026-04-11T11:27:29.692Z</time></trkpt><trkpt lat="38.3865304" lon="16.178683"><ele>779.0</ele><time>2026-04-11T11:27:30.693Z</time></trkpt><trkpt lat="38.3865189" lon="16.1787965"><ele>779.0</ele><time>2026-04-11T11:27:31.693Z</time></trkpt><trkpt lat="38.3865115" lon="16.1789112"><ele>778.6</ele><time>2026-04-11T11:27:32.693Z</time></trkpt><trkpt lat="38.3865082" lon="16.1790286"><ele>778.2</ele><time>2026-04-11T11:27:33.693Z</time></trkpt><trkpt lat="38.3865003" lon="16.1791551"><ele>777.8000000000001</ele><time>2026-04-11T11:27:34.693Z</time></trkpt><trkpt lat="38.3864882" lon="16.1792867"><ele>777.4000000000001</ele><time>2026-04-11T11:27:35.693Z</time></trkpt><trkpt lat="38.3864651" lon="16.1794226"><ele>777.0</ele><time>2026-04-11T11:27:36.692Z</time></trkpt><trkpt lat="38.3864324" lon="16.1795515"><ele>777.0</ele><time>2026-04-11T11:27:37.693Z</time></trkpt><trkpt lat="38.3863992" lon="16.1796782"><ele>777.0</ele><time>2026-04-11T11:27:38.692Z</time></trkpt><trkpt lat="38.3863692" lon="16.1798059"><ele>777.0</ele><time>2026-04-11T11:27:39.692Z</time></trkpt><trkpt lat="38.3863389" lon="16.1799348"><ele>777.0</ele><time>2026-04-11T11:27:40.692Z</time></trkpt><trkpt lat="38.3863066" lon="16.1800529"><ele>777.0</ele><time>2026-04-11T11:27:41.692Z</time></trkpt><trkpt lat="38.386275" lon="16.1801666"><ele>777.4000000000001</ele><time>2026-04-11T11:27:42.692Z</time></trkpt><trkpt lat="38.3862414" lon="16.180282"><ele>777.8000000000001</ele><time>2026-04-11T11:27:43.693Z</time></trkpt><trkpt lat="38.3862095" lon="16.1803964"><ele>778.2</ele><time>2026-04-11T11:27:44.692Z</time></trkpt><trkpt lat="38.3861851" lon="16.1805105"><ele>778.6</ele><time>2026-04-11T11:27:45.692Z</time></trkpt><trkpt lat="38.3861582" lon="16.1806169"><ele>779.0</ele><time>2026-04-11T11:27:46.693Z</time></trkpt><trkpt lat="38.3861309" lon="16.180714"><ele>779.0000000000001</ele><time>2026-04-11T11:27:47.692Z</time></trkpt><trkpt lat="38.386104" lon="16.1808074"><ele>779.0</ele><time>2026-04-11T11:27:48.692Z</time></trkpt><trkpt lat="38.3860786" lon="16.1808999"><ele>779.0</ele><time>2026-04-11T11:27:49.693Z</time></trkpt><trkpt lat="38.3860538" lon="16.180994"><ele>779.0</ele><time>2026-04-11T11:27:50.693Z</time></trkpt><trkpt lat="38.3860371" lon="16.1810956"><ele>779.0000000000001</ele><time>2026-04-11T11:27:51.692Z</time></trkpt><trkpt lat="38.3860166" lon="16.1812005"><ele>779.0</ele><time>2026-04-11T11:27:52.692Z</time></trkpt><trkpt lat="38.3859853" lon="16.1813034"><ele>779.0</ele><time>2026-04-11T11:27:53.692Z</time></trkpt><trkpt lat="38.385949" lon="16.1814071"><ele>779.0</ele><time>2026-04-11T11:27:54.692Z</time></trkpt><trkpt lat="38.3859166" lon="16.1815165"><ele>779.0</ele><time>2026-04-11T11:27:55.692Z</time></trkpt><trkpt lat="38.3858965" lon="16.1816303"><ele>779.0</ele><time>2026-04-11T11:27:56.692Z</time></trkpt><trkpt lat="38.3858902" lon="16.1817449"><ele>779.0</ele><time>2026-04-11T11:27:57.692Z</time></trkpt><trkpt lat="38.3858927" lon="16.1818651"><ele>778.4000000000001</ele><time>2026-04-11T11:27:58.693Z</time></trkpt><trkpt lat="38.3859066" lon="16.1819875"><ele>777.8</ele><time>2026-04-11T11:27:59.693Z</time></trkpt><trkpt lat="38.3859317" lon="16.1821041"><ele>777.2</ele><time>2026-04-11T11:28:00.693Z</time></trkpt><trkpt lat="38.3859654" lon="16.1822226"><ele>776.5999999999999</ele><time>2026-04-11T11:28:01.692Z</time></trkpt><trkpt lat="38.3860097" lon="16.1823368"><ele>776.0</ele><time>2026-04-11T11:28:02.692Z</time></trkpt><trkpt lat="38.3860747" lon="16.1824468"><ele>776.0</ele><time>2026-04-11T11:28:03.692Z</time></trkpt><trkpt lat="38.3861472" lon="16.1825571"><ele>776.0</ele><time>2026-04-11T11:28:04.693Z</time></trkpt><trkpt lat="38.386221" lon="16.18266"><ele>776.0</ele><time>2026-04-11T11:28:05.693Z</time></trkpt><trkpt lat="38.3862947" lon="16.1827454"><ele>776.0</ele><time>2026-04-11T11:28:06.692Z</time></trkpt><trkpt lat="38.386362" lon="16.1828253"><ele>776.0</ele><time>2026-04-11T11:28:07.692Z</time></trkpt><trkpt lat="38.3864252" lon="16.1829104"><ele>776.0</ele><time>2026-04-11T11:28:08.692Z</time></trkpt><trkpt lat="38.3865005" lon="16.1829988"><ele>776.0</ele><time>2026-04-11T11:28:09.692Z</time></trkpt><trkpt lat="38.386572" lon="16.1830861"><ele>776.0</ele><time>2026-04-11T11:28:10.692Z</time></trkpt><trkpt lat="38.3866557" lon="16.1831805"><ele>776.0</ele><time>2026-04-11T11:28:11.693Z</time></trkpt><trkpt lat="38.3867361" lon="16.1832706"><ele>776.0</ele><time>2026-04-11T11:28:12.692Z</time></trkpt><trkpt lat="38.3868174" lon="16.1833552"><ele>776.5999999999999</ele><time>2026-04-11T11:28:13.693Z</time></trkpt><trkpt lat="38.3868961" lon="16.183443"><ele>777.2</ele><time>2026-04-11T11:28:14.693Z</time></trkpt><trkpt lat="38.3869679" lon="16.1835211"><ele>777.8</ele><time>2026-04-11T11:28:15.693Z</time></trkpt><trkpt lat="38.387035" lon="16.1835989"><ele>778.4000000000001</ele><time>2026-04-11T11:28:16.692Z</time></trkpt><trkpt lat="38.38709" lon="16.1836705"><ele>779.0</ele><time>2026-04-11T11:28:17.692Z</time></trkpt><trkpt lat="38.387155" lon="16.1837423"><ele>779.6666666666667</ele><time>2026-04-11T11:28:18.692Z</time></trkpt><trkpt lat="38.3872235" lon="16.1838078"><ele>780.3333333333334</ele><time>2026-04-11T11:28:19.692Z</time></trkpt><trkpt lat="38.3872922" lon="16.1838634"><ele>781.0</ele><time>2026-04-11T11:28:20.692Z</time></trkpt><trkpt lat="38.3873675" lon="16.183909"><ele>781.6666666666667</ele><time>2026-04-11T11:28:21.692Z</time></trkpt><trkpt lat="38.387444" lon="16.1839313"><ele>782.3333333333334</ele><time>2026-04-11T11:28:22.692Z</time></trkpt><trkpt lat="38.3875145" lon="16.183926"><ele>783.0</ele><time>2026-04-11T11:28:23.692Z</time></trkpt><trkpt lat="38.387587" lon="16.1839011"><ele>783.0</ele><time>2026-04-11T11:28:24.692Z</time></trkpt><trkpt lat="38.3876564" lon="16.1838636"><ele>783.0</ele><time>2026-04-11T11:28:25.692Z</time></trkpt><trkpt lat="38.3877245" lon="16.1838106"><ele>783.0</ele><time>2026-04-11T11:28:26.692Z</time></trkpt><trkpt lat="38.3877803" lon="16.1837351"><ele>783.0</ele><time>2026-04-11T11:28:27.692Z</time></trkpt><trkpt lat="38.3878311" lon="16.1836417"><ele>783.0</ele><time>2026-04-11T11:28:28.692Z</time></trkpt><trkpt lat="38.3878767" lon="16.1835385"><ele>783.0</ele><time>2026-04-11T11:28:29.693Z</time></trkpt><trkpt lat="38.3879129" lon="16.1834326"><ele>783.0</ele><time>2026-04-11T11:28:30.692Z</time></trkpt><trkpt lat="38.3879437" lon="16.1833249"><ele>783.0</ele><time>2026-04-11T11:28:31.692Z</time></trkpt><trkpt lat="38.3879794" lon="16.1832223"><ele>783.0</ele><time>2026-04-11T11:28:32.692Z</time></trkpt><trkpt lat="38.3880212" lon="16.1831311"><ele>783.0</ele><time>2026-04-11T11:28:33.692Z</time></trkpt><trkpt lat="38.3880735" lon="16.1830482"><ele>783.0</ele><time>2026-04-11T11:28:34.692Z</time></trkpt><trkpt lat="38.3881239" lon="16.1829672"><ele>783.0</ele><time>2026-04-11T11:28:35.692Z</time></trkpt><trkpt lat="38.3881816" lon="16.1828877"><ele>783.8333333333334</ele><time>2026-04-11T11:28:36.692Z</time></trkpt><trkpt lat="38.3882477" lon="16.1828279"><ele>784.6666666666667</ele><time>2026-04-11T11:28:37.692Z</time></trkpt><trkpt lat="38.3883237" lon="16.1827947"><ele>785.5</ele><time>2026-04-11T11:28:38.692Z</time></trkpt><trkpt lat="38.3884127" lon="16.1827878"><ele>786.3333333333334</ele><time>2026-04-11T11:28:39.692Z</time></trkpt><trkpt lat="38.3885058" lon="16.1828007"><ele>787.1666666666667</ele><time>2026-04-11T11:28:40.692Z</time></trkpt><trkpt lat="38.3885935" lon="16.18284"><ele>788.0</ele><time>2026-04-11T11:28:41.693Z</time></trkpt><trkpt lat="38.3886792" lon="16.1829101"><ele>788.0</ele><time>2026-04-11T11:28:42.692Z</time></trkpt><trkpt lat="38.3887605" lon="16.183017"><ele>788.0</ele><time>2026-04-11T11:28:43.692Z</time></trkpt><trkpt lat="38.3888317" lon="16.1831419"><ele>788.0</ele><time>2026-04-11T11:28:44.693Z</time></trkpt><trkpt lat="38.3889005" lon="16.1832669"><ele>788.0</ele><time>2026-04-11T11:28:45.692Z</time></trkpt><trkpt lat="38.3889739" lon="16.1833896"><ele>788.25</ele><time>2026-04-11T11:28:46.692Z</time></trkpt><trkpt lat="38.3890477" lon="16.1835046"><ele>788.5</ele><time>2026-04-11T11:28:47.692Z</time></trkpt><trkpt lat="38.3891238" lon="16.1836103"><ele>788.75</ele><time>2026-04-11T11:28:48.692Z</time></trkpt><trkpt lat="38.3892032" lon="16.1837147"><ele>789.0</ele><time>2026-04-11T11:28:49.693Z</time></trkpt><trkpt lat="38.3892783" lon="16.1838116"><ele>789.0</ele><time>2026-04-11T11:28:50.692Z</time></trkpt><trkpt lat="38.389355" lon="16.1839006"><ele>789.0</ele><time>2026-04-11T11:28:51.693Z</time></trkpt><trkpt lat="38.3894291" lon="16.1839791"><ele>789.0</ele><time>2026-04-11T11:28:52.692Z</time></trkpt><trkpt lat="38.3895026" lon="16.184045"><ele>789.0</ele><time>2026-04-11T11:28:53.693Z</time></trkpt><trkpt lat="38.3895731" lon="16.1841015"><ele>789.0</ele><time>2026-04-11T11:28:54.693Z</time></trkpt><trkpt lat="38.3896342" lon="16.1841492"><ele>789.0</ele><time>2026-04-11T11:28:55.692Z</time></trkpt><trkpt lat="38.3896987" lon="16.1841941"><ele>790.6666666666666</ele><time>2026-04-11T11:28:56.692Z</time></trkpt><trkpt lat="38.3897628" lon="16.1842285"><ele>792.3333333333333</ele><time>2026-04-11T11:28:57.693Z</time></trkpt><trkpt lat="38.3898316" lon="16.1842511"><ele>794.0</ele><time>2026-04-11T11:28:58.693Z</time></trkpt><trkpt lat="38.3899081" lon="16.184263"><ele>795.6666666666666</ele><time>2026-04-11T11:28:59.693Z</time></trkpt><trkpt lat="38.3899845" lon="16.1842743"><ele>797.3333333333333</ele><time>2026-04-11T11:29:00.693Z</time></trkpt><trkpt lat="38.3900647" lon="16.1842823"><ele>799.0</ele><time>2026-04-11T11:29:01.693Z</time></trkpt><trkpt lat="38.3901569" lon="16.1842877"><ele>799.0</ele><time>2026-04-11T11:29:02.692Z</time></trkpt><trkpt lat="38.3902506" lon="16.1843"><ele>799.0</ele><time>2026-04-11T11:29:03.693Z</time></trkpt><trkpt lat="38.3903513" lon="16.1843198"><ele>799.0</ele><time>2026-04-11T11:29:04.692Z</time></trkpt><trkpt lat="38.3904588" lon="16.1843388"><ele>799.0</ele><time>2026-04-11T11:29:05.692Z</time></trkpt><trkpt lat="38.3905689" lon="16.1843578"><ele>799.0</ele><time>2026-04-11T11:29:06.693Z</time></trkpt><trkpt lat="38.3906799" lon="16.1843719"><ele>799.75</ele><time>2026-04-11T11:29:07.693Z</time></trkpt><trkpt lat="38.3907885" lon="16.1843835"><ele>800.5</ele><time>2026-04-11T11:29:08.693Z</time></trkpt><trkpt lat="38.3909071" lon="16.1843897"><ele>801.25</ele><time>2026-04-11T11:29:09.693Z</time></trkpt><trkpt lat="38.3910236" lon="16.1843969"><ele>802.0</ele><time>2026-04-11T11:29:10.692Z</time></trkpt><trkpt lat="38.3911371" lon="16.1844025"><ele>802.0</ele><time>2026-04-11T11:29:11.693Z</time></trkpt><trkpt lat="38.391253" lon="16.18441"><ele>802.0</ele><time>2026-04-11T11:29:12.692Z</time></trkpt><trkpt lat="38.3913682" lon="16.1844175"><ele>802.0</ele><time>2026-04-11T11:29:13.692Z</time></trkpt><trkpt lat="38.391483" lon="16.1844311"><ele>802.0</ele><time>2026-04-11T11:29:14.692Z</time></trkpt><trkpt lat="38.3915956" lon="16.1844521"><ele>802.8</ele><time>2026-04-11T11:29:15.693Z</time></trkpt><trkpt lat="38.3917006" lon="16.1844989"><ele>803.6</ele><time>2026-04-11T11:29:16.692Z</time></trkpt><trkpt lat="38.3917966" lon="16.184576"><ele>804.4</ele><time>2026-04-11T11:29:17.692Z</time></trkpt><trkpt lat="38.3918722" lon="16.1846687"><ele>805.1999999999999</ele><time>2026-04-11T11:29:18.693Z</time></trkpt><trkpt lat="38.3919286" lon="16.1847764"><ele>806.0</ele><time>2026-04-11T11:29:19.693Z</time></trkpt><trkpt lat="38.3919741" lon="16.1848937"><ele>806.5999999999999</ele><time>2026-04-11T11:29:20.692Z</time></trkpt><trkpt lat="38.3920155" lon="16.1850266"><ele>807.2</ele><time>2026-04-11T11:29:21.693Z</time></trkpt><trkpt lat="38.3920552" lon="16.1851585"><ele>807.8</ele><time>2026-04-11T11:29:22.692Z</time></trkpt><trkpt lat="38.3920963" lon="16.1852959"><ele>808.4000000000001</ele><time>2026-04-11T11:29:23.693Z</time></trkpt><trkpt lat="38.3921337" lon="16.1854294"><ele>809.0</ele><time>2026-04-11T11:29:24.693Z</time></trkpt><trkpt lat="38.3921736" lon="16.1855516"><ele>809.0</ele><time>2026-04-11T11:29:25.693Z</time></trkpt><trkpt lat="38.3922109" lon="16.1856741"><ele>809.0</ele><time>2026-04-11T11:29:26.692Z</time></trkpt><trkpt lat="38.3922489" lon="16.1857975"><ele>809.0</ele><time>2026-04-11T11:29:27.693Z</time></trkpt><trkpt lat="38.392281" lon="16.1859225"><ele>809.0</ele><time>2026-04-11T11:29:28.692Z</time></trkpt><trkpt lat="38.3923083" lon="16.1860538"><ele>809.0</ele><time>2026-04-11T11:29:29.692Z</time></trkpt><trkpt lat="38.3923411" lon="16.1861896"><ele>810.25</ele><time>2026-04-11T11:29:30.692Z</time></trkpt><trkpt lat="38.3923744" lon="16.1863299"><ele>811.5</ele><time>2026-04-11T11:29:31.693Z</time></trkpt><trkpt lat="38.3924138" lon="16.1864769"><ele>812.75</ele><time>2026-04-11T11:29:32.692Z</time></trkpt><trkpt lat="38.3924487" lon="16.1866346"><ele>814.0</ele><time>2026-04-11T11:29:33.692Z</time></trkpt><trkpt lat="38.3924867" lon="16.1868006"><ele>814.0</ele><time>2026-04-11T11:29:34.693Z</time></trkpt><trkpt lat="38.3925246" lon="16.1869656"><ele>814.0</ele><time>2026-04-11T11:29:35.693Z</time></trkpt><trkpt lat="38.392564" lon="16.1871293"><ele>814.0</ele><time>2026-04-11T11:29:36.692Z</time></trkpt><trkpt lat="38.3925962" lon="16.1872858"><ele>814.0</ele><time>2026-04-11T11:29:37.692Z</time></trkpt><trkpt lat="38.392626" lon="16.1874394"><ele>814.8000000000001</ele><time>2026-04-11T11:29:38.692Z</time></trkpt><trkpt lat="38.3926515" lon="16.1875781"><ele>815.6</ele><time>2026-04-11T11:29:39.692Z</time></trkpt><trkpt lat="38.3926746" lon="16.1877057"><ele>816.4</ele><time>2026-04-11T11:29:40.692Z</time></trkpt><trkpt lat="38.3926991" lon="16.1878257"><ele>817.2</ele><time>2026-04-11T11:29:41.693Z</time></trkpt><trkpt lat="38.392725" lon="16.1879295"><ele>818.0</ele><time>2026-04-11T11:29:42.692Z</time></trkpt><trkpt lat="38.3927517" lon="16.1880266"><ele>818.0000000000001</ele><time>2026-04-11T11:29:43.692Z</time></trkpt><trkpt lat="38.3927799" lon="16.1881165"><ele>818.0</ele><time>2026-04-11T11:29:44.692Z</time></trkpt><trkpt lat="38.3928069" lon="16.1882011"><ele>818.0</ele><time>2026-04-11T11:29:45.692Z</time></trkpt><trkpt lat="38.3928381" lon="16.1882751"><ele>818.0</ele><time>2026-04-11T11:29:46.692Z</time></trkpt><trkpt lat="38.3929331" lon="16.1883749"><ele>818.0000000000001</ele><time>2026-04-11T11:29:48.692Z</time></trkpt><trkpt lat="38.3930226" lon="16.1883916"><ele>818.0</ele><time>2026-04-11T11:29:50.692Z</time></trkpt><trkpt lat="38.3930938" lon="16.188371"><ele>817.2</ele><time>2026-04-11T11:29:53.692Z</time></trkpt><trkpt lat="38.3931539" lon="16.1883408"><ele>816.4</ele><time>2026-04-11T11:30:05.692Z</time></trkpt><trkpt lat="38.3932827" lon="16.1883149"><ele>815.6</ele><time>2026-04-11T11:30:07.693Z</time></trkpt><trkpt lat="38.3933683" lon="16.1882956"><ele>814.8000000000001</ele><time>2026-04-11T11:30:08.692Z</time></trkpt><trkpt lat="38.3934606" lon="16.1882804"><ele>814.0</ele><time>2026-04-11T11:30:09.693Z</time></trkpt><trkpt lat="38.3935627" lon="16.1882613"><ele>814.0</ele><time>2026-04-11T11:30:10.692Z</time></trkpt><trkpt lat="38.3936654" lon="16.1882354"><ele>814.0</ele><time>2026-04-11T11:30:11.693Z</time></trkpt><trkpt lat="38.3937722" lon="16.1882063"><ele>814.0</ele><time>2026-04-11T11:30:12.693Z</time></trkpt><trkpt lat="38.3938797" lon="16.1881773"><ele>814.0</ele><time>2026-04-11T11:30:13.693Z</time></trkpt><trkpt lat="38.3939897" lon="16.1881511"><ele>814.0</ele><time>2026-04-11T11:30:14.692Z</time></trkpt><trkpt lat="38.394104" lon="16.1881247"><ele>815.0</ele><time>2026-04-11T11:30:15.692Z</time></trkpt><trkpt lat="38.3942183" lon="16.1881006"><ele>816.0</ele><time>2026-04-11T11:30:16.692Z</time></trkpt><trkpt lat="38.3943341" lon="16.1880735"><ele>817.0</ele><time>2026-04-11T11:30:17.692Z</time></trkpt><trkpt lat="38.3944563" lon="16.1880448"><ele>818.0</ele><time>2026-04-11T11:30:18.692Z</time></trkpt><trkpt lat="38.3945812" lon="16.1880105"><ele>818.5</ele><time>2026-04-11T11:30:19.693Z</time></trkpt><trkpt lat="38.3947054" lon="16.187972"><ele>819.0</ele><time>2026-04-11T11:30:20.693Z</time></trkpt><trkpt lat="38.3948293" lon="16.1879276"><ele>819.5</ele><time>2026-04-11T11:30:21.693Z</time></trkpt><trkpt lat="38.3949542" lon="16.1878787"><ele>820.0</ele><time>2026-04-11T11:30:22.692Z</time></trkpt><trkpt lat="38.3950793" lon="16.1878238"><ele>820.0</ele><time>2026-04-11T11:30:23.692Z</time></trkpt><trkpt lat="38.3952047" lon="16.1877655"><ele>820.0</ele><time>2026-04-11T11:30:24.692Z</time></trkpt><trkpt lat="38.3953302" lon="16.1877102"><ele>820.0</ele><time>2026-04-11T11:30:25.691Z</time></trkpt><trkpt lat="38.395459" lon="16.1876509"><ele>820.0</ele><time>2026-04-11T11:30:26.692Z</time></trkpt><trkpt lat="38.3955846" lon="16.1875959"><ele>820.0</ele><time>2026-04-11T11:30:27.692Z</time></trkpt><trkpt lat="38.3957066" lon="16.1875426"><ele>820.0</ele><time>2026-04-11T11:30:28.692Z</time></trkpt><trkpt lat="38.3958262" lon="16.1874908"><ele>820.0</ele><time>2026-04-11T11:30:29.691Z</time></trkpt><trkpt lat="38.3959445" lon="16.1874267"><ele>820.0</ele><time>2026-04-11T11:30:30.691Z</time></trkpt><trkpt lat="38.396059" lon="16.1873548"><ele>821.0</ele><time>2026-04-11T11:30:31.691Z</time></trkpt><trkpt lat="38.396176" lon="16.1872792"><ele>822.0</ele><time>2026-04-11T11:30:32.692Z</time></trkpt><trkpt lat="38.396279" lon="16.1871942"><ele>823.0</ele><time>2026-04-11T11:30:33.691Z</time></trkpt><trkpt lat="38.3963901" lon="16.1871073"><ele>824.0</ele><time>2026-04-11T11:30:34.692Z</time></trkpt><trkpt lat="38.396499" lon="16.1870123"><ele>824.0</ele><time>2026-04-11T11:30:35.692Z</time></trkpt><trkpt lat="38.3966073" lon="16.1869085"><ele>824.0</ele><time>2026-04-11T11:30:36.692Z</time></trkpt><trkpt lat="38.3967137" lon="16.1867979"><ele>824.0</ele><time>2026-04-11T11:30:37.692Z</time></trkpt><trkpt lat="38.3968158" lon="16.1866879"><ele>824.0</ele><time>2026-04-11T11:30:38.692Z</time></trkpt><trkpt lat="38.3969115" lon="16.1865809"><ele>823.5</ele><time>2026-04-11T11:30:39.691Z</time></trkpt><trkpt lat="38.3970017" lon="16.1864647"><ele>823.0</ele><time>2026-04-11T11:30:40.691Z</time></trkpt><trkpt lat="38.3970842" lon="16.1863505"><ele>822.5</ele><time>2026-04-11T11:30:41.691Z</time></trkpt><trkpt lat="38.3971703" lon="16.1862305"><ele>822.0</ele><time>2026-04-11T11:30:42.692Z</time></trkpt><trkpt lat="38.3972631" lon="16.1861165"><ele>822.0</ele><time>2026-04-11T11:30:43.691Z</time></trkpt><trkpt lat="38.3973486" lon="16.1859964"><ele>822.0</ele><time>2026-04-11T11:30:44.691Z</time></trkpt><trkpt lat="38.3974382" lon="16.1859077"><ele>822.0</ele><time>2026-04-11T11:30:45.692Z</time></trkpt><trkpt lat="38.3975385" lon="16.1858473"><ele>822.0</ele><time>2026-04-11T11:30:46.691Z</time></trkpt><trkpt lat="38.3976582" lon="16.1858232"><ele>822.0</ele><time>2026-04-11T11:30:47.691Z</time></trkpt><trkpt lat="38.3977874" lon="16.1858148"><ele>822.0</ele><time>2026-04-11T11:30:48.692Z</time></trkpt><trkpt lat="38.3979191" lon="16.1858068"><ele>822.0</ele><time>2026-04-11T11:30:49.692Z</time></trkpt><trkpt lat="38.3980546" lon="16.1857942"><ele>822.0</ele><time>2026-04-11T11:30:50.691Z</time></trkpt><trkpt lat="38.3981929" lon="16.1857674"><ele>822.75</ele><time>2026-04-11T11:30:51.691Z</time></trkpt><trkpt lat="38.3983315" lon="16.1857279"><ele>823.5</ele><time>2026-04-11T11:30:52.692Z</time></trkpt><trkpt lat="38.3984605" lon="16.1856935"><ele>824.25</ele><time>2026-04-11T11:30:53.691Z</time></trkpt><trkpt lat="38.398577" lon="16.1856657"><ele>825.0</ele><time>2026-04-11T11:30:54.691Z</time></trkpt><trkpt lat="38.3986845" lon="16.1856395"><ele>825.0</ele><time>2026-04-11T11:30:55.691Z</time></trkpt><trkpt lat="38.3987963" lon="16.1856146"><ele>825.0</ele><time>2026-04-11T11:30:56.691Z</time></trkpt><trkpt lat="38.3989059" lon="16.1855813"><ele>825.0</ele><time>2026-04-11T11:30:57.692Z</time></trkpt><trkpt lat="38.3990088" lon="16.1855363"><ele>825.0</ele><time>2026-04-11T11:30:58.691Z</time></trkpt><trkpt lat="38.3991065" lon="16.1854774"><ele>825.0</ele><time>2026-04-11T11:30:59.692Z</time></trkpt><trkpt lat="38.3992005" lon="16.185403"><ele>826.4</ele><time>2026-04-11T11:31:00.691Z</time></trkpt><trkpt lat="38.3992803" lon="16.1853136"><ele>827.8</ele><time>2026-04-11T11:31:01.691Z</time></trkpt><trkpt lat="38.3993445" lon="16.1852179"><ele>829.2</ele><time>2026-04-11T11:31:02.691Z</time></trkpt><trkpt lat="38.3993974" lon="16.1851166"><ele>830.6</ele><time>2026-04-11T11:31:03.692Z</time></trkpt><trkpt lat="38.3994383" lon="16.1850065"><ele>832.0</ele><time>2026-04-11T11:31:04.691Z</time></trkpt><trkpt lat="38.3994728" lon="16.1848959"><ele>831.8333333333333</ele><time>2026-04-11T11:31:05.691Z</time></trkpt><trkpt lat="38.3995128" lon="16.1847967"><ele>831.6666666666666</ele><time>2026-04-11T11:31:06.692Z</time></trkpt><trkpt lat="38.3995569" lon="16.1846963"><ele>831.5</ele><time>2026-04-11T11:31:07.691Z</time></trkpt><trkpt lat="38.3996016" lon="16.1846015"><ele>831.3333333333333</ele><time>2026-04-11T11:31:08.692Z</time></trkpt><trkpt lat="38.3996529" lon="16.184512"><ele>831.1666666666666</ele><time>2026-04-11T11:31:09.691Z</time></trkpt><trkpt lat="38.3997112" lon="16.1844279"><ele>831.0</ele><time>2026-04-11T11:31:10.691Z</time></trkpt><trkpt lat="38.399781" lon="16.1843519"><ele>831.8</ele><time>2026-04-11T11:31:11.692Z</time></trkpt><trkpt lat="38.3998571" lon="16.1842747"><ele>832.5999999999999</ele><time>2026-04-11T11:31:12.691Z</time></trkpt><trkpt lat="38.3999307" lon="16.1842007"><ele>833.4</ele><time>2026-04-11T11:31:13.692Z</time></trkpt><trkpt lat="38.4000049" lon="16.184123"><ele>834.2</ele><time>2026-04-11T11:31:14.691Z</time></trkpt><trkpt lat="38.4000836" lon="16.1840386"><ele>835.0</ele><time>2026-04-11T11:31:15.691Z</time></trkpt><trkpt lat="38.4001563" lon="16.1839445"><ele>837.5</ele><time>2026-04-11T11:31:16.692Z</time></trkpt><trkpt lat="38.400232" lon="16.183842"><ele>840.0</ele><time>2026-04-11T11:31:17.692Z</time></trkpt><trkpt lat="38.4003087" lon="16.1837403"><ele>842.5</ele><time>2026-04-11T11:31:18.691Z</time></trkpt><trkpt lat="38.4003813" lon="16.1836287"><ele>845.0</ele><time>2026-04-11T11:31:19.691Z</time></trkpt><trkpt lat="38.4004508" lon="16.1835081"><ele>846.25</ele><time>2026-04-11T11:31:20.692Z</time></trkpt><trkpt lat="38.4005144" lon="16.1833784"><ele>847.5</ele><time>2026-04-11T11:31:21.692Z</time></trkpt><trkpt lat="38.400574" lon="16.18324"><ele>848.75</ele><time>2026-04-11T11:31:22.692Z</time></trkpt><trkpt lat="38.4006282" lon="16.1830951"><ele>850.0</ele><time>2026-04-11T11:31:23.691Z</time></trkpt><trkpt lat="38.400682" lon="16.1829502"><ele>851.25</ele><time>2026-04-11T11:31:24.691Z</time></trkpt><trkpt lat="38.4007505" lon="16.1828086"><ele>852.5</ele><time>2026-04-11T11:31:25.691Z</time></trkpt><trkpt lat="38.4008348" lon="16.1826878"><ele>853.75</ele><time>2026-04-11T11:31:26.692Z</time></trkpt><trkpt lat="38.4009294" lon="16.1825777"><ele>855.0</ele><time>2026-04-11T11:31:27.692Z</time></trkpt><trkpt lat="38.401026" lon="16.182468"><ele>855.0</ele><time>2026-04-11T11:31:28.691Z</time></trkpt><trkpt lat="38.4011229" lon="16.1823627"><ele>855.0</ele><time>2026-04-11T11:31:29.692Z</time></trkpt><trkpt lat="38.4012235" lon="16.182268"><ele>855.0</ele><time>2026-04-11T11:31:30.691Z</time></trkpt><trkpt lat="38.4013377" lon="16.1821864"><ele>855.0</ele><time>2026-04-11T11:31:31.691Z</time></trkpt><trkpt lat="38.4014582" lon="16.1821307"><ele>856.5</ele><time>2026-04-11T11:31:32.692Z</time></trkpt><trkpt lat="38.401586" lon="16.1821065"><ele>858.0</ele><time>2026-04-11T11:31:33.691Z</time></trkpt><trkpt lat="38.4017243" lon="16.1821109"><ele>859.5</ele><time>2026-04-11T11:31:34.692Z</time></trkpt><trkpt lat="38.4018687" lon="16.1821331"><ele>861.0</ele><time>2026-04-11T11:31:35.692Z</time></trkpt><trkpt lat="38.4020137" lon="16.1821619"><ele>861.0</ele><time>2026-04-11T11:31:36.692Z</time></trkpt><trkpt lat="38.4021589" lon="16.1821905"><ele>861.0</ele><time>2026-04-11T11:31:37.691Z</time></trkpt><trkpt lat="38.4023071" lon="16.182215"><ele>861.0</ele><time>2026-04-11T11:31:38.691Z</time></trkpt><trkpt lat="38.4024493" lon="16.1822321"><ele>861.0</ele><time>2026-04-11T11:31:39.691Z</time></trkpt><trkpt lat="38.402587" lon="16.1822304"><ele>863.0</ele><time>2026-04-11T11:31:40.692Z</time></trkpt><trkpt lat="38.4027228" lon="16.1822196"><ele>865.0</ele><time>2026-04-11T11:31:41.691Z</time></trkpt><trkpt lat="38.40285" lon="16.1821836"><ele>867.0</ele><time>2026-04-11T11:31:42.691Z</time></trkpt><trkpt lat="38.4029768" lon="16.1821283"><ele>869.0</ele><time>2026-04-11T11:31:43.691Z</time></trkpt><trkpt lat="38.4030925" lon="16.182054"><ele>871.0</ele><time>2026-04-11T11:31:44.691Z</time></trkpt><trkpt lat="38.4032067" lon="16.1819776"><ele>873.0</ele><time>2026-04-11T11:31:45.691Z</time></trkpt><trkpt lat="38.403313" lon="16.181893"><ele>875.0</ele><time>2026-04-11T11:31:46.692Z</time></trkpt><trkpt lat="38.4034182" lon="16.1818134"><ele>877.0</ele><time>2026-04-11T11:31:47.692Z</time></trkpt><trkpt lat="38.4035212" lon="16.1817374"><ele>877.0</ele><time>2026-04-11T11:31:48.691Z</time></trkpt><trkpt lat="38.4036226" lon="16.1816547"><ele>877.0</ele><time>2026-04-11T11:31:49.692Z</time></trkpt><trkpt lat="38.4037176" lon="16.1815731"><ele>877.0</ele><time>2026-04-11T11:31:50.691Z</time></trkpt><trkpt lat="38.4038159" lon="16.1814938"><ele>877.0</ele><time>2026-04-11T11:31:51.691Z</time></trkpt><trkpt lat="38.4039189" lon="16.1814126"><ele>879.25</ele><time>2026-04-11T11:31:52.692Z</time></trkpt><trkpt lat="38.4040173" lon="16.1813399"><ele>881.5</ele><time>2026-04-11T11:31:53.692Z</time></trkpt><trkpt lat="38.4041195" lon="16.1812696"><ele>883.75</ele><time>2026-04-11T11:31:54.691Z</time></trkpt><trkpt lat="38.4042214" lon="16.1811959"><ele>886.0</ele><time>2026-04-11T11:31:55.691Z</time></trkpt><trkpt lat="38.4043247" lon="16.1811204"><ele>886.0</ele><time>2026-04-11T11:31:56.692Z</time></trkpt><trkpt lat="38.404432" lon="16.1810511"><ele>886.0</ele><time>2026-04-11T11:31:57.691Z</time></trkpt><trkpt lat="38.4045441" lon="16.180992"><ele>886.0</ele><time>2026-04-11T11:31:58.691Z</time></trkpt><trkpt lat="38.4046621" lon="16.1809396"><ele>886.0</ele><time>2026-04-11T11:31:59.691Z</time></trkpt><trkpt lat="38.4047784" lon="16.1808957"><ele>888.75</ele><time>2026-04-11T11:32:00.691Z</time></trkpt><trkpt lat="38.4049089" lon="16.180872"><ele>891.5</ele><time>2026-04-11T11:32:01.691Z</time></trkpt><trkpt lat="38.405043" lon="16.1808543"><ele>894.25</ele><time>2026-04-11T11:32:02.692Z</time></trkpt><trkpt lat="38.4051904" lon="16.1808192"><ele>897.0</ele><time>2026-04-11T11:32:03.691Z</time></trkpt><trkpt lat="38.4053323" lon="16.1807906"><ele>897.0</ele><time>2026-04-11T11:32:04.691Z</time></trkpt><trkpt lat="38.4054727" lon="16.1807572"><ele>897.0</ele><time>2026-04-11T11:32:05.691Z</time></trkpt><trkpt lat="38.4055925" lon="16.1807134"><ele>897.0</ele><time>2026-04-11T11:32:06.691Z</time></trkpt><trkpt lat="38.4057048" lon="16.1806641"><ele>897.0</ele><time>2026-04-11T11:32:07.691Z</time></trkpt><trkpt lat="38.4058173" lon="16.1806083"><ele>895.25</ele><time>2026-04-11T11:32:08.691Z</time></trkpt><trkpt lat="38.4059358" lon="16.1805371"><ele>893.5</ele><time>2026-04-11T11:32:09.692Z</time></trkpt><trkpt lat="38.4060532" lon="16.1804505"><ele>891.75</ele><time>2026-04-11T11:32:10.691Z</time></trkpt><trkpt lat="38.4061688" lon="16.1803572"><ele>890.0</ele><time>2026-04-11T11:32:11.692Z</time></trkpt><trkpt lat="38.4062926" lon="16.1802602"><ele>888.3333333333334</ele><time>2026-04-11T11:32:12.692Z</time></trkpt><trkpt lat="38.4064178" lon="16.1801538"><ele>886.6666666666667</ele><time>2026-04-11T11:32:13.691Z</time></trkpt><trkpt lat="38.4065456" lon="16.1800313"><ele>885.0</ele><time>2026-04-11T11:32:14.692Z</time></trkpt><trkpt lat="38.406669" lon="16.1799051"><ele>884.3333333333333</ele><time>2026-04-11T11:32:15.692Z</time></trkpt><trkpt lat="38.4067873" lon="16.1797863"><ele>883.6666666666666</ele><time>2026-04-11T11:32:16.691Z</time></trkpt><trkpt lat="38.4069143" lon="16.1796791"><ele>883.0</ele><time>2026-04-11T11:32:17.691Z</time></trkpt><trkpt lat="38.4070375" lon="16.1795712"><ele>883.0</ele><time>2026-04-11T11:32:18.691Z</time></trkpt><trkpt lat="38.4071583" lon="16.1794554"><ele>883.0</ele><time>2026-04-11T11:32:19.691Z</time></trkpt><trkpt lat="38.4072825" lon="16.1793345"><ele>883.0</ele><time>2026-04-11T11:32:20.692Z</time></trkpt><trkpt lat="38.4074141" lon="16.1792147"><ele>883.0</ele><time>2026-04-11T11:32:21.691Z</time></trkpt><trkpt lat="38.4075449" lon="16.1791093"><ele>883.0</ele><time>2026-04-11T11:32:22.691Z</time></trkpt><trkpt lat="38.4076729" lon="16.1790075"><ele>883.0</ele><time>2026-04-11T11:32:23.691Z</time></trkpt><trkpt lat="38.4078032" lon="16.1789076"><ele>883.0</ele><time>2026-04-11T11:32:24.691Z</time></trkpt><trkpt lat="38.4079293" lon="16.1788092"><ele>883.0</ele><time>2026-04-11T11:32:25.691Z</time></trkpt><trkpt lat="38.4080586" lon="16.1787173"><ele>883.0</ele><time>2026-04-11T11:32:26.692Z</time></trkpt><trkpt lat="38.4081955" lon="16.1786396"><ele>883.0</ele><time>2026-04-11T11:32:27.692Z</time></trkpt><trkpt lat="38.4083386" lon="16.1785832"><ele>883.0</ele><time>2026-04-11T11:32:28.691Z</time></trkpt><trkpt lat="38.4084773" lon="16.1785581"><ele>883.0</ele><time>2026-04-11T11:32:29.692Z</time></trkpt><trkpt lat="38.4086243" lon="16.1785521"><ele>883.0</ele><time>2026-04-11T11:32:30.692Z</time></trkpt><trkpt lat="38.4087759" lon="16.1785506"><ele>883.0</ele><time>2026-04-11T11:32:31.691Z</time></trkpt><trkpt lat="38.4089309" lon="16.1785519"><ele>884.3333333333333</ele><time>2026-04-11T11:32:32.691Z</time></trkpt><trkpt lat="38.4090843" lon="16.1785543"><ele>885.6666666666667</ele><time>2026-04-11T11:32:33.691Z</time></trkpt><trkpt lat="38.4092405" lon="16.1785562"><ele>887.0</ele><time>2026-04-11T11:32:34.691Z</time></trkpt><trkpt lat="38.4093995" lon="16.1785556"><ele>887.0</ele><time>2026-04-11T11:32:35.692Z</time></trkpt><trkpt lat="38.4095605" lon="16.1785565"><ele>887.0</ele><time>2026-04-11T11:32:36.691Z</time></trkpt><trkpt lat="38.4097194" lon="16.1785556"><ele>887.0</ele><time>2026-04-11T11:32:37.691Z</time></trkpt><trkpt lat="38.4098802" lon="16.1785521"><ele>886.6666666666667</ele><time>2026-04-11T11:32:38.691Z</time></trkpt><trkpt lat="38.4100391" lon="16.1785424"><ele>886.3333333333333</ele><time>2026-04-11T11:32:39.692Z</time></trkpt><trkpt lat="38.4101935" lon="16.1785093"><ele>886.0</ele><time>2026-04-11T11:32:40.691Z</time></trkpt><trkpt lat="38.4103489" lon="16.1784381"><ele>886.0</ele><time>2026-04-11T11:32:41.692Z</time></trkpt><trkpt lat="38.410497" lon="16.1783306"><ele>886.0</ele><time>2026-04-11T11:32:42.691Z</time></trkpt><trkpt lat="38.4106364" lon="16.1781919"><ele>886.0</ele><time>2026-04-11T11:32:43.691Z</time></trkpt><trkpt lat="38.4107727" lon="16.1780446"><ele>886.0</ele><time>2026-04-11T11:32:44.691Z</time></trkpt><trkpt lat="38.4109125" lon="16.1778983"><ele>886.0</ele><time>2026-04-11T11:32:45.692Z</time></trkpt><trkpt lat="38.4110514" lon="16.1777554"><ele>886.0</ele><time>2026-04-11T11:32:46.692Z</time></trkpt><trkpt lat="38.41119" lon="16.1776153"><ele>886.0</ele><time>2026-04-11T11:32:47.691Z</time></trkpt><trkpt lat="38.4113282" lon="16.1774805"><ele>886.0</ele><time>2026-04-11T11:32:48.691Z</time></trkpt><trkpt lat="38.4114585" lon="16.1773565"><ele>886.0</ele><time>2026-04-11T11:32:49.691Z</time></trkpt><trkpt lat="38.4115839" lon="16.1772532"><ele>886.0</ele><time>2026-04-11T11:32:50.692Z</time></trkpt><trkpt lat="38.4117095" lon="16.1771816"><ele>886.0</ele><time>2026-04-11T11:32:51.692Z</time></trkpt><trkpt lat="38.4118383" lon="16.1771502"><ele>886.0</ele><time>2026-04-11T11:32:52.691Z</time></trkpt><trkpt lat="38.4119731" lon="16.1771533"><ele>886.0</ele><time>2026-04-11T11:32:53.691Z</time></trkpt><trkpt lat="38.4121165" lon="16.1771753"><ele>889.25</ele><time>2026-04-11T11:32:54.692Z</time></trkpt><trkpt lat="38.4122546" lon="16.1771898"><ele>892.5</ele><time>2026-04-11T11:32:55.692Z</time></trkpt><trkpt lat="38.4123869" lon="16.1771764"><ele>895.75</ele><time>2026-04-11T11:32:56.692Z</time></trkpt><trkpt lat="38.412515" lon="16.1771261"><ele>899.0</ele><time>2026-04-11T11:32:57.691Z</time></trkpt><trkpt lat="38.4126339" lon="16.1770505"><ele>899.0</ele><time>2026-04-11T11:32:58.692Z</time></trkpt><trkpt lat="38.4127351" lon="16.176936"><ele>899.0</ele><time>2026-04-11T11:32:59.691Z</time></trkpt><trkpt lat="38.4128107" lon="16.1767982"><ele>899.0</ele><time>2026-04-11T11:33:00.691Z</time></trkpt><trkpt lat="38.4128687" lon="16.1766474"><ele>899.0</ele><time>2026-04-11T11:33:01.691Z</time></trkpt><trkpt lat="38.4129172" lon="16.1765099"><ele>898.0</ele><time>2026-04-11T11:33:02.692Z</time></trkpt><trkpt lat="38.4129918" lon="16.1764085"><ele>897.0</ele><time>2026-04-11T11:33:03.691Z</time></trkpt><trkpt lat="38.4130828" lon="16.1763462"><ele>896.0</ele><time>2026-04-11T11:33:04.691Z</time></trkpt><trkpt lat="38.4131915" lon="16.1763291"><ele>895.0</ele><time>2026-04-11T11:33:05.691Z</time></trkpt><trkpt lat="38.4133189" lon="16.176356"><ele>895.0</ele><time>2026-04-11T11:33:06.691Z</time></trkpt><trkpt lat="38.4134517" lon="16.1763996"><ele>895.0</ele><time>2026-04-11T11:33:07.691Z</time></trkpt><trkpt lat="38.4135919" lon="16.176444"><ele>895.0</ele><time>2026-04-11T11:33:08.691Z</time></trkpt><trkpt lat="38.4137361" lon="16.1764817"><ele>895.0</ele><time>2026-04-11T11:33:09.691Z</time></trkpt><trkpt lat="38.4138836" lon="16.1765207"><ele>900.0</ele><time>2026-04-11T11:33:10.691Z</time></trkpt><trkpt lat="38.414037" lon="16.1765677"><ele>905.0</ele><time>2026-04-11T11:33:11.692Z</time></trkpt><trkpt lat="38.4141966" lon="16.1766157"><ele>910.0</ele><time>2026-04-11T11:33:12.691Z</time></trkpt><trkpt lat="38.4143599" lon="16.1766643"><ele>910.0</ele><time>2026-04-11T11:33:13.691Z</time></trkpt><trkpt lat="38.4145206" lon="16.1767094"><ele>910.0</ele><time>2026-04-11T11:33:14.691Z</time></trkpt><trkpt lat="38.4146749" lon="16.1767526"><ele>910.0</ele><time>2026-04-11T11:33:15.691Z</time></trkpt><trkpt lat="38.414827" lon="16.1767934"><ele>909.75</ele><time>2026-04-11T11:33:16.692Z</time></trkpt><trkpt lat="38.4149771" lon="16.17683"><ele>909.5</ele><time>2026-04-11T11:33:17.692Z</time></trkpt><trkpt lat="38.4151239" lon="16.1768397"><ele>909.25</ele><time>2026-04-11T11:33:18.692Z</time></trkpt><trkpt lat="38.4152618" lon="16.1768193"><ele>909.0</ele><time>2026-04-11T11:33:19.691Z</time></trkpt><trkpt lat="38.4153921" lon="16.1767804"><ele>909.0</ele><time>2026-04-11T11:33:20.692Z</time></trkpt><trkpt lat="38.4155221" lon="16.1767339"><ele>909.0</ele><time>2026-04-11T11:33:21.692Z</time></trkpt><trkpt lat="38.4156404" lon="16.1767212"><ele>909.0</ele><time>2026-04-11T11:33:22.692Z</time></trkpt><trkpt lat="38.4157546" lon="16.1767598"><ele>909.0</ele><time>2026-04-11T11:33:23.691Z</time></trkpt><trkpt lat="38.4158543" lon="16.1768519"><ele>909.0</ele><time>2026-04-11T11:33:24.691Z</time></trkpt><trkpt lat="38.4159368" lon="16.1769867"><ele>909.0</ele><time>2026-04-11T11:33:25.691Z</time></trkpt><trkpt lat="38.4160174" lon="16.177136"><ele>909.0</ele><time>2026-04-11T11:33:26.691Z</time></trkpt><trkpt lat="38.4161062" lon="16.1772902"><ele>909.0</ele><time>2026-04-11T11:33:27.691Z</time></trkpt><trkpt lat="38.4161979" lon="16.1774335"><ele>909.0</ele><time>2026-04-11T11:33:28.691Z</time></trkpt><trkpt lat="38.4162831" lon="16.1775621"><ele>909.0</ele><time>2026-04-11T11:33:29.692Z</time></trkpt><trkpt lat="38.4163621" lon="16.1776734"><ele>909.0</ele><time>2026-04-11T11:33:30.692Z</time></trkpt><trkpt lat="38.4164341" lon="16.1777805"><ele>909.0</ele><time>2026-04-11T11:33:31.691Z</time></trkpt><trkpt lat="38.4165046" lon="16.1778709"><ele>910.3333333333334</ele><time>2026-04-11T11:33:32.691Z</time></trkpt><trkpt lat="38.416568" lon="16.1779437"><ele>911.6666666666667</ele><time>2026-04-11T11:33:33.692Z</time></trkpt><trkpt lat="38.4166255" lon="16.1779946"><ele>913.0</ele><time>2026-04-11T11:33:34.691Z</time></trkpt><trkpt lat="38.4166876" lon="16.1780236"><ele>914.3333333333334</ele><time>2026-04-11T11:33:35.692Z</time></trkpt><trkpt lat="38.4167943" lon="16.1780588"><ele>915.6666666666667</ele><time>2026-04-11T11:33:37.692Z</time></trkpt><trkpt lat="38.4168653" lon="16.1780775"><ele>917.0</ele><time>2026-04-11T11:33:39.691Z</time></trkpt><trkpt lat="38.4169348" lon="16.1780637"><ele>917.0</ele><time>2026-04-11T11:34:09.691Z</time></trkpt><trkpt lat="38.4170672" lon="16.1779995"><ele>917.0</ele><time>2026-04-11T11:34:11.692Z</time></trkpt><trkpt lat="38.4171482" lon="16.1779445"><ele>917.0</ele><time>2026-04-11T11:34:12.692Z</time></trkpt><trkpt lat="38.4172289" lon="16.1778786"><ele>917.0</ele><time>2026-04-11T11:34:13.692Z</time></trkpt><trkpt lat="38.4173064" lon="16.1778067"><ele>917.0</ele><time>2026-04-11T11:34:14.691Z</time></trkpt><trkpt lat="38.4173829" lon="16.1777286"><ele>921.0</ele><time>2026-04-11T11:34:15.692Z</time></trkpt><trkpt lat="38.4174664" lon="16.1776373"><ele>925.0</ele><time>2026-04-11T11:34:16.691Z</time></trkpt><trkpt lat="38.4175469" lon="16.1775443"><ele>929.0</ele><time>2026-04-11T11:34:17.691Z</time></trkpt><trkpt lat="38.4176302" lon="16.1774408"><ele>933.0</ele><time>2026-04-11T11:34:18.691Z</time></trkpt><trkpt lat="38.4177165" lon="16.177339"><ele>933.0</ele><time>2026-04-11T11:34:19.691Z</time></trkpt><trkpt lat="38.4178008" lon="16.1772197"><ele>933.0</ele><time>2026-04-11T11:34:20.691Z</time></trkpt><trkpt lat="38.4178828" lon="16.1771018"><ele>933.0</ele><time>2026-04-11T11:34:21.691Z</time></trkpt><trkpt lat="38.4179606" lon="16.1769783"><ele>933.0</ele><time>2026-04-11T11:34:22.692Z</time></trkpt><trkpt lat="38.4180343" lon="16.1768467"><ele>937.0</ele><time>2026-04-11T11:34:23.691Z</time></trkpt><trkpt lat="38.4181015" lon="16.1767079"><ele>941.0</ele><time>2026-04-11T11:34:24.691Z</time></trkpt><trkpt lat="38.4181569" lon="16.1765612"><ele>945.0</ele><time>2026-04-11T11:34:25.691Z</time></trkpt><trkpt lat="38.4181959" lon="16.1764148"><ele>949.0</ele><time>2026-04-11T11:34:26.692Z</time></trkpt><trkpt lat="38.4182294" lon="16.1762582"><ele>949.0</ele><time>2026-04-11T11:34:27.691Z</time></trkpt><trkpt lat="38.4182744" lon="16.1761059"><ele>949.0</ele><time>2026-04-11T11:34:28.692Z</time></trkpt><trkpt lat="38.4183312" lon="16.1759555"><ele>949.0</ele><time>2026-04-11T11:34:29.691Z</time></trkpt><trkpt lat="38.4183956" lon="16.175817"><ele>949.0</ele><time>2026-04-11T11:34:30.691Z</time></trkpt><trkpt lat="38.4184752" lon="16.1756937"><ele>951.5</ele><time>2026-04-11T11:34:31.692Z</time></trkpt><trkpt lat="38.4185733" lon="16.1755997"><ele>954.0</ele><time>2026-04-11T11:34:32.692Z</time></trkpt><trkpt lat="38.4186799" lon="16.1755441"><ele>956.5</ele><time>2026-04-11T11:34:33.692Z</time></trkpt><trkpt lat="38.4187884" lon="16.1755043"><ele>959.0</ele><time>2026-04-11T11:34:34.691Z</time></trkpt><trkpt lat="38.4188895" lon="16.1754852"><ele>959.0</ele><time>2026-04-11T11:34:35.692Z</time></trkpt><trkpt lat="38.4190073" lon="16.1754797"><ele>959.0</ele><time>2026-04-11T11:34:36.692Z</time></trkpt><trkpt lat="38.419136" lon="16.175505"><ele>959.0</ele><time>2026-04-11T11:34:37.691Z</time></trkpt><trkpt lat="38.4192608" lon="16.1755832"><ele>959.0</ele><time>2026-04-11T11:34:38.691Z</time></trkpt><trkpt lat="38.4193848" lon="16.1756917"><ele>958.3333333333334</ele><time>2026-04-11T11:34:39.691Z</time></trkpt><trkpt lat="38.4195071" lon="16.1758165"><ele>957.6666666666667</ele><time>2026-04-11T11:34:40.691Z</time></trkpt><trkpt lat="38.4196242" lon="16.1759469"><ele>957.0</ele><time>2026-04-11T11:34:41.691Z</time></trkpt><trkpt lat="38.419731" lon="16.176084"><ele>957.0</ele><time>2026-04-11T11:34:42.692Z</time></trkpt><trkpt lat="38.4198564" lon="16.1762158"><ele>957.0</ele><time>2026-04-11T11:34:43.692Z</time></trkpt><trkpt lat="38.4199856" lon="16.1763486"><ele>957.0</ele><time>2026-04-11T11:34:44.692Z</time></trkpt><trkpt lat="38.4200997" lon="16.1764768"><ele>962.3333333333333</ele><time>2026-04-11T11:34:45.691Z</time></trkpt><trkpt lat="38.4202231" lon="16.1766019"><ele>967.6666666666666</ele><time>2026-04-11T11:34:46.691Z</time></trkpt><trkpt lat="38.4203504" lon="16.1767196"><ele>973.0</ele><time>2026-04-11T11:34:47.691Z</time></trkpt><trkpt lat="38.4204635" lon="16.1768357"><ele>974.0</ele><time>2026-04-11T11:34:48.692Z</time></trkpt><trkpt lat="38.4205667" lon="16.1769595"><ele>975.0</ele><time>2026-04-11T11:34:49.691Z</time></trkpt><trkpt lat="38.4206547" lon="16.1770907"><ele>976.0</ele><time>2026-04-11T11:34:50.691Z</time></trkpt><trkpt lat="38.4207216" lon="16.1772373"><ele>977.0</ele><time>2026-04-11T11:34:51.691Z</time></trkpt><trkpt lat="38.4207584" lon="16.1773927"><ele>977.0</ele><time>2026-04-11T11:34:52.691Z</time></trkpt><trkpt lat="38.4207598" lon="16.1775542"><ele>977.0</ele><time>2026-04-11T11:34:53.691Z</time></trkpt><trkpt lat="38.4207334" lon="16.1777223"><ele>977.0</ele><time>2026-04-11T11:34:54.692Z</time></trkpt><trkpt lat="38.4206891" lon="16.1778873"><ele>977.0</ele><time>2026-04-11T11:34:55.692Z</time></trkpt><trkpt lat="38.4206268" lon="16.1780371"><ele>979.25</ele><time>2026-04-11T11:34:56.691Z</time></trkpt><trkpt lat="38.4205534" lon="16.17819"><ele>981.5</ele><time>2026-04-11T11:34:57.691Z</time></trkpt><trkpt lat="38.4204701" lon="16.1783436"><ele>983.75</ele><time>2026-04-11T11:34:58.692Z</time></trkpt><trkpt lat="38.4203866" lon="16.1784987"><ele>986.0</ele><time>2026-04-11T11:34:59.691Z</time></trkpt><trkpt lat="38.4202976" lon="16.1786525"><ele>986.0</ele><time>2026-04-11T11:35:00.691Z</time></trkpt><trkpt lat="38.4202027" lon="16.178807"><ele>986.0</ele><time>2026-04-11T11:35:01.691Z</time></trkpt><trkpt lat="38.4201025" lon="16.1789637"><ele>986.0</ele><time>2026-04-11T11:35:02.691Z</time></trkpt><trkpt lat="38.4200111" lon="16.1791064"><ele>985.75</ele><time>2026-04-11T11:35:03.692Z</time></trkpt><trkpt lat="38.4199318" lon="16.1792567"><ele>985.5</ele><time>2026-04-11T11:35:04.692Z</time></trkpt><trkpt lat="38.4198725" lon="16.1794231"><ele>985.25</ele><time>2026-04-11T11:35:05.691Z</time></trkpt><trkpt lat="38.4198377" lon="16.1796023"><ele>985.0</ele><time>2026-04-11T11:35:06.691Z</time></trkpt><trkpt lat="38.419835" lon="16.1797934"><ele>986.5</ele><time>2026-04-11T11:35:07.691Z</time></trkpt><trkpt lat="38.4198669" lon="16.1799826"><ele>988.0</ele><time>2026-04-11T11:35:08.692Z</time></trkpt><trkpt lat="38.4199181" lon="16.1801568"><ele>989.5</ele><time>2026-04-11T11:35:09.691Z</time></trkpt><trkpt lat="38.4199934" lon="16.1803014"><ele>991.0</ele><time>2026-04-11T11:35:10.691Z</time></trkpt><trkpt lat="38.4200867" lon="16.1804194"><ele>991.0</ele><time>2026-04-11T11:35:11.691Z</time></trkpt><trkpt lat="38.4201974" lon="16.1805225"><ele>991.0</ele><time>2026-04-11T11:35:12.691Z</time></trkpt><trkpt lat="38.4203285" lon="16.1806018"><ele>991.0</ele><time>2026-04-11T11:35:13.691Z</time></trkpt><trkpt lat="38.4204873" lon="16.1806531"><ele>991.0</ele><time>2026-04-11T11:35:14.691Z</time></trkpt><trkpt lat="38.4206472" lon="16.1807051"><ele>994.5</ele><time>2026-04-11T11:35:15.692Z</time></trkpt><trkpt lat="38.4208202" lon="16.1807573"><ele>998.0</ele><time>2026-04-11T11:35:16.691Z</time></trkpt><trkpt lat="38.4192608" lon="16.1755832"><ele>987.0</ele><time>2026-04-11T11:34:38.691Z</time></trkpt><trkpt lat="38.4193848" lon="16.1756917"><ele>976.0</ele><time>2026-04-11T11:34:39.691Z</time></trkpt><trkpt lat="38.4195071" lon="16.1758165"><ele>965.0</ele><time>2026-04-11T11:34:40.691Z</time></trkpt><trkpt lat="38.4196242" lon="16.1759469"><ele>962.3333333333334</ele><time>2026-04-11T11:34:41.691Z</time></trkpt><trkpt lat="38.419731" lon="16.176084"><ele>959.6666666666667</ele><time>2026-04-11T11:34:42.692Z</time></trkpt><trkpt lat="38.4198564" lon="16.1762158"><ele>957.0</ele><time>2026-04-11T11:34:43.692Z</time></trkpt><trkpt lat="38.4199856" lon="16.1763486"><ele>957.0</ele><time>2026-04-11T11:34:44.692Z</time></trkpt><trkpt lat="38.4200997" lon="16.1764768"><ele>957.0</ele><time>2026-04-11T11:34:45.691Z</time></trkpt><trkpt lat="38.4202231" lon="16.1766019"><ele>957.0</ele><time>2026-04-11T11:34:46.691Z</time></trkpt><trkpt lat="38.4203504" lon="16.1767196"><ele>959.0</ele><time>2026-04-11T11:34:47.691Z</time></trkpt><trkpt lat="38.4204635" lon="16.1768357"><ele>961.0</ele><time>2026-04-11T11:34:48.692Z</time></trkpt><trkpt lat="38.4205667" lon="16.1769595"><ele>963.0</ele><time>2026-04-11T11:34:49.691Z</time></trkpt><trkpt lat="38.4206547" lon="16.1770907"><ele>965.0</ele><time>2026-04-11T11:34:50.691Z</time></trkpt><trkpt lat="38.4207216" lon="16.1772373"><ele>968.0</ele><time>2026-04-11T11:34:51.691Z</time></trkpt><trkpt lat="38.4207584" lon="16.1773927"><ele>971.0</ele><time>2026-04-11T11:34:52.691Z</time></trkpt><trkpt lat="38.4207598" lon="16.1775542"><ele>974.0</ele><time>2026-04-11T11:34:53.691Z</time></trkpt><trkpt lat="38.4207334" lon="16.1777223"><ele>977.0</ele><time>2026-04-11T11:34:54.692Z</time></trkpt><trkpt lat="38.4206891" lon="16.1778873"><ele>977.0</ele><time>2026-04-11T11:34:55.692Z</time></trkpt><trkpt lat="38.4206268" lon="16.1780371"><ele>977.0</ele><time>2026-04-11T11:34:56.691Z</time></trkpt><trkpt lat="38.4205534" lon="16.17819"><ele>977.0</ele><time>2026-04-11T11:34:57.691Z</time></trkpt><trkpt lat="38.4204701" lon="16.1783436"><ele>977.0</ele><time>2026-04-11T11:34:58.692Z</time></trkpt><trkpt lat="38.4203866" lon="16.1784987"><ele>980.0</ele><time>2026-04-11T11:34:59.691Z</time></trkpt><trkpt lat="38.4202976" lon="16.1786525"><ele>983.0</ele><time>2026-04-11T11:35:00.691Z</time></trkpt><trkpt lat="38.4202027" lon="16.178807"><ele>986.0</ele><time>2026-04-11T11:35:01.691Z</time></trkpt><trkpt lat="38.4201025" lon="16.1789637"><ele>985.75</ele><time>2026-04-11T11:35:02.691Z</time></trkpt><trkpt lat="38.4200111" lon="16.1791064"><ele>985.5</ele><time>2026-04-11T11:35:03.692Z</time></trkpt><trkpt lat="38.4199318" lon="16.1792567"><ele>985.25</ele><time>2026-04-11T11:35:04.692Z</time></trkpt><trkpt lat="38.4198725" lon="16.1794231"><ele>985.0</ele><time>2026-04-11T11:35:05.691Z</time></trkpt><trkpt lat="38.4198377" lon="16.1796023"><ele>985.0</ele><time>2026-04-11T11:35:06.691Z</time></trkpt><trkpt lat="38.419835" lon="16.1797934"><ele>985.0</ele><time>2026-04-11T11:35:07.691Z</time></trkpt><trkpt lat="38.4198669" lon="16.1799826"><ele>985.0</ele><time>2026-04-11T11:35:08.692Z</time></trkpt><trkpt lat="38.4199181" lon="16.1801568"><ele>985.0</ele><time>2026-04-11T11:35:09.691Z</time></trkpt><trkpt lat="38.4199934" lon="16.1803014"><ele>986.5</ele><time>2026-04-11T11:35:10.691Z</time></trkpt><trkpt lat="38.4200867" lon="16.1804194"><ele>988.0</ele><time>2026-04-11T11:35:11.691Z</time></trkpt><trkpt lat="38.4201974" lon="16.1805225"><ele>989.5</ele><time>2026-04-11T11:35:12.691Z</time></trkpt><trkpt lat="38.4203285" lon="16.1806018"><ele>991.0</ele><time>2026-04-11T11:35:13.691Z</time></trkpt><trkpt lat="38.4204873" lon="16.1806531"><ele>993.3333333333333</ele><time>2026-04-11T11:35:14.691Z</time></trkpt><trkpt lat="38.4206472" lon="16.1807051"><ele>995.6666666666667</ele><time>2026-04-11T11:35:15.692Z</time></trkpt><trkpt lat="38.4208202" lon="16.1807573"><ele>998.0</ele><time>2026-04-11T11:35:16.691Z</time></trkpt><trkpt lat="38.4209957" lon="16.1808134"><ele>998.0</ele><time>2026-04-11T11:35:17.691Z</time></trkpt><trkpt lat="38.4211711" lon="16.1808762"><ele>998.0</ele><time>2026-04-11T11:35:18.691Z</time></trkpt><trkpt lat="38.4213433" lon="16.180931"><ele>998.0</ele><time>2026-04-11T11:35:19.692Z</time></trkpt><trkpt lat="38.4215157" lon="16.180984"><ele>999.3333333333334</ele><time>2026-04-11T11:35:20.691Z</time></trkpt><trkpt lat="38.4216902" lon="16.1810473"><ele>1000.6666666666667</ele><time>2026-04-11T11:35:21.692Z</time></trkpt><trkpt lat="38.4218519" lon="16.1811156"><ele>1002.0</ele><time>2026-04-11T11:35:22.691Z</time></trkpt><trkpt lat="38.4220203" lon="16.1811738"><ele>1002.0</ele><time>2026-04-11T11:35:23.692Z</time></trkpt><trkpt lat="38.422189" lon="16.1812336"><ele>1002.0</ele><time>2026-04-11T11:35:24.691Z</time></trkpt><trkpt lat="38.4223488" lon="16.1812944"><ele>1002.0</ele><time>2026-04-11T11:35:25.691Z</time></trkpt><trkpt lat="38.4224891" lon="16.1813695"><ele>1002.0</ele><time>2026-04-11T11:35:26.691Z</time></trkpt><trkpt lat="38.4226073" lon="16.1814637"><ele>1002.0</ele><time>2026-04-11T11:35:27.691Z</time></trkpt><trkpt lat="38.4227014" lon="16.1815716"><ele>1002.0</ele><time>2026-04-11T11:35:28.692Z</time></trkpt><trkpt lat="38.4227896" lon="16.1817029"><ele>1002.0</ele><time>2026-04-11T11:35:29.691Z</time></trkpt><trkpt lat="38.4228703" lon="16.1818575"><ele>1001.6666666666667</ele><time>2026-04-11T11:35:30.691Z</time></trkpt><trkpt lat="38.4229792" lon="16.1820128"><ele>1001.3333333333334</ele><time>2026-04-11T11:35:31.692Z</time></trkpt><trkpt lat="38.4231143" lon="16.1821533"><ele>1001.0</ele><time>2026-04-11T11:35:32.691Z</time></trkpt><trkpt lat="38.423279" lon="16.182253"><ele>999.3333333333334</ele><time>2026-04-11T11:35:33.692Z</time></trkpt><trkpt lat="38.4234754" lon="16.1823137"><ele>997.6666666666667</ele><time>2026-04-11T11:35:34.691Z</time></trkpt><trkpt lat="38.423689" lon="16.1823491"><ele>996.0</ele><time>2026-04-11T11:35:35.691Z</time></trkpt><trkpt lat="38.4239133" lon="16.1823579"><ele>995.5</ele><time>2026-04-11T11:35:36.692Z</time></trkpt><trkpt lat="38.4241393" lon="16.1823632"><ele>995.0</ele><time>2026-04-11T11:35:37.691Z</time></trkpt><trkpt lat="38.4243716" lon="16.1823624"><ele>995.0</ele><time>2026-04-11T11:35:38.691Z</time></trkpt><trkpt lat="38.4246018" lon="16.1823614"><ele>995.0</ele><time>2026-04-11T11:35:39.691Z</time></trkpt><trkpt lat="38.4248289" lon="16.1823655"><ele>997.3333333333334</ele><time>2026-04-11T11:35:40.691Z</time></trkpt><trkpt lat="38.425041" lon="16.1823759"><ele>999.6666666666667</ele><time>2026-04-11T11:35:41.691Z</time></trkpt><trkpt lat="38.425228" lon="16.1823959"><ele>1002.0</ele><time>2026-04-11T11:35:42.691Z</time></trkpt><trkpt lat="38.4253914" lon="16.1824233"><ele>1003.3333333333333</ele><time>2026-04-11T11:35:43.691Z</time></trkpt><trkpt lat="38.4255417" lon="16.1824785"><ele>1004.6666666666666</ele><time>2026-04-11T11:35:44.691Z</time></trkpt><trkpt lat="38.4256679" lon="16.1825685"><ele>1006.0</ele><time>2026-04-11T11:35:45.692Z</time></trkpt><trkpt lat="38.4257901" lon="16.1826836"><ele>1006.0</ele><time>2026-04-11T11:35:46.692Z</time></trkpt><trkpt lat="38.4259048" lon="16.1828264"><ele>1006.0</ele><time>2026-04-11T11:35:47.691Z</time></trkpt><trkpt lat="38.4259972" lon="16.1829955"><ele>1006.0</ele><time>2026-04-11T11:35:48.691Z</time></trkpt><trkpt lat="38.4260618" lon="16.1831852"><ele>1006.0</ele><time>2026-04-11T11:35:49.691Z</time></trkpt><trkpt lat="38.4260987" lon="16.183391"><ele>1006.0</ele><time>2026-04-11T11:35:50.692Z</time></trkpt><trkpt lat="38.4261356" lon="16.1836027"><ele>1006.0</ele><time>2026-04-11T11:35:51.691Z</time></trkpt><trkpt lat="38.42614" lon="16.1838369"><ele>1006.6666666666666</ele><time>2026-04-11T11:35:52.691Z</time></trkpt><trkpt lat="38.4261283" lon="16.1840906"><ele>1007.3333333333333</ele><time>2026-04-11T11:35:53.691Z</time></trkpt><trkpt lat="38.4261045" lon="16.1843449"><ele>1008.0</ele><time>2026-04-11T11:35:54.691Z</time></trkpt><trkpt lat="38.426096" lon="16.184592"><ele>1008.0</ele><time>2026-04-11T11:35:55.692Z</time></trkpt><trkpt lat="38.4260943" lon="16.1848254"><ele>1008.0</ele><time>2026-04-11T11:35:56.691Z</time></trkpt><trkpt lat="38.4260958" lon="16.1850585"><ele>1008.0</ele><time>2026-04-11T11:35:57.691Z</time></trkpt><trkpt lat="38.4260961" lon="16.1852833"><ele>1006.6666666666667</ele><time>2026-04-11T11:35:58.691Z</time></trkpt><trkpt lat="38.4260802" lon="16.1854933"><ele>1005.3333333333334</ele><time>2026-04-11T11:35:59.692Z</time></trkpt><trkpt lat="38.4260462" lon="16.1856956"><ele>1004.0</ele><time>2026-04-11T11:36:00.691Z</time></trkpt><trkpt lat="38.4259979" lon="16.1858922"><ele>1004.0</ele><time>2026-04-11T11:36:01.691Z</time></trkpt><trkpt lat="38.4259196" lon="16.1860679"><ele>1004.0</ele><time>2026-04-11T11:36:02.691Z</time></trkpt><trkpt lat="38.4258257" lon="16.1862232"><ele>1004.0</ele><time>2026-04-11T11:36:03.692Z</time></trkpt><trkpt lat="38.4257346" lon="16.1863681"><ele>1004.25</ele><time>2026-04-11T11:36:04.691Z</time></trkpt><trkpt lat="38.4256618" lon="16.186513"><ele>1004.5</ele><time>2026-04-11T11:36:05.691Z</time></trkpt><trkpt lat="38.4256198" lon="16.1866556"><ele>1004.75</ele><time>2026-04-11T11:36:06.691Z</time></trkpt><trkpt lat="38.4256038" lon="16.1868007"><ele>1005.0</ele><time>2026-04-11T11:36:07.691Z</time></trkpt><trkpt lat="38.4256206" lon="16.1869527"><ele>1005.0</ele><time>2026-04-11T11:36:08.692Z</time></trkpt><trkpt lat="38.4256878" lon="16.1871001"><ele>1005.0</ele><time>2026-04-11T11:36:09.691Z</time></trkpt><trkpt lat="38.425787" lon="16.1872387"><ele>1005.0</ele><time>2026-04-11T11:36:10.692Z</time></trkpt><trkpt lat="38.4259094" lon="16.1873755"><ele>1005.0</ele><time>2026-04-11T11:36:11.691Z</time></trkpt><trkpt lat="38.4260462" lon="16.1875141"><ele>1003.0</ele><time>2026-04-11T11:36:12.691Z</time></trkpt><trkpt lat="38.426189" lon="16.1876645"><ele>1001.0</ele><time>2026-04-11T11:36:13.692Z</time></trkpt><trkpt lat="38.4263544" lon="16.1878252"><ele>999.0</ele><time>2026-04-11T11:36:14.691Z</time></trkpt><trkpt lat="38.4265174" lon="16.1879909"><ele>999.0</ele><time>2026-04-11T11:36:15.691Z</time></trkpt><trkpt lat="38.4266683" lon="16.1881417"><ele>999.0</ele><time>2026-04-11T11:36:16.691Z</time></trkpt><trkpt lat="38.4268025" lon="16.1882922"><ele>999.0</ele><time>2026-04-11T11:36:17.691Z</time></trkpt><trkpt lat="38.4269221" lon="16.1884446"><ele>998.6666666666667</ele><time>2026-04-11T11:36:18.691Z</time></trkpt><trkpt lat="38.4270375" lon="16.1886016"><ele>998.3333333333334</ele><time>2026-04-11T11:36:19.691Z</time></trkpt><trkpt lat="38.4271443" lon="16.1887707"><ele>998.0</ele><time>2026-04-11T11:36:20.692Z</time></trkpt><trkpt lat="38.427248" lon="16.188956"><ele>998.3333333333334</ele><time>2026-04-11T11:36:21.691Z</time></trkpt><trkpt lat="38.4273252" lon="16.1891401"><ele>998.6666666666667</ele><time>2026-04-11T11:36:22.691Z</time></trkpt><trkpt lat="38.4273891" lon="16.1893291"><ele>999.0</ele><time>2026-04-11T11:36:23.691Z</time></trkpt><trkpt lat="38.4274389" lon="16.1895282"><ele>999.0</ele><time>2026-04-11T11:36:24.692Z</time></trkpt><trkpt lat="38.4274871" lon="16.1897367"><ele>999.0</ele><time>2026-04-11T11:36:25.692Z</time></trkpt><trkpt lat="38.4275103" lon="16.1899412"><ele>999.0</ele><time>2026-04-11T11:36:26.691Z</time></trkpt><trkpt lat="38.4275072" lon="16.1901407"><ele>1000.6666666666667</ele><time>2026-04-11T11:36:27.691Z</time></trkpt><trkpt lat="38.4274761" lon="16.190343"><ele>1002.3333333333334</ele><time>2026-04-11T11:36:28.691Z</time></trkpt><trkpt lat="38.4274224" lon="16.190542"><ele>1004.0</ele><time>2026-04-11T11:36:29.692Z</time></trkpt><trkpt lat="38.4273525" lon="16.1907358"><ele>1006.3333333333334</ele><time>2026-04-11T11:36:30.692Z</time></trkpt><trkpt lat="38.4272692" lon="16.1909338"><ele>1008.6666666666667</ele><time>2026-04-11T11:36:31.691Z</time></trkpt><trkpt lat="38.4271837" lon="16.1911375"><ele>1011.0</ele><time>2026-04-11T11:36:32.691Z</time></trkpt><trkpt lat="38.4271084" lon="16.1913375"><ele>1012.0</ele><time>2026-04-11T11:36:33.691Z</time></trkpt><trkpt lat="38.4270555" lon="16.1915225"><ele>1013.0</ele><time>2026-04-11T11:36:34.691Z</time></trkpt><trkpt lat="38.4270062" lon="16.1917016"><ele>1014.0</ele><time>2026-04-11T11:36:35.692Z</time></trkpt><trkpt lat="38.4269515" lon="16.1918748"><ele>1015.0</ele><time>2026-04-11T11:36:36.691Z</time></trkpt><trkpt lat="38.4268909" lon="16.1920413"><ele>1015.0</ele><time>2026-04-11T11:36:37.692Z</time></trkpt><trkpt lat="38.4268178" lon="16.1922153"><ele>1015.0</ele><time>2026-04-11T11:36:38.692Z</time></trkpt><trkpt lat="38.4267311" lon="16.1923918"><ele>1015.0</ele><time>2026-04-11T11:36:39.692Z</time></trkpt><trkpt lat="38.42664" lon="16.1925737"><ele>1012.3333333333333</ele><time>2026-04-11T11:36:40.691Z</time></trkpt><trkpt lat="38.4265459" lon="16.1927381"><ele>1009.6666666666667</ele><time>2026-04-11T11:36:41.692Z</time></trkpt><trkpt lat="38.4264474" lon="16.1928969"><ele>1007.0</ele><time>2026-04-11T11:36:42.692Z</time></trkpt><trkpt lat="38.4263333" lon="16.1930481"><ele>1007.5</ele><time>2026-04-11T11:36:43.691Z</time></trkpt><trkpt lat="38.4262194" lon="16.1931936"><ele>1008.0</ele><time>2026-04-11T11:36:44.691Z</time></trkpt><trkpt lat="38.4261222" lon="16.1933337"><ele>1008.5</ele><time>2026-04-11T11:36:45.691Z</time></trkpt><trkpt lat="38.4260452" lon="16.1934713"><ele>1009.0</ele><time>2026-04-11T11:36:46.691Z</time></trkpt><trkpt lat="38.4259984" lon="16.1936144"><ele>1009.0</ele><time>2026-04-11T11:36:47.691Z</time></trkpt><trkpt lat="38.4259887" lon="16.1937674"><ele>1009.0</ele><time>2026-04-11T11:36:48.691Z</time></trkpt><trkpt lat="38.4260062" lon="16.1939365"><ele>1009.0</ele><time>2026-04-11T11:36:49.691Z</time></trkpt><trkpt lat="38.4260431" lon="16.1941031"><ele>1009.0</ele><time>2026-04-11T11:36:50.691Z</time></trkpt><trkpt lat="38.4260945" lon="16.1942741"><ele>1009.3333333333333</ele><time>2026-04-11T11:36:51.691Z</time></trkpt><trkpt lat="38.4261744" lon="16.1944381"><ele>1009.6666666666667</ele><time>2026-04-11T11:36:52.692Z</time></trkpt><trkpt lat="38.4262582" lon="16.1946138"><ele>1010.0</ele><time>2026-04-11T11:36:53.691Z</time></trkpt><trkpt lat="38.4263444" lon="16.1947851"><ele>1010.0</ele><time>2026-04-11T11:36:54.691Z</time></trkpt><trkpt lat="38.4264198" lon="16.1949483"><ele>1010.0</ele><time>2026-04-11T11:36:55.691Z</time></trkpt><trkpt lat="38.4264968" lon="16.1951072"><ele>1010.0</ele><time>2026-04-11T11:36:56.691Z</time></trkpt><trkpt lat="38.4265704" lon="16.1952624"><ele>1010.0</ele><time>2026-04-11T11:36:57.691Z</time></trkpt><trkpt lat="38.4266379" lon="16.1954124"><ele>1010.0</ele><time>2026-04-11T11:36:58.692Z</time></trkpt><trkpt lat="38.4267078" lon="16.1955737"><ele>1010.0</ele><time>2026-04-11T11:36:59.691Z</time></trkpt><trkpt lat="38.4267642" lon="16.1957385"><ele>1010.0</ele><time>2026-04-11T11:37:00.691Z</time></trkpt><trkpt lat="38.4268096" lon="16.195903"><ele>1010.0</ele><time>2026-04-11T11:37:01.691Z</time></trkpt><trkpt lat="38.4268404" lon="16.1960707"><ele>1011.5</ele><time>2026-04-11T11:37:02.692Z</time></trkpt><trkpt lat="38.4268608" lon="16.1962462"><ele>1013.0</ele><time>2026-04-11T11:37:03.691Z</time></trkpt><trkpt lat="38.4268644" lon="16.1964257"><ele>1014.5</ele><time>2026-04-11T11:37:04.691Z</time></trkpt><trkpt lat="38.4268607" lon="16.1966203"><ele>1016.0</ele><time>2026-04-11T11:37:05.691Z</time></trkpt><trkpt lat="38.4268656" lon="16.1968026"><ele>1016.0</ele><time>2026-04-11T11:37:06.691Z</time></trkpt><trkpt lat="38.4268718" lon="16.1969768"><ele>1016.0</ele><time>2026-04-11T11:37:07.691Z</time></trkpt><trkpt lat="38.4268843" lon="16.1971461"><ele>1016.0</ele><time>2026-04-11T11:37:08.691Z</time></trkpt><trkpt lat="38.4269077" lon="16.1973103"><ele>1016.0</ele><time>2026-04-11T11:37:09.691Z</time></trkpt><trkpt lat="38.4269382" lon="16.1974713"><ele>1016.0</ele><time>2026-04-11T11:37:10.691Z</time></trkpt><trkpt lat="38.4269958" lon="16.1976278"><ele>1016.0</ele><time>2026-04-11T11:37:11.691Z</time></trkpt><trkpt lat="38.4270729" lon="16.1977805"><ele>1016.0</ele><time>2026-04-11T11:37:12.692Z</time></trkpt><trkpt lat="38.4271588" lon="16.1979232"><ele>1016.0</ele><time>2026-04-11T11:37:13.691Z</time></trkpt><trkpt lat="38.4272576" lon="16.1980669"><ele>1014.6666666666667</ele><time>2026-04-11T11:37:14.691Z</time></trkpt><trkpt lat="38.4273728" lon="16.1982287"><ele>1013.3333333333333</ele><time>2026-04-11T11:37:15.691Z</time></trkpt><trkpt lat="38.4274811" lon="16.1983826"><ele>1012.0</ele><time>2026-04-11T11:37:16.691Z</time></trkpt><trkpt lat="38.4275903" lon="16.1985248"><ele>1012.0</ele><time>2026-04-11T11:37:17.691Z</time></trkpt><trkpt lat="38.4276966" lon="16.1986603"><ele>1012.0</ele><time>2026-04-11T11:37:18.691Z</time></trkpt><trkpt lat="38.4278037" lon="16.1987997"><ele>1012.0</ele><time>2026-04-11T11:37:19.691Z</time></trkpt><trkpt lat="38.4279137" lon="16.1989379"><ele>1012.3333333333333</ele><time>2026-04-11T11:37:20.692Z</time></trkpt><trkpt lat="38.4280214" lon="16.199075"><ele>1012.6666666666667</ele><time>2026-04-11T11:37:21.691Z</time></trkpt><trkpt lat="38.4281292" lon="16.1992111"><ele>1013.0</ele><time>2026-04-11T11:37:22.691Z</time></trkpt><trkpt lat="38.4282358" lon="16.1993541"><ele>1013.0</ele><time>2026-04-11T11:37:23.691Z</time></trkpt><trkpt lat="38.4283353" lon="16.1994931"><ele>1013.0</ele><time>2026-04-11T11:37:24.691Z</time></trkpt><trkpt lat="38.4284215" lon="16.1996349"><ele>1013.0</ele><time>2026-04-11T11:37:25.692Z</time></trkpt><trkpt lat="38.4284969" lon="16.1997741"><ele>1013.0</ele><time>2026-04-11T11:37:26.691Z</time></trkpt><trkpt lat="38.4285627" lon="16.1999282"><ele>1015.5</ele><time>2026-04-11T11:37:27.691Z</time></trkpt><trkpt lat="38.4286175" lon="16.2000936"><ele>1018.0</ele><time>2026-04-11T11:37:28.691Z</time></trkpt><trkpt lat="38.4286593" lon="16.2002535"><ele>1020.5</ele><time>2026-04-11T11:37:29.692Z</time></trkpt><trkpt lat="38.42868" lon="16.2004139"><ele>1023.0</ele><time>2026-04-11T11:37:30.692Z</time></trkpt><trkpt lat="38.4286873" lon="16.2005678"><ele>1025.0</ele><time>2026-04-11T11:37:31.692Z</time></trkpt><trkpt lat="38.4286768" lon="16.2007144"><ele>1027.0</ele><time>2026-04-11T11:37:32.691Z</time></trkpt><trkpt lat="38.4286535" lon="16.2008643"><ele>1029.0</ele><time>2026-04-11T11:37:33.692Z</time></trkpt><trkpt lat="38.4286171" lon="16.2010189"><ele>1031.0</ele><time>2026-04-11T11:37:34.691Z</time></trkpt><trkpt lat="38.4285757" lon="16.2011787"><ele>1031.0</ele><time>2026-04-11T11:37:35.692Z</time></trkpt><trkpt lat="38.4285315" lon="16.2013456"><ele>1031.0</ele><time>2026-04-11T11:37:36.691Z</time></trkpt><trkpt lat="38.4284934" lon="16.2015208"><ele>1031.0</ele><time>2026-04-11T11:37:37.692Z</time></trkpt><trkpt lat="38.4284564" lon="16.2017076"><ele>1031.0</ele><time>2026-04-11T11:37:38.692Z</time></trkpt><trkpt lat="38.4284339" lon="16.2019103"><ele>1031.3333333333335</ele><time>2026-04-11T11:37:39.692Z</time></trkpt><trkpt lat="38.4284315" lon="16.2021113"><ele>1031.6666666666667</ele><time>2026-04-11T11:37:40.691Z</time></trkpt><trkpt lat="38.4284489" lon="16.2023065"><ele>1032.0</ele><time>2026-04-11T11:37:41.691Z</time></trkpt><trkpt lat="38.4284884" lon="16.2025048"><ele>1032.0</ele><time>2026-04-11T11:37:42.692Z</time></trkpt><trkpt lat="38.4285486" lon="16.2027125"><ele>1032.0</ele><time>2026-04-11T11:37:43.692Z</time></trkpt><trkpt lat="38.4286167" lon="16.2029083"><ele>1032.0</ele><time>2026-04-11T11:37:44.692Z</time></trkpt><trkpt lat="38.4287144" lon="16.2031029"><ele>1032.3333333333333</ele><time>2026-04-11T11:37:45.691Z</time></trkpt><trkpt lat="38.4288114" lon="16.2033018"><ele>1032.6666666666665</ele><time>2026-04-11T11:37:46.691Z</time></trkpt><trkpt lat="38.428916" lon="16.2035199"><ele>1033.0</ele><time>2026-04-11T11:37:47.692Z</time></trkpt><trkpt lat="38.4290189" lon="16.2037391"><ele>1033.0</ele><time>2026-04-11T11:37:48.691Z</time></trkpt><trkpt lat="38.4291277" lon="16.2039583"><ele>1033.0</ele><time>2026-04-11T11:37:49.691Z</time></trkpt><trkpt lat="38.4292279" lon="16.2041685"><ele>1033.0</ele><time>2026-04-11T11:37:50.692Z</time></trkpt><trkpt lat="38.4293141" lon="16.2043744"><ele>1032.3333333333333</ele><time>2026-04-11T11:37:51.692Z</time></trkpt><trkpt lat="38.429403" lon="16.2045744"><ele>1031.6666666666667</ele><time>2026-04-11T11:37:52.691Z</time></trkpt><trkpt lat="38.4294914" lon="16.2047666"><ele>1031.0</ele><time>2026-04-11T11:37:53.692Z</time></trkpt><trkpt lat="38.4295827" lon="16.2049587"><ele>1033.6666666666667</ele><time>2026-04-11T11:37:54.691Z</time></trkpt><trkpt lat="38.4296721" lon="16.2051472"><ele>1036.3333333333333</ele><time>2026-04-11T11:37:55.692Z</time></trkpt><trkpt lat="38.4297644" lon="16.205329"><ele>1039.0</ele><time>2026-04-11T11:37:56.691Z</time></trkpt><trkpt lat="38.4298591" lon="16.2054977"><ele>1039.0</ele><time>2026-04-11T11:37:57.691Z</time></trkpt><trkpt lat="38.4299585" lon="16.205656"><ele>1039.0</ele><time>2026-04-11T11:37:58.692Z</time></trkpt><trkpt lat="38.4300671" lon="16.2058059"><ele>1039.0</ele><time>2026-04-11T11:37:59.692Z</time></trkpt><trkpt lat="38.4301988" lon="16.2059296"><ele>1039.6666666666665</ele><time>2026-04-11T11:38:00.691Z</time></trkpt><trkpt lat="38.4303375" lon="16.206037"><ele>1040.3333333333333</ele><time>2026-04-11T11:38:01.691Z</time></trkpt><trkpt lat="38.4304809" lon="16.2061437"><ele>1041.0</ele><time>2026-04-11T11:38:02.692Z</time></trkpt><trkpt lat="38.4306305" lon="16.2062527"><ele>1041.0</ele><time>2026-04-11T11:38:03.691Z</time></trkpt><trkpt lat="38.4307721" lon="16.2063669"><ele>1041.0</ele><time>2026-04-11T11:38:04.691Z</time></trkpt><trkpt lat="38.4309097" lon="16.2064944"><ele>1041.0</ele><time>2026-04-11T11:38:05.691Z</time></trkpt><trkpt lat="38.4310381" lon="16.2066406"><ele>1041.6666666666667</ele><time>2026-04-11T11:38:06.691Z</time></trkpt><trkpt lat="38.4311549" lon="16.206801"><ele>1042.3333333333335</ele><time>2026-04-11T11:38:07.691Z</time></trkpt><trkpt lat="38.4312563" lon="16.2069692"><ele>1043.0</ele><time>2026-04-11T11:38:08.692Z</time></trkpt><trkpt lat="38.4313483" lon="16.2071544"><ele>1040.6666666666667</ele><time>2026-04-11T11:38:09.691Z</time></trkpt><trkpt lat="38.4314196" lon="16.2073599"><ele>1038.3333333333333</ele><time>2026-04-11T11:38:10.692Z</time></trkpt><trkpt lat="38.4314854" lon="16.2075727"><ele>1036.0</ele><time>2026-04-11T11:38:11.691Z</time></trkpt><trkpt lat="38.4315394" lon="16.2078048"><ele>1036.0</ele><time>2026-04-11T11:38:12.691Z</time></trkpt><trkpt lat="38.4315872" lon="16.208042"><ele>1036.0</ele><time>2026-04-11T11:38:13.691Z</time></trkpt><trkpt lat="38.431634" lon="16.2082798"><ele>1036.0</ele><time>2026-04-11T11:38:14.691Z</time></trkpt><trkpt lat="38.4316822" lon="16.2085156"><ele>1035.6666666666665</ele><time>2026-04-11T11:38:15.691Z</time></trkpt><trkpt lat="38.43172" lon="16.2087447"><ele>1035.3333333333333</ele><time>2026-04-11T11:38:16.691Z</time></trkpt><trkpt lat="38.4317563" lon="16.2089738"><ele>1035.0</ele><time>2026-04-11T11:38:17.691Z</time></trkpt><trkpt lat="38.4317997" lon="16.2092017"><ele>1036.3333333333333</ele><time>2026-04-11T11:38:18.692Z</time></trkpt><trkpt lat="38.4318499" lon="16.2094284"><ele>1037.6666666666665</ele><time>2026-04-11T11:38:19.692Z</time></trkpt><trkpt lat="38.4319" lon="16.2096424"><ele>1039.0</ele><time>2026-04-11T11:38:20.691Z</time></trkpt><trkpt lat="38.4319565" lon="16.2098414"><ele>1041.0</ele><time>2026-04-11T11:38:21.691Z</time></trkpt><trkpt lat="38.4320181" lon="16.2100367"><ele>1043.0</ele><time>2026-04-11T11:38:22.692Z</time></trkpt><trkpt lat="38.4320986" lon="16.2102292"><ele>1045.0</ele><time>2026-04-11T11:38:23.691Z</time></trkpt><trkpt lat="38.4322007" lon="16.2104088"><ele>1048.0</ele><time>2026-04-11T11:38:24.691Z</time></trkpt><trkpt lat="38.4323189" lon="16.2105768"><ele>1051.0</ele><time>2026-04-11T11:38:25.691Z</time></trkpt><trkpt lat="38.432453" lon="16.2107283"><ele>1054.0</ele><time>2026-04-11T11:38:26.692Z</time></trkpt><trkpt lat="38.4325928" lon="16.2108666"><ele>1054.0</ele><time>2026-04-11T11:38:27.692Z</time></trkpt><trkpt lat="38.432744" lon="16.2110009"><ele>1054.0</ele><time>2026-04-11T11:38:28.691Z</time></trkpt><trkpt lat="38.4328933" lon="16.2111317"><ele>1054.0</ele><time>2026-04-11T11:38:29.691Z</time></trkpt><trkpt lat="38.433031" lon="16.2112682"><ele>1054.3333333333333</ele><time>2026-04-11T11:38:30.692Z</time></trkpt><trkpt lat="38.4331438" lon="16.211417"><ele>1054.6666666666667</ele><time>2026-04-11T11:38:31.691Z</time></trkpt><trkpt lat="38.4332369" lon="16.211601"><ele>1055.0</ele><time>2026-04-11T11:38:32.691Z</time></trkpt><trkpt lat="38.433301" lon="16.2118161"><ele>1051.3333333333335</ele><time>2026-04-11T11:38:33.691Z</time></trkpt><trkpt lat="38.4333342" lon="16.2120552"><ele>1047.6666666666667</ele><time>2026-04-11T11:38:34.691Z</time></trkpt><trkpt lat="38.4333298" lon="16.2122887"><ele>1044.0</ele><time>2026-04-11T11:38:35.691Z</time></trkpt><trkpt lat="38.4332946" lon="16.2125212"><ele>1044.0</ele><time>2026-04-11T11:38:36.691Z</time></trkpt><trkpt lat="38.4332332" lon="16.2127393"><ele>1044.0</ele><time>2026-04-11T11:38:37.692Z</time></trkpt><trkpt lat="38.4331517" lon="16.2129315"><ele>1044.0</ele><time>2026-04-11T11:38:38.692Z</time></trkpt><trkpt lat="38.4330609" lon="16.2131414"><ele>1043.25</ele><time>2026-04-11T11:38:39.691Z</time></trkpt><trkpt lat="38.4329885" lon="16.2133225"><ele>1042.5</ele><time>2026-04-11T11:38:40.691Z</time></trkpt><trkpt lat="38.4329555" lon="16.213484"><ele>1041.75</ele><time>2026-04-11T11:38:41.691Z</time></trkpt><trkpt lat="38.4329676" lon="16.2136337"><ele>1041.0</ele><time>2026-04-11T11:38:42.692Z</time></trkpt><trkpt lat="38.4330216" lon="16.2137876"><ele>1043.6666666666667</ele><time>2026-04-11T11:38:43.692Z</time></trkpt><trkpt lat="38.4331129" lon="16.2139295"><ele>1046.3333333333335</ele><time>2026-04-11T11:38:44.691Z</time></trkpt><trkpt lat="38.4332252" lon="16.2140813"><ele>1049.0</ele><time>2026-04-11T11:38:45.691Z</time></trkpt><trkpt lat="38.433339" lon="16.2142426"><ele>1049.0</ele><time>2026-04-11T11:38:46.692Z</time></trkpt><trkpt lat="38.4334618" lon="16.2143997"><ele>1049.0</ele><time>2026-04-11T11:38:47.691Z</time></trkpt><trkpt lat="38.4335812" lon="16.2145455"><ele>1049.0</ele><time>2026-04-11T11:38:48.691Z</time></trkpt><trkpt lat="38.4337012" lon="16.2146924"><ele>1051.0</ele><time>2026-04-11T11:38:49.691Z</time></trkpt><trkpt lat="38.4338164" lon="16.2148424"><ele>1053.0</ele><time>2026-04-11T11:38:50.691Z</time></trkpt><trkpt lat="38.4339358" lon="16.2149885"><ele>1055.0</ele><time>2026-04-11T11:38:51.692Z</time></trkpt><trkpt lat="38.4340624" lon="16.2151268"><ele>1055.0</ele><time>2026-04-11T11:38:52.692Z</time></trkpt><trkpt lat="38.4341888" lon="16.2152527"><ele>1055.0</ele><time>2026-04-11T11:38:53.691Z</time></trkpt><trkpt lat="38.4343276" lon="16.2153769"><ele>1055.0</ele><time>2026-04-11T11:38:54.692Z</time></trkpt><trkpt lat="38.4344751" lon="16.2154978"><ele>1055.0</ele><time>2026-04-11T11:38:55.691Z</time></trkpt><trkpt lat="38.4346375" lon="16.215582"><ele>1055.0</ele><time>2026-04-11T11:38:56.691Z</time></trkpt><trkpt lat="38.434805" lon="16.2156476"><ele>1055.0</ele><time>2026-04-11T11:38:57.691Z</time></trkpt><trkpt lat="38.4349794" lon="16.2156911"><ele>1057.3333333333335</ele><time>2026-04-11T11:38:58.692Z</time></trkpt><trkpt lat="38.435152" lon="16.2157156"><ele>1059.6666666666667</ele><time>2026-04-11T11:38:59.692Z</time></trkpt><trkpt lat="38.4353297" lon="16.2157097"><ele>1062.0</ele><time>2026-04-11T11:39:00.692Z</time></trkpt><trkpt lat="38.4355022" lon="16.2156809"><ele>1061.3333333333333</ele><time>2026-04-11T11:39:01.691Z</time></trkpt><trkpt lat="38.4356598" lon="16.2156457"><ele>1060.6666666666665</ele><time>2026-04-11T11:39:02.692Z</time></trkpt><trkpt lat="38.4358121" lon="16.2156003"><ele>1060.0</ele><time>2026-04-11T11:39:03.691Z</time></trkpt><trkpt lat="38.4359658" lon="16.2155503"><ele>1060.0</ele><time>2026-04-11T11:39:04.692Z</time></trkpt><trkpt lat="38.4361197" lon="16.2155015"><ele>1060.0</ele><time>2026-04-11T11:39:05.692Z</time></trkpt><trkpt lat="38.4362694" lon="16.2154639"><ele>1060.0</ele><time>2026-04-11T11:39:06.692Z</time></trkpt><trkpt lat="38.4364119" lon="16.2154508"><ele>1058.0</ele><time>2026-04-11T11:39:07.691Z</time></trkpt><trkpt lat="38.4365422" lon="16.215471"><ele>1056.0</ele><time>2026-04-11T11:39:08.692Z</time></trkpt><trkpt lat="38.4366651" lon="16.2155511"><ele>1054.0</ele><time>2026-04-11T11:39:09.691Z</time></trkpt><trkpt lat="38.4367745" lon="16.215672"><ele>1052.0</ele><time>2026-04-11T11:39:10.691Z</time></trkpt><trkpt lat="38.4368749" lon="16.2158188"><ele>1057.0</ele><time>2026-04-11T11:39:11.692Z</time></trkpt><trkpt lat="38.4369445" lon="16.2159742"><ele>1062.0</ele><time>2026-04-11T11:39:12.692Z</time></trkpt><trkpt lat="38.4369827" lon="16.2161379"><ele>1067.0</ele><time>2026-04-11T11:39:13.692Z</time></trkpt><trkpt lat="38.4369887" lon="16.2163058"><ele>1072.0</ele><time>2026-04-11T11:39:14.692Z</time></trkpt><trkpt lat="38.4369745" lon="16.2164845"><ele>1073.5</ele><time>2026-04-11T11:39:15.691Z</time></trkpt><trkpt lat="38.4369341" lon="16.2166466"><ele>1075.0</ele><time>2026-04-11T11:39:16.691Z</time></trkpt><trkpt lat="38.4368583" lon="16.2168072"><ele>1076.5</ele><time>2026-04-11T11:39:17.692Z</time></trkpt><trkpt lat="38.4367691" lon="16.2169513"><ele>1078.0</ele><time>2026-04-11T11:39:18.691Z</time></trkpt><trkpt lat="38.4366509" lon="16.2171104"><ele>1078.0</ele><time>2026-04-11T11:39:19.692Z</time></trkpt><trkpt lat="38.4365347" lon="16.2172796"><ele>1078.0</ele><time>2026-04-11T11:39:20.692Z</time></trkpt><trkpt lat="38.4364218" lon="16.2174466"><ele>1078.0</ele><time>2026-04-11T11:39:21.691Z</time></trkpt><trkpt lat="38.4363117" lon="16.2176197"><ele>1078.6666666666665</ele><time>2026-04-11T11:39:22.691Z</time></trkpt><trkpt lat="38.4362105" lon="16.2177807"><ele>1079.3333333333333</ele><time>2026-04-11T11:39:23.692Z</time></trkpt><trkpt lat="38.436114" lon="16.2179383"><ele>1080.0</ele><time>2026-04-11T11:39:24.691Z</time></trkpt><trkpt lat="38.4360328" lon="16.2181036"><ele>1080.75</ele><time>2026-04-11T11:39:25.692Z</time></trkpt><trkpt lat="38.4359777" lon="16.2182689"><ele>1081.5</ele><time>2026-04-11T11:39:26.691Z</time></trkpt><trkpt lat="38.4359472" lon="16.2184378"><ele>1082.25</ele><time>2026-04-11T11:39:27.691Z</time></trkpt><trkpt lat="38.4359497" lon="16.2186063"><ele>1083.0</ele><time>2026-04-11T11:39:28.691Z</time></trkpt><trkpt lat="38.435979" lon="16.2187683"><ele>1083.0</ele><time>2026-04-11T11:39:29.691Z</time></trkpt><trkpt lat="38.436015" lon="16.2189241"><ele>1083.0</ele><time>2026-04-11T11:39:30.691Z</time></trkpt><trkpt lat="38.4360709" lon="16.2190932"><ele>1083.0</ele><time>2026-04-11T11:39:31.691Z</time></trkpt><trkpt lat="38.4361321" lon="16.2192673"><ele>1083.0</ele><time>2026-04-11T11:39:32.691Z</time></trkpt><trkpt lat="38.436181" lon="16.2194407"><ele>1082.5</ele><time>2026-04-11T11:39:33.691Z</time></trkpt><trkpt lat="38.4362169" lon="16.219615"><ele>1082.0</ele><time>2026-04-11T11:39:34.692Z</time></trkpt><trkpt lat="38.4362503" lon="16.2197982"><ele>1081.5</ele><time>2026-04-11T11:39:35.692Z</time></trkpt><trkpt lat="38.4362867" lon="16.2199842"><ele>1081.0</ele><time>2026-04-11T11:39:36.691Z</time></trkpt><trkpt lat="38.4363189" lon="16.2201859"><ele>1081.0</ele><time>2026-04-11T11:39:37.692Z</time></trkpt><trkpt lat="38.4363276" lon="16.2203762"><ele>1081.0</ele><time>2026-04-11T11:39:38.692Z</time></trkpt><trkpt lat="38.4363125" lon="16.2205598"><ele>1081.0</ele><time>2026-04-11T11:39:39.692Z</time></trkpt><trkpt lat="38.4362768" lon="16.2207032"><ele>1081.0</ele><time>2026-04-11T11:39:40.691Z</time></trkpt><trkpt lat="38.4362068" lon="16.2208158"><ele>1085.75</ele><time>2026-04-11T11:39:41.692Z</time></trkpt><trkpt lat="38.4361079" lon="16.2208974"><ele>1090.5</ele><time>2026-04-11T11:39:42.691Z</time></trkpt><trkpt lat="38.4359932" lon="16.2209305"><ele>1095.25</ele><time>2026-04-11T11:39:43.692Z</time></trkpt><trkpt lat="38.4358817" lon="16.2209256"><ele>1100.0</ele><time>2026-04-11T11:39:44.692Z</time></trkpt><trkpt lat="38.4357503" lon="16.2208926"><ele>1100.0</ele><time>2026-04-11T11:39:45.691Z</time></trkpt><trkpt lat="38.4356197" lon="16.2208508"><ele>1100.0</ele><time>2026-04-11T11:39:46.691Z</time></trkpt><trkpt lat="38.4354887" lon="16.2207933"><ele>1100.0</ele><time>2026-04-11T11:39:47.692Z</time></trkpt><trkpt lat="38.4353543" lon="16.2207403"><ele>1100.0</ele><time>2026-04-11T11:39:48.691Z</time></trkpt><trkpt lat="38.4352212" lon="16.2206954"><ele>1103.0</ele><time>2026-04-11T11:39:49.691Z</time></trkpt><trkpt lat="38.4350888" lon="16.2206679"><ele>1106.0</ele><time>2026-04-11T11:39:50.691Z</time></trkpt><trkpt lat="38.4349603" lon="16.2206653"><ele>1109.0</ele><time>2026-04-11T11:39:51.692Z</time></trkpt><trkpt lat="38.4348279" lon="16.2206905"><ele>1112.0</ele><time>2026-04-11T11:39:52.691Z</time></trkpt><trkpt lat="38.4347027" lon="16.2207527"><ele>1113.0</ele><time>2026-04-11T11:39:53.692Z</time></trkpt><trkpt lat="38.4345876" lon="16.2208541"><ele>1114.0</ele><time>2026-04-11T11:39:54.691Z</time></trkpt><trkpt lat="38.4344924" lon="16.2209888"><ele>1115.0</ele><time>2026-04-11T11:39:55.691Z</time></trkpt><trkpt lat="38.4344075" lon="16.2211506"><ele>1116.0</ele><time>2026-04-11T11:39:56.691Z</time></trkpt><trkpt lat="38.4343284" lon="16.2213218"><ele>1115.3333333333333</ele><time>2026-04-11T11:39:57.691Z</time></trkpt><trkpt lat="38.4342514" lon="16.2215126"><ele>1114.6666666666665</ele><time>2026-04-11T11:39:58.692Z</time></trkpt><trkpt lat="38.434163" lon="16.2216867"><ele>1114.0</ele><time>2026-04-11T11:39:59.692Z</time></trkpt><trkpt lat="38.4340689" lon="16.221858"><ele>1114.0</ele><time>2026-04-11T11:40:00.691Z</time></trkpt><trkpt lat="38.433975" lon="16.2220303"><ele>1114.0</ele><time>2026-04-11T11:40:01.692Z</time></trkpt><trkpt lat="38.4338938" lon="16.2221829"><ele>1114.0</ele><time>2026-04-11T11:40:02.691Z</time></trkpt><trkpt lat="38.4338379" lon="16.2223256"><ele>1114.0</ele><time>2026-04-11T11:40:03.691Z</time></trkpt><trkpt lat="38.4338136" lon="16.2224639"><ele>1114.2</ele><time>2026-04-11T11:40:04.691Z</time></trkpt><trkpt lat="38.4338299" lon="16.2226011"><ele>1114.4</ele><time>2026-04-11T11:40:05.691Z</time></trkpt><trkpt lat="38.4338655" lon="16.2227255"><ele>1114.6</ele><time>2026-04-11T11:40:06.691Z</time></trkpt><trkpt lat="38.4339131" lon="16.2228272"><ele>1114.8</ele><time>2026-04-11T11:40:07.691Z</time></trkpt><trkpt lat="38.4339778" lon="16.2229167"><ele>1115.0</ele><time>2026-04-11T11:40:08.691Z</time></trkpt><trkpt lat="38.4340716" lon="16.223003"><ele>1115.0</ele><time>2026-04-11T11:40:09.692Z</time></trkpt><trkpt lat="38.4341849" lon="16.2230895"><ele>1115.0</ele><time>2026-04-11T11:40:10.692Z</time></trkpt><trkpt lat="38.4343036" lon="16.223172"><ele>1115.0</ele><time>2026-04-11T11:40:11.692Z</time></trkpt><trkpt lat="38.4344245" lon="16.2232586"><ele>1115.0</ele><time>2026-04-11T11:40:12.692Z</time></trkpt><trkpt lat="38.4345538" lon="16.2233452"><ele>1112.6666666666667</ele><time>2026-04-11T11:40:13.691Z</time></trkpt><trkpt lat="38.4346785" lon="16.2234334"><ele>1110.3333333333333</ele><time>2026-04-11T11:40:14.691Z</time></trkpt><trkpt lat="38.4348151" lon="16.2235236"><ele>1108.0</ele><time>2026-04-11T11:40:15.691Z</time></trkpt><trkpt lat="38.4349556" lon="16.2236219"><ele>1108.0</ele><time>2026-04-11T11:40:16.691Z</time></trkpt><trkpt lat="38.4350923" lon="16.2237387"><ele>1108.0</ele><time>2026-04-11T11:40:17.691Z</time></trkpt><trkpt lat="38.4352206" lon="16.2238665"><ele>1108.0</ele><time>2026-04-11T11:40:18.691Z</time></trkpt><trkpt lat="38.4353306" lon="16.2240013"><ele>1108.0</ele><time>2026-04-11T11:40:19.692Z</time></trkpt><trkpt lat="38.4354068" lon="16.224151"><ele>1108.0</ele><time>2026-04-11T11:40:20.691Z</time></trkpt><trkpt lat="38.4354569" lon="16.2243126"><ele>1108.0</ele><time>2026-04-11T11:40:21.691Z</time></trkpt><trkpt lat="38.4354747" lon="16.2244743"><ele>1108.0</ele><time>2026-04-11T11:40:22.691Z</time></trkpt><trkpt lat="38.4354536" lon="16.2246346"><ele>1108.5</ele><time>2026-04-11T11:40:23.691Z</time></trkpt><trkpt lat="38.4354008" lon="16.2247949"><ele>1109.0</ele><time>2026-04-11T11:40:24.691Z</time></trkpt><trkpt lat="38.4353331" lon="16.224966"><ele>1109.5</ele><time>2026-04-11T11:40:25.691Z</time></trkpt><trkpt lat="38.4352749" lon="16.2251434"><ele>1110.0</ele><time>2026-04-11T11:40:26.691Z</time></trkpt><trkpt lat="38.4352377" lon="16.2253206"><ele>1112.25</ele><time>2026-04-11T11:40:27.69Z</time></trkpt><trkpt lat="38.4352145" lon="16.2254853"><ele>1114.5</ele><time>2026-04-11T11:40:28.69Z</time></trkpt><trkpt lat="38.4352067" lon="16.2256447"><ele>1116.75</ele><time>2026-04-11T11:40:29.69Z</time></trkpt><trkpt lat="38.4352204" lon="16.225808"><ele>1119.0</ele><time>2026-04-11T11:40:30.691Z</time></trkpt><trkpt lat="38.4352583" lon="16.2259718"><ele>1120.5</ele><time>2026-04-11T11:40:31.69Z</time></trkpt><trkpt lat="38.4353156" lon="16.2261361"><ele>1122.0</ele><time>2026-04-11T11:40:32.691Z</time></trkpt><trkpt lat="38.4353873" lon="16.2262904"><ele>1123.5</ele><time>2026-04-11T11:40:33.691Z</time></trkpt><trkpt lat="38.4354691" lon="16.2264461"><ele>1125.0</ele><time>2026-04-11T11:40:34.69Z</time></trkpt><trkpt lat="38.4355523" lon="16.2266075"><ele>1125.0</ele><time>2026-04-11T11:40:35.691Z</time></trkpt><trkpt lat="38.4356367" lon="16.226766"><ele>1125.0</ele><time>2026-04-11T11:40:36.691Z</time></trkpt><trkpt lat="38.4357167" lon="16.2269313"><ele>1125.0</ele><time>2026-04-11T11:40:37.69Z</time></trkpt><trkpt lat="38.4357968" lon="16.2270869"><ele>1125.0</ele><time>2026-04-11T11:40:38.69Z</time></trkpt><trkpt lat="38.4358786" lon="16.2272371"><ele>1124.25</ele><time>2026-04-11T11:40:39.69Z</time></trkpt><trkpt lat="38.4359622" lon="16.2273911"><ele>1123.5</ele><time>2026-04-11T11:40:40.69Z</time></trkpt><trkpt lat="38.4360449" lon="16.2275443"><ele>1122.75</ele><time>2026-04-11T11:40:41.69Z</time></trkpt><trkpt lat="38.4361244" lon="16.2276991"><ele>1122.0</ele><time>2026-04-11T11:40:42.69Z</time></trkpt><trkpt lat="38.4362014" lon="16.2278568"><ele>1122.0</ele><time>2026-04-11T11:40:43.69Z</time></trkpt><trkpt lat="38.4362787" lon="16.2280167"><ele>1122.0</ele><time>2026-04-11T11:40:44.691Z</time></trkpt><trkpt lat="38.4363568" lon="16.2281745"><ele>1122.0</ele><time>2026-04-11T11:40:45.69Z</time></trkpt><trkpt lat="38.4364296" lon="16.2283394"><ele>1122.0</ele><time>2026-04-11T11:40:46.691Z</time></trkpt><trkpt lat="38.4364901" lon="16.2285127"><ele>1122.5</ele><time>2026-04-11T11:40:47.69Z</time></trkpt><trkpt lat="38.4365342" lon="16.2286893"><ele>1123.0</ele><time>2026-04-11T11:40:48.69Z</time></trkpt><trkpt lat="38.4365532" lon="16.2288743"><ele>1123.5</ele><time>2026-04-11T11:40:49.69Z</time></trkpt><trkpt lat="38.4365398" lon="16.2290577"><ele>1124.0</ele><time>2026-04-11T11:40:50.69Z</time></trkpt><trkpt lat="38.4364672" lon="16.2292335"><ele>1124.0</ele><time>2026-04-11T11:40:51.69Z</time></trkpt><trkpt lat="38.4363736" lon="16.2293902"><ele>1124.0</ele><time>2026-04-11T11:40:52.69Z</time></trkpt><trkpt lat="38.4362739" lon="16.2295376"><ele>1124.0</ele><time>2026-04-11T11:40:53.69Z</time></trkpt><trkpt lat="38.4361743" lon="16.2296921"><ele>1127.6666666666667</ele><time>2026-04-11T11:40:54.69Z</time></trkpt><trkpt lat="38.4360837" lon="16.2298533"><ele>1131.3333333333333</ele><time>2026-04-11T11:40:55.69Z</time></trkpt><trkpt lat="38.4360116" lon="16.2300281"><ele>1135.0</ele><time>2026-04-11T11:40:56.69Z</time></trkpt><trkpt lat="38.4359823" lon="16.2302069"><ele>1135.0</ele><time>2026-04-11T11:40:57.691Z</time></trkpt><trkpt lat="38.435987" lon="16.2303867"><ele>1135.0</ele><time>2026-04-11T11:40:58.691Z</time></trkpt><trkpt lat="38.4360124" lon="16.230556"><ele>1135.0</ele><time>2026-04-11T11:40:59.69Z</time></trkpt><trkpt lat="38.436062" lon="16.2307249"><ele>1135.0</ele><time>2026-04-11T11:41:00.691Z</time></trkpt><trkpt lat="38.4361182" lon="16.2308989"><ele>1136.0</ele><time>2026-04-11T11:41:01.69Z</time></trkpt><trkpt lat="38.4361734" lon="16.23107"><ele>1137.0</ele><time>2026-04-11T11:41:02.69Z</time></trkpt><trkpt lat="38.4362246" lon="16.2312386"><ele>1138.0</ele><time>2026-04-11T11:41:03.691Z</time></trkpt><trkpt lat="38.436276" lon="16.2314068"><ele>1139.0</ele><time>2026-04-11T11:41:04.69Z</time></trkpt><trkpt lat="38.4363319" lon="16.231572"><ele>1137.0</ele><time>2026-04-11T11:41:05.69Z</time></trkpt><trkpt lat="38.4363874" lon="16.2317323"><ele>1135.0</ele><time>2026-04-11T11:41:06.691Z</time></trkpt><trkpt lat="38.4364398" lon="16.231888"><ele>1133.0</ele><time>2026-04-11T11:41:07.691Z</time></trkpt><trkpt lat="38.4364823" lon="16.2320465"><ele>1131.0</ele><time>2026-04-11T11:41:08.691Z</time></trkpt><trkpt lat="38.4365198" lon="16.232207"><ele>1131.25</ele><time>2026-04-11T11:41:09.691Z</time></trkpt><trkpt lat="38.4365574" lon="16.2323534"><ele>1131.5</ele><time>2026-04-11T11:41:10.691Z</time></trkpt><trkpt lat="38.4366032" lon="16.2324862"><ele>1131.75</ele><time>2026-04-11T11:41:11.69Z</time></trkpt><trkpt lat="38.4366577" lon="16.2326066"><ele>1132.0</ele><time>2026-04-11T11:41:12.691Z</time></trkpt><trkpt lat="38.4367336" lon="16.2327116"><ele>1132.0</ele><time>2026-04-11T11:41:13.69Z</time></trkpt><trkpt lat="38.4368235" lon="16.2328004"><ele>1132.0</ele><time>2026-04-11T11:41:14.691Z</time></trkpt><trkpt lat="38.4369272" lon="16.2328769"><ele>1132.0</ele><time>2026-04-11T11:41:15.691Z</time></trkpt><trkpt lat="38.437048" lon="16.2329485"><ele>1132.0</ele><time>2026-04-11T11:41:16.69Z</time></trkpt><trkpt lat="38.4371682" lon="16.2330159"><ele>1131.0</ele><time>2026-04-11T11:41:17.69Z</time></trkpt><trkpt lat="38.4373071" lon="16.2330768"><ele>1130.0</ele><time>2026-04-11T11:41:18.69Z</time></trkpt><trkpt lat="38.4374514" lon="16.2331367"><ele>1129.0</ele><time>2026-04-11T11:41:19.69Z</time></trkpt><trkpt lat="38.4375864" lon="16.2332057"><ele>1128.0</ele><time>2026-04-11T11:41:20.69Z</time></trkpt><trkpt lat="38.4377199" lon="16.2332806"><ele>1127.3333333333333</ele><time>2026-04-11T11:41:21.69Z</time></trkpt><trkpt lat="38.4378592" lon="16.2333592"><ele>1126.6666666666665</ele><time>2026-04-11T11:41:22.69Z</time></trkpt><trkpt lat="38.4379968" lon="16.2334339"><ele>1126.0</ele><time>2026-04-11T11:41:23.691Z</time></trkpt><trkpt lat="38.4381361" lon="16.2335045"><ele>1122.75</ele><time>2026-04-11T11:41:24.69Z</time></trkpt><trkpt lat="38.4382711" lon="16.2335747"><ele>1119.5</ele><time>2026-04-11T11:41:25.691Z</time></trkpt><trkpt lat="38.4383962" lon="16.2336381"><ele>1116.25</ele><time>2026-04-11T11:41:26.69Z</time></trkpt><trkpt lat="38.4385099" lon="16.233698"><ele>1113.0</ele><time>2026-04-11T11:41:27.691Z</time></trkpt><trkpt lat="38.4386073" lon="16.2337472"><ele>1113.0</ele><time>2026-04-11T11:41:28.69Z</time></trkpt><trkpt lat="38.4387024" lon="16.233787"><ele>1113.0</ele><time>2026-04-11T11:41:29.69Z</time></trkpt><trkpt lat="38.4387945" lon="16.2338211"><ele>1113.0</ele><time>2026-04-11T11:41:30.69Z</time></trkpt><trkpt lat="38.4388886" lon="16.233856"><ele>1113.0</ele><time>2026-04-11T11:41:31.69Z</time></trkpt><trkpt lat="38.4389771" lon="16.233891"><ele>1113.0</ele><time>2026-04-11T11:41:32.691Z</time></trkpt><trkpt lat="38.4390581" lon="16.2339407"><ele>1113.0</ele><time>2026-04-11T11:41:33.691Z</time></trkpt><trkpt lat="38.4391287" lon="16.2340065"><ele>1113.0</ele><time>2026-04-11T11:41:34.691Z</time></trkpt><trkpt lat="38.4391834" lon="16.2340923"><ele>1113.0</ele><time>2026-04-11T11:41:35.691Z</time></trkpt><trkpt lat="38.4392248" lon="16.2342024"><ele>1113.0</ele><time>2026-04-11T11:41:36.691Z</time></trkpt><trkpt lat="38.4392605" lon="16.2343315"><ele>1113.0</ele><time>2026-04-11T11:41:37.691Z</time></trkpt><trkpt lat="38.4392945" lon="16.2344691"><ele>1113.0</ele><time>2026-04-11T11:41:38.69Z</time></trkpt><trkpt lat="38.439327" lon="16.2346069"><ele>1113.0</ele><time>2026-04-11T11:41:39.691Z</time></trkpt><trkpt lat="38.4393497" lon="16.2347481"><ele>1113.0</ele><time>2026-04-11T11:41:40.691Z</time></trkpt><trkpt lat="38.439363" lon="16.2348981"><ele>1113.0</ele><time>2026-04-11T11:41:41.69Z</time></trkpt><trkpt lat="38.4393646" lon="16.2350441"><ele>1112.25</ele><time>2026-04-11T11:41:42.691Z</time></trkpt><trkpt lat="38.4393493" lon="16.2352032"><ele>1111.5</ele><time>2026-04-11T11:41:43.691Z</time></trkpt><trkpt lat="38.4393248" lon="16.2353747"><ele>1110.75</ele><time>2026-04-11T11:41:44.69Z</time></trkpt><trkpt lat="38.4392902" lon="16.2355588"><ele>1110.0</ele><time>2026-04-11T11:41:45.69Z</time></trkpt><trkpt lat="38.439249" lon="16.2357586"><ele>1108.6666666666667</ele><time>2026-04-11T11:41:46.69Z</time></trkpt><trkpt lat="38.4392165" lon="16.2359659"><ele>1107.3333333333335</ele><time>2026-04-11T11:41:47.691Z</time></trkpt><trkpt lat="38.4391833" lon="16.2361807"><ele>1106.0</ele><time>2026-04-11T11:41:48.69Z</time></trkpt><trkpt lat="38.4391458" lon="16.2363921"><ele>1106.0</ele><time>2026-04-11T11:41:49.69Z</time></trkpt><trkpt lat="38.4391114" lon="16.2366048"><ele>1106.0</ele><time>2026-04-11T11:41:50.691Z</time></trkpt><trkpt lat="38.4390864" lon="16.2367997"><ele>1106.0</ele><time>2026-04-11T11:41:51.691Z</time></trkpt><trkpt lat="38.4390737" lon="16.236966"><ele>1106.0</ele><time>2026-04-11T11:41:52.69Z</time></trkpt><trkpt lat="38.4390668" lon="16.2371147"><ele>1106.0</ele><time>2026-04-11T11:41:53.69Z</time></trkpt><trkpt lat="38.4390494" lon="16.2372507"><ele>1106.0</ele><time>2026-04-11T11:41:54.69Z</time></trkpt><trkpt lat="38.4390126" lon="16.2373895"><ele>1106.0</ele><time>2026-04-11T11:41:55.691Z</time></trkpt><trkpt lat="38.438963" lon="16.2375277"><ele>1105.5</ele><time>2026-04-11T11:41:56.69Z</time></trkpt><trkpt lat="38.4389025" lon="16.2376756"><ele>1105.0</ele><time>2026-04-11T11:41:57.691Z</time></trkpt><trkpt lat="38.4388349" lon="16.2378228"><ele>1104.5</ele><time>2026-04-11T11:41:58.691Z</time></trkpt><trkpt lat="38.438762" lon="16.237969"><ele>1104.0</ele><time>2026-04-11T11:41:59.691Z</time></trkpt><trkpt lat="38.4386899" lon="16.2381259"><ele>1105.0</ele><time>2026-04-11T11:42:00.691Z</time></trkpt><trkpt lat="38.4386127" lon="16.2382832"><ele>1106.0</ele><time>2026-04-11T11:42:01.69Z</time></trkpt><trkpt lat="38.4385381" lon="16.2384417"><ele>1107.0</ele><time>2026-04-11T11:42:02.69Z</time></trkpt><trkpt lat="38.4384632" lon="16.2385962"><ele>1108.0</ele><time>2026-04-11T11:42:03.69Z</time></trkpt><trkpt lat="38.4384003" lon="16.2387467"><ele>1108.0</ele><time>2026-04-11T11:42:04.69Z</time></trkpt><trkpt lat="38.4383476" lon="16.2389013"><ele>1108.0</ele><time>2026-04-11T11:42:05.69Z</time></trkpt><trkpt lat="38.4383071" lon="16.2390567"><ele>1108.0</ele><time>2026-04-11T11:42:06.69Z</time></trkpt><trkpt lat="38.4382776" lon="16.239222"><ele>1108.0</ele><time>2026-04-11T11:42:07.69Z</time></trkpt><trkpt lat="38.4382623" lon="16.2393914"><ele>1109.0</ele><time>2026-04-11T11:42:08.69Z</time></trkpt><trkpt lat="38.4382547" lon="16.2395663"><ele>1110.0</ele><time>2026-04-11T11:42:09.691Z</time></trkpt><trkpt lat="38.4382554" lon="16.23974"><ele>1111.0</ele><time>2026-04-11T11:42:10.69Z</time></trkpt><trkpt lat="38.4382561" lon="16.2399186"><ele>1112.0</ele><time>2026-04-11T11:42:11.691Z</time></trkpt><trkpt lat="38.4382559" lon="16.2400968"><ele>1112.0</ele><time>2026-04-11T11:42:12.69Z</time></trkpt><trkpt lat="38.4382569" lon="16.2402669"><ele>1112.0</ele><time>2026-04-11T11:42:13.691Z</time></trkpt><trkpt lat="38.4382627" lon="16.2404217"><ele>1112.0</ele><time>2026-04-11T11:42:14.691Z</time></trkpt><trkpt lat="38.4382849" lon="16.2405649"><ele>1112.0</ele><time>2026-04-11T11:42:15.69Z</time></trkpt><trkpt lat="38.4383183" lon="16.2407023"><ele>1112.0</ele><time>2026-04-11T11:42:16.69Z</time></trkpt><trkpt lat="38.4383634" lon="16.2408263"><ele>1112.0</ele><time>2026-04-11T11:42:17.691Z</time></trkpt><trkpt lat="38.4384236" lon="16.2409447"><ele>1112.0</ele><time>2026-04-11T11:42:18.691Z</time></trkpt><trkpt lat="38.4384872" lon="16.2410644"><ele>1112.0</ele><time>2026-04-11T11:42:19.691Z</time></trkpt><trkpt lat="38.4385532" lon="16.2411875"><ele>1112.0</ele><time>2026-04-11T11:42:20.691Z</time></trkpt><trkpt lat="38.4386166" lon="16.2413245"><ele>1111.0</ele><time>2026-04-11T11:42:21.69Z</time></trkpt><trkpt lat="38.4386795" lon="16.2414697"><ele>1110.0</ele><time>2026-04-11T11:42:22.691Z</time></trkpt><trkpt lat="38.4387308" lon="16.241625"><ele>1109.0</ele><time>2026-04-11T11:42:23.691Z</time></trkpt><trkpt lat="38.4387755" lon="16.2417823"><ele>1108.0</ele><time>2026-04-11T11:42:24.69Z</time></trkpt><trkpt lat="38.4388221" lon="16.2419361"><ele>1108.0</ele><time>2026-04-11T11:42:25.691Z</time></trkpt><trkpt lat="38.438868" lon="16.2420878"><ele>1108.0</ele><time>2026-04-11T11:42:26.69Z</time></trkpt><trkpt lat="38.438903" lon="16.2422221"><ele>1108.0</ele><time>2026-04-11T11:42:27.69Z</time></trkpt><trkpt lat="38.4389253" lon="16.2423558"><ele>1108.0</ele><time>2026-04-11T11:42:28.691Z</time></trkpt><trkpt lat="38.4389311" lon="16.2424882"><ele>1108.0</ele><time>2026-04-11T11:42:29.691Z</time></trkpt><trkpt lat="38.4389173" lon="16.242616"><ele>1108.0</ele><time>2026-04-11T11:42:30.69Z</time></trkpt><trkpt lat="38.4388795" lon="16.2427354"><ele>1108.0</ele><time>2026-04-11T11:42:31.69Z</time></trkpt><trkpt lat="38.4388179" lon="16.2428622"><ele>1108.0</ele><time>2026-04-11T11:42:32.69Z</time></trkpt><trkpt lat="38.438744" lon="16.2429945"><ele>1108.0</ele><time>2026-04-11T11:42:33.69Z</time></trkpt><trkpt lat="38.4386695" lon="16.2431377"><ele>1108.0</ele><time>2026-04-11T11:42:34.69Z</time></trkpt><trkpt lat="38.438596" lon="16.2432935"><ele>1108.0</ele><time>2026-04-11T11:42:35.69Z</time></trkpt><trkpt lat="38.4385316" lon="16.2434532"><ele>1108.0</ele><time>2026-04-11T11:42:36.69Z</time></trkpt><trkpt lat="38.43848" lon="16.2436072"><ele>1108.0</ele><time>2026-04-11T11:42:37.69Z</time></trkpt><trkpt lat="38.4384363" lon="16.2437566"><ele>1108.0</ele><time>2026-04-11T11:42:38.69Z</time></trkpt><trkpt lat="38.4383857" lon="16.2438948"><ele>1108.0</ele><time>2026-04-11T11:42:39.691Z</time></trkpt><trkpt lat="38.4383234" lon="16.2440207"><ele>1108.0</ele><time>2026-04-11T11:42:40.69Z</time></trkpt><trkpt lat="38.4382462" lon="16.2441204"><ele>1108.0</ele><time>2026-04-11T11:42:41.69Z</time></trkpt><trkpt lat="38.4381629" lon="16.244193"><ele>1108.0</ele><time>2026-04-11T11:42:42.691Z</time></trkpt><trkpt lat="38.4380897" lon="16.2442473"><ele>1107.3333333333333</ele><time>2026-04-11T11:42:43.69Z</time></trkpt><trkpt lat="38.4380348" lon="16.2443185"><ele>1106.6666666666665</ele><time>2026-04-11T11:42:44.691Z</time></trkpt><trkpt lat="38.4380217" lon="16.2444761"><ele>1106.0</ele><time>2026-04-11T11:42:46.69Z</time></trkpt><trkpt lat="38.4380646" lon="16.2445537"><ele>1105.3333333333333</ele><time>2026-04-11T11:42:47.69Z</time></trkpt><trkpt lat="38.4381309" lon="16.2446015"><ele>1104.6666666666667</ele><time>2026-04-11T11:42:48.691Z</time></trkpt><trkpt lat="38.4382175" lon="16.2446061"><ele>1104.0</ele><time>2026-04-11T11:42:49.691Z</time></trkpt><trkpt lat="38.4383179" lon="16.2445834"><ele>1104.0</ele><time>2026-04-11T11:42:50.691Z</time></trkpt><trkpt lat="38.4384239" lon="16.2445376"><ele>1104.0</ele><time>2026-04-11T11:42:51.69Z</time></trkpt><trkpt lat="38.4385279" lon="16.24451"><ele>1104.0</ele><time>2026-04-11T11:42:52.691Z</time></trkpt><trkpt lat="38.4386285" lon="16.2445036"><ele>1104.0</ele><time>2026-04-11T11:42:53.69Z</time></trkpt><trkpt lat="38.4387211" lon="16.2445359"><ele>1104.0</ele><time>2026-04-11T11:42:54.691Z</time></trkpt><trkpt lat="38.4387973" lon="16.2445945"><ele>1103.4</ele><time>2026-04-11T11:42:55.69Z</time></trkpt><trkpt lat="38.438874" lon="16.2446545"><ele>1102.8000000000002</ele><time>2026-04-11T11:42:56.69Z</time></trkpt><trkpt lat="38.4389582" lon="16.2446806"><ele>1102.1999999999998</ele><time>2026-04-11T11:42:57.69Z</time></trkpt><trkpt lat="38.4390447" lon="16.2446701"><ele>1101.6</ele><time>2026-04-11T11:42:58.69Z</time></trkpt><trkpt lat="38.4391317" lon="16.2446155"><ele>1101.0</ele><time>2026-04-11T11:42:59.69Z</time></trkpt><trkpt lat="38.4392069" lon="16.2444976"><ele>1101.0</ele><time>2026-04-11T11:43:00.69Z</time></trkpt><trkpt lat="38.4392653" lon="16.2443485"><ele>1101.0</ele><time>2026-04-11T11:43:01.69Z</time></trkpt><trkpt lat="38.439318" lon="16.244209"><ele>1101.0</ele><time>2026-04-11T11:43:02.691Z</time></trkpt><trkpt lat="38.4393689" lon="16.2440985"><ele>1101.0</ele><time>2026-04-11T11:43:03.691Z</time></trkpt><trkpt lat="38.4394224" lon="16.2440271"><ele>1101.0</ele><time>2026-04-11T11:43:04.69Z</time></trkpt><trkpt lat="38.4394789" lon="16.2439889"><ele>1101.0</ele><time>2026-04-11T11:43:05.69Z</time></trkpt><trkpt lat="38.4395414" lon="16.2439721"><ele>1101.0</ele><time>2026-04-11T11:43:06.691Z</time></trkpt><trkpt lat="38.4396059" lon="16.2439963"><ele>1101.0</ele><time>2026-04-11T11:43:07.69Z</time></trkpt><trkpt lat="38.4396747" lon="16.2440606"><ele>1101.0</ele><time>2026-04-11T11:43:08.69Z</time></trkpt><trkpt lat="38.4397325" lon="16.244174"><ele>1101.0</ele><time>2026-04-11T11:43:09.69Z</time></trkpt><trkpt lat="38.4397932" lon="16.2443263"><ele>1097.5</ele><time>2026-04-11T11:43:10.69Z</time></trkpt><trkpt lat="38.4398573" lon="16.2444735"><ele>1094.0</ele><time>2026-04-11T11:43:11.69Z</time></trkpt><trkpt lat="38.4399275" lon="16.2446077"><ele>1090.5</ele><time>2026-04-11T11:43:12.69Z</time></trkpt><trkpt lat="38.4399961" lon="16.2447335"><ele>1087.0</ele><time>2026-04-11T11:43:13.69Z</time></trkpt><trkpt lat="38.4400365" lon="16.2448528"><ele>1084.0</ele><time>2026-04-11T11:43:14.69Z</time></trkpt><trkpt lat="38.4400604" lon="16.2449667"><ele>1081.0</ele><time>2026-04-11T11:43:15.69Z</time></trkpt><trkpt lat="38.4400408" lon="16.2450872"><ele>1078.0</ele><time>2026-04-11T11:43:16.69Z</time></trkpt><trkpt lat="38.4399915" lon="16.2452191"><ele>1075.0</ele><time>2026-04-11T11:43:17.691Z</time></trkpt><trkpt lat="38.4399375" lon="16.2453681"><ele>1072.0</ele><time>2026-04-11T11:43:18.691Z</time></trkpt><trkpt lat="38.439903" lon="16.2455317"><ele>1070.25</ele><time>2026-04-11T11:43:19.69Z</time></trkpt><trkpt lat="38.4398923" lon="16.2457115"><ele>1068.5</ele><time>2026-04-11T11:43:20.691Z</time></trkpt><trkpt lat="38.4398863" lon="16.2458866"><ele>1066.75</ele><time>2026-04-11T11:43:21.69Z</time></trkpt><trkpt lat="38.4398826" lon="16.2460674"><ele>1065.0</ele><time>2026-04-11T11:43:22.691Z</time></trkpt><trkpt lat="38.4398816" lon="16.2462343"><ele>1065.0</ele><time>2026-04-11T11:43:23.69Z</time></trkpt><trkpt lat="38.4398761" lon="16.2463924"><ele>1065.0</ele><time>2026-04-11T11:43:24.691Z</time></trkpt><trkpt lat="38.4398679" lon="16.2465359"><ele>1065.0</ele><time>2026-04-11T11:43:25.69Z</time></trkpt><trkpt lat="38.4398647" lon="16.2466598"><ele>1065.0</ele><time>2026-04-11T11:43:26.69Z</time></trkpt><trkpt lat="38.4398837" lon="16.2467716"><ele>1065.0</ele><time>2026-04-11T11:43:27.69Z</time></trkpt><trkpt lat="38.4399301" lon="16.2468563"><ele>1063.0</ele><time>2026-04-11T11:43:28.691Z</time></trkpt><trkpt lat="38.4399972" lon="16.2469094"><ele>1061.0</ele><time>2026-04-11T11:43:29.691Z</time></trkpt><trkpt lat="38.4400945" lon="16.2469443"><ele>1059.0</ele><time>2026-04-11T11:43:30.69Z</time></trkpt><trkpt lat="38.4402085" lon="16.2469591"><ele>1057.0</ele><time>2026-04-11T11:43:31.691Z</time></trkpt><trkpt lat="38.4403207" lon="16.2469543"><ele>1055.0</ele><time>2026-04-11T11:43:32.69Z</time></trkpt><trkpt lat="38.4404245" lon="16.2469209"><ele>1054.4</ele><time>2026-04-11T11:43:33.69Z</time></trkpt><trkpt lat="38.4405214" lon="16.2468609"><ele>1053.8</ele><time>2026-04-11T11:43:34.691Z</time></trkpt><trkpt lat="38.4405986" lon="16.2467704"><ele>1053.2</ele><time>2026-04-11T11:43:35.69Z</time></trkpt><trkpt lat="38.4406628" lon="16.2466749"><ele>1052.6</ele><time>2026-04-11T11:43:36.691Z</time></trkpt><trkpt lat="38.4407254" lon="16.2466022"><ele>1052.0</ele><time>2026-04-11T11:43:37.691Z</time></trkpt><trkpt lat="38.4407871" lon="16.2465605"><ele>1052.0</ele><time>2026-04-11T11:43:38.69Z</time></trkpt><trkpt lat="38.4408989" lon="16.246585"><ele>1052.0</ele><time>2026-04-11T11:43:40.69Z</time></trkpt><trkpt lat="38.4409382" lon="16.2466626"><ele>1052.0</ele><time>2026-04-11T11:43:41.691Z</time></trkpt><trkpt lat="38.4409659" lon="16.2467641"><ele>1052.0</ele><time>2026-04-11T11:43:42.69Z</time></trkpt><trkpt lat="38.4409898" lon="16.2468846"><ele>1052.0</ele><time>2026-04-11T11:43:43.69Z</time></trkpt><trkpt lat="38.4410109" lon="16.2470216"><ele>1052.0</ele><time>2026-04-11T11:43:44.69Z</time></trkpt><trkpt lat="38.441015" lon="16.2471725"><ele>1052.0</ele><time>2026-04-11T11:43:45.69Z</time></trkpt><trkpt lat="38.4410007" lon="16.247325"><ele>1052.0</ele><time>2026-04-11T11:43:46.69Z</time></trkpt><trkpt lat="38.440985" lon="16.2474699"><ele>1052.0</ele><time>2026-04-11T11:43:47.691Z</time></trkpt><trkpt lat="38.4409754" lon="16.2476008"><ele>1048.2</ele><time>2026-04-11T11:43:48.69Z</time></trkpt><trkpt lat="38.4409835" lon="16.2477213"><ele>1044.4</ele><time>2026-04-11T11:43:49.69Z</time></trkpt><trkpt lat="38.4410218" lon="16.2478356"><ele>1040.6</ele><time>2026-04-11T11:43:50.69Z</time></trkpt><trkpt lat="38.4410872" lon="16.2479578"><ele>1036.8</ele><time>2026-04-11T11:43:51.691Z</time></trkpt><trkpt lat="38.4411727" lon="16.2480737"><ele>1033.0</ele><time>2026-04-11T11:43:52.69Z</time></trkpt><trkpt lat="38.441271" lon="16.2481884"><ele>1029.0</ele><time>2026-04-11T11:43:53.691Z</time></trkpt><trkpt lat="38.441379" lon="16.2483068"><ele>1025.0</ele><time>2026-04-11T11:43:54.691Z</time></trkpt><trkpt lat="38.4414795" lon="16.2484332"><ele>1021.0</ele><time>2026-04-11T11:43:55.69Z</time></trkpt><trkpt lat="38.4415806" lon="16.2485651"><ele>1017.0</ele><time>2026-04-11T11:43:56.69Z</time></trkpt><trkpt lat="38.4416675" lon="16.248715"><ele>1017.0</ele><time>2026-04-11T11:43:57.69Z</time></trkpt><trkpt lat="38.4417368" lon="16.2488746"><ele>1017.0</ele><time>2026-04-11T11:43:58.69Z</time></trkpt><trkpt lat="38.4417961" lon="16.2490381"><ele>1017.0</ele><time>2026-04-11T11:43:59.691Z</time></trkpt><trkpt lat="38.4418516" lon="16.2492104"><ele>1017.0</ele><time>2026-04-11T11:44:00.69Z</time></trkpt><trkpt lat="38.4419036" lon="16.2493791"><ele>1016.75</ele><time>2026-04-11T11:44:01.69Z</time></trkpt><trkpt lat="38.4419492" lon="16.2495455"><ele>1016.5</ele><time>2026-04-11T11:44:02.691Z</time></trkpt><trkpt lat="38.4419831" lon="16.2497064"><ele>1016.25</ele><time>2026-04-11T11:44:03.691Z</time></trkpt><trkpt lat="38.4420084" lon="16.2498759"><ele>1016.0</ele><time>2026-04-11T11:44:04.691Z</time></trkpt><trkpt lat="38.4420159" lon="16.2500628"><ele>1014.3333333333334</ele><time>2026-04-11T11:44:05.69Z</time></trkpt><trkpt lat="38.4419987" lon="16.2502662"><ele>1012.6666666666667</ele><time>2026-04-11T11:44:06.69Z</time></trkpt><trkpt lat="38.4419727" lon="16.250472"><ele>1011.0</ele><time>2026-04-11T11:44:07.691Z</time></trkpt><trkpt lat="38.4419444" lon="16.2506765"><ele>1011.0</ele><time>2026-04-11T11:44:08.69Z</time></trkpt><trkpt lat="38.4419076" lon="16.2508861"><ele>1011.0</ele><time>2026-04-11T11:44:09.691Z</time></trkpt><trkpt lat="38.4418703" lon="16.2510903"><ele>1011.0</ele><time>2026-04-11T11:44:10.69Z</time></trkpt><trkpt lat="38.4418179" lon="16.2512854"><ele>1014.6666666666667</ele><time>2026-04-11T11:44:11.691Z</time></trkpt><trkpt lat="38.4417602" lon="16.2514752"><ele>1018.3333333333334</ele><time>2026-04-11T11:44:12.69Z</time></trkpt><trkpt lat="38.4417006" lon="16.2516619"><ele>1022.0</ele><time>2026-04-11T11:44:13.691Z</time></trkpt><trkpt lat="38.4416425" lon="16.2518232"><ele>1022.0</ele><time>2026-04-11T11:44:14.69Z</time></trkpt><trkpt lat="38.4415927" lon="16.251968"><ele>1022.0</ele><time>2026-04-11T11:44:15.69Z</time></trkpt><trkpt lat="38.4415518" lon="16.2520953"><ele>1022.0</ele><time>2026-04-11T11:44:16.691Z</time></trkpt><trkpt lat="38.4415246" lon="16.252209"><ele>1022.0</ele><time>2026-04-11T11:44:17.69Z</time></trkpt><trkpt lat="38.4415085" lon="16.2523067"><ele>1022.0</ele><time>2026-04-11T11:44:18.69Z</time></trkpt><trkpt lat="38.4415067" lon="16.2523883"><ele>1023.4000000000001</ele><time>2026-04-11T11:44:19.69Z</time></trkpt><trkpt lat="38.4415464" lon="16.2525189"><ele>1024.8000000000002</ele><time>2026-04-11T11:44:21.69Z</time></trkpt><trkpt lat="38.441617" lon="16.2526293"><ele>1026.2</ele><time>2026-04-11T11:44:23.691Z</time></trkpt><trkpt lat="38.4417038" lon="16.2527424"><ele>1027.6000000000001</ele><time>2026-04-11T11:44:25.69Z</time></trkpt><trkpt lat="38.4417526" lon="16.2528015"><ele>1029.0</ele><time>2026-04-11T11:44:26.69Z</time></trkpt><trkpt lat="38.4418141" lon="16.2528607"><ele>1029.0</ele><time>2026-04-11T11:44:27.691Z</time></trkpt><trkpt lat="38.4418913" lon="16.2529136"><ele>1029.0</ele><time>2026-04-11T11:44:28.691Z</time></trkpt><trkpt lat="38.4419811" lon="16.2529481"><ele>1029.0</ele><time>2026-04-11T11:44:29.69Z</time></trkpt><trkpt lat="38.4420789" lon="16.252946"><ele>1029.0</ele><time>2026-04-11T11:44:30.691Z</time></trkpt><trkpt lat="38.4421785" lon="16.252914"><ele>1029.0</ele><time>2026-04-11T11:44:31.69Z</time></trkpt><trkpt lat="38.4422818" lon="16.2528684"><ele>1031.2</ele><time>2026-04-11T11:44:32.69Z</time></trkpt><trkpt lat="38.4423782" lon="16.2528206"><ele>1033.4</ele><time>2026-04-11T11:44:33.69Z</time></trkpt><trkpt lat="38.4424751" lon="16.2527763"><ele>1035.6</ele><time>2026-04-11T11:44:34.69Z</time></trkpt><trkpt lat="38.4425737" lon="16.2527444"><ele>1037.8</ele><time>2026-04-11T11:44:35.69Z</time></trkpt><trkpt lat="38.4426768" lon="16.2527417"><ele>1040.0</ele><time>2026-04-11T11:44:36.691Z</time></trkpt><trkpt lat="38.4427719" lon="16.2527688"><ele>1040.0</ele><time>2026-04-11T11:44:37.69Z</time></trkpt><trkpt lat="38.4428839" lon="16.2528103"><ele>1040.0</ele><time>2026-04-11T11:44:38.69Z</time></trkpt><trkpt lat="38.443004" lon="16.2528754"><ele>1040.0</ele><time>2026-04-11T11:44:39.691Z</time></trkpt><trkpt lat="38.4431196" lon="16.2529474"><ele>1040.0</ele><time>2026-04-11T11:44:40.69Z</time></trkpt><trkpt lat="38.4432244" lon="16.2530373"><ele>1041.75</ele><time>2026-04-11T11:44:41.69Z</time></trkpt><trkpt lat="38.4433114" lon="16.2531521"><ele>1043.5</ele><time>2026-04-11T11:44:42.69Z</time></trkpt><trkpt lat="38.4434013" lon="16.2532616"><ele>1045.25</ele><time>2026-04-11T11:44:43.69Z</time></trkpt><trkpt lat="38.4435107" lon="16.2533487"><ele>1047.0</ele><time>2026-04-11T11:44:44.691Z</time></trkpt><trkpt lat="38.4436338" lon="16.2534102"><ele>1047.0</ele><time>2026-04-11T11:44:45.69Z</time></trkpt><trkpt lat="38.4437654" lon="16.2534585"><ele>1047.0</ele><time>2026-04-11T11:44:46.69Z</time></trkpt><trkpt lat="38.4438972" lon="16.2535059"><ele>1047.0</ele><time>2026-04-11T11:44:47.691Z</time></trkpt><trkpt lat="38.4440205" lon="16.2535527"><ele>1047.0</ele><time>2026-04-11T11:44:48.69Z</time></trkpt><trkpt lat="38.4441375" lon="16.2535996"><ele>1048.4</ele><time>2026-04-11T11:44:49.69Z</time></trkpt><trkpt lat="38.4442397" lon="16.2536487"><ele>1049.8000000000002</ele><time>2026-04-11T11:44:50.69Z</time></trkpt><trkpt lat="38.4443251" lon="16.2536983"><ele>1051.2</ele><time>2026-04-11T11:44:51.69Z</time></trkpt><trkpt lat="38.4443872" lon="16.2537622"><ele>1052.6000000000001</ele><time>2026-04-11T11:44:52.69Z</time></trkpt><trkpt lat="38.4444373" lon="16.253845"><ele>1054.0</ele><time>2026-04-11T11:44:53.691Z</time></trkpt><trkpt lat="38.4444723" lon="16.2539437"><ele>1055.6000000000001</ele><time>2026-04-11T11:44:54.691Z</time></trkpt><trkpt lat="38.4444947" lon="16.254058"><ele>1057.2</ele><time>2026-04-11T11:44:55.69Z</time></trkpt><trkpt lat="38.4445011" lon="16.2541849"><ele>1058.8000000000002</ele><time>2026-04-11T11:44:56.691Z</time></trkpt><trkpt lat="38.444493" lon="16.2543328"><ele>1060.4</ele><time>2026-04-11T11:44:57.69Z</time></trkpt><trkpt lat="38.4444859" lon="16.2544949"><ele>1062.0</ele><time>2026-04-11T11:44:58.691Z</time></trkpt><trkpt lat="38.4444783" lon="16.2546587"><ele>1063.5</ele><time>2026-04-11T11:44:59.69Z</time></trkpt><trkpt lat="38.4444743" lon="16.2548282"><ele>1065.0</ele><time>2026-04-11T11:45:00.691Z</time></trkpt><trkpt lat="38.4444688" lon="16.2549942"><ele>1066.5</ele><time>2026-04-11T11:45:01.69Z</time></trkpt><trkpt lat="38.4444703" lon="16.2551514"><ele>1068.0</ele><time>2026-04-11T11:45:02.69Z</time></trkpt><trkpt lat="38.4444678" lon="16.2553093"><ele>1068.0</ele><time>2026-04-11T11:45:03.69Z</time></trkpt><trkpt lat="38.4444741" lon="16.2554619"><ele>1068.0</ele><time>2026-04-11T11:45:04.691Z</time></trkpt><trkpt lat="38.4444768" lon="16.2556057"><ele>1068.0</ele><time>2026-04-11T11:45:05.69Z</time></trkpt><trkpt lat="38.4444685" lon="16.2557533"><ele>1068.0</ele><time>2026-04-11T11:45:06.691Z</time></trkpt><trkpt lat="38.4444542" lon="16.255898"><ele>1067.6</ele><time>2026-04-11T11:45:07.69Z</time></trkpt><trkpt lat="38.4444274" lon="16.2560342"><ele>1067.1999999999998</ele><time>2026-04-11T11:45:08.69Z</time></trkpt><trkpt lat="38.4443838" lon="16.2561654"><ele>1066.8</ele><time>2026-04-11T11:45:09.691Z</time></trkpt><trkpt lat="38.444343" lon="16.2562898"><ele>1066.3999999999999</ele><time>2026-04-11T11:45:10.691Z</time></trkpt><trkpt lat="38.44432" lon="16.2564145"><ele>1066.0</ele><time>2026-04-11T11:45:11.691Z</time></trkpt><trkpt lat="38.4443262" lon="16.2565392"><ele>1068.75</ele><time>2026-04-11T11:45:12.691Z</time></trkpt><trkpt lat="38.4443614" lon="16.2566565"><ele>1071.5</ele><time>2026-04-11T11:45:13.69Z</time></trkpt><trkpt lat="38.4444237" lon="16.2567618"><ele>1074.25</ele><time>2026-04-11T11:45:14.69Z</time></trkpt><trkpt lat="38.4445172" lon="16.2568614"><ele>1077.0</ele><time>2026-04-11T11:45:15.69Z</time></trkpt><trkpt lat="38.4446266" lon="16.2569547"><ele>1078.5</ele><time>2026-04-11T11:45:16.69Z</time></trkpt><trkpt lat="38.4447349" lon="16.2570442"><ele>1080.0</ele><time>2026-04-11T11:45:17.69Z</time></trkpt><trkpt lat="38.4448476" lon="16.2571369"><ele>1081.5</ele><time>2026-04-11T11:45:18.691Z</time></trkpt><trkpt lat="38.4449597" lon="16.2572257"><ele>1083.0</ele><time>2026-04-11T11:45:19.691Z</time></trkpt><trkpt lat="38.4450726" lon="16.2573124"><ele>1084.25</ele><time>2026-04-11T11:45:20.69Z</time></trkpt><trkpt lat="38.4451805" lon="16.2573928"><ele>1085.5</ele><time>2026-04-11T11:45:21.69Z</time></trkpt><trkpt lat="38.4452946" lon="16.2574569"><ele>1086.75</ele><time>2026-04-11T11:45:22.691Z</time></trkpt><trkpt lat="38.4454006" lon="16.2574925"><ele>1088.0</ele><time>2026-04-11T11:45:23.69Z</time></trkpt><trkpt lat="38.4455127" lon="16.2575372"><ele>1088.0</ele><time>2026-04-11T11:45:24.69Z</time></trkpt><trkpt lat="38.4456254" lon="16.2575901"><ele>1088.0</ele><time>2026-04-11T11:45:25.69Z</time></trkpt><trkpt lat="38.4457288" lon="16.2576723"><ele>1088.0</ele><time>2026-04-11T11:45:26.69Z</time></trkpt><trkpt lat="38.4458172" lon="16.2577684"><ele>1088.0</ele><time>2026-04-11T11:45:27.691Z</time></trkpt><trkpt lat="38.4458821" lon="16.2578785"><ele>1088.0</ele><time>2026-04-11T11:45:28.691Z</time></trkpt><trkpt lat="38.4459115" lon="16.2579915"><ele>1088.0</ele><time>2026-04-11T11:45:29.69Z</time></trkpt><trkpt lat="38.4459" lon="16.2581031"><ele>1088.0</ele><time>2026-04-11T11:45:30.691Z</time></trkpt><trkpt lat="38.4458579" lon="16.2581977"><ele>1088.0</ele><time>2026-04-11T11:45:31.691Z</time></trkpt><trkpt lat="38.445775" lon="16.2582522"><ele>1088.0</ele><time>2026-04-11T11:45:32.69Z</time></trkpt><trkpt lat="38.4456722" lon="16.2582629"><ele>1090.5</ele><time>2026-04-11T11:45:33.69Z</time></trkpt><trkpt lat="38.4455563" lon="16.2582359"><ele>1093.0</ele><time>2026-04-11T11:45:34.69Z</time></trkpt><trkpt lat="38.4454265" lon="16.2581918"><ele>1095.5</ele><time>2026-04-11T11:45:35.691Z</time></trkpt><trkpt lat="38.4452984" lon="16.2581709"><ele>1098.0</ele><time>2026-04-11T11:45:36.69Z</time></trkpt><trkpt lat="38.445168" lon="16.2581835"><ele>1100.25</ele><time>2026-04-11T11:45:37.691Z</time></trkpt><trkpt lat="38.4450475" lon="16.2582187"><ele>1102.5</ele><time>2026-04-11T11:45:38.691Z</time></trkpt><trkpt lat="38.4449293" lon="16.2582701"><ele>1104.75</ele><time>2026-04-11T11:45:39.691Z</time></trkpt><trkpt lat="38.444816" lon="16.2583289"><ele>1107.0</ele><time>2026-04-11T11:45:40.691Z</time></trkpt><trkpt lat="38.4447027" lon="16.2583955"><ele>1108.0</ele><time>2026-04-11T11:45:41.691Z</time></trkpt><trkpt lat="38.4445977" lon="16.2584781"><ele>1109.0</ele><time>2026-04-11T11:45:42.69Z</time></trkpt><trkpt lat="38.4445062" lon="16.2585759"><ele>1110.0</ele><time>2026-04-11T11:45:43.691Z</time></trkpt><trkpt lat="38.4444301" lon="16.2586824"><ele>1111.0</ele><time>2026-04-11T11:45:44.691Z</time></trkpt><trkpt lat="38.4443724" lon="16.2588042"><ele>1111.0</ele><time>2026-04-11T11:45:45.69Z</time></trkpt><trkpt lat="38.4443443" lon="16.2589387"><ele>1111.0</ele><time>2026-04-11T11:45:46.69Z</time></trkpt><trkpt lat="38.4443443" lon="16.259096"><ele>1111.0</ele><time>2026-04-11T11:45:47.691Z</time></trkpt><trkpt lat="38.4443575" lon="16.2592572"><ele>1111.0</ele><time>2026-04-11T11:45:48.691Z</time></trkpt><trkpt lat="38.4443843" lon="16.2594126"><ele>1113.0</ele><time>2026-04-11T11:45:49.69Z</time></trkpt><trkpt lat="38.4444253" lon="16.2595518"><ele>1115.0</ele><time>2026-04-11T11:45:50.691Z</time></trkpt><trkpt lat="38.4444825" lon="16.2596678"><ele>1117.0</ele><time>2026-04-11T11:45:51.691Z</time></trkpt><trkpt lat="38.4445573" lon="16.2597508"><ele>1119.0</ele><time>2026-04-11T11:45:52.69Z</time></trkpt><trkpt lat="38.444653" lon="16.2598096"><ele>1121.0</ele><time>2026-04-11T11:45:53.69Z</time></trkpt><trkpt lat="38.44477" lon="16.2598354"><ele>1121.2</ele><time>2026-04-11T11:45:54.691Z</time></trkpt><trkpt lat="38.444885" lon="16.2598609"><ele>1121.3999999999999</ele><time>2026-04-11T11:45:55.691Z</time></trkpt><trkpt lat="38.4449753" lon="16.2599087"><ele>1121.6</ele><time>2026-04-11T11:45:56.69Z</time></trkpt><trkpt lat="38.4450377" lon="16.2599966"><ele>1121.8</ele><time>2026-04-11T11:45:57.69Z</time></trkpt><trkpt lat="38.4450752" lon="16.2601085"><ele>1122.0</ele><time>2026-04-11T11:45:58.69Z</time></trkpt><trkpt lat="38.4450873" lon="16.2602356"><ele>1122.0</ele><time>2026-04-11T11:45:59.69Z</time></trkpt><trkpt lat="38.4450709" lon="16.260378"><ele>1122.0</ele><time>2026-04-11T11:46:00.69Z</time></trkpt><trkpt lat="38.4450338" lon="16.2605339"><ele>1122.0</ele><time>2026-04-11T11:46:01.69Z</time></trkpt><trkpt lat="38.4449936" lon="16.2607032"><ele>1122.0</ele><time>2026-04-11T11:46:02.691Z</time></trkpt><trkpt lat="38.4449487" lon="16.2608837"><ele>1121.6666666666667</ele><time>2026-04-11T11:46:03.69Z</time></trkpt><trkpt lat="38.444904" lon="16.2610714"><ele>1121.3333333333335</ele><time>2026-04-11T11:46:04.69Z</time></trkpt><trkpt lat="38.4448581" lon="16.2612657"><ele>1121.0</ele><time>2026-04-11T11:46:05.69Z</time></trkpt><trkpt lat="38.4448118" lon="16.2614661"><ele>1119.3333333333335</ele><time>2026-04-11T11:46:06.69Z</time></trkpt><trkpt lat="38.4447639" lon="16.2616714"><ele>1117.6666666666667</ele><time>2026-04-11T11:46:07.69Z</time></trkpt><trkpt lat="38.4447214" lon="16.2618722"><ele>1116.0</ele><time>2026-04-11T11:46:08.69Z</time></trkpt><trkpt lat="38.444685" lon="16.2620713"><ele>1116.0</ele><time>2026-04-11T11:46:09.691Z</time></trkpt><trkpt lat="38.444654" lon="16.2622714"><ele>1116.0</ele><time>2026-04-11T11:46:10.69Z</time></trkpt><trkpt lat="38.4446396" lon="16.262484"><ele>1116.0</ele><time>2026-04-11T11:46:11.691Z</time></trkpt><trkpt lat="38.4446379" lon="16.2626936"><ele>1115.6666666666667</ele><time>2026-04-11T11:46:12.69Z</time></trkpt><trkpt lat="38.4446525" lon="16.2628946"><ele>1115.3333333333335</ele><time>2026-04-11T11:46:13.69Z</time></trkpt><trkpt lat="38.4446906" lon="16.263084"><ele>1115.0</ele><time>2026-04-11T11:46:14.691Z</time></trkpt><trkpt lat="38.4447452" lon="16.2632727"><ele>1115.0</ele><time>2026-04-11T11:46:15.691Z</time></trkpt><trkpt lat="38.4448166" lon="16.2634525"><ele>1115.0</ele><time>2026-04-11T11:46:16.69Z</time></trkpt><trkpt lat="38.4448922" lon="16.2636361"><ele>1115.0</ele><time>2026-04-11T11:46:17.691Z</time></trkpt><trkpt lat="38.4449798" lon="16.2638156"><ele>1115.3333333333335</ele><time>2026-04-11T11:46:18.69Z</time></trkpt><trkpt lat="38.4450691" lon="16.2639978"><ele>1115.6666666666667</ele><time>2026-04-11T11:46:19.691Z</time></trkpt><trkpt lat="38.4451481" lon="16.2641761"><ele>1116.0</ele><time>2026-04-11T11:46:20.69Z</time></trkpt><trkpt lat="38.4452258" lon="16.2643631"><ele>1116.0</ele><time>2026-04-11T11:46:21.691Z</time></trkpt><trkpt lat="38.4453015" lon="16.2645401"><ele>1116.0</ele><time>2026-04-11T11:46:22.69Z</time></trkpt><trkpt lat="38.4453754" lon="16.2647063"><ele>1116.0</ele><time>2026-04-11T11:46:23.69Z</time></trkpt><trkpt lat="38.4454494" lon="16.2648916"><ele>1116.6666666666667</ele><time>2026-04-11T11:46:24.69Z</time></trkpt><trkpt lat="38.4455122" lon="16.2650798"><ele>1117.3333333333335</ele><time>2026-04-11T11:46:25.69Z</time></trkpt><trkpt lat="38.4455615" lon="16.2652741"><ele>1118.0</ele><time>2026-04-11T11:46:26.69Z</time></trkpt><trkpt lat="38.4455891" lon="16.265459"><ele>1120.3333333333335</ele><time>2026-04-11T11:46:27.69Z</time></trkpt><trkpt lat="38.445593" lon="16.2656574"><ele>1122.6666666666667</ele><time>2026-04-11T11:46:28.69Z</time></trkpt><trkpt lat="38.4455887" lon="16.2658666"><ele>1125.0</ele><time>2026-04-11T11:46:29.69Z</time></trkpt><trkpt lat="38.445587" lon="16.2660757"><ele>1125.0</ele><time>2026-04-11T11:46:30.691Z</time></trkpt><trkpt lat="38.4455842" lon="16.2662732"><ele>1125.0</ele><time>2026-04-11T11:46:31.691Z</time></trkpt><trkpt lat="38.4455755" lon="16.2664436"><ele>1125.0</ele><time>2026-04-11T11:46:32.69Z</time></trkpt><trkpt lat="38.4455556" lon="16.2665973"><ele>1125.0</ele><time>2026-04-11T11:46:33.691Z</time></trkpt><trkpt lat="38.4455159" lon="16.2667212"><ele>1126.0</ele><time>2026-04-11T11:46:34.691Z</time></trkpt><trkpt lat="38.4454447" lon="16.2668263"><ele>1127.0</ele><time>2026-04-11T11:46:35.69Z</time></trkpt><trkpt lat="38.4453547" lon="16.266895"><ele>1128.0</ele><time>2026-04-11T11:46:36.69Z</time></trkpt><trkpt lat="38.4452522" lon="16.2669519"><ele>1129.0</ele><time>2026-04-11T11:46:37.691Z</time></trkpt><trkpt lat="38.4451366" lon="16.2670099"><ele>1129.0</ele><time>2026-04-11T11:46:38.69Z</time></trkpt><trkpt lat="38.4450221" lon="16.2670781"><ele>1129.0</ele><time>2026-04-11T11:46:39.69Z</time></trkpt><trkpt lat="38.4449217" lon="16.2671529"><ele>1129.0</ele><time>2026-04-11T11:46:40.691Z</time></trkpt><trkpt lat="38.4448385" lon="16.267231"><ele>1129.0</ele><time>2026-04-11T11:46:41.691Z</time></trkpt><trkpt lat="38.4447649" lon="16.2673208"><ele>1129.0</ele><time>2026-04-11T11:46:42.69Z</time></trkpt><trkpt lat="38.4447024" lon="16.2674121"><ele>1128.8</ele><time>2026-04-11T11:46:43.69Z</time></trkpt><trkpt lat="38.4446483" lon="16.2675138"><ele>1128.6000000000001</ele><time>2026-04-11T11:46:44.69Z</time></trkpt><trkpt lat="38.4446062" lon="16.2676342"><ele>1128.4</ele><time>2026-04-11T11:46:45.691Z</time></trkpt><trkpt lat="38.4445813" lon="16.2677805"><ele>1128.2</ele><time>2026-04-11T11:46:46.691Z</time></trkpt><trkpt lat="38.4445796" lon="16.2679493"><ele>1128.0</ele><time>2026-04-11T11:46:47.69Z</time></trkpt><trkpt lat="38.4445834" lon="16.2681278"><ele>1128.0</ele><time>2026-04-11T11:46:48.691Z</time></trkpt><trkpt lat="38.4445881" lon="16.2683084"><ele>1128.0</ele><time>2026-04-11T11:46:49.69Z</time></trkpt><trkpt lat="38.4445888" lon="16.2684708"><ele>1128.0</ele><time>2026-04-11T11:46:50.69Z</time></trkpt><trkpt lat="38.4445757" lon="16.2686256"><ele>1128.0</ele><time>2026-04-11T11:46:51.691Z</time></trkpt><trkpt lat="38.4445488" lon="16.26877"><ele>1128.0</ele><time>2026-04-11T11:46:52.691Z</time></trkpt><trkpt lat="38.444503" lon="16.2688946"><ele>1128.0</ele><time>2026-04-11T11:46:53.69Z</time></trkpt><trkpt lat="38.4444418" lon="16.2690087"><ele>1128.0</ele><time>2026-04-11T11:46:54.691Z</time></trkpt><trkpt lat="38.4443671" lon="16.269127"><ele>1128.0</ele><time>2026-04-11T11:46:55.69Z</time></trkpt><trkpt lat="38.4442978" lon="16.269246"><ele>1129.25</ele><time>2026-04-11T11:46:56.69Z</time></trkpt><trkpt lat="38.4442331" lon="16.2693635"><ele>1130.5</ele><time>2026-04-11T11:46:57.691Z</time></trkpt><trkpt lat="38.4441876" lon="16.2694913"><ele>1131.75</ele><time>2026-04-11T11:46:58.69Z</time></trkpt><trkpt lat="38.4441423" lon="16.2696361"><ele>1133.0</ele><time>2026-04-11T11:46:59.69Z</time></trkpt><trkpt lat="38.444105" lon="16.2697919"><ele>1129.25</ele><time>2026-04-11T11:47:00.69Z</time></trkpt><trkpt lat="38.4440725" lon="16.2699474"><ele>1125.5</ele><time>2026-04-11T11:47:01.691Z</time></trkpt><trkpt lat="38.4440372" lon="16.2701106"><ele>1121.75</ele><time>2026-04-11T11:47:02.69Z</time></trkpt><trkpt lat="38.4439954" lon="16.2702645"><ele>1118.0</ele><time>2026-04-11T11:47:03.69Z</time></trkpt><trkpt lat="38.4439455" lon="16.2704179"><ele>1118.0</ele><time>2026-04-11T11:47:04.69Z</time></trkpt><trkpt lat="38.4438946" lon="16.2705651"><ele>1118.0</ele><time>2026-04-11T11:47:05.691Z</time></trkpt><trkpt lat="38.4438505" lon="16.2707196"><ele>1118.0</ele><time>2026-04-11T11:47:06.691Z</time></trkpt><trkpt lat="38.4438212" lon="16.2708867"><ele>1118.0</ele><time>2026-04-11T11:47:07.69Z</time></trkpt><trkpt lat="38.4437998" lon="16.271066"><ele>1117.5</ele><time>2026-04-11T11:47:08.69Z</time></trkpt><trkpt lat="38.4437786" lon="16.2712358"><ele>1117.0</ele><time>2026-04-11T11:47:09.69Z</time></trkpt><trkpt lat="38.4437641" lon="16.2713954"><ele>1116.5</ele><time>2026-04-11T11:47:10.69Z</time></trkpt><trkpt lat="38.443738" lon="16.2715455"><ele>1116.0</ele><time>2026-04-11T11:47:11.69Z</time></trkpt><trkpt lat="38.4437092" lon="16.2716946"><ele>1114.8</ele><time>2026-04-11T11:47:12.691Z</time></trkpt><trkpt lat="38.4436798" lon="16.2718344"><ele>1113.6</ele><time>2026-04-11T11:47:13.69Z</time></trkpt><trkpt lat="38.4436435" lon="16.2719608"><ele>1112.4</ele><time>2026-04-11T11:47:14.69Z</time></trkpt><trkpt lat="38.4436187" lon="16.2720733"><ele>1111.2</ele><time>2026-04-11T11:47:15.69Z</time></trkpt><trkpt lat="38.4436131" lon="16.2721628"><ele>1110.0</ele><time>2026-04-11T11:47:16.691Z</time></trkpt><trkpt lat="38.443644" lon="16.2722842"><ele>1109.6666666666667</ele><time>2026-04-11T11:47:18.69Z</time></trkpt><trkpt lat="38.4437208" lon="16.2723276"><ele>1109.3333333333333</ele><time>2026-04-11T11:47:21.69Z</time></trkpt><trkpt lat="38.4437961" lon="16.2723166"><ele>1109.0</ele><time>2026-04-11T11:47:24.69Z</time></trkpt><trkpt lat="38.4438568" lon="16.2722731"><ele>1108.6666666666665</ele><time>2026-04-11T11:47:28.69Z</time></trkpt><trkpt lat="38.4439203" lon="16.2722277"><ele>1108.3333333333333</ele><time>2026-04-11T11:47:32.69Z</time></trkpt><trkpt lat="38.4439763" lon="16.2721644"><ele>1108.0</ele><time>2026-04-11T11:47:35.691Z</time></trkpt><trkpt lat="38.4440352" lon="16.2720788"><ele>1108.0</ele><time>2026-04-11T11:47:38.691Z</time></trkpt><trkpt lat="38.4440734" lon="16.2719883"><ele>1108.0</ele><time>2026-04-11T11:47:41.69Z</time></trkpt><trkpt lat="38.4440962" lon="16.2718852"><ele>1108.0</ele><time>2026-04-11T11:47:44.69Z</time></trkpt><trkpt lat="38.444114" lon="16.2717722"><ele>1108.0</ele><time>2026-04-11T11:47:47.69Z</time></trkpt><trkpt lat="38.4441225" lon="16.2716902"><ele>1108.0</ele><time>2026-04-11T11:47:49.69Z</time></trkpt><trkpt lat="38.4441272" lon="16.2715924"><ele>1108.0</ele><time>2026-04-11T11:47:53.69Z</time></trkpt><trkpt lat="38.4441273" lon="16.2715115"><ele>1108.6</ele><time>2026-04-11T11:47:56.691Z</time></trkpt><trkpt lat="38.4441425" lon="16.2714263"><ele>1109.1999999999998</ele><time>2026-04-11T11:47:58.69Z</time></trkpt><trkpt lat="38.4441597" lon="16.2713177"><ele>1109.8</ele><time>2026-04-11T11:48:00.69Z</time></trkpt><trkpt lat="38.444176" lon="16.271204"><ele>1110.3999999999999</ele><time>2026-04-11T11:48:02.691Z</time></trkpt><trkpt lat="38.4441942" lon="16.2710738"><ele>1111.0</ele><time>2026-04-11T11:48:04.691Z</time></trkpt><trkpt lat="38.4442077" lon="16.2709367"><ele>1111.0</ele><time>2026-04-11T11:48:06.69Z</time></trkpt><trkpt lat="38.4442158" lon="16.2707893"><ele>1111.0</ele><time>2026-04-11T11:48:08.691Z</time></trkpt><trkpt lat="38.4442252" lon="16.2706612"><ele>1111.0</ele><time>2026-04-11T11:48:10.69Z</time></trkpt><trkpt lat="38.444247" lon="16.2705367"><ele>1111.0</ele><time>2026-04-11T11:48:12.69Z</time></trkpt><trkpt lat="38.4442785" lon="16.2704361"><ele>1111.0</ele><time>2026-04-11T11:48:14.69Z</time></trkpt><trkpt lat="38.444347" lon="16.270362"><ele>1110.6</ele><time>2026-04-11T11:48:16.69Z</time></trkpt><trkpt lat="38.4444525" lon="16.2703134"><ele>1110.1999999999998</ele><time>2026-04-11T11:48:18.69Z</time></trkpt><trkpt lat="38.4445859" lon="16.2703057"><ele>1109.8000000000002</ele><time>2026-04-11T11:48:20.691Z</time></trkpt><trkpt lat="38.444658" lon="16.2703214"><ele>1109.4</ele><time>2026-04-11T11:48:21.691Z</time></trkpt><trkpt lat="38.444737" lon="16.2703486"><ele>1109.0</ele><time>2026-04-11T11:48:22.69Z</time></trkpt><trkpt lat="38.4448078" lon="16.2703848"><ele>1109.0</ele><time>2026-04-11T11:48:23.69Z</time></trkpt><trkpt lat="38.4448883" lon="16.2704466"><ele>1109.0</ele><time>2026-04-11T11:48:24.691Z</time></trkpt><trkpt lat="38.4449579" lon="16.2705101"><ele>1109.0</ele><time>2026-04-11T11:48:25.69Z</time></trkpt><trkpt lat="38.4450316" lon="16.2705764"><ele>1109.0</ele><time>2026-04-11T11:48:26.69Z</time></trkpt><trkpt lat="38.4451035" lon="16.2706439"><ele>1109.0</ele><time>2026-04-11T11:48:27.691Z</time></trkpt><trkpt lat="38.4451675" lon="16.2707072"><ele>1109.0</ele><time>2026-04-11T11:48:28.691Z</time></trkpt><trkpt lat="38.4452361" lon="16.2707775"><ele>1107.8333333333335</ele><time>2026-04-11T11:48:29.69Z</time></trkpt><trkpt lat="38.4452981" lon="16.2708374"><ele>1106.6666666666667</ele><time>2026-04-11T11:48:30.69Z</time></trkpt><trkpt lat="38.4453677" lon="16.2708861"><ele>1105.5</ele><time>2026-04-11T11:48:31.69Z</time></trkpt><trkpt lat="38.4454376" lon="16.2709278"><ele>1104.3333333333333</ele><time>2026-04-11T11:48:32.691Z</time></trkpt><trkpt lat="38.4455211" lon="16.2709498"><ele>1103.1666666666665</ele><time>2026-04-11T11:48:33.691Z</time></trkpt><trkpt lat="38.4456013" lon="16.2709581"><ele>1102.0</ele><time>2026-04-11T11:48:34.691Z</time></trkpt><trkpt lat="38.4456751" lon="16.270947"><ele>1101.5</ele><time>2026-04-11T11:48:35.69Z</time></trkpt><trkpt lat="38.445747" lon="16.2709159"><ele>1101.0</ele><time>2026-04-11T11:48:36.69Z</time></trkpt><trkpt lat="38.4458222" lon="16.270867"><ele>1100.5</ele><time>2026-04-11T11:48:37.69Z</time></trkpt><trkpt lat="38.4458908" lon="16.2707966"><ele>1100.0</ele><time>2026-04-11T11:48:38.69Z</time></trkpt><trkpt lat="38.4459574" lon="16.2707108"><ele>1099.5</ele><time>2026-04-11T11:48:39.691Z</time></trkpt><trkpt lat="38.446015" lon="16.2706188"><ele>1099.0</ele><time>2026-04-11T11:48:40.69Z</time></trkpt><trkpt lat="38.4460805" lon="16.2705267"><ele>1100.6000000000001</ele><time>2026-04-11T11:48:41.69Z</time></trkpt><trkpt lat="38.4461522" lon="16.2704453"><ele>1102.2</ele><time>2026-04-11T11:48:42.691Z</time></trkpt><trkpt lat="38.4462349" lon="16.2703797"><ele>1103.8000000000002</ele><time>2026-04-11T11:48:43.69Z</time></trkpt><trkpt lat="38.4463248" lon="16.2703214"><ele>1105.4</ele><time>2026-04-11T11:48:44.691Z</time></trkpt><trkpt lat="38.4464065" lon="16.2702553"><ele>1107.0</ele><time>2026-04-11T11:48:45.69Z</time></trkpt><trkpt lat="38.4464695" lon="16.2701898"><ele>1104.1666666666667</ele><time>2026-04-11T11:48:46.69Z</time></trkpt><trkpt lat="38.4465198" lon="16.2701005"><ele>1101.3333333333333</ele><time>2026-04-11T11:48:47.69Z</time></trkpt><trkpt lat="38.446554" lon="16.2700036"><ele>1098.5</ele><time>2026-04-11T11:48:48.69Z</time></trkpt><trkpt lat="38.4465701" lon="16.2698965"><ele>1095.6666666666665</ele><time>2026-04-11T11:48:49.69Z</time></trkpt><trkpt lat="38.4465654" lon="16.2698002"><ele>1092.8333333333333</ele><time>2026-04-11T11:48:50.69Z</time></trkpt><trkpt lat="38.4465364" lon="16.2697034"><ele>1090.0</ele><time>2026-04-11T11:48:51.69Z</time></trkpt><trkpt lat="38.4464905" lon="16.2696034"><ele>1090.0</ele><time>2026-04-11T11:48:52.69Z</time></trkpt><trkpt lat="38.4464404" lon="16.269492"><ele>1090.0</ele><time>2026-04-11T11:48:53.69Z</time></trkpt><trkpt lat="38.4464068" lon="16.269375"><ele>1090.0</ele><time>2026-04-11T11:48:54.69Z</time></trkpt><trkpt lat="38.4463814" lon="16.2692532"><ele>1090.0</ele><time>2026-04-11T11:48:55.69Z</time></trkpt><trkpt lat="38.4463677" lon="16.2691398"><ele>1090.0</ele><time>2026-04-11T11:48:56.69Z</time></trkpt><trkpt lat="38.4463673" lon="16.2690289"><ele>1091.3333333333333</ele><time>2026-04-11T11:48:57.691Z</time></trkpt><trkpt lat="38.4463797" lon="16.2689224"><ele>1092.6666666666665</ele><time>2026-04-11T11:48:58.691Z</time></trkpt><trkpt lat="38.4464071" lon="16.2688322"><ele>1094.0</ele><time>2026-04-11T11:48:59.691Z</time></trkpt><trkpt lat="38.4464644" lon="16.2687581"><ele>1095.3333333333333</ele><time>2026-04-11T11:49:00.69Z</time></trkpt><trkpt lat="38.4465388" lon="16.2687053"><ele>1096.6666666666667</ele><time>2026-04-11T11:49:01.69Z</time></trkpt><trkpt lat="38.446635" lon="16.2686704"><ele>1098.0</ele><time>2026-04-11T11:49:02.69Z</time></trkpt><trkpt lat="38.4467307" lon="16.2686534"><ele>1098.0</ele><time>2026-04-11T11:49:03.69Z</time></trkpt><trkpt lat="38.4468234" lon="16.2686571"><ele>1098.0</ele><time>2026-04-11T11:49:04.69Z</time></trkpt><trkpt lat="38.4469296" lon="16.2686827"><ele>1098.0</ele><time>2026-04-11T11:49:05.69Z</time></trkpt><trkpt lat="38.4470283" lon="16.2687346"><ele>1098.0</ele><time>2026-04-11T11:49:06.69Z</time></trkpt><trkpt lat="38.4471256" lon="16.2687945"><ele>1098.0</ele><time>2026-04-11T11:49:07.69Z</time></trkpt><trkpt lat="38.4472128" lon="16.2688301"><ele>1096.8333333333333</ele><time>2026-04-11T11:49:08.69Z</time></trkpt><trkpt lat="38.4473045" lon="16.2688444"><ele>1095.6666666666667</ele><time>2026-04-11T11:49:09.691Z</time></trkpt><trkpt lat="38.4473925" lon="16.2688382"><ele>1094.5</ele><time>2026-04-11T11:49:10.69Z</time></trkpt><trkpt lat="38.4474657" lon="16.2688016"><ele>1093.3333333333335</ele><time>2026-04-11T11:49:11.69Z</time></trkpt><trkpt lat="38.4475236" lon="16.2687306"><ele>1092.1666666666667</ele><time>2026-04-11T11:49:12.69Z</time></trkpt><trkpt lat="38.4475703" lon="16.268621"><ele>1091.0</ele><time>2026-04-11T11:49:13.69Z</time></trkpt><trkpt lat="38.4476034" lon="16.2684992"><ele>1091.0</ele><time>2026-04-11T11:49:14.69Z</time></trkpt><trkpt lat="38.4476322" lon="16.2683835"><ele>1091.0</ele><time>2026-04-11T11:49:15.69Z</time></trkpt><trkpt lat="38.4476711" lon="16.2682828"><ele>1091.0</ele><time>2026-04-11T11:49:16.69Z</time></trkpt><trkpt lat="38.4477205" lon="16.2682016"><ele>1091.0</ele><time>2026-04-11T11:49:17.691Z</time></trkpt><trkpt lat="38.4477851" lon="16.2681323"><ele>1091.0</ele><time>2026-04-11T11:49:18.691Z</time></trkpt><trkpt lat="38.447854" lon="16.2681089"><ele>1091.0</ele><time>2026-04-11T11:49:19.691Z</time></trkpt><trkpt lat="38.4479242" lon="16.2681455"><ele>1091.0</ele><time>2026-04-11T11:49:20.691Z</time></trkpt><trkpt lat="38.4479892" lon="16.2682408"><ele>1091.0</ele><time>2026-04-11T11:49:21.691Z</time></trkpt><trkpt lat="38.4480116" lon="16.2683792"><ele>1091.0</ele><time>2026-04-11T11:49:22.69Z</time></trkpt><trkpt lat="38.4479966" lon="16.2685229"><ele>1091.0</ele><time>2026-04-11T11:49:23.69Z</time></trkpt><trkpt lat="38.447969" lon="16.2686693"><ele>1091.0</ele><time>2026-04-11T11:49:24.69Z</time></trkpt><trkpt lat="38.4479369" lon="16.268807"><ele>1091.0</ele><time>2026-04-11T11:49:25.69Z</time></trkpt><trkpt lat="38.4479126" lon="16.2689422"><ele>1091.0</ele><time>2026-04-11T11:49:26.691Z</time></trkpt><trkpt lat="38.4479023" lon="16.2690704"><ele>1091.0</ele><time>2026-04-11T11:49:27.691Z</time></trkpt><trkpt lat="38.4479138" lon="16.2692135"><ele>1091.0</ele><time>2026-04-11T11:49:28.691Z</time></trkpt><trkpt lat="38.4479387" lon="16.2693621"><ele>1091.0</ele><time>2026-04-11T11:49:29.69Z</time></trkpt><trkpt lat="38.4479734" lon="16.269503"><ele>1087.8</ele><time>2026-04-11T11:49:30.69Z</time></trkpt><trkpt lat="38.4480213" lon="16.2696341"><ele>1084.6</ele><time>2026-04-11T11:49:31.69Z</time></trkpt><trkpt lat="38.4480768" lon="16.2697626"><ele>1081.4</ele><time>2026-04-11T11:49:32.69Z</time></trkpt><trkpt lat="38.4481399" lon="16.2698807"><ele>1078.2</ele><time>2026-04-11T11:49:33.69Z</time></trkpt><trkpt lat="38.448202" lon="16.2699905"><ele>1075.0</ele><time>2026-04-11T11:49:34.69Z</time></trkpt><trkpt lat="38.4482721" lon="16.2700808"><ele>1073.3333333333333</ele><time>2026-04-11T11:49:35.69Z</time></trkpt><trkpt lat="38.4483419" lon="16.2701332"><ele>1071.6666666666665</ele><time>2026-04-11T11:49:36.69Z</time></trkpt><trkpt lat="38.4484184" lon="16.2701539"><ele>1070.0</ele><time>2026-04-11T11:49:37.691Z</time></trkpt><trkpt lat="38.448503" lon="16.2701384"><ele>1068.3333333333333</ele><time>2026-04-11T11:49:38.69Z</time></trkpt><trkpt lat="38.4485781" lon="16.2700836"><ele>1066.6666666666667</ele><time>2026-04-11T11:49:39.69Z</time></trkpt><trkpt lat="38.448633" lon="16.26999"><ele>1065.0</ele><time>2026-04-11T11:49:40.691Z</time></trkpt><trkpt lat="38.4486747" lon="16.2698672"><ele>1067.0</ele><time>2026-04-11T11:49:41.691Z</time></trkpt><trkpt lat="38.4486954" lon="16.2697356"><ele>1069.0</ele><time>2026-04-11T11:49:42.691Z</time></trkpt><trkpt lat="38.4487052" lon="16.2695979"><ele>1071.0</ele><time>2026-04-11T11:49:43.69Z</time></trkpt><trkpt lat="38.4487167" lon="16.2694665"><ele>1073.0</ele><time>2026-04-11T11:49:44.69Z</time></trkpt><trkpt lat="38.4487231" lon="16.2693413"><ele>1075.0</ele><time>2026-04-11T11:49:45.69Z</time></trkpt><trkpt lat="38.4487255" lon="16.2692117"><ele>1075.0</ele><time>2026-04-11T11:49:46.69Z</time></trkpt><trkpt lat="38.4487281" lon="16.2690914"><ele>1075.0</ele><time>2026-04-11T11:49:47.691Z</time></trkpt><trkpt lat="38.4487368" lon="16.2689816"><ele>1075.0</ele><time>2026-04-11T11:49:48.691Z</time></trkpt><trkpt lat="38.4487595" lon="16.2688885"><ele>1075.0</ele><time>2026-04-11T11:49:49.69Z</time></trkpt><trkpt lat="38.4488012" lon="16.268811"><ele>1075.0</ele><time>2026-04-11T11:49:50.69Z</time></trkpt><trkpt lat="38.4488655" lon="16.2687651"><ele>1075.0</ele><time>2026-04-11T11:49:51.691Z</time></trkpt><trkpt lat="38.4489562" lon="16.2687473"><ele>1073.25</ele><time>2026-04-11T11:49:52.69Z</time></trkpt><trkpt lat="38.4490659" lon="16.2687581"><ele>1071.5</ele><time>2026-04-11T11:49:53.69Z</time></trkpt><trkpt lat="38.449198" lon="16.2688034"><ele>1069.75</ele><time>2026-04-11T11:49:54.69Z</time></trkpt><trkpt lat="38.449342" lon="16.2688684"><ele>1068.0</ele><time>2026-04-11T11:49:55.69Z</time></trkpt><trkpt lat="38.4494851" lon="16.2689276"><ele>1066.25</ele><time>2026-04-11T11:49:56.69Z</time></trkpt><trkpt lat="38.4496197" lon="16.2689778"><ele>1064.5</ele><time>2026-04-11T11:49:57.69Z</time></trkpt><trkpt lat="38.4497404" lon="16.2690255"><ele>1062.75</ele><time>2026-04-11T11:49:58.691Z</time></trkpt><trkpt lat="38.449857" lon="16.2690662"><ele>1061.0</ele><time>2026-04-11T11:49:59.691Z</time></trkpt><trkpt lat="38.4499643" lon="16.2690965"><ele>1060.0</ele><time>2026-04-11T11:50:00.69Z</time></trkpt><trkpt lat="38.4500627" lon="16.2691069"><ele>1059.0</ele><time>2026-04-11T11:50:01.69Z</time></trkpt><trkpt lat="38.4501529" lon="16.2690942"><ele>1058.0</ele><time>2026-04-11T11:50:02.691Z</time></trkpt><trkpt lat="38.4502403" lon="16.2690527"><ele>1057.0</ele><time>2026-04-11T11:50:03.69Z</time></trkpt><trkpt lat="38.4503171" lon="16.2689848"><ele>1056.0</ele><time>2026-04-11T11:50:04.69Z</time></trkpt><trkpt lat="38.4503763" lon="16.2689049"><ele>1055.3999999999999</ele><time>2026-04-11T11:50:05.69Z</time></trkpt><trkpt lat="38.4504268" lon="16.2688096"><ele>1054.8</ele><time>2026-04-11T11:50:06.69Z</time></trkpt><trkpt lat="38.4504647" lon="16.2686932"><ele>1054.1999999999998</ele><time>2026-04-11T11:50:07.69Z</time></trkpt><trkpt lat="38.4504988" lon="16.2685593"><ele>1053.6</ele><time>2026-04-11T11:50:08.691Z</time></trkpt><trkpt lat="38.4505216" lon="16.2684172"><ele>1053.0</ele><time>2026-04-11T11:50:09.691Z</time></trkpt><trkpt lat="38.4505503" lon="16.2682663"><ele>1053.0</ele><time>2026-04-11T11:50:10.69Z</time></trkpt><trkpt lat="38.4505801" lon="16.2681214"><ele>1053.0</ele><time>2026-04-11T11:50:11.691Z</time></trkpt><trkpt lat="38.4506018" lon="16.2679819"><ele>1053.0</ele><time>2026-04-11T11:50:12.69Z</time></trkpt><trkpt lat="38.4506035" lon="16.2678537"><ele>1053.0</ele><time>2026-04-11T11:50:13.69Z</time></trkpt><trkpt lat="38.4505941" lon="16.2677288"><ele>1053.0</ele><time>2026-04-11T11:50:14.69Z</time></trkpt><trkpt lat="38.4505851" lon="16.267604"><ele>1053.1666666666667</ele><time>2026-04-11T11:50:15.69Z</time></trkpt><trkpt lat="38.4505809" lon="16.2674855"><ele>1053.3333333333333</ele><time>2026-04-11T11:50:16.691Z</time></trkpt><trkpt lat="38.4505821" lon="16.2673749"><ele>1053.5</ele><time>2026-04-11T11:50:17.691Z</time></trkpt><trkpt lat="38.4505973" lon="16.2672878"><ele>1053.6666666666665</ele><time>2026-04-11T11:50:18.69Z</time></trkpt><trkpt lat="38.4506367" lon="16.2672127"><ele>1053.8333333333333</ele><time>2026-04-11T11:50:19.69Z</time></trkpt><trkpt lat="38.4507102" lon="16.2671609"><ele>1054.0</ele><time>2026-04-11T11:50:20.69Z</time></trkpt><trkpt lat="38.4508084" lon="16.2671333"><ele>1054.0</ele><time>2026-04-11T11:50:21.69Z</time></trkpt><trkpt lat="38.4509161" lon="16.2671353"><ele>1054.0</ele><time>2026-04-11T11:50:22.691Z</time></trkpt><trkpt lat="38.4510326" lon="16.2671702"><ele>1054.0</ele><time>2026-04-11T11:50:23.691Z</time></trkpt><trkpt lat="38.4511437" lon="16.2672487"><ele>1054.0</ele><time>2026-04-11T11:50:24.69Z</time></trkpt><trkpt lat="38.4512499" lon="16.2673217"><ele>1053.6000000000001</ele><time>2026-04-11T11:50:25.691Z</time></trkpt><trkpt lat="38.4513456" lon="16.2673823"><ele>1053.2</ele><time>2026-04-11T11:50:26.69Z</time></trkpt><trkpt lat="38.4514212" lon="16.2674452"><ele>1052.8000000000002</ele><time>2026-04-11T11:50:27.691Z</time></trkpt><trkpt lat="38.4514863" lon="16.2675187"><ele>1052.4</ele><time>2026-04-11T11:50:28.691Z</time></trkpt><trkpt lat="38.4515412" lon="16.2676101"><ele>1052.0</ele><time>2026-04-11T11:50:29.691Z</time></trkpt><trkpt lat="38.4515815" lon="16.267717"><ele>1052.0</ele><time>2026-04-11T11:50:30.69Z</time></trkpt><trkpt lat="38.4516033" lon="16.2678402"><ele>1052.0</ele><time>2026-04-11T11:50:31.69Z</time></trkpt><trkpt lat="38.451622" lon="16.2679736"><ele>1052.0</ele><time>2026-04-11T11:50:32.691Z</time></trkpt><trkpt lat="38.4516393" lon="16.2681054"><ele>1052.0</ele><time>2026-04-11T11:50:33.69Z</time></trkpt><trkpt lat="38.4516636" lon="16.2682289"><ele>1052.0</ele><time>2026-04-11T11:50:34.691Z</time></trkpt><trkpt lat="38.451706" lon="16.268343"><ele>1052.0</ele><time>2026-04-11T11:50:35.69Z</time></trkpt><trkpt lat="38.4517632" lon="16.2684382"><ele>1052.0</ele><time>2026-04-11T11:50:36.69Z</time></trkpt><trkpt lat="38.4518424" lon="16.2685251"><ele>1052.0</ele><time>2026-04-11T11:50:37.691Z</time></trkpt><trkpt lat="38.4519345" lon="16.2686055"><ele>1052.0</ele><time>2026-04-11T11:50:38.691Z</time></trkpt><trkpt lat="38.4520429" lon="16.2686788"><ele>1052.0</ele><time>2026-04-11T11:50:39.691Z</time></trkpt><trkpt lat="38.4521536" lon="16.2687541"><ele>1051.25</ele><time>2026-04-11T11:50:40.691Z</time></trkpt><trkpt lat="38.4522713" lon="16.2688364"><ele>1050.5</ele><time>2026-04-11T11:50:41.69Z</time></trkpt><trkpt lat="38.4524008" lon="16.2689246"><ele>1049.75</ele><time>2026-04-11T11:50:42.691Z</time></trkpt><trkpt lat="38.4525428" lon="16.26902"><ele>1049.0</ele><time>2026-04-11T11:50:43.69Z</time></trkpt><trkpt lat="38.4526923" lon="16.269112"><ele>1049.0</ele><time>2026-04-11T11:50:44.69Z</time></trkpt><trkpt lat="38.4528368" lon="16.2691976"><ele>1049.0</ele><time>2026-04-11T11:50:45.69Z</time></trkpt><trkpt lat="38.4529736" lon="16.2692826"><ele>1049.0</ele><time>2026-04-11T11:50:46.691Z</time></trkpt><trkpt lat="38.453105" lon="16.2693624"><ele>1047.75</ele><time>2026-04-11T11:50:47.69Z</time></trkpt><trkpt lat="38.4532424" lon="16.269438"><ele>1046.5</ele><time>2026-04-11T11:50:48.691Z</time></trkpt><trkpt lat="38.453374" lon="16.2695102"><ele>1045.25</ele><time>2026-04-11T11:50:49.691Z</time></trkpt><trkpt lat="38.4535145" lon="16.2695704"><ele>1044.0</ele><time>2026-04-11T11:50:50.69Z</time></trkpt><trkpt lat="38.4536678" lon="16.2696119"><ele>1044.3333333333333</ele><time>2026-04-11T11:50:51.69Z</time></trkpt><trkpt lat="38.4538246" lon="16.26963"><ele>1044.6666666666665</ele><time>2026-04-11T11:50:52.69Z</time></trkpt><trkpt lat="38.4539711" lon="16.269627"><ele>1045.0</ele><time>2026-04-11T11:50:53.69Z</time></trkpt><trkpt lat="38.454119" lon="16.2696275"><ele>1045.0</ele><time>2026-04-11T11:50:54.69Z</time></trkpt><trkpt lat="38.4542633" lon="16.2696218"><ele>1045.0</ele><time>2026-04-11T11:50:55.69Z</time></trkpt><trkpt lat="38.4544029" lon="16.2696163"><ele>1045.0</ele><time>2026-04-11T11:50:56.691Z</time></trkpt><trkpt lat="38.4545316" lon="16.2696103"><ele>1045.0</ele><time>2026-04-11T11:50:57.691Z</time></trkpt><trkpt lat="38.4546523" lon="16.269597"><ele>1045.75</ele><time>2026-04-11T11:50:58.69Z</time></trkpt><trkpt lat="38.4547769" lon="16.2695786"><ele>1046.5</ele><time>2026-04-11T11:50:59.69Z</time></trkpt><trkpt lat="38.4549038" lon="16.2695503"><ele>1047.25</ele><time>2026-04-11T11:51:00.69Z</time></trkpt><trkpt lat="38.4550325" lon="16.2695068"><ele>1048.0</ele><time>2026-04-11T11:51:01.691Z</time></trkpt><trkpt lat="38.4551557" lon="16.2694538"><ele>1048.0</ele><time>2026-04-11T11:51:02.69Z</time></trkpt><trkpt lat="38.4552675" lon="16.2693956"><ele>1048.0</ele><time>2026-04-11T11:51:03.691Z</time></trkpt><trkpt lat="38.4553785" lon="16.2693385"><ele>1048.0</ele><time>2026-04-11T11:51:04.69Z</time></trkpt><trkpt lat="38.4554853" lon="16.2692794"><ele>1048.0</ele><time>2026-04-11T11:51:05.691Z</time></trkpt><trkpt lat="38.4556024" lon="16.2692277"><ele>1047.0</ele><time>2026-04-11T11:51:06.69Z</time></trkpt><trkpt lat="38.4557223" lon="16.269187"><ele>1046.0</ele><time>2026-04-11T11:51:07.69Z</time></trkpt><trkpt lat="38.4558384" lon="16.2691753"><ele>1045.0</ele><time>2026-04-11T11:51:08.69Z</time></trkpt><trkpt lat="38.4559663" lon="16.2691894"><ele>1044.0</ele><time>2026-04-11T11:51:09.69Z</time></trkpt><trkpt lat="38.4560911" lon="16.2692348"><ele>1044.0</ele><time>2026-04-11T11:51:10.69Z</time></trkpt><trkpt lat="38.4562036" lon="16.2693056"><ele>1044.0</ele><time>2026-04-11T11:51:11.69Z</time></trkpt><trkpt lat="38.4563233" lon="16.2693969"><ele>1044.0</ele><time>2026-04-11T11:51:12.69Z</time></trkpt><trkpt lat="38.4564371" lon="16.2694983"><ele>1044.0</ele><time>2026-04-11T11:51:13.691Z</time></trkpt><trkpt lat="38.4565466" lon="16.2695922"><ele>1043.75</ele><time>2026-04-11T11:51:14.69Z</time></trkpt><trkpt lat="38.4566551" lon="16.2696867"><ele>1043.5</ele><time>2026-04-11T11:51:15.69Z</time></trkpt><trkpt lat="38.4567743" lon="16.2697777"><ele>1043.25</ele><time>2026-04-11T11:51:16.69Z</time></trkpt><trkpt lat="38.4568816" lon="16.2698758"><ele>1043.0</ele><time>2026-04-11T11:51:17.69Z</time></trkpt><trkpt lat="38.4569881" lon="16.2699767"><ele>1043.0</ele><time>2026-04-11T11:51:18.69Z</time></trkpt><trkpt lat="38.4571015" lon="16.2700679"><ele>1043.0</ele><time>2026-04-11T11:51:19.69Z</time></trkpt><trkpt lat="38.457222" lon="16.2701511"><ele>1043.0</ele><time>2026-04-11T11:51:20.691Z</time></trkpt><trkpt lat="38.4573578" lon="16.2702248"><ele>1043.0</ele><time>2026-04-11T11:51:21.69Z</time></trkpt><trkpt lat="38.4575051" lon="16.2702988"><ele>1043.3333333333335</ele><time>2026-04-11T11:51:22.69Z</time></trkpt><trkpt lat="38.4576565" lon="16.2703651"><ele>1043.6666666666667</ele><time>2026-04-11T11:51:23.691Z</time></trkpt><trkpt lat="38.4578068" lon="16.2704245"><ele>1044.0</ele><time>2026-04-11T11:51:24.691Z</time></trkpt><trkpt lat="38.4579546" lon="16.2704813"><ele>1044.0</ele><time>2026-04-11T11:51:25.69Z</time></trkpt><trkpt lat="38.4580933" lon="16.2705429"><ele>1044.0</ele><time>2026-04-11T11:51:26.69Z</time></trkpt><trkpt lat="38.4582258" lon="16.2706073"><ele>1044.0</ele><time>2026-04-11T11:51:27.691Z</time></trkpt><trkpt lat="38.4583612" lon="16.270675"><ele>1044.0</ele><time>2026-04-11T11:51:28.69Z</time></trkpt><trkpt lat="38.4584945" lon="16.270738"><ele>1042.5</ele><time>2026-04-11T11:51:29.69Z</time></trkpt><trkpt lat="38.4586294" lon="16.2708054"><ele>1041.0</ele><time>2026-04-11T11:51:30.691Z</time></trkpt><trkpt lat="38.4587586" lon="16.270862"><ele>1039.5</ele><time>2026-04-11T11:51:31.69Z</time></trkpt><trkpt lat="38.4588789" lon="16.2709179"><ele>1038.0</ele><time>2026-04-11T11:51:32.69Z</time></trkpt><trkpt lat="38.4589992" lon="16.2709778"><ele>1038.0</ele><time>2026-04-11T11:51:33.69Z</time></trkpt><trkpt lat="38.4591234" lon="16.2710464"><ele>1038.0</ele><time>2026-04-11T11:51:34.691Z</time></trkpt><trkpt lat="38.4592501" lon="16.2711245"><ele>1038.0</ele><time>2026-04-11T11:51:35.691Z</time></trkpt><trkpt lat="38.4593639" lon="16.2712059"><ele>1038.0</ele><time>2026-04-11T11:51:36.69Z</time></trkpt><trkpt lat="38.4594771" lon="16.2713024"><ele>1038.0</ele><time>2026-04-11T11:51:37.691Z</time></trkpt><trkpt lat="38.4595919" lon="16.2714044"><ele>1038.0</ele><time>2026-04-11T11:51:38.69Z</time></trkpt><trkpt lat="38.4597043" lon="16.2715054"><ele>1038.0</ele><time>2026-04-11T11:51:39.691Z</time></trkpt><trkpt lat="38.4598167" lon="16.2716007"><ele>1038.0</ele><time>2026-04-11T11:51:40.69Z</time></trkpt><trkpt lat="38.4599265" lon="16.2716963"><ele>1037.0</ele><time>2026-04-11T11:51:41.69Z</time></trkpt><trkpt lat="38.4600333" lon="16.2717849"><ele>1036.0</ele><time>2026-04-11T11:51:42.691Z</time></trkpt><trkpt lat="38.4601431" lon="16.2718796"><ele>1035.0</ele><time>2026-04-11T11:51:43.69Z</time></trkpt><trkpt lat="38.4602497" lon="16.2719789"><ele>1034.0</ele><time>2026-04-11T11:51:44.69Z</time></trkpt><trkpt lat="38.4603489" lon="16.2720808"><ele>1034.0</ele><time>2026-04-11T11:51:45.69Z</time></trkpt><trkpt lat="38.4604353" lon="16.2721783"><ele>1034.0</ele><time>2026-04-11T11:51:46.691Z</time></trkpt><trkpt lat="38.4605081" lon="16.2722747"><ele>1034.0</ele><time>2026-04-11T11:51:47.69Z</time></trkpt><trkpt lat="38.4605716" lon="16.2723807"><ele>1034.0</ele><time>2026-04-11T11:51:48.691Z</time></trkpt><trkpt lat="38.460623" lon="16.2725001"><ele>1034.0</ele><time>2026-04-11T11:51:49.69Z</time></trkpt><trkpt lat="38.4606565" lon="16.2726247"><ele>1033.8</ele><time>2026-04-11T11:51:50.69Z</time></trkpt><trkpt lat="38.4606658" lon="16.2727425"><ele>1033.6000000000001</ele><time>2026-04-11T11:51:51.69Z</time></trkpt><trkpt lat="38.4606494" lon="16.2728619"><ele>1033.4</ele><time>2026-04-11T11:51:52.691Z</time></trkpt><trkpt lat="38.4606094" lon="16.2729865"><ele>1033.2</ele><time>2026-04-11T11:51:53.69Z</time></trkpt><trkpt lat="38.4605504" lon="16.2731113"><ele>1033.0</ele><time>2026-04-11T11:51:54.691Z</time></trkpt><trkpt lat="38.4604742" lon="16.2732387"><ele>1030.5</ele><time>2026-04-11T11:51:55.69Z</time></trkpt><trkpt lat="38.4603946" lon="16.2733652"><ele>1028.0</ele><time>2026-04-11T11:51:56.69Z</time></trkpt><trkpt lat="38.4603162" lon="16.2734899"><ele>1025.5</ele><time>2026-04-11T11:51:57.69Z</time></trkpt><trkpt lat="38.4602559" lon="16.2736047"><ele>1023.0</ele><time>2026-04-11T11:51:58.69Z</time></trkpt><trkpt lat="38.4602136" lon="16.2737253"><ele>1023.0</ele><time>2026-04-11T11:51:59.69Z</time></trkpt><trkpt lat="38.4601965" lon="16.2738301"><ele>1023.0</ele><time>2026-04-11T11:52:00.691Z</time></trkpt><trkpt lat="38.4602012" lon="16.2739353"><ele>1023.0</ele><time>2026-04-11T11:52:01.69Z</time></trkpt><trkpt lat="38.4602261" lon="16.2740509"><ele>1023.0</ele><time>2026-04-11T11:52:02.691Z</time></trkpt><trkpt lat="38.4602686" lon="16.2741585"><ele>1023.0</ele><time>2026-04-11T11:52:03.69Z</time></trkpt><trkpt lat="38.4603353" lon="16.2742523"><ele>1023.75</ele><time>2026-04-11T11:52:04.691Z</time></trkpt><trkpt lat="38.4604292" lon="16.274311"><ele>1024.5</ele><time>2026-04-11T11:52:05.69Z</time></trkpt><trkpt lat="38.4605382" lon="16.2743477"><ele>1025.25</ele><time>2026-04-11T11:52:06.69Z</time></trkpt><trkpt lat="38.4606537" lon="16.2743532"><ele>1026.0</ele><time>2026-04-11T11:52:07.69Z</time></trkpt><trkpt lat="38.4607727" lon="16.2743586"><ele>1028.0</ele><time>2026-04-11T11:52:08.691Z</time></trkpt><trkpt lat="38.4608969" lon="16.2743658"><ele>1030.0</ele><time>2026-04-11T11:52:09.69Z</time></trkpt><trkpt lat="38.4610217" lon="16.2743765"><ele>1032.0</ele><time>2026-04-11T11:52:10.691Z</time></trkpt><trkpt lat="38.4611447" lon="16.2743951"><ele>1034.0</ele><time>2026-04-11T11:52:11.691Z</time></trkpt><trkpt lat="38.4612636" lon="16.2744268"><ele>1035.25</ele><time>2026-04-11T11:52:12.691Z</time></trkpt><trkpt lat="38.4613836" lon="16.2744667"><ele>1036.5</ele><time>2026-04-11T11:52:13.69Z</time></trkpt><trkpt lat="38.4615016" lon="16.2745146"><ele>1037.75</ele><time>2026-04-11T11:52:14.69Z</time></trkpt><trkpt lat="38.4616202" lon="16.2745749"><ele>1039.0</ele><time>2026-04-11T11:52:15.691Z</time></trkpt><trkpt lat="38.4617372" lon="16.2746427"><ele>1039.0</ele><time>2026-04-11T11:52:16.69Z</time></trkpt><trkpt lat="38.4618477" lon="16.2747142"><ele>1039.0</ele><time>2026-04-11T11:52:17.69Z</time></trkpt><trkpt lat="38.4619588" lon="16.2747939"><ele>1039.0</ele><time>2026-04-11T11:52:18.69Z</time></trkpt><trkpt lat="38.4620681" lon="16.2748816"><ele>1039.0</ele><time>2026-04-11T11:52:19.691Z</time></trkpt><trkpt lat="38.4621836" lon="16.2749677"><ele>1037.5</ele><time>2026-04-11T11:52:20.69Z</time></trkpt><trkpt lat="38.4623011" lon="16.2750466"><ele>1036.0</ele><time>2026-04-11T11:52:21.69Z</time></trkpt><trkpt lat="38.4624265" lon="16.2751172"><ele>1034.5</ele><time>2026-04-11T11:52:22.691Z</time></trkpt><trkpt lat="38.4625624" lon="16.2751752"><ele>1033.0</ele><time>2026-04-11T11:52:23.691Z</time></trkpt><trkpt lat="38.4627032" lon="16.2752262"><ele>1033.0</ele><time>2026-04-11T11:52:24.69Z</time></trkpt><trkpt lat="38.4628564" lon="16.275273"><ele>1033.0</ele><time>2026-04-11T11:52:25.691Z</time></trkpt><trkpt lat="38.4629953" lon="16.2753218"><ele>1033.0</ele><time>2026-04-11T11:52:26.69Z</time></trkpt><trkpt lat="38.4631289" lon="16.2753758"><ele>1033.0</ele><time>2026-04-11T11:52:27.691Z</time></trkpt><trkpt lat="38.4632507" lon="16.2754365"><ele>1032.0</ele><time>2026-04-11T11:52:28.69Z</time></trkpt><trkpt lat="38.4633696" lon="16.2755013"><ele>1031.0</ele><time>2026-04-11T11:52:29.69Z</time></trkpt><trkpt lat="38.4634807" lon="16.2755778"><ele>1030.0</ele><time>2026-04-11T11:52:30.691Z</time></trkpt><trkpt lat="38.4635898" lon="16.2756555"><ele>1029.0</ele><time>2026-04-11T11:52:31.69Z</time></trkpt><trkpt lat="38.4636927" lon="16.2757346"><ele>1027.75</ele><time>2026-04-11T11:52:32.69Z</time></trkpt><trkpt lat="38.4637935" lon="16.2758118"><ele>1026.5</ele><time>2026-04-11T11:52:33.69Z</time></trkpt><trkpt lat="38.4639037" lon="16.2758834"><ele>1025.25</ele><time>2026-04-11T11:52:34.69Z</time></trkpt><trkpt lat="38.4640251" lon="16.2759458"><ele>1024.0</ele><time>2026-04-11T11:52:35.69Z</time></trkpt><trkpt lat="38.4641385" lon="16.2759819"><ele>1024.0</ele><time>2026-04-11T11:52:36.691Z</time></trkpt><trkpt lat="38.4642555" lon="16.2760003"><ele>1024.0</ele><time>2026-04-11T11:52:37.69Z</time></trkpt><trkpt lat="38.4643722" lon="16.2759971"><ele>1024.0</ele><time>2026-04-11T11:52:38.69Z</time></trkpt><trkpt lat="38.4644851" lon="16.2759847"><ele>1024.0</ele><time>2026-04-11T11:52:39.691Z</time></trkpt><trkpt lat="38.4645915" lon="16.275952"><ele>1023.6</ele><time>2026-04-11T11:52:40.69Z</time></trkpt><trkpt lat="38.4646878" lon="16.2758887"><ele>1023.2</ele><time>2026-04-11T11:52:41.691Z</time></trkpt><trkpt lat="38.4647677" lon="16.2758065"><ele>1022.8000000000001</ele><time>2026-04-11T11:52:42.69Z</time></trkpt><trkpt lat="38.4648443" lon="16.2756993"><ele>1022.4000000000001</ele><time>2026-04-11T11:52:43.69Z</time></trkpt><trkpt lat="38.4649176" lon="16.2755801"><ele>1022.0</ele><time>2026-04-11T11:52:44.69Z</time></trkpt><trkpt lat="38.4649826" lon="16.2754499"><ele>1022.0</ele><time>2026-04-11T11:52:45.69Z</time></trkpt><trkpt lat="38.4650393" lon="16.2753215"><ele>1022.0</ele><time>2026-04-11T11:52:46.69Z</time></trkpt><trkpt lat="38.4650823" lon="16.2751827"><ele>1022.0</ele><time>2026-04-11T11:52:47.69Z</time></trkpt><trkpt lat="38.4651028" lon="16.2750296"><ele>1022.0</ele><time>2026-04-11T11:52:48.69Z</time></trkpt><trkpt lat="38.4651062" lon="16.2748765"><ele>1021.25</ele><time>2026-04-11T11:52:49.69Z</time></trkpt><trkpt lat="38.4651014" lon="16.2747251"><ele>1020.5</ele><time>2026-04-11T11:52:50.69Z</time></trkpt><trkpt lat="38.4650813" lon="16.2745797"><ele>1019.75</ele><time>2026-04-11T11:52:51.69Z</time></trkpt><trkpt lat="38.4650454" lon="16.2744309"><ele>1019.0</ele><time>2026-04-11T11:52:52.69Z</time></trkpt><trkpt lat="38.4649921" lon="16.2742803"><ele>1019.0</ele><time>2026-04-11T11:52:53.69Z</time></trkpt><trkpt lat="38.4649371" lon="16.2741478"><ele>1019.0000000000001</ele><time>2026-04-11T11:52:54.69Z</time></trkpt><trkpt lat="38.4648807" lon="16.2740307"><ele>1019.0000000000001</ele><time>2026-04-11T11:52:55.69Z</time></trkpt><trkpt lat="38.4648333" lon="16.2739146"><ele>1019.0</ele><time>2026-04-11T11:52:56.691Z</time></trkpt><trkpt lat="38.4647992" lon="16.2738071"><ele>1019.0</ele><time>2026-04-11T11:52:57.69Z</time></trkpt><trkpt lat="38.4647867" lon="16.2737086"><ele>1018.8333333333334</ele><time>2026-04-11T11:52:58.691Z</time></trkpt><trkpt lat="38.4647918" lon="16.2736149"><ele>1018.6666666666667</ele><time>2026-04-11T11:52:59.691Z</time></trkpt><trkpt lat="38.4648258" lon="16.2735371"><ele>1018.5</ele><time>2026-04-11T11:53:00.69Z</time></trkpt><trkpt lat="38.4648851" lon="16.273474"><ele>1018.3333333333333</ele><time>2026-04-11T11:53:01.691Z</time></trkpt><trkpt lat="38.464962" lon="16.2734323"><ele>1018.1666666666666</ele><time>2026-04-11T11:53:02.69Z</time></trkpt><trkpt lat="38.4650502" lon="16.2734162"><ele>1018.0</ele><time>2026-04-11T11:53:03.691Z</time></trkpt><trkpt lat="38.4651322" lon="16.273428"><ele>1018.0</ele><time>2026-04-11T11:53:04.691Z</time></trkpt><trkpt lat="38.4652164" lon="16.2734756"><ele>1018.0</ele><time>2026-04-11T11:53:05.691Z</time></trkpt><trkpt lat="38.4652987" lon="16.2735475"><ele>1018.0</ele><time>2026-04-11T11:53:06.69Z</time></trkpt><trkpt lat="38.4653964" lon="16.273618"><ele>1018.0</ele><time>2026-04-11T11:53:07.691Z</time></trkpt><trkpt lat="38.4655156" lon="16.2736713"><ele>1018.0</ele><time>2026-04-11T11:53:08.69Z</time></trkpt><trkpt lat="38.4656385" lon="16.2737096"><ele>1016.5</ele><time>2026-04-11T11:53:09.69Z</time></trkpt><trkpt lat="38.4657601" lon="16.2737293"><ele>1015.0</ele><time>2026-04-11T11:53:10.691Z</time></trkpt><trkpt lat="38.4658834" lon="16.2737325"><ele>1013.5</ele><time>2026-04-11T11:53:11.69Z</time></trkpt><trkpt lat="38.4660151" lon="16.2737289"><ele>1012.0</ele><time>2026-04-11T11:53:12.691Z</time></trkpt><trkpt lat="38.4661402" lon="16.2737206"><ele>1012.0</ele><time>2026-04-11T11:53:13.691Z</time></trkpt><trkpt lat="38.4662646" lon="16.2737098"><ele>1012.0</ele><time>2026-04-11T11:53:14.69Z</time></trkpt><trkpt lat="38.4663925" lon="16.2737087"><ele>1012.0</ele><time>2026-04-11T11:53:15.69Z</time></trkpt><trkpt lat="38.4664988" lon="16.273727"><ele>1012.0</ele><time>2026-04-11T11:53:16.69Z</time></trkpt><trkpt lat="38.4665968" lon="16.2737685"><ele>1012.0</ele><time>2026-04-11T11:53:17.69Z</time></trkpt><trkpt lat="38.4666843" lon="16.2738445"><ele>1012.0</ele><time>2026-04-11T11:53:18.69Z</time></trkpt><trkpt lat="38.4667653" lon="16.2739288"><ele>1012.0</ele><time>2026-04-11T11:53:19.69Z</time></trkpt><trkpt lat="38.4668373" lon="16.2740194"><ele>1012.0</ele><time>2026-04-11T11:53:20.691Z</time></trkpt><trkpt lat="38.4668892" lon="16.2741088"><ele>1012.0</ele><time>2026-04-11T11:53:21.69Z</time></trkpt><trkpt lat="38.466924" lon="16.2742016"><ele>1011.9999999999999</ele><time>2026-04-11T11:53:22.69Z</time></trkpt><trkpt lat="38.4669423" lon="16.2742938"><ele>1012.0</ele><time>2026-04-11T11:53:23.691Z</time></trkpt><trkpt lat="38.46695" lon="16.2743895"><ele>1012.0</ele><time>2026-04-11T11:53:24.69Z</time></trkpt><trkpt lat="38.4669232" lon="16.2744874"><ele>1012.0</ele><time>2026-04-11T11:53:25.69Z</time></trkpt><trkpt lat="38.4668698" lon="16.2745928"><ele>1011.9999999999999</ele><time>2026-04-11T11:53:26.691Z</time></trkpt><trkpt lat="38.4668055" lon="16.2747111"><ele>1012.0</ele><time>2026-04-11T11:53:27.691Z</time></trkpt><trkpt lat="38.4667365" lon="16.2748354"><ele>1012.0</ele><time>2026-04-11T11:53:28.691Z</time></trkpt><trkpt lat="38.4666546" lon="16.2749685"><ele>1012.0</ele><time>2026-04-11T11:53:29.691Z</time></trkpt><trkpt lat="38.466576" lon="16.275107"><ele>1012.0</ele><time>2026-04-11T11:53:30.69Z</time></trkpt><trkpt lat="38.4665223" lon="16.2752502"><ele>1012.0</ele><time>2026-04-11T11:53:31.69Z</time></trkpt><trkpt lat="38.4664971" lon="16.2754005"><ele>1012.0</ele><time>2026-04-11T11:53:32.69Z</time></trkpt><trkpt lat="38.4664871" lon="16.2755548"><ele>1012.0</ele><time>2026-04-11T11:53:33.69Z</time></trkpt><trkpt lat="38.4664871" lon="16.2757073"><ele>1012.0</ele><time>2026-04-11T11:53:34.69Z</time></trkpt><trkpt lat="38.4664901" lon="16.2758657"><ele>1012.0</ele><time>2026-04-11T11:53:35.69Z</time></trkpt><trkpt lat="38.4664944" lon="16.2760241"><ele>1013.5</ele><time>2026-04-11T11:53:36.69Z</time></trkpt><trkpt lat="38.4664999" lon="16.2761936"><ele>1015.0</ele><time>2026-04-11T11:53:37.69Z</time></trkpt><trkpt lat="38.4664979" lon="16.2763734"><ele>1016.5</ele><time>2026-04-11T11:53:38.69Z</time></trkpt><trkpt lat="38.4664935" lon="16.2765538"><ele>1018.0</ele><time>2026-04-11T11:53:39.69Z</time></trkpt><trkpt lat="38.4664936" lon="16.2767374"><ele>1018.25</ele><time>2026-04-11T11:53:40.69Z</time></trkpt><trkpt lat="38.466495" lon="16.276918"><ele>1018.5</ele><time>2026-04-11T11:53:41.69Z</time></trkpt><trkpt lat="38.4664958" lon="16.2770984"><ele>1018.75</ele><time>2026-04-11T11:53:42.691Z</time></trkpt><trkpt lat="38.4665112" lon="16.2772579"><ele>1019.0</ele><time>2026-04-11T11:53:43.69Z</time></trkpt><trkpt lat="38.4665437" lon="16.2774041"><ele>1019.0</ele><time>2026-04-11T11:53:44.69Z</time></trkpt><trkpt lat="38.4665988" lon="16.2775372"><ele>1019.0</ele><time>2026-04-11T11:53:45.69Z</time></trkpt><trkpt lat="38.4666799" lon="16.2776746"><ele>1019.0</ele><time>2026-04-11T11:53:46.69Z</time></trkpt><trkpt lat="38.4667738" lon="16.2778208"><ele>1019.0</ele><time>2026-04-11T11:53:47.69Z</time></trkpt><trkpt lat="38.466864" lon="16.2779607"><ele>1019.0</ele><time>2026-04-11T11:53:48.691Z</time></trkpt><trkpt lat="38.466952" lon="16.2780878"><ele>1019.0</ele><time>2026-04-11T11:53:49.69Z</time></trkpt><trkpt lat="38.4670425" lon="16.2782201"><ele>1019.0</ele><time>2026-04-11T11:53:50.69Z</time></trkpt><trkpt lat="38.4671405" lon="16.2783516"><ele>1019.0</ele><time>2026-04-11T11:53:51.691Z</time></trkpt><trkpt lat="38.4672376" lon="16.2784938"><ele>1020.0</ele><time>2026-04-11T11:53:52.691Z</time></trkpt><trkpt lat="38.4673294" lon="16.278628"><ele>1021.0</ele><time>2026-04-11T11:53:53.691Z</time></trkpt><trkpt lat="38.4674158" lon="16.2787484"><ele>1022.0</ele><time>2026-04-11T11:53:54.69Z</time></trkpt><trkpt lat="38.4675084" lon="16.2788691"><ele>1023.0</ele><time>2026-04-11T11:53:55.69Z</time></trkpt><trkpt lat="38.4676131" lon="16.2789599"><ele>1022.75</ele><time>2026-04-11T11:53:56.69Z</time></trkpt><trkpt lat="38.4677369" lon="16.2790351"><ele>1022.5</ele><time>2026-04-11T11:53:57.69Z</time></trkpt><trkpt lat="38.4678601" lon="16.2791035"><ele>1022.25</ele><time>2026-04-11T11:53:58.69Z</time></trkpt><trkpt lat="38.4679778" lon="16.2791799"><ele>1022.0</ele><time>2026-04-11T11:53:59.69Z</time></trkpt><trkpt lat="38.468082" lon="16.2792536"><ele>1022.0</ele><time>2026-04-11T11:54:00.691Z</time></trkpt><trkpt lat="38.4681698" lon="16.2793371"><ele>1022.0</ele><time>2026-04-11T11:54:01.691Z</time></trkpt><trkpt lat="38.4682404" lon="16.2794367"><ele>1022.0</ele><time>2026-04-11T11:54:02.691Z</time></trkpt><trkpt lat="38.4682923" lon="16.2795643"><ele>1022.0</ele><time>2026-04-11T11:54:03.691Z</time></trkpt><trkpt lat="38.4683198" lon="16.2797121"><ele>1022.0</ele><time>2026-04-11T11:54:04.69Z</time></trkpt><trkpt lat="38.4683321" lon="16.279869"><ele>1021.25</ele><time>2026-04-11T11:54:05.69Z</time></trkpt><trkpt lat="38.468343" lon="16.2800233"><ele>1020.5</ele><time>2026-04-11T11:54:06.69Z</time></trkpt><trkpt lat="38.4683633" lon="16.2801677"><ele>1019.75</ele><time>2026-04-11T11:54:07.69Z</time></trkpt><trkpt lat="38.4684012" lon="16.2803007"><ele>1019.0</ele><time>2026-04-11T11:54:08.69Z</time></trkpt><trkpt lat="38.4684721" lon="16.280417"><ele>1019.0</ele><time>2026-04-11T11:54:09.69Z</time></trkpt><trkpt lat="38.4685631" lon="16.2805102"><ele>1019.0</ele><time>2026-04-11T11:54:10.69Z</time></trkpt><trkpt lat="38.4686453" lon="16.2806049"><ele>1019.0</ele><time>2026-04-11T11:54:11.691Z</time></trkpt><trkpt lat="38.4687207" lon="16.2807079"><ele>1019.0</ele><time>2026-04-11T11:54:12.691Z</time></trkpt><trkpt lat="38.4687829" lon="16.2808295"><ele>1022.25</ele><time>2026-04-11T11:54:13.69Z</time></trkpt><trkpt lat="38.4688236" lon="16.2809599"><ele>1025.5</ele><time>2026-04-11T11:54:14.69Z</time></trkpt><trkpt lat="38.4688436" lon="16.2810998"><ele>1028.75</ele><time>2026-04-11T11:54:15.691Z</time></trkpt><trkpt lat="38.4688295" lon="16.2812482"><ele>1032.0</ele><time>2026-04-11T11:54:16.69Z</time></trkpt><trkpt lat="38.4687983" lon="16.2814032"><ele>1026.5</ele><time>2026-04-11T11:54:17.69Z</time></trkpt><trkpt lat="38.468765" lon="16.28157"><ele>1021.0</ele><time>2026-04-11T11:54:18.69Z</time></trkpt><trkpt lat="38.4687436" lon="16.2817499"><ele>1015.5</ele><time>2026-04-11T11:54:19.691Z</time></trkpt><trkpt lat="38.468739" lon="16.2819306"><ele>1010.0</ele><time>2026-04-11T11:54:20.691Z</time></trkpt><trkpt lat="38.4687515" lon="16.282113"><ele>1011.75</ele><time>2026-04-11T11:54:21.69Z</time></trkpt><trkpt lat="38.4687658" lon="16.2822941"><ele>1013.5</ele><time>2026-04-11T11:54:22.69Z</time></trkpt><trkpt lat="38.4687831" lon="16.2824705"><ele>1015.25</ele><time>2026-04-11T11:54:23.69Z</time></trkpt><trkpt lat="38.4688086" lon="16.282635"><ele>1017.0</ele><time>2026-04-11T11:54:24.69Z</time></trkpt><trkpt lat="38.4688316" lon="16.282811"><ele>1021.25</ele><time>2026-04-11T11:54:25.69Z</time></trkpt><trkpt lat="38.4688539" lon="16.2829891"><ele>1025.5</ele><time>2026-04-11T11:54:26.69Z</time></trkpt><trkpt lat="38.4688743" lon="16.2831687"><ele>1029.75</ele><time>2026-04-11T11:54:27.69Z</time></trkpt><trkpt lat="38.4689086" lon="16.2833335"><ele>1034.0</ele><time>2026-04-11T11:54:28.691Z</time></trkpt><trkpt lat="38.4689489" lon="16.2834813"><ele>1034.0</ele><time>2026-04-11T11:54:29.69Z</time></trkpt><trkpt lat="38.4690057" lon="16.2836122"><ele>1034.0</ele><time>2026-04-11T11:54:30.691Z</time></trkpt><trkpt lat="38.4690744" lon="16.2837322"><ele>1034.0</ele><time>2026-04-11T11:54:31.69Z</time></trkpt><trkpt lat="38.4691437" lon="16.2838137"><ele>1034.0</ele><time>2026-04-11T11:54:32.69Z</time></trkpt><trkpt lat="38.4692225" lon="16.2838592"><ele>1034.0</ele><time>2026-04-11T11:54:33.69Z</time></trkpt><trkpt lat="38.4693105" lon="16.2838724"><ele>1034.0</ele><time>2026-04-11T11:54:34.691Z</time></trkpt><trkpt lat="38.4694044" lon="16.2838528"><ele>1034.0</ele><time>2026-04-11T11:54:35.691Z</time></trkpt><trkpt lat="38.4694959" lon="16.2837989"><ele>1034.0</ele><time>2026-04-11T11:54:36.691Z</time></trkpt><trkpt lat="38.4695837" lon="16.2837185"><ele>1034.0</ele><time>2026-04-11T11:54:37.69Z</time></trkpt><trkpt lat="38.4696734" lon="16.2836313"><ele>1034.0</ele><time>2026-04-11T11:54:38.69Z</time></trkpt><trkpt lat="38.4697596" lon="16.2835548"><ele>1034.6666666666667</ele><time>2026-04-11T11:54:39.69Z</time></trkpt><trkpt lat="38.4698366" lon="16.2834934"><ele>1035.3333333333335</ele><time>2026-04-11T11:54:40.691Z</time></trkpt><trkpt lat="38.469917" lon="16.2834668"><ele>1036.0</ele><time>2026-04-11T11:54:41.69Z</time></trkpt><trkpt lat="38.4699958" lon="16.28347"><ele>1036.6666666666667</ele><time>2026-04-11T11:54:42.691Z</time></trkpt><trkpt lat="38.4700666" lon="16.2835185"><ele>1037.3333333333333</ele><time>2026-04-11T11:54:43.691Z</time></trkpt><trkpt lat="38.4701225" lon="16.283596"><ele>1038.0</ele><time>2026-04-11T11:54:44.69Z</time></trkpt><trkpt lat="38.4701508" lon="16.2836895"><ele>1038.0</ele><time>2026-04-11T11:54:45.69Z</time></trkpt><trkpt lat="38.4701476" lon="16.2838124"><ele>1038.0</ele><time>2026-04-11T11:54:46.69Z</time></trkpt><trkpt lat="38.4701157" lon="16.2839642"><ele>1038.0</ele><time>2026-04-11T11:54:47.69Z</time></trkpt><trkpt lat="38.4700795" lon="16.2841146"><ele>1038.0</ele><time>2026-04-11T11:54:48.691Z</time></trkpt><trkpt lat="38.4700506" lon="16.2842657"><ele>1034.6</ele><time>2026-04-11T11:54:49.69Z</time></trkpt><trkpt lat="38.470038" lon="16.2844075"><ele>1031.1999999999998</ele><time>2026-04-11T11:54:50.691Z</time></trkpt><trkpt lat="38.4700464" lon="16.2845395"><ele>1027.8</ele><time>2026-04-11T11:54:51.69Z</time></trkpt><trkpt lat="38.4700928" lon="16.2846709"><ele>1024.3999999999999</ele><time>2026-04-11T11:54:52.691Z</time></trkpt><trkpt lat="38.4701746" lon="16.2847803"><ele>1021.0</ele><time>2026-04-11T11:54:53.691Z</time></trkpt><trkpt lat="38.4702768" lon="16.2848439"><ele>1019.8</ele><time>2026-04-11T11:54:54.69Z</time></trkpt><trkpt lat="38.4703784" lon="16.2848528"><ele>1018.5999999999999</ele><time>2026-04-11T11:54:55.69Z</time></trkpt><trkpt lat="38.4704739" lon="16.2848158"><ele>1017.4</ele><time>2026-04-11T11:54:56.69Z</time></trkpt><trkpt lat="38.4705636" lon="16.2847452"><ele>1016.2</ele><time>2026-04-11T11:54:57.691Z</time></trkpt><trkpt lat="38.4706452" lon="16.2846504"><ele>1015.0</ele><time>2026-04-11T11:54:58.69Z</time></trkpt><trkpt lat="38.4707294" lon="16.2845436"><ele>1018.25</ele><time>2026-04-11T11:54:59.69Z</time></trkpt><trkpt lat="38.4708144" lon="16.284424"><ele>1021.5</ele><time>2026-04-11T11:55:00.691Z</time></trkpt><trkpt lat="38.470889" lon="16.284301"><ele>1024.75</ele><time>2026-04-11T11:55:01.69Z</time></trkpt><trkpt lat="38.4709529" lon="16.2841732"><ele>1028.0</ele><time>2026-04-11T11:55:02.691Z</time></trkpt><trkpt lat="38.4710114" lon="16.2840415"><ele>1027.6</ele><time>2026-04-11T11:55:03.69Z</time></trkpt><trkpt lat="38.47107" lon="16.2839226"><ele>1027.1999999999998</ele><time>2026-04-11T11:55:04.69Z</time></trkpt><trkpt lat="38.4711296" lon="16.283811"><ele>1026.8</ele><time>2026-04-11T11:55:05.69Z</time></trkpt><trkpt lat="38.4711983" lon="16.2837058"><ele>1026.3999999999999</ele><time>2026-04-11T11:55:06.691Z</time></trkpt><trkpt lat="38.4712761" lon="16.2836262"><ele>1026.0</ele><time>2026-04-11T11:55:07.69Z</time></trkpt><trkpt lat="38.4713654" lon="16.2835818"><ele>1026.0</ele><time>2026-04-11T11:55:08.691Z</time></trkpt><trkpt lat="38.4714587" lon="16.2835714"><ele>1026.0</ele><time>2026-04-11T11:55:09.69Z</time></trkpt><trkpt lat="38.4715595" lon="16.2835978"><ele>1026.0</ele><time>2026-04-11T11:55:10.69Z</time></trkpt><trkpt lat="38.4716681" lon="16.2836725"><ele>1026.0</ele><time>2026-04-11T11:55:11.691Z</time></trkpt><trkpt lat="38.471783" lon="16.2837514"><ele>1026.0</ele><time>2026-04-11T11:55:12.69Z</time></trkpt><trkpt lat="38.471903" lon="16.2837948"><ele>1026.0</ele><time>2026-04-11T11:55:13.69Z</time></trkpt><trkpt lat="38.4720256" lon="16.2837947"><ele>1026.0</ele><time>2026-04-11T11:55:14.691Z</time></trkpt><trkpt lat="38.4721444" lon="16.2837619"><ele>1026.0</ele><time>2026-04-11T11:55:15.69Z</time></trkpt><trkpt lat="38.4722497" lon="16.2836837"><ele>1022.4</ele><time>2026-04-11T11:55:16.69Z</time></trkpt><trkpt lat="38.4723308" lon="16.2835927"><ele>1018.8</ele><time>2026-04-11T11:55:17.69Z</time></trkpt><trkpt lat="38.4723877" lon="16.2834729"><ele>1015.1999999999999</ele><time>2026-04-11T11:55:18.69Z</time></trkpt><trkpt lat="38.4724277" lon="16.2833405"><ele>1011.5999999999999</ele><time>2026-04-11T11:55:19.69Z</time></trkpt><trkpt lat="38.4724689" lon="16.2832109"><ele>1008.0</ele><time>2026-04-11T11:55:20.69Z</time></trkpt><trkpt lat="38.4725017" lon="16.2830854"><ele>1008.0</ele><time>2026-04-11T11:55:21.691Z</time></trkpt><trkpt lat="38.472515" lon="16.2829532"><ele>1008.0</ele><time>2026-04-11T11:55:22.69Z</time></trkpt><trkpt lat="38.4725246" lon="16.2828082"><ele>1008.0</ele><time>2026-04-11T11:55:23.69Z</time></trkpt><trkpt lat="38.4725389" lon="16.2826386"><ele>1008.0</ele><time>2026-04-11T11:55:24.69Z</time></trkpt><trkpt lat="38.472553" lon="16.2824654"><ele>1008.0</ele><time>2026-04-11T11:55:25.69Z</time></trkpt><trkpt lat="38.4725661" lon="16.2823095"><ele>1008.0</ele><time>2026-04-11T11:55:26.689Z</time></trkpt><trkpt lat="38.4725725" lon="16.2821516"><ele>1008.0</ele><time>2026-04-11T11:55:27.689Z</time></trkpt><trkpt lat="38.4725771" lon="16.2819944"><ele>1008.0</ele><time>2026-04-11T11:55:28.689Z</time></trkpt><trkpt lat="38.472582" lon="16.2818464"><ele>1008.8</ele><time>2026-04-11T11:55:29.689Z</time></trkpt><trkpt lat="38.4725933" lon="16.2817131"><ele>1009.5999999999999</ele><time>2026-04-11T11:55:30.69Z</time></trkpt><trkpt lat="38.4726092" lon="16.2815789"><ele>1010.4000000000001</ele><time>2026-04-11T11:55:31.689Z</time></trkpt><trkpt lat="38.4726275" lon="16.2814417"><ele>1011.2</ele><time>2026-04-11T11:55:32.689Z</time></trkpt><trkpt lat="38.472653" lon="16.2813131"><ele>1012.0</ele><time>2026-04-11T11:55:33.689Z</time></trkpt><trkpt lat="38.4726834" lon="16.2812068"><ele>1011.9999999999999</ele><time>2026-04-11T11:55:34.69Z</time></trkpt><trkpt lat="38.4727273" lon="16.2811132"><ele>1012.0</ele><time>2026-04-11T11:55:35.689Z</time></trkpt><trkpt lat="38.4727744" lon="16.2810338"><ele>1012.0</ele><time>2026-04-11T11:55:36.689Z</time></trkpt><trkpt lat="38.4728741" lon="16.2809715"><ele>1012.0</ele><time>2026-04-11T11:55:38.689Z</time></trkpt><trkpt lat="38.4729411" lon="16.2809917"><ele>1011.9999999999999</ele><time>2026-04-11T11:55:39.689Z</time></trkpt><trkpt lat="38.4730156" lon="16.2810342"><ele>1012.0</ele><time>2026-04-11T11:55:40.69Z</time></trkpt><trkpt lat="38.4730945" lon="16.281099"><ele>1010.25</ele><time>2026-04-11T11:55:41.689Z</time></trkpt><trkpt lat="38.4731733" lon="16.2811856"><ele>1008.5</ele><time>2026-04-11T11:55:42.689Z</time></trkpt><trkpt lat="38.4732508" lon="16.2812901"><ele>1006.75</ele><time>2026-04-11T11:55:43.689Z</time></trkpt><trkpt lat="38.4733337" lon="16.2813924"><ele>1005.0</ele><time>2026-04-11T11:55:44.689Z</time></trkpt><trkpt lat="38.4734292" lon="16.2814894"><ele>1005.75</ele><time>2026-04-11T11:55:45.689Z</time></trkpt><trkpt lat="38.4735353" lon="16.2815892"><ele>1006.5</ele><time>2026-04-11T11:55:46.689Z</time></trkpt><trkpt lat="38.4736518" lon="16.2816869"><ele>1007.25</ele><time>2026-04-11T11:55:47.69Z</time></trkpt><trkpt lat="38.473759" lon="16.281784"><ele>1008.0</ele><time>2026-04-11T11:55:48.69Z</time></trkpt><trkpt lat="38.4738516" lon="16.2818822"><ele>1008.0</ele><time>2026-04-11T11:55:49.689Z</time></trkpt><trkpt lat="38.4739307" lon="16.2819806"><ele>1008.0</ele><time>2026-04-11T11:55:50.69Z</time></trkpt><trkpt lat="38.4739963" lon="16.2820929"><ele>1008.0</ele><time>2026-04-11T11:55:51.689Z</time></trkpt><trkpt lat="38.4740491" lon="16.2822151"><ele>1008.0</ele><time>2026-04-11T11:55:52.69Z</time></trkpt><trkpt lat="38.4740854" lon="16.28236"><ele>1008.0</ele><time>2026-04-11T11:55:53.689Z</time></trkpt><trkpt lat="38.4741127" lon="16.282513"><ele>1007.25</ele><time>2026-04-11T11:55:54.689Z</time></trkpt><trkpt lat="38.4741389" lon="16.2826723"><ele>1006.5</ele><time>2026-04-11T11:55:55.689Z</time></trkpt><trkpt lat="38.474167" lon="16.2828342"><ele>1005.75</ele><time>2026-04-11T11:55:56.689Z</time></trkpt><trkpt lat="38.4741935" lon="16.2829932"><ele>1005.0</ele><time>2026-04-11T11:55:57.689Z</time></trkpt><trkpt lat="38.4742242" lon="16.2831431"><ele>1004.0</ele><time>2026-04-11T11:55:58.69Z</time></trkpt><trkpt lat="38.4742647" lon="16.2832875"><ele>1003.0</ele><time>2026-04-11T11:55:59.689Z</time></trkpt><trkpt lat="38.4743207" lon="16.2834207"><ele>1002.0</ele><time>2026-04-11T11:56:00.69Z</time></trkpt><trkpt lat="38.4743856" lon="16.2835455"><ele>1001.0</ele><time>2026-04-11T11:56:01.689Z</time></trkpt><trkpt lat="38.4744624" lon="16.2836715"><ele>1001.0</ele><time>2026-04-11T11:56:02.689Z</time></trkpt><trkpt lat="38.4745498" lon="16.2837818"><ele>1001.0</ele><time>2026-04-11T11:56:03.69Z</time></trkpt><trkpt lat="38.4746422" lon="16.2838777"><ele>1001.0</ele><time>2026-04-11T11:56:04.689Z</time></trkpt><trkpt lat="38.4747443" lon="16.2839406"><ele>1001.0</ele><time>2026-04-11T11:56:05.69Z</time></trkpt><trkpt lat="38.4748665" lon="16.2839762"><ele>1000.25</ele><time>2026-04-11T11:56:06.689Z</time></trkpt><trkpt lat="38.4750029" lon="16.2839813"><ele>999.5</ele><time>2026-04-11T11:56:07.689Z</time></trkpt><trkpt lat="38.4751348" lon="16.283964"><ele>998.75</ele><time>2026-04-11T11:56:08.69Z</time></trkpt><trkpt lat="38.4752599" lon="16.2839345"><ele>998.0</ele><time>2026-04-11T11:56:09.689Z</time></trkpt><trkpt lat="38.475374" lon="16.2838949"><ele>997.8</ele><time>2026-04-11T11:56:10.689Z</time></trkpt><trkpt lat="38.4754833" lon="16.2838557"><ele>997.5999999999999</ele><time>2026-04-11T11:56:11.689Z</time></trkpt><trkpt lat="38.4755913" lon="16.2838148"><ele>997.4000000000001</ele><time>2026-04-11T11:56:12.689Z</time></trkpt><trkpt lat="38.475695" lon="16.2837619"><ele>997.2</ele><time>2026-04-11T11:56:13.69Z</time></trkpt><trkpt lat="38.4757843" lon="16.2836933"><ele>997.0</ele><time>2026-04-11T11:56:14.689Z</time></trkpt><trkpt lat="38.4758707" lon="16.2835946"><ele>997.0</ele><time>2026-04-11T11:56:15.69Z</time></trkpt><trkpt lat="38.4759571" lon="16.2834752"><ele>997.0</ele><time>2026-04-11T11:56:16.689Z</time></trkpt><trkpt lat="38.4760432" lon="16.2833485"><ele>997.0</ele><time>2026-04-11T11:56:17.689Z</time></trkpt><trkpt lat="38.4761259" lon="16.283219"><ele>997.0</ele><time>2026-04-11T11:56:18.69Z</time></trkpt><trkpt lat="38.4762149" lon="16.2830971"><ele>993.0</ele><time>2026-04-11T11:56:19.689Z</time></trkpt><trkpt lat="38.4762967" lon="16.2829609"><ele>989.0</ele><time>2026-04-11T11:56:20.689Z</time></trkpt><trkpt lat="38.4763441" lon="16.2828182"><ele>985.0</ele><time>2026-04-11T11:56:21.69Z</time></trkpt><trkpt lat="38.476362" lon="16.2826694"><ele>981.0</ele><time>2026-04-11T11:56:22.69Z</time></trkpt><trkpt lat="38.4763608" lon="16.2825165"><ele>981.0</ele><time>2026-04-11T11:56:23.69Z</time></trkpt><trkpt lat="38.4763517" lon="16.2823527"><ele>981.0</ele><time>2026-04-11T11:56:24.689Z</time></trkpt><trkpt lat="38.4763404" lon="16.2821886"><ele>981.0</ele><time>2026-04-11T11:56:25.689Z</time></trkpt><trkpt lat="38.4763286" lon="16.2820299"><ele>981.0</ele><time>2026-04-11T11:56:26.689Z</time></trkpt><trkpt lat="38.47633" lon="16.2818859"><ele>982.0</ele><time>2026-04-11T11:56:27.69Z</time></trkpt><trkpt lat="38.4763491" lon="16.2817448"><ele>982.9999999999999</ele><time>2026-04-11T11:56:28.69Z</time></trkpt><trkpt lat="38.476394" lon="16.2816154"><ele>983.9999999999999</ele><time>2026-04-11T11:56:29.689Z</time></trkpt><trkpt lat="38.4764587" lon="16.2815175"><ele>985.0</ele><time>2026-04-11T11:56:30.69Z</time></trkpt><trkpt lat="38.4765469" lon="16.2814238"><ele>986.0</ele><time>2026-04-11T11:56:31.689Z</time></trkpt><trkpt lat="38.47664" lon="16.2813244"><ele>988.5</ele><time>2026-04-11T11:56:32.689Z</time></trkpt><trkpt lat="38.4767386" lon="16.2812049"><ele>991.0</ele><time>2026-04-11T11:56:33.689Z</time></trkpt><trkpt lat="38.4768208" lon="16.2810837"><ele>993.5</ele><time>2026-04-11T11:56:34.69Z</time></trkpt><trkpt lat="38.47689" lon="16.2809525"><ele>996.0</ele><time>2026-04-11T11:56:35.689Z</time></trkpt><trkpt lat="38.476943" lon="16.2808024"><ele>996.0</ele><time>2026-04-11T11:56:36.689Z</time></trkpt><trkpt lat="38.4769867" lon="16.280651"><ele>996.0</ele><time>2026-04-11T11:56:37.689Z</time></trkpt><trkpt lat="38.4770391" lon="16.2804933"><ele>996.0</ele><time>2026-04-11T11:56:38.69Z</time></trkpt><trkpt lat="38.4771067" lon="16.280344"><ele>996.0</ele><time>2026-04-11T11:56:39.69Z</time></trkpt><trkpt lat="38.4771923" lon="16.2802124"><ele>992.5999999999999</ele><time>2026-04-11T11:56:40.689Z</time></trkpt><trkpt lat="38.4772888" lon="16.2801061"><ele>989.1999999999999</ele><time>2026-04-11T11:56:41.689Z</time></trkpt><trkpt lat="38.4773788" lon="16.2800313"><ele>985.8000000000001</ele><time>2026-04-11T11:56:42.69Z</time></trkpt><trkpt lat="38.4774609" lon="16.2799978"><ele>982.4000000000001</ele><time>2026-04-11T11:56:43.689Z</time></trkpt><trkpt lat="38.4775445" lon="16.2799971"><ele>979.0</ele><time>2026-04-11T11:56:44.69Z</time></trkpt><trkpt lat="38.4776218" lon="16.2800326"><ele>979.0</ele><time>2026-04-11T11:56:45.69Z</time></trkpt><trkpt lat="38.4777038" lon="16.280098"><ele>979.0000000000001</ele><time>2026-04-11T11:56:46.69Z</time></trkpt><trkpt lat="38.4777884" lon="16.2801821"><ele>979.0000000000001</ele><time>2026-04-11T11:56:47.689Z</time></trkpt><trkpt lat="38.4778659" lon="16.2802792"><ele>979.0</ele><time>2026-04-11T11:56:48.69Z</time></trkpt><trkpt lat="38.4779312" lon="16.2803922"><ele>979.0</ele><time>2026-04-11T11:56:49.69Z</time></trkpt><trkpt lat="38.4779688" lon="16.280534"><ele>980.0</ele><time>2026-04-11T11:56:50.689Z</time></trkpt><trkpt lat="38.4779858" lon="16.280691"><ele>981.0</ele><time>2026-04-11T11:56:51.689Z</time></trkpt><trkpt lat="38.4779719" lon="16.2808657"><ele>982.0</ele><time>2026-04-11T11:56:52.689Z</time></trkpt><trkpt lat="38.4779636" lon="16.2810436"><ele>983.0</ele><time>2026-04-11T11:56:53.689Z</time></trkpt><trkpt lat="38.4779714" lon="16.2812055"><ele>983.0</ele><time>2026-04-11T11:56:54.689Z</time></trkpt><trkpt lat="38.4779993" lon="16.2813638"><ele>983.0</ele><time>2026-04-11T11:56:55.69Z</time></trkpt><trkpt lat="38.478042" lon="16.2815157"><ele>983.0</ele><time>2026-04-11T11:56:56.69Z</time></trkpt><trkpt lat="38.4781078" lon="16.2816655"><ele>983.0</ele><time>2026-04-11T11:56:57.689Z</time></trkpt><trkpt lat="38.4781849" lon="16.281811"><ele>982.5</ele><time>2026-04-11T11:56:58.689Z</time></trkpt><trkpt lat="38.4782625" lon="16.2819589"><ele>982.0</ele><time>2026-04-11T11:56:59.689Z</time></trkpt><trkpt lat="38.4783442" lon="16.2821127"><ele>981.5</ele><time>2026-04-11T11:57:00.689Z</time></trkpt><trkpt lat="38.4784287" lon="16.2822672"><ele>981.0</ele><time>2026-04-11T11:57:01.69Z</time></trkpt><trkpt lat="38.4785075" lon="16.2824274"><ele>980.0</ele><time>2026-04-11T11:57:02.689Z</time></trkpt><trkpt lat="38.4785759" lon="16.2825783"><ele>979.0</ele><time>2026-04-11T11:57:03.69Z</time></trkpt><trkpt lat="38.4786394" lon="16.2827108"><ele>978.0</ele><time>2026-04-11T11:57:04.69Z</time></trkpt><trkpt lat="38.4787007" lon="16.2828252"><ele>977.0</ele><time>2026-04-11T11:57:05.689Z</time></trkpt><trkpt lat="38.4787633" lon="16.2829225"><ele>978.0</ele><time>2026-04-11T11:57:06.689Z</time></trkpt><trkpt lat="38.4788227" lon="16.2830065"><ele>979.0</ele><time>2026-04-11T11:57:07.69Z</time></trkpt><trkpt lat="38.4788875" lon="16.2830691"><ele>980.0</ele><time>2026-04-11T11:57:08.689Z</time></trkpt><trkpt lat="38.4789664" lon="16.283109"><ele>981.0</ele><time>2026-04-11T11:57:09.689Z</time></trkpt><trkpt lat="38.4790609" lon="16.2831261"><ele>982.0</ele><time>2026-04-11T11:57:10.69Z</time></trkpt><trkpt lat="38.4791651" lon="16.283123"><ele>982.0</ele><time>2026-04-11T11:57:11.689Z</time></trkpt><trkpt lat="38.4792855" lon="16.2831013"><ele>982.0</ele><time>2026-04-11T11:57:12.689Z</time></trkpt><trkpt lat="38.4794071" lon="16.2830745"><ele>982.0</ele><time>2026-04-11T11:57:13.69Z</time></trkpt><trkpt lat="38.4795204" lon="16.2830498"><ele>982.0</ele><time>2026-04-11T11:57:14.69Z</time></trkpt><trkpt lat="38.4796231" lon="16.2830145"><ele>980.8</ele><time>2026-04-11T11:57:15.689Z</time></trkpt><trkpt lat="38.4797111" lon="16.282963"><ele>979.6</ele><time>2026-04-11T11:57:16.69Z</time></trkpt><trkpt lat="38.4797898" lon="16.28289"><ele>978.3999999999999</ele><time>2026-04-11T11:57:17.69Z</time></trkpt><trkpt lat="38.4798524" lon="16.2827928"><ele>977.1999999999999</ele><time>2026-04-11T11:57:18.69Z</time></trkpt><trkpt lat="38.479911" lon="16.2826851"><ele>976.0</ele><time>2026-04-11T11:57:19.689Z</time></trkpt><trkpt lat="38.4799669" lon="16.2825776"><ele>976.0</ele><time>2026-04-11T11:57:20.69Z</time></trkpt><trkpt lat="38.4800322" lon="16.2824764"><ele>975.9999999999999</ele><time>2026-04-11T11:57:21.69Z</time></trkpt><trkpt lat="38.4801058" lon="16.2823912"><ele>975.9999999999999</ele><time>2026-04-11T11:57:22.69Z</time></trkpt><trkpt lat="38.4801965" lon="16.2823187"><ele>976.0</ele><time>2026-04-11T11:57:23.689Z</time></trkpt><trkpt lat="38.4802938" lon="16.2822552"><ele>976.0</ele><time>2026-04-11T11:57:24.689Z</time></trkpt><trkpt lat="38.4803949" lon="16.282191"><ele>976.0</ele><time>2026-04-11T11:57:25.689Z</time></trkpt><trkpt lat="38.4805058" lon="16.2821291"><ele>976.0</ele><time>2026-04-11T11:57:26.689Z</time></trkpt><trkpt lat="38.4806248" lon="16.2820633"><ele>976.0</ele><time>2026-04-11T11:57:27.689Z</time></trkpt><trkpt lat="38.480744" lon="16.2819989"><ele>976.0</ele><time>2026-04-11T11:57:28.689Z</time></trkpt><trkpt lat="38.4808556" lon="16.2819413"><ele>976.0</ele><time>2026-04-11T11:57:29.689Z</time></trkpt><trkpt lat="38.4809667" lon="16.2819004"><ele>976.0</ele><time>2026-04-11T11:57:30.689Z</time></trkpt><trkpt lat="38.481079" lon="16.2818867"><ele>976.0</ele><time>2026-04-11T11:57:31.69Z</time></trkpt><trkpt lat="38.4811993" lon="16.2819004"><ele>976.0</ele><time>2026-04-11T11:57:32.689Z</time></trkpt><trkpt lat="38.4813243" lon="16.2819221"><ele>976.25</ele><time>2026-04-11T11:57:33.689Z</time></trkpt><trkpt lat="38.4814567" lon="16.281946"><ele>976.5</ele><time>2026-04-11T11:57:34.689Z</time></trkpt><trkpt lat="38.4815944" lon="16.2819701"><ele>976.75</ele><time>2026-04-11T11:57:35.689Z</time></trkpt><trkpt lat="38.4817306" lon="16.2819965"><ele>977.0</ele><time>2026-04-11T11:57:36.69Z</time></trkpt><trkpt lat="38.481861" lon="16.282031"><ele>977.0</ele><time>2026-04-11T11:57:37.69Z</time></trkpt><trkpt lat="38.4819897" lon="16.2820843"><ele>977.0</ele><time>2026-04-11T11:57:38.689Z</time></trkpt><trkpt lat="38.4820993" lon="16.2821468"><ele>977.0</ele><time>2026-04-11T11:57:39.69Z</time></trkpt><trkpt lat="38.4821973" lon="16.2822152"><ele>977.0</ele><time>2026-04-11T11:57:40.69Z</time></trkpt><trkpt lat="38.4822812" lon="16.2822909"><ele>974.0</ele><time>2026-04-11T11:57:41.689Z</time></trkpt><trkpt lat="38.4823494" lon="16.2823781"><ele>971.0</ele><time>2026-04-11T11:57:42.69Z</time></trkpt><trkpt lat="38.4823966" lon="16.2824797"><ele>968.0</ele><time>2026-04-11T11:57:43.689Z</time></trkpt><trkpt lat="38.4824242" lon="16.2826014"><ele>965.0</ele><time>2026-04-11T11:57:44.689Z</time></trkpt><trkpt lat="38.4824337" lon="16.2827335"><ele>962.0</ele><time>2026-04-11T11:57:45.689Z</time></trkpt><trkpt lat="38.4824528" lon="16.2828698"><ele>962.0</ele><time>2026-04-11T11:57:46.689Z</time></trkpt><trkpt lat="38.4824934" lon="16.2830098"><ele>962.0</ele><time>2026-04-11T11:57:47.69Z</time></trkpt><trkpt lat="38.4825513" lon="16.2831604"><ele>962.0</ele><time>2026-04-11T11:57:48.689Z</time></trkpt><trkpt lat="38.4826216" lon="16.283309"><ele>962.0</ele><time>2026-04-11T11:57:49.69Z</time></trkpt><trkpt lat="38.4827001" lon="16.2834538"><ele>961.25</ele><time>2026-04-11T11:57:50.689Z</time></trkpt><trkpt lat="38.4827761" lon="16.2835872"><ele>960.5</ele><time>2026-04-11T11:57:51.689Z</time></trkpt><trkpt lat="38.4828419" lon="16.2837204"><ele>959.75</ele><time>2026-04-11T11:57:52.69Z</time></trkpt><trkpt lat="38.4828996" lon="16.2838387"><ele>959.0</ele><time>2026-04-11T11:57:53.69Z</time></trkpt><trkpt lat="38.482949" lon="16.2839445"><ele>959.0</ele><time>2026-04-11T11:57:54.689Z</time></trkpt><trkpt lat="38.4830035" lon="16.2840599"><ele>959.0000000000001</ele><time>2026-04-11T11:57:55.689Z</time></trkpt><trkpt lat="38.4830528" lon="16.2841813"><ele>959.0000000000001</ele><time>2026-04-11T11:57:56.69Z</time></trkpt><trkpt lat="38.4831009" lon="16.2843076"><ele>959.0</ele><time>2026-04-11T11:57:57.69Z</time></trkpt><trkpt lat="38.4831579" lon="16.2844217"><ele>959.0</ele><time>2026-04-11T11:57:58.689Z</time></trkpt><trkpt lat="38.4832251" lon="16.2845009"><ele>959.0</ele><time>2026-04-11T11:57:59.69Z</time></trkpt><trkpt lat="38.4833113" lon="16.2845531"><ele>959.0000000000001</ele><time>2026-04-11T11:58:00.689Z</time></trkpt><trkpt lat="38.4834152" lon="16.2845856"><ele>959.0000000000001</ele><time>2026-04-11T11:58:01.689Z</time></trkpt><trkpt lat="38.4835282" lon="16.2846003"><ele>959.0</ele><time>2026-04-11T11:58:02.689Z</time></trkpt><trkpt lat="38.4836488" lon="16.2846066"><ele>959.0</ele><time>2026-04-11T11:58:03.69Z</time></trkpt><trkpt lat="38.4837729" lon="16.2846104"><ele>960.0</ele><time>2026-04-11T11:58:04.69Z</time></trkpt><trkpt lat="38.4838887" lon="16.2846298"><ele>961.0</ele><time>2026-04-11T11:58:05.689Z</time></trkpt><trkpt lat="38.4840103" lon="16.2846783"><ele>962.0</ele><time>2026-04-11T11:58:06.69Z</time></trkpt><trkpt lat="38.484121" lon="16.284739"><ele>963.0</ele><time>2026-04-11T11:58:07.689Z</time></trkpt><trkpt lat="38.4842273" lon="16.2847997"><ele>963.5</ele><time>2026-04-11T11:58:08.69Z</time></trkpt><trkpt lat="38.4843308" lon="16.2848734"><ele>964.0</ele><time>2026-04-11T11:58:09.689Z</time></trkpt><trkpt lat="38.484441" lon="16.2849412"><ele>964.5</ele><time>2026-04-11T11:58:10.69Z</time></trkpt><trkpt lat="38.4845525" lon="16.2850094"><ele>965.0</ele><time>2026-04-11T11:58:11.689Z</time></trkpt><trkpt lat="38.4846622" lon="16.2850787"><ele>965.0</ele><time>2026-04-11T11:58:12.689Z</time></trkpt><trkpt lat="38.4847718" lon="16.2851528"><ele>965.0</ele><time>2026-04-11T11:58:13.69Z</time></trkpt><trkpt lat="38.4848876" lon="16.2852309"><ele>965.0</ele><time>2026-04-11T11:58:14.69Z</time></trkpt><trkpt lat="38.4850035" lon="16.2852988"><ele>965.0</ele><time>2026-04-11T11:58:15.689Z</time></trkpt><trkpt lat="38.4851042" lon="16.2853575"><ele>965.0</ele><time>2026-04-11T11:58:16.69Z</time></trkpt><trkpt lat="38.4852059" lon="16.2854082"><ele>965.0</ele><time>2026-04-11T11:58:17.689Z</time></trkpt><trkpt lat="38.4853124" lon="16.2854426"><ele>965.0</ele><time>2026-04-11T11:58:18.69Z</time></trkpt><trkpt lat="38.4854257" lon="16.2854436"><ele>965.0</ele><time>2026-04-11T11:58:19.689Z</time></trkpt><trkpt lat="38.4855361" lon="16.2854144"><ele>965.0</ele><time>2026-04-11T11:58:20.689Z</time></trkpt><trkpt lat="38.4856496" lon="16.2853756"><ele>964.8</ele><time>2026-04-11T11:58:21.689Z</time></trkpt><trkpt lat="38.4857585" lon="16.2853397"><ele>964.6</ele><time>2026-04-11T11:58:22.689Z</time></trkpt><trkpt lat="38.4858687" lon="16.2853238"><ele>964.4000000000001</ele><time>2026-04-11T11:58:23.689Z</time></trkpt><trkpt lat="38.4859665" lon="16.2853308"><ele>964.2</ele><time>2026-04-11T11:58:24.69Z</time></trkpt><trkpt lat="38.4860582" lon="16.2853495"><ele>964.0</ele><time>2026-04-11T11:58:25.689Z</time></trkpt><trkpt lat="38.4861396" lon="16.2853701"><ele>964.0</ele><time>2026-04-11T11:58:26.689Z</time></trkpt><trkpt lat="38.4862154" lon="16.2853884"><ele>964.0000000000001</ele><time>2026-04-11T11:58:27.689Z</time></trkpt><trkpt lat="38.4862822" lon="16.2854093"><ele>964.0000000000001</ele><time>2026-04-11T11:58:28.689Z</time></trkpt><trkpt lat="38.4864004" lon="16.2854344"><ele>964.0</ele><time>2026-04-11T11:58:30.689Z</time></trkpt><trkpt lat="38.4864962" lon="16.2853982"><ele>964.0</ele><time>2026-04-11T11:58:32.69Z</time></trkpt><trkpt lat="38.4865526" lon="16.2853019"><ele>964.4000000000001</ele><time>2026-04-11T11:58:34.69Z</time></trkpt><trkpt lat="38.4865782" lon="16.2851921"><ele>964.8000000000001</ele><time>2026-04-11T11:58:36.689Z</time></trkpt><trkpt lat="38.486597" lon="16.2850964"><ele>965.1999999999999</ele><time>2026-04-11T11:58:39.689Z</time></trkpt><trkpt lat="38.4866234" lon="16.2849844"><ele>965.5999999999999</ele><time>2026-04-11T11:59:10.689Z</time></trkpt><trkpt lat="38.4866991" lon="16.2848504"><ele>966.0</ele><time>2026-04-11T11:59:12.689Z</time></trkpt><trkpt lat="38.4867551" lon="16.2847728"><ele>965.1999999999999</ele><time>2026-04-11T11:59:13.69Z</time></trkpt><trkpt lat="38.4868211" lon="16.2846858"><ele>964.3999999999999</ele><time>2026-04-11T11:59:14.69Z</time></trkpt><trkpt lat="38.4868903" lon="16.2845945"><ele>963.6</ele><time>2026-04-11T11:59:15.69Z</time></trkpt><trkpt lat="38.4869669" lon="16.284499"><ele>962.8</ele><time>2026-04-11T11:59:16.689Z</time></trkpt><trkpt lat="38.4870484" lon="16.2843993"><ele>962.0</ele><time>2026-04-11T11:59:17.69Z</time></trkpt><trkpt lat="38.487127" lon="16.2842987"><ele>964.2</ele><time>2026-04-11T11:59:18.689Z</time></trkpt><trkpt lat="38.487214" lon="16.2842113"><ele>966.4000000000001</ele><time>2026-04-11T11:59:19.69Z</time></trkpt><trkpt lat="38.4873011" lon="16.2841346"><ele>968.5999999999999</ele><time>2026-04-11T11:59:20.689Z</time></trkpt><trkpt lat="38.4874027" lon="16.2840758"><ele>970.8</ele><time>2026-04-11T11:59:21.69Z</time></trkpt><trkpt lat="38.4875095" lon="16.2840265"><ele>973.0</ele><time>2026-04-11T11:59:22.689Z</time></trkpt><trkpt lat="38.4876149" lon="16.2839801"><ele>973.4</ele><time>2026-04-11T11:59:23.689Z</time></trkpt><trkpt lat="38.4877153" lon="16.283929"><ele>973.8</ele><time>2026-04-11T11:59:24.69Z</time></trkpt><trkpt lat="38.4878176" lon="16.2838708"><ele>974.2</ele><time>2026-04-11T11:59:25.69Z</time></trkpt><trkpt lat="38.4879206" lon="16.2838093"><ele>974.6</ele><time>2026-04-11T11:59:26.689Z</time></trkpt><trkpt lat="38.4880236" lon="16.2837511"><ele>975.0</ele><time>2026-04-11T11:59:27.69Z</time></trkpt><trkpt lat="38.4881282" lon="16.2836947"><ele>975.0</ele><time>2026-04-11T11:59:28.689Z</time></trkpt><trkpt lat="38.4882336" lon="16.2836452"><ele>975.0</ele><time>2026-04-11T11:59:29.689Z</time></trkpt><trkpt lat="38.4883377" lon="16.2835955"><ele>975.0</ele><time>2026-04-11T11:59:30.689Z</time></trkpt><trkpt lat="38.4884433" lon="16.2835355"><ele>975.0</ele><time>2026-04-11T11:59:31.69Z</time></trkpt><trkpt lat="38.4885473" lon="16.2834727"><ele>975.0</ele><time>2026-04-11T11:59:32.689Z</time></trkpt><trkpt lat="38.4886573" lon="16.283412"><ele>975.0</ele><time>2026-04-11T11:59:33.69Z</time></trkpt><trkpt lat="38.4887659" lon="16.2833533"><ele>975.0</ele><time>2026-04-11T11:59:34.689Z</time></trkpt><trkpt lat="38.4888784" lon="16.2832887"><ele>975.0</ele><time>2026-04-11T11:59:35.689Z</time></trkpt><trkpt lat="38.488991" lon="16.2832228"><ele>975.0</ele><time>2026-04-11T11:59:36.69Z</time></trkpt><trkpt lat="38.4891069" lon="16.2831567"><ele>975.0</ele><time>2026-04-11T11:59:37.689Z</time></trkpt><trkpt lat="38.4892186" lon="16.2830941"><ele>975.0</ele><time>2026-04-11T11:59:38.69Z</time></trkpt><trkpt lat="38.4893254" lon="16.2830329"><ele>975.0</ele><time>2026-04-11T11:59:39.689Z</time></trkpt><trkpt lat="38.4894345" lon="16.2829704"><ele>975.0</ele><time>2026-04-11T11:59:40.689Z</time></trkpt><trkpt lat="38.4895491" lon="16.2829161"><ele>975.0</ele><time>2026-04-11T11:59:41.69Z</time></trkpt><trkpt lat="38.4896631" lon="16.2828666"><ele>975.0</ele><time>2026-04-11T11:59:42.689Z</time></trkpt><trkpt lat="38.4897755" lon="16.2828284"><ele>975.0</ele><time>2026-04-11T11:59:43.689Z</time></trkpt><trkpt lat="38.489891" lon="16.2827909"><ele>975.4</ele><time>2026-04-11T11:59:44.69Z</time></trkpt><trkpt lat="38.4900024" lon="16.2827617"><ele>975.8</ele><time>2026-04-11T11:59:45.689Z</time></trkpt><trkpt lat="38.4901099" lon="16.2827331"><ele>976.2</ele><time>2026-04-11T11:59:46.689Z</time></trkpt><trkpt lat="38.4902175" lon="16.2827092"><ele>976.6</ele><time>2026-04-11T11:59:47.689Z</time></trkpt><trkpt lat="38.4903243" lon="16.2826773"><ele>977.0</ele><time>2026-04-11T11:59:48.689Z</time></trkpt><trkpt lat="38.4904382" lon="16.2826474"><ele>977.75</ele><time>2026-04-11T11:59:49.69Z</time></trkpt><trkpt lat="38.4905529" lon="16.2826131"><ele>978.5</ele><time>2026-04-11T11:59:50.689Z</time></trkpt><trkpt lat="38.4906629" lon="16.2825741"><ele>979.25</ele><time>2026-04-11T11:59:51.689Z</time></trkpt><trkpt lat="38.4907755" lon="16.2825348"><ele>980.0</ele><time>2026-04-11T11:59:52.69Z</time></trkpt><trkpt lat="38.4908879" lon="16.2824921"><ele>980.0</ele><time>2026-04-11T11:59:53.69Z</time></trkpt><trkpt lat="38.4910017" lon="16.2824505"><ele>980.0</ele><time>2026-04-11T11:59:54.689Z</time></trkpt><trkpt lat="38.4911155" lon="16.2824107"><ele>980.0</ele><time>2026-04-11T11:59:55.69Z</time></trkpt><trkpt lat="38.491229" lon="16.2823704"><ele>980.0</ele><time>2026-04-11T11:59:56.69Z</time></trkpt><trkpt lat="38.4913425" lon="16.2823329"><ele>980.0</ele><time>2026-04-11T11:59:57.689Z</time></trkpt><trkpt lat="38.4914561" lon="16.2822948"><ele>980.0</ele><time>2026-04-11T11:59:58.69Z</time></trkpt><trkpt lat="38.4915799" lon="16.2822529"><ele>980.0</ele><time>2026-04-11T11:59:59.69Z</time></trkpt><trkpt lat="38.491703" lon="16.2822088"><ele>980.0</ele><time>2026-04-11T12:00:00.689Z</time></trkpt><trkpt lat="38.4918279" lon="16.2821624"><ele>980.0</ele><time>2026-04-11T12:00:01.689Z</time></trkpt><trkpt lat="38.4919551" lon="16.2821214"><ele>980.0</ele><time>2026-04-11T12:00:02.69Z</time></trkpt><trkpt lat="38.4920774" lon="16.2820916"><ele>980.0</ele><time>2026-04-11T12:00:03.689Z</time></trkpt><trkpt lat="38.4921944" lon="16.2820764"><ele>980.0</ele><time>2026-04-11T12:00:04.69Z</time></trkpt><trkpt lat="38.4923082" lon="16.2820683"><ele>980.75</ele><time>2026-04-11T12:00:05.689Z</time></trkpt><trkpt lat="38.4924242" lon="16.2820681"><ele>981.5</ele><time>2026-04-11T12:00:06.689Z</time></trkpt><trkpt lat="38.4925446" lon="16.2820804"><ele>982.25</ele><time>2026-04-11T12:00:07.69Z</time></trkpt><trkpt lat="38.4926652" lon="16.2821013"><ele>983.0</ele><time>2026-04-11T12:00:08.69Z</time></trkpt><trkpt lat="38.4927846" lon="16.2821308"><ele>983.0</ele><time>2026-04-11T12:00:09.69Z</time></trkpt><trkpt lat="38.4929048" lon="16.2821635"><ele>983.0</ele><time>2026-04-11T12:00:10.689Z</time></trkpt><trkpt lat="38.4930196" lon="16.2821861"><ele>983.0</ele><time>2026-04-11T12:00:11.69Z</time></trkpt><trkpt lat="38.493127" lon="16.2821909"><ele>983.0</ele><time>2026-04-11T12:00:12.69Z</time></trkpt><trkpt lat="38.493223" lon="16.2821626"><ele>983.0</ele><time>2026-04-11T12:00:13.689Z</time></trkpt><trkpt lat="38.4933056" lon="16.2820984"><ele>983.5999999999999</ele><time>2026-04-11T12:00:14.689Z</time></trkpt><trkpt lat="38.4933789" lon="16.2820231"><ele>984.1999999999999</ele><time>2026-04-11T12:00:15.69Z</time></trkpt><trkpt lat="38.4934606" lon="16.2819726"><ele>984.8</ele><time>2026-04-11T12:00:16.69Z</time></trkpt><trkpt lat="38.4935534" lon="16.281957"><ele>985.4</ele><time>2026-04-11T12:00:17.689Z</time></trkpt><trkpt lat="38.4936512" lon="16.2819414"><ele>986.0</ele><time>2026-04-11T12:00:18.689Z</time></trkpt><trkpt lat="38.4937498" lon="16.2818904"><ele>986.25</ele><time>2026-04-11T12:00:19.689Z</time></trkpt><trkpt lat="38.4938459" lon="16.2818159"><ele>986.5</ele><time>2026-04-11T12:00:20.69Z</time></trkpt><trkpt lat="38.4939411" lon="16.2817266"><ele>986.75</ele><time>2026-04-11T12:00:21.689Z</time></trkpt><trkpt lat="38.4940316" lon="16.2816296"><ele>987.0</ele><time>2026-04-11T12:00:22.69Z</time></trkpt><trkpt lat="38.4941127" lon="16.281518"><ele>988.4000000000001</ele><time>2026-04-11T12:00:23.689Z</time></trkpt><trkpt lat="38.4941784" lon="16.2814007"><ele>989.8000000000001</ele><time>2026-04-11T12:00:24.689Z</time></trkpt><trkpt lat="38.4942261" lon="16.2812713"><ele>991.2</ele><time>2026-04-11T12:00:25.69Z</time></trkpt><trkpt lat="38.4942606" lon="16.2811319"><ele>992.6</ele><time>2026-04-11T12:00:26.689Z</time></trkpt><trkpt lat="38.4942967" lon="16.2810024"><ele>994.0</ele><time>2026-04-11T12:00:27.689Z</time></trkpt><trkpt lat="38.4943354" lon="16.2808675"><ele>994.0</ele><time>2026-04-11T12:00:28.69Z</time></trkpt><trkpt lat="38.4943864" lon="16.2807465"><ele>994.0000000000001</ele><time>2026-04-11T12:00:29.689Z</time></trkpt><trkpt lat="38.4944499" lon="16.2806369"><ele>994.0000000000001</ele><time>2026-04-11T12:00:30.689Z</time></trkpt><trkpt lat="38.4945215" lon="16.2805348"><ele>994.0</ele><time>2026-04-11T12:00:31.69Z</time></trkpt><trkpt lat="38.4946099" lon="16.2804494"><ele>994.0</ele><time>2026-04-11T12:00:32.689Z</time></trkpt><trkpt lat="38.4947073" lon="16.2803758"><ele>996.2</ele><time>2026-04-11T12:00:33.689Z</time></trkpt><trkpt lat="38.4948085" lon="16.2803117"><ele>998.4000000000001</ele><time>2026-04-11T12:00:34.69Z</time></trkpt><trkpt lat="38.4949081" lon="16.2802469"><ele>1000.6</ele><time>2026-04-11T12:00:35.689Z</time></trkpt><trkpt lat="38.4949978" lon="16.2801857"><ele>1002.8</ele><time>2026-04-11T12:00:36.689Z</time></trkpt><trkpt lat="38.4950819" lon="16.2801515"><ele>1005.0</ele><time>2026-04-11T12:00:37.69Z</time></trkpt><trkpt lat="38.495165" lon="16.280146"><ele>1005.0</ele><time>2026-04-11T12:00:38.689Z</time></trkpt><trkpt lat="38.4952574" lon="16.2801714"><ele>1005.0</ele><time>2026-04-11T12:00:39.689Z</time></trkpt><trkpt lat="38.4953639" lon="16.2802188"><ele>1005.0</ele><time>2026-04-11T12:00:40.689Z</time></trkpt><trkpt lat="38.4954712" lon="16.2802669"><ele>1005.0</ele><time>2026-04-11T12:00:41.689Z</time></trkpt><trkpt lat="38.495577" lon="16.2803103"><ele>1005.0</ele><time>2026-04-11T12:00:42.689Z</time></trkpt><trkpt lat="38.4956824" lon="16.2803404"><ele>1007.2</ele><time>2026-04-11T12:00:43.689Z</time></trkpt><trkpt lat="38.495788" lon="16.2803504"><ele>1009.4</ele><time>2026-04-11T12:00:44.69Z</time></trkpt><trkpt lat="38.4958909" lon="16.2803357"><ele>1011.5999999999999</ele><time>2026-04-11T12:00:45.689Z</time></trkpt><trkpt lat="38.4959796" lon="16.2803007"><ele>1013.8</ele><time>2026-04-11T12:00:46.69Z</time></trkpt><trkpt lat="38.4960604" lon="16.2802193"><ele>1016.0</ele><time>2026-04-11T12:00:47.69Z</time></trkpt><trkpt lat="38.4961366" lon="16.280122"><ele>1016.0</ele><time>2026-04-11T12:00:48.69Z</time></trkpt><trkpt lat="38.4961967" lon="16.2800086"><ele>1015.9999999999999</ele><time>2026-04-11T12:00:49.689Z</time></trkpt><trkpt lat="38.4962452" lon="16.2798818"><ele>1015.9999999999999</ele><time>2026-04-11T12:00:50.689Z</time></trkpt><trkpt lat="38.4962759" lon="16.2797497"><ele>1016.0</ele><time>2026-04-11T12:00:51.689Z</time></trkpt><trkpt lat="38.4962946" lon="16.2796103"><ele>1016.0</ele><time>2026-04-11T12:00:52.69Z</time></trkpt><trkpt lat="38.4963007" lon="16.279464"><ele>1016.5</ele><time>2026-04-11T12:00:53.689Z</time></trkpt><trkpt lat="38.4963003" lon="16.2793143"><ele>1017.0</ele><time>2026-04-11T12:00:54.689Z</time></trkpt><trkpt lat="38.4962968" lon="16.2791489"><ele>1017.5</ele><time>2026-04-11T12:00:55.689Z</time></trkpt><trkpt lat="38.4962989" lon="16.2789781"><ele>1018.0</ele><time>2026-04-11T12:00:56.69Z</time></trkpt><trkpt lat="38.4963058" lon="16.2788231"><ele>1019.5999999999999</ele><time>2026-04-11T12:00:57.689Z</time></trkpt><trkpt lat="38.4963138" lon="16.2786821"><ele>1021.1999999999999</ele><time>2026-04-11T12:00:58.689Z</time></trkpt><trkpt lat="38.496332" lon="16.2785504"><ele>1022.8</ele><time>2026-04-11T12:00:59.689Z</time></trkpt><trkpt lat="38.4963631" lon="16.2784448"><ele>1024.3999999999999</ele><time>2026-04-11T12:01:00.69Z</time></trkpt><trkpt lat="38.4964133" lon="16.2783658"><ele>1026.0</ele><time>2026-04-11T12:01:01.689Z</time></trkpt><trkpt lat="38.4964848" lon="16.2783245"><ele>1026.0</ele><time>2026-04-11T12:01:02.689Z</time></trkpt><trkpt lat="38.4965747" lon="16.2783153"><ele>1026.0</ele><time>2026-04-11T12:01:03.689Z</time></trkpt><trkpt lat="38.4966766" lon="16.2783356"><ele>1026.0</ele><time>2026-04-11T12:01:04.689Z</time></trkpt><trkpt lat="38.4967952" lon="16.2783593"><ele>1026.0</ele><time>2026-04-11T12:01:05.689Z</time></trkpt><trkpt lat="38.4969106" lon="16.2783581"><ele>1026.0</ele><time>2026-04-11T12:01:06.689Z</time></trkpt><trkpt lat="38.4970134" lon="16.2783204"><ele>1028.2</ele><time>2026-04-11T12:01:07.689Z</time></trkpt><trkpt lat="38.4971081" lon="16.2782535"><ele>1030.3999999999999</ele><time>2026-04-11T12:01:08.689Z</time></trkpt><trkpt lat="38.4971923" lon="16.2781794"><ele>1032.6</ele><time>2026-04-11T12:01:09.689Z</time></trkpt><trkpt lat="38.4972729" lon="16.278137"><ele>1034.8</ele><time>2026-04-11T12:01:10.69Z</time></trkpt><trkpt lat="38.4973547" lon="16.2781364"><ele>1037.0</ele><time>2026-04-11T12:01:11.69Z</time></trkpt><trkpt lat="38.4974256" lon="16.2781726"><ele>1037.0</ele><time>2026-04-11T12:01:12.69Z</time></trkpt><trkpt lat="38.4974766" lon="16.2782488"><ele>1037.0</ele><time>2026-04-11T12:01:13.69Z</time></trkpt><trkpt lat="38.4975099" lon="16.2783578"><ele>1037.0</ele><time>2026-04-11T12:01:14.689Z</time></trkpt><trkpt lat="38.4975557" lon="16.278471"><ele>1037.0</ele><time>2026-04-11T12:01:15.69Z</time></trkpt><trkpt lat="38.4976126" lon="16.2785514"><ele>1037.0</ele><time>2026-04-11T12:01:16.689Z</time></trkpt><trkpt lat="38.4976794" lon="16.2785875"><ele>1037.0</ele><time>2026-04-11T12:01:17.689Z</time></trkpt><trkpt lat="38.4977479" lon="16.2785732"><ele>1037.0</ele><time>2026-04-11T12:01:18.689Z</time></trkpt><trkpt lat="38.4978117" lon="16.2785062"><ele>1037.0</ele><time>2026-04-11T12:01:19.689Z</time></trkpt><trkpt lat="38.4978616" lon="16.2783972"><ele>1037.0</ele><time>2026-04-11T12:01:20.689Z</time></trkpt><trkpt lat="38.4978808" lon="16.2782666"><ele>1037.0</ele><time>2026-04-11T12:01:21.689Z</time></trkpt><trkpt lat="38.4978729" lon="16.2781205"><ele>1037.0</ele><time>2026-04-11T12:01:22.689Z</time></trkpt><trkpt lat="38.4978495" lon="16.2779624"><ele>1038.4</ele><time>2026-04-11T12:01:23.689Z</time></trkpt><trkpt lat="38.4978283" lon="16.2778182"><ele>1039.8000000000002</ele><time>2026-04-11T12:01:24.689Z</time></trkpt><trkpt lat="38.4978087" lon="16.2776765"><ele>1041.2</ele><time>2026-04-11T12:01:25.69Z</time></trkpt><trkpt lat="38.4977941" lon="16.277547"><ele>1042.6000000000001</ele><time>2026-04-11T12:01:26.689Z</time></trkpt><trkpt lat="38.4977718" lon="16.2774255"><ele>1044.0</ele><time>2026-04-11T12:01:27.69Z</time></trkpt><trkpt lat="38.4977426" lon="16.2773099"><ele>1045.0</ele><time>2026-04-11T12:01:28.689Z</time></trkpt><trkpt lat="38.4977065" lon="16.2772005"><ele>1046.0</ele><time>2026-04-11T12:01:29.689Z</time></trkpt><trkpt lat="38.497669" lon="16.2770852"><ele>1047.0</ele><time>2026-04-11T12:01:30.689Z</time></trkpt><trkpt lat="38.4976354" lon="16.2769742"><ele>1048.0</ele><time>2026-04-11T12:01:31.689Z</time></trkpt><trkpt lat="38.4976096" lon="16.2768629"><ele>1049.0</ele><time>2026-04-11T12:01:32.689Z</time></trkpt><trkpt lat="38.4975986" lon="16.2767543"><ele>1049.0</ele><time>2026-04-11T12:01:33.689Z</time></trkpt><trkpt lat="38.4976069" lon="16.2766453"><ele>1049.0</ele><time>2026-04-11T12:01:34.689Z</time></trkpt><trkpt lat="38.4976421" lon="16.2765433"><ele>1049.0</ele><time>2026-04-11T12:01:35.689Z</time></trkpt><trkpt lat="38.4976968" lon="16.2764561"><ele>1049.0</ele><time>2026-04-11T12:01:36.69Z</time></trkpt><trkpt lat="38.497775" lon="16.2763842"><ele>1049.0</ele><time>2026-04-11T12:01:37.689Z</time></trkpt><trkpt lat="38.4978672" lon="16.2763225"><ele>1051.25</ele><time>2026-04-11T12:01:38.689Z</time></trkpt><trkpt lat="38.4979654" lon="16.2762604"><ele>1053.5</ele><time>2026-04-11T12:01:39.69Z</time></trkpt><trkpt lat="38.4980755" lon="16.276207"><ele>1055.75</ele><time>2026-04-11T12:01:40.689Z</time></trkpt><trkpt lat="38.4981868" lon="16.2761703"><ele>1058.0</ele><time>2026-04-11T12:01:41.689Z</time></trkpt><trkpt lat="38.4983064" lon="16.2761305"><ele>1058.0</ele><time>2026-04-11T12:01:42.69Z</time></trkpt><trkpt lat="38.4984226" lon="16.2760979"><ele>1058.0</ele><time>2026-04-11T12:01:43.69Z</time></trkpt><trkpt lat="38.4985395" lon="16.2760603"><ele>1058.0</ele><time>2026-04-11T12:01:44.69Z</time></trkpt><trkpt lat="38.4986523" lon="16.2760178"><ele>1058.0</ele><time>2026-04-11T12:01:45.69Z</time></trkpt><trkpt lat="38.4987586" lon="16.2759754"><ele>1058.5</ele><time>2026-04-11T12:01:46.689Z</time></trkpt><trkpt lat="38.4988618" lon="16.2759213"><ele>1059.0</ele><time>2026-04-11T12:01:47.689Z</time></trkpt><trkpt lat="38.4989619" lon="16.2758419"><ele>1059.5</ele><time>2026-04-11T12:01:48.689Z</time></trkpt><trkpt lat="38.4990625" lon="16.2757524"><ele>1060.0</ele><time>2026-04-11T12:01:49.689Z</time></trkpt><trkpt lat="38.4991648" lon="16.2756581"><ele>1060.75</ele><time>2026-04-11T12:01:50.69Z</time></trkpt><trkpt lat="38.4992698" lon="16.2755759"><ele>1061.5</ele><time>2026-04-11T12:01:51.689Z</time></trkpt><trkpt lat="38.4993814" lon="16.2755188"><ele>1062.25</ele><time>2026-04-11T12:01:52.689Z</time></trkpt><trkpt lat="38.4995132" lon="16.2754706"><ele>1063.0</ele><time>2026-04-11T12:01:53.689Z</time></trkpt><trkpt lat="38.4996552" lon="16.2754446"><ele>1066.6666666666665</ele><time>2026-04-11T12:01:54.689Z</time></trkpt><trkpt lat="38.4998072" lon="16.275409"><ele>1070.3333333333333</ele><time>2026-04-11T12:01:55.689Z</time></trkpt><trkpt lat="38.4999616" lon="16.2753835"><ele>1074.0</ele><time>2026-04-11T12:01:56.689Z</time></trkpt><trkpt lat="38.5001271" lon="16.2753589"><ele>1074.0</ele><time>2026-04-11T12:01:57.689Z</time></trkpt><trkpt lat="38.5002971" lon="16.2753304"><ele>1074.0</ele><time>2026-04-11T12:01:58.689Z</time></trkpt><trkpt lat="38.5004598" lon="16.2752948"><ele>1074.0</ele><time>2026-04-11T12:01:59.689Z</time></trkpt><trkpt lat="38.5006303" lon="16.2752579"><ele>1077.3333333333333</ele><time>2026-04-11T12:02:00.69Z</time></trkpt><trkpt lat="38.5007883" lon="16.2752268"><ele>1080.6666666666665</ele><time>2026-04-11T12:02:01.689Z</time></trkpt><trkpt lat="38.5009376" lon="16.2751955"><ele>1084.0</ele><time>2026-04-11T12:02:02.689Z</time></trkpt><trkpt lat="38.5010933" lon="16.275183"><ele>1082.6666666666665</ele><time>2026-04-11T12:02:03.689Z</time></trkpt><trkpt lat="38.5012592" lon="16.275181"><ele>1081.3333333333333</ele><time>2026-04-11T12:02:04.689Z</time></trkpt><trkpt lat="38.5014321" lon="16.2751847"><ele>1080.0</ele><time>2026-04-11T12:02:05.689Z</time></trkpt><trkpt lat="38.5016021" lon="16.275192"><ele>1080.0</ele><time>2026-04-11T12:02:06.69Z</time></trkpt><trkpt lat="38.5017693" lon="16.2751944"><ele>1080.0</ele><time>2026-04-11T12:02:07.689Z</time></trkpt><trkpt lat="38.5019441" lon="16.2751956"><ele>1080.0</ele><time>2026-04-11T12:02:08.689Z</time></trkpt><trkpt lat="38.502116" lon="16.2751975"><ele>1081.3333333333333</ele><time>2026-04-11T12:02:09.689Z</time></trkpt><trkpt lat="38.5022868" lon="16.2751927"><ele>1082.6666666666665</ele><time>2026-04-11T12:02:10.689Z</time></trkpt><trkpt lat="38.5024609" lon="16.2751951"><ele>1084.0</ele><time>2026-04-11T12:02:11.69Z</time></trkpt><trkpt lat="38.5026308" lon="16.2751917"><ele>1084.0</ele><time>2026-04-11T12:02:12.689Z</time></trkpt><trkpt lat="38.5027979" lon="16.2751905"><ele>1084.0</ele><time>2026-04-11T12:02:13.69Z</time></trkpt><trkpt lat="38.5029675" lon="16.2751796"><ele>1084.0</ele><time>2026-04-11T12:02:14.69Z</time></trkpt><trkpt lat="38.5031267" lon="16.275165"><ele>1086.0</ele><time>2026-04-11T12:02:15.689Z</time></trkpt><trkpt lat="38.5032778" lon="16.2751571"><ele>1088.0</ele><time>2026-04-11T12:02:16.689Z</time></trkpt><trkpt lat="38.5034186" lon="16.2751422"><ele>1090.0</ele><time>2026-04-11T12:02:17.689Z</time></trkpt><trkpt lat="38.5035448" lon="16.2751171"><ele>1092.0</ele><time>2026-04-11T12:02:18.689Z</time></trkpt><trkpt lat="38.5036485" lon="16.275073"><ele>1092.0</ele><time>2026-04-11T12:02:19.689Z</time></trkpt><trkpt lat="38.5037281" lon="16.2750022"><ele>1092.0</ele><time>2026-04-11T12:02:20.69Z</time></trkpt><trkpt lat="38.5037825" lon="16.2748855"><ele>1092.0</ele><time>2026-04-11T12:02:21.689Z</time></trkpt><trkpt lat="38.5038305" lon="16.2747317"><ele>1092.0</ele><time>2026-04-11T12:02:22.689Z</time></trkpt><trkpt lat="38.5038781" lon="16.2745602"><ele>1096.5</ele><time>2026-04-11T12:02:23.689Z</time></trkpt><trkpt lat="38.5039266" lon="16.2743997"><ele>1101.0</ele><time>2026-04-11T12:02:24.689Z</time></trkpt><trkpt lat="38.503985" lon="16.2742474"><ele>1105.5</ele><time>2026-04-11T12:02:25.69Z</time></trkpt><trkpt lat="38.5040496" lon="16.2741004"><ele>1110.0</ele><time>2026-04-11T12:02:26.689Z</time></trkpt><trkpt lat="38.5041133" lon="16.2739645"><ele>1109.4</ele><time>2026-04-11T12:02:27.689Z</time></trkpt><trkpt lat="38.5041785" lon="16.2738463"><ele>1108.8</ele><time>2026-04-11T12:02:28.689Z</time></trkpt><trkpt lat="38.5042536" lon="16.2737538"><ele>1108.2</ele><time>2026-04-11T12:02:29.689Z</time></trkpt><trkpt lat="38.5043497" lon="16.2736832"><ele>1107.6</ele><time>2026-04-11T12:02:30.689Z</time></trkpt><trkpt lat="38.5044591" lon="16.2736285"><ele>1107.0</ele><time>2026-04-11T12:02:31.689Z</time></trkpt><trkpt lat="38.5045762" lon="16.2735936"><ele>1110.0</ele><time>2026-04-11T12:02:32.689Z</time></trkpt><trkpt lat="38.5046961" lon="16.2735645"><ele>1113.0</ele><time>2026-04-11T12:02:33.689Z</time></trkpt><trkpt lat="38.5048254" lon="16.2735357"><ele>1116.0</ele><time>2026-04-11T12:02:34.689Z</time></trkpt><trkpt lat="38.5049581" lon="16.2735069"><ele>1119.0</ele><time>2026-04-11T12:02:35.689Z</time></trkpt><trkpt lat="38.5051008" lon="16.2734863"><ele>1119.0</ele><time>2026-04-11T12:02:36.689Z</time></trkpt><trkpt lat="38.5052266" lon="16.2734755"><ele>1119.0</ele><time>2026-04-11T12:02:37.69Z</time></trkpt><trkpt lat="38.5053429" lon="16.2734555"><ele>1119.0</ele><time>2026-04-11T12:02:38.689Z</time></trkpt><trkpt lat="38.5054513" lon="16.2734181"><ele>1119.0</ele><time>2026-04-11T12:02:39.69Z</time></trkpt><trkpt lat="38.5055462" lon="16.273353"><ele>1120.6000000000001</ele><time>2026-04-11T12:02:40.689Z</time></trkpt><trkpt lat="38.5056219" lon="16.2732654"><ele>1122.2</ele><time>2026-04-11T12:02:41.689Z</time></trkpt><trkpt lat="38.5056931" lon="16.2731801"><ele>1123.8000000000002</ele><time>2026-04-11T12:02:42.69Z</time></trkpt><trkpt lat="38.5057638" lon="16.273105"><ele>1125.4</ele><time>2026-04-11T12:02:43.689Z</time></trkpt><trkpt lat="38.5058298" lon="16.2730546"><ele>1127.0</ele><time>2026-04-11T12:02:44.69Z</time></trkpt><trkpt lat="38.505933" lon="16.2730525"><ele>1127.0</ele><time>2026-04-11T12:02:46.69Z</time></trkpt><trkpt lat="38.5059734" lon="16.2731159"><ele>1127.0</ele><time>2026-04-11T12:02:49.69Z</time></trkpt><trkpt lat="38.5060342" lon="16.273193"><ele>1127.0</ele><time>2026-04-11T12:02:59.689Z</time></trkpt><trkpt lat="38.5061151" lon="16.2732502"><ele>1127.0</ele><time>2026-04-11T12:03:01.689Z</time></trkpt><trkpt lat="38.506176" lon="16.2732923"><ele>1127.0</ele><time>2026-04-11T12:03:02.69Z</time></trkpt><trkpt lat="38.5062551" lon="16.27335"><ele>1127.0</ele><time>2026-04-11T12:03:03.689Z</time></trkpt><trkpt lat="38.5063478" lon="16.273405"><ele>1127.75</ele><time>2026-04-11T12:03:04.69Z</time></trkpt><trkpt lat="38.5064463" lon="16.2734443"><ele>1128.5</ele><time>2026-04-11T12:03:05.689Z</time></trkpt><trkpt lat="38.5065733" lon="16.273471"><ele>1129.25</ele><time>2026-04-11T12:03:06.69Z</time></trkpt><trkpt lat="38.5067094" lon="16.2734849"><ele>1130.0</ele><time>2026-04-11T12:03:07.689Z</time></trkpt><trkpt lat="38.5068455" lon="16.2734975"><ele>1130.0</ele><time>2026-04-11T12:03:08.689Z</time></trkpt><trkpt lat="38.5069756" lon="16.2735151"><ele>1130.0</ele><time>2026-04-11T12:03:09.689Z</time></trkpt><trkpt lat="38.5070911" lon="16.2735472"><ele>1130.0</ele><time>2026-04-11T12:03:10.689Z</time></trkpt><trkpt lat="38.5072004" lon="16.2735921"><ele>1130.0</ele><time>2026-04-11T12:03:11.689Z</time></trkpt><trkpt lat="38.5072958" lon="16.273666"><ele>1130.0</ele><time>2026-04-11T12:03:12.689Z</time></trkpt><trkpt lat="38.507375" lon="16.273769"><ele>1130.0</ele><time>2026-04-11T12:03:13.689Z</time></trkpt><trkpt lat="38.5074452" lon="16.2738865"><ele>1130.0</ele><time>2026-04-11T12:03:14.689Z</time></trkpt><trkpt lat="38.5075147" lon="16.2740118"><ele>1130.0</ele><time>2026-04-11T12:03:15.69Z</time></trkpt><trkpt lat="38.5075771" lon="16.2741416"><ele>1130.0</ele><time>2026-04-11T12:03:16.69Z</time></trkpt><trkpt lat="38.5076433" lon="16.274269"><ele>1130.0</ele><time>2026-04-11T12:03:17.69Z</time></trkpt><trkpt lat="38.5077141" lon="16.2743792"><ele>1130.0</ele><time>2026-04-11T12:03:18.689Z</time></trkpt><trkpt lat="38.5077894" lon="16.274464"><ele>1130.0</ele><time>2026-04-11T12:03:19.69Z</time></trkpt><trkpt lat="38.5078778" lon="16.2745422"><ele>1130.0</ele><time>2026-04-11T12:03:20.689Z</time></trkpt><trkpt lat="38.5079733" lon="16.2746091"><ele>1128.25</ele><time>2026-04-11T12:03:21.69Z</time></trkpt><trkpt lat="38.508077" lon="16.2746747"><ele>1126.5</ele><time>2026-04-11T12:03:22.69Z</time></trkpt><trkpt lat="38.5081874" lon="16.2747365"><ele>1124.75</ele><time>2026-04-11T12:03:23.689Z</time></trkpt><trkpt lat="38.5083025" lon="16.2748008"><ele>1123.0</ele><time>2026-04-11T12:03:24.69Z</time></trkpt><trkpt lat="38.5084232" lon="16.2748718"><ele>1123.0</ele><time>2026-04-11T12:03:25.689Z</time></trkpt><trkpt lat="38.5085444" lon="16.2749382"><ele>1123.0</ele><time>2026-04-11T12:03:26.689Z</time></trkpt><trkpt lat="38.50867" lon="16.2750103"><ele>1123.0</ele><time>2026-04-11T12:03:27.69Z</time></trkpt><trkpt lat="38.5087873" lon="16.2750729"><ele>1123.0</ele><time>2026-04-11T12:03:28.689Z</time></trkpt><trkpt lat="38.5088931" lon="16.2751313"><ele>1121.0</ele><time>2026-04-11T12:03:29.69Z</time></trkpt><trkpt lat="38.508992" lon="16.2751882"><ele>1119.0</ele><time>2026-04-11T12:03:30.689Z</time></trkpt><trkpt lat="38.5090799" lon="16.2752433"><ele>1117.0</ele><time>2026-04-11T12:03:31.69Z</time></trkpt><trkpt lat="38.5091493" lon="16.2753206"><ele>1115.0</ele><time>2026-04-11T12:03:32.689Z</time></trkpt><trkpt lat="38.5092019" lon="16.2754129"><ele>1113.0</ele><time>2026-04-11T12:03:33.69Z</time></trkpt><trkpt lat="38.5092349" lon="16.2755146"><ele>1112.5</ele><time>2026-04-11T12:03:34.69Z</time></trkpt><trkpt lat="38.5092442" lon="16.2756322"><ele>1112.0</ele><time>2026-04-11T12:03:35.69Z</time></trkpt><trkpt lat="38.5092225" lon="16.275776"><ele>1111.5</ele><time>2026-04-11T12:03:36.69Z</time></trkpt><trkpt lat="38.5091663" lon="16.2759486"><ele>1111.0</ele><time>2026-04-11T12:03:37.689Z</time></trkpt><trkpt lat="38.5090958" lon="16.2761494"><ele>1111.0</ele><time>2026-04-11T12:03:38.689Z</time></trkpt><trkpt lat="38.5090243" lon="16.2763563"><ele>1111.0</ele><time>2026-04-11T12:03:39.689Z</time></trkpt><trkpt lat="38.5089486" lon="16.2765963"><ele>1111.0</ele><time>2026-04-11T12:03:40.689Z</time></trkpt><trkpt lat="38.5088821" lon="16.2768521"><ele>1110.0</ele><time>2026-04-11T12:03:41.689Z</time></trkpt><trkpt lat="38.5088352" lon="16.2770982"><ele>1109.0</ele><time>2026-04-11T12:03:42.69Z</time></trkpt><trkpt lat="38.5087982" lon="16.2773558"><ele>1108.0</ele><time>2026-04-11T12:03:43.689Z</time></trkpt><trkpt lat="38.5087703" lon="16.2776213"><ele>1106.6666666666665</ele><time>2026-04-11T12:03:44.69Z</time></trkpt><trkpt lat="38.5087511" lon="16.2778789"><ele>1105.3333333333333</ele><time>2026-04-11T12:03:45.69Z</time></trkpt><trkpt lat="38.5087421" lon="16.2781356"><ele>1104.0</ele><time>2026-04-11T12:03:46.689Z</time></trkpt><trkpt lat="38.5087358" lon="16.2783766"><ele>1104.0</ele><time>2026-04-11T12:03:47.689Z</time></trkpt><trkpt lat="38.5087327" lon="16.2786004"><ele>1104.0</ele><time>2026-04-11T12:03:48.689Z</time></trkpt><trkpt lat="38.5087424" lon="16.278824"><ele>1104.0</ele><time>2026-04-11T12:03:49.689Z</time></trkpt><trkpt lat="38.5087674" lon="16.2790496"><ele>1099.6666666666667</ele><time>2026-04-11T12:03:50.689Z</time></trkpt><trkpt lat="38.5088155" lon="16.2792672"><ele>1095.3333333333335</ele><time>2026-04-11T12:03:51.689Z</time></trkpt><trkpt lat="38.5088876" lon="16.2794759"><ele>1091.0</ele><time>2026-04-11T12:03:52.689Z</time></trkpt><trkpt lat="38.5089625" lon="16.2796785"><ele>1090.0</ele><time>2026-04-11T12:03:53.689Z</time></trkpt><trkpt lat="38.5090343" lon="16.2798808"><ele>1089.0</ele><time>2026-04-11T12:03:54.689Z</time></trkpt><trkpt lat="38.5091176" lon="16.2800683"><ele>1088.0</ele><time>2026-04-11T12:03:55.69Z</time></trkpt><trkpt lat="38.5092031" lon="16.2802409"><ele>1088.0</ele><time>2026-04-11T12:03:56.689Z</time></trkpt><trkpt lat="38.5092781" lon="16.2804042"><ele>1088.0</ele><time>2026-04-11T12:03:57.69Z</time></trkpt><trkpt lat="38.509353" lon="16.2805597"><ele>1088.0</ele><time>2026-04-11T12:03:58.689Z</time></trkpt><trkpt lat="38.5094265" lon="16.2807196"><ele>1088.0</ele><time>2026-04-11T12:03:59.69Z</time></trkpt><trkpt lat="38.5094914" lon="16.2808705"><ele>1088.25</ele><time>2026-04-11T12:04:00.689Z</time></trkpt><trkpt lat="38.5095401" lon="16.2810216"><ele>1088.5</ele><time>2026-04-11T12:04:01.689Z</time></trkpt><trkpt lat="38.5095863" lon="16.2811761"><ele>1088.75</ele><time>2026-04-11T12:04:02.689Z</time></trkpt><trkpt lat="38.5096222" lon="16.2813123"><ele>1089.0</ele><time>2026-04-11T12:04:03.69Z</time></trkpt><trkpt lat="38.5096497" lon="16.2814417"><ele>1088.5</ele><time>2026-04-11T12:04:04.69Z</time></trkpt><trkpt lat="38.5096742" lon="16.2815639"><ele>1088.0</ele><time>2026-04-11T12:04:05.689Z</time></trkpt><trkpt lat="38.509696" lon="16.2816689"><ele>1087.5</ele><time>2026-04-11T12:04:06.689Z</time></trkpt><trkpt lat="38.5097189" lon="16.2817669"><ele>1087.0</ele><time>2026-04-11T12:04:07.69Z</time></trkpt><trkpt lat="38.5097446" lon="16.2818603"><ele>1086.5</ele><time>2026-04-11T12:04:08.69Z</time></trkpt><trkpt lat="38.5097721" lon="16.2819495"><ele>1086.0</ele><time>2026-04-11T12:04:09.69Z</time></trkpt><trkpt lat="38.5097979" lon="16.282043"><ele>1086.0</ele><time>2026-04-11T12:04:10.69Z</time></trkpt><trkpt lat="38.5098259" lon="16.2821466"><ele>1086.0</ele><time>2026-04-11T12:04:11.689Z</time></trkpt><trkpt lat="38.5098547" lon="16.282253"><ele>1086.0</ele><time>2026-04-11T12:04:12.689Z</time></trkpt><trkpt lat="38.5098822" lon="16.2823642"><ele>1086.0</ele><time>2026-04-11T12:04:13.69Z</time></trkpt><trkpt lat="38.509918" lon="16.2824815"><ele>1086.0</ele><time>2026-04-11T12:04:14.689Z</time></trkpt><trkpt lat="38.5099574" lon="16.2826045"><ele>1085.8</ele><time>2026-04-11T12:04:15.689Z</time></trkpt><trkpt lat="38.5099966" lon="16.2827321"><ele>1085.6</ele><time>2026-04-11T12:04:16.689Z</time></trkpt><trkpt lat="38.51003" lon="16.2828622"><ele>1085.4</ele><time>2026-04-11T12:04:17.689Z</time></trkpt><trkpt lat="38.5100655" lon="16.2829999"><ele>1085.2</ele><time>2026-04-11T12:04:18.69Z</time></trkpt><trkpt lat="38.5100992" lon="16.2831476"><ele>1085.0</ele><time>2026-04-11T12:04:19.69Z</time></trkpt><trkpt lat="38.5101388" lon="16.2833033"><ele>1084.75</ele><time>2026-04-11T12:04:20.69Z</time></trkpt><trkpt lat="38.5101789" lon="16.2834575"><ele>1084.5</ele><time>2026-04-11T12:04:21.689Z</time></trkpt><trkpt lat="38.5102239" lon="16.2836149"><ele>1084.25</ele><time>2026-04-11T12:04:22.689Z</time></trkpt><trkpt lat="38.5102639" lon="16.2837753"><ele>1084.0</ele><time>2026-04-11T12:04:23.69Z</time></trkpt><trkpt lat="38.5102948" lon="16.2839435"><ele>1084.0</ele><time>2026-04-11T12:04:24.69Z</time></trkpt><trkpt lat="38.510312" lon="16.2841077"><ele>1084.0</ele><time>2026-04-11T12:04:25.689Z</time></trkpt><trkpt lat="38.5103277" lon="16.2842683"><ele>1084.0</ele><time>2026-04-11T12:04:26.689Z</time></trkpt><trkpt lat="38.5103445" lon="16.2844356"><ele>1084.0</ele><time>2026-04-11T12:04:27.689Z</time></trkpt><trkpt lat="38.5103603" lon="16.2846163"><ele>1082.0</ele><time>2026-04-11T12:04:28.689Z</time></trkpt><trkpt lat="38.5103746" lon="16.2847981"><ele>1080.0</ele><time>2026-04-11T12:04:29.69Z</time></trkpt><trkpt lat="38.5103903" lon="16.2849819"><ele>1078.0</ele><time>2026-04-11T12:04:30.69Z</time></trkpt><trkpt lat="38.5104106" lon="16.2851731"><ele>1076.0</ele><time>2026-04-11T12:04:31.69Z</time></trkpt><trkpt lat="38.5104322" lon="16.2853556"><ele>1076.0</ele><time>2026-04-11T12:04:32.689Z</time></trkpt><trkpt lat="38.5104513" lon="16.2855442"><ele>1076.0</ele><time>2026-04-11T12:04:33.689Z</time></trkpt><trkpt lat="38.5104722" lon="16.2857382"><ele>1076.0</ele><time>2026-04-11T12:04:34.689Z</time></trkpt><trkpt lat="38.5104879" lon="16.2859348"><ele>1078.3333333333335</ele><time>2026-04-11T12:04:35.69Z</time></trkpt><trkpt lat="38.510491" lon="16.2861329"><ele>1080.6666666666667</ele><time>2026-04-11T12:04:36.689Z</time></trkpt><trkpt lat="38.5104816" lon="16.2863242"><ele>1083.0</ele><time>2026-04-11T12:04:37.689Z</time></trkpt><trkpt lat="38.5104621" lon="16.2865137"><ele>1085.0</ele><time>2026-04-11T12:04:38.689Z</time></trkpt><trkpt lat="38.5104338" lon="16.2867036"><ele>1087.0</ele><time>2026-04-11T12:04:39.689Z</time></trkpt><trkpt lat="38.5104114" lon="16.2868876"><ele>1089.0</ele><time>2026-04-11T12:04:40.69Z</time></trkpt><trkpt lat="38.510397" lon="16.2870555"><ele>1091.0</ele><time>2026-04-11T12:04:41.69Z</time></trkpt><trkpt lat="38.5103767" lon="16.2872013"><ele>1091.0</ele><time>2026-04-11T12:04:42.689Z</time></trkpt><trkpt lat="38.5103651" lon="16.2873259"><ele>1091.0</ele><time>2026-04-11T12:04:43.689Z</time></trkpt><trkpt lat="38.5103637" lon="16.2874385"><ele>1091.0</ele><time>2026-04-11T12:04:44.689Z</time></trkpt><trkpt lat="38.5103736" lon="16.2875394"><ele>1091.0</ele><time>2026-04-11T12:04:45.689Z</time></trkpt><trkpt lat="38.510405" lon="16.2876423"><ele>1091.0</ele><time>2026-04-11T12:04:46.689Z</time></trkpt><trkpt lat="38.5104563" lon="16.2877305"><ele>1091.0</ele><time>2026-04-11T12:04:47.689Z</time></trkpt><trkpt lat="38.510534" lon="16.2878018"><ele>1091.0</ele><time>2026-04-11T12:04:48.69Z</time></trkpt><trkpt lat="38.5106345" lon="16.2878511"><ele>1091.0</ele><time>2026-04-11T12:04:49.689Z</time></trkpt><trkpt lat="38.5107528" lon="16.2879027"><ele>1091.0</ele><time>2026-04-11T12:04:50.689Z</time></trkpt><trkpt lat="38.5108827" lon="16.2879657"><ele>1091.0</ele><time>2026-04-11T12:04:51.689Z</time></trkpt><trkpt lat="38.5110105" lon="16.288053"><ele>1085.3333333333335</ele><time>2026-04-11T12:04:52.69Z</time></trkpt><trkpt lat="38.5111331" lon="16.288186"><ele>1079.6666666666667</ele><time>2026-04-11T12:04:53.689Z</time></trkpt><trkpt lat="38.5112333" lon="16.2883295"><ele>1074.0</ele><time>2026-04-11T12:04:54.689Z</time></trkpt><trkpt lat="38.5113161" lon="16.2884795"><ele>1072.0</ele><time>2026-04-11T12:04:55.689Z</time></trkpt><trkpt lat="38.5114049" lon="16.2886463"><ele>1070.0</ele><time>2026-04-11T12:04:56.69Z</time></trkpt><trkpt lat="38.511488" lon="16.2888086"><ele>1068.0</ele><time>2026-04-11T12:04:57.69Z</time></trkpt><trkpt lat="38.5115764" lon="16.288975"><ele>1068.0</ele><time>2026-04-11T12:04:58.689Z</time></trkpt><trkpt lat="38.5116615" lon="16.2891381"><ele>1068.0</ele><time>2026-04-11T12:04:59.689Z</time></trkpt><trkpt lat="38.5117453" lon="16.289314"><ele>1068.0</ele><time>2026-04-11T12:05:00.689Z</time></trkpt><trkpt lat="38.5118341" lon="16.2894842"><ele>1068.0</ele><time>2026-04-11T12:05:01.689Z</time></trkpt><trkpt lat="38.511918" lon="16.2896625"><ele>1068.0</ele><time>2026-04-11T12:05:02.69Z</time></trkpt><trkpt lat="38.5120062" lon="16.2898519"><ele>1068.0</ele><time>2026-04-11T12:05:03.69Z</time></trkpt><trkpt lat="38.5120905" lon="16.290041"><ele>1066.6666666666667</ele><time>2026-04-11T12:05:04.689Z</time></trkpt><trkpt lat="38.5121729" lon="16.2902248"><ele>1065.3333333333335</ele><time>2026-04-11T12:05:05.689Z</time></trkpt><trkpt lat="38.5122464" lon="16.2904069"><ele>1064.0</ele><time>2026-04-11T12:05:06.689Z</time></trkpt><trkpt lat="38.5123201" lon="16.2905888"><ele>1064.75</ele><time>2026-04-11T12:05:07.69Z</time></trkpt><trkpt lat="38.5123772" lon="16.2907637"><ele>1065.5</ele><time>2026-04-11T12:05:08.689Z</time></trkpt><trkpt lat="38.5124225" lon="16.2909306"><ele>1066.25</ele><time>2026-04-11T12:05:09.69Z</time></trkpt><trkpt lat="38.5124702" lon="16.2911019"><ele>1067.0</ele><time>2026-04-11T12:05:10.689Z</time></trkpt><trkpt lat="38.5125208" lon="16.2912567"><ele>1067.0</ele><time>2026-04-11T12:05:11.689Z</time></trkpt><trkpt lat="38.5125591" lon="16.2914105"><ele>1067.0</ele><time>2026-04-11T12:05:12.69Z</time></trkpt><trkpt lat="38.5125965" lon="16.2915622"><ele>1067.0</ele><time>2026-04-11T12:05:13.689Z</time></trkpt><trkpt lat="38.5126133" lon="16.2917171"><ele>1067.0</ele><time>2026-04-11T12:05:14.689Z</time></trkpt><trkpt lat="38.5126114" lon="16.2918838"><ele>1065.75</ele><time>2026-04-11T12:05:15.689Z</time></trkpt><trkpt lat="38.5126088" lon="16.2920505"><ele>1064.5</ele><time>2026-04-11T12:05:16.69Z</time></trkpt><trkpt lat="38.5126092" lon="16.2922159"><ele>1063.25</ele><time>2026-04-11T12:05:17.69Z</time></trkpt><trkpt lat="38.5125979" lon="16.2923863"><ele>1062.0</ele><time>2026-04-11T12:05:18.689Z</time></trkpt><trkpt lat="38.5125874" lon="16.292547"><ele>1062.0</ele><time>2026-04-11T12:05:19.69Z</time></trkpt><trkpt lat="38.5125826" lon="16.2927094"><ele>1062.0</ele><time>2026-04-11T12:05:20.69Z</time></trkpt><trkpt lat="38.5125851" lon="16.2928814"><ele>1062.0</ele><time>2026-04-11T12:05:21.69Z</time></trkpt><trkpt lat="38.5126036" lon="16.2930528"><ele>1062.0</ele><time>2026-04-11T12:05:22.689Z</time></trkpt><trkpt lat="38.5126269" lon="16.2932278"><ele>1060.25</ele><time>2026-04-11T12:05:23.689Z</time></trkpt><trkpt lat="38.512651" lon="16.2934018"><ele>1058.5</ele><time>2026-04-11T12:05:24.689Z</time></trkpt><trkpt lat="38.5126793" lon="16.2935669"><ele>1056.75</ele><time>2026-04-11T12:05:25.69Z</time></trkpt><trkpt lat="38.5127169" lon="16.2937258"><ele>1055.0</ele><time>2026-04-11T12:05:26.69Z</time></trkpt><trkpt lat="38.5127601" lon="16.2938529"><ele>1054.8</ele><time>2026-04-11T12:05:27.689Z</time></trkpt><trkpt lat="38.5128142" lon="16.2939282"><ele>1054.6</ele><time>2026-04-11T12:05:28.689Z</time></trkpt><trkpt lat="38.5129242" lon="16.2939797"><ele>1054.4</ele><time>2026-04-11T12:05:30.689Z</time></trkpt><trkpt lat="38.5129961" lon="16.2939746"><ele>1054.2</ele><time>2026-04-11T12:05:31.689Z</time></trkpt><trkpt lat="38.5130831" lon="16.2939482"><ele>1054.0</ele><time>2026-04-11T12:05:32.689Z</time></trkpt><trkpt lat="38.5131811" lon="16.2939182"><ele>1057.0</ele><time>2026-04-11T12:05:33.689Z</time></trkpt><trkpt lat="38.5132876" lon="16.2938952"><ele>1060.0</ele><time>2026-04-11T12:05:34.69Z</time></trkpt><trkpt lat="38.513409" lon="16.2938733"><ele>1063.0</ele><time>2026-04-11T12:05:35.689Z</time></trkpt><trkpt lat="38.5135422" lon="16.2938499"><ele>1066.0</ele><time>2026-04-11T12:05:36.689Z</time></trkpt><trkpt lat="38.5136748" lon="16.2938106"><ele>1063.25</ele><time>2026-04-11T12:05:37.689Z</time></trkpt><trkpt lat="38.5138093" lon="16.2937652"><ele>1060.5</ele><time>2026-04-11T12:05:38.689Z</time></trkpt><trkpt lat="38.5139414" lon="16.2937202"><ele>1057.75</ele><time>2026-04-11T12:05:39.689Z</time></trkpt><trkpt lat="38.5140658" lon="16.2936779"><ele>1055.0</ele><time>2026-04-11T12:05:40.69Z</time></trkpt><trkpt lat="38.5141772" lon="16.2936383"><ele>1055.0</ele><time>2026-04-11T12:05:41.69Z</time></trkpt><trkpt lat="38.5142786" lon="16.2936206"><ele>1055.0</ele><time>2026-04-11T12:05:42.69Z</time></trkpt><trkpt lat="38.5143755" lon="16.2936218"><ele>1055.0</ele><time>2026-04-11T12:05:43.689Z</time></trkpt><trkpt lat="38.5144643" lon="16.2936486"><ele>1055.0</ele><time>2026-04-11T12:05:44.69Z</time></trkpt><trkpt lat="38.5145366" lon="16.2937091"><ele>1055.0</ele><time>2026-04-11T12:05:45.689Z</time></trkpt><trkpt lat="38.5146032" lon="16.2937835"><ele>1052.0</ele><time>2026-04-11T12:05:46.689Z</time></trkpt><trkpt lat="38.5146456" lon="16.2938852"><ele>1049.0</ele><time>2026-04-11T12:05:47.69Z</time></trkpt><trkpt lat="38.5146597" lon="16.2940211"><ele>1046.0</ele><time>2026-04-11T12:05:48.69Z</time></trkpt><trkpt lat="38.5146525" lon="16.2941678"><ele>1043.0</ele><time>2026-04-11T12:05:49.69Z</time></trkpt><trkpt lat="38.5146583" lon="16.2943284"><ele>1040.0</ele><time>2026-04-11T12:05:50.69Z</time></trkpt><trkpt lat="38.5146948" lon="16.2944779"><ele>1038.25</ele><time>2026-04-11T12:05:51.69Z</time></trkpt><trkpt lat="38.5147554" lon="16.2945925"><ele>1036.5</ele><time>2026-04-11T12:05:52.69Z</time></trkpt><trkpt lat="38.5148394" lon="16.2946913"><ele>1034.75</ele><time>2026-04-11T12:05:53.69Z</time></trkpt><trkpt lat="38.514937" lon="16.294774"><ele>1033.0</ele><time>2026-04-11T12:05:54.69Z</time></trkpt><trkpt lat="38.5150267" lon="16.2948671"><ele>1031.75</ele><time>2026-04-11T12:05:55.69Z</time></trkpt><trkpt lat="38.5151029" lon="16.2949751"><ele>1030.5</ele><time>2026-04-11T12:05:56.69Z</time></trkpt><trkpt lat="38.5151629" lon="16.295098"><ele>1029.25</ele><time>2026-04-11T12:05:57.689Z</time></trkpt><trkpt lat="38.5152176" lon="16.2952347"><ele>1028.0</ele><time>2026-04-11T12:05:58.69Z</time></trkpt><trkpt lat="38.51527" lon="16.2953785"><ele>1028.0</ele><time>2026-04-11T12:05:59.689Z</time></trkpt><trkpt lat="38.5153215" lon="16.295521"><ele>1028.0</ele><time>2026-04-11T12:06:00.689Z</time></trkpt><trkpt lat="38.5153712" lon="16.295666"><ele>1028.0</ele><time>2026-04-11T12:06:01.69Z</time></trkpt><trkpt lat="38.5154246" lon="16.2958128"><ele>1028.0</ele><time>2026-04-11T12:06:02.689Z</time></trkpt><trkpt lat="38.5154816" lon="16.2959721"><ele>1024.0</ele><time>2026-04-11T12:06:03.689Z</time></trkpt><trkpt lat="38.5155469" lon="16.2961342"><ele>1020.0</ele><time>2026-04-11T12:06:04.69Z</time></trkpt><trkpt lat="38.5156223" lon="16.2962923"><ele>1016.0</ele><time>2026-04-11T12:06:05.689Z</time></trkpt><trkpt lat="38.5157094" lon="16.2964469"><ele>1012.0</ele><time>2026-04-11T12:06:06.689Z</time></trkpt><trkpt lat="38.5158097" lon="16.296603"><ele>1010.6666666666666</ele><time>2026-04-11T12:06:07.689Z</time></trkpt><trkpt lat="38.5159214" lon="16.296763"><ele>1009.3333333333333</ele><time>2026-04-11T12:06:08.689Z</time></trkpt><trkpt lat="38.5160296" lon="16.296918"><ele>1008.0</ele><time>2026-04-11T12:06:09.689Z</time></trkpt><trkpt lat="38.5161327" lon="16.297072"><ele>1008.0</ele><time>2026-04-11T12:06:10.689Z</time></trkpt><trkpt lat="38.5162229" lon="16.2972218"><ele>1008.0</ele><time>2026-04-11T12:06:11.689Z</time></trkpt><trkpt lat="38.5163087" lon="16.29737"><ele>1008.0</ele><time>2026-04-11T12:06:12.689Z</time></trkpt><trkpt lat="38.5163786" lon="16.2975262"><ele>1008.0</ele><time>2026-04-11T12:06:13.689Z</time></trkpt><trkpt lat="38.5164269" lon="16.2976835"><ele>1004.5</ele><time>2026-04-11T12:06:14.69Z</time></trkpt><trkpt lat="38.5164513" lon="16.2978389"><ele>1001.0</ele><time>2026-04-11T12:06:15.689Z</time></trkpt><trkpt lat="38.5164788" lon="16.2979997"><ele>997.5</ele><time>2026-04-11T12:06:16.689Z</time></trkpt><trkpt lat="38.5165057" lon="16.2981638"><ele>994.0</ele><time>2026-04-11T12:06:17.69Z</time></trkpt><trkpt lat="38.5165271" lon="16.29833"><ele>992.75</ele><time>2026-04-11T12:06:18.689Z</time></trkpt><trkpt lat="38.5165274" lon="16.298508"><ele>991.5</ele><time>2026-04-11T12:06:19.689Z</time></trkpt><trkpt lat="38.5165119" lon="16.2986855"><ele>990.25</ele><time>2026-04-11T12:06:20.689Z</time></trkpt><trkpt lat="38.5164908" lon="16.2988609"><ele>989.0</ele><time>2026-04-11T12:06:21.689Z</time></trkpt><trkpt lat="38.516459" lon="16.2990332"><ele>987.75</ele><time>2026-04-11T12:06:22.689Z</time></trkpt><trkpt lat="38.5164246" lon="16.2991972"><ele>986.5</ele><time>2026-04-11T12:06:23.689Z</time></trkpt><trkpt lat="38.5164066" lon="16.2993525"><ele>985.25</ele><time>2026-04-11T12:06:24.689Z</time></trkpt><trkpt lat="38.5164134" lon="16.2994975"><ele>984.0</ele><time>2026-04-11T12:06:25.689Z</time></trkpt><trkpt lat="38.5164431" lon="16.2996426"><ele>982.0</ele><time>2026-04-11T12:06:26.689Z</time></trkpt><trkpt lat="38.5164836" lon="16.299782"><ele>980.0</ele><time>2026-04-11T12:06:27.69Z</time></trkpt><trkpt lat="38.5165296" lon="16.2999254"><ele>978.0</ele><time>2026-04-11T12:06:28.689Z</time></trkpt><trkpt lat="38.5165734" lon="16.3000688"><ele>976.0</ele><time>2026-04-11T12:06:29.689Z</time></trkpt><trkpt lat="38.516621" lon="16.300212"><ele>976.0</ele><time>2026-04-11T12:06:30.69Z</time></trkpt><trkpt lat="38.5166658" lon="16.3003587"><ele>976.0</ele><time>2026-04-11T12:06:31.69Z</time></trkpt><trkpt lat="38.5167112" lon="16.3005056"><ele>976.0</ele><time>2026-04-11T12:06:32.689Z</time></trkpt><trkpt lat="38.5167647" lon="16.3006544"><ele>976.0</ele><time>2026-04-11T12:06:33.69Z</time></trkpt><trkpt lat="38.5168281" lon="16.3008096"><ele>975.0</ele><time>2026-04-11T12:06:34.69Z</time></trkpt><trkpt lat="38.5168933" lon="16.3009725"><ele>974.0</ele><time>2026-04-11T12:06:35.689Z</time></trkpt><trkpt lat="38.5169507" lon="16.3011296"><ele>973.0</ele><time>2026-04-11T12:06:36.689Z</time></trkpt><trkpt lat="38.5170022" lon="16.3012809"><ele>972.0</ele><time>2026-04-11T12:06:37.689Z</time></trkpt><trkpt lat="38.5170401" lon="16.3014287"><ele>971.75</ele><time>2026-04-11T12:06:38.69Z</time></trkpt><trkpt lat="38.517067" lon="16.3015843"><ele>971.5</ele><time>2026-04-11T12:06:39.689Z</time></trkpt><trkpt lat="38.5170642" lon="16.3017453"><ele>971.25</ele><time>2026-04-11T12:06:40.69Z</time></trkpt><trkpt lat="38.5170405" lon="16.3019042"><ele>971.0</ele><time>2026-04-11T12:06:41.689Z</time></trkpt><trkpt lat="38.5170016" lon="16.302072"><ele>970.75</ele><time>2026-04-11T12:06:42.69Z</time></trkpt><trkpt lat="38.5169501" lon="16.3022519"><ele>970.5</ele><time>2026-04-11T12:06:43.689Z</time></trkpt><trkpt lat="38.5169009" lon="16.302427"><ele>970.25</ele><time>2026-04-11T12:06:44.69Z</time></trkpt><trkpt lat="38.5168564" lon="16.3026068"><ele>970.0</ele><time>2026-04-11T12:06:45.689Z</time></trkpt><trkpt lat="38.516823" lon="16.3027954"><ele>970.0</ele><time>2026-04-11T12:06:46.69Z</time></trkpt><trkpt lat="38.5168037" lon="16.3029825"><ele>970.0</ele><time>2026-04-11T12:06:47.689Z</time></trkpt><trkpt lat="38.5167918" lon="16.3031595"><ele>970.0</ele><time>2026-04-11T12:06:48.69Z</time></trkpt><trkpt lat="38.5167835" lon="16.3033297"><ele>970.0</ele><time>2026-04-11T12:06:49.69Z</time></trkpt><trkpt lat="38.5167718" lon="16.3034929"><ele>969.25</ele><time>2026-04-11T12:06:50.69Z</time></trkpt><trkpt lat="38.516756" lon="16.3036555"><ele>968.5</ele><time>2026-04-11T12:06:51.69Z</time></trkpt><trkpt lat="38.5167258" lon="16.3038268"><ele>967.75</ele><time>2026-04-11T12:06:52.689Z</time></trkpt><trkpt lat="38.5166772" lon="16.3040042"><ele>967.0</ele><time>2026-04-11T12:06:53.689Z</time></trkpt><trkpt lat="38.5166158" lon="16.3041772"><ele>965.6666666666666</ele><time>2026-04-11T12:06:54.689Z</time></trkpt><trkpt lat="38.5165428" lon="16.304344"><ele>964.3333333333333</ele><time>2026-04-11T12:06:55.689Z</time></trkpt><trkpt lat="38.5164649" lon="16.3045271"><ele>963.0</ele><time>2026-04-11T12:06:56.689Z</time></trkpt><trkpt lat="38.5163864" lon="16.3047141"><ele>961.3333333333333</ele><time>2026-04-11T12:06:57.689Z</time></trkpt><trkpt lat="38.5163099" lon="16.3049087"><ele>959.6666666666666</ele><time>2026-04-11T12:06:58.689Z</time></trkpt><trkpt lat="38.516233" lon="16.3051095"><ele>958.0</ele><time>2026-04-11T12:06:59.69Z</time></trkpt><trkpt lat="38.5161491" lon="16.3053168"><ele>956.6666666666666</ele><time>2026-04-11T12:07:00.689Z</time></trkpt><trkpt lat="38.5160581" lon="16.3055243"><ele>955.3333333333333</ele><time>2026-04-11T12:07:01.69Z</time></trkpt><trkpt lat="38.5159672" lon="16.3057279"><ele>954.0</ele><time>2026-04-11T12:07:02.69Z</time></trkpt><trkpt lat="38.515883" lon="16.305926"><ele>953.0</ele><time>2026-04-11T12:07:03.689Z</time></trkpt><trkpt lat="38.5157993" lon="16.3061161"><ele>952.0</ele><time>2026-04-11T12:07:04.69Z</time></trkpt><trkpt lat="38.5157174" lon="16.306303"><ele>951.0</ele><time>2026-04-11T12:07:05.689Z</time></trkpt><trkpt lat="38.515635" lon="16.3064857"><ele>950.3333333333333</ele><time>2026-04-11T12:07:06.689Z</time></trkpt><trkpt lat="38.515555" lon="16.3066728"><ele>949.6666666666666</ele><time>2026-04-11T12:07:07.689Z</time></trkpt><trkpt lat="38.5154768" lon="16.3068597"><ele>949.0</ele><time>2026-04-11T12:07:08.69Z</time></trkpt><trkpt lat="38.515396" lon="16.3070467"><ele>947.3333333333333</ele><time>2026-04-11T12:07:09.689Z</time></trkpt><trkpt lat="38.5153155" lon="16.3072251"><ele>945.6666666666667</ele><time>2026-04-11T12:07:10.69Z</time></trkpt><trkpt lat="38.5152382" lon="16.307403"><ele>944.0</ele><time>2026-04-11T12:07:11.689Z</time></trkpt><trkpt lat="38.5151588" lon="16.3075765"><ele>943.0</ele><time>2026-04-11T12:07:12.69Z</time></trkpt><trkpt lat="38.5150788" lon="16.3077383"><ele>942.0</ele><time>2026-04-11T12:07:13.689Z</time></trkpt><trkpt lat="38.5149944" lon="16.307886"><ele>941.0</ele><time>2026-04-11T12:07:14.689Z</time></trkpt><trkpt lat="38.5149065" lon="16.3080208"><ele>940.0</ele><time>2026-04-11T12:07:15.689Z</time></trkpt><trkpt lat="38.5148149" lon="16.3081358"><ele>940.0</ele><time>2026-04-11T12:07:16.69Z</time></trkpt><trkpt lat="38.5147119" lon="16.3082241"><ele>940.0</ele><time>2026-04-11T12:07:17.689Z</time></trkpt><trkpt lat="38.5145922" lon="16.3082705"><ele>940.0</ele><time>2026-04-11T12:07:18.689Z</time></trkpt><trkpt lat="38.5145015" lon="16.3083433"><ele>940.0</ele><time>2026-04-11T12:07:19.689Z</time></trkpt><trkpt lat="38.5144338" lon="16.3084322"><ele>940.0</ele><time>2026-04-11T12:07:20.689Z</time></trkpt><trkpt lat="38.5143865" lon="16.3085388"><ele>940.0</ele><time>2026-04-11T12:07:21.689Z</time></trkpt><trkpt lat="38.5143559" lon="16.3086512"><ele>940.0</ele><time>2026-04-11T12:07:22.689Z</time></trkpt><trkpt lat="38.5143449" lon="16.3087719"><ele>940.0</ele><time>2026-04-11T12:07:23.689Z</time></trkpt><trkpt lat="38.5143413" lon="16.3089211"><ele>940.0</ele><time>2026-04-11T12:07:24.689Z</time></trkpt><trkpt lat="38.5143444" lon="16.3090874"><ele>939.5</ele><time>2026-04-11T12:07:25.69Z</time></trkpt><trkpt lat="38.5143488" lon="16.3092497"><ele>939.0</ele><time>2026-04-11T12:07:26.689Z</time></trkpt><trkpt lat="38.514363" lon="16.3094059"><ele>938.5</ele><time>2026-04-11T12:07:27.69Z</time></trkpt><trkpt lat="38.5143927" lon="16.3095532"><ele>938.0</ele><time>2026-04-11T12:07:28.69Z</time></trkpt><trkpt lat="38.514441" lon="16.3096998"><ele>937.75</ele><time>2026-04-11T12:07:29.689Z</time></trkpt><trkpt lat="38.5145101" lon="16.3098579"><ele>937.5</ele><time>2026-04-11T12:07:30.69Z</time></trkpt><trkpt lat="38.5145841" lon="16.3100063"><ele>937.25</ele><time>2026-04-11T12:07:31.69Z</time></trkpt><trkpt lat="38.5146593" lon="16.3101557"><ele>937.0</ele><time>2026-04-11T12:07:32.689Z</time></trkpt><trkpt lat="38.514737" lon="16.3103006"><ele>935.75</ele><time>2026-04-11T12:07:33.69Z</time></trkpt><trkpt lat="38.5148168" lon="16.310443"><ele>934.5</ele><time>2026-04-11T12:07:34.69Z</time></trkpt><trkpt lat="38.5148933" lon="16.3105899"><ele>933.25</ele><time>2026-04-11T12:07:35.689Z</time></trkpt><trkpt lat="38.5149773" lon="16.3107442"><ele>932.0</ele><time>2026-04-11T12:07:36.689Z</time></trkpt><trkpt lat="38.5150667" lon="16.3109053"><ele>932.0</ele><time>2026-04-11T12:07:37.689Z</time></trkpt><trkpt lat="38.5151507" lon="16.3110665"><ele>932.0</ele><time>2026-04-11T12:07:38.689Z</time></trkpt><trkpt lat="38.5152303" lon="16.3112232"><ele>932.0</ele><time>2026-04-11T12:07:39.689Z</time></trkpt><trkpt lat="38.5153059" lon="16.311377"><ele>932.0</ele><time>2026-04-11T12:07:40.689Z</time></trkpt><trkpt lat="38.5153777" lon="16.311522"><ele>930.6</ele><time>2026-04-11T12:07:41.689Z</time></trkpt><trkpt lat="38.5154369" lon="16.3116544"><ele>929.2</ele><time>2026-04-11T12:07:42.69Z</time></trkpt><trkpt lat="38.5154773" lon="16.3117781"><ele>927.8</ele><time>2026-04-11T12:07:43.69Z</time></trkpt><trkpt lat="38.5155076" lon="16.3119056"><ele>926.4</ele><time>2026-04-11T12:07:44.689Z</time></trkpt><trkpt lat="38.515514" lon="16.3120483"><ele>925.0</ele><time>2026-04-11T12:07:45.689Z</time></trkpt><trkpt lat="38.515499" lon="16.3122014"><ele>923.75</ele><time>2026-04-11T12:07:46.689Z</time></trkpt><trkpt lat="38.5154756" lon="16.3123578"><ele>922.5</ele><time>2026-04-11T12:07:47.689Z</time></trkpt><trkpt lat="38.5154397" lon="16.3125227"><ele>921.25</ele><time>2026-04-11T12:07:48.689Z</time></trkpt><trkpt lat="38.5153986" lon="16.3126645"><ele>920.0</ele><time>2026-04-11T12:07:49.689Z</time></trkpt><trkpt lat="38.5153448" lon="16.3127784"><ele>919.5</ele><time>2026-04-11T12:07:50.69Z</time></trkpt><trkpt lat="38.5152748" lon="16.3128755"><ele>919.0</ele><time>2026-04-11T12:07:51.689Z</time></trkpt><trkpt lat="38.5151804" lon="16.3129598"><ele>918.5</ele><time>2026-04-11T12:07:52.689Z</time></trkpt><trkpt lat="38.5150629" lon="16.3130272"><ele>918.0</ele><time>2026-04-11T12:07:53.69Z</time></trkpt><trkpt lat="38.5149354" lon="16.3130758"><ele>918.0</ele><time>2026-04-11T12:07:54.689Z</time></trkpt><trkpt lat="38.5148096" lon="16.3131149"><ele>918.0</ele><time>2026-04-11T12:07:55.689Z</time></trkpt><trkpt lat="38.5146964" lon="16.3131517"><ele>918.0</ele><time>2026-04-11T12:07:56.689Z</time></trkpt><trkpt lat="38.5146054" lon="16.3132068"><ele>918.0</ele><time>2026-04-11T12:07:57.689Z</time></trkpt><trkpt lat="38.5145319" lon="16.3132625"><ele>918.0</ele><time>2026-04-11T12:07:58.69Z</time></trkpt><trkpt lat="38.5144791" lon="16.313328"><ele>918.1666666666666</ele><time>2026-04-11T12:07:59.69Z</time></trkpt><trkpt lat="38.514448" lon="16.3134084"><ele>918.3333333333333</ele><time>2026-04-11T12:08:00.689Z</time></trkpt><trkpt lat="38.5144459" lon="16.3135007"><ele>918.5</ele><time>2026-04-11T12:08:01.689Z</time></trkpt><trkpt lat="38.5144674" lon="16.3136196"><ele>918.6666666666666</ele><time>2026-04-11T12:08:02.689Z</time></trkpt><trkpt lat="38.5144889" lon="16.313744"><ele>918.8333333333333</ele><time>2026-04-11T12:08:03.689Z</time></trkpt><trkpt lat="38.5144963" lon="16.3138789"><ele>919.0</ele><time>2026-04-11T12:08:04.689Z</time></trkpt><trkpt lat="38.5144798" lon="16.3140282"><ele>919.0</ele><time>2026-04-11T12:08:05.689Z</time></trkpt><trkpt lat="38.5144598" lon="16.3141653"><ele>919.0000000000001</ele><time>2026-04-11T12:08:06.689Z</time></trkpt><trkpt lat="38.514437" lon="16.3142648"><ele>919.0000000000001</ele><time>2026-04-11T12:08:07.689Z</time></trkpt><trkpt lat="38.5144061" lon="16.3144038"><ele>919.0</ele><time>2026-04-11T12:08:09.69Z</time></trkpt><trkpt lat="38.5144281" lon="16.3145278"><ele>919.0</ele><time>2026-04-11T12:08:11.689Z</time></trkpt><trkpt lat="38.5144869" lon="16.3145909"><ele>918.9999999999999</ele><time>2026-04-11T12:08:13.69Z</time></trkpt><trkpt lat="38.514546" lon="16.3146531"><ele>919.0</ele><time>2026-04-11T12:08:15.689Z</time></trkpt><trkpt lat="38.514591" lon="16.3147306"><ele>919.0</ele><time>2026-04-11T12:08:17.69Z</time></trkpt><trkpt lat="38.5146571" lon="16.3148228"><ele>919.0</ele><time>2026-04-11T12:08:19.689Z</time></trkpt><trkpt lat="38.5147443" lon="16.3149345"><ele>918.9999999999999</ele><time>2026-04-11T12:08:21.689Z</time></trkpt><trkpt lat="38.5147801" lon="16.3150015"><ele>919.0</ele><time>2026-04-11T12:08:22.689Z</time></trkpt><trkpt lat="38.5147992" lon="16.3151554"><ele>917.0</ele><time>2026-04-11T12:08:24.689Z</time></trkpt><trkpt lat="38.5147414" lon="16.3152871"><ele>915.0000000000001</ele><time>2026-04-11T12:08:26.69Z</time></trkpt><trkpt lat="38.5146742" lon="16.3154227"><ele>913.0000000000001</ele><time>2026-04-11T12:08:28.69Z</time></trkpt><trkpt lat="38.5146414" lon="16.3154996"><ele>911.0</ele><time>2026-04-11T12:08:29.689Z</time></trkpt><trkpt lat="38.5146012" lon="16.3155854"><ele>909.0</ele><time>2026-04-11T12:08:30.69Z</time></trkpt><trkpt lat="38.5145581" lon="16.3156767"><ele>907.3333333333334</ele><time>2026-04-11T12:08:31.69Z</time></trkpt><trkpt lat="38.5145186" lon="16.3157706"><ele>905.6666666666667</ele><time>2026-04-11T12:08:32.689Z</time></trkpt><trkpt lat="38.5144843" lon="16.3158683"><ele>904.0</ele><time>2026-04-11T12:08:33.689Z</time></trkpt><trkpt lat="38.5144507" lon="16.3159749"><ele>902.3333333333334</ele><time>2026-04-11T12:08:34.689Z</time></trkpt><trkpt lat="38.5144291" lon="16.3160894"><ele>900.6666666666667</ele><time>2026-04-11T12:08:35.69Z</time></trkpt><trkpt lat="38.5144183" lon="16.3161981"><ele>899.0</ele><time>2026-04-11T12:08:36.69Z</time></trkpt><trkpt lat="38.5144327" lon="16.316315"><ele>900.25</ele><time>2026-04-11T12:08:37.69Z</time></trkpt><trkpt lat="38.5144786" lon="16.3164255"><ele>901.5</ele><time>2026-04-11T12:08:38.69Z</time></trkpt><trkpt lat="38.5145536" lon="16.3165298"><ele>902.75</ele><time>2026-04-11T12:08:39.689Z</time></trkpt><trkpt lat="38.5146485" lon="16.3166208"><ele>904.0</ele><time>2026-04-11T12:08:40.689Z</time></trkpt><trkpt lat="38.5147555" lon="16.316709"><ele>905.5</ele><time>2026-04-11T12:08:41.69Z</time></trkpt><trkpt lat="38.5148573" lon="16.3168039"><ele>907.0</ele><time>2026-04-11T12:08:42.69Z</time></trkpt><trkpt lat="38.5149555" lon="16.3168974"><ele>908.5</ele><time>2026-04-11T12:08:43.69Z</time></trkpt><trkpt lat="38.5150495" lon="16.317"><ele>910.0</ele><time>2026-04-11T12:08:44.689Z</time></trkpt><trkpt lat="38.5151423" lon="16.3171068"><ele>910.0</ele><time>2026-04-11T12:08:45.689Z</time></trkpt><trkpt lat="38.5152407" lon="16.3172102"><ele>910.0</ele><time>2026-04-11T12:08:46.689Z</time></trkpt><trkpt lat="38.5153394" lon="16.317314"><ele>910.0</ele><time>2026-04-11T12:08:47.689Z</time></trkpt><trkpt lat="38.515433" lon="16.3174258"><ele>910.0</ele><time>2026-04-11T12:08:48.689Z</time></trkpt><trkpt lat="38.5155264" lon="16.3175436"><ele>911.0</ele><time>2026-04-11T12:08:49.689Z</time></trkpt><trkpt lat="38.5156057" lon="16.3176675"><ele>912.0</ele><time>2026-04-11T12:08:50.689Z</time></trkpt><trkpt lat="38.5156793" lon="16.3177941"><ele>913.0</ele><time>2026-04-11T12:08:51.69Z</time></trkpt><trkpt lat="38.515736" lon="16.3179158"><ele>914.0</ele><time>2026-04-11T12:08:52.69Z</time></trkpt><trkpt lat="38.515777" lon="16.3180371"><ele>914.2</ele><time>2026-04-11T12:08:53.689Z</time></trkpt><trkpt lat="38.5157963" lon="16.3181583"><ele>914.4000000000001</ele><time>2026-04-11T12:08:54.689Z</time></trkpt><trkpt lat="38.5157999" lon="16.3182795"><ele>914.6</ele><time>2026-04-11T12:08:55.689Z</time></trkpt><trkpt lat="38.5157674" lon="16.3183776"><ele>914.8</ele><time>2026-04-11T12:08:56.689Z</time></trkpt><trkpt lat="38.5157097" lon="16.3184627"><ele>915.0</ele><time>2026-04-11T12:08:57.689Z</time></trkpt><trkpt lat="38.5156325" lon="16.3185229"><ele>915.0</ele><time>2026-04-11T12:08:58.689Z</time></trkpt><trkpt lat="38.5155348" lon="16.3185456"><ele>915.0</ele><time>2026-04-11T12:08:59.689Z</time></trkpt><trkpt lat="38.5154291" lon="16.3185123"><ele>915.0</ele><time>2026-04-11T12:09:00.689Z</time></trkpt><trkpt lat="38.5153259" lon="16.31843"><ele>915.0</ele><time>2026-04-11T12:09:01.689Z</time></trkpt><trkpt lat="38.5152164" lon="16.318324"><ele>916.0</ele><time>2026-04-11T12:09:02.689Z</time></trkpt><trkpt lat="38.5151063" lon="16.3182368"><ele>917.0</ele><time>2026-04-11T12:09:03.689Z</time></trkpt><trkpt lat="38.5149819" lon="16.3181839"><ele>918.0</ele><time>2026-04-11T12:09:04.689Z</time></trkpt><trkpt lat="38.5148531" lon="16.3181451"><ele>919.0</ele><time>2026-04-11T12:09:05.69Z</time></trkpt><trkpt lat="38.5147244" lon="16.3181493"><ele>919.0</ele><time>2026-04-11T12:09:06.689Z</time></trkpt><trkpt lat="38.5145943" lon="16.3181702"><ele>919.0</ele><time>2026-04-11T12:09:07.689Z</time></trkpt><trkpt lat="38.5144679" lon="16.3182087"><ele>919.0</ele><time>2026-04-11T12:09:08.69Z</time></trkpt><trkpt lat="38.5143466" lon="16.3182537"><ele>919.0</ele><time>2026-04-11T12:09:09.689Z</time></trkpt><trkpt lat="38.5142308" lon="16.3183015"><ele>919.0</ele><time>2026-04-11T12:09:10.689Z</time></trkpt><trkpt lat="38.5141171" lon="16.3183531"><ele>919.0000000000001</ele><time>2026-04-11T12:09:11.689Z</time></trkpt><trkpt lat="38.5140139" lon="16.3184124"><ele>919.0000000000001</ele><time>2026-04-11T12:09:12.69Z</time></trkpt><trkpt lat="38.5139227" lon="16.3184759"><ele>919.0</ele><time>2026-04-11T12:09:13.689Z</time></trkpt><trkpt lat="38.5138417" lon="16.3185542"><ele>919.0</ele><time>2026-04-11T12:09:14.689Z</time></trkpt><trkpt lat="38.5137735" lon="16.3186373"><ele>919.0</ele><time>2026-04-11T12:09:15.69Z</time></trkpt><trkpt lat="38.513713" lon="16.3187295"><ele>919.0000000000001</ele><time>2026-04-11T12:09:16.689Z</time></trkpt><trkpt lat="38.5136553" lon="16.3188248"><ele>919.0000000000001</ele><time>2026-04-11T12:09:17.689Z</time></trkpt><trkpt lat="38.5136166" lon="16.318934"><ele>919.0</ele><time>2026-04-11T12:09:18.689Z</time></trkpt><trkpt lat="38.513603" lon="16.3190483"><ele>919.0</ele><time>2026-04-11T12:09:19.689Z</time></trkpt><trkpt lat="38.5136109" lon="16.3191541"><ele>919.0</ele><time>2026-04-11T12:09:20.69Z</time></trkpt><trkpt lat="38.5136515" lon="16.3192561"><ele>919.0000000000001</ele><time>2026-04-11T12:09:21.689Z</time></trkpt><trkpt lat="38.5137145" lon="16.3193296"><ele>919.0000000000001</ele><time>2026-04-11T12:09:22.689Z</time></trkpt><trkpt lat="38.5137976" lon="16.3193878"><ele>919.0</ele><time>2026-04-11T12:09:23.689Z</time></trkpt><trkpt lat="38.5138987" lon="16.3194461"><ele>919.0</ele><time>2026-04-11T12:09:24.69Z</time></trkpt><trkpt lat="38.5139992" lon="16.3195045"><ele>919.8000000000001</ele><time>2026-04-11T12:09:25.69Z</time></trkpt><trkpt lat="38.5141006" lon="16.3195672"><ele>920.6000000000001</ele><time>2026-04-11T12:09:26.689Z</time></trkpt><trkpt lat="38.5141992" lon="16.3196311"><ele>921.4</ele><time>2026-04-11T12:09:27.689Z</time></trkpt><trkpt lat="38.5142938" lon="16.3196917"><ele>922.2</ele><time>2026-04-11T12:09:28.689Z</time></trkpt><trkpt lat="38.5143845" lon="16.3197569"><ele>923.0</ele><time>2026-04-11T12:09:29.69Z</time></trkpt><trkpt lat="38.5144776" lon="16.3198262"><ele>925.25</ele><time>2026-04-11T12:09:30.689Z</time></trkpt><trkpt lat="38.5145714" lon="16.3198988"><ele>927.5</ele><time>2026-04-11T12:09:31.689Z</time></trkpt><trkpt lat="38.5146728" lon="16.3199625"><ele>929.75</ele><time>2026-04-11T12:09:32.689Z</time></trkpt><trkpt lat="38.5147773" lon="16.3200302"><ele>932.0</ele><time>2026-04-11T12:09:33.689Z</time></trkpt><trkpt lat="38.514881" lon="16.3201123"><ele>932.0</ele><time>2026-04-11T12:09:34.69Z</time></trkpt><trkpt lat="38.5149907" lon="16.3201721"><ele>932.0</ele><time>2026-04-11T12:09:35.689Z</time></trkpt><trkpt lat="38.5151023" lon="16.3202301"><ele>932.0</ele><time>2026-04-11T12:09:36.689Z</time></trkpt><trkpt lat="38.5152133" lon="16.3202925"><ele>932.0</ele><time>2026-04-11T12:09:37.69Z</time></trkpt><trkpt lat="38.5153266" lon="16.3203527"><ele>932.75</ele><time>2026-04-11T12:09:38.69Z</time></trkpt><trkpt lat="38.5154368" lon="16.3204108"><ele>933.5</ele><time>2026-04-11T12:09:39.689Z</time></trkpt><trkpt lat="38.5155422" lon="16.3204793"><ele>934.25</ele><time>2026-04-11T12:09:40.69Z</time></trkpt><trkpt lat="38.5156445" lon="16.3205518"><ele>935.0</ele><time>2026-04-11T12:09:41.689Z</time></trkpt><trkpt lat="38.5157485" lon="16.3206182"><ele>936.25</ele><time>2026-04-11T12:09:42.689Z</time></trkpt><trkpt lat="38.5158556" lon="16.3206765"><ele>937.5</ele><time>2026-04-11T12:09:43.69Z</time></trkpt><trkpt lat="38.5159626" lon="16.3207277"><ele>938.75</ele><time>2026-04-11T12:09:44.69Z</time></trkpt><trkpt lat="38.5160699" lon="16.3207719"><ele>940.0</ele><time>2026-04-11T12:09:45.69Z</time></trkpt><trkpt lat="38.5161774" lon="16.3207958"><ele>941.75</ele><time>2026-04-11T12:09:46.689Z</time></trkpt><trkpt lat="38.5162901" lon="16.3208133"><ele>943.5</ele><time>2026-04-11T12:09:47.689Z</time></trkpt><trkpt lat="38.5164091" lon="16.3208341"><ele>945.25</ele><time>2026-04-11T12:09:48.689Z</time></trkpt><trkpt lat="38.5165336" lon="16.3208511"><ele>947.0</ele><time>2026-04-11T12:09:49.689Z</time></trkpt><trkpt lat="38.5166673" lon="16.3208607"><ele>947.0</ele><time>2026-04-11T12:09:50.689Z</time></trkpt><trkpt lat="38.5168043" lon="16.320857"><ele>947.0</ele><time>2026-04-11T12:09:51.69Z</time></trkpt><trkpt lat="38.5169456" lon="16.3208412"><ele>947.0</ele><time>2026-04-11T12:09:52.689Z</time></trkpt><trkpt lat="38.5170884" lon="16.3208214"><ele>947.0</ele><time>2026-04-11T12:09:53.689Z</time></trkpt><trkpt lat="38.5172344" lon="16.3207973"><ele>948.25</ele><time>2026-04-11T12:09:54.689Z</time></trkpt><trkpt lat="38.5173772" lon="16.3207908"><ele>949.5</ele><time>2026-04-11T12:09:55.69Z</time></trkpt><trkpt lat="38.5175227" lon="16.3207895"><ele>950.75</ele><time>2026-04-11T12:09:56.689Z</time></trkpt><trkpt lat="38.5176613" lon="16.3207947"><ele>952.0</ele><time>2026-04-11T12:09:57.689Z</time></trkpt><trkpt lat="38.5177918" lon="16.320825"><ele>954.5</ele><time>2026-04-11T12:09:58.69Z</time></trkpt><trkpt lat="38.5179236" lon="16.3208809"><ele>957.0</ele><time>2026-04-11T12:09:59.689Z</time></trkpt><trkpt lat="38.5180507" lon="16.3209571"><ele>959.5</ele><time>2026-04-11T12:10:00.689Z</time></trkpt><trkpt lat="38.51817" lon="16.3210432"><ele>962.0</ele><time>2026-04-11T12:10:01.689Z</time></trkpt><trkpt lat="38.5182764" lon="16.3211412"><ele>962.0</ele><time>2026-04-11T12:10:02.69Z</time></trkpt><trkpt lat="38.5183549" lon="16.3212458"><ele>962.0</ele><time>2026-04-11T12:10:03.689Z</time></trkpt><trkpt lat="38.5184218" lon="16.3213574"><ele>962.0</ele><time>2026-04-11T12:10:04.689Z</time></trkpt><trkpt lat="38.5184944" lon="16.3214602"><ele>962.0</ele><time>2026-04-11T12:10:05.69Z</time></trkpt><trkpt lat="38.518579" lon="16.3215204"><ele>962.0</ele><time>2026-04-11T12:10:06.689Z</time></trkpt><trkpt lat="38.5186692" lon="16.3215151"><ele>965.2</ele><time>2026-04-11T12:10:07.689Z</time></trkpt><trkpt lat="38.5187471" lon="16.3214722"><ele>968.4000000000001</ele><time>2026-04-11T12:10:08.689Z</time></trkpt><trkpt lat="38.5188214" lon="16.3213994"><ele>971.5999999999999</ele><time>2026-04-11T12:10:09.689Z</time></trkpt><trkpt lat="38.5188919" lon="16.3212995"><ele>974.8</ele><time>2026-04-11T12:10:10.69Z</time></trkpt><trkpt lat="38.5189431" lon="16.3211671"><ele>978.0</ele><time>2026-04-11T12:10:11.689Z</time></trkpt><trkpt lat="38.5189602" lon="16.3210256"><ele>979.25</ele><time>2026-04-11T12:10:12.69Z</time></trkpt><trkpt lat="38.5189553" lon="16.320884"><ele>980.5</ele><time>2026-04-11T12:10:13.689Z</time></trkpt><trkpt lat="38.5189367" lon="16.3207261"><ele>981.75</ele><time>2026-04-11T12:10:14.69Z</time></trkpt><trkpt lat="38.518919" lon="16.320548"><ele>983.0</ele><time>2026-04-11T12:10:15.689Z</time></trkpt><trkpt lat="38.5188749" lon="16.3203436"><ele>985.0</ele><time>2026-04-11T12:10:16.689Z</time></trkpt><trkpt lat="38.5188269" lon="16.320138"><ele>987.0</ele><time>2026-04-11T12:10:17.689Z</time></trkpt><trkpt lat="38.5187946" lon="16.3199537"><ele>989.0</ele><time>2026-04-11T12:10:18.69Z</time></trkpt><trkpt lat="38.518777" lon="16.3197935"><ele>991.0</ele><time>2026-04-11T12:10:19.689Z</time></trkpt><trkpt lat="38.51878" lon="16.3196646"><ele>991.5</ele><time>2026-04-11T12:10:20.69Z</time></trkpt><trkpt lat="38.518814" lon="16.3195395"><ele>992.0</ele><time>2026-04-11T12:10:21.689Z</time></trkpt><trkpt lat="38.5188939" lon="16.3194279"><ele>992.5</ele><time>2026-04-11T12:10:22.689Z</time></trkpt><trkpt lat="38.5189839" lon="16.3193074"><ele>993.0</ele><time>2026-04-11T12:10:23.689Z</time></trkpt><trkpt lat="38.5190743" lon="16.319183"><ele>993.0</ele><time>2026-04-11T12:10:24.69Z</time></trkpt><trkpt lat="38.5191689" lon="16.3190584"><ele>993.0</ele><time>2026-04-11T12:10:25.689Z</time></trkpt><trkpt lat="38.5192632" lon="16.3189265"><ele>993.0</ele><time>2026-04-11T12:10:26.689Z</time></trkpt><trkpt lat="38.5193705" lon="16.3188132"><ele>993.0</ele><time>2026-04-11T12:10:27.69Z</time></trkpt><trkpt lat="38.5194852" lon="16.3187293"><ele>992.0</ele><time>2026-04-11T12:10:28.69Z</time></trkpt><trkpt lat="38.5196064" lon="16.3186761"><ele>991.0</ele><time>2026-04-11T12:10:29.689Z</time></trkpt><trkpt lat="38.5197252" lon="16.3186273"><ele>990.0</ele><time>2026-04-11T12:10:30.689Z</time></trkpt><trkpt lat="38.5198445" lon="16.3185885"><ele>989.0</ele><time>2026-04-11T12:10:31.689Z</time></trkpt><trkpt lat="38.5199743" lon="16.3185658"><ele>989.0</ele><time>2026-04-11T12:10:32.69Z</time></trkpt><trkpt lat="38.5201074" lon="16.318554"><ele>989.0</ele><time>2026-04-11T12:10:33.69Z</time></trkpt><trkpt lat="38.5202459" lon="16.3185725"><ele>989.0</ele><time>2026-04-11T12:10:34.689Z</time></trkpt><trkpt lat="38.5203801" lon="16.3186062"><ele>989.0</ele><time>2026-04-11T12:10:35.689Z</time></trkpt><trkpt lat="38.5205038" lon="16.3186657"><ele>989.5</ele><time>2026-04-11T12:10:36.689Z</time></trkpt><trkpt lat="38.52061" lon="16.3187422"><ele>990.0</ele><time>2026-04-11T12:10:37.689Z</time></trkpt><trkpt lat="38.5207102" lon="16.3188361"><ele>990.5</ele><time>2026-04-11T12:10:38.689Z</time></trkpt><trkpt lat="38.5208129" lon="16.3189326"><ele>991.0</ele><time>2026-04-11T12:10:39.69Z</time></trkpt><trkpt lat="38.5209225" lon="16.3190306"><ele>994.75</ele><time>2026-04-11T12:10:40.69Z</time></trkpt><trkpt lat="38.5210459" lon="16.3191032"><ele>998.5</ele><time>2026-04-11T12:10:41.69Z</time></trkpt><trkpt lat="38.5211806" lon="16.3191598"><ele>1002.25</ele><time>2026-04-11T12:10:42.69Z</time></trkpt><trkpt lat="38.5213252" lon="16.3192075"><ele>1006.0</ele><time>2026-04-11T12:10:43.689Z</time></trkpt><trkpt lat="38.5214838" lon="16.3192545"><ele>1006.0</ele><time>2026-04-11T12:10:44.69Z</time></trkpt><trkpt lat="38.5216636" lon="16.3192996"><ele>1006.0</ele><time>2026-04-11T12:10:45.689Z</time></trkpt><trkpt lat="38.521844" lon="16.3193452"><ele>1006.0</ele><time>2026-04-11T12:10:46.689Z</time></trkpt><trkpt lat="38.5220316" lon="16.3193861"><ele>1005.3333333333333</ele><time>2026-04-11T12:10:47.689Z</time></trkpt><trkpt lat="38.5222087" lon="16.3194182"><ele>1004.6666666666667</ele><time>2026-04-11T12:10:48.689Z</time></trkpt><trkpt lat="38.5223762" lon="16.3194645"><ele>1004.0</ele><time>2026-04-11T12:10:49.69Z</time></trkpt><trkpt lat="38.5225349" lon="16.319524"><ele>1004.0</ele><time>2026-04-11T12:10:50.689Z</time></trkpt><trkpt lat="38.5226842" lon="16.3195961"><ele>1004.0</ele><time>2026-04-11T12:10:51.689Z</time></trkpt><trkpt lat="38.522826" lon="16.3196932"><ele>1004.0</ele><time>2026-04-11T12:10:52.689Z</time></trkpt><trkpt lat="38.5229394" lon="16.3197899"><ele>1002.5</ele><time>2026-04-11T12:10:53.69Z</time></trkpt><trkpt lat="38.5230388" lon="16.3198981"><ele>1001.0</ele><time>2026-04-11T12:10:54.689Z</time></trkpt><trkpt lat="38.5231412" lon="16.3200063"><ele>999.5</ele><time>2026-04-11T12:10:55.689Z</time></trkpt><trkpt lat="38.5232438" lon="16.3201025"><ele>998.0</ele><time>2026-04-11T12:10:56.69Z</time></trkpt><trkpt lat="38.5233687" lon="16.3201795"><ele>998.0</ele><time>2026-04-11T12:10:57.69Z</time></trkpt><trkpt lat="38.5235018" lon="16.3202115"><ele>998.0</ele><time>2026-04-11T12:10:58.689Z</time></trkpt><trkpt lat="38.5236442" lon="16.3202089"><ele>998.0</ele><time>2026-04-11T12:10:59.689Z</time></trkpt><trkpt lat="38.5237916" lon="16.3201708"><ele>998.0</ele><time>2026-04-11T12:11:00.69Z</time></trkpt><trkpt lat="38.5239443" lon="16.3201157"><ele>996.6666666666667</ele><time>2026-04-11T12:11:01.689Z</time></trkpt><trkpt lat="38.524105" lon="16.3200693"><ele>995.3333333333333</ele><time>2026-04-11T12:11:02.69Z</time></trkpt><trkpt lat="38.5242652" lon="16.3200443"><ele>994.0</ele><time>2026-04-11T12:11:03.689Z</time></trkpt><trkpt lat="38.5244252" lon="16.3200461"><ele>993.6666666666666</ele><time>2026-04-11T12:11:04.689Z</time></trkpt><trkpt lat="38.5245907" lon="16.3200621"><ele>993.3333333333333</ele><time>2026-04-11T12:11:05.69Z</time></trkpt><trkpt lat="38.5247676" lon="16.3200929"><ele>993.0</ele><time>2026-04-11T12:11:06.689Z</time></trkpt><trkpt lat="38.5249463" lon="16.3201321"><ele>993.0</ele><time>2026-04-11T12:11:07.69Z</time></trkpt><trkpt lat="38.5251223" lon="16.3201605"><ele>993.0</ele><time>2026-04-11T12:11:08.69Z</time></trkpt><trkpt lat="38.5252961" lon="16.3201961"><ele>993.0</ele><time>2026-04-11T12:11:09.689Z</time></trkpt><trkpt lat="38.5254762" lon="16.320239"><ele>991.3333333333333</ele><time>2026-04-11T12:11:10.689Z</time></trkpt><trkpt lat="38.5256577" lon="16.3202728"><ele>989.6666666666666</ele><time>2026-04-11T12:11:11.69Z</time></trkpt><trkpt lat="38.525842" lon="16.3203051"><ele>988.0</ele><time>2026-04-11T12:11:12.689Z</time></trkpt><trkpt lat="38.5260232" lon="16.3203429"><ele>988.0</ele><time>2026-04-11T12:11:13.689Z</time></trkpt><trkpt lat="38.5262071" lon="16.3203763"><ele>988.0</ele><time>2026-04-11T12:11:14.689Z</time></trkpt><trkpt lat="38.5263919" lon="16.3204085"><ele>988.0</ele><time>2026-04-11T12:11:15.689Z</time></trkpt><trkpt lat="38.5265707" lon="16.3204427"><ele>988.3333333333333</ele><time>2026-04-11T12:11:16.689Z</time></trkpt><trkpt lat="38.5267501" lon="16.3204786"><ele>988.6666666666667</ele><time>2026-04-11T12:11:17.69Z</time></trkpt><trkpt lat="38.5269261" lon="16.320515"><ele>989.0</ele><time>2026-04-11T12:11:18.69Z</time></trkpt><trkpt lat="38.5270987" lon="16.3205467"><ele>989.3333333333334</ele><time>2026-04-11T12:11:19.689Z</time></trkpt><trkpt lat="38.5272739" lon="16.3205737"><ele>989.6666666666667</ele><time>2026-04-11T12:11:20.69Z</time></trkpt><trkpt lat="38.5274496" lon="16.3206051"><ele>990.0</ele><time>2026-04-11T12:11:21.689Z</time></trkpt><trkpt lat="38.5276182" lon="16.320633"><ele>990.0</ele><time>2026-04-11T12:11:22.69Z</time></trkpt><trkpt lat="38.5277886" lon="16.320666"><ele>990.0</ele><time>2026-04-11T12:11:23.689Z</time></trkpt><trkpt lat="38.5279585" lon="16.3206989"><ele>990.0</ele><time>2026-04-11T12:11:24.69Z</time></trkpt><trkpt lat="38.5281296" lon="16.3207334"><ele>991.0</ele><time>2026-04-11T12:11:25.69Z</time></trkpt><trkpt lat="38.5282986" lon="16.3207671"><ele>992.0</ele><time>2026-04-11T12:11:26.69Z</time></trkpt><trkpt lat="38.5284646" lon="16.3207993"><ele>993.0</ele><time>2026-04-11T12:11:27.689Z</time></trkpt><trkpt lat="38.5286359" lon="16.3208311"><ele>995.0</ele><time>2026-04-11T12:11:28.69Z</time></trkpt><trkpt lat="38.5288064" lon="16.320864"><ele>997.0</ele><time>2026-04-11T12:11:29.689Z</time></trkpt><trkpt lat="38.5289791" lon="16.3208985"><ele>999.0</ele><time>2026-04-11T12:11:30.689Z</time></trkpt><trkpt lat="38.5291525" lon="16.3209346"><ele>999.0</ele><time>2026-04-11T12:11:31.689Z</time></trkpt><trkpt lat="38.5293272" lon="16.3209688"><ele>999.0</ele><time>2026-04-11T12:11:32.69Z</time></trkpt><trkpt lat="38.5295035" lon="16.3209974"><ele>999.0</ele><time>2026-04-11T12:11:33.689Z</time></trkpt><trkpt lat="38.5296766" lon="16.3210264"><ele>999.0</ele><time>2026-04-11T12:11:34.689Z</time></trkpt><trkpt lat="38.529848" lon="16.3210523"><ele>999.0</ele><time>2026-04-11T12:11:35.689Z</time></trkpt><trkpt lat="38.5300082" lon="16.3210723"><ele>999.0</ele><time>2026-04-11T12:11:36.69Z</time></trkpt><trkpt lat="38.5301704" lon="16.3211001"><ele>999.0</ele><time>2026-04-11T12:11:37.69Z</time></trkpt><trkpt lat="38.5303373" lon="16.3211294"><ele>999.0</ele><time>2026-04-11T12:11:38.69Z</time></trkpt><trkpt lat="38.5305067" lon="16.3211709"><ele>999.0</ele><time>2026-04-11T12:11:39.689Z</time></trkpt><trkpt lat="38.5306828" lon="16.3212083"><ele>999.0</ele><time>2026-04-11T12:11:40.69Z</time></trkpt><trkpt lat="38.5308523" lon="16.3212434"><ele>999.0</ele><time>2026-04-11T12:11:41.689Z</time></trkpt><trkpt lat="38.5310232" lon="16.321277"><ele>999.0</ele><time>2026-04-11T12:11:42.689Z</time></trkpt><trkpt lat="38.5311852" lon="16.3213086"><ele>1000.5</ele><time>2026-04-11T12:11:43.69Z</time></trkpt><trkpt lat="38.531332" lon="16.3213386"><ele>1002.0</ele><time>2026-04-11T12:11:44.689Z</time></trkpt><trkpt lat="38.53147" lon="16.3213618"><ele>1003.5</ele><time>2026-04-11T12:11:45.69Z</time></trkpt><trkpt lat="38.531604" lon="16.3213851"><ele>1005.0</ele><time>2026-04-11T12:11:46.689Z</time></trkpt><trkpt lat="38.5317391" lon="16.3214056"><ele>1005.0</ele><time>2026-04-11T12:11:47.689Z</time></trkpt><trkpt lat="38.5318735" lon="16.3214339"><ele>1005.0</ele><time>2026-04-11T12:11:48.689Z</time></trkpt><trkpt lat="38.5320013" lon="16.3214603"><ele>1005.0</ele><time>2026-04-11T12:11:49.69Z</time></trkpt><trkpt lat="38.5321231" lon="16.3214801"><ele>1005.0</ele><time>2026-04-11T12:11:50.689Z</time></trkpt><trkpt lat="38.5322381" lon="16.3215029"><ele>1005.0</ele><time>2026-04-11T12:11:51.689Z</time></trkpt><trkpt lat="38.5323443" lon="16.3215207"><ele>1005.0</ele><time>2026-04-11T12:11:52.689Z</time></trkpt><trkpt lat="38.5324512" lon="16.321533"><ele>1005.0</ele><time>2026-04-11T12:11:53.689Z</time></trkpt><trkpt lat="38.532555" lon="16.3215318"><ele>1005.0</ele><time>2026-04-11T12:11:54.689Z</time></trkpt><trkpt lat="38.5326618" lon="16.3215021"><ele>1005.0</ele><time>2026-04-11T12:11:55.69Z</time></trkpt><trkpt lat="38.5327587" lon="16.3214473"><ele>1005.2</ele><time>2026-04-11T12:11:56.689Z</time></trkpt><trkpt lat="38.5328471" lon="16.3213804"><ele>1005.4</ele><time>2026-04-11T12:11:57.689Z</time></trkpt><trkpt lat="38.5329325" lon="16.3213005"><ele>1005.5999999999999</ele><time>2026-04-11T12:11:58.689Z</time></trkpt><trkpt lat="38.5330169" lon="16.3212114"><ele>1005.8</ele><time>2026-04-11T12:11:59.69Z</time></trkpt><trkpt lat="38.5331014" lon="16.3211086"><ele>1006.0</ele><time>2026-04-11T12:12:00.69Z</time></trkpt><trkpt lat="38.5331896" lon="16.3210022"><ele>1005.0</ele><time>2026-04-11T12:12:01.689Z</time></trkpt><trkpt lat="38.5332805" lon="16.3208901"><ele>1004.0</ele><time>2026-04-11T12:12:02.689Z</time></trkpt><trkpt lat="38.5333637" lon="16.3207787"><ele>1003.0</ele><time>2026-04-11T12:12:03.69Z</time></trkpt><trkpt lat="38.5334483" lon="16.3206639"><ele>1002.0</ele><time>2026-04-11T12:12:04.69Z</time></trkpt><trkpt lat="38.5335334" lon="16.3205446"><ele>1002.0</ele><time>2026-04-11T12:12:05.69Z</time></trkpt><trkpt lat="38.5336174" lon="16.3204205"><ele>1002.0</ele><time>2026-04-11T12:12:06.689Z</time></trkpt><trkpt lat="38.533712" lon="16.3202909"><ele>1002.0</ele><time>2026-04-11T12:12:07.689Z</time></trkpt><trkpt lat="38.5338089" lon="16.3201539"><ele>1002.0</ele><time>2026-04-11T12:12:08.689Z</time></trkpt><trkpt lat="38.5339089" lon="16.3200174"><ele>1002.0</ele><time>2026-04-11T12:12:09.689Z</time></trkpt><trkpt lat="38.5340098" lon="16.3198789"><ele>1002.0</ele><time>2026-04-11T12:12:10.689Z</time></trkpt><trkpt lat="38.534109" lon="16.3197438"><ele>1002.0</ele><time>2026-04-11T12:12:11.689Z</time></trkpt><trkpt lat="38.5342059" lon="16.3196089"><ele>1002.0</ele><time>2026-04-11T12:12:12.689Z</time></trkpt><trkpt lat="38.5343011" lon="16.3194781"><ele>1002.0</ele><time>2026-04-11T12:12:13.689Z</time></trkpt><trkpt lat="38.5343947" lon="16.3193555"><ele>1002.0</ele><time>2026-04-11T12:12:14.69Z</time></trkpt><trkpt lat="38.5344897" lon="16.3192304"><ele>1002.0</ele><time>2026-04-11T12:12:15.69Z</time></trkpt><trkpt lat="38.5345956" lon="16.3191061"><ele>1002.0</ele><time>2026-04-11T12:12:16.689Z</time></trkpt><trkpt lat="38.5347085" lon="16.3189883"><ele>1003.0</ele><time>2026-04-11T12:12:17.69Z</time></trkpt><trkpt lat="38.5348296" lon="16.3188839"><ele>1004.0</ele><time>2026-04-11T12:12:18.69Z</time></trkpt><trkpt lat="38.5349528" lon="16.318782"><ele>1005.0</ele><time>2026-04-11T12:12:19.69Z</time></trkpt><trkpt lat="38.5350772" lon="16.3186936"><ele>1006.0</ele><time>2026-04-11T12:12:20.69Z</time></trkpt><trkpt lat="38.5351948" lon="16.3186001"><ele>1006.0</ele><time>2026-04-11T12:12:21.689Z</time></trkpt><trkpt lat="38.5353174" lon="16.3185036"><ele>1006.0</ele><time>2026-04-11T12:12:22.689Z</time></trkpt><trkpt lat="38.5354415" lon="16.318409"><ele>1006.0</ele><time>2026-04-11T12:12:23.69Z</time></trkpt><trkpt lat="38.5355626" lon="16.3183193"><ele>1006.0</ele><time>2026-04-11T12:12:24.69Z</time></trkpt><trkpt lat="38.5356753" lon="16.3182506"><ele>1007.0</ele><time>2026-04-11T12:12:25.69Z</time></trkpt><trkpt lat="38.5357872" lon="16.3182263"><ele>1008.0</ele><time>2026-04-11T12:12:26.69Z</time></trkpt><trkpt lat="38.5359113" lon="16.3182491"><ele>1009.0</ele><time>2026-04-11T12:12:27.69Z</time></trkpt><trkpt lat="38.5360415" lon="16.3182994"><ele>1010.0</ele><time>2026-04-11T12:12:28.69Z</time></trkpt><trkpt lat="38.5361641" lon="16.3183434"><ele>1011.0</ele><time>2026-04-11T12:12:29.689Z</time></trkpt><trkpt lat="38.5362777" lon="16.318367"><ele>1012.0</ele><time>2026-04-11T12:12:30.69Z</time></trkpt><trkpt lat="38.5363871" lon="16.3183602"><ele>1013.0</ele><time>2026-04-11T12:12:31.689Z</time></trkpt><trkpt lat="38.5364798" lon="16.3183139"><ele>1014.0</ele><time>2026-04-11T12:12:32.689Z</time></trkpt><trkpt lat="38.5365516" lon="16.3182252"><ele>1015.0</ele><time>2026-04-11T12:12:33.689Z</time></trkpt><trkpt lat="38.5365928" lon="16.3180897"><ele>1014.25</ele><time>2026-04-11T12:12:34.689Z</time></trkpt><trkpt lat="38.5366115" lon="16.3179402"><ele>1013.5</ele><time>2026-04-11T12:12:35.689Z</time></trkpt><trkpt lat="38.5366344" lon="16.3177966"><ele>1012.75</ele><time>2026-04-11T12:12:36.689Z</time></trkpt><trkpt lat="38.5366741" lon="16.3176554"><ele>1012.0</ele><time>2026-04-11T12:12:37.689Z</time></trkpt><trkpt lat="38.5367506" lon="16.3175378"><ele>1012.0</ele><time>2026-04-11T12:12:38.689Z</time></trkpt><trkpt lat="38.5368523" lon="16.317456"><ele>1012.0</ele><time>2026-04-11T12:12:39.689Z</time></trkpt><trkpt lat="38.5369595" lon="16.3173907"><ele>1012.0</ele><time>2026-04-11T12:12:40.689Z</time></trkpt><trkpt lat="38.5370631" lon="16.3173237"><ele>1012.0</ele><time>2026-04-11T12:12:41.689Z</time></trkpt><trkpt lat="38.5371517" lon="16.3172478"><ele>1013.0</ele><time>2026-04-11T12:12:42.689Z</time></trkpt><trkpt lat="38.5372367" lon="16.317163"><ele>1014.0</ele><time>2026-04-11T12:12:43.69Z</time></trkpt><trkpt lat="38.5373204" lon="16.3170599"><ele>1015.0</ele><time>2026-04-11T12:12:44.69Z</time></trkpt><trkpt lat="38.5373944" lon="16.3169452"><ele>1016.0</ele><time>2026-04-11T12:12:45.69Z</time></trkpt><trkpt lat="38.5374608" lon="16.3168339"><ele>1016.0</ele><time>2026-04-11T12:12:46.689Z</time></trkpt><trkpt lat="38.5375218" lon="16.3167233"><ele>1016.0</ele><time>2026-04-11T12:12:47.689Z</time></trkpt><trkpt lat="38.5375998" lon="16.316619"><ele>1016.0</ele><time>2026-04-11T12:12:48.689Z</time></trkpt><trkpt lat="38.5376924" lon="16.3165402"><ele>1016.0</ele><time>2026-04-11T12:12:49.689Z</time></trkpt><trkpt lat="38.5378055" lon="16.3164825"><ele>1018.25</ele><time>2026-04-11T12:12:50.69Z</time></trkpt><trkpt lat="38.5379217" lon="16.3164351"><ele>1020.5</ele><time>2026-04-11T12:12:51.689Z</time></trkpt><trkpt lat="38.5380404" lon="16.3163926"><ele>1022.75</ele><time>2026-04-11T12:12:52.689Z</time></trkpt><trkpt lat="38.538159" lon="16.3163441"><ele>1025.0</ele><time>2026-04-11T12:12:53.69Z</time></trkpt><trkpt lat="38.5382847" lon="16.3162991"><ele>1025.75</ele><time>2026-04-11T12:12:54.689Z</time></trkpt><trkpt lat="38.5384111" lon="16.3162509"><ele>1026.5</ele><time>2026-04-11T12:12:55.69Z</time></trkpt><trkpt lat="38.5385384" lon="16.3162054"><ele>1027.25</ele><time>2026-04-11T12:12:56.69Z</time></trkpt><trkpt lat="38.5386631" lon="16.3161542"><ele>1028.0</ele><time>2026-04-11T12:12:57.689Z</time></trkpt><trkpt lat="38.5387865" lon="16.3161012"><ele>1028.25</ele><time>2026-04-11T12:12:58.689Z</time></trkpt><trkpt lat="38.5389046" lon="16.316055"><ele>1028.5</ele><time>2026-04-11T12:12:59.689Z</time></trkpt><trkpt lat="38.5390139" lon="16.316013"><ele>1028.75</ele><time>2026-04-11T12:13:00.689Z</time></trkpt><trkpt lat="38.5391241" lon="16.3159605"><ele>1029.0</ele><time>2026-04-11T12:13:01.69Z</time></trkpt><trkpt lat="38.5392255" lon="16.3159215"><ele>1029.0</ele><time>2026-04-11T12:13:02.689Z</time></trkpt><trkpt lat="38.5393273" lon="16.3158892"><ele>1029.0</ele><time>2026-04-11T12:13:03.689Z</time></trkpt><trkpt lat="38.5394258" lon="16.3158487"><ele>1029.0</ele><time>2026-04-11T12:13:04.689Z</time></trkpt><trkpt lat="38.5395261" lon="16.3158037"><ele>1029.0</ele><time>2026-04-11T12:13:05.69Z</time></trkpt><trkpt lat="38.5396204" lon="16.3157619"><ele>1029.0</ele><time>2026-04-11T12:13:06.69Z</time></trkpt><trkpt lat="38.5397132" lon="16.3157307"><ele>1029.3333333333333</ele><time>2026-04-11T12:13:07.689Z</time></trkpt><trkpt lat="38.5397992" lon="16.3156999"><ele>1029.6666666666667</ele><time>2026-04-11T12:13:08.689Z</time></trkpt><trkpt lat="38.5398873" lon="16.3156722"><ele>1030.0</ele><time>2026-04-11T12:13:09.689Z</time></trkpt><trkpt lat="38.5399723" lon="16.3156543"><ele>1030.3333333333335</ele><time>2026-04-11T12:13:10.69Z</time></trkpt><trkpt lat="38.5400494" lon="16.3156486"><ele>1030.6666666666667</ele><time>2026-04-11T12:13:11.689Z</time></trkpt><trkpt lat="38.5401243" lon="16.3156611"><ele>1031.0</ele><time>2026-04-11T12:13:12.689Z</time></trkpt><trkpt lat="38.5402033" lon="16.3157"><ele>1031.0</ele><time>2026-04-11T12:13:13.689Z</time></trkpt><trkpt lat="38.5402709" lon="16.3157661"><ele>1031.0</ele><time>2026-04-11T12:13:14.689Z</time></trkpt><trkpt lat="38.5403367" lon="16.3158344"><ele>1031.0</ele><time>2026-04-11T12:13:15.689Z</time></trkpt><trkpt lat="38.5404117" lon="16.3158948"><ele>1031.0</ele><time>2026-04-11T12:13:16.688Z</time></trkpt><trkpt lat="38.540503" lon="16.3159357"><ele>1031.0</ele><time>2026-04-11T12:13:17.688Z</time></trkpt><trkpt lat="38.5406089" lon="16.3159463"><ele>1029.75</ele><time>2026-04-11T12:13:18.688Z</time></trkpt><trkpt lat="38.5407265" lon="16.3159382"><ele>1028.5</ele><time>2026-04-11T12:13:19.688Z</time></trkpt><trkpt lat="38.5408607" lon="16.3158911"><ele>1027.25</ele><time>2026-04-11T12:13:20.688Z</time></trkpt><trkpt lat="38.540998" lon="16.3158281"><ele>1026.0</ele><time>2026-04-11T12:13:21.689Z</time></trkpt><trkpt lat="38.5411473" lon="16.3157784"><ele>1025.0</ele><time>2026-04-11T12:13:22.689Z</time></trkpt><trkpt lat="38.5413123" lon="16.3157372"><ele>1024.0</ele><time>2026-04-11T12:13:23.689Z</time></trkpt><trkpt lat="38.5414832" lon="16.3157025"><ele>1023.0</ele><time>2026-04-11T12:13:24.688Z</time></trkpt><trkpt lat="38.5416471" lon="16.3156607"><ele>1023.0</ele><time>2026-04-11T12:13:25.689Z</time></trkpt><trkpt lat="38.5417851" lon="16.315632"><ele>1023.0</ele><time>2026-04-11T12:13:26.688Z</time></trkpt><trkpt lat="38.5419168" lon="16.315598"><ele>1023.0</ele><time>2026-04-11T12:13:27.689Z</time></trkpt><trkpt lat="38.5420539" lon="16.3155609"><ele>1023.0</ele><time>2026-04-11T12:13:28.689Z</time></trkpt><trkpt lat="38.5421865" lon="16.3155297"><ele>1019.5</ele><time>2026-04-11T12:13:29.688Z</time></trkpt><trkpt lat="38.5423184" lon="16.3155129"><ele>1016.0</ele><time>2026-04-11T12:13:30.689Z</time></trkpt><trkpt lat="38.5424551" lon="16.3155027"><ele>1012.5</ele><time>2026-04-11T12:13:31.689Z</time></trkpt><trkpt lat="38.5425916" lon="16.3155124"><ele>1009.0</ele><time>2026-04-11T12:13:32.689Z</time></trkpt><trkpt lat="38.5427169" lon="16.3155457"><ele>1009.75</ele><time>2026-04-11T12:13:33.689Z</time></trkpt><trkpt lat="38.5428359" lon="16.3155956"><ele>1010.5</ele><time>2026-04-11T12:13:34.689Z</time></trkpt><trkpt lat="38.5429405" lon="16.3156663"><ele>1011.25</ele><time>2026-04-11T12:13:35.688Z</time></trkpt><trkpt lat="38.5430251" lon="16.3157796"><ele>1012.0</ele><time>2026-04-11T12:13:36.688Z</time></trkpt><trkpt lat="38.5431014" lon="16.3159012"><ele>1012.0</ele><time>2026-04-11T12:13:37.688Z</time></trkpt><trkpt lat="38.5431709" lon="16.3160557"><ele>1012.0</ele><time>2026-04-11T12:13:38.688Z</time></trkpt><trkpt lat="38.5432372" lon="16.3162157"><ele>1012.0</ele><time>2026-04-11T12:13:39.689Z</time></trkpt><trkpt lat="38.5433066" lon="16.3163697"><ele>1012.0</ele><time>2026-04-11T12:13:40.689Z</time></trkpt><trkpt lat="38.543385" lon="16.316502"><ele>1012.75</ele><time>2026-04-11T12:13:41.688Z</time></trkpt><trkpt lat="38.5434791" lon="16.3166166"><ele>1013.5</ele><time>2026-04-11T12:13:42.688Z</time></trkpt><trkpt lat="38.5435963" lon="16.3167008"><ele>1014.25</ele><time>2026-04-11T12:13:43.688Z</time></trkpt><trkpt lat="38.5437222" lon="16.3167693"><ele>1015.0</ele><time>2026-04-11T12:13:44.688Z</time></trkpt><trkpt lat="38.5438494" lon="16.3168297"><ele>1013.0</ele><time>2026-04-11T12:13:45.688Z</time></trkpt><trkpt lat="38.5439797" lon="16.3169074"><ele>1011.0</ele><time>2026-04-11T12:13:46.688Z</time></trkpt><trkpt lat="38.5440961" lon="16.3170032"><ele>1009.0</ele><time>2026-04-11T12:13:47.689Z</time></trkpt><trkpt lat="38.5441998" lon="16.3171036"><ele>1007.0</ele><time>2026-04-11T12:13:48.688Z</time></trkpt><trkpt lat="38.5442806" lon="16.317205"><ele>1006.75</ele><time>2026-04-11T12:13:49.688Z</time></trkpt><trkpt lat="38.5443458" lon="16.3173252"><ele>1006.5</ele><time>2026-04-11T12:13:50.688Z</time></trkpt><trkpt lat="38.5443945" lon="16.31745"><ele>1006.25</ele><time>2026-04-11T12:13:51.688Z</time></trkpt><trkpt lat="38.5444282" lon="16.3175926"><ele>1006.0</ele><time>2026-04-11T12:13:52.688Z</time></trkpt><trkpt lat="38.5444596" lon="16.3177334"><ele>1006.0</ele><time>2026-04-11T12:13:53.688Z</time></trkpt><trkpt lat="38.5444736" lon="16.3178549"><ele>1005.9999999999999</ele><time>2026-04-11T12:13:54.688Z</time></trkpt><trkpt lat="38.5444642" lon="16.3179699"><ele>1005.9999999999999</ele><time>2026-04-11T12:13:55.688Z</time></trkpt><trkpt lat="38.5444364" lon="16.3180461"><ele>1006.0</ele><time>2026-04-11T12:13:56.688Z</time></trkpt><trkpt lat="38.5443194" lon="16.3180828"><ele>1006.0</ele><time>2026-04-11T12:13:58.688Z</time></trkpt><trkpt lat="38.5442167" lon="16.3180478"><ele>1006.0</ele><time>2026-04-11T12:13:59.688Z</time></trkpt><trkpt lat="38.5440872" lon="16.3179991"><ele>1006.0</ele><time>2026-04-11T12:14:00.689Z</time></trkpt><trkpt lat="38.5439453" lon="16.3179471"><ele>1006.0</ele><time>2026-04-11T12:14:01.688Z</time></trkpt><trkpt lat="38.5438074" lon="16.3179123"><ele>1006.0</ele><time>2026-04-11T12:14:02.688Z</time></trkpt><trkpt lat="38.5436947" lon="16.3178849"><ele>1005.9999999999999</ele><time>2026-04-11T12:14:03.688Z</time></trkpt><trkpt lat="38.5435966" lon="16.3178692"><ele>1006.0</ele><time>2026-04-11T12:14:04.689Z</time></trkpt><trkpt lat="38.5435174" lon="16.3178634"><ele>1006.0</ele><time>2026-04-11T12:14:05.688Z</time></trkpt><trkpt lat="38.543429" lon="16.3179152"><ele>1006.0</ele><time>2026-04-11T12:14:07.688Z</time></trkpt><trkpt lat="38.5434365" lon="16.3180343"><ele>1005.9999999999999</ele><time>2026-04-11T12:14:09.688Z</time></trkpt><trkpt lat="38.5434763" lon="16.3180984"><ele>1006.0</ele><time>2026-04-11T12:14:10.688Z</time></trkpt><trkpt lat="38.5435319" lon="16.3181699"><ele>1006.0</ele><time>2026-04-11T12:14:11.689Z</time></trkpt><trkpt lat="38.5435976" lon="16.3182534"><ele>1005.9999999999999</ele><time>2026-04-11T12:14:12.689Z</time></trkpt><trkpt lat="38.5436691" lon="16.3183436"><ele>1005.9999999999999</ele><time>2026-04-11T12:14:13.689Z</time></trkpt><trkpt lat="38.543752" lon="16.3184325"><ele>1006.0</ele><time>2026-04-11T12:14:14.688Z</time></trkpt><trkpt lat="38.5438336" lon="16.3185239"><ele>1006.0</ele><time>2026-04-11T12:14:15.688Z</time></trkpt><trkpt lat="38.5439206" lon="16.3186121"><ele>1004.0</ele><time>2026-04-11T12:14:16.689Z</time></trkpt><trkpt lat="38.5440204" lon="16.3186879"><ele>1002.0</ele><time>2026-04-11T12:14:17.688Z</time></trkpt><trkpt lat="38.5441429" lon="16.3187728"><ele>1000.0</ele><time>2026-04-11T12:14:18.689Z</time></trkpt><trkpt lat="38.5442655" lon="16.3188334"><ele>998.0</ele><time>2026-04-11T12:14:19.689Z</time></trkpt><trkpt lat="38.5444009" lon="16.318881"><ele>999.3333333333334</ele><time>2026-04-11T12:14:20.689Z</time></trkpt><trkpt lat="38.5445413" lon="16.3189177"><ele>1000.6666666666667</ele><time>2026-04-11T12:14:21.689Z</time></trkpt><trkpt lat="38.5446987" lon="16.3189385"><ele>1002.0</ele><time>2026-04-11T12:14:22.688Z</time></trkpt><trkpt lat="38.5448557" lon="16.3189531"><ele>998.5</ele><time>2026-04-11T12:14:23.688Z</time></trkpt><trkpt lat="38.5450039" lon="16.3189709"><ele>995.0</ele><time>2026-04-11T12:14:24.688Z</time></trkpt><trkpt lat="38.5451357" lon="16.3189999"><ele>991.5</ele><time>2026-04-11T12:14:25.688Z</time></trkpt><trkpt lat="38.5452557" lon="16.3190365"><ele>988.0</ele><time>2026-04-11T12:14:26.688Z</time></trkpt><trkpt lat="38.5453727" lon="16.3191004"><ele>986.0</ele><time>2026-04-11T12:14:27.688Z</time></trkpt><trkpt lat="38.5454756" lon="16.3191962"><ele>984.0</ele><time>2026-04-11T12:14:28.688Z</time></trkpt><trkpt lat="38.5455815" lon="16.3193085"><ele>982.0</ele><time>2026-04-11T12:14:29.688Z</time></trkpt><trkpt lat="38.5456836" lon="16.3194243"><ele>980.0</ele><time>2026-04-11T12:14:30.688Z</time></trkpt><trkpt lat="38.5457637" lon="16.3195441"><ele>980.0</ele><time>2026-04-11T12:14:31.688Z</time></trkpt><trkpt lat="38.5458367" lon="16.3196723"><ele>980.0</ele><time>2026-04-11T12:14:32.688Z</time></trkpt><trkpt lat="38.5458926" lon="16.3198109"><ele>980.0</ele><time>2026-04-11T12:14:33.689Z</time></trkpt><trkpt lat="38.5459224" lon="16.3199758"><ele>980.0</ele><time>2026-04-11T12:14:34.688Z</time></trkpt><trkpt lat="38.5459282" lon="16.3201391"><ele>979.75</ele><time>2026-04-11T12:14:35.689Z</time></trkpt><trkpt lat="38.5459479" lon="16.3202885"><ele>979.5</ele><time>2026-04-11T12:14:36.688Z</time></trkpt><trkpt lat="38.5459914" lon="16.3204249"><ele>979.25</ele><time>2026-04-11T12:14:37.688Z</time></trkpt><trkpt lat="38.5460576" lon="16.320549"><ele>979.0</ele><time>2026-04-11T12:14:38.688Z</time></trkpt><trkpt lat="38.5461342" lon="16.3206632"><ele>975.25</ele><time>2026-04-11T12:14:39.688Z</time></trkpt><trkpt lat="38.5462264" lon="16.3207737"><ele>971.5</ele><time>2026-04-11T12:14:40.688Z</time></trkpt><trkpt lat="38.5463326" lon="16.3208693"><ele>967.75</ele><time>2026-04-11T12:14:41.688Z</time></trkpt><trkpt lat="38.546453" lon="16.3209313"><ele>964.0</ele><time>2026-04-11T12:14:42.688Z</time></trkpt><trkpt lat="38.5465794" lon="16.320983"><ele>964.0</ele><time>2026-04-11T12:14:43.688Z</time></trkpt><trkpt lat="38.5466903" lon="16.3210297"><ele>964.0000000000001</ele><time>2026-04-11T12:14:44.689Z</time></trkpt><trkpt lat="38.5467886" lon="16.3210611"><ele>964.0000000000001</ele><time>2026-04-11T12:14:45.689Z</time></trkpt><trkpt lat="38.5468762" lon="16.321063"><ele>964.0</ele><time>2026-04-11T12:14:46.688Z</time></trkpt><trkpt lat="38.5469624" lon="16.3210366"><ele>964.0</ele><time>2026-04-11T12:14:47.688Z</time></trkpt><trkpt lat="38.5470419" lon="16.3209975"><ele>963.4000000000001</ele><time>2026-04-11T12:14:48.689Z</time></trkpt><trkpt lat="38.5471059" lon="16.3209284"><ele>962.8000000000001</ele><time>2026-04-11T12:14:49.688Z</time></trkpt><trkpt lat="38.5471581" lon="16.3208358"><ele>962.1999999999999</ele><time>2026-04-11T12:14:50.689Z</time></trkpt><trkpt lat="38.5472051" lon="16.3207107"><ele>961.5999999999999</ele><time>2026-04-11T12:14:51.688Z</time></trkpt><trkpt lat="38.5472448" lon="16.3205694"><ele>961.0</ele><time>2026-04-11T12:14:52.688Z</time></trkpt><trkpt lat="38.547278" lon="16.3204101"><ele>960.4</ele><time>2026-04-11T12:14:53.688Z</time></trkpt><trkpt lat="38.5472972" lon="16.3202655"><ele>959.8</ele><time>2026-04-11T12:14:54.688Z</time></trkpt><trkpt lat="38.5472979" lon="16.3201242"><ele>959.1999999999999</ele><time>2026-04-11T12:14:55.689Z</time></trkpt><trkpt lat="38.5472702" lon="16.3199882"><ele>958.5999999999999</ele><time>2026-04-11T12:14:56.688Z</time></trkpt><trkpt lat="38.5472227" lon="16.3198598"><ele>958.0</ele><time>2026-04-11T12:14:57.689Z</time></trkpt><trkpt lat="38.5471533" lon="16.3197405"><ele>957.5999999999999</ele><time>2026-04-11T12:14:58.689Z</time></trkpt><trkpt lat="38.5470716" lon="16.3196356"><ele>957.1999999999999</ele><time>2026-04-11T12:14:59.688Z</time></trkpt><trkpt lat="38.5469776" lon="16.3195529"><ele>956.8</ele><time>2026-04-11T12:15:00.688Z</time></trkpt><trkpt lat="38.5468814" lon="16.3194745"><ele>956.4</ele><time>2026-04-11T12:15:01.688Z</time></trkpt><trkpt lat="38.5468004" lon="16.319401"><ele>956.0</ele><time>2026-04-11T12:15:02.688Z</time></trkpt><trkpt lat="38.5467307" lon="16.3193171"><ele>958.8</ele><time>2026-04-11T12:15:03.688Z</time></trkpt><trkpt lat="38.5466848" lon="16.3192388"><ele>961.5999999999999</ele><time>2026-04-11T12:15:04.689Z</time></trkpt><trkpt lat="38.5466828" lon="16.3190969"><ele>964.4</ele><time>2026-04-11T12:15:06.688Z</time></trkpt><trkpt lat="38.5467418" lon="16.3190488"><ele>967.2</ele><time>2026-04-11T12:15:07.688Z</time></trkpt><trkpt lat="38.5468294" lon="16.3190117"><ele>970.0</ele><time>2026-04-11T12:15:08.689Z</time></trkpt><trkpt lat="38.5469489" lon="16.3189785"><ele>966.3333333333333</ele><time>2026-04-11T12:15:09.688Z</time></trkpt><trkpt lat="38.5471011" lon="16.3189271"><ele>962.6666666666667</ele><time>2026-04-11T12:15:10.688Z</time></trkpt><trkpt lat="38.5472681" lon="16.3188715"><ele>959.0</ele><time>2026-04-11T12:15:11.689Z</time></trkpt><trkpt lat="38.5474407" lon="16.3188221"><ele>959.0</ele><time>2026-04-11T12:15:12.689Z</time></trkpt><trkpt lat="38.5476329" lon="16.3187846"><ele>959.0</ele><time>2026-04-11T12:15:13.689Z</time></trkpt><trkpt lat="38.5478204" lon="16.3187663"><ele>959.0</ele><time>2026-04-11T12:15:14.689Z</time></trkpt><trkpt lat="38.5480005" lon="16.3187515"><ele>957.3333333333334</ele><time>2026-04-11T12:15:15.688Z</time></trkpt><trkpt lat="38.54817" lon="16.3187315"><ele>955.6666666666667</ele><time>2026-04-11T12:15:16.688Z</time></trkpt><trkpt lat="38.5483363" lon="16.318706"><ele>954.0</ele><time>2026-04-11T12:15:17.688Z</time></trkpt><trkpt lat="38.5485071" lon="16.3186779"><ele>954.0</ele><time>2026-04-11T12:15:18.689Z</time></trkpt><trkpt lat="38.5486673" lon="16.3186483"><ele>954.0</ele><time>2026-04-11T12:15:19.689Z</time></trkpt><trkpt lat="38.5488321" lon="16.3186254"><ele>954.0</ele><time>2026-04-11T12:15:20.689Z</time></trkpt><trkpt lat="38.5489908" lon="16.3186044"><ele>952.5</ele><time>2026-04-11T12:15:21.689Z</time></trkpt><trkpt lat="38.5491469" lon="16.3185846"><ele>951.0</ele><time>2026-04-11T12:15:22.688Z</time></trkpt><trkpt lat="38.5493007" lon="16.3185696"><ele>949.5</ele><time>2026-04-11T12:15:23.688Z</time></trkpt><trkpt lat="38.5494354" lon="16.3185538"><ele>948.0</ele><time>2026-04-11T12:15:24.688Z</time></trkpt><trkpt lat="38.5495478" lon="16.3185516"><ele>946.0</ele><time>2026-04-11T12:15:25.688Z</time></trkpt><trkpt lat="38.5496617" lon="16.3185767"><ele>944.0</ele><time>2026-04-11T12:15:26.688Z</time></trkpt><trkpt lat="38.5497692" lon="16.3186236"><ele>942.0</ele><time>2026-04-11T12:15:27.688Z</time></trkpt><trkpt lat="38.5498673" lon="16.3187153"><ele>940.0</ele><time>2026-04-11T12:15:28.689Z</time></trkpt><trkpt lat="38.5499611" lon="16.3188348"><ele>940.25</ele><time>2026-04-11T12:15:29.688Z</time></trkpt><trkpt lat="38.5500573" lon="16.3189679"><ele>940.5</ele><time>2026-04-11T12:15:30.689Z</time></trkpt><trkpt lat="38.5501574" lon="16.3191069"><ele>940.75</ele><time>2026-04-11T12:15:31.688Z</time></trkpt><trkpt lat="38.5502451" lon="16.31923"><ele>941.0</ele><time>2026-04-11T12:15:32.688Z</time></trkpt><trkpt lat="38.5503212" lon="16.3193396"><ele>941.0000000000001</ele><time>2026-04-11T12:15:33.689Z</time></trkpt><trkpt lat="38.5503648" lon="16.3194378"><ele>941.0</ele><time>2026-04-11T12:15:34.688Z</time></trkpt><trkpt lat="38.5503851" lon="16.3195323"><ele>941.0</ele><time>2026-04-11T12:15:35.688Z</time></trkpt><trkpt lat="38.5503706" lon="16.3196134"><ele>941.0</ele><time>2026-04-11T12:15:36.689Z</time></trkpt><trkpt lat="38.5503297" lon="16.3196815"><ele>941.0000000000001</ele><time>2026-04-11T12:15:37.688Z</time></trkpt><trkpt lat="38.5502596" lon="16.3197282"><ele>941.0</ele><time>2026-04-11T12:15:38.688Z</time></trkpt><trkpt lat="38.5501583" lon="16.3197604"><ele>939.0</ele><time>2026-04-11T12:15:39.688Z</time></trkpt><trkpt lat="38.5500297" lon="16.319787"><ele>937.0</ele><time>2026-04-11T12:15:40.688Z</time></trkpt><trkpt lat="38.5499058" lon="16.3198215"><ele>935.0</ele><time>2026-04-11T12:15:41.689Z</time></trkpt><trkpt lat="38.5497923" lon="16.319867"><ele>933.0</ele><time>2026-04-11T12:15:42.688Z</time></trkpt><trkpt lat="38.5497074" lon="16.319944"><ele>933.0</ele><time>2026-04-11T12:15:43.689Z</time></trkpt><trkpt lat="38.5496356" lon="16.3200477"><ele>933.0</ele><time>2026-04-11T12:15:44.689Z</time></trkpt><trkpt lat="38.5496112" lon="16.320188"><ele>933.0</ele><time>2026-04-11T12:15:45.689Z</time></trkpt><trkpt lat="38.549634" lon="16.3203359"><ele>933.0</ele><time>2026-04-11T12:15:46.688Z</time></trkpt><trkpt lat="38.5496801" lon="16.3204772"><ele>930.0</ele><time>2026-04-11T12:15:47.688Z</time></trkpt><trkpt lat="38.5497434" lon="16.3206302"><ele>927.0</ele><time>2026-04-11T12:15:48.688Z</time></trkpt><trkpt lat="38.5498073" lon="16.3207879"><ele>924.0</ele><time>2026-04-11T12:15:49.689Z</time></trkpt><trkpt lat="38.5498778" lon="16.3209391"><ele>921.0</ele><time>2026-04-11T12:15:50.689Z</time></trkpt><trkpt lat="38.5499523" lon="16.3210836"><ele>921.0</ele><time>2026-04-11T12:15:51.689Z</time></trkpt><trkpt lat="38.5500358" lon="16.3212047"><ele>921.0</ele><time>2026-04-11T12:15:52.689Z</time></trkpt><trkpt lat="38.550141" lon="16.3213022"><ele>921.0</ele><time>2026-04-11T12:15:53.688Z</time></trkpt><trkpt lat="38.5502585" lon="16.3213922"><ele>921.0</ele><time>2026-04-11T12:15:54.688Z</time></trkpt><trkpt lat="38.5503898" lon="16.3214841"><ele>918.5</ele><time>2026-04-11T12:15:55.688Z</time></trkpt><trkpt lat="38.55051" lon="16.3215915"><ele>916.0</ele><time>2026-04-11T12:15:56.689Z</time></trkpt><trkpt lat="38.5506196" lon="16.3217104"><ele>913.5</ele><time>2026-04-11T12:15:57.688Z</time></trkpt><trkpt lat="38.5507183" lon="16.3218353"><ele>911.0</ele><time>2026-04-11T12:15:58.688Z</time></trkpt><trkpt lat="38.5508247" lon="16.321951"><ele>911.0</ele><time>2026-04-11T12:15:59.688Z</time></trkpt><trkpt lat="38.5509399" lon="16.32205"><ele>911.0</ele><time>2026-04-11T12:16:00.688Z</time></trkpt><trkpt lat="38.5510597" lon="16.3221359"><ele>911.0</ele><time>2026-04-11T12:16:01.688Z</time></trkpt><trkpt lat="38.5511844" lon="16.322203"><ele>911.0</ele><time>2026-04-11T12:16:02.688Z</time></trkpt><trkpt lat="38.5513089" lon="16.322255"><ele>910.5</ele><time>2026-04-11T12:16:03.688Z</time></trkpt><trkpt lat="38.5514316" lon="16.3222739"><ele>910.0</ele><time>2026-04-11T12:16:04.688Z</time></trkpt><trkpt lat="38.5515523" lon="16.3222546"><ele>909.5</ele><time>2026-04-11T12:16:05.688Z</time></trkpt><trkpt lat="38.5516692" lon="16.3222312"><ele>909.0</ele><time>2026-04-11T12:16:06.688Z</time></trkpt><trkpt lat="38.5517789" lon="16.322212"><ele>909.0</ele><time>2026-04-11T12:16:07.689Z</time></trkpt><trkpt lat="38.551888" lon="16.322219"><ele>909.0000000000001</ele><time>2026-04-11T12:16:08.688Z</time></trkpt><trkpt lat="38.551996" lon="16.3222578"><ele>909.0000000000001</ele><time>2026-04-11T12:16:09.688Z</time></trkpt><trkpt lat="38.5520906" lon="16.322329"><ele>909.0</ele><time>2026-04-11T12:16:10.689Z</time></trkpt><trkpt lat="38.5521584" lon="16.3224413"><ele>909.0</ele><time>2026-04-11T12:16:11.688Z</time></trkpt><trkpt lat="38.552207" lon="16.322595"><ele>906.75</ele><time>2026-04-11T12:16:12.689Z</time></trkpt><trkpt lat="38.5522569" lon="16.3227494"><ele>904.5</ele><time>2026-04-11T12:16:13.688Z</time></trkpt><trkpt lat="38.5523185" lon="16.3228844"><ele>902.25</ele><time>2026-04-11T12:16:14.688Z</time></trkpt><trkpt lat="38.5523932" lon="16.3229911"><ele>900.0</ele><time>2026-04-11T12:16:15.688Z</time></trkpt><trkpt lat="38.5524795" lon="16.3230521"><ele>900.0</ele><time>2026-04-11T12:16:16.689Z</time></trkpt><trkpt lat="38.5525793" lon="16.3230757"><ele>900.0</ele><time>2026-04-11T12:16:17.688Z</time></trkpt><trkpt lat="38.5526852" lon="16.3230683"><ele>900.0</ele><time>2026-04-11T12:16:18.689Z</time></trkpt><trkpt lat="38.5528073" lon="16.3230005"><ele>900.0</ele><time>2026-04-11T12:16:19.688Z</time></trkpt><trkpt lat="38.552932" lon="16.3229342"><ele>898.25</ele><time>2026-04-11T12:16:20.688Z</time></trkpt><trkpt lat="38.5530612" lon="16.3228961"><ele>896.5</ele><time>2026-04-11T12:16:21.688Z</time></trkpt><trkpt lat="38.5531955" lon="16.3228897"><ele>894.75</ele><time>2026-04-11T12:16:22.689Z</time></trkpt><trkpt lat="38.5533251" lon="16.3229309"><ele>893.0</ele><time>2026-04-11T12:16:23.688Z</time></trkpt><trkpt lat="38.5534443" lon="16.3229972"><ele>891.25</ele><time>2026-04-11T12:16:24.689Z</time></trkpt><trkpt lat="38.5535608" lon="16.3230828"><ele>889.5</ele><time>2026-04-11T12:16:25.688Z</time></trkpt><trkpt lat="38.5536679" lon="16.3231797"><ele>887.75</ele><time>2026-04-11T12:16:26.688Z</time></trkpt><trkpt lat="38.553762" lon="16.3232914"><ele>886.0</ele><time>2026-04-11T12:16:27.689Z</time></trkpt><trkpt lat="38.5538522" lon="16.3234221"><ele>886.0</ele><time>2026-04-11T12:16:28.689Z</time></trkpt><trkpt lat="38.5539464" lon="16.323583"><ele>886.0</ele><time>2026-04-11T12:16:29.688Z</time></trkpt><trkpt lat="38.5540312" lon="16.3237609"><ele>886.0</ele><time>2026-04-11T12:16:30.689Z</time></trkpt><trkpt lat="38.5541114" lon="16.3239517"><ele>883.6666666666666</ele><time>2026-04-11T12:16:31.688Z</time></trkpt><trkpt lat="38.5541911" lon="16.3241502"><ele>881.3333333333333</ele><time>2026-04-11T12:16:32.688Z</time></trkpt><trkpt lat="38.5542862" lon="16.3243552"><ele>879.0</ele><time>2026-04-11T12:16:33.689Z</time></trkpt><trkpt lat="38.5543711" lon="16.3245605"><ele>877.6666666666667</ele><time>2026-04-11T12:16:34.688Z</time></trkpt><trkpt lat="38.5544654" lon="16.3247628"><ele>876.3333333333334</ele><time>2026-04-11T12:16:35.688Z</time></trkpt><trkpt lat="38.5545638" lon="16.3249614"><ele>875.0</ele><time>2026-04-11T12:16:36.688Z</time></trkpt><trkpt lat="38.5546592" lon="16.3251558"><ele>875.0</ele><time>2026-04-11T12:16:37.689Z</time></trkpt><trkpt lat="38.5547529" lon="16.3253463"><ele>875.0</ele><time>2026-04-11T12:16:38.688Z</time></trkpt><trkpt lat="38.5548434" lon="16.3255454"><ele>875.0</ele><time>2026-04-11T12:16:39.688Z</time></trkpt><trkpt lat="38.5549255" lon="16.3257411"><ele>873.6666666666667</ele><time>2026-04-11T12:16:40.689Z</time></trkpt><trkpt lat="38.5550001" lon="16.3259251"><ele>872.3333333333333</ele><time>2026-04-11T12:16:41.688Z</time></trkpt><trkpt lat="38.5550774" lon="16.3260987"><ele>871.0</ele><time>2026-04-11T12:16:42.689Z</time></trkpt><trkpt lat="38.5551472" lon="16.3262607"><ele>870.0</ele><time>2026-04-11T12:16:43.688Z</time></trkpt><trkpt lat="38.5552176" lon="16.3264054"><ele>869.0</ele><time>2026-04-11T12:16:44.688Z</time></trkpt><trkpt lat="38.5553052" lon="16.3265253"><ele>868.0</ele><time>2026-04-11T12:16:45.689Z</time></trkpt><trkpt lat="38.5554153" lon="16.3266019"><ele>867.0</ele><time>2026-04-11T12:16:46.688Z</time></trkpt><trkpt lat="38.555545" lon="16.3266329"><ele>866.0</ele><time>2026-04-11T12:16:47.689Z</time></trkpt><trkpt lat="38.555688" lon="16.3266318"><ele>865.0</ele><time>2026-04-11T12:16:48.689Z</time></trkpt><trkpt lat="38.5558437" lon="16.3266165"><ele>864.0</ele><time>2026-04-11T12:16:49.689Z</time></trkpt><trkpt lat="38.5560062" lon="16.3265976"><ele>864.0</ele><time>2026-04-11T12:16:50.688Z</time></trkpt><trkpt lat="38.5561785" lon="16.3265787"><ele>864.0</ele><time>2026-04-11T12:16:51.689Z</time></trkpt><trkpt lat="38.556355" lon="16.3265599"><ele>864.0</ele><time>2026-04-11T12:16:52.688Z</time></trkpt><trkpt lat="38.5565298" lon="16.3265435"><ele>862.0</ele><time>2026-04-11T12:16:53.688Z</time></trkpt><trkpt lat="38.5567093" lon="16.3265273"><ele>860.0</ele><time>2026-04-11T12:16:54.688Z</time></trkpt><trkpt lat="38.5568861" lon="16.3265164"><ele>858.0</ele><time>2026-04-11T12:16:55.688Z</time></trkpt><trkpt lat="38.5570642" lon="16.3265025"><ele>857.0</ele><time>2026-04-11T12:16:56.688Z</time></trkpt><trkpt lat="38.5572428" lon="16.3264891"><ele>856.0</ele><time>2026-04-11T12:16:57.688Z</time></trkpt><trkpt lat="38.5574267" lon="16.3264721"><ele>855.0</ele><time>2026-04-11T12:16:58.688Z</time></trkpt><trkpt lat="38.557607" lon="16.3264552"><ele>855.0</ele><time>2026-04-11T12:16:59.689Z</time></trkpt><trkpt lat="38.5577857" lon="16.3264374"><ele>855.0</ele><time>2026-04-11T12:17:00.688Z</time></trkpt><trkpt lat="38.5579663" lon="16.3264226"><ele>855.0</ele><time>2026-04-11T12:17:01.689Z</time></trkpt><trkpt lat="38.5581461" lon="16.3264045"><ele>855.0</ele><time>2026-04-11T12:17:02.688Z</time></trkpt><trkpt lat="38.5583209" lon="16.3263862"><ele>855.0</ele><time>2026-04-11T12:17:03.689Z</time></trkpt><trkpt lat="38.5584933" lon="16.3263727"><ele>855.0</ele><time>2026-04-11T12:17:04.688Z</time></trkpt><trkpt lat="38.5586725" lon="16.3263614"><ele>853.3333333333333</ele><time>2026-04-11T12:17:05.689Z</time></trkpt><trkpt lat="38.558855" lon="16.3263475"><ele>851.6666666666666</ele><time>2026-04-11T12:17:06.689Z</time></trkpt><trkpt lat="38.5590343" lon="16.3263378"><ele>850.0</ele><time>2026-04-11T12:17:07.688Z</time></trkpt><trkpt lat="38.5592075" lon="16.326325"><ele>850.0</ele><time>2026-04-11T12:17:08.689Z</time></trkpt><trkpt lat="38.5593787" lon="16.3263051"><ele>850.0</ele><time>2026-04-11T12:17:09.689Z</time></trkpt><trkpt lat="38.5595449" lon="16.3262878"><ele>850.0</ele><time>2026-04-11T12:17:10.688Z</time></trkpt><trkpt lat="38.5597162" lon="16.3262733"><ele>848.3333333333333</ele><time>2026-04-11T12:17:11.689Z</time></trkpt><trkpt lat="38.5598843" lon="16.3262548"><ele>846.6666666666667</ele><time>2026-04-11T12:17:12.689Z</time></trkpt><trkpt lat="38.560054" lon="16.3262378"><ele>845.0</ele><time>2026-04-11T12:17:13.688Z</time></trkpt><trkpt lat="38.5602305" lon="16.326224"><ele>844.3333333333334</ele><time>2026-04-11T12:17:14.688Z</time></trkpt><trkpt lat="38.5604058" lon="16.3262119"><ele>843.6666666666667</ele><time>2026-04-11T12:17:15.688Z</time></trkpt><trkpt lat="38.5605776" lon="16.3261993"><ele>843.0</ele><time>2026-04-11T12:17:16.689Z</time></trkpt><trkpt lat="38.5607408" lon="16.3261841"><ele>843.0</ele><time>2026-04-11T12:17:17.688Z</time></trkpt><trkpt lat="38.5609007" lon="16.3261701"><ele>843.0</ele><time>2026-04-11T12:17:18.688Z</time></trkpt><trkpt lat="38.5610559" lon="16.3261637"><ele>843.0</ele><time>2026-04-11T12:17:19.688Z</time></trkpt><trkpt lat="38.5612286" lon="16.3261544"><ele>841.3333333333333</ele><time>2026-04-11T12:17:20.688Z</time></trkpt><trkpt lat="38.5614061" lon="16.3261391"><ele>839.6666666666666</ele><time>2026-04-11T12:17:21.689Z</time></trkpt><trkpt lat="38.561576" lon="16.326127"><ele>838.0</ele><time>2026-04-11T12:17:22.689Z</time></trkpt><trkpt lat="38.5617462" lon="16.3261165"><ele>838.0</ele><time>2026-04-11T12:17:23.688Z</time></trkpt><trkpt lat="38.5619189" lon="16.3261027"><ele>838.0</ele><time>2026-04-11T12:17:24.689Z</time></trkpt><trkpt lat="38.5620919" lon="16.3260846"><ele>838.0</ele><time>2026-04-11T12:17:25.689Z</time></trkpt><trkpt lat="38.5622602" lon="16.326073"><ele>836.0</ele><time>2026-04-11T12:17:26.689Z</time></trkpt><trkpt lat="38.5624242" lon="16.3260577"><ele>834.0</ele><time>2026-04-11T12:17:27.689Z</time></trkpt><trkpt lat="38.5625896" lon="16.3260481"><ele>832.0</ele><time>2026-04-11T12:17:28.689Z</time></trkpt><trkpt lat="38.5627557" lon="16.3260354"><ele>831.0</ele><time>2026-04-11T12:17:29.688Z</time></trkpt><trkpt lat="38.5629221" lon="16.3260203"><ele>830.0</ele><time>2026-04-11T12:17:30.689Z</time></trkpt><trkpt lat="38.5630849" lon="16.3260101"><ele>829.0</ele><time>2026-04-11T12:17:31.688Z</time></trkpt><trkpt lat="38.5632471" lon="16.325994"><ele>829.0</ele><time>2026-04-11T12:17:32.688Z</time></trkpt><trkpt lat="38.5634004" lon="16.3259837"><ele>829.0</ele><time>2026-04-11T12:17:33.688Z</time></trkpt><trkpt lat="38.5635449" lon="16.3259761"><ele>829.0</ele><time>2026-04-11T12:17:34.688Z</time></trkpt><trkpt lat="38.5636871" lon="16.3259646"><ele>829.0</ele><time>2026-04-11T12:17:35.688Z</time></trkpt><trkpt lat="38.5638241" lon="16.3259542"><ele>828.5</ele><time>2026-04-11T12:17:36.689Z</time></trkpt><trkpt lat="38.5639587" lon="16.325943"><ele>828.0</ele><time>2026-04-11T12:17:37.688Z</time></trkpt><trkpt lat="38.5640874" lon="16.3259327"><ele>827.5</ele><time>2026-04-11T12:17:38.688Z</time></trkpt><trkpt lat="38.5642052" lon="16.3259253"><ele>827.0</ele><time>2026-04-11T12:17:39.688Z</time></trkpt><trkpt lat="38.5643148" lon="16.3259163"><ele>827.0000000000001</ele><time>2026-04-11T12:17:40.688Z</time></trkpt><trkpt lat="38.5644152" lon="16.3259092"><ele>827.0</ele><time>2026-04-11T12:17:41.688Z</time></trkpt><trkpt lat="38.5645113" lon="16.325906"><ele>827.0</ele><time>2026-04-11T12:17:42.689Z</time></trkpt><trkpt lat="38.5646012" lon="16.3258937"><ele>827.0</ele><time>2026-04-11T12:17:43.688Z</time></trkpt><trkpt lat="38.5646829" lon="16.3258733"><ele>827.0000000000001</ele><time>2026-04-11T12:17:44.689Z</time></trkpt><trkpt lat="38.5647486" lon="16.3258431"><ele>827.0</ele><time>2026-04-11T12:17:45.688Z</time></trkpt><trkpt lat="38.5648094" lon="16.3257411"><ele>826.6</ele><time>2026-04-11T12:17:47.689Z</time></trkpt><trkpt lat="38.5647796" lon="16.3255698"><ele>826.2</ele><time>2026-04-11T12:17:49.688Z</time></trkpt><trkpt lat="38.5647579" lon="16.3254594"><ele>825.8</ele><time>2026-04-11T12:17:50.689Z</time></trkpt><trkpt lat="38.5647414" lon="16.3253334"><ele>825.4</ele><time>2026-04-11T12:17:51.688Z</time></trkpt><trkpt lat="38.5647432" lon="16.3252024"><ele>825.0</ele><time>2026-04-11T12:17:52.689Z</time></trkpt><trkpt lat="38.5647646" lon="16.3250774"><ele>825.0</ele><time>2026-04-11T12:17:53.688Z</time></trkpt><trkpt lat="38.5648111" lon="16.3249524"><ele>825.0</ele><time>2026-04-11T12:17:54.689Z</time></trkpt><trkpt lat="38.5648732" lon="16.3248345"><ele>825.0</ele><time>2026-04-11T12:17:55.689Z</time></trkpt><trkpt lat="38.5649504" lon="16.3247114"><ele>825.0</ele><time>2026-04-11T12:17:56.688Z</time></trkpt><trkpt lat="38.5650311" lon="16.3245899"><ele>825.25</ele><time>2026-04-11T12:17:57.688Z</time></trkpt><trkpt lat="38.5651213" lon="16.3244678"><ele>825.5</ele><time>2026-04-11T12:17:58.689Z</time></trkpt><trkpt lat="38.5652137" lon="16.3243494"><ele>825.75</ele><time>2026-04-11T12:17:59.689Z</time></trkpt><trkpt lat="38.5653105" lon="16.3242236"><ele>826.0</ele><time>2026-04-11T12:18:00.688Z</time></trkpt><trkpt lat="38.5654073" lon="16.3241005"><ele>826.0</ele><time>2026-04-11T12:18:01.689Z</time></trkpt><trkpt lat="38.5655057" lon="16.3239663"><ele>826.0</ele><time>2026-04-11T12:18:02.689Z</time></trkpt><trkpt lat="38.5656048" lon="16.3238352"><ele>826.0</ele><time>2026-04-11T12:18:03.688Z</time></trkpt><trkpt lat="38.5657093" lon="16.3237073"><ele>826.0</ele><time>2026-04-11T12:18:04.689Z</time></trkpt><trkpt lat="38.5658192" lon="16.3235864"><ele>825.5</ele><time>2026-04-11T12:18:05.688Z</time></trkpt><trkpt lat="38.5659277" lon="16.323458"><ele>825.0</ele><time>2026-04-11T12:18:06.688Z</time></trkpt><trkpt lat="38.5660394" lon="16.3233341"><ele>824.5</ele><time>2026-04-11T12:18:07.689Z</time></trkpt><trkpt lat="38.5661554" lon="16.3232049"><ele>824.0</ele><time>2026-04-11T12:18:08.688Z</time></trkpt><trkpt lat="38.5662697" lon="16.3230785"><ele>822.6666666666667</ele><time>2026-04-11T12:18:09.688Z</time></trkpt><trkpt lat="38.5663879" lon="16.3229528"><ele>821.3333333333333</ele><time>2026-04-11T12:18:10.688Z</time></trkpt><trkpt lat="38.5665091" lon="16.3228352"><ele>820.0</ele><time>2026-04-11T12:18:11.688Z</time></trkpt><trkpt lat="38.5666175" lon="16.3227128"><ele>820.0</ele><time>2026-04-11T12:18:12.688Z</time></trkpt><trkpt lat="38.5667213" lon="16.3225948"><ele>820.0</ele><time>2026-04-11T12:18:13.688Z</time></trkpt><trkpt lat="38.566818" lon="16.3224883"><ele>820.0</ele><time>2026-04-11T12:18:14.688Z</time></trkpt><trkpt lat="38.5668878" lon="16.3223647"><ele>820.0</ele><time>2026-04-11T12:18:15.689Z</time></trkpt><trkpt lat="38.5669347" lon="16.3222301"><ele>819.75</ele><time>2026-04-11T12:18:16.688Z</time></trkpt><trkpt lat="38.5669621" lon="16.322081"><ele>819.5</ele><time>2026-04-11T12:18:17.688Z</time></trkpt><trkpt lat="38.5669659" lon="16.3219139"><ele>819.25</ele><time>2026-04-11T12:18:18.688Z</time></trkpt><trkpt lat="38.5669339" lon="16.3217452"><ele>819.0</ele><time>2026-04-11T12:18:19.689Z</time></trkpt><trkpt lat="38.5668867" lon="16.3215835"><ele>819.0</ele><time>2026-04-11T12:18:20.688Z</time></trkpt><trkpt lat="38.566847" lon="16.3214281"><ele>819.0</ele><time>2026-04-11T12:18:21.688Z</time></trkpt><trkpt lat="38.5668227" lon="16.3212792"><ele>819.0</ele><time>2026-04-11T12:18:22.688Z</time></trkpt><trkpt lat="38.5668216" lon="16.3211315"><ele>819.0</ele><time>2026-04-11T12:18:23.688Z</time></trkpt><trkpt lat="38.566858" lon="16.3209849"><ele>819.0</ele><time>2026-04-11T12:18:24.688Z</time></trkpt><trkpt lat="38.5669197" lon="16.3208433"><ele>819.0</ele><time>2026-04-11T12:18:25.688Z</time></trkpt><trkpt lat="38.566993" lon="16.3207035"><ele>819.0</ele><time>2026-04-11T12:18:26.688Z</time></trkpt><trkpt lat="38.5670568" lon="16.3205681"><ele>819.0</ele><time>2026-04-11T12:18:27.689Z</time></trkpt><trkpt lat="38.5671259" lon="16.3204378"><ele>819.0</ele><time>2026-04-11T12:18:28.688Z</time></trkpt><trkpt lat="38.5671852" lon="16.3203232"><ele>819.0</ele><time>2026-04-11T12:18:29.689Z</time></trkpt><trkpt lat="38.5672343" lon="16.3202181"><ele>819.0</ele><time>2026-04-11T12:18:30.689Z</time></trkpt><trkpt lat="38.5672852" lon="16.320116"><ele>819.0</ele><time>2026-04-11T12:18:31.688Z</time></trkpt><trkpt lat="38.567335" lon="16.3200344"><ele>819.0</ele><time>2026-04-11T12:18:32.688Z</time></trkpt><trkpt lat="38.5673852" lon="16.3199767"><ele>819.0</ele><time>2026-04-11T12:18:33.688Z</time></trkpt><trkpt lat="38.5674849" lon="16.3199382"><ele>819.0</ele><time>2026-04-11T12:18:35.689Z</time></trkpt><trkpt lat="38.5675947" lon="16.3200042"><ele>819.0</ele><time>2026-04-11T12:18:37.688Z</time></trkpt><trkpt lat="38.5676555" lon="16.3200822"><ele>819.0</ele><time>2026-04-11T12:18:38.689Z</time></trkpt><trkpt lat="38.567732" lon="16.3201918"><ele>819.0</ele><time>2026-04-11T12:18:39.688Z</time></trkpt><trkpt lat="38.5678141" lon="16.3203358"><ele>817.75</ele><time>2026-04-11T12:18:40.689Z</time></trkpt><trkpt lat="38.5679031" lon="16.3204892"><ele>816.5</ele><time>2026-04-11T12:18:41.688Z</time></trkpt><trkpt lat="38.5679899" lon="16.320646"><ele>815.25</ele><time>2026-04-11T12:18:42.688Z</time></trkpt><trkpt lat="38.5680686" lon="16.3208008"><ele>814.0</ele><time>2026-04-11T12:18:43.688Z</time></trkpt><trkpt lat="38.5681434" lon="16.3209475"><ele>814.0</ele><time>2026-04-11T12:18:44.688Z</time></trkpt><trkpt lat="38.5682221" lon="16.3210915"><ele>814.0</ele><time>2026-04-11T12:18:45.688Z</time></trkpt><trkpt lat="38.5682974" lon="16.3212394"><ele>814.0</ele><time>2026-04-11T12:18:46.688Z</time></trkpt><trkpt lat="38.5683776" lon="16.3213857"><ele>814.0</ele><time>2026-04-11T12:18:47.688Z</time></trkpt><trkpt lat="38.5684597" lon="16.3215318"><ele>813.0</ele><time>2026-04-11T12:18:48.688Z</time></trkpt><trkpt lat="38.5685439" lon="16.3216801"><ele>812.0</ele><time>2026-04-11T12:18:49.688Z</time></trkpt><trkpt lat="38.5686281" lon="16.3218253"><ele>811.0</ele><time>2026-04-11T12:18:50.688Z</time></trkpt><trkpt lat="38.5687042" lon="16.321972"><ele>810.0</ele><time>2026-04-11T12:18:51.689Z</time></trkpt><trkpt lat="38.5687861" lon="16.3221212"><ele>811.5</ele><time>2026-04-11T12:18:52.689Z</time></trkpt><trkpt lat="38.5688733" lon="16.3222633"><ele>813.0</ele><time>2026-04-11T12:18:53.688Z</time></trkpt><trkpt lat="38.5689541" lon="16.3224016"><ele>814.5</ele><time>2026-04-11T12:18:54.688Z</time></trkpt><trkpt lat="38.5690324" lon="16.322535"><ele>816.0</ele><time>2026-04-11T12:18:55.689Z</time></trkpt><trkpt lat="38.5691128" lon="16.3226653"><ele>816.0</ele><time>2026-04-11T12:18:56.689Z</time></trkpt><trkpt lat="38.5691994" lon="16.3228052"><ele>816.0</ele><time>2026-04-11T12:18:57.688Z</time></trkpt><trkpt lat="38.5692798" lon="16.3229464"><ele>816.0</ele><time>2026-04-11T12:18:58.688Z</time></trkpt><trkpt lat="38.5693649" lon="16.323077"><ele>816.0</ele><time>2026-04-11T12:18:59.688Z</time></trkpt><trkpt lat="38.5694584" lon="16.3231988"><ele>815.5</ele><time>2026-04-11T12:19:00.688Z</time></trkpt><trkpt lat="38.5695598" lon="16.3233241"><ele>815.0</ele><time>2026-04-11T12:19:01.688Z</time></trkpt><trkpt lat="38.5696675" lon="16.3234503"><ele>814.5</ele><time>2026-04-11T12:19:02.689Z</time></trkpt><trkpt lat="38.5697745" lon="16.3235694"><ele>814.0</ele><time>2026-04-11T12:19:03.688Z</time></trkpt><trkpt lat="38.5698928" lon="16.3236858"><ele>814.0</ele><time>2026-04-11T12:19:04.688Z</time></trkpt><trkpt lat="38.5700078" lon="16.3237946"><ele>814.0</ele><time>2026-04-11T12:19:05.689Z</time></trkpt><trkpt lat="38.5701185" lon="16.3238973"><ele>814.0</ele><time>2026-04-11T12:19:06.689Z</time></trkpt><trkpt lat="38.570236" lon="16.3240041"><ele>814.0</ele><time>2026-04-11T12:19:07.688Z</time></trkpt><trkpt lat="38.5703549" lon="16.3241223"><ele>813.0</ele><time>2026-04-11T12:19:08.689Z</time></trkpt><trkpt lat="38.5704835" lon="16.3242489"><ele>812.0</ele><time>2026-04-11T12:19:09.689Z</time></trkpt><trkpt lat="38.5706033" lon="16.3243655"><ele>811.0</ele><time>2026-04-11T12:19:10.688Z</time></trkpt><trkpt lat="38.5707251" lon="16.3244742"><ele>811.0</ele><time>2026-04-11T12:19:11.688Z</time></trkpt><trkpt lat="38.5708391" lon="16.3245819"><ele>811.0</ele><time>2026-04-11T12:19:12.688Z</time></trkpt><trkpt lat="38.5709539" lon="16.3247154"><ele>811.0</ele><time>2026-04-11T12:19:13.688Z</time></trkpt><trkpt lat="38.571057" lon="16.324827"><ele>811.0</ele><time>2026-04-11T12:19:14.688Z</time></trkpt><trkpt lat="38.5711515" lon="16.3249185"><ele>810.8333333333333</ele><time>2026-04-11T12:19:15.689Z</time></trkpt><trkpt lat="38.5712339" lon="16.325002"><ele>810.6666666666666</ele><time>2026-04-11T12:19:16.689Z</time></trkpt><trkpt lat="38.5713023" lon="16.3250902"><ele>810.5</ele><time>2026-04-11T12:19:17.689Z</time></trkpt><trkpt lat="38.5713472" lon="16.3251781"><ele>810.3333333333333</ele><time>2026-04-11T12:19:18.688Z</time></trkpt><trkpt lat="38.5713757" lon="16.3252529"><ele>810.1666666666666</ele><time>2026-04-11T12:19:19.689Z</time></trkpt><trkpt lat="38.5714194" lon="16.3253334"><ele>810.0</ele><time>2026-04-11T12:19:21.688Z</time></trkpt><trkpt lat="38.5714761" lon="16.3253824"><ele>810.0</ele><time>2026-04-11T12:19:24.689Z</time></trkpt><trkpt lat="38.5715972" lon="16.3254216"><ele>810.0</ele><time>2026-04-11T12:19:26.688Z</time></trkpt><trkpt lat="38.5716715" lon="16.3254554"><ele>810.0</ele><time>2026-04-11T12:19:27.689Z</time></trkpt><trkpt lat="38.5717536" lon="16.3255072"><ele>810.0</ele><time>2026-04-11T12:19:28.688Z</time></trkpt><trkpt lat="38.5718369" lon="16.3255862"><ele>810.0</ele><time>2026-04-11T12:19:29.689Z</time></trkpt><trkpt lat="38.5719161" lon="16.3256643"><ele>810.0</ele><time>2026-04-11T12:19:30.688Z</time></trkpt><trkpt lat="38.5719919" lon="16.3257388"><ele>810.0</ele><time>2026-04-11T12:19:31.689Z</time></trkpt><trkpt lat="38.5720628" lon="16.3258119"><ele>810.0</ele><time>2026-04-11T12:19:32.688Z</time></trkpt><trkpt lat="38.5721369" lon="16.3258745"><ele>810.0</ele><time>2026-04-11T12:19:33.689Z</time></trkpt><trkpt lat="38.572209" lon="16.3259447"><ele>810.0</ele><time>2026-04-11T12:19:34.689Z</time></trkpt><trkpt lat="38.5722768" lon="16.3260186"><ele>810.0</ele><time>2026-04-11T12:19:35.688Z</time></trkpt><trkpt lat="38.5723436" lon="16.3260895"><ele>810.0</ele><time>2026-04-11T12:19:36.689Z</time></trkpt><trkpt lat="38.5724129" lon="16.3261644"><ele>810.0</ele><time>2026-04-11T12:19:37.688Z</time></trkpt><trkpt lat="38.5724801" lon="16.3262262"><ele>810.0</ele><time>2026-04-11T12:19:38.689Z</time></trkpt><trkpt lat="38.5725451" lon="16.3262856"><ele>810.0</ele><time>2026-04-11T12:19:39.689Z</time></trkpt><trkpt lat="38.5726027" lon="16.3263316"><ele>810.0</ele><time>2026-04-11T12:19:40.688Z</time></trkpt><trkpt lat="38.5726768" lon="16.3264161"><ele>810.0</ele><time>2026-04-11T12:19:42.688Z</time></trkpt><trkpt lat="38.5727136" lon="16.3264986"><ele>810.0</ele><time>2026-04-11T12:19:44.688Z</time></trkpt><trkpt lat="38.5726544" lon="16.326609"><ele>810.0</ele><time>2026-04-11T12:19:47.689Z</time></trkpt><trkpt lat="38.5725667" lon="16.3267122"><ele>810.0</ele><time>2026-04-11T12:19:49.689Z</time></trkpt><trkpt lat="38.5725237" lon="16.3267812"><ele>810.0</ele><time>2026-04-11T12:19:50.688Z</time></trkpt><trkpt lat="38.5724695" lon="16.3268657"><ele>810.0</ele><time>2026-04-11T12:19:51.688Z</time></trkpt><trkpt lat="38.5724108" lon="16.3269503"><ele>810.0</ele><time>2026-04-11T12:19:52.688Z</time></trkpt><trkpt lat="38.572366" lon="16.3270394"><ele>810.0</ele><time>2026-04-11T12:19:53.689Z</time></trkpt><trkpt lat="38.5723171" lon="16.327116"><ele>810.0</ele><time>2026-04-11T12:19:54.688Z</time></trkpt><trkpt lat="38.5722772" lon="16.3271948"><ele>810.0</ele><time>2026-04-11T12:19:55.689Z</time></trkpt><trkpt lat="38.5722317" lon="16.3272754"><ele>810.0</ele><time>2026-04-11T12:19:56.688Z</time></trkpt><trkpt lat="38.5721844" lon="16.3273644"><ele>809.9999999999999</ele><time>2026-04-11T12:19:57.688Z</time></trkpt><trkpt lat="38.5721319" lon="16.3274503"><ele>810.0</ele><time>2026-04-11T12:19:58.689Z</time></trkpt><trkpt lat="38.5720842" lon="16.3275304"><ele>810.0</ele><time>2026-04-11T12:19:59.688Z</time></trkpt><trkpt lat="38.5720425" lon="16.3276041"><ele>810.0</ele><time>2026-04-11T12:20:00.688Z</time></trkpt><trkpt lat="38.5719974" lon="16.3276735"><ele>810.0</ele><time>2026-04-11T12:20:01.688Z</time></trkpt><trkpt lat="38.5719523" lon="16.3277411"><ele>809.9999999999999</ele><time>2026-04-11T12:20:02.688Z</time></trkpt><trkpt lat="38.5719121" lon="16.3278069"><ele>810.0</ele><time>2026-04-11T12:20:03.689Z</time></trkpt><trkpt lat="38.5718593" lon="16.3279147"><ele>810.0</ele><time>2026-04-11T12:20:05.689Z</time></trkpt><trkpt lat="38.5718911" lon="16.328024"><ele>810.0</ele><time>2026-04-11T12:20:08.688Z</time></trkpt><trkpt lat="38.5720124" lon="16.3280872"><ele>810.0</ele><time>2026-04-11T12:20:10.688Z</time></trkpt><trkpt lat="38.5720879" lon="16.3281252"><ele>810.0</ele><time>2026-04-11T12:20:11.689Z</time></trkpt><trkpt lat="38.5721636" lon="16.3281613"><ele>810.0</ele><time>2026-04-11T12:20:12.688Z</time></trkpt><trkpt lat="38.5722298" lon="16.3282704"><ele>809.6666666666666</ele><time>2026-04-11T12:20:14.688Z</time></trkpt><trkpt lat="38.5722209" lon="16.3284037"><ele>809.3333333333333</ele><time>2026-04-11T12:20:16.689Z</time></trkpt><trkpt lat="38.5721931" lon="16.3284786"><ele>809.0</ele><time>2026-04-11T12:20:17.688Z</time></trkpt><trkpt lat="38.5721474" lon="16.3285602"><ele>808.6666666666666</ele><time>2026-04-11T12:20:18.689Z</time></trkpt><trkpt lat="38.5720972" lon="16.3286424"><ele>808.3333333333333</ele><time>2026-04-11T12:20:19.689Z</time></trkpt><trkpt lat="38.572064" lon="16.3287369"><ele>808.0</ele><time>2026-04-11T12:20:20.688Z</time></trkpt><trkpt lat="38.572064" lon="16.328838"><ele>807.8</ele><time>2026-04-11T12:20:21.688Z</time></trkpt><trkpt lat="38.5720876" lon="16.3289326"><ele>807.5999999999999</ele><time>2026-04-11T12:20:22.688Z</time></trkpt><trkpt lat="38.572133" lon="16.3290101"><ele>807.4000000000001</ele><time>2026-04-11T12:20:23.688Z</time></trkpt><trkpt lat="38.5721958" lon="16.3290539"><ele>807.2</ele><time>2026-04-11T12:20:24.688Z</time></trkpt><trkpt lat="38.5722826" lon="16.3291135"><ele>807.0</ele><time>2026-04-11T12:20:25.688Z</time></trkpt><trkpt lat="38.5724033" lon="16.3291731"><ele>807.0</ele><time>2026-04-11T12:20:26.688Z</time></trkpt><trkpt lat="38.5725389" lon="16.3292411"><ele>807.0</ele><time>2026-04-11T12:20:27.688Z</time></trkpt><trkpt lat="38.572672" lon="16.3293036"><ele>807.0</ele><time>2026-04-11T12:20:28.689Z</time></trkpt><trkpt lat="38.5727908" lon="16.3293707"><ele>807.0</ele><time>2026-04-11T12:20:29.689Z</time></trkpt><trkpt lat="38.5729152" lon="16.3294404"><ele>806.75</ele><time>2026-04-11T12:20:30.688Z</time></trkpt><trkpt lat="38.5730425" lon="16.3295016"><ele>806.5</ele><time>2026-04-11T12:20:31.688Z</time></trkpt><trkpt lat="38.5731597" lon="16.329571"><ele>806.25</ele><time>2026-04-11T12:20:32.689Z</time></trkpt><trkpt lat="38.5732763" lon="16.3296418"><ele>806.0</ele><time>2026-04-11T12:20:33.688Z</time></trkpt><trkpt lat="38.5733883" lon="16.3297211"><ele>805.5</ele><time>2026-04-11T12:20:34.689Z</time></trkpt><trkpt lat="38.5735004" lon="16.3297904"><ele>805.0</ele><time>2026-04-11T12:20:35.689Z</time></trkpt><trkpt lat="38.5736143" lon="16.3298613"><ele>804.5</ele><time>2026-04-11T12:20:36.688Z</time></trkpt><trkpt lat="38.5737276" lon="16.3299413"><ele>804.0</ele><time>2026-04-11T12:20:37.689Z</time></trkpt><trkpt lat="38.5738428" lon="16.3300229"><ele>804.0</ele><time>2026-04-11T12:20:38.688Z</time></trkpt><trkpt lat="38.5739613" lon="16.3301088"><ele>804.0</ele><time>2026-04-11T12:20:39.688Z</time></trkpt><trkpt lat="38.5740784" lon="16.3301926"><ele>804.0</ele><time>2026-04-11T12:20:40.688Z</time></trkpt><trkpt lat="38.5741967" lon="16.3302742"><ele>804.0</ele><time>2026-04-11T12:20:41.688Z</time></trkpt><trkpt lat="38.5743091" lon="16.33036"><ele>804.0</ele><time>2026-04-11T12:20:42.688Z</time></trkpt><trkpt lat="38.5744245" lon="16.3304543"><ele>804.0</ele><time>2026-04-11T12:20:43.689Z</time></trkpt><trkpt lat="38.5745323" lon="16.3305343"><ele>804.0</ele><time>2026-04-11T12:20:44.689Z</time></trkpt><trkpt lat="38.5746403" lon="16.330616"><ele>804.0</ele><time>2026-04-11T12:20:45.688Z</time></trkpt><trkpt lat="38.5747514" lon="16.3306948"><ele>803.5</ele><time>2026-04-11T12:20:46.688Z</time></trkpt><trkpt lat="38.5748631" lon="16.3307649"><ele>803.0</ele><time>2026-04-11T12:20:47.688Z</time></trkpt><trkpt lat="38.5749748" lon="16.3308433"><ele>802.5</ele><time>2026-04-11T12:20:48.689Z</time></trkpt><trkpt lat="38.5750826" lon="16.330918"><ele>802.0</ele><time>2026-04-11T12:20:49.688Z</time></trkpt><trkpt lat="38.5751948" lon="16.3309807"><ele>802.0</ele><time>2026-04-11T12:20:50.688Z</time></trkpt><trkpt lat="38.5753046" lon="16.3310403"><ele>802.0</ele><time>2026-04-11T12:20:51.689Z</time></trkpt><trkpt lat="38.5754131" lon="16.3310947"><ele>802.0</ele><time>2026-04-11T12:20:52.689Z</time></trkpt><trkpt lat="38.5755122" lon="16.3311496"><ele>802.0</ele><time>2026-04-11T12:20:53.688Z</time></trkpt><trkpt lat="38.575609" lon="16.331197"><ele>802.0</ele><time>2026-04-11T12:20:54.688Z</time></trkpt><trkpt lat="38.5756915" lon="16.3312388"><ele>801.8333333333333</ele><time>2026-04-11T12:20:55.689Z</time></trkpt><trkpt lat="38.5757603" lon="16.3312724"><ele>801.6666666666666</ele><time>2026-04-11T12:20:56.688Z</time></trkpt><trkpt lat="38.5758675" lon="16.3313017"><ele>801.5</ele><time>2026-04-11T12:20:58.689Z</time></trkpt><trkpt lat="38.5759433" lon="16.33126"><ele>801.3333333333333</ele><time>2026-04-11T12:21:00.688Z</time></trkpt><trkpt lat="38.5760015" lon="16.3311858"><ele>801.1666666666666</ele><time>2026-04-11T12:21:02.688Z</time></trkpt><trkpt lat="38.576065" lon="16.3311737"><ele>801.0</ele><time>2026-04-11T12:21:04.688Z</time></trkpt><trkpt lat="38.5761234" lon="16.3312344"><ele>801.0</ele><time>2026-04-11T12:21:07.689Z</time></trkpt><trkpt lat="38.5761103" lon="16.3313362"><ele>801.0</ele><time>2026-04-11T12:22:24.688Z</time></trkpt><trkpt lat="38.5761125" lon="16.3314193"><ele>801.0</ele><time>2026-04-11T12:23:05.688Z</time></trkpt><trkpt lat="38.576184" lon="16.3314478"><ele>801.0</ele><time>2026-04-11T12:23:13.688Z</time></trkpt><trkpt lat="38.5763142" lon="16.3314926"><ele>801.0</ele><time>2026-04-11T12:23:15.689Z</time></trkpt><trkpt lat="38.5763935" lon="16.331485"><ele>801.0</ele><time>2026-04-11T12:23:16.688Z</time></trkpt><trkpt lat="38.5764619" lon="16.3314431"><ele>800.75</ele><time>2026-04-11T12:23:17.688Z</time></trkpt><trkpt lat="38.5765194" lon="16.3313735"><ele>800.5</ele><time>2026-04-11T12:23:18.689Z</time></trkpt><trkpt lat="38.576583" lon="16.3312607"><ele>800.25</ele><time>2026-04-11T12:23:19.688Z</time></trkpt><trkpt lat="38.5766477" lon="16.3311144"><ele>800.0</ele><time>2026-04-11T12:23:20.689Z</time></trkpt><trkpt lat="38.5767222" lon="16.3309492"><ele>800.0</ele><time>2026-04-11T12:23:21.688Z</time></trkpt><trkpt lat="38.5767931" lon="16.3307828"><ele>800.0</ele><time>2026-04-11T12:23:22.688Z</time></trkpt><trkpt lat="38.5768474" lon="16.33063"><ele>800.0</ele><time>2026-04-11T12:23:23.688Z</time></trkpt><trkpt lat="38.5768875" lon="16.3305078"><ele>800.0</ele><time>2026-04-11T12:23:24.688Z</time></trkpt><trkpt lat="38.5769077" lon="16.3304088"><ele>799.8333333333334</ele><time>2026-04-11T12:23:25.688Z</time></trkpt><trkpt lat="38.5769289" lon="16.3303068"><ele>799.6666666666667</ele><time>2026-04-11T12:23:27.689Z</time></trkpt><trkpt lat="38.5770159" lon="16.3303454"><ele>799.5</ele><time>2026-04-11T12:23:30.689Z</time></trkpt><trkpt lat="38.5770568" lon="16.3304385"><ele>799.3333333333333</ele><time>2026-04-11T12:23:32.688Z</time></trkpt><trkpt lat="38.5771316" lon="16.330472"><ele>799.1666666666666</ele><time>2026-04-11T12:31:11.687Z</time></trkpt><trkpt lat="38.5771697" lon="16.3305593"><ele>799.0</ele><time>2026-04-11T12:31:14.687Z</time></trkpt><trkpt lat="38.5771955" lon="16.3306608"><ele>799.4000000000001</ele><time>2026-04-11T12:31:16.687Z</time></trkpt><trkpt lat="38.5772578" lon="16.3308111"><ele>799.8</ele><time>2026-04-11T12:31:18.687Z</time></trkpt><trkpt lat="38.5773049" lon="16.3309024"><ele>800.2</ele><time>2026-04-11T12:31:19.687Z</time></trkpt><trkpt lat="38.5773514" lon="16.3309991"><ele>800.5999999999999</ele><time>2026-04-11T12:31:20.687Z</time></trkpt><trkpt lat="38.5774028" lon="16.3311061"><ele>801.0</ele><time>2026-04-11T12:31:21.688Z</time></trkpt><trkpt lat="38.5774608" lon="16.3312247"><ele>801.0</ele><time>2026-04-11T12:31:22.687Z</time></trkpt><trkpt lat="38.577518" lon="16.331351"><ele>801.0</ele><time>2026-04-11T12:31:23.687Z</time></trkpt><trkpt lat="38.5775743" lon="16.3314823"><ele>801.0</ele><time>2026-04-11T12:31:24.687Z</time></trkpt><trkpt lat="38.5776395" lon="16.3316158"><ele>801.0</ele><time>2026-04-11T12:31:25.687Z</time></trkpt><trkpt lat="38.5777029" lon="16.3317508"><ele>800.5</ele><time>2026-04-11T12:31:26.688Z</time></trkpt><trkpt lat="38.5777661" lon="16.3318819"><ele>800.0</ele><time>2026-04-11T12:31:27.687Z</time></trkpt><trkpt lat="38.5778267" lon="16.3320129"><ele>799.5</ele><time>2026-04-11T12:31:28.688Z</time></trkpt><trkpt lat="38.5778865" lon="16.332141"><ele>799.0</ele><time>2026-04-11T12:31:29.688Z</time></trkpt><trkpt lat="38.577945" lon="16.3322615"><ele>798.6666666666666</ele><time>2026-04-11T12:31:30.687Z</time></trkpt><trkpt lat="38.578006" lon="16.3323559"><ele>798.3333333333333</ele><time>2026-04-11T12:31:31.687Z</time></trkpt><trkpt lat="38.5780647" lon="16.3324386"><ele>798.0</ele><time>2026-04-11T12:31:32.687Z</time></trkpt><trkpt lat="38.5781251" lon="16.3325012"><ele>797.6666666666667</ele><time>2026-04-11T12:31:33.687Z</time></trkpt><trkpt lat="38.5781912" lon="16.3325576"><ele>797.3333333333334</ele><time>2026-04-11T12:31:34.687Z</time></trkpt><trkpt lat="38.5782656" lon="16.3326093"><ele>797.0</ele><time>2026-04-11T12:31:35.687Z</time></trkpt><trkpt lat="38.5783442" lon="16.3326744"><ele>797.0</ele><time>2026-04-11T12:31:36.688Z</time></trkpt><trkpt lat="38.5784297" lon="16.3327444"><ele>797.0</ele><time>2026-04-11T12:31:37.687Z</time></trkpt><trkpt lat="38.5785202" lon="16.3328206"><ele>797.0</ele><time>2026-04-11T12:31:38.687Z</time></trkpt><trkpt lat="38.5786107" lon="16.3328961"><ele>797.0</ele><time>2026-04-11T12:31:39.687Z</time></trkpt><trkpt lat="38.5787048" lon="16.3329711"><ele>797.0</ele><time>2026-04-11T12:31:40.688Z</time></trkpt><trkpt lat="38.5788012" lon="16.3330474"><ele>797.25</ele><time>2026-04-11T12:31:41.687Z</time></trkpt><trkpt lat="38.5788967" lon="16.3331197"><ele>797.5</ele><time>2026-04-11T12:31:42.687Z</time></trkpt><trkpt lat="38.5789963" lon="16.3331935"><ele>797.75</ele><time>2026-04-11T12:31:43.687Z</time></trkpt><trkpt lat="38.5791012" lon="16.333276"><ele>798.0</ele><time>2026-04-11T12:31:44.687Z</time></trkpt><trkpt lat="38.579207" lon="16.3333583"><ele>798.0</ele><time>2026-04-11T12:31:45.687Z</time></trkpt><trkpt lat="38.5793015" lon="16.3334279"><ele>798.0</ele><time>2026-04-11T12:31:46.688Z</time></trkpt><trkpt lat="38.5793923" lon="16.3334814"><ele>798.0</ele><time>2026-04-11T12:31:47.688Z</time></trkpt><trkpt lat="38.579485" lon="16.3335046"><ele>798.0</ele><time>2026-04-11T12:31:48.688Z</time></trkpt><trkpt lat="38.5795829" lon="16.3335052"><ele>798.0</ele><time>2026-04-11T12:31:49.688Z</time></trkpt><trkpt lat="38.5796845" lon="16.3334882"><ele>798.0</ele><time>2026-04-11T12:31:50.687Z</time></trkpt><trkpt lat="38.5797836" lon="16.3334345"><ele>798.0</ele><time>2026-04-11T12:31:51.687Z</time></trkpt><trkpt lat="38.5798864" lon="16.3333822"><ele>798.0</ele><time>2026-04-11T12:31:52.688Z</time></trkpt><trkpt lat="38.5799899" lon="16.3333228"><ele>798.0</ele><time>2026-04-11T12:31:53.687Z</time></trkpt><trkpt lat="38.5801012" lon="16.3332588"><ele>798.0</ele><time>2026-04-11T12:31:54.687Z</time></trkpt><trkpt lat="38.5802069" lon="16.3332015"><ele>798.0</ele><time>2026-04-11T12:31:55.687Z</time></trkpt><trkpt lat="38.5803125" lon="16.3331438"><ele>798.0</ele><time>2026-04-11T12:31:56.687Z</time></trkpt><trkpt lat="38.5804116" lon="16.3330904"><ele>798.0</ele><time>2026-04-11T12:31:57.687Z</time></trkpt><trkpt lat="38.5804996" lon="16.3330409"><ele>798.0</ele><time>2026-04-11T12:31:58.688Z</time></trkpt><trkpt lat="38.5805872" lon="16.3329885"><ele>797.5999999999999</ele><time>2026-04-11T12:31:59.688Z</time></trkpt><trkpt lat="38.5806719" lon="16.3329459"><ele>797.1999999999999</ele><time>2026-04-11T12:32:00.687Z</time></trkpt><trkpt lat="38.5807535" lon="16.3329107"><ele>796.8</ele><time>2026-04-11T12:32:01.688Z</time></trkpt><trkpt lat="38.5808363" lon="16.3328789"><ele>796.4</ele><time>2026-04-11T12:32:02.687Z</time></trkpt><trkpt lat="38.5809255" lon="16.3328557"><ele>796.0</ele><time>2026-04-11T12:32:03.687Z</time></trkpt><trkpt lat="38.5810249" lon="16.3328459"><ele>796.0</ele><time>2026-04-11T12:32:04.687Z</time></trkpt><trkpt lat="38.5811328" lon="16.3328536"><ele>796.0</ele><time>2026-04-11T12:32:05.688Z</time></trkpt><trkpt lat="38.5812394" lon="16.3328784"><ele>796.0</ele><time>2026-04-11T12:32:06.687Z</time></trkpt><trkpt lat="38.5813408" lon="16.3329183"><ele>796.0</ele><time>2026-04-11T12:32:07.688Z</time></trkpt><trkpt lat="38.5814304" lon="16.3329578"><ele>796.0</ele><time>2026-04-11T12:32:08.687Z</time></trkpt><trkpt lat="38.5815134" lon="16.332993"><ele>796.0</ele><time>2026-04-11T12:32:09.687Z</time></trkpt><trkpt lat="38.5815986" lon="16.3330232"><ele>796.0</ele><time>2026-04-11T12:32:10.687Z</time></trkpt><trkpt lat="38.5816854" lon="16.3330587"><ele>796.0</ele><time>2026-04-11T12:32:11.688Z</time></trkpt><trkpt lat="38.5817713" lon="16.3331073"><ele>796.0</ele><time>2026-04-11T12:32:12.688Z</time></trkpt><trkpt lat="38.581868" lon="16.333171"><ele>796.0</ele><time>2026-04-11T12:32:13.687Z</time></trkpt><trkpt lat="38.5819721" lon="16.333249"><ele>797.75</ele><time>2026-04-11T12:32:14.687Z</time></trkpt><trkpt lat="38.5820729" lon="16.3333315"><ele>799.5</ele><time>2026-04-11T12:32:15.686Z</time></trkpt><trkpt lat="38.5821676" lon="16.3334135"><ele>801.25</ele><time>2026-04-11T12:32:16.686Z</time></trkpt><trkpt lat="38.5822615" lon="16.3335021"><ele>803.0</ele><time>2026-04-11T12:32:17.687Z</time></trkpt><trkpt lat="38.582366" lon="16.3335927"><ele>803.0</ele><time>2026-04-11T12:32:18.686Z</time></trkpt><trkpt lat="38.5824754" lon="16.3336933"><ele>803.0</ele><time>2026-04-11T12:32:19.686Z</time></trkpt><trkpt lat="38.5825788" lon="16.3337954"><ele>803.0</ele><time>2026-04-11T12:32:20.686Z</time></trkpt><trkpt lat="38.5826894" lon="16.3338993"><ele>803.0</ele><time>2026-04-11T12:32:21.686Z</time></trkpt><trkpt lat="38.5827922" lon="16.3340112"><ele>804.0</ele><time>2026-04-11T12:32:22.687Z</time></trkpt><trkpt lat="38.5829028" lon="16.3341255"><ele>805.0</ele><time>2026-04-11T12:32:23.687Z</time></trkpt><trkpt lat="38.5830204" lon="16.3342275"><ele>806.0</ele><time>2026-04-11T12:32:24.686Z</time></trkpt><trkpt lat="38.5831421" lon="16.3343276"><ele>807.0</ele><time>2026-04-11T12:32:25.687Z</time></trkpt><trkpt lat="38.583258" lon="16.3344209"><ele>807.0</ele><time>2026-04-11T12:32:26.687Z</time></trkpt><trkpt lat="38.5833672" lon="16.3345126"><ele>807.0</ele><time>2026-04-11T12:32:27.686Z</time></trkpt><trkpt lat="38.5834756" lon="16.3346104"><ele>807.0</ele><time>2026-04-11T12:32:28.687Z</time></trkpt><trkpt lat="38.5835837" lon="16.3347099"><ele>807.0</ele><time>2026-04-11T12:32:29.686Z</time></trkpt><trkpt lat="38.5836948" lon="16.3348104"><ele>807.3333333333333</ele><time>2026-04-11T12:32:30.687Z</time></trkpt><trkpt lat="38.5838096" lon="16.3349249"><ele>807.6666666666666</ele><time>2026-04-11T12:32:31.686Z</time></trkpt><trkpt lat="38.5839354" lon="16.3350449"><ele>808.0</ele><time>2026-04-11T12:32:32.687Z</time></trkpt><trkpt lat="38.5840628" lon="16.3351727"><ele>808.0</ele><time>2026-04-11T12:32:33.686Z</time></trkpt><trkpt lat="38.5841876" lon="16.3352962"><ele>808.0</ele><time>2026-04-11T12:32:34.687Z</time></trkpt><trkpt lat="38.5843037" lon="16.3354058"><ele>808.0</ele><time>2026-04-11T12:32:35.686Z</time></trkpt><trkpt lat="38.5843988" lon="16.3355185"><ele>808.0</ele><time>2026-04-11T12:32:36.686Z</time></trkpt><trkpt lat="38.5844768" lon="16.3356504"><ele>808.75</ele><time>2026-04-11T12:32:37.687Z</time></trkpt><trkpt lat="38.5845383" lon="16.3357975"><ele>809.5</ele><time>2026-04-11T12:32:38.686Z</time></trkpt><trkpt lat="38.584594" lon="16.3359533"><ele>810.25</ele><time>2026-04-11T12:32:39.687Z</time></trkpt><trkpt lat="38.584644" lon="16.3361207"><ele>811.0</ele><time>2026-04-11T12:32:40.686Z</time></trkpt><trkpt lat="38.584692" lon="16.3362867"><ele>809.5</ele><time>2026-04-11T12:32:41.686Z</time></trkpt><trkpt lat="38.584733" lon="16.3364439"><ele>808.0</ele><time>2026-04-11T12:32:42.687Z</time></trkpt><trkpt lat="38.5847773" lon="16.3365851"><ele>806.5</ele><time>2026-04-11T12:32:43.687Z</time></trkpt><trkpt lat="38.584849" lon="16.3367019"><ele>805.0</ele><time>2026-04-11T12:32:44.686Z</time></trkpt><trkpt lat="38.5849469" lon="16.3367657"><ele>805.0</ele><time>2026-04-11T12:32:45.687Z</time></trkpt><trkpt lat="38.5850535" lon="16.336792"><ele>805.0</ele><time>2026-04-11T12:32:46.687Z</time></trkpt><trkpt lat="38.5851608" lon="16.3367675"><ele>805.0</ele><time>2026-04-11T12:32:47.686Z</time></trkpt><trkpt lat="38.5852647" lon="16.336686"><ele>805.0</ele><time>2026-04-11T12:32:48.687Z</time></trkpt><trkpt lat="38.5853594" lon="16.3365497"><ele>804.5</ele><time>2026-04-11T12:32:49.686Z</time></trkpt><trkpt lat="38.5854271" lon="16.3363785"><ele>804.0</ele><time>2026-04-11T12:32:50.687Z</time></trkpt><trkpt lat="38.5854693" lon="16.3361985"><ele>803.5</ele><time>2026-04-11T12:32:51.686Z</time></trkpt><trkpt lat="38.5854859" lon="16.3360229"><ele>803.0</ele><time>2026-04-11T12:32:52.686Z</time></trkpt><trkpt lat="38.5854877" lon="16.3358701"><ele>803.0</ele><time>2026-04-11T12:32:53.686Z</time></trkpt><trkpt lat="38.5855064" lon="16.3357443"><ele>803.0</ele><time>2026-04-11T12:32:54.686Z</time></trkpt><trkpt lat="38.5855547" lon="16.3356575"><ele>803.0</ele><time>2026-04-11T12:32:55.686Z</time></trkpt><trkpt lat="38.5856356" lon="16.3356094"><ele>803.0</ele><time>2026-04-11T12:32:56.687Z</time></trkpt><trkpt lat="38.5857291" lon="16.3355983"><ele>803.0</ele><time>2026-04-11T12:32:57.686Z</time></trkpt><trkpt lat="38.585827" lon="16.3356184"><ele>803.0</ele><time>2026-04-11T12:32:58.687Z</time></trkpt><trkpt lat="38.5859338" lon="16.3356804"><ele>803.0</ele><time>2026-04-11T12:32:59.687Z</time></trkpt><trkpt lat="38.5860317" lon="16.335778"><ele>803.0</ele><time>2026-04-11T12:33:00.687Z</time></trkpt><trkpt lat="38.5861157" lon="16.3359036"><ele>803.0</ele><time>2026-04-11T12:33:01.686Z</time></trkpt><trkpt lat="38.5861772" lon="16.336065"><ele>804.0</ele><time>2026-04-11T12:33:02.686Z</time></trkpt><trkpt lat="38.5862346" lon="16.3362332"><ele>805.0</ele><time>2026-04-11T12:33:03.686Z</time></trkpt><trkpt lat="38.5863291" lon="16.3363917"><ele>806.0</ele><time>2026-04-11T12:33:04.687Z</time></trkpt><trkpt lat="38.5864665" lon="16.3365147"><ele>806.0</ele><time>2026-04-11T12:33:05.686Z</time></trkpt><trkpt lat="38.586644" lon="16.336603"><ele>806.0</ele><time>2026-04-11T12:33:06.687Z</time></trkpt><trkpt lat="38.5868465" lon="16.336646"><ele>806.0</ele><time>2026-04-11T12:33:07.687Z</time></trkpt><trkpt lat="38.5870703" lon="16.3366277"><ele>806.6666666666667</ele><time>2026-04-11T12:33:08.686Z</time></trkpt><trkpt lat="38.5872837" lon="16.3365596"><ele>807.3333333333333</ele><time>2026-04-11T12:33:09.686Z</time></trkpt><trkpt lat="38.5874512" lon="16.3364453"><ele>808.0</ele><time>2026-04-11T12:33:10.686Z</time></trkpt><trkpt lat="38.5875922" lon="16.3362771"><ele>810.0</ele><time>2026-04-11T12:33:11.687Z</time></trkpt><trkpt lat="38.5877014" lon="16.3361075"><ele>812.0</ele><time>2026-04-11T12:33:12.686Z</time></trkpt><trkpt lat="38.5877941" lon="16.3360086"><ele>814.0</ele><time>2026-04-11T12:33:13.687Z</time></trkpt><trkpt lat="38.5878946" lon="16.3359755"><ele>816.0</ele><time>2026-04-11T12:33:14.687Z</time></trkpt><trkpt lat="38.5880081" lon="16.3360021"><ele>816.0</ele><time>2026-04-11T12:33:15.687Z</time></trkpt><trkpt lat="38.5881283" lon="16.3360655"><ele>816.0</ele><time>2026-04-11T12:33:16.687Z</time></trkpt><trkpt lat="38.5882493" lon="16.3361457"><ele>816.0</ele><time>2026-04-11T12:33:17.686Z</time></trkpt><trkpt lat="38.5883784" lon="16.3362163"><ele>816.0</ele><time>2026-04-11T12:33:18.686Z</time></trkpt><trkpt lat="38.5884995" lon="16.3362837"><ele>816.0</ele><time>2026-04-11T12:33:19.686Z</time></trkpt><trkpt lat="38.588628" lon="16.3363499"><ele>816.0</ele><time>2026-04-11T12:33:20.686Z</time></trkpt><trkpt lat="38.5887612" lon="16.3364129"><ele>816.0</ele><time>2026-04-11T12:33:21.686Z</time></trkpt><trkpt lat="38.5888893" lon="16.3364622"><ele>816.0</ele><time>2026-04-11T12:33:22.686Z</time></trkpt><trkpt lat="38.5890054" lon="16.3364994"><ele>815.5999999999999</ele><time>2026-04-11T12:33:23.687Z</time></trkpt><trkpt lat="38.5891095" lon="16.3365423"><ele>815.2</ele><time>2026-04-11T12:33:24.686Z</time></trkpt><trkpt lat="38.5891973" lon="16.3365909"><ele>814.8</ele><time>2026-04-11T12:33:25.686Z</time></trkpt><trkpt lat="38.5892763" lon="16.3366463"><ele>814.4000000000001</ele><time>2026-04-11T12:33:26.686Z</time></trkpt><trkpt lat="38.5893538" lon="16.3367012"><ele>814.0</ele><time>2026-04-11T12:33:27.687Z</time></trkpt><trkpt lat="38.5894321" lon="16.3367499"><ele>814.0</ele><time>2026-04-11T12:33:28.687Z</time></trkpt><trkpt lat="38.5895088" lon="16.3367999"><ele>814.0</ele><time>2026-04-11T12:33:29.686Z</time></trkpt><trkpt lat="38.5895836" lon="16.3368573"><ele>814.0</ele><time>2026-04-11T12:33:30.686Z</time></trkpt><trkpt lat="38.5896601" lon="16.3369205"><ele>814.0</ele><time>2026-04-11T12:33:31.686Z</time></trkpt><trkpt lat="38.5897418" lon="16.3369806"><ele>814.0</ele><time>2026-04-11T12:33:32.687Z</time></trkpt><trkpt lat="38.5898298" lon="16.3370445"><ele>814.0</ele><time>2026-04-11T12:33:33.686Z</time></trkpt><trkpt lat="38.5899302" lon="16.3371128"><ele>814.0</ele><time>2026-04-11T12:33:34.686Z</time></trkpt><trkpt lat="38.5900357" lon="16.3371844"><ele>814.0</ele><time>2026-04-11T12:33:35.686Z</time></trkpt><trkpt lat="38.5901479" lon="16.3372561"><ele>814.0</ele><time>2026-04-11T12:33:36.687Z</time></trkpt><trkpt lat="38.5902634" lon="16.337325"><ele>812.75</ele><time>2026-04-11T12:33:37.687Z</time></trkpt><trkpt lat="38.5903817" lon="16.337396"><ele>811.5</ele><time>2026-04-11T12:33:38.687Z</time></trkpt><trkpt lat="38.5905018" lon="16.3374691"><ele>810.25</ele><time>2026-04-11T12:33:39.686Z</time></trkpt><trkpt lat="38.5906233" lon="16.337544"><ele>809.0</ele><time>2026-04-11T12:33:40.686Z</time></trkpt><trkpt lat="38.5907479" lon="16.3376195"><ele>809.0</ele><time>2026-04-11T12:33:41.686Z</time></trkpt><trkpt lat="38.5908774" lon="16.337701"><ele>809.0</ele><time>2026-04-11T12:33:42.686Z</time></trkpt><trkpt lat="38.5910077" lon="16.3377773"><ele>809.0</ele><time>2026-04-11T12:33:43.686Z</time></trkpt><trkpt lat="38.5911427" lon="16.3378551"><ele>809.0</ele><time>2026-04-11T12:33:44.686Z</time></trkpt><trkpt lat="38.5912734" lon="16.3379353"><ele>808.75</ele><time>2026-04-11T12:33:45.686Z</time></trkpt><trkpt lat="38.5914072" lon="16.3380175"><ele>808.5</ele><time>2026-04-11T12:33:46.687Z</time></trkpt><trkpt lat="38.5915357" lon="16.3380932"><ele>808.25</ele><time>2026-04-11T12:33:47.686Z</time></trkpt><trkpt lat="38.591662" lon="16.338144"><ele>808.0</ele><time>2026-04-11T12:33:48.687Z</time></trkpt><trkpt lat="38.5917865" lon="16.338152"><ele>808.0</ele><time>2026-04-11T12:33:49.686Z</time></trkpt><trkpt lat="38.5919052" lon="16.3380996"><ele>808.0</ele><time>2026-04-11T12:33:50.686Z</time></trkpt><trkpt lat="38.5920104" lon="16.3379938"><ele>808.0</ele><time>2026-04-11T12:33:51.687Z</time></trkpt><trkpt lat="38.5921134" lon="16.3378631"><ele>808.0</ele><time>2026-04-11T12:33:52.686Z</time></trkpt><trkpt lat="38.5922073" lon="16.3377225"><ele>806.0</ele><time>2026-04-11T12:33:53.687Z</time></trkpt><trkpt lat="38.5923027" lon="16.3375796"><ele>804.0</ele><time>2026-04-11T12:33:54.686Z</time></trkpt><trkpt lat="38.5924001" lon="16.3374533"><ele>802.0</ele><time>2026-04-11T12:33:55.687Z</time></trkpt><trkpt lat="38.5925184" lon="16.337337"><ele>800.0</ele><time>2026-04-11T12:33:56.686Z</time></trkpt><trkpt lat="38.5926559" lon="16.3372404"><ele>798.6666666666667</ele><time>2026-04-11T12:33:57.686Z</time></trkpt><trkpt lat="38.5928022" lon="16.3371507"><ele>797.3333333333333</ele><time>2026-04-11T12:33:58.686Z</time></trkpt><trkpt lat="38.5929586" lon="16.3370485"><ele>796.0</ele><time>2026-04-11T12:33:59.687Z</time></trkpt><trkpt lat="38.5931151" lon="16.3369447"><ele>796.0</ele><time>2026-04-11T12:34:00.686Z</time></trkpt><trkpt lat="38.5932645" lon="16.3368429"><ele>796.0</ele><time>2026-04-11T12:34:01.686Z</time></trkpt><trkpt lat="38.5934067" lon="16.3367481"><ele>796.0</ele><time>2026-04-11T12:34:02.687Z</time></trkpt><trkpt lat="38.5935374" lon="16.3366603"><ele>796.0</ele><time>2026-04-11T12:34:03.686Z</time></trkpt><trkpt lat="38.593657" lon="16.3365895"><ele>796.0</ele><time>2026-04-11T12:34:04.686Z</time></trkpt><trkpt lat="38.593759" lon="16.3365546"><ele>796.0</ele><time>2026-04-11T12:34:05.686Z</time></trkpt><trkpt lat="38.5938543" lon="16.3365592"><ele>796.0</ele><time>2026-04-11T12:34:06.686Z</time></trkpt><trkpt lat="38.5939342" lon="16.336622"><ele>796.0</ele><time>2026-04-11T12:34:07.686Z</time></trkpt><trkpt lat="38.5939943" lon="16.3367447"><ele>794.6666666666666</ele><time>2026-04-11T12:34:08.686Z</time></trkpt><trkpt lat="38.5940333" lon="16.3369111"><ele>793.3333333333333</ele><time>2026-04-11T12:34:09.687Z</time></trkpt><trkpt lat="38.5940887" lon="16.337096"><ele>792.0</ele><time>2026-04-11T12:34:10.687Z</time></trkpt><trkpt lat="38.5941543" lon="16.3372853"><ele>792.0</ele><time>2026-04-11T12:34:11.687Z</time></trkpt><trkpt lat="38.5942386" lon="16.3374706"><ele>792.0</ele><time>2026-04-11T12:34:12.687Z</time></trkpt><trkpt lat="38.5943193" lon="16.3376596"><ele>792.0</ele><time>2026-04-11T12:34:13.686Z</time></trkpt><trkpt lat="38.5943778" lon="16.3378536"><ele>792.0</ele><time>2026-04-11T12:34:14.687Z</time></trkpt><trkpt lat="38.5944415" lon="16.3380384"><ele>792.0</ele><time>2026-04-11T12:34:15.686Z</time></trkpt><trkpt lat="38.5945231" lon="16.338204"><ele>792.0</ele><time>2026-04-11T12:34:16.686Z</time></trkpt><trkpt lat="38.594652" lon="16.3383389"><ele>790.3333333333333</ele><time>2026-04-11T12:34:17.687Z</time></trkpt><trkpt lat="38.5947955" lon="16.3384548"><ele>788.6666666666666</ele><time>2026-04-11T12:34:18.686Z</time></trkpt><trkpt lat="38.5949486" lon="16.3385605"><ele>787.0</ele><time>2026-04-11T12:34:19.687Z</time></trkpt><trkpt lat="38.5951007" lon="16.3386748"><ele>787.0</ele><time>2026-04-11T12:34:20.687Z</time></trkpt><trkpt lat="38.5952362" lon="16.3387939"><ele>787.0</ele><time>2026-04-11T12:34:21.687Z</time></trkpt><trkpt lat="38.5953769" lon="16.3389096"><ele>787.0</ele><time>2026-04-11T12:34:22.687Z</time></trkpt><trkpt lat="38.5955174" lon="16.3390229"><ele>784.0</ele><time>2026-04-11T12:34:23.687Z</time></trkpt><trkpt lat="38.5956487" lon="16.3391366"><ele>781.0</ele><time>2026-04-11T12:34:24.686Z</time></trkpt><trkpt lat="38.5957791" lon="16.3392554"><ele>778.0</ele><time>2026-04-11T12:34:25.687Z</time></trkpt><trkpt lat="38.5958947" lon="16.3393952"><ele>778.0</ele><time>2026-04-11T12:34:26.687Z</time></trkpt><trkpt lat="38.5960076" lon="16.3395647"><ele>778.0</ele><time>2026-04-11T12:34:27.687Z</time></trkpt><trkpt lat="38.5961207" lon="16.3397528"><ele>778.0</ele><time>2026-04-11T12:34:28.686Z</time></trkpt><trkpt lat="38.5962296" lon="16.3399484"><ele>775.3333333333333</ele><time>2026-04-11T12:34:29.686Z</time></trkpt><trkpt lat="38.5963265" lon="16.340128"><ele>772.6666666666667</ele><time>2026-04-11T12:34:30.686Z</time></trkpt><trkpt lat="38.5964176" lon="16.3402924"><ele>770.0</ele><time>2026-04-11T12:34:31.687Z</time></trkpt><trkpt lat="38.596496" lon="16.3404287"><ele>770.0</ele><time>2026-04-11T12:34:32.686Z</time></trkpt><trkpt lat="38.5965685" lon="16.3405505"><ele>770.0</ele><time>2026-04-11T12:34:33.686Z</time></trkpt><trkpt lat="38.5966492" lon="16.3406366"><ele>770.0</ele><time>2026-04-11T12:34:34.686Z</time></trkpt><trkpt lat="38.5967511" lon="16.3406663"><ele>770.0</ele><time>2026-04-11T12:34:35.687Z</time></trkpt><trkpt lat="38.5968692" lon="16.3406379"><ele>770.0</ele><time>2026-04-11T12:34:36.687Z</time></trkpt><trkpt lat="38.5969905" lon="16.3405648"><ele>768.5</ele><time>2026-04-11T12:34:37.687Z</time></trkpt><trkpt lat="38.5970991" lon="16.3404649"><ele>767.0</ele><time>2026-04-11T12:34:38.686Z</time></trkpt><trkpt lat="38.5972015" lon="16.3403687"><ele>765.5</ele><time>2026-04-11T12:34:39.686Z</time></trkpt><trkpt lat="38.5973115" lon="16.3402801"><ele>764.0</ele><time>2026-04-11T12:34:40.686Z</time></trkpt><trkpt lat="38.5974337" lon="16.3401924"><ele>764.0</ele><time>2026-04-11T12:34:41.686Z</time></trkpt><trkpt lat="38.5975616" lon="16.3401203"><ele>764.0</ele><time>2026-04-11T12:34:42.687Z</time></trkpt><trkpt lat="38.5977053" lon="16.340057"><ele>764.0</ele><time>2026-04-11T12:34:43.686Z</time></trkpt><trkpt lat="38.5978507" lon="16.3399945"><ele>764.0</ele><time>2026-04-11T12:34:44.687Z</time></trkpt><trkpt lat="38.5979964" lon="16.3399335"><ele>764.0</ele><time>2026-04-11T12:34:45.686Z</time></trkpt><trkpt lat="38.5981397" lon="16.3398674"><ele>764.0</ele><time>2026-04-11T12:34:46.687Z</time></trkpt><trkpt lat="38.5982771" lon="16.3398094"><ele>764.0</ele><time>2026-04-11T12:34:47.686Z</time></trkpt><trkpt lat="38.5984133" lon="16.3397485"><ele>764.0</ele><time>2026-04-11T12:34:48.686Z</time></trkpt><trkpt lat="38.598539" lon="16.339693"><ele>764.0</ele><time>2026-04-11T12:34:49.687Z</time></trkpt><trkpt lat="38.5986574" lon="16.3396426"><ele>764.0</ele><time>2026-04-11T12:34:50.686Z</time></trkpt><trkpt lat="38.5987661" lon="16.339596"><ele>764.0</ele><time>2026-04-11T12:34:51.687Z</time></trkpt><trkpt lat="38.5988702" lon="16.339551"><ele>764.0</ele><time>2026-04-11T12:34:52.686Z</time></trkpt><trkpt lat="38.5989705" lon="16.3395079"><ele>763.2</ele><time>2026-04-11T12:34:53.687Z</time></trkpt><trkpt lat="38.599067" lon="16.3394631"><ele>762.4000000000001</ele><time>2026-04-11T12:34:54.686Z</time></trkpt><trkpt lat="38.5991633" lon="16.3394165"><ele>761.6</ele><time>2026-04-11T12:34:55.687Z</time></trkpt><trkpt lat="38.5992537" lon="16.3393504"><ele>760.8</ele><time>2026-04-11T12:34:56.686Z</time></trkpt><trkpt lat="38.5993418" lon="16.3392719"><ele>760.0</ele><time>2026-04-11T12:34:57.686Z</time></trkpt><trkpt lat="38.5994235" lon="16.3391767"><ele>760.0</ele><time>2026-04-11T12:34:58.687Z</time></trkpt><trkpt lat="38.5994953" lon="16.3390663"><ele>760.0</ele><time>2026-04-11T12:34:59.687Z</time></trkpt><trkpt lat="38.5995576" lon="16.3389446"><ele>760.0</ele><time>2026-04-11T12:35:00.687Z</time></trkpt><trkpt lat="38.5996176" lon="16.3388175"><ele>760.0</ele><time>2026-04-11T12:35:01.686Z</time></trkpt><trkpt lat="38.5996802" lon="16.3386931"><ele>759.75</ele><time>2026-04-11T12:35:02.686Z</time></trkpt><trkpt lat="38.5997433" lon="16.3385712"><ele>759.5</ele><time>2026-04-11T12:35:03.686Z</time></trkpt><trkpt lat="38.5998093" lon="16.3384555"><ele>759.25</ele><time>2026-04-11T12:35:04.687Z</time></trkpt><trkpt lat="38.5998731" lon="16.3383324"><ele>759.0</ele><time>2026-04-11T12:35:05.686Z</time></trkpt><trkpt lat="38.5999334" lon="16.3382119"><ele>759.0</ele><time>2026-04-11T12:35:06.687Z</time></trkpt><trkpt lat="38.5999904" lon="16.338095"><ele>759.0</ele><time>2026-04-11T12:35:07.686Z</time></trkpt><trkpt lat="38.6000466" lon="16.3379724"><ele>759.0</ele><time>2026-04-11T12:35:08.687Z</time></trkpt><trkpt lat="38.6001046" lon="16.3378547"><ele>759.0</ele><time>2026-04-11T12:35:09.686Z</time></trkpt><trkpt lat="38.6001689" lon="16.3377365"><ele>759.0</ele><time>2026-04-11T12:35:10.686Z</time></trkpt><trkpt lat="38.6002272" lon="16.3376216"><ele>759.0</ele><time>2026-04-11T12:35:11.687Z</time></trkpt><trkpt lat="38.6002905" lon="16.3375106"><ele>759.0</ele><time>2026-04-11T12:35:12.686Z</time></trkpt><trkpt lat="38.6003614" lon="16.3374027"><ele>759.0</ele><time>2026-04-11T12:35:13.687Z</time></trkpt><trkpt lat="38.6004309" lon="16.3373112"><ele>759.0</ele><time>2026-04-11T12:35:14.687Z</time></trkpt><trkpt lat="38.6005033" lon="16.3372302"><ele>759.0</ele><time>2026-04-11T12:35:15.686Z</time></trkpt><trkpt lat="38.600596" lon="16.337179"><ele>759.0</ele><time>2026-04-11T12:35:16.687Z</time></trkpt><trkpt lat="38.6007035" lon="16.3371431"><ele>759.0</ele><time>2026-04-11T12:35:17.686Z</time></trkpt><trkpt lat="38.6008155" lon="16.3371179"><ele>759.0</ele><time>2026-04-11T12:35:18.687Z</time></trkpt><trkpt lat="38.6009265" lon="16.3370907"><ele>759.0</ele><time>2026-04-11T12:35:19.686Z</time></trkpt><trkpt lat="38.6010385" lon="16.3370623"><ele>759.0</ele><time>2026-04-11T12:35:20.686Z</time></trkpt><trkpt lat="38.6011602" lon="16.3370355"><ele>759.0</ele><time>2026-04-11T12:35:21.686Z</time></trkpt><trkpt lat="38.6012721" lon="16.3370013"><ele>759.0</ele><time>2026-04-11T12:35:22.687Z</time></trkpt><trkpt lat="38.6013874" lon="16.3369698"><ele>759.0</ele><time>2026-04-11T12:35:23.687Z</time></trkpt><trkpt lat="38.6014895" lon="16.3369386"><ele>758.8333333333334</ele><time>2026-04-11T12:35:24.686Z</time></trkpt><trkpt lat="38.6015884" lon="16.3369194"><ele>758.6666666666666</ele><time>2026-04-11T12:35:25.686Z</time></trkpt><trkpt lat="38.601677" lon="16.3369047"><ele>758.5</ele><time>2026-04-11T12:35:26.686Z</time></trkpt><trkpt lat="38.6017526" lon="16.3369055"><ele>758.3333333333333</ele><time>2026-04-11T12:35:27.687Z</time></trkpt><trkpt lat="38.6018167" lon="16.3369004"><ele>758.1666666666666</ele><time>2026-04-11T12:35:28.686Z</time></trkpt><trkpt lat="38.6019165" lon="16.3368254"><ele>758.0</ele><time>2026-04-11T12:35:30.686Z</time></trkpt><trkpt lat="38.602044" lon="16.3367988"><ele>757.8333333333333</ele><time>2026-04-11T12:35:32.686Z</time></trkpt><trkpt lat="38.6021516" lon="16.3368314"><ele>757.6666666666666</ele><time>2026-04-11T12:35:34.687Z</time></trkpt><trkpt lat="38.6022199" lon="16.3368764"><ele>757.5</ele><time>2026-04-11T12:35:36.686Z</time></trkpt><trkpt lat="38.6021498" lon="16.3368279"><ele>757.3333333333334</ele><time>2026-04-11T13:50:44.679Z</time></trkpt><trkpt lat="38.6021294" lon="16.3367357"><ele>757.1666666666667</ele><time>2026-04-11T13:50:48.68Z</time></trkpt><trkpt lat="38.602198" lon="16.3366775"><ele>757.0</ele><time>2026-04-11T13:50:51.679Z</time></trkpt><trkpt lat="38.6022665" lon="16.3366107"><ele>757.0</ele><time>2026-04-11T13:50:53.68Z</time></trkpt><trkpt lat="38.6023546" lon="16.3365642"><ele>757.0</ele><time>2026-04-11T13:50:55.679Z</time></trkpt><trkpt lat="38.6024521" lon="16.3365206"><ele>757.0</ele><time>2026-04-11T13:50:57.68Z</time></trkpt><trkpt lat="38.6025544" lon="16.3364556"><ele>757.0</ele><time>2026-04-11T13:50:59.679Z</time></trkpt><trkpt lat="38.6026715" lon="16.3364038"><ele>757.0</ele><time>2026-04-11T13:51:01.68Z</time></trkpt><trkpt lat="38.6027376" lon="16.3363884"><ele>757.3333333333334</ele><time>2026-04-11T13:51:02.68Z</time></trkpt><trkpt lat="38.6028062" lon="16.3363736"><ele>757.6666666666667</ele><time>2026-04-11T13:51:03.679Z</time></trkpt><trkpt lat="38.6028758" lon="16.3363622"><ele>758.0</ele><time>2026-04-11T13:51:04.679Z</time></trkpt><trkpt lat="38.6029535" lon="16.3363527"><ele>758.3333333333334</ele><time>2026-04-11T13:51:05.68Z</time></trkpt><trkpt lat="38.6030323" lon="16.3363458"><ele>758.6666666666666</ele><time>2026-04-11T13:51:06.679Z</time></trkpt><trkpt lat="38.6031142" lon="16.3363477"><ele>759.0</ele><time>2026-04-11T13:51:07.679Z</time></trkpt><trkpt lat="38.6032003" lon="16.3363608"><ele>759.0</ele><time>2026-04-11T13:51:08.679Z</time></trkpt><trkpt lat="38.6032931" lon="16.3363711"><ele>759.0</ele><time>2026-04-11T13:51:09.679Z</time></trkpt><trkpt lat="38.6033869" lon="16.3363798"><ele>759.0</ele><time>2026-04-11T13:51:10.679Z</time></trkpt><trkpt lat="38.6034822" lon="16.3363882"><ele>759.0</ele><time>2026-04-11T13:51:11.679Z</time></trkpt><trkpt lat="38.6035834" lon="16.3363967"><ele>759.0</ele><time>2026-04-11T13:51:12.68Z</time></trkpt><trkpt lat="38.6036745" lon="16.3364107"><ele>758.4000000000001</ele><time>2026-04-11T13:51:13.679Z</time></trkpt><trkpt lat="38.6037669" lon="16.3364213"><ele>757.8</ele><time>2026-04-11T13:51:14.679Z</time></trkpt><trkpt lat="38.603859" lon="16.3364265"><ele>757.2</ele><time>2026-04-11T13:51:15.679Z</time></trkpt><trkpt lat="38.603949" lon="16.3364358"><ele>756.5999999999999</ele><time>2026-04-11T13:51:16.68Z</time></trkpt><trkpt lat="38.6040417" lon="16.3364406"><ele>756.0</ele><time>2026-04-11T13:51:17.679Z</time></trkpt><trkpt lat="38.6041378" lon="16.3364471"><ele>756.0</ele><time>2026-04-11T13:51:18.679Z</time></trkpt><trkpt lat="38.6042332" lon="16.3364624"><ele>756.0</ele><time>2026-04-11T13:51:19.679Z</time></trkpt><trkpt lat="38.6043368" lon="16.3364786"><ele>756.0</ele><time>2026-04-11T13:51:20.68Z</time></trkpt><trkpt lat="38.6044449" lon="16.3364952"><ele>756.0</ele><time>2026-04-11T13:51:21.679Z</time></trkpt><trkpt lat="38.6045475" lon="16.3365122"><ele>756.0</ele><time>2026-04-11T13:51:22.68Z</time></trkpt><trkpt lat="38.604642" lon="16.3365264"><ele>755.5999999999999</ele><time>2026-04-11T13:51:23.679Z</time></trkpt><trkpt lat="38.6047373" lon="16.33654"><ele>755.2</ele><time>2026-04-11T13:51:24.68Z</time></trkpt><trkpt lat="38.6048324" lon="16.3365519"><ele>754.8</ele><time>2026-04-11T13:51:25.679Z</time></trkpt><trkpt lat="38.604927" lon="16.3365632"><ele>754.4000000000001</ele><time>2026-04-11T13:51:26.68Z</time></trkpt><trkpt lat="38.6050217" lon="16.3365675"><ele>754.0</ele><time>2026-04-11T13:51:27.68Z</time></trkpt><trkpt lat="38.6051105" lon="16.3365762"><ele>754.0</ele><time>2026-04-11T13:51:28.679Z</time></trkpt><trkpt lat="38.6052003" lon="16.3365796"><ele>754.0</ele><time>2026-04-11T13:51:29.679Z</time></trkpt><trkpt lat="38.6052902" lon="16.3365914"><ele>754.0</ele><time>2026-04-11T13:51:30.679Z</time></trkpt><trkpt lat="38.6053841" lon="16.3365974"><ele>754.0</ele><time>2026-04-11T13:51:31.679Z</time></trkpt><trkpt lat="38.6054777" lon="16.3366096"><ele>754.0</ele><time>2026-04-11T13:51:32.68Z</time></trkpt><trkpt lat="38.6055744" lon="16.3366173"><ele>753.6</ele><time>2026-04-11T13:51:33.679Z</time></trkpt><trkpt lat="38.6056718" lon="16.3366305"><ele>753.2</ele><time>2026-04-11T13:51:34.68Z</time></trkpt><trkpt lat="38.6057747" lon="16.3366449"><ele>752.8000000000001</ele><time>2026-04-11T13:51:35.68Z</time></trkpt><trkpt lat="38.6058739" lon="16.3366559"><ele>752.4000000000001</ele><time>2026-04-11T13:51:36.68Z</time></trkpt><trkpt lat="38.605978" lon="16.3366654"><ele>752.0</ele><time>2026-04-11T13:51:37.68Z</time></trkpt><trkpt lat="38.606086" lon="16.3366837"><ele>751.8</ele><time>2026-04-11T13:51:38.68Z</time></trkpt><trkpt lat="38.6061973" lon="16.3367011"><ele>751.6</ele><time>2026-04-11T13:51:39.679Z</time></trkpt><trkpt lat="38.6063076" lon="16.3367119"><ele>751.4</ele><time>2026-04-11T13:51:40.68Z</time></trkpt><trkpt lat="38.6064099" lon="16.3367156"><ele>751.1999999999999</ele><time>2026-04-11T13:51:41.679Z</time></trkpt><trkpt lat="38.606498" lon="16.3367032"><ele>751.0</ele><time>2026-04-11T13:51:42.679Z</time></trkpt><trkpt lat="38.6065762" lon="16.3366719"><ele>751.0</ele><time>2026-04-11T13:51:43.679Z</time></trkpt><trkpt lat="38.606652" lon="16.3366315"><ele>751.0</ele><time>2026-04-11T13:51:44.68Z</time></trkpt><trkpt lat="38.6067311" lon="16.3365883"><ele>751.0</ele><time>2026-04-11T13:51:45.679Z</time></trkpt><trkpt lat="38.6068218" lon="16.3365416"><ele>751.0</ele><time>2026-04-11T13:51:46.68Z</time></trkpt><trkpt lat="38.606913" lon="16.3364974"><ele>751.0</ele><time>2026-04-11T13:51:47.68Z</time></trkpt><trkpt lat="38.6069946" lon="16.3364583"><ele>751.1666666666667</ele><time>2026-04-11T13:51:48.679Z</time></trkpt><trkpt lat="38.6070713" lon="16.3364249"><ele>751.3333333333334</ele><time>2026-04-11T13:51:49.679Z</time></trkpt><trkpt lat="38.6071447" lon="16.3363801"><ele>751.5</ele><time>2026-04-11T13:51:50.68Z</time></trkpt><trkpt lat="38.6072254" lon="16.336329"><ele>751.6666666666666</ele><time>2026-04-11T13:51:51.679Z</time></trkpt><trkpt lat="38.6073056" lon="16.3362721"><ele>751.8333333333333</ele><time>2026-04-11T13:51:52.679Z</time></trkpt><trkpt lat="38.6074002" lon="16.336225"><ele>752.0</ele><time>2026-04-11T13:51:53.679Z</time></trkpt><trkpt lat="38.6074957" lon="16.3361822"><ele>752.0</ele><time>2026-04-11T13:51:54.68Z</time></trkpt><trkpt lat="38.6075939" lon="16.3361391"><ele>752.0</ele><time>2026-04-11T13:51:55.679Z</time></trkpt><trkpt lat="38.6076894" lon="16.3360906"><ele>752.0</ele><time>2026-04-11T13:51:56.679Z</time></trkpt><trkpt lat="38.6077797" lon="16.3360474"><ele>752.0</ele><time>2026-04-11T13:51:57.679Z</time></trkpt><trkpt lat="38.6078684" lon="16.3360016"><ele>752.0</ele><time>2026-04-11T13:51:58.679Z</time></trkpt><trkpt lat="38.6079526" lon="16.3359519"><ele>751.8</ele><time>2026-04-11T13:51:59.679Z</time></trkpt><trkpt lat="38.6080343" lon="16.3359018"><ele>751.6</ele><time>2026-04-11T13:52:00.68Z</time></trkpt><trkpt lat="38.6081203" lon="16.3358661"><ele>751.4</ele><time>2026-04-11T13:52:01.679Z</time></trkpt><trkpt lat="38.6082095" lon="16.3358213"><ele>751.1999999999999</ele><time>2026-04-11T13:52:02.68Z</time></trkpt><trkpt lat="38.6082953" lon="16.3357709"><ele>751.0</ele><time>2026-04-11T13:52:03.679Z</time></trkpt><trkpt lat="38.6083861" lon="16.3357237"><ele>751.0</ele><time>2026-04-11T13:52:04.679Z</time></trkpt><trkpt lat="38.6084661" lon="16.335676"><ele>751.0</ele><time>2026-04-11T13:52:05.679Z</time></trkpt><trkpt lat="38.6085405" lon="16.3356303"><ele>751.0</ele><time>2026-04-11T13:52:06.679Z</time></trkpt><trkpt lat="38.6086089" lon="16.3355933"><ele>751.0</ele><time>2026-04-11T13:52:07.679Z</time></trkpt><trkpt lat="38.6086922" lon="16.3355738"><ele>751.0</ele><time>2026-04-11T13:52:08.679Z</time></trkpt><trkpt lat="38.6087665" lon="16.3355309"><ele>751.0</ele><time>2026-04-11T13:52:09.679Z</time></trkpt><trkpt lat="38.608843" lon="16.3354861"><ele>751.3333333333334</ele><time>2026-04-11T13:52:10.679Z</time></trkpt><trkpt lat="38.6089173" lon="16.3354441"><ele>751.6666666666667</ele><time>2026-04-11T13:52:11.679Z</time></trkpt><trkpt lat="38.6090024" lon="16.3353976"><ele>752.0</ele><time>2026-04-11T13:52:12.679Z</time></trkpt><trkpt lat="38.6090819" lon="16.335353"><ele>752.3333333333334</ele><time>2026-04-11T13:52:13.679Z</time></trkpt><trkpt lat="38.6091509" lon="16.3353144"><ele>752.6666666666666</ele><time>2026-04-11T13:52:14.679Z</time></trkpt><trkpt lat="38.6092095" lon="16.335281"><ele>753.0</ele><time>2026-04-11T13:52:15.679Z</time></trkpt><trkpt lat="38.6093136" lon="16.3352342"><ele>753.0</ele><time>2026-04-11T13:52:17.68Z</time></trkpt><trkpt lat="38.6094237" lon="16.3351642"><ele>753.0</ele><time>2026-04-11T13:52:19.679Z</time></trkpt><trkpt lat="38.6094776" lon="16.3351167"><ele>753.0</ele><time>2026-04-11T13:52:20.679Z</time></trkpt><trkpt lat="38.6095274" lon="16.3350458"><ele>753.0</ele><time>2026-04-11T13:52:21.679Z</time></trkpt><trkpt lat="38.6095748" lon="16.3349666"><ele>753.0</ele><time>2026-04-11T13:52:22.679Z</time></trkpt><trkpt lat="38.6096169" lon="16.334883"><ele>753.0</ele><time>2026-04-11T13:52:23.68Z</time></trkpt><trkpt lat="38.6096538" lon="16.334795"><ele>755.2</ele><time>2026-04-11T13:52:24.679Z</time></trkpt><trkpt lat="38.6096844" lon="16.3346914"><ele>757.4</ele><time>2026-04-11T13:52:25.679Z</time></trkpt><trkpt lat="38.609712" lon="16.3345779"><ele>759.6</ele><time>2026-04-11T13:52:26.679Z</time></trkpt><trkpt lat="38.6097388" lon="16.3344618"><ele>761.8000000000001</ele><time>2026-04-11T13:52:27.679Z</time></trkpt><trkpt lat="38.6097742" lon="16.3343479"><ele>764.0</ele><time>2026-04-11T13:52:28.679Z</time></trkpt><trkpt lat="38.6098061" lon="16.3342378"><ele>764.0</ele><time>2026-04-11T13:52:29.68Z</time></trkpt><trkpt lat="38.6098352" lon="16.334141"><ele>764.0</ele><time>2026-04-11T13:52:30.68Z</time></trkpt><trkpt lat="38.6098691" lon="16.3340634"><ele>764.0</ele><time>2026-04-11T13:52:31.68Z</time></trkpt><trkpt lat="38.609923" lon="16.3340044"><ele>764.0</ele><time>2026-04-11T13:52:32.679Z</time></trkpt><trkpt lat="38.6099845" lon="16.3339679"><ele>764.0</ele><time>2026-04-11T13:52:33.68Z</time></trkpt><trkpt lat="38.6100515" lon="16.3339328"><ele>764.0</ele><time>2026-04-11T13:52:34.68Z</time></trkpt><trkpt lat="38.6101251" lon="16.3339201"><ele>764.0</ele><time>2026-04-11T13:52:35.68Z</time></trkpt><trkpt lat="38.610196" lon="16.3339397"><ele>764.0</ele><time>2026-04-11T13:52:36.679Z</time></trkpt><trkpt lat="38.6102587" lon="16.3339694"><ele>764.0</ele><time>2026-04-11T13:52:37.679Z</time></trkpt><trkpt lat="38.6103535" lon="16.3340552"><ele>764.0</ele><time>2026-04-11T13:52:39.68Z</time></trkpt><trkpt lat="38.6104004" lon="16.3341163"><ele>764.0</ele><time>2026-04-11T13:52:40.679Z</time></trkpt><trkpt lat="38.6104713" lon="16.3342247"><ele>764.0</ele><time>2026-04-11T13:52:42.679Z</time></trkpt><trkpt lat="38.610537" lon="16.3343482"><ele>765.0</ele><time>2026-04-11T13:52:44.679Z</time></trkpt><trkpt lat="38.6105736" lon="16.3344156"><ele>766.0</ele><time>2026-04-11T13:52:45.679Z</time></trkpt><trkpt lat="38.6106334" lon="16.3345558"><ele>767.0</ele><time>2026-04-11T13:52:47.679Z</time></trkpt><trkpt lat="38.6106486" lon="16.3347018"><ele>768.0</ele><time>2026-04-11T13:52:49.679Z</time></trkpt><trkpt lat="38.6106739" lon="16.3348267"><ele>769.0</ele><time>2026-04-11T13:52:51.679Z</time></trkpt><trkpt lat="38.6106894" lon="16.3349382"><ele>769.2</ele><time>2026-04-11T13:52:53.679Z</time></trkpt><trkpt lat="38.6107123" lon="16.3350914"><ele>769.4000000000001</ele><time>2026-04-11T13:52:55.68Z</time></trkpt><trkpt lat="38.6107796" lon="16.3352274"><ele>769.6</ele><time>2026-04-11T13:52:57.679Z</time></trkpt><trkpt lat="38.6108682" lon="16.3353087"><ele>769.8</ele><time>2026-04-11T13:52:59.679Z</time></trkpt><trkpt lat="38.6109365" lon="16.3353108"><ele>770.0</ele><time>2026-04-11T13:53:00.679Z</time></trkpt><trkpt lat="38.6110273" lon="16.3353228"><ele>770.0</ele><time>2026-04-11T13:53:01.679Z</time></trkpt><trkpt lat="38.6111236" lon="16.3353174"><ele>770.0</ele><time>2026-04-11T13:53:02.679Z</time></trkpt><trkpt lat="38.6112261" lon="16.3352996"><ele>770.0</ele><time>2026-04-11T13:53:03.679Z</time></trkpt><trkpt lat="38.6113159" lon="16.3352716"><ele>770.0</ele><time>2026-04-11T13:53:04.679Z</time></trkpt><trkpt lat="38.6114083" lon="16.3352614"><ele>770.0</ele><time>2026-04-11T13:53:05.68Z</time></trkpt><trkpt lat="38.6114929" lon="16.3352497"><ele>771.0000000000001</ele><time>2026-04-11T13:53:06.679Z</time></trkpt><trkpt lat="38.6115808" lon="16.3352444"><ele>772.0</ele><time>2026-04-11T13:53:07.679Z</time></trkpt><trkpt lat="38.6116677" lon="16.3352491"><ele>773.0</ele><time>2026-04-11T13:53:08.679Z</time></trkpt><trkpt lat="38.6117586" lon="16.3352881"><ele>774.0</ele><time>2026-04-11T13:53:09.68Z</time></trkpt><trkpt lat="38.6118381" lon="16.3353324"><ele>775.0000000000001</ele><time>2026-04-11T13:53:10.679Z</time></trkpt><trkpt lat="38.6119149" lon="16.335377"><ele>776.0</ele><time>2026-04-11T13:53:11.679Z</time></trkpt><trkpt lat="38.6119932" lon="16.3354378"><ele>776.0</ele><time>2026-04-11T13:53:12.68Z</time></trkpt><trkpt lat="38.612076" lon="16.3355195"><ele>776.0</ele><time>2026-04-11T13:53:13.679Z</time></trkpt><trkpt lat="38.6121594" lon="16.3355972"><ele>776.0</ele><time>2026-04-11T13:53:14.68Z</time></trkpt><trkpt lat="38.6122351" lon="16.3356869"><ele>776.0</ele><time>2026-04-11T13:53:15.679Z</time></trkpt><trkpt lat="38.6123156" lon="16.3357767"><ele>776.0</ele><time>2026-04-11T13:53:16.68Z</time></trkpt><trkpt lat="38.6123793" lon="16.3358624"><ele>776.1999999999999</ele><time>2026-04-11T13:53:17.679Z</time></trkpt><trkpt lat="38.6124425" lon="16.335947"><ele>776.4</ele><time>2026-04-11T13:53:18.679Z</time></trkpt><trkpt lat="38.6124996" lon="16.3360436"><ele>776.6</ele><time>2026-04-11T13:53:19.679Z</time></trkpt><trkpt lat="38.6125591" lon="16.336132"><ele>776.8</ele><time>2026-04-11T13:53:20.679Z</time></trkpt><trkpt lat="38.6126219" lon="16.3362116"><ele>777.0</ele><time>2026-04-11T13:53:21.679Z</time></trkpt><trkpt lat="38.6126839" lon="16.3362927"><ele>778.0</ele><time>2026-04-11T13:53:22.679Z</time></trkpt><trkpt lat="38.6127415" lon="16.3363959"><ele>779.0</ele><time>2026-04-11T13:53:23.679Z</time></trkpt><trkpt lat="38.6128055" lon="16.3364761"><ele>780.0</ele><time>2026-04-11T13:53:24.68Z</time></trkpt><trkpt lat="38.6128703" lon="16.3365589"><ele>781.0</ele><time>2026-04-11T13:53:25.679Z</time></trkpt><trkpt lat="38.613081" lon="16.3368041"><ele>781.0</ele><time>2026-04-11T13:53:28.679Z</time></trkpt><trkpt lat="38.6132249" lon="16.3369775"><ele>781.0</ele><time>2026-04-11T13:53:30.679Z</time></trkpt><trkpt lat="38.6132948" lon="16.3370703"><ele>781.0</ele><time>2026-04-11T13:53:31.679Z</time></trkpt><trkpt lat="38.6133574" lon="16.3371545"><ele>781.0</ele><time>2026-04-11T13:53:32.679Z</time></trkpt><trkpt lat="38.6134232" lon="16.3372373"><ele>781.4999999999999</ele><time>2026-04-11T13:53:33.679Z</time></trkpt><trkpt lat="38.6134855" lon="16.3373061"><ele>782.0</ele><time>2026-04-11T13:53:34.68Z</time></trkpt><trkpt lat="38.6135529" lon="16.337365"><ele>782.5</ele><time>2026-04-11T13:53:35.679Z</time></trkpt><trkpt lat="38.6136239" lon="16.3374149"><ele>783.0</ele><time>2026-04-11T13:53:36.679Z</time></trkpt><trkpt lat="38.6136993" lon="16.3374476"><ele>783.4999999999999</ele><time>2026-04-11T13:53:37.679Z</time></trkpt><trkpt lat="38.6137763" lon="16.3374609"><ele>784.0</ele><time>2026-04-11T13:53:38.679Z</time></trkpt><trkpt lat="38.6138839" lon="16.3374"><ele>784.2</ele><time>2026-04-11T13:53:40.68Z</time></trkpt><trkpt lat="38.6139628" lon="16.3373209"><ele>784.4000000000001</ele><time>2026-04-11T13:53:42.679Z</time></trkpt><trkpt lat="38.6140269" lon="16.337265"><ele>784.6</ele><time>2026-04-11T13:53:44.679Z</time></trkpt><trkpt lat="38.6141046" lon="16.3372014"><ele>784.8</ele><time>2026-04-11T13:53:46.68Z</time></trkpt><trkpt lat="38.614185" lon="16.337126"><ele>785.0</ele><time>2026-04-11T13:53:48.679Z</time></trkpt><trkpt lat="38.6142801" lon="16.3370212"><ele>784.6</ele><time>2026-04-11T13:53:50.679Z</time></trkpt><trkpt lat="38.6143366" lon="16.3369678"><ele>784.2</ele><time>2026-04-11T13:53:51.679Z</time></trkpt><trkpt lat="38.6144008" lon="16.3369074"><ele>783.8</ele><time>2026-04-11T13:53:52.679Z</time></trkpt><trkpt lat="38.6144755" lon="16.3368441"><ele>783.4</ele><time>2026-04-11T13:53:53.68Z</time></trkpt><trkpt lat="38.6145535" lon="16.3367813"><ele>783.0</ele><time>2026-04-11T13:53:54.679Z</time></trkpt><trkpt lat="38.6147911" lon="16.3365682"><ele>782.6666666666667</ele><time>2026-04-11T13:53:57.679Z</time></trkpt><trkpt lat="38.6149626" lon="16.3364016"><ele>782.3333333333334</ele><time>2026-04-11T13:53:59.68Z</time></trkpt><trkpt lat="38.6151424" lon="16.3362373"><ele>782.0</ele><time>2026-04-11T13:54:01.679Z</time></trkpt><trkpt lat="38.6152371" lon="16.3361531"><ele>781.3333333333334</ele><time>2026-04-11T13:54:02.68Z</time></trkpt><trkpt lat="38.6154299" lon="16.3359859"><ele>780.6666666666667</ele><time>2026-04-11T13:54:04.679Z</time></trkpt><trkpt lat="38.6155945" lon="16.335824"><ele>780.0</ele><time>2026-04-11T13:54:06.679Z</time></trkpt><trkpt lat="38.61572" lon="16.3356995"><ele>780.0</ele><time>2026-04-11T13:54:08.68Z</time></trkpt><trkpt lat="38.615787" lon="16.3356393"><ele>780.0</ele><time>2026-04-11T13:54:09.68Z</time></trkpt><trkpt lat="38.6158628" lon="16.3355642"><ele>780.0</ele><time>2026-04-11T13:54:10.68Z</time></trkpt><trkpt lat="38.6160277" lon="16.3354086"><ele>780.0</ele><time>2026-04-11T13:54:12.68Z</time></trkpt><trkpt lat="38.616109" lon="16.3353267"><ele>779.2</ele><time>2026-04-11T13:54:13.68Z</time></trkpt><trkpt lat="38.6161948" lon="16.3352492"><ele>778.4</ele><time>2026-04-11T13:54:14.68Z</time></trkpt><trkpt lat="38.6162829" lon="16.3351642"><ele>777.5999999999999</ele><time>2026-04-11T13:54:15.68Z</time></trkpt><trkpt lat="38.6163714" lon="16.3350786"><ele>776.8</ele><time>2026-04-11T13:54:16.68Z</time></trkpt><trkpt lat="38.6164629" lon="16.3349965"><ele>776.0</ele><time>2026-04-11T13:54:17.68Z</time></trkpt><trkpt lat="38.616733" lon="16.3347258"><ele>776.0</ele><time>2026-04-11T13:54:20.68Z</time></trkpt><trkpt lat="38.6169259" lon="16.3345419"><ele>776.0</ele><time>2026-04-11T13:54:22.679Z</time></trkpt><trkpt lat="38.6171124" lon="16.3343642"><ele>777.6666666666667</ele><time>2026-04-11T13:54:24.68Z</time></trkpt><trkpt lat="38.6172127" lon="16.3342762"><ele>779.3333333333333</ele><time>2026-04-11T13:54:25.679Z</time></trkpt><trkpt lat="38.6174035" lon="16.3341036"><ele>781.0</ele><time>2026-04-11T13:54:27.679Z</time></trkpt><trkpt lat="38.6175003" lon="16.3340235"><ele>781.0</ele><time>2026-04-11T13:54:28.68Z</time></trkpt><trkpt lat="38.6175947" lon="16.3339586"><ele>781.0</ele><time>2026-04-11T13:54:29.679Z</time></trkpt><trkpt lat="38.617697" lon="16.3339089"><ele>781.0</ele><time>2026-04-11T13:54:30.679Z</time></trkpt><trkpt lat="38.6178121" lon="16.3338696"><ele>781.0</ele><time>2026-04-11T13:54:31.679Z</time></trkpt><trkpt lat="38.6179325" lon="16.333862"><ele>781.5</ele><time>2026-04-11T13:54:32.679Z</time></trkpt><trkpt lat="38.6180514" lon="16.3338673"><ele>782.0</ele><time>2026-04-11T13:54:33.68Z</time></trkpt><trkpt lat="38.6181708" lon="16.3338794"><ele>782.5</ele><time>2026-04-11T13:54:34.68Z</time></trkpt><trkpt lat="38.6182806" lon="16.3338902"><ele>783.0</ele><time>2026-04-11T13:54:35.679Z</time></trkpt><trkpt lat="38.6184012" lon="16.3339039"><ele>783.0</ele><time>2026-04-11T13:54:36.679Z</time></trkpt><trkpt lat="38.6185303" lon="16.3339149"><ele>783.0</ele><time>2026-04-11T13:54:37.68Z</time></trkpt><trkpt lat="38.618669" lon="16.3339327"><ele>783.0</ele><time>2026-04-11T13:54:38.679Z</time></trkpt><trkpt lat="38.6187975" lon="16.3339496"><ele>783.0</ele><time>2026-04-11T13:54:39.679Z</time></trkpt><trkpt lat="38.6189241" lon="16.3339638"><ele>784.5999999999999</ele><time>2026-04-11T13:54:40.68Z</time></trkpt><trkpt lat="38.619042" lon="16.3339791"><ele>786.1999999999999</ele><time>2026-04-11T13:54:41.679Z</time></trkpt><trkpt lat="38.6191581" lon="16.3339885"><ele>787.8</ele><time>2026-04-11T13:54:42.679Z</time></trkpt><trkpt lat="38.6192683" lon="16.3339997"><ele>789.4</ele><time>2026-04-11T13:54:43.68Z</time></trkpt><trkpt lat="38.6193667" lon="16.3340024"><ele>791.0</ele><time>2026-04-11T13:54:44.68Z</time></trkpt><trkpt lat="38.6194614" lon="16.334007"><ele>793.1999999999999</ele><time>2026-04-11T13:54:45.68Z</time></trkpt><trkpt lat="38.6195566" lon="16.3340029"><ele>795.4</ele><time>2026-04-11T13:54:46.679Z</time></trkpt><trkpt lat="38.6196564" lon="16.3340005"><ele>797.6</ele><time>2026-04-11T13:54:47.679Z</time></trkpt><trkpt lat="38.6197536" lon="16.3340099"><ele>799.8</ele><time>2026-04-11T13:54:48.68Z</time></trkpt><trkpt lat="38.6198444" lon="16.3340331"><ele>802.0</ele><time>2026-04-11T13:54:49.68Z</time></trkpt><trkpt lat="38.6199206" lon="16.3340939"><ele>802.0</ele><time>2026-04-11T13:54:50.679Z</time></trkpt><trkpt lat="38.6199824" lon="16.3341958"><ele>802.0</ele><time>2026-04-11T13:54:51.68Z</time></trkpt><trkpt lat="38.6200344" lon="16.334314"><ele>802.0</ele><time>2026-04-11T13:54:52.679Z</time></trkpt><trkpt lat="38.6200698" lon="16.3344458"><ele>802.0</ele><time>2026-04-11T13:54:53.679Z</time></trkpt><trkpt lat="38.6201059" lon="16.3345797"><ele>802.0</ele><time>2026-04-11T13:54:54.68Z</time></trkpt><trkpt lat="38.6201498" lon="16.3347155"><ele>801.2</ele><time>2026-04-11T13:54:55.679Z</time></trkpt><trkpt lat="38.6202012" lon="16.3348475"><ele>800.4000000000001</ele><time>2026-04-11T13:54:56.679Z</time></trkpt><trkpt lat="38.6202712" lon="16.3349584"><ele>799.5999999999999</ele><time>2026-04-11T13:54:57.679Z</time></trkpt><trkpt lat="38.6203476" lon="16.3350565"><ele>798.8</ele><time>2026-04-11T13:54:58.679Z</time></trkpt><trkpt lat="38.6204416" lon="16.3351337"><ele>798.0</ele><time>2026-04-11T13:54:59.679Z</time></trkpt><trkpt lat="38.6205427" lon="16.3351963"><ele>800.25</ele><time>2026-04-11T13:55:00.679Z</time></trkpt><trkpt lat="38.6206482" lon="16.3352584"><ele>802.5</ele><time>2026-04-11T13:55:01.679Z</time></trkpt><trkpt lat="38.6207582" lon="16.3353211"><ele>804.75</ele><time>2026-04-11T13:55:02.68Z</time></trkpt><trkpt lat="38.6208698" lon="16.3353844"><ele>807.0</ele><time>2026-04-11T13:55:03.68Z</time></trkpt><trkpt lat="38.6209852" lon="16.3354404"><ele>807.0</ele><time>2026-04-11T13:55:04.679Z</time></trkpt><trkpt lat="38.6210959" lon="16.3354909"><ele>807.0</ele><time>2026-04-11T13:55:05.68Z</time></trkpt><trkpt lat="38.621209" lon="16.3355254"><ele>807.0</ele><time>2026-04-11T13:55:06.68Z</time></trkpt><trkpt lat="38.6213152" lon="16.3355147"><ele>807.0</ele><time>2026-04-11T13:55:07.679Z</time></trkpt><trkpt lat="38.6214075" lon="16.3354644"><ele>807.0</ele><time>2026-04-11T13:55:08.679Z</time></trkpt><trkpt lat="38.6214809" lon="16.3353774"><ele>806.4000000000001</ele><time>2026-04-11T13:55:09.68Z</time></trkpt><trkpt lat="38.6215359" lon="16.3352574"><ele>805.8000000000001</ele><time>2026-04-11T13:55:10.679Z</time></trkpt><trkpt lat="38.6215896" lon="16.3351348"><ele>805.2</ele><time>2026-04-11T13:55:11.68Z</time></trkpt><trkpt lat="38.6216346" lon="16.3350122"><ele>804.6</ele><time>2026-04-11T13:55:12.679Z</time></trkpt><trkpt lat="38.6216676" lon="16.3348848"><ele>804.0</ele><time>2026-04-11T13:55:13.679Z</time></trkpt><trkpt lat="38.6216761" lon="16.3347619"><ele>804.0</ele><time>2026-04-11T13:55:14.68Z</time></trkpt><trkpt lat="38.6216637" lon="16.3346408"><ele>804.0</ele><time>2026-04-11T13:55:15.68Z</time></trkpt><trkpt lat="38.6216137" lon="16.3345201"><ele>804.0</ele><time>2026-04-11T13:55:16.68Z</time></trkpt><trkpt lat="38.6215387" lon="16.3344068"><ele>804.0</ele><time>2026-04-11T13:55:17.679Z</time></trkpt><trkpt lat="38.6214547" lon="16.3342936"><ele>804.0</ele><time>2026-04-11T13:55:18.679Z</time></trkpt><trkpt lat="38.6213707" lon="16.3341782"><ele>804.0</ele><time>2026-04-11T13:55:19.679Z</time></trkpt><trkpt lat="38.621291" lon="16.3340496"><ele>804.0</ele><time>2026-04-11T13:55:20.678Z</time></trkpt><trkpt lat="38.6212158" lon="16.3339161"><ele>804.0</ele><time>2026-04-11T13:55:21.678Z</time></trkpt><trkpt lat="38.6211576" lon="16.3337886"><ele>804.0</ele><time>2026-04-11T13:55:22.678Z</time></trkpt><trkpt lat="38.6211046" lon="16.3336307"><ele>806.25</ele><time>2026-04-11T13:55:23.678Z</time></trkpt><trkpt lat="38.6210745" lon="16.3334666"><ele>808.5</ele><time>2026-04-11T13:55:24.679Z</time></trkpt><trkpt lat="38.6210488" lon="16.3332943"><ele>810.75</ele><time>2026-04-11T13:55:25.678Z</time></trkpt><trkpt lat="38.6210461" lon="16.3331167"><ele>813.0</ele><time>2026-04-11T13:55:26.679Z</time></trkpt><trkpt lat="38.6210586" lon="16.3329332"><ele>814.5</ele><time>2026-04-11T13:55:27.678Z</time></trkpt><trkpt lat="38.6210963" lon="16.3327575"><ele>816.0</ele><time>2026-04-11T13:55:28.679Z</time></trkpt><trkpt lat="38.6211604" lon="16.3326047"><ele>817.5</ele><time>2026-04-11T13:55:29.678Z</time></trkpt><trkpt lat="38.6212353" lon="16.3324774"><ele>819.0</ele><time>2026-04-11T13:55:30.679Z</time></trkpt><trkpt lat="38.6213323" lon="16.3323819"><ele>815.25</ele><time>2026-04-11T13:55:31.678Z</time></trkpt><trkpt lat="38.6214509" lon="16.3323233"><ele>811.5</ele><time>2026-04-11T13:55:32.678Z</time></trkpt><trkpt lat="38.6215896" lon="16.3322963"><ele>807.75</ele><time>2026-04-11T13:55:33.678Z</time></trkpt><trkpt lat="38.6217282" lon="16.3322671"><ele>804.0</ele><time>2026-04-11T13:55:34.679Z</time></trkpt><trkpt lat="38.6218702" lon="16.3322179"><ele>801.0</ele><time>2026-04-11T13:55:35.678Z</time></trkpt><trkpt lat="38.622012" lon="16.3321364"><ele>798.0</ele><time>2026-04-11T13:55:36.679Z</time></trkpt><trkpt lat="38.6221553" lon="16.3320396"><ele>795.0</ele><time>2026-04-11T13:55:37.678Z</time></trkpt><trkpt lat="38.6223038" lon="16.3319315"><ele>795.0</ele><time>2026-04-11T13:55:38.679Z</time></trkpt><trkpt lat="38.6224538" lon="16.3318264"><ele>795.0</ele><time>2026-04-11T13:55:39.679Z</time></trkpt><trkpt lat="38.6226013" lon="16.3317268"><ele>795.0</ele><time>2026-04-11T13:55:40.679Z</time></trkpt><trkpt lat="38.6227466" lon="16.3316346"><ele>793.6666666666667</ele><time>2026-04-11T13:55:41.679Z</time></trkpt><trkpt lat="38.6228886" lon="16.3315367"><ele>792.3333333333334</ele><time>2026-04-11T13:55:42.678Z</time></trkpt><trkpt lat="38.6230261" lon="16.3314336"><ele>791.0</ele><time>2026-04-11T13:55:43.678Z</time></trkpt><trkpt lat="38.6231655" lon="16.3313347"><ele>790.6666666666667</ele><time>2026-04-11T13:55:44.678Z</time></trkpt><trkpt lat="38.6233098" lon="16.3312396"><ele>790.3333333333333</ele><time>2026-04-11T13:55:45.678Z</time></trkpt><trkpt lat="38.6234529" lon="16.3311496"><ele>790.0</ele><time>2026-04-11T13:55:46.678Z</time></trkpt><trkpt lat="38.623595" lon="16.3310749"><ele>792.0</ele><time>2026-04-11T13:55:47.679Z</time></trkpt><trkpt lat="38.6237325" lon="16.3310114"><ele>794.0</ele><time>2026-04-11T13:55:48.679Z</time></trkpt><trkpt lat="38.6238779" lon="16.3309601"><ele>796.0</ele><time>2026-04-11T13:55:49.678Z</time></trkpt><trkpt lat="38.6240332" lon="16.3309114"><ele>796.0</ele><time>2026-04-11T13:55:50.678Z</time></trkpt><trkpt lat="38.624187" lon="16.3308664"><ele>796.0</ele><time>2026-04-11T13:55:51.678Z</time></trkpt><trkpt lat="38.6243302" lon="16.3308167"><ele>796.0</ele><time>2026-04-11T13:55:52.678Z</time></trkpt><trkpt lat="38.6244749" lon="16.3307723"><ele>797.0</ele><time>2026-04-11T13:55:53.678Z</time></trkpt><trkpt lat="38.6246126" lon="16.3307304"><ele>798.0</ele><time>2026-04-11T13:55:54.678Z</time></trkpt><trkpt lat="38.6247515" lon="16.3306867"><ele>799.0</ele><time>2026-04-11T13:55:55.679Z</time></trkpt><trkpt lat="38.6248911" lon="16.3306631"><ele>800.0</ele><time>2026-04-11T13:55:56.678Z</time></trkpt><trkpt lat="38.6250256" lon="16.3306501"><ele>800.0</ele><time>2026-04-11T13:55:57.678Z</time></trkpt><trkpt lat="38.6251649" lon="16.3306453"><ele>800.0</ele><time>2026-04-11T13:55:58.678Z</time></trkpt><trkpt lat="38.6253065" lon="16.3306455"><ele>800.0</ele><time>2026-04-11T13:55:59.678Z</time></trkpt><trkpt lat="38.6254467" lon="16.3306413"><ele>800.0</ele><time>2026-04-11T13:56:00.678Z</time></trkpt><trkpt lat="38.6255878" lon="16.330604"><ele>798.75</ele><time>2026-04-11T13:56:01.678Z</time></trkpt><trkpt lat="38.6257061" lon="16.3305302"><ele>797.5</ele><time>2026-04-11T13:56:02.678Z</time></trkpt><trkpt lat="38.6258065" lon="16.3304209"><ele>796.25</ele><time>2026-04-11T13:56:03.679Z</time></trkpt><trkpt lat="38.6258993" lon="16.3302908"><ele>795.0</ele><time>2026-04-11T13:56:04.678Z</time></trkpt><trkpt lat="38.6259851" lon="16.3301662"><ele>795.0</ele><time>2026-04-11T13:56:05.679Z</time></trkpt><trkpt lat="38.6260689" lon="16.3300412"><ele>795.0</ele><time>2026-04-11T13:56:06.678Z</time></trkpt><trkpt lat="38.6261538" lon="16.3299209"><ele>795.0</ele><time>2026-04-11T13:56:07.679Z</time></trkpt><trkpt lat="38.6262327" lon="16.3297996"><ele>795.0</ele><time>2026-04-11T13:56:08.679Z</time></trkpt><trkpt lat="38.6263141" lon="16.3296845"><ele>795.5</ele><time>2026-04-11T13:56:09.679Z</time></trkpt><trkpt lat="38.626404" lon="16.3295718"><ele>796.0</ele><time>2026-04-11T13:56:10.678Z</time></trkpt><trkpt lat="38.626492" lon="16.3294616"><ele>796.5</ele><time>2026-04-11T13:56:11.679Z</time></trkpt><trkpt lat="38.6265845" lon="16.3293467"><ele>797.0</ele><time>2026-04-11T13:56:12.679Z</time></trkpt><trkpt lat="38.6266776" lon="16.3292249"><ele>797.0</ele><time>2026-04-11T13:56:13.678Z</time></trkpt><trkpt lat="38.6267726" lon="16.3290972"><ele>797.0</ele><time>2026-04-11T13:56:14.678Z</time></trkpt><trkpt lat="38.6268656" lon="16.3289734"><ele>797.0</ele><time>2026-04-11T13:56:15.679Z</time></trkpt><trkpt lat="38.6269681" lon="16.3288511"><ele>797.0</ele><time>2026-04-11T13:56:16.678Z</time></trkpt><trkpt lat="38.6270715" lon="16.3287473"><ele>797.0</ele><time>2026-04-11T13:56:17.679Z</time></trkpt><trkpt lat="38.6271824" lon="16.3286624"><ele>797.0</ele><time>2026-04-11T13:56:18.679Z</time></trkpt><trkpt lat="38.6272849" lon="16.3285795"><ele>797.0</ele><time>2026-04-11T13:56:19.678Z</time></trkpt><trkpt lat="38.6273686" lon="16.3284685"><ele>797.0</ele><time>2026-04-11T13:56:20.678Z</time></trkpt><trkpt lat="38.6274318" lon="16.3283379"><ele>797.0</ele><time>2026-04-11T13:56:21.679Z</time></trkpt><trkpt lat="38.6274808" lon="16.328189"><ele>797.0</ele><time>2026-04-11T13:56:22.678Z</time></trkpt><trkpt lat="38.6275247" lon="16.328039"><ele>797.0</ele><time>2026-04-11T13:56:23.678Z</time></trkpt><trkpt lat="38.6275727" lon="16.3278871"><ele>797.0</ele><time>2026-04-11T13:56:24.679Z</time></trkpt><trkpt lat="38.6276302" lon="16.3277413"><ele>798.0</ele><time>2026-04-11T13:56:25.678Z</time></trkpt><trkpt lat="38.6276989" lon="16.3276101"><ele>799.0</ele><time>2026-04-11T13:56:26.678Z</time></trkpt><trkpt lat="38.6277885" lon="16.3275021"><ele>800.0</ele><time>2026-04-11T13:56:27.678Z</time></trkpt><trkpt lat="38.6278927" lon="16.3274206"><ele>801.0</ele><time>2026-04-11T13:56:28.678Z</time></trkpt><trkpt lat="38.6280087" lon="16.327347"><ele>801.0</ele><time>2026-04-11T13:56:29.678Z</time></trkpt><trkpt lat="38.6281259" lon="16.3272888"><ele>801.0</ele><time>2026-04-11T13:56:30.678Z</time></trkpt><trkpt lat="38.6282364" lon="16.3272215"><ele>801.0</ele><time>2026-04-11T13:56:31.678Z</time></trkpt><trkpt lat="38.6283293" lon="16.3271399"><ele>801.0</ele><time>2026-04-11T13:56:32.679Z</time></trkpt><trkpt lat="38.6283973" lon="16.3270369"><ele>799.75</ele><time>2026-04-11T13:56:33.678Z</time></trkpt><trkpt lat="38.6284363" lon="16.3269088"><ele>798.5</ele><time>2026-04-11T13:56:34.678Z</time></trkpt><trkpt lat="38.6284485" lon="16.3267617"><ele>797.25</ele><time>2026-04-11T13:56:35.678Z</time></trkpt><trkpt lat="38.6284414" lon="16.3266124"><ele>796.0</ele><time>2026-04-11T13:56:36.678Z</time></trkpt><trkpt lat="38.628442" lon="16.3264691"><ele>792.75</ele><time>2026-04-11T13:56:37.678Z</time></trkpt><trkpt lat="38.6284383" lon="16.3263266"><ele>789.5</ele><time>2026-04-11T13:56:38.678Z</time></trkpt><trkpt lat="38.6284257" lon="16.3261776"><ele>786.25</ele><time>2026-04-11T13:56:39.678Z</time></trkpt><trkpt lat="38.6284296" lon="16.3260191"><ele>783.0</ele><time>2026-04-11T13:56:40.679Z</time></trkpt><trkpt lat="38.6284497" lon="16.3258645"><ele>783.0</ele><time>2026-04-11T13:56:41.678Z</time></trkpt><trkpt lat="38.6284959" lon="16.3257235"><ele>783.0</ele><time>2026-04-11T13:56:42.679Z</time></trkpt><trkpt lat="38.628566" lon="16.3255918"><ele>783.0</ele><time>2026-04-11T13:56:43.679Z</time></trkpt><trkpt lat="38.6286516" lon="16.3254687"><ele>783.0</ele><time>2026-04-11T13:56:44.678Z</time></trkpt><trkpt lat="38.6287486" lon="16.325357"><ele>782.25</ele><time>2026-04-11T13:56:45.678Z</time></trkpt><trkpt lat="38.6288419" lon="16.3252573"><ele>781.5</ele><time>2026-04-11T13:56:46.678Z</time></trkpt><trkpt lat="38.628936" lon="16.3251717"><ele>780.75</ele><time>2026-04-11T13:56:47.678Z</time></trkpt><trkpt lat="38.6290329" lon="16.3251058"><ele>780.0</ele><time>2026-04-11T13:56:48.679Z</time></trkpt><trkpt lat="38.6291383" lon="16.3250719"><ele>780.0</ele><time>2026-04-11T13:56:49.678Z</time></trkpt><trkpt lat="38.629246" lon="16.325094"><ele>780.0</ele><time>2026-04-11T13:56:50.678Z</time></trkpt><trkpt lat="38.6293356" lon="16.3251688"><ele>780.0</ele><time>2026-04-11T13:56:51.678Z</time></trkpt><trkpt lat="38.6294067" lon="16.3252901"><ele>780.0</ele><time>2026-04-11T13:56:52.678Z</time></trkpt><trkpt lat="38.629478" lon="16.3254046"><ele>780.0</ele><time>2026-04-11T13:56:53.678Z</time></trkpt><trkpt lat="38.6295725" lon="16.3254869"><ele>776.5</ele><time>2026-04-11T13:56:54.678Z</time></trkpt><trkpt lat="38.6296796" lon="16.3255197"><ele>773.0</ele><time>2026-04-11T13:56:55.679Z</time></trkpt><trkpt lat="38.6297904" lon="16.3254827"><ele>769.5</ele><time>2026-04-11T13:56:56.678Z</time></trkpt><trkpt lat="38.6298887" lon="16.3254045"><ele>766.0</ele><time>2026-04-11T13:56:57.678Z</time></trkpt><trkpt lat="38.6299663" lon="16.3252953"><ele>766.0</ele><time>2026-04-11T13:56:58.678Z</time></trkpt><trkpt lat="38.6300551" lon="16.3252255"><ele>766.0</ele><time>2026-04-11T13:56:59.679Z</time></trkpt><trkpt lat="38.630155" lon="16.3252093"><ele>766.0</ele><time>2026-04-11T13:57:00.679Z</time></trkpt><trkpt lat="38.6302481" lon="16.3252404"><ele>766.0</ele><time>2026-04-11T13:57:01.678Z</time></trkpt><trkpt lat="38.6303281" lon="16.3253195"><ele>766.0</ele><time>2026-04-11T13:57:02.678Z</time></trkpt><trkpt lat="38.6303962" lon="16.325428"><ele>764.8</ele><time>2026-04-11T13:57:03.678Z</time></trkpt><trkpt lat="38.6304646" lon="16.3255344"><ele>763.5999999999999</ele><time>2026-04-11T13:57:04.678Z</time></trkpt><trkpt lat="38.6305485" lon="16.3256279"><ele>762.4</ele><time>2026-04-11T13:57:05.678Z</time></trkpt><trkpt lat="38.6306456" lon="16.3256691"><ele>761.2</ele><time>2026-04-11T13:57:06.679Z</time></trkpt><trkpt lat="38.6307526" lon="16.3256598"><ele>760.0</ele><time>2026-04-11T13:57:07.678Z</time></trkpt><trkpt lat="38.6308503" lon="16.3255928"><ele>760.0</ele><time>2026-04-11T13:57:08.679Z</time></trkpt><trkpt lat="38.6309276" lon="16.3254865"><ele>760.0</ele><time>2026-04-11T13:57:09.679Z</time></trkpt><trkpt lat="38.630979" lon="16.3253587"><ele>760.0</ele><time>2026-04-11T13:57:10.679Z</time></trkpt><trkpt lat="38.6310171" lon="16.3252364"><ele>760.0</ele><time>2026-04-11T13:57:11.679Z</time></trkpt><trkpt lat="38.6310663" lon="16.3251251"><ele>760.0</ele><time>2026-04-11T13:57:12.678Z</time></trkpt><trkpt lat="38.6311434" lon="16.3250474"><ele>758.6</ele><time>2026-04-11T13:57:13.678Z</time></trkpt><trkpt lat="38.6312329" lon="16.3250113"><ele>757.2</ele><time>2026-04-11T13:57:14.679Z</time></trkpt><trkpt lat="38.631328" lon="16.325017"><ele>755.8</ele><time>2026-04-11T13:57:15.678Z</time></trkpt><trkpt lat="38.6314246" lon="16.3250747"><ele>754.4</ele><time>2026-04-11T13:57:16.678Z</time></trkpt><trkpt lat="38.6315223" lon="16.3251714"><ele>753.0</ele><time>2026-04-11T13:57:17.678Z</time></trkpt><trkpt lat="38.6316155" lon="16.3253111"><ele>753.0</ele><time>2026-04-11T13:57:18.678Z</time></trkpt><trkpt lat="38.631698" lon="16.3254567"><ele>753.0</ele><time>2026-04-11T13:57:19.678Z</time></trkpt><trkpt lat="38.6317845" lon="16.3255934"><ele>753.0</ele><time>2026-04-11T13:57:20.678Z</time></trkpt><trkpt lat="38.6318845" lon="16.3257191"><ele>753.0</ele><time>2026-04-11T13:57:21.678Z</time></trkpt><trkpt lat="38.6319978" lon="16.3258219"><ele>752.0</ele><time>2026-04-11T13:57:22.679Z</time></trkpt><trkpt lat="38.6321187" lon="16.325924"><ele>751.0</ele><time>2026-04-11T13:57:23.679Z</time></trkpt><trkpt lat="38.6322347" lon="16.3260252"><ele>750.0</ele><time>2026-04-11T13:57:24.678Z</time></trkpt><trkpt lat="38.6323497" lon="16.3261033"><ele>749.0</ele><time>2026-04-11T13:57:25.679Z</time></trkpt><trkpt lat="38.632456" lon="16.3261644"><ele>749.0</ele><time>2026-04-11T13:57:26.679Z</time></trkpt><trkpt lat="38.6325672" lon="16.3262178"><ele>749.0</ele><time>2026-04-11T13:57:27.679Z</time></trkpt><trkpt lat="38.6326634" lon="16.3262984"><ele>749.0</ele><time>2026-04-11T13:57:28.679Z</time></trkpt><trkpt lat="38.6327471" lon="16.3263989"><ele>749.0</ele><time>2026-04-11T13:57:29.679Z</time></trkpt><trkpt lat="38.6328277" lon="16.32651"><ele>747.4000000000001</ele><time>2026-04-11T13:57:30.679Z</time></trkpt><trkpt lat="38.6328858" lon="16.3266128"><ele>745.8</ele><time>2026-04-11T13:57:31.678Z</time></trkpt><trkpt lat="38.6329344" lon="16.3267196"><ele>744.2</ele><time>2026-04-11T13:57:32.679Z</time></trkpt><trkpt lat="38.6330127" lon="16.3268412"><ele>742.5999999999999</ele><time>2026-04-11T13:57:33.678Z</time></trkpt><trkpt lat="38.633121" lon="16.326923"><ele>741.0</ele><time>2026-04-11T13:57:34.678Z</time></trkpt><trkpt lat="38.6332343" lon="16.3269491"><ele>741.0</ele><time>2026-04-11T13:57:35.678Z</time></trkpt><trkpt lat="38.633343" lon="16.3269235"><ele>741.0</ele><time>2026-04-11T13:57:36.679Z</time></trkpt><trkpt lat="38.6334567" lon="16.3268658"><ele>741.0</ele><time>2026-04-11T13:57:37.678Z</time></trkpt><trkpt lat="38.6335708" lon="16.326802"><ele>741.0</ele><time>2026-04-11T13:57:38.678Z</time></trkpt><trkpt lat="38.633689" lon="16.3267443"><ele>740.0</ele><time>2026-04-11T13:57:39.678Z</time></trkpt><trkpt lat="38.6338152" lon="16.3266913"><ele>739.0</ele><time>2026-04-11T13:57:40.678Z</time></trkpt><trkpt lat="38.6339355" lon="16.3266569"><ele>738.0</ele><time>2026-04-11T13:57:41.678Z</time></trkpt><trkpt lat="38.6340573" lon="16.3266335"><ele>737.0</ele><time>2026-04-11T13:57:42.678Z</time></trkpt><trkpt lat="38.6341678" lon="16.3266247"><ele>737.0000000000001</ele><time>2026-04-11T13:57:43.678Z</time></trkpt><trkpt lat="38.6342576" lon="16.3265952"><ele>737.0</ele><time>2026-04-11T13:57:44.679Z</time></trkpt><trkpt lat="38.6343191" lon="16.3265278"><ele>737.0</ele><time>2026-04-11T13:57:45.678Z</time></trkpt><trkpt lat="38.6343573" lon="16.3264488"><ele>737.0</ele><time>2026-04-11T13:57:46.678Z</time></trkpt><trkpt lat="38.6343637" lon="16.3263599"><ele>737.0</ele><time>2026-04-11T13:57:47.679Z</time></trkpt><trkpt lat="38.6343751" lon="16.3262763"><ele>737.0000000000001</ele><time>2026-04-11T13:57:48.678Z</time></trkpt><trkpt lat="38.6344127" lon="16.3262067"><ele>737.0</ele><time>2026-04-11T13:57:49.678Z</time></trkpt><trkpt lat="38.6345104" lon="16.326141"><ele>738.8</ele><time>2026-04-11T13:57:51.678Z</time></trkpt><trkpt lat="38.6346048" lon="16.3261204"><ele>740.6</ele><time>2026-04-11T13:57:53.679Z</time></trkpt><trkpt lat="38.6347098" lon="16.326142"><ele>742.4</ele><time>2026-04-11T13:57:55.679Z</time></trkpt><trkpt lat="38.6348124" lon="16.326166"><ele>744.1999999999999</ele><time>2026-04-11T13:57:57.678Z</time></trkpt><trkpt lat="38.6349107" lon="16.3262014"><ele>746.0</ele><time>2026-04-11T13:57:59.679Z</time></trkpt><trkpt lat="38.6350177" lon="16.3262337"><ele>746.0</ele><time>2026-04-11T13:58:01.678Z</time></trkpt><trkpt lat="38.6351299" lon="16.3262732"><ele>746.0</ele><time>2026-04-11T13:58:03.678Z</time></trkpt><trkpt lat="38.6352482" lon="16.3263197"><ele>746.0</ele><time>2026-04-11T13:58:05.678Z</time></trkpt><trkpt lat="38.6353083" lon="16.3263459"><ele>746.0</ele><time>2026-04-11T13:58:06.678Z</time></trkpt><trkpt lat="38.6353729" lon="16.3263694"><ele>746.0</ele><time>2026-04-11T13:58:07.679Z</time></trkpt><trkpt lat="38.6354335" lon="16.3263962"><ele>746.0</ele><time>2026-04-11T13:58:08.678Z</time></trkpt><trkpt lat="38.6355025" lon="16.3264183"><ele>745.5</ele><time>2026-04-11T13:58:09.678Z</time></trkpt><trkpt lat="38.6355726" lon="16.3264449"><ele>745.0</ele><time>2026-04-11T13:58:10.678Z</time></trkpt><trkpt lat="38.6356441" lon="16.3264685"><ele>744.5</ele><time>2026-04-11T13:58:11.679Z</time></trkpt><trkpt lat="38.6357222" lon="16.3264964"><ele>744.0</ele><time>2026-04-11T13:58:12.679Z</time></trkpt><trkpt lat="38.6358093" lon="16.3265281"><ele>743.5</ele><time>2026-04-11T13:58:13.678Z</time></trkpt><trkpt lat="38.6359083" lon="16.3265644"><ele>743.0</ele><time>2026-04-11T13:58:14.679Z</time></trkpt><trkpt lat="38.6360085" lon="16.3266039"><ele>743.0</ele><time>2026-04-11T13:58:15.679Z</time></trkpt><trkpt lat="38.6361086" lon="16.3266594"><ele>743.0</ele><time>2026-04-11T13:58:16.679Z</time></trkpt><trkpt lat="38.6361955" lon="16.3267355"><ele>743.0</ele><time>2026-04-11T13:58:17.679Z</time></trkpt><trkpt lat="38.6362679" lon="16.3268384"><ele>743.0</ele><time>2026-04-11T13:58:18.678Z</time></trkpt><trkpt lat="38.6363253" lon="16.3269564"><ele>743.0</ele><time>2026-04-11T13:58:19.678Z</time></trkpt><trkpt lat="38.636371" lon="16.3270992"><ele>743.5</ele><time>2026-04-11T13:58:20.679Z</time></trkpt><trkpt lat="38.6364009" lon="16.3272577"><ele>744.0</ele><time>2026-04-11T13:58:21.678Z</time></trkpt><trkpt lat="38.636404" lon="16.3274276"><ele>744.5</ele><time>2026-04-11T13:58:22.678Z</time></trkpt><trkpt lat="38.6363954" lon="16.327609"><ele>745.0</ele><time>2026-04-11T13:58:23.679Z</time></trkpt><trkpt lat="38.636394" lon="16.3277901"><ele>745.0</ele><time>2026-04-11T13:58:24.678Z</time></trkpt><trkpt lat="38.6364076" lon="16.3279651"><ele>745.0</ele><time>2026-04-11T13:58:25.678Z</time></trkpt><trkpt lat="38.6364157" lon="16.328134"><ele>745.0</ele><time>2026-04-11T13:58:26.678Z</time></trkpt><trkpt lat="38.636419" lon="16.3283004"><ele>745.0</ele><time>2026-04-11T13:58:27.679Z</time></trkpt><trkpt lat="38.6364324" lon="16.3284542"><ele>743.25</ele><time>2026-04-11T13:58:28.679Z</time></trkpt><trkpt lat="38.6364692" lon="16.3286013"><ele>741.5</ele><time>2026-04-11T13:58:29.679Z</time></trkpt><trkpt lat="38.6365372" lon="16.328741"><ele>739.75</ele><time>2026-04-11T13:58:30.678Z</time></trkpt><trkpt lat="38.6366254" lon="16.3288658"><ele>738.0</ele><time>2026-04-11T13:58:31.678Z</time></trkpt><trkpt lat="38.6367194" lon="16.3289887"><ele>737.25</ele><time>2026-04-11T13:58:32.678Z</time></trkpt><trkpt lat="38.6368127" lon="16.329123"><ele>736.5</ele><time>2026-04-11T13:58:33.679Z</time></trkpt><trkpt lat="38.6369003" lon="16.329262"><ele>735.75</ele><time>2026-04-11T13:58:34.678Z</time></trkpt><trkpt lat="38.636984" lon="16.3294009"><ele>735.0</ele><time>2026-04-11T13:58:35.678Z</time></trkpt><trkpt lat="38.637062" lon="16.329551"><ele>738.5</ele><time>2026-04-11T13:58:36.678Z</time></trkpt><trkpt lat="38.6371202" lon="16.329731"><ele>742.0</ele><time>2026-04-11T13:58:37.678Z</time></trkpt><trkpt lat="38.6371461" lon="16.3299065"><ele>745.5</ele><time>2026-04-11T13:58:38.679Z</time></trkpt><trkpt lat="38.6371487" lon="16.3300906"><ele>749.0</ele><time>2026-04-11T13:58:39.678Z</time></trkpt><trkpt lat="38.6371587" lon="16.3302648"><ele>749.0</ele><time>2026-04-11T13:58:40.678Z</time></trkpt><trkpt lat="38.6371909" lon="16.3304334"><ele>749.0</ele><time>2026-04-11T13:58:41.678Z</time></trkpt><trkpt lat="38.6372546" lon="16.3305888"><ele>749.0</ele><time>2026-04-11T13:58:42.678Z</time></trkpt><trkpt lat="38.6373501" lon="16.3307177"><ele>749.0</ele><time>2026-04-11T13:58:43.678Z</time></trkpt><trkpt lat="38.6374599" lon="16.3308297"><ele>748.5</ele><time>2026-04-11T13:58:44.679Z</time></trkpt><trkpt lat="38.6375704" lon="16.3309365"><ele>748.0</ele><time>2026-04-11T13:58:45.678Z</time></trkpt><trkpt lat="38.6376718" lon="16.331073"><ele>747.5</ele><time>2026-04-11T13:58:46.679Z</time></trkpt><trkpt lat="38.6377475" lon="16.3312333"><ele>747.0</ele><time>2026-04-11T13:58:47.679Z</time></trkpt><trkpt lat="38.6378053" lon="16.3313997"><ele>747.0</ele><time>2026-04-11T13:58:48.678Z</time></trkpt><trkpt lat="38.6378409" lon="16.3315834"><ele>747.0</ele><time>2026-04-11T13:58:49.679Z</time></trkpt><trkpt lat="38.6378667" lon="16.3317618"><ele>747.0</ele><time>2026-04-11T13:58:50.679Z</time></trkpt><trkpt lat="38.6378686" lon="16.3319484"><ele>747.0</ele><time>2026-04-11T13:58:51.678Z</time></trkpt><trkpt lat="38.6378586" lon="16.332134"><ele>745.0</ele><time>2026-04-11T13:58:52.679Z</time></trkpt><trkpt lat="38.6378658" lon="16.3323097"><ele>743.0</ele><time>2026-04-11T13:58:53.679Z</time></trkpt><trkpt lat="38.6379046" lon="16.3324899"><ele>741.0</ele><time>2026-04-11T13:58:54.678Z</time></trkpt><trkpt lat="38.6379679" lon="16.3326605"><ele>739.0</ele><time>2026-04-11T13:58:55.678Z</time></trkpt><trkpt lat="38.6380621" lon="16.3328025"><ele>739.0</ele><time>2026-04-11T13:58:56.678Z</time></trkpt><trkpt lat="38.6381751" lon="16.3329296"><ele>739.0</ele><time>2026-04-11T13:58:57.678Z</time></trkpt><trkpt lat="38.6382867" lon="16.333057"><ele>739.0</ele><time>2026-04-11T13:58:58.678Z</time></trkpt><trkpt lat="38.6383951" lon="16.3331896"><ele>735.75</ele><time>2026-04-11T13:58:59.678Z</time></trkpt><trkpt lat="38.6384943" lon="16.3333226"><ele>732.5</ele><time>2026-04-11T13:59:00.678Z</time></trkpt><trkpt lat="38.6385723" lon="16.3334545"><ele>729.25</ele><time>2026-04-11T13:59:01.679Z</time></trkpt><trkpt lat="38.6386264" lon="16.3335969"><ele>726.0</ele><time>2026-04-11T13:59:02.679Z</time></trkpt><trkpt lat="38.638645" lon="16.3337387"><ele>726.0</ele><time>2026-04-11T13:59:03.678Z</time></trkpt><trkpt lat="38.6386222" lon="16.3338863"><ele>726.0</ele><time>2026-04-11T13:59:04.679Z</time></trkpt><trkpt lat="38.6385965" lon="16.3340289"><ele>726.0</ele><time>2026-04-11T13:59:05.678Z</time></trkpt><trkpt lat="38.6385918" lon="16.3341751"><ele>726.0</ele><time>2026-04-11T13:59:06.679Z</time></trkpt><trkpt lat="38.6386281" lon="16.3343155"><ele>725.5</ele><time>2026-04-11T13:59:07.678Z</time></trkpt><trkpt lat="38.6387049" lon="16.3344367"><ele>725.0</ele><time>2026-04-11T13:59:08.679Z</time></trkpt><trkpt lat="38.6388028" lon="16.3345444"><ele>724.5</ele><time>2026-04-11T13:59:09.679Z</time></trkpt><trkpt lat="38.6389075" lon="16.3346338"><ele>724.0</ele><time>2026-04-11T13:59:10.678Z</time></trkpt><trkpt lat="38.6390264" lon="16.3347226"><ele>724.0</ele><time>2026-04-11T13:59:11.679Z</time></trkpt><trkpt lat="38.6391536" lon="16.3348097"><ele>724.0</ele><time>2026-04-11T13:59:12.679Z</time></trkpt><trkpt lat="38.6392852" lon="16.3348996"><ele>724.0</ele><time>2026-04-11T13:59:13.678Z</time></trkpt><trkpt lat="38.6394018" lon="16.3350047"><ele>724.0</ele><time>2026-04-11T13:59:14.679Z</time></trkpt><trkpt lat="38.639489" lon="16.3351169"><ele>727.25</ele><time>2026-04-11T13:59:15.678Z</time></trkpt><trkpt lat="38.6395506" lon="16.3352458"><ele>730.5</ele><time>2026-04-11T13:59:16.678Z</time></trkpt><trkpt lat="38.639561" lon="16.3353888"><ele>733.75</ele><time>2026-04-11T13:59:17.679Z</time></trkpt><trkpt lat="38.6395412" lon="16.3355285"><ele>737.0</ele><time>2026-04-11T13:59:18.679Z</time></trkpt><trkpt lat="38.6394997" lon="16.335663"><ele>731.25</ele><time>2026-04-11T13:59:19.678Z</time></trkpt><trkpt lat="38.639452" lon="16.3357922"><ele>725.5</ele><time>2026-04-11T13:59:20.678Z</time></trkpt><trkpt lat="38.6394091" lon="16.3359211"><ele>719.75</ele><time>2026-04-11T13:59:21.678Z</time></trkpt><trkpt lat="38.6393677" lon="16.3360651"><ele>714.0</ele><time>2026-04-11T13:59:22.679Z</time></trkpt><trkpt lat="38.6393449" lon="16.3362163"><ele>714.0</ele><time>2026-04-11T13:59:23.678Z</time></trkpt><trkpt lat="38.6393565" lon="16.3363657"><ele>714.0</ele><time>2026-04-11T13:59:24.679Z</time></trkpt><trkpt lat="38.6393905" lon="16.3365081"><ele>714.0</ele><time>2026-04-11T13:59:25.678Z</time></trkpt><trkpt lat="38.6394498" lon="16.3366476"><ele>714.0</ele><time>2026-04-11T13:59:26.679Z</time></trkpt><trkpt lat="38.6395292" lon="16.3367662"><ele>716.2</ele><time>2026-04-11T13:59:27.678Z</time></trkpt><trkpt lat="38.6396273" lon="16.3368515"><ele>718.4000000000001</ele><time>2026-04-11T13:59:28.679Z</time></trkpt><trkpt lat="38.6397373" lon="16.3369011"><ele>720.6</ele><time>2026-04-11T13:59:29.679Z</time></trkpt><trkpt lat="38.6398479" lon="16.3368893"><ele>722.8</ele><time>2026-04-11T13:59:30.678Z</time></trkpt><trkpt lat="38.6399438" lon="16.3368513"><ele>725.0</ele><time>2026-04-11T13:59:31.678Z</time></trkpt><trkpt lat="38.6400363" lon="16.3368051"><ele>725.0</ele><time>2026-04-11T13:59:32.679Z</time></trkpt><trkpt lat="38.6401234" lon="16.3367643"><ele>725.0</ele><time>2026-04-11T13:59:33.678Z</time></trkpt><trkpt lat="38.6402064" lon="16.336753"><ele>725.0</ele><time>2026-04-11T13:59:34.678Z</time></trkpt><trkpt lat="38.6402859" lon="16.3367789"><ele>725.0</ele><time>2026-04-11T13:59:35.678Z</time></trkpt><trkpt lat="38.6403638" lon="16.3368321"><ele>725.0</ele><time>2026-04-11T13:59:36.679Z</time></trkpt><trkpt lat="38.6404081" lon="16.3369198"><ele>725.0</ele><time>2026-04-11T13:59:37.678Z</time></trkpt><trkpt lat="38.6404147" lon="16.3370412"><ele>725.6</ele><time>2026-04-11T13:59:38.679Z</time></trkpt><trkpt lat="38.6404138" lon="16.3371835"><ele>726.2</ele><time>2026-04-11T13:59:39.678Z</time></trkpt><trkpt lat="38.6404101" lon="16.3373291"><ele>726.8</ele><time>2026-04-11T13:59:40.678Z</time></trkpt><trkpt lat="38.6404246" lon="16.3374637"><ele>727.4</ele><time>2026-04-11T13:59:41.678Z</time></trkpt><trkpt lat="38.6404556" lon="16.3375782"><ele>728.0</ele><time>2026-04-11T13:59:42.678Z</time></trkpt><trkpt lat="38.6404878" lon="16.337691"><ele>728.0</ele><time>2026-04-11T13:59:43.679Z</time></trkpt><trkpt lat="38.6404978" lon="16.3378032"><ele>728.0</ele><time>2026-04-11T13:59:44.678Z</time></trkpt><trkpt lat="38.6404702" lon="16.3379019"><ele>728.0</ele><time>2026-04-11T13:59:45.678Z</time></trkpt><trkpt lat="38.6404173" lon="16.3380004"><ele>728.0</ele><time>2026-04-11T13:59:46.678Z</time></trkpt><trkpt lat="38.6403674" lon="16.3381041"><ele>728.0</ele><time>2026-04-11T13:59:47.679Z</time></trkpt><trkpt lat="38.640353" lon="16.3382136"><ele>728.0</ele><time>2026-04-11T13:59:48.678Z</time></trkpt><trkpt lat="38.6403718" lon="16.3383242"><ele>727.0</ele><time>2026-04-11T13:59:49.678Z</time></trkpt><trkpt lat="38.6404219" lon="16.3384366"><ele>726.0</ele><time>2026-04-11T13:59:50.678Z</time></trkpt><trkpt lat="38.6404912" lon="16.3385338"><ele>725.0</ele><time>2026-04-11T13:59:51.678Z</time></trkpt><trkpt lat="38.6405442" lon="16.338638"><ele>724.0</ele><time>2026-04-11T13:59:52.679Z</time></trkpt><trkpt lat="38.640575" lon="16.3387588"><ele>723.0</ele><time>2026-04-11T13:59:53.678Z</time></trkpt><trkpt lat="38.6405849" lon="16.3388873"><ele>721.5999999999999</ele><time>2026-04-11T13:59:54.678Z</time></trkpt><trkpt lat="38.6405892" lon="16.3390253"><ele>720.1999999999999</ele><time>2026-04-11T13:59:55.679Z</time></trkpt><trkpt lat="38.6405972" lon="16.3391597"><ele>718.8</ele><time>2026-04-11T13:59:56.678Z</time></trkpt><trkpt lat="38.6406216" lon="16.3392946"><ele>717.4</ele><time>2026-04-11T13:59:57.679Z</time></trkpt><trkpt lat="38.6406731" lon="16.3394252"><ele>716.0</ele><time>2026-04-11T13:59:58.679Z</time></trkpt><trkpt lat="38.6407396" lon="16.3395463"><ele>716.0</ele><time>2026-04-11T13:59:59.679Z</time></trkpt><trkpt lat="38.6408093" lon="16.3396639"><ele>716.0</ele><time>2026-04-11T14:00:00.678Z</time></trkpt><trkpt lat="38.6408824" lon="16.3397856"><ele>716.0</ele><time>2026-04-11T14:00:01.679Z</time></trkpt><trkpt lat="38.6409514" lon="16.3399162"><ele>716.0</ele><time>2026-04-11T14:00:02.678Z</time></trkpt><trkpt lat="38.6410044" lon="16.3400561"><ele>717.0</ele><time>2026-04-11T14:00:03.678Z</time></trkpt><trkpt lat="38.6410385" lon="16.3402018"><ele>718.0</ele><time>2026-04-11T14:00:04.679Z</time></trkpt><trkpt lat="38.6410783" lon="16.3403292"><ele>719.0</ele><time>2026-04-11T14:00:05.679Z</time></trkpt><trkpt lat="38.6411435" lon="16.3404261"><ele>720.0</ele><time>2026-04-11T14:00:06.678Z</time></trkpt><trkpt lat="38.6412279" lon="16.3404815"><ele>721.0</ele><time>2026-04-11T14:00:07.678Z</time></trkpt><trkpt lat="38.6413223" lon="16.3404944"><ele>721.0</ele><time>2026-04-11T14:00:08.679Z</time></trkpt><trkpt lat="38.6414165" lon="16.3404832"><ele>721.0</ele><time>2026-04-11T14:00:09.679Z</time></trkpt><trkpt lat="38.6415031" lon="16.3404691"><ele>721.0</ele><time>2026-04-11T14:00:10.678Z</time></trkpt><trkpt lat="38.6415792" lon="16.3404907"><ele>721.0</ele><time>2026-04-11T14:00:11.679Z</time></trkpt><trkpt lat="38.6416358" lon="16.3405415"><ele>721.0</ele><time>2026-04-11T14:00:12.679Z</time></trkpt><trkpt lat="38.641679" lon="16.340612"><ele>721.0</ele><time>2026-04-11T14:00:13.679Z</time></trkpt><trkpt lat="38.6416921" lon="16.3406998"><ele>719.8</ele><time>2026-04-11T14:00:14.678Z</time></trkpt><trkpt lat="38.6416655" lon="16.3408049"><ele>718.5999999999999</ele><time>2026-04-11T14:00:15.678Z</time></trkpt><trkpt lat="38.6416121" lon="16.3409203"><ele>717.4</ele><time>2026-04-11T14:00:16.679Z</time></trkpt><trkpt lat="38.6415441" lon="16.3410397"><ele>716.2</ele><time>2026-04-11T14:00:17.678Z</time></trkpt><trkpt lat="38.6414663" lon="16.3411581"><ele>715.0</ele><time>2026-04-11T14:00:18.678Z</time></trkpt><trkpt lat="38.6413714" lon="16.3412697"><ele>715.0</ele><time>2026-04-11T14:00:19.679Z</time></trkpt><trkpt lat="38.6412794" lon="16.3413775"><ele>715.0</ele><time>2026-04-11T14:00:20.678Z</time></trkpt><trkpt lat="38.6412006" lon="16.3414804"><ele>715.0</ele><time>2026-04-11T14:00:21.678Z</time></trkpt><trkpt lat="38.6411298" lon="16.3415715"><ele>715.0</ele><time>2026-04-11T14:00:22.679Z</time></trkpt><trkpt lat="38.6410514" lon="16.341635"><ele>715.0</ele><time>2026-04-11T14:00:23.679Z</time></trkpt><trkpt lat="38.6409627" lon="16.3416533"><ele>716.2</ele><time>2026-04-11T14:00:24.678Z</time></trkpt><trkpt lat="38.6408662" lon="16.3416228"><ele>717.4</ele><time>2026-04-11T14:00:25.678Z</time></trkpt><trkpt lat="38.6407658" lon="16.341563"><ele>718.5999999999999</ele><time>2026-04-11T14:00:26.678Z</time></trkpt><trkpt lat="38.6406634" lon="16.3414867"><ele>719.8</ele><time>2026-04-11T14:00:27.679Z</time></trkpt><trkpt lat="38.6405636" lon="16.3414105"><ele>721.0</ele><time>2026-04-11T14:00:28.678Z</time></trkpt><trkpt lat="38.6404607" lon="16.3413302"><ele>719.0</ele><time>2026-04-11T14:00:29.679Z</time></trkpt><trkpt lat="38.6403513" lon="16.3412625"><ele>717.0</ele><time>2026-04-11T14:00:30.678Z</time></trkpt><trkpt lat="38.6402319" lon="16.3411883"><ele>715.0</ele><time>2026-04-11T14:00:31.678Z</time></trkpt><trkpt lat="38.640126" lon="16.3411039"><ele>713.0</ele><time>2026-04-11T14:00:32.678Z</time></trkpt><trkpt lat="38.6400354" lon="16.3410068"><ele>713.0</ele><time>2026-04-11T14:00:33.679Z</time></trkpt><trkpt lat="38.6399507" lon="16.3409002"><ele>713.0</ele><time>2026-04-11T14:00:34.679Z</time></trkpt><trkpt lat="38.6398729" lon="16.3408051"><ele>713.0</ele><time>2026-04-11T14:00:35.679Z</time></trkpt><trkpt lat="38.6397851" lon="16.3407259"><ele>713.0</ele><time>2026-04-11T14:00:36.678Z</time></trkpt><trkpt lat="38.6396764" lon="16.3406768"><ele>713.0</ele><time>2026-04-11T14:00:37.678Z</time></trkpt><trkpt lat="38.6395716" lon="16.340637"><ele>714.5</ele><time>2026-04-11T14:00:38.679Z</time></trkpt><trkpt lat="38.6394624" lon="16.3406025"><ele>716.0</ele><time>2026-04-11T14:00:39.678Z</time></trkpt><trkpt lat="38.6393556" lon="16.3405433"><ele>717.5</ele><time>2026-04-11T14:00:40.679Z</time></trkpt><trkpt lat="38.6392583" lon="16.340458"><ele>719.0</ele><time>2026-04-11T14:00:41.678Z</time></trkpt><trkpt lat="38.6391706" lon="16.3403566"><ele>715.2</ele><time>2026-04-11T14:00:42.678Z</time></trkpt><trkpt lat="38.6390817" lon="16.340272"><ele>711.4000000000001</ele><time>2026-04-11T14:00:43.678Z</time></trkpt><trkpt lat="38.6389903" lon="16.3401997"><ele>707.6</ele><time>2026-04-11T14:00:44.679Z</time></trkpt><trkpt lat="38.6389009" lon="16.3401723"><ele>703.8</ele><time>2026-04-11T14:00:45.678Z</time></trkpt><trkpt lat="38.6388197" lon="16.3401891"><ele>700.0</ele><time>2026-04-11T14:00:46.679Z</time></trkpt><trkpt lat="38.6387428" lon="16.3402653"><ele>700.0</ele><time>2026-04-11T14:00:47.678Z</time></trkpt><trkpt lat="38.6386674" lon="16.340379"><ele>700.0</ele><time>2026-04-11T14:00:48.679Z</time></trkpt><trkpt lat="38.6386056" lon="16.3405127"><ele>700.0</ele><time>2026-04-11T14:00:49.678Z</time></trkpt><trkpt lat="38.6385371" lon="16.3406566"><ele>700.0</ele><time>2026-04-11T14:00:50.679Z</time></trkpt><trkpt lat="38.6384496" lon="16.3408032"><ele>703.0</ele><time>2026-04-11T14:00:51.679Z</time></trkpt><trkpt lat="38.638347" lon="16.340937"><ele>706.0</ele><time>2026-04-11T14:00:52.678Z</time></trkpt><trkpt lat="38.6382417" lon="16.3410688"><ele>709.0</ele><time>2026-04-11T14:00:53.678Z</time></trkpt><trkpt lat="38.6381221" lon="16.3412028"><ele>709.0</ele><time>2026-04-11T14:00:54.678Z</time></trkpt><trkpt lat="38.6379975" lon="16.3413387"><ele>709.0</ele><time>2026-04-11T14:00:55.678Z</time></trkpt><trkpt lat="38.6378916" lon="16.3414808"><ele>709.0</ele><time>2026-04-11T14:00:56.679Z</time></trkpt><trkpt lat="38.6378066" lon="16.3416463"><ele>705.3333333333334</ele><time>2026-04-11T14:00:57.679Z</time></trkpt><trkpt lat="38.6377463" lon="16.3418349"><ele>701.6666666666666</ele><time>2026-04-11T14:00:58.679Z</time></trkpt><trkpt lat="38.6377005" lon="16.3420297"><ele>698.0</ele><time>2026-04-11T14:00:59.678Z</time></trkpt><trkpt lat="38.6376802" lon="16.34221"><ele>698.5</ele><time>2026-04-11T14:01:00.678Z</time></trkpt><trkpt lat="38.6376748" lon="16.3423838"><ele>699.0</ele><time>2026-04-11T14:01:01.679Z</time></trkpt><trkpt lat="38.6376912" lon="16.3425351"><ele>699.5</ele><time>2026-04-11T14:01:02.679Z</time></trkpt><trkpt lat="38.637755" lon="16.3426871"><ele>700.0</ele><time>2026-04-11T14:01:03.679Z</time></trkpt><trkpt lat="38.6378538" lon="16.3427922"><ele>703.5</ele><time>2026-04-11T14:01:04.679Z</time></trkpt><trkpt lat="38.6379708" lon="16.3428649"><ele>707.0</ele><time>2026-04-11T14:01:05.678Z</time></trkpt><trkpt lat="38.638102" lon="16.3429135"><ele>710.5</ele><time>2026-04-11T14:01:06.678Z</time></trkpt><trkpt lat="38.6382345" lon="16.3429437"><ele>714.0</ele><time>2026-04-11T14:01:07.678Z</time></trkpt><trkpt lat="38.6383691" lon="16.3429686"><ele>714.0</ele><time>2026-04-11T14:01:08.679Z</time></trkpt><trkpt lat="38.6385025" lon="16.3429899"><ele>714.0</ele><time>2026-04-11T14:01:09.678Z</time></trkpt><trkpt lat="38.6386225" lon="16.3430393"><ele>714.0</ele><time>2026-04-11T14:01:10.678Z</time></trkpt><trkpt lat="38.6387206" lon="16.3431332"><ele>714.0</ele><time>2026-04-11T14:01:11.678Z</time></trkpt><trkpt lat="38.6388123" lon="16.3432406"><ele>711.75</ele><time>2026-04-11T14:01:12.679Z</time></trkpt><trkpt lat="38.6389246" lon="16.3433346"><ele>709.5</ele><time>2026-04-11T14:01:13.679Z</time></trkpt><trkpt lat="38.6390469" lon="16.3433926"><ele>707.25</ele><time>2026-04-11T14:01:14.678Z</time></trkpt><trkpt lat="38.6391744" lon="16.3434341"><ele>705.0</ele><time>2026-04-11T14:01:15.678Z</time></trkpt><trkpt lat="38.6393048" lon="16.3434915"><ele>705.0</ele><time>2026-04-11T14:01:16.678Z</time></trkpt><trkpt lat="38.63943" lon="16.3435843"><ele>705.0</ele><time>2026-04-11T14:01:17.678Z</time></trkpt><trkpt lat="38.6395294" lon="16.3436987"><ele>705.0</ele><time>2026-04-11T14:01:18.678Z</time></trkpt><trkpt lat="38.6396194" lon="16.3438212"><ele>705.0</ele><time>2026-04-11T14:01:19.678Z</time></trkpt><trkpt lat="38.6397243" lon="16.3439332"><ele>704.0</ele><time>2026-04-11T14:01:20.678Z</time></trkpt><trkpt lat="38.6398401" lon="16.3440274"><ele>703.0</ele><time>2026-04-11T14:01:21.678Z</time></trkpt><trkpt lat="38.6399609" lon="16.3440988"><ele>702.0</ele><time>2026-04-11T14:01:22.678Z</time></trkpt><trkpt lat="38.640081" lon="16.3441529"><ele>701.0</ele><time>2026-04-11T14:01:23.679Z</time></trkpt><trkpt lat="38.6401817" lon="16.3442039"><ele>701.0</ele><time>2026-04-11T14:01:24.678Z</time></trkpt><trkpt lat="38.6402425" lon="16.3442903"><ele>701.0</ele><time>2026-04-11T14:01:25.678Z</time></trkpt><trkpt lat="38.6402685" lon="16.3444068"><ele>701.0</ele><time>2026-04-11T14:01:26.678Z</time></trkpt><trkpt lat="38.6402439" lon="16.3445293"><ele>701.0</ele><time>2026-04-11T14:01:27.678Z</time></trkpt><trkpt lat="38.6401908" lon="16.3446529"><ele>701.0</ele><time>2026-04-11T14:01:28.679Z</time></trkpt><trkpt lat="38.6401264" lon="16.3447755"><ele>701.25</ele><time>2026-04-11T14:01:29.678Z</time></trkpt><trkpt lat="38.6400568" lon="16.3449056"><ele>701.5</ele><time>2026-04-11T14:01:30.679Z</time></trkpt><trkpt lat="38.6399926" lon="16.3450488"><ele>701.75</ele><time>2026-04-11T14:01:31.679Z</time></trkpt><trkpt lat="38.6399487" lon="16.3452051"><ele>702.0</ele><time>2026-04-11T14:01:32.678Z</time></trkpt><trkpt lat="38.6399154" lon="16.3453718"><ele>703.75</ele><time>2026-04-11T14:01:33.678Z</time></trkpt><trkpt lat="38.6398793" lon="16.3455474"><ele>705.5</ele><time>2026-04-11T14:01:34.679Z</time></trkpt><trkpt lat="38.6398437" lon="16.3457182"><ele>707.25</ele><time>2026-04-11T14:01:35.678Z</time></trkpt><trkpt lat="38.6397996" lon="16.3458761"><ele>709.0</ele><time>2026-04-11T14:01:36.678Z</time></trkpt><trkpt lat="38.6397509" lon="16.3460368"><ele>709.0</ele><time>2026-04-11T14:01:37.679Z</time></trkpt><trkpt lat="38.6397105" lon="16.3462031"><ele>709.0</ele><time>2026-04-11T14:01:38.679Z</time></trkpt><trkpt lat="38.6396826" lon="16.3463766"><ele>709.0</ele><time>2026-04-11T14:01:39.678Z</time></trkpt><trkpt lat="38.6396514" lon="16.3465539"><ele>709.0</ele><time>2026-04-11T14:01:40.678Z</time></trkpt><trkpt lat="38.6396361" lon="16.3467194"><ele>709.75</ele><time>2026-04-11T14:01:41.678Z</time></trkpt><trkpt lat="38.6396366" lon="16.3468698"><ele>710.5</ele><time>2026-04-11T14:01:42.679Z</time></trkpt><trkpt lat="38.6396507" lon="16.3470165"><ele>711.25</ele><time>2026-04-11T14:01:43.679Z</time></trkpt><trkpt lat="38.6396939" lon="16.3471546"><ele>712.0</ele><time>2026-04-11T14:01:44.679Z</time></trkpt><trkpt lat="38.6397629" lon="16.3472786"><ele>710.25</ele><time>2026-04-11T14:01:45.678Z</time></trkpt><trkpt lat="38.6398594" lon="16.3473885"><ele>708.5</ele><time>2026-04-11T14:01:46.678Z</time></trkpt><trkpt lat="38.6399617" lon="16.347491"><ele>706.75</ele><time>2026-04-11T14:01:47.678Z</time></trkpt><trkpt lat="38.6400607" lon="16.347568"><ele>705.0</ele><time>2026-04-11T14:01:48.678Z</time></trkpt><trkpt lat="38.6401696" lon="16.3476251"><ele>705.0</ele><time>2026-04-11T14:01:49.678Z</time></trkpt><trkpt lat="38.6402786" lon="16.3476405"><ele>705.0</ele><time>2026-04-11T14:01:50.678Z</time></trkpt><trkpt lat="38.640383" lon="16.3476486"><ele>705.0</ele><time>2026-04-11T14:01:51.679Z</time></trkpt><trkpt lat="38.6404748" lon="16.3476647"><ele>705.0</ele><time>2026-04-11T14:01:52.678Z</time></trkpt><trkpt lat="38.6405406" lon="16.3477133"><ele>705.0</ele><time>2026-04-11T14:01:53.678Z</time></trkpt><trkpt lat="38.6405864" lon="16.3477873"><ele>706.2</ele><time>2026-04-11T14:01:54.678Z</time></trkpt><trkpt lat="38.6406198" lon="16.3478769"><ele>707.4</ele><time>2026-04-11T14:01:55.678Z</time></trkpt><trkpt lat="38.6406199" lon="16.3479918"><ele>708.5999999999999</ele><time>2026-04-11T14:01:56.679Z</time></trkpt><trkpt lat="38.6406071" lon="16.3481252"><ele>709.8</ele><time>2026-04-11T14:01:57.678Z</time></trkpt><trkpt lat="38.6405882" lon="16.3482705"><ele>711.0</ele><time>2026-04-11T14:01:58.678Z</time></trkpt><trkpt lat="38.6405748" lon="16.3484193"><ele>711.0</ele><time>2026-04-11T14:01:59.679Z</time></trkpt><trkpt lat="38.6405506" lon="16.3485657"><ele>711.0</ele><time>2026-04-11T14:02:00.679Z</time></trkpt><trkpt lat="38.6405271" lon="16.348694"><ele>711.0</ele><time>2026-04-11T14:02:01.678Z</time></trkpt><trkpt lat="38.6404792" lon="16.3488267"><ele>711.0</ele><time>2026-04-11T14:02:02.679Z</time></trkpt><trkpt lat="38.6404081" lon="16.3489433"><ele>713.0</ele><time>2026-04-11T14:02:03.678Z</time></trkpt><trkpt lat="38.640322" lon="16.3490465"><ele>715.0</ele><time>2026-04-11T14:02:04.678Z</time></trkpt><trkpt lat="38.6402249" lon="16.3491437"><ele>717.0</ele><time>2026-04-11T14:02:05.678Z</time></trkpt><trkpt lat="38.6401221" lon="16.3492318"><ele>719.0</ele><time>2026-04-11T14:02:06.679Z</time></trkpt><trkpt lat="38.6400137" lon="16.3493111"><ele>713.75</ele><time>2026-04-11T14:02:07.678Z</time></trkpt><trkpt lat="38.639911" lon="16.3493947"><ele>708.5</ele><time>2026-04-11T14:02:08.678Z</time></trkpt><trkpt lat="38.639808" lon="16.349478"><ele>703.25</ele><time>2026-04-11T14:02:09.679Z</time></trkpt><trkpt lat="38.6397092" lon="16.3495791"><ele>698.0</ele><time>2026-04-11T14:02:10.679Z</time></trkpt><trkpt lat="38.6396174" lon="16.3496904"><ele>700.75</ele><time>2026-04-11T14:02:11.678Z</time></trkpt><trkpt lat="38.6395475" lon="16.349831"><ele>703.5</ele><time>2026-04-11T14:02:12.678Z</time></trkpt><trkpt lat="38.6394993" lon="16.3499758"><ele>706.25</ele><time>2026-04-11T14:02:13.678Z</time></trkpt><trkpt lat="38.6394823" lon="16.3501184"><ele>709.0</ele><time>2026-04-11T14:02:14.678Z</time></trkpt><trkpt lat="38.6394891" lon="16.35026"><ele>709.0</ele><time>2026-04-11T14:02:15.678Z</time></trkpt><trkpt lat="38.6395233" lon="16.3503874"><ele>709.0</ele><time>2026-04-11T14:02:16.678Z</time></trkpt><trkpt lat="38.6395912" lon="16.3504919"><ele>709.0</ele><time>2026-04-11T14:02:17.678Z</time></trkpt><trkpt lat="38.6396807" lon="16.3505749"><ele>709.0</ele><time>2026-04-11T14:02:18.678Z</time></trkpt><trkpt lat="38.6397828" lon="16.3506246"><ele>709.0</ele><time>2026-04-11T14:02:19.679Z</time></trkpt><trkpt lat="38.6399042" lon="16.3506513"><ele>707.75</ele><time>2026-04-11T14:02:20.679Z</time></trkpt><trkpt lat="38.6400422" lon="16.3506704"><ele>706.5</ele><time>2026-04-11T14:02:21.679Z</time></trkpt><trkpt lat="38.6401805" lon="16.3506964"><ele>705.25</ele><time>2026-04-11T14:02:22.678Z</time></trkpt><trkpt lat="38.640321" lon="16.3507396"><ele>704.0</ele><time>2026-04-11T14:02:23.678Z</time></trkpt><trkpt lat="38.6404647" lon="16.3507723"><ele>704.0</ele><time>2026-04-11T14:02:24.678Z</time></trkpt><trkpt lat="38.6405969" lon="16.3508088"><ele>704.0</ele><time>2026-04-11T14:02:25.679Z</time></trkpt><trkpt lat="38.6407174" lon="16.3508432"><ele>704.0</ele><time>2026-04-11T14:02:26.679Z</time></trkpt><trkpt lat="38.6408321" lon="16.350899"><ele>704.0</ele><time>2026-04-11T14:02:27.679Z</time></trkpt><trkpt lat="38.6409413" lon="16.3509665"><ele>704.0</ele><time>2026-04-11T14:02:28.679Z</time></trkpt><trkpt lat="38.641048" lon="16.3510368"><ele>704.0</ele><time>2026-04-11T14:02:29.678Z</time></trkpt><trkpt lat="38.6411541" lon="16.351106"><ele>704.0</ele><time>2026-04-11T14:02:30.678Z</time></trkpt><trkpt lat="38.6412585" lon="16.3511338"><ele>704.0</ele><time>2026-04-11T14:02:31.678Z</time></trkpt><trkpt lat="38.6413679" lon="16.3511336"><ele>704.2</ele><time>2026-04-11T14:02:32.678Z</time></trkpt><trkpt lat="38.6414781" lon="16.3511172"><ele>704.4000000000001</ele><time>2026-04-11T14:02:33.679Z</time></trkpt><trkpt lat="38.6415853" lon="16.3511231"><ele>704.6</ele><time>2026-04-11T14:02:34.678Z</time></trkpt><trkpt lat="38.6416674" lon="16.3511844"><ele>704.8</ele><time>2026-04-11T14:02:35.678Z</time></trkpt><trkpt lat="38.6417179" lon="16.3512856"><ele>705.0</ele><time>2026-04-11T14:02:36.678Z</time></trkpt><trkpt lat="38.6417423" lon="16.3513969"><ele>702.75</ele><time>2026-04-11T14:02:37.679Z</time></trkpt><trkpt lat="38.6417411" lon="16.3515331"><ele>700.5</ele><time>2026-04-11T14:02:38.679Z</time></trkpt><trkpt lat="38.6417109" lon="16.3516852"><ele>698.25</ele><time>2026-04-11T14:02:39.678Z</time></trkpt><trkpt lat="38.6416636" lon="16.3518355"><ele>696.0</ele><time>2026-04-11T14:02:40.678Z</time></trkpt><trkpt lat="38.6416171" lon="16.3519907"><ele>696.0</ele><time>2026-04-11T14:02:41.678Z</time></trkpt><trkpt lat="38.6415834" lon="16.3521397"><ele>696.0</ele><time>2026-04-11T14:02:42.678Z</time></trkpt><trkpt lat="38.641549" lon="16.3522867"><ele>696.0</ele><time>2026-04-11T14:02:43.678Z</time></trkpt><trkpt lat="38.6415229" lon="16.3524273"><ele>696.0</ele><time>2026-04-11T14:02:44.678Z</time></trkpt><trkpt lat="38.6415211" lon="16.3525586"><ele>695.8</ele><time>2026-04-11T14:02:45.678Z</time></trkpt><trkpt lat="38.6415396" lon="16.3526809"><ele>695.5999999999999</ele><time>2026-04-11T14:02:46.679Z</time></trkpt><trkpt lat="38.6415937" lon="16.3527862"><ele>695.4</ele><time>2026-04-11T14:02:47.679Z</time></trkpt><trkpt lat="38.6416673" lon="16.3528713"><ele>695.2</ele><time>2026-04-11T14:02:48.678Z</time></trkpt><trkpt lat="38.6417563" lon="16.3529379"><ele>695.0</ele><time>2026-04-11T14:02:49.679Z</time></trkpt><trkpt lat="38.6418641" lon="16.352968"><ele>694.5</ele><time>2026-04-11T14:02:50.678Z</time></trkpt><trkpt lat="38.6419779" lon="16.3529573"><ele>694.0</ele><time>2026-04-11T14:02:51.678Z</time></trkpt><trkpt lat="38.6420908" lon="16.3529223"><ele>693.5</ele><time>2026-04-11T14:02:52.678Z</time></trkpt><trkpt lat="38.6421949" lon="16.3528627"><ele>693.0</ele><time>2026-04-11T14:02:53.678Z</time></trkpt><trkpt lat="38.6423" lon="16.3527851"><ele>693.0</ele><time>2026-04-11T14:02:54.678Z</time></trkpt><trkpt lat="38.6424148" lon="16.352705"><ele>693.0</ele><time>2026-04-11T14:02:55.678Z</time></trkpt><trkpt lat="38.6425417" lon="16.3526345"><ele>693.0</ele><time>2026-04-11T14:02:56.678Z</time></trkpt><trkpt lat="38.6426681" lon="16.3525808"><ele>693.0</ele><time>2026-04-11T14:02:57.678Z</time></trkpt><trkpt lat="38.6427968" lon="16.3525465"><ele>692.5999999999999</ele><time>2026-04-11T14:02:58.678Z</time></trkpt><trkpt lat="38.6429177" lon="16.3525202"><ele>692.1999999999999</ele><time>2026-04-11T14:02:59.679Z</time></trkpt><trkpt lat="38.6430363" lon="16.3525061"><ele>691.8</ele><time>2026-04-11T14:03:00.679Z</time></trkpt><trkpt lat="38.6431302" lon="16.3525061"><ele>691.4</ele><time>2026-04-11T14:03:01.678Z</time></trkpt><trkpt lat="38.643206" lon="16.3525405"><ele>691.0</ele><time>2026-04-11T14:03:02.678Z</time></trkpt><trkpt lat="38.643269" lon="16.3526118"><ele>691.0</ele><time>2026-04-11T14:03:03.678Z</time></trkpt><trkpt lat="38.6433106" lon="16.3527023"><ele>691.0</ele><time>2026-04-11T14:03:04.679Z</time></trkpt><trkpt lat="38.6433405" lon="16.3528268"><ele>691.0</ele><time>2026-04-11T14:03:05.679Z</time></trkpt><trkpt lat="38.643389" lon="16.3529537"><ele>691.0</ele><time>2026-04-11T14:03:06.678Z</time></trkpt><trkpt lat="38.6434609" lon="16.3530721"><ele>691.0</ele><time>2026-04-11T14:03:07.679Z</time></trkpt><trkpt lat="38.6435393" lon="16.3531693"><ele>689.0</ele><time>2026-04-11T14:03:08.678Z</time></trkpt><trkpt lat="38.643634" lon="16.3532651"><ele>687.0</ele><time>2026-04-11T14:03:09.678Z</time></trkpt><trkpt lat="38.6437407" lon="16.3533604"><ele>685.0</ele><time>2026-04-11T14:03:10.678Z</time></trkpt><trkpt lat="38.6438526" lon="16.3534633"><ele>683.0</ele><time>2026-04-11T14:03:11.678Z</time></trkpt><trkpt lat="38.6439649" lon="16.3535698"><ele>683.0</ele><time>2026-04-11T14:03:12.678Z</time></trkpt><trkpt lat="38.644088" lon="16.3536757"><ele>683.0</ele><time>2026-04-11T14:03:13.679Z</time></trkpt><trkpt lat="38.6442059" lon="16.3537796"><ele>683.0</ele><time>2026-04-11T14:03:14.678Z</time></trkpt><trkpt lat="38.6443175" lon="16.3538929"><ele>683.0</ele><time>2026-04-11T14:03:15.679Z</time></trkpt><trkpt lat="38.6444182" lon="16.3540122"><ele>684.25</ele><time>2026-04-11T14:03:16.678Z</time></trkpt><trkpt lat="38.644518" lon="16.3541337"><ele>685.5</ele><time>2026-04-11T14:03:17.678Z</time></trkpt><trkpt lat="38.6446191" lon="16.3542566"><ele>686.75</ele><time>2026-04-11T14:03:18.679Z</time></trkpt><trkpt lat="38.6447218" lon="16.3543885"><ele>688.0</ele><time>2026-04-11T14:03:19.678Z</time></trkpt><trkpt lat="38.6448155" lon="16.3545329"><ele>688.0</ele><time>2026-04-11T14:03:20.678Z</time></trkpt><trkpt lat="38.6448931" lon="16.3546866"><ele>688.0</ele><time>2026-04-11T14:03:21.678Z</time></trkpt><trkpt lat="38.6449551" lon="16.3548484"><ele>688.0</ele><time>2026-04-11T14:03:22.678Z</time></trkpt><trkpt lat="38.6449999" lon="16.3550206"><ele>688.0</ele><time>2026-04-11T14:03:23.678Z</time></trkpt><trkpt lat="38.6450433" lon="16.3551976"><ele>686.25</ele><time>2026-04-11T14:03:24.679Z</time></trkpt><trkpt lat="38.6450833" lon="16.355384"><ele>684.5</ele><time>2026-04-11T14:03:25.678Z</time></trkpt><trkpt lat="38.6451256" lon="16.3555649"><ele>682.75</ele><time>2026-04-11T14:03:26.678Z</time></trkpt><trkpt lat="38.6451636" lon="16.3557389"><ele>681.0</ele><time>2026-04-11T14:03:27.678Z</time></trkpt><trkpt lat="38.6451993" lon="16.3559145"><ele>681.25</ele><time>2026-04-11T14:03:28.678Z</time></trkpt><trkpt lat="38.6452197" lon="16.3560819"><ele>681.5</ele><time>2026-04-11T14:03:29.678Z</time></trkpt><trkpt lat="38.6452495" lon="16.3562424"><ele>681.75</ele><time>2026-04-11T14:03:30.679Z</time></trkpt><trkpt lat="38.6452794" lon="16.3563948"><ele>682.0</ele><time>2026-04-11T14:03:31.679Z</time></trkpt><trkpt lat="38.645322" lon="16.3565532"><ele>682.0</ele><time>2026-04-11T14:03:32.678Z</time></trkpt><trkpt lat="38.6453867" lon="16.3566862"><ele>682.0</ele><time>2026-04-11T14:03:33.678Z</time></trkpt><trkpt lat="38.6454744" lon="16.3568055"><ele>682.0</ele><time>2026-04-11T14:03:34.678Z</time></trkpt><trkpt lat="38.6455847" lon="16.3568995"><ele>682.0</ele><time>2026-04-11T14:03:35.678Z</time></trkpt><trkpt lat="38.6457036" lon="16.356995"><ele>682.0</ele><time>2026-04-11T14:03:36.678Z</time></trkpt><trkpt lat="38.6458156" lon="16.3570886"><ele>682.0</ele><time>2026-04-11T14:03:37.678Z</time></trkpt><trkpt lat="38.6459407" lon="16.3571574"><ele>682.0</ele><time>2026-04-11T14:03:38.678Z</time></trkpt><trkpt lat="38.6460647" lon="16.3572013"><ele>682.0</ele><time>2026-04-11T14:03:39.679Z</time></trkpt><trkpt lat="38.6461889" lon="16.3572418"><ele>680.75</ele><time>2026-04-11T14:03:40.678Z</time></trkpt><trkpt lat="38.646307" lon="16.357295"><ele>679.5</ele><time>2026-04-11T14:03:41.678Z</time></trkpt><trkpt lat="38.6464189" lon="16.3573686"><ele>678.25</ele><time>2026-04-11T14:03:42.678Z</time></trkpt><trkpt lat="38.6465322" lon="16.3574822"><ele>677.0</ele><time>2026-04-11T14:03:43.678Z</time></trkpt><trkpt lat="38.6466293" lon="16.3576103"><ele>677.0</ele><time>2026-04-11T14:03:44.679Z</time></trkpt><trkpt lat="38.6467201" lon="16.357752"><ele>677.0</ele><time>2026-04-11T14:03:45.678Z</time></trkpt><trkpt lat="38.6468163" lon="16.3578907"><ele>677.0</ele><time>2026-04-11T14:03:46.678Z</time></trkpt><trkpt lat="38.646922" lon="16.3580252"><ele>677.0</ele><time>2026-04-11T14:03:47.678Z</time></trkpt><trkpt lat="38.6470234" lon="16.3581692"><ele>678.0</ele><time>2026-04-11T14:03:48.679Z</time></trkpt><trkpt lat="38.6471206" lon="16.3583095"><ele>679.0</ele><time>2026-04-11T14:03:49.678Z</time></trkpt><trkpt lat="38.6472139" lon="16.358443"><ele>680.0</ele><time>2026-04-11T14:03:50.679Z</time></trkpt><trkpt lat="38.6472961" lon="16.3585684"><ele>681.0</ele><time>2026-04-11T14:03:51.678Z</time></trkpt><trkpt lat="38.6473607" lon="16.358693"><ele>681.0</ele><time>2026-04-11T14:03:52.679Z</time></trkpt><trkpt lat="38.6474062" lon="16.3588305"><ele>681.0</ele><time>2026-04-11T14:03:53.678Z</time></trkpt><trkpt lat="38.6474263" lon="16.3589693"><ele>681.0</ele><time>2026-04-11T14:03:54.679Z</time></trkpt><trkpt lat="38.6474441" lon="16.3590944"><ele>681.0</ele><time>2026-04-11T14:03:55.679Z</time></trkpt><trkpt lat="38.6474883" lon="16.3591924"><ele>681.0</ele><time>2026-04-11T14:03:56.679Z</time></trkpt><trkpt lat="38.6475607" lon="16.359253"><ele>680.0</ele><time>2026-04-11T14:03:57.679Z</time></trkpt><trkpt lat="38.6476442" lon="16.3592859"><ele>679.0</ele><time>2026-04-11T14:03:58.679Z</time></trkpt><trkpt lat="38.6477443" lon="16.3592739"><ele>678.0</ele><time>2026-04-11T14:03:59.679Z</time></trkpt><trkpt lat="38.6478508" lon="16.3592165"><ele>677.0</ele><time>2026-04-11T14:04:00.678Z</time></trkpt><trkpt lat="38.6479617" lon="16.3591397"><ele>676.0</ele><time>2026-04-11T14:04:01.678Z</time></trkpt><trkpt lat="38.6480754" lon="16.359082"><ele>676.0</ele><time>2026-04-11T14:04:02.678Z</time></trkpt><trkpt lat="38.6481857" lon="16.3590429"><ele>676.0</ele><time>2026-04-11T14:04:03.678Z</time></trkpt><trkpt lat="38.6482904" lon="16.3590279"><ele>676.0</ele><time>2026-04-11T14:04:04.679Z</time></trkpt><trkpt lat="38.6483914" lon="16.3590443"><ele>676.0</ele><time>2026-04-11T14:04:05.678Z</time></trkpt><trkpt lat="38.648494" lon="16.3590923"><ele>676.0</ele><time>2026-04-11T14:04:06.678Z</time></trkpt><trkpt lat="38.6485838" lon="16.3591689"><ele>676.8</ele><time>2026-04-11T14:04:07.678Z</time></trkpt><trkpt lat="38.6486545" lon="16.3592662"><ele>677.5999999999999</ele><time>2026-04-11T14:04:08.678Z</time></trkpt><trkpt lat="38.6487144" lon="16.3593814"><ele>678.4</ele><time>2026-04-11T14:04:09.679Z</time></trkpt><trkpt lat="38.6487782" lon="16.3595014"><ele>679.2</ele><time>2026-04-11T14:04:10.679Z</time></trkpt><trkpt lat="38.6488532" lon="16.3595869"><ele>680.0</ele><time>2026-04-11T14:04:11.678Z</time></trkpt><trkpt lat="38.6489507" lon="16.3596313"><ele>680.0</ele><time>2026-04-11T14:04:12.679Z</time></trkpt><trkpt lat="38.6490504" lon="16.3596496"><ele>680.0</ele><time>2026-04-11T14:04:13.679Z</time></trkpt><trkpt lat="38.6491565" lon="16.359649"><ele>680.0</ele><time>2026-04-11T14:04:14.678Z</time></trkpt><trkpt lat="38.6492576" lon="16.359614"><ele>680.0</ele><time>2026-04-11T14:04:15.678Z</time></trkpt><trkpt lat="38.6493494" lon="16.3595402"><ele>680.0</ele><time>2026-04-11T14:04:16.679Z</time></trkpt><trkpt lat="38.6494352" lon="16.3594628"><ele>679.5</ele><time>2026-04-11T14:04:17.678Z</time></trkpt><trkpt lat="38.6495265" lon="16.3593872"><ele>679.0</ele><time>2026-04-11T14:04:18.678Z</time></trkpt><trkpt lat="38.649641" lon="16.3593548"><ele>678.5</ele><time>2026-04-11T14:04:19.678Z</time></trkpt><trkpt lat="38.6497601" lon="16.3593507"><ele>678.0</ele><time>2026-04-11T14:04:20.678Z</time></trkpt><trkpt lat="38.6498888" lon="16.359333"><ele>678.0</ele><time>2026-04-11T14:04:21.678Z</time></trkpt><trkpt lat="38.6500301" lon="16.3593173"><ele>678.0</ele><time>2026-04-11T14:04:22.678Z</time></trkpt><trkpt lat="38.6501678" lon="16.3593041"><ele>678.0</ele><time>2026-04-11T14:04:23.678Z</time></trkpt><trkpt lat="38.6503109" lon="16.3592959"><ele>678.0</ele><time>2026-04-11T14:04:24.679Z</time></trkpt><trkpt lat="38.6504529" lon="16.359288"><ele>677.5</ele><time>2026-04-11T14:04:25.678Z</time></trkpt><trkpt lat="38.650589" lon="16.3592812"><ele>677.0</ele><time>2026-04-11T14:04:26.679Z</time></trkpt><trkpt lat="38.6507137" lon="16.3592602"><ele>676.5</ele><time>2026-04-11T14:04:27.678Z</time></trkpt><trkpt lat="38.6508469" lon="16.359242"><ele>676.0</ele><time>2026-04-11T14:04:28.679Z</time></trkpt><trkpt lat="38.6509883" lon="16.3592263"><ele>676.25</ele><time>2026-04-11T14:04:29.679Z</time></trkpt><trkpt lat="38.6511252" lon="16.3592153"><ele>676.5</ele><time>2026-04-11T14:04:30.678Z</time></trkpt><trkpt lat="38.6512555" lon="16.3592065"><ele>676.75</ele><time>2026-04-11T14:04:31.678Z</time></trkpt><trkpt lat="38.6513866" lon="16.3592086"><ele>677.0</ele><time>2026-04-11T14:04:32.679Z</time></trkpt><trkpt lat="38.6515109" lon="16.3592299"><ele>677.0</ele><time>2026-04-11T14:04:33.679Z</time></trkpt><trkpt lat="38.6516372" lon="16.3592734"><ele>677.0</ele><time>2026-04-11T14:04:34.678Z</time></trkpt><trkpt lat="38.6517656" lon="16.3593296"><ele>677.0</ele><time>2026-04-11T14:04:35.678Z</time></trkpt><trkpt lat="38.6518869" lon="16.3594017"><ele>677.0</ele><time>2026-04-11T14:04:36.678Z</time></trkpt><trkpt lat="38.6520096" lon="16.359505"><ele>678.0</ele><time>2026-04-11T14:04:37.679Z</time></trkpt><trkpt lat="38.6521188" lon="16.3596343"><ele>679.0</ele><time>2026-04-11T14:04:38.679Z</time></trkpt><trkpt lat="38.6522155" lon="16.3597638"><ele>680.0</ele><time>2026-04-11T14:04:39.678Z</time></trkpt><trkpt lat="38.6522889" lon="16.3598949"><ele>681.0</ele><time>2026-04-11T14:04:40.679Z</time></trkpt><trkpt lat="38.6523513" lon="16.360023"><ele>679.5</ele><time>2026-04-11T14:04:41.678Z</time></trkpt><trkpt lat="38.6524236" lon="16.3601253"><ele>678.0</ele><time>2026-04-11T14:04:42.678Z</time></trkpt><trkpt lat="38.652493" lon="16.3601856"><ele>676.5</ele><time>2026-04-11T14:04:43.678Z</time></trkpt><trkpt lat="38.6525676" lon="16.3601945"><ele>675.0</ele><time>2026-04-11T14:04:44.678Z</time></trkpt><trkpt lat="38.652641" lon="16.3601693"><ele>673.5</ele><time>2026-04-11T14:04:45.679Z</time></trkpt><trkpt lat="38.6527032" lon="16.3601006"><ele>672.0</ele><time>2026-04-11T14:04:46.678Z</time></trkpt><trkpt lat="38.6527618" lon="16.3600004"><ele>671.75</ele><time>2026-04-11T14:04:47.679Z</time></trkpt><trkpt lat="38.6528344" lon="16.3598789"><ele>671.5</ele><time>2026-04-11T14:04:48.678Z</time></trkpt><trkpt lat="38.652919" lon="16.3597521"><ele>671.25</ele><time>2026-04-11T14:04:49.679Z</time></trkpt><trkpt lat="38.653004" lon="16.3596435"><ele>671.0</ele><time>2026-04-11T14:04:50.679Z</time></trkpt><trkpt lat="38.6530686" lon="16.3595191"><ele>671.0</ele><time>2026-04-11T14:04:51.678Z</time></trkpt><trkpt lat="38.6531044" lon="16.3593788"><ele>671.0</ele><time>2026-04-11T14:04:52.678Z</time></trkpt><trkpt lat="38.6531374" lon="16.3592378"><ele>671.0</ele><time>2026-04-11T14:04:53.679Z</time></trkpt><trkpt lat="38.653183" lon="16.3591021"><ele>671.0</ele><time>2026-04-11T14:04:54.678Z</time></trkpt><trkpt lat="38.6532244" lon="16.3589665"><ele>670.4</ele><time>2026-04-11T14:04:55.678Z</time></trkpt><trkpt lat="38.6532269" lon="16.3588375"><ele>669.8</ele><time>2026-04-11T14:04:56.678Z</time></trkpt><trkpt lat="38.6531826" lon="16.358713"><ele>669.1999999999999</ele><time>2026-04-11T14:04:57.678Z</time></trkpt><trkpt lat="38.65311" lon="16.3585961"><ele>668.5999999999999</ele><time>2026-04-11T14:04:58.678Z</time></trkpt><trkpt lat="38.6530413" lon="16.3584621"><ele>668.0</ele><time>2026-04-11T14:04:59.678Z</time></trkpt><trkpt lat="38.6529857" lon="16.3583232"><ele>668.0</ele><time>2026-04-11T14:05:00.678Z</time></trkpt><trkpt lat="38.652956" lon="16.3581775"><ele>668.0</ele><time>2026-04-11T14:05:01.679Z</time></trkpt><trkpt lat="38.652939" lon="16.3580214"><ele>668.0</ele><time>2026-04-11T14:05:02.679Z</time></trkpt><trkpt lat="38.652934" lon="16.3578623"><ele>668.0</ele><time>2026-04-11T14:05:03.679Z</time></trkpt><trkpt lat="38.6529447" lon="16.3577081"><ele>667.75</ele><time>2026-04-11T14:05:04.679Z</time></trkpt><trkpt lat="38.6529612" lon="16.357561"><ele>667.5</ele><time>2026-04-11T14:05:05.678Z</time></trkpt><trkpt lat="38.6529639" lon="16.3574112"><ele>667.25</ele><time>2026-04-11T14:05:06.679Z</time></trkpt><trkpt lat="38.652954" lon="16.3572608"><ele>667.0</ele><time>2026-04-11T14:05:07.678Z</time></trkpt><trkpt lat="38.6529276" lon="16.3571091"><ele>667.0</ele><time>2026-04-11T14:05:08.678Z</time></trkpt><trkpt lat="38.6528954" lon="16.3569434"><ele>667.0</ele><time>2026-04-11T14:05:09.678Z</time></trkpt><trkpt lat="38.6528749" lon="16.3567782"><ele>667.0</ele><time>2026-04-11T14:05:10.678Z</time></trkpt><trkpt lat="38.6528721" lon="16.356618"><ele>667.0</ele><time>2026-04-11T14:05:11.678Z</time></trkpt><trkpt lat="38.6528918" lon="16.3564674"><ele>669.8</ele><time>2026-04-11T14:05:12.678Z</time></trkpt><trkpt lat="38.6529348" lon="16.3563346"><ele>672.6</ele><time>2026-04-11T14:05:13.678Z</time></trkpt><trkpt lat="38.6529812" lon="16.3562191"><ele>675.4</ele><time>2026-04-11T14:05:14.678Z</time></trkpt><trkpt lat="38.6530279" lon="16.3561129"><ele>678.1999999999999</ele><time>2026-04-11T14:05:15.678Z</time></trkpt><trkpt lat="38.6530846" lon="16.3560226"><ele>681.0</ele><time>2026-04-11T14:05:16.678Z</time></trkpt><trkpt lat="38.6531489" lon="16.3559622"><ele>681.0</ele><time>2026-04-11T14:05:17.679Z</time></trkpt><trkpt lat="38.6532184" lon="16.355943"><ele>681.0</ele><time>2026-04-11T14:05:18.678Z</time></trkpt><trkpt lat="38.6532856" lon="16.3559719"><ele>681.0</ele><time>2026-04-11T14:05:19.679Z</time></trkpt><trkpt lat="38.6533584" lon="16.3560297"><ele>681.0</ele><time>2026-04-11T14:05:20.679Z</time></trkpt><trkpt lat="38.6534164" lon="16.3561143"><ele>681.0</ele><time>2026-04-11T14:05:21.678Z</time></trkpt><trkpt lat="38.6534588" lon="16.3562222"><ele>681.0</ele><time>2026-04-11T14:05:22.679Z</time></trkpt><trkpt lat="38.6535009" lon="16.35635"><ele>678.5</ele><time>2026-04-11T14:05:23.679Z</time></trkpt><trkpt lat="38.6535574" lon="16.356506"><ele>676.0</ele><time>2026-04-11T14:05:24.678Z</time></trkpt><trkpt lat="38.6536355" lon="16.3566569"><ele>673.5</ele><time>2026-04-11T14:05:25.678Z</time></trkpt><trkpt lat="38.6537333" lon="16.3567784"><ele>671.0</ele><time>2026-04-11T14:05:26.679Z</time></trkpt><trkpt lat="38.65384" lon="16.3568788"><ele>671.0</ele><time>2026-04-11T14:05:27.679Z</time></trkpt><trkpt lat="38.6539385" lon="16.356973"><ele>671.0</ele><time>2026-04-11T14:05:28.678Z</time></trkpt><trkpt lat="38.6540379" lon="16.3570619"><ele>671.0</ele><time>2026-04-11T14:05:29.678Z</time></trkpt><trkpt lat="38.6541395" lon="16.3571275"><ele>671.0</ele><time>2026-04-11T14:05:30.678Z</time></trkpt><trkpt lat="38.654245" lon="16.3571578"><ele>671.0</ele><time>2026-04-11T14:05:31.678Z</time></trkpt><trkpt lat="38.6543551" lon="16.3571501"><ele>671.0</ele><time>2026-04-11T14:05:32.678Z</time></trkpt><trkpt lat="38.6544544" lon="16.3571318"><ele>671.0</ele><time>2026-04-11T14:05:33.678Z</time></trkpt><trkpt lat="38.6545461" lon="16.3571396"><ele>671.0</ele><time>2026-04-11T14:05:34.679Z</time></trkpt><trkpt lat="38.6546199" lon="16.357191"><ele>671.0</ele><time>2026-04-11T14:05:35.678Z</time></trkpt><trkpt lat="38.6546774" lon="16.3572656"><ele>670.5999999999999</ele><time>2026-04-11T14:05:36.678Z</time></trkpt><trkpt lat="38.6547041" lon="16.3573448"><ele>670.2</ele><time>2026-04-11T14:05:37.678Z</time></trkpt><trkpt lat="38.6547172" lon="16.3574496"><ele>669.8</ele><time>2026-04-11T14:05:38.678Z</time></trkpt><trkpt lat="38.6547247" lon="16.3575742"><ele>669.4000000000001</ele><time>2026-04-11T14:05:39.678Z</time></trkpt><trkpt lat="38.6547631" lon="16.3576897"><ele>669.0</ele><time>2026-04-11T14:05:40.678Z</time></trkpt><trkpt lat="38.6548412" lon="16.3577814"><ele>669.0</ele><time>2026-04-11T14:05:41.679Z</time></trkpt><trkpt lat="38.6549286" lon="16.35782"><ele>669.0</ele><time>2026-04-11T14:05:42.678Z</time></trkpt><trkpt lat="38.6550242" lon="16.3578103"><ele>669.0</ele><time>2026-04-11T14:05:43.678Z</time></trkpt><trkpt lat="38.6551195" lon="16.3577983"><ele>669.0</ele><time>2026-04-11T14:05:44.679Z</time></trkpt><trkpt lat="38.655214" lon="16.3578018"><ele>669.0</ele><time>2026-04-11T14:05:45.678Z</time></trkpt><trkpt lat="38.6552931" lon="16.3578402"><ele>668.4000000000001</ele><time>2026-04-11T14:05:46.678Z</time></trkpt><trkpt lat="38.655362" lon="16.3579064"><ele>667.8</ele><time>2026-04-11T14:05:47.679Z</time></trkpt><trkpt lat="38.6554152" lon="16.3579981"><ele>667.2</ele><time>2026-04-11T14:05:48.678Z</time></trkpt><trkpt lat="38.6554413" lon="16.3581254"><ele>666.5999999999999</ele><time>2026-04-11T14:05:49.678Z</time></trkpt><trkpt lat="38.6554515" lon="16.3582856"><ele>666.0</ele><time>2026-04-11T14:05:50.678Z</time></trkpt><trkpt lat="38.6554524" lon="16.358469"><ele>666.0</ele><time>2026-04-11T14:05:51.678Z</time></trkpt><trkpt lat="38.6554514" lon="16.3586466"><ele>666.0</ele><time>2026-04-11T14:05:52.679Z</time></trkpt><trkpt lat="38.6554654" lon="16.3587963"><ele>666.0</ele><time>2026-04-11T14:05:53.678Z</time></trkpt><trkpt lat="38.6555173" lon="16.3589142"><ele>666.0</ele><time>2026-04-11T14:05:54.678Z</time></trkpt><trkpt lat="38.6556086" lon="16.3590082"><ele>664.4</ele><time>2026-04-11T14:05:55.678Z</time></trkpt><trkpt lat="38.655705" lon="16.3590449"><ele>662.8</ele><time>2026-04-11T14:05:56.678Z</time></trkpt><trkpt lat="38.6558083" lon="16.3590332"><ele>661.1999999999999</ele><time>2026-04-11T14:05:57.678Z</time></trkpt><trkpt lat="38.6559097" lon="16.3590043"><ele>659.5999999999999</ele><time>2026-04-11T14:05:58.678Z</time></trkpt><trkpt lat="38.6560232" lon="16.3589992"><ele>658.0</ele><time>2026-04-11T14:05:59.678Z</time></trkpt><trkpt lat="38.6561252" lon="16.3590336"><ele>658.0</ele><time>2026-04-11T14:06:00.679Z</time></trkpt><trkpt lat="38.6562141" lon="16.3591187"><ele>658.0</ele><time>2026-04-11T14:06:01.679Z</time></trkpt><trkpt lat="38.6562879" lon="16.3592424"><ele>658.0</ele><time>2026-04-11T14:06:02.679Z</time></trkpt><trkpt lat="38.6563501" lon="16.3593769"><ele>658.0</ele><time>2026-04-11T14:06:03.678Z</time></trkpt><trkpt lat="38.6564112" lon="16.3595106"><ele>658.0</ele><time>2026-04-11T14:06:04.679Z</time></trkpt><trkpt lat="38.6564697" lon="16.3596331"><ele>658.0</ele><time>2026-04-11T14:06:05.679Z</time></trkpt><trkpt lat="38.6565092" lon="16.3597578"><ele>658.0</ele><time>2026-04-11T14:06:06.679Z</time></trkpt><trkpt lat="38.6565238" lon="16.3598861"><ele>658.0</ele><time>2026-04-11T14:06:07.679Z</time></trkpt><trkpt lat="38.6565065" lon="16.3600245"><ele>658.0</ele><time>2026-04-11T14:06:08.678Z</time></trkpt><trkpt lat="38.6564629" lon="16.3601628"><ele>657.0</ele><time>2026-04-11T14:06:09.678Z</time></trkpt><trkpt lat="38.6564269" lon="16.360289"><ele>656.0</ele><time>2026-04-11T14:06:10.678Z</time></trkpt><trkpt lat="38.6564295" lon="16.3603929"><ele>655.0</ele><time>2026-04-11T14:06:11.679Z</time></trkpt><trkpt lat="38.6564648" lon="16.3604823"><ele>654.0</ele><time>2026-04-11T14:06:12.679Z</time></trkpt><trkpt lat="38.6565207" lon="16.3605496"><ele>653.0</ele><time>2026-04-11T14:06:13.678Z</time></trkpt><trkpt lat="38.6565937" lon="16.3605892"><ele>652.0</ele><time>2026-04-11T14:06:14.678Z</time></trkpt><trkpt lat="38.6566787" lon="16.3606151"><ele>651.0</ele><time>2026-04-11T14:06:15.678Z</time></trkpt><trkpt lat="38.656763" lon="16.3606468"><ele>650.0</ele><time>2026-04-11T14:06:16.679Z</time></trkpt><trkpt lat="38.6568225" lon="16.3606906"><ele>649.0</ele><time>2026-04-11T14:06:17.679Z</time></trkpt><trkpt lat="38.6568733" lon="16.3608344"><ele>648.0</ele><time>2026-04-11T14:06:19.679Z</time></trkpt><trkpt lat="38.6568546" lon="16.3609317"><ele>647.0</ele><time>2026-04-11T14:06:20.679Z</time></trkpt><trkpt lat="38.656806" lon="16.3610486"><ele>647.0</ele><time>2026-04-11T14:06:21.678Z</time></trkpt><trkpt lat="38.6567563" lon="16.3611809"><ele>647.0</ele><time>2026-04-11T14:06:22.678Z</time></trkpt><trkpt lat="38.6567299" lon="16.361318"><ele>647.0</ele><time>2026-04-11T14:06:23.678Z</time></trkpt><trkpt lat="38.6567488" lon="16.3614476"><ele>647.0</ele><time>2026-04-11T14:06:24.679Z</time></trkpt><trkpt lat="38.6568105" lon="16.3615509"><ele>647.0</ele><time>2026-04-11T14:06:25.678Z</time></trkpt><trkpt lat="38.6568978" lon="16.3616285"><ele>647.2</ele><time>2026-04-11T14:06:26.678Z</time></trkpt><trkpt lat="38.6569988" lon="16.3616837"><ele>647.4000000000001</ele><time>2026-04-11T14:06:27.678Z</time></trkpt><trkpt lat="38.6570914" lon="16.3617302"><ele>647.5999999999999</ele><time>2026-04-11T14:06:28.679Z</time></trkpt><trkpt lat="38.657172" lon="16.3617926"><ele>647.8</ele><time>2026-04-11T14:06:29.678Z</time></trkpt><trkpt lat="38.6572327" lon="16.3618792"><ele>648.0</ele><time>2026-04-11T14:06:30.679Z</time></trkpt><trkpt lat="38.6572744" lon="16.3619983"><ele>648.0</ele><time>2026-04-11T14:06:31.678Z</time></trkpt><trkpt lat="38.6573007" lon="16.3621286"><ele>648.0</ele><time>2026-04-11T14:06:32.678Z</time></trkpt><trkpt lat="38.6572966" lon="16.3622651"><ele>648.0</ele><time>2026-04-11T14:06:33.678Z</time></trkpt><trkpt lat="38.6572571" lon="16.3623872"><ele>648.0</ele><time>2026-04-11T14:06:34.679Z</time></trkpt><trkpt lat="38.6571789" lon="16.3624989"><ele>648.0</ele><time>2026-04-11T14:06:35.678Z</time></trkpt><trkpt lat="38.6570743" lon="16.3625977"><ele>643.0</ele><time>2026-04-11T14:06:36.678Z</time></trkpt><trkpt lat="38.6569517" lon="16.3626812"><ele>638.0</ele><time>2026-04-11T14:06:37.679Z</time></trkpt><trkpt lat="38.6568309" lon="16.3627701"><ele>633.0</ele><time>2026-04-11T14:06:38.678Z</time></trkpt><trkpt lat="38.6567162" lon="16.3628711"><ele>628.0</ele><time>2026-04-11T14:06:39.678Z</time></trkpt><trkpt lat="38.6565993" lon="16.3629751"><ele>629.5</ele><time>2026-04-11T14:06:40.679Z</time></trkpt><trkpt lat="38.6564925" lon="16.3630854"><ele>631.0</ele><time>2026-04-11T14:06:41.679Z</time></trkpt><trkpt lat="38.6563816" lon="16.3631961"><ele>632.5</ele><time>2026-04-11T14:06:42.678Z</time></trkpt><trkpt lat="38.6562761" lon="16.3633079"><ele>634.0</ele><time>2026-04-11T14:06:43.678Z</time></trkpt><trkpt lat="38.6561791" lon="16.363423"><ele>631.75</ele><time>2026-04-11T14:06:44.678Z</time></trkpt><trkpt lat="38.6560882" lon="16.3635497"><ele>629.5</ele><time>2026-04-11T14:06:45.678Z</time></trkpt><trkpt lat="38.6560109" lon="16.3636947"><ele>627.25</ele><time>2026-04-11T14:06:46.678Z</time></trkpt><trkpt lat="38.6559357" lon="16.3638408"><ele>625.0</ele><time>2026-04-11T14:06:47.679Z</time></trkpt><trkpt lat="38.6558758" lon="16.3639877"><ele>625.0</ele><time>2026-04-11T14:06:48.679Z</time></trkpt><trkpt lat="38.6558203" lon="16.3641389"><ele>625.0</ele><time>2026-04-11T14:06:49.679Z</time></trkpt><trkpt lat="38.655769" lon="16.3642966"><ele>625.0</ele><time>2026-04-11T14:06:50.678Z</time></trkpt><trkpt lat="38.655724" lon="16.3644651"><ele>625.0</ele><time>2026-04-11T14:06:51.678Z</time></trkpt><trkpt lat="38.6556798" lon="16.3646432"><ele>625.25</ele><time>2026-04-11T14:06:52.679Z</time></trkpt><trkpt lat="38.6556455" lon="16.3648135"><ele>625.5</ele><time>2026-04-11T14:06:53.678Z</time></trkpt><trkpt lat="38.6556138" lon="16.3649832"><ele>625.75</ele><time>2026-04-11T14:06:54.679Z</time></trkpt><trkpt lat="38.6555872" lon="16.3651542"><ele>626.0</ele><time>2026-04-11T14:06:55.678Z</time></trkpt><trkpt lat="38.6555733" lon="16.3653248"><ele>626.0</ele><time>2026-04-11T14:06:56.679Z</time></trkpt><trkpt lat="38.6555852" lon="16.365502"><ele>626.0</ele><time>2026-04-11T14:06:57.678Z</time></trkpt><trkpt lat="38.6556146" lon="16.3656701"><ele>626.0</ele><time>2026-04-11T14:06:58.679Z</time></trkpt><trkpt lat="38.6556665" lon="16.3658442"><ele>626.0</ele><time>2026-04-11T14:06:59.679Z</time></trkpt><trkpt lat="38.655717" lon="16.366025"><ele>625.25</ele><time>2026-04-11T14:07:00.679Z</time></trkpt><trkpt lat="38.6557674" lon="16.3661922"><ele>624.5</ele><time>2026-04-11T14:07:01.678Z</time></trkpt><trkpt lat="38.6558118" lon="16.3663558"><ele>623.75</ele><time>2026-04-11T14:07:02.678Z</time></trkpt><trkpt lat="38.6558535" lon="16.3665276"><ele>623.0</ele><time>2026-04-11T14:07:03.678Z</time></trkpt><trkpt lat="38.6558954" lon="16.3666916"><ele>621.75</ele><time>2026-04-11T14:07:04.678Z</time></trkpt><trkpt lat="38.6559356" lon="16.3668518"><ele>620.5</ele><time>2026-04-11T14:07:05.679Z</time></trkpt><trkpt lat="38.655981" lon="16.3670082"><ele>619.25</ele><time>2026-04-11T14:07:06.678Z</time></trkpt><trkpt lat="38.6560279" lon="16.3671527"><ele>618.0</ele><time>2026-04-11T14:07:07.678Z</time></trkpt><trkpt lat="38.6560928" lon="16.3672791"><ele>617.75</ele><time>2026-04-11T14:07:08.679Z</time></trkpt><trkpt lat="38.656175" lon="16.3673948"><ele>617.5</ele><time>2026-04-11T14:07:09.678Z</time></trkpt><trkpt lat="38.6562737" lon="16.3674923"><ele>617.25</ele><time>2026-04-11T14:07:10.679Z</time></trkpt><trkpt lat="38.656378" lon="16.3675822"><ele>617.0</ele><time>2026-04-11T14:07:11.678Z</time></trkpt><trkpt lat="38.6564833" lon="16.367668"><ele>617.0</ele><time>2026-04-11T14:07:12.678Z</time></trkpt><trkpt lat="38.6565879" lon="16.3677547"><ele>617.0</ele><time>2026-04-11T14:07:13.678Z</time></trkpt><trkpt lat="38.6566942" lon="16.3678342"><ele>617.0</ele><time>2026-04-11T14:07:14.679Z</time></trkpt><trkpt lat="38.6568019" lon="16.3679013"><ele>617.0</ele><time>2026-04-11T14:07:15.678Z</time></trkpt><trkpt lat="38.6569187" lon="16.3679517"><ele>617.5</ele><time>2026-04-11T14:07:16.678Z</time></trkpt><trkpt lat="38.6570334" lon="16.3679915"><ele>618.0</ele><time>2026-04-11T14:07:17.679Z</time></trkpt><trkpt lat="38.6571489" lon="16.3680388"><ele>618.5</ele><time>2026-04-11T14:07:18.679Z</time></trkpt><trkpt lat="38.6572636" lon="16.3680887"><ele>619.0</ele><time>2026-04-11T14:07:19.679Z</time></trkpt><trkpt lat="38.657369" lon="16.3681427"><ele>616.75</ele><time>2026-04-11T14:07:20.678Z</time></trkpt><trkpt lat="38.6574632" lon="16.3682114"><ele>614.5</ele><time>2026-04-11T14:07:21.678Z</time></trkpt><trkpt lat="38.6575376" lon="16.3683085"><ele>612.25</ele><time>2026-04-11T14:07:22.678Z</time></trkpt><trkpt lat="38.6576016" lon="16.368439"><ele>610.0</ele><time>2026-04-11T14:07:23.678Z</time></trkpt><trkpt lat="38.6576485" lon="16.3685825"><ele>610.0</ele><time>2026-04-11T14:07:24.679Z</time></trkpt><trkpt lat="38.6576776" lon="16.3687395"><ele>610.0</ele><time>2026-04-11T14:07:25.679Z</time></trkpt><trkpt lat="38.6576973" lon="16.3688989"><ele>610.0</ele><time>2026-04-11T14:07:26.678Z</time></trkpt><trkpt lat="38.6577107" lon="16.3690592"><ele>610.0</ele><time>2026-04-11T14:07:27.678Z</time></trkpt><trkpt lat="38.6577051" lon="16.3692203"><ele>609.25</ele><time>2026-04-11T14:07:28.679Z</time></trkpt><trkpt lat="38.6576769" lon="16.369384"><ele>608.5</ele><time>2026-04-11T14:07:29.678Z</time></trkpt><trkpt lat="38.6576294" lon="16.3695578"><ele>607.75</ele><time>2026-04-11T14:07:30.679Z</time></trkpt><trkpt lat="38.6575763" lon="16.3697303"><ele>607.0</ele><time>2026-04-11T14:07:31.678Z</time></trkpt><trkpt lat="38.657522" lon="16.3698955"><ele>606.5</ele><time>2026-04-11T14:07:32.678Z</time></trkpt><trkpt lat="38.657477" lon="16.3700624"><ele>606.0</ele><time>2026-04-11T14:07:33.678Z</time></trkpt><trkpt lat="38.6574354" lon="16.3702307"><ele>605.5</ele><time>2026-04-11T14:07:34.678Z</time></trkpt><trkpt lat="38.6574195" lon="16.3703894"><ele>605.0</ele><time>2026-04-11T14:07:35.679Z</time></trkpt><trkpt lat="38.657425" lon="16.3705268"><ele>604.0</ele><time>2026-04-11T14:07:36.678Z</time></trkpt><trkpt lat="38.6574484" lon="16.3706505"><ele>603.0</ele><time>2026-04-11T14:07:37.678Z</time></trkpt><trkpt lat="38.6575062" lon="16.3707579"><ele>602.0</ele><time>2026-04-11T14:07:38.678Z</time></trkpt><trkpt lat="38.6575791" lon="16.3708465"><ele>601.0</ele><time>2026-04-11T14:07:39.679Z</time></trkpt><trkpt lat="38.6576631" lon="16.3709246"><ele>600.0</ele><time>2026-04-11T14:07:40.679Z</time></trkpt><trkpt lat="38.6577597" lon="16.3709867"><ele>600.25</ele><time>2026-04-11T14:07:41.679Z</time></trkpt><trkpt lat="38.657856" lon="16.371049"><ele>600.5</ele><time>2026-04-11T14:07:42.678Z</time></trkpt><trkpt lat="38.6579588" lon="16.3711214"><ele>600.75</ele><time>2026-04-11T14:07:43.678Z</time></trkpt><trkpt lat="38.6580665" lon="16.3712057"><ele>601.0</ele><time>2026-04-11T14:07:44.679Z</time></trkpt><trkpt lat="38.6581785" lon="16.3713053"><ele>600.5</ele><time>2026-04-11T14:07:45.678Z</time></trkpt><trkpt lat="38.6582944" lon="16.371401"><ele>600.0</ele><time>2026-04-11T14:07:46.678Z</time></trkpt><trkpt lat="38.6584083" lon="16.3714892"><ele>599.5</ele><time>2026-04-11T14:07:47.678Z</time></trkpt><trkpt lat="38.6585213" lon="16.3715674"><ele>599.0</ele><time>2026-04-11T14:07:48.679Z</time></trkpt><trkpt lat="38.6586279" lon="16.371648"><ele>599.0</ele><time>2026-04-11T14:07:49.679Z</time></trkpt><trkpt lat="38.6587054" lon="16.3717471"><ele>599.0</ele><time>2026-04-11T14:07:50.679Z</time></trkpt><trkpt lat="38.6587563" lon="16.3718847"><ele>599.0</ele><time>2026-04-11T14:07:51.679Z</time></trkpt><trkpt lat="38.6587791" lon="16.3720477"><ele>599.0</ele><time>2026-04-11T14:07:52.678Z</time></trkpt><trkpt lat="38.6587763" lon="16.3722125"><ele>599.0</ele><time>2026-04-11T14:07:53.678Z</time></trkpt><trkpt lat="38.658744" lon="16.3723791"><ele>599.0</ele><time>2026-04-11T14:07:54.678Z</time></trkpt><trkpt lat="38.6586935" lon="16.3725458"><ele>599.0</ele><time>2026-04-11T14:07:55.678Z</time></trkpt><trkpt lat="38.6586352" lon="16.372711"><ele>599.0</ele><time>2026-04-11T14:07:56.678Z</time></trkpt><trkpt lat="38.6585784" lon="16.3728676"><ele>595.3333333333333</ele><time>2026-04-11T14:07:57.679Z</time></trkpt><trkpt lat="38.6585218" lon="16.3730369"><ele>591.6666666666666</ele><time>2026-04-11T14:07:58.679Z</time></trkpt><trkpt lat="38.6584663" lon="16.3732237"><ele>588.0</ele><time>2026-04-11T14:07:59.678Z</time></trkpt><trkpt lat="38.6584198" lon="16.3734146"><ele>588.0</ele><time>2026-04-11T14:08:00.678Z</time></trkpt><trkpt lat="38.6583816" lon="16.373619"><ele>588.0</ele><time>2026-04-11T14:08:01.679Z</time></trkpt><trkpt lat="38.6583515" lon="16.3738264"><ele>588.0</ele><time>2026-04-11T14:08:02.678Z</time></trkpt><trkpt lat="38.6583219" lon="16.3740288"><ele>588.6666666666666</ele><time>2026-04-11T14:08:03.679Z</time></trkpt><trkpt lat="38.6582888" lon="16.3742242"><ele>589.3333333333333</ele><time>2026-04-11T14:08:04.678Z</time></trkpt><trkpt lat="38.6582547" lon="16.374412"><ele>590.0</ele><time>2026-04-11T14:08:05.679Z</time></trkpt><trkpt lat="38.6582121" lon="16.3745996"><ele>589.6666666666666</ele><time>2026-04-11T14:08:06.679Z</time></trkpt><trkpt lat="38.6581545" lon="16.3747872"><ele>589.3333333333334</ele><time>2026-04-11T14:08:07.678Z</time></trkpt><trkpt lat="38.6581029" lon="16.3749723"><ele>589.0</ele><time>2026-04-11T14:08:08.679Z</time></trkpt><trkpt lat="38.6580514" lon="16.375164"><ele>589.0</ele><time>2026-04-11T14:08:09.678Z</time></trkpt><trkpt lat="38.6580146" lon="16.375362"><ele>589.0</ele><time>2026-04-11T14:08:10.678Z</time></trkpt><trkpt lat="38.6579926" lon="16.3755721"><ele>589.0</ele><time>2026-04-11T14:08:11.678Z</time></trkpt><trkpt lat="38.6579761" lon="16.3757837"><ele>587.6666666666667</ele><time>2026-04-11T14:08:12.679Z</time></trkpt><trkpt lat="38.65797" lon="16.3760007"><ele>586.3333333333334</ele><time>2026-04-11T14:08:13.678Z</time></trkpt><trkpt lat="38.6579649" lon="16.3762166"><ele>585.0</ele><time>2026-04-11T14:08:14.679Z</time></trkpt><trkpt lat="38.6579537" lon="16.3764214"><ele>584.3333333333334</ele><time>2026-04-11T14:08:15.678Z</time></trkpt><trkpt lat="38.6579333" lon="16.3766277"><ele>583.6666666666667</ele><time>2026-04-11T14:08:16.678Z</time></trkpt><trkpt lat="38.6579212" lon="16.3768415"><ele>583.0</ele><time>2026-04-11T14:08:17.678Z</time></trkpt><trkpt lat="38.6579063" lon="16.3770503"><ele>582.3333333333334</ele><time>2026-04-11T14:08:18.678Z</time></trkpt><trkpt lat="38.6578814" lon="16.3772603"><ele>581.6666666666666</ele><time>2026-04-11T14:08:19.679Z</time></trkpt><trkpt lat="38.6578522" lon="16.3774737"><ele>581.0</ele><time>2026-04-11T14:08:20.678Z</time></trkpt><trkpt lat="38.6578215" lon="16.3776876"><ele>581.0</ele><time>2026-04-11T14:08:21.678Z</time></trkpt><trkpt lat="38.6577923" lon="16.3779025"><ele>581.0</ele><time>2026-04-11T14:08:22.679Z</time></trkpt><trkpt lat="38.6577595" lon="16.3781207"><ele>581.0</ele><time>2026-04-11T14:08:23.678Z</time></trkpt><trkpt lat="38.6577314" lon="16.3783392"><ele>576.3333333333333</ele><time>2026-04-11T14:08:24.679Z</time></trkpt><trkpt lat="38.6577101" lon="16.3785576"><ele>571.6666666666666</ele><time>2026-04-11T14:08:25.679Z</time></trkpt><trkpt lat="38.6577003" lon="16.3787654"><ele>567.0</ele><time>2026-04-11T14:08:26.679Z</time></trkpt><trkpt lat="38.6576987" lon="16.378973"><ele>566.25</ele><time>2026-04-11T14:08:27.679Z</time></trkpt><trkpt lat="38.6577101" lon="16.3791733"><ele>565.5</ele><time>2026-04-11T14:08:28.679Z</time></trkpt><trkpt lat="38.6577351" lon="16.3793722"><ele>564.75</ele><time>2026-04-11T14:08:29.678Z</time></trkpt><trkpt lat="38.6577645" lon="16.3795304"><ele>564.0</ele><time>2026-04-11T14:08:30.678Z</time></trkpt><trkpt lat="38.6577946" lon="16.3797192"><ele>567.0</ele><time>2026-04-11T14:08:31.679Z</time></trkpt><trkpt lat="38.6578153" lon="16.3799316"><ele>570.0</ele><time>2026-04-11T14:08:32.679Z</time></trkpt><trkpt lat="38.6578271" lon="16.3801424"><ele>573.0</ele><time>2026-04-11T14:08:33.678Z</time></trkpt><trkpt lat="38.6578262" lon="16.3803426"><ele>571.3333333333334</ele><time>2026-04-11T14:08:34.678Z</time></trkpt><trkpt lat="38.6578182" lon="16.3805392"><ele>569.6666666666667</ele><time>2026-04-11T14:08:35.678Z</time></trkpt><trkpt lat="38.6578025" lon="16.3807349"><ele>568.0</ele><time>2026-04-11T14:08:36.679Z</time></trkpt><trkpt lat="38.6577897" lon="16.3809229"><ele>565.0</ele><time>2026-04-11T14:08:37.678Z</time></trkpt><trkpt lat="38.6577726" lon="16.381102"><ele>562.0</ele><time>2026-04-11T14:08:38.678Z</time></trkpt><trkpt lat="38.6577363" lon="16.3812702"><ele>559.0</ele><time>2026-04-11T14:08:39.678Z</time></trkpt><trkpt lat="38.657697" lon="16.3814327"><ele>556.0</ele><time>2026-04-11T14:08:40.679Z</time></trkpt><trkpt lat="38.6576628" lon="16.381604"><ele>555.0</ele><time>2026-04-11T14:08:41.679Z</time></trkpt><trkpt lat="38.6576494" lon="16.3817764"><ele>554.0</ele><time>2026-04-11T14:08:42.678Z</time></trkpt><trkpt lat="38.657658" lon="16.3819517"><ele>553.0</ele><time>2026-04-11T14:08:43.679Z</time></trkpt><trkpt lat="38.6576858" lon="16.3821148"><ele>552.0</ele><time>2026-04-11T14:08:44.678Z</time></trkpt><trkpt lat="38.6577304" lon="16.3822619"><ele>553.25</ele><time>2026-04-11T14:08:45.678Z</time></trkpt><trkpt lat="38.6577976" lon="16.3823828"><ele>554.5</ele><time>2026-04-11T14:08:46.677Z</time></trkpt><trkpt lat="38.657886" lon="16.3824727"><ele>555.75</ele><time>2026-04-11T14:08:47.678Z</time></trkpt><trkpt lat="38.6579943" lon="16.3825486"><ele>557.0</ele><time>2026-04-11T14:08:48.677Z</time></trkpt><trkpt lat="38.6581095" lon="16.3825993"><ele>557.0</ele><time>2026-04-11T14:08:49.677Z</time></trkpt><trkpt lat="38.6582198" lon="16.3826286"><ele>557.0</ele><time>2026-04-11T14:08:50.677Z</time></trkpt><trkpt lat="38.6583211" lon="16.3826202"><ele>557.0</ele><time>2026-04-11T14:08:51.677Z</time></trkpt><trkpt lat="38.6584147" lon="16.3825655"><ele>557.0</ele><time>2026-04-11T14:08:52.677Z</time></trkpt><trkpt lat="38.6584859" lon="16.3824646"><ele>557.0</ele><time>2026-04-11T14:08:53.678Z</time></trkpt><trkpt lat="38.6585445" lon="16.38233"><ele>557.0</ele><time>2026-04-11T14:08:54.677Z</time></trkpt><trkpt lat="38.6586126" lon="16.3821964"><ele>557.0</ele><time>2026-04-11T14:08:55.677Z</time></trkpt><trkpt lat="38.6586932" lon="16.3820788"><ele>557.0</ele><time>2026-04-11T14:08:56.677Z</time></trkpt><trkpt lat="38.6587961" lon="16.3820075"><ele>557.0</ele><time>2026-04-11T14:08:57.677Z</time></trkpt><trkpt lat="38.6589247" lon="16.381975"><ele>558.25</ele><time>2026-04-11T14:08:58.677Z</time></trkpt><trkpt lat="38.6590567" lon="16.3819482"><ele>559.5</ele><time>2026-04-11T14:08:59.677Z</time></trkpt><trkpt lat="38.6591921" lon="16.3819194"><ele>560.75</ele><time>2026-04-11T14:09:00.677Z</time></trkpt><trkpt lat="38.6593196" lon="16.3818892"><ele>562.0</ele><time>2026-04-11T14:09:01.677Z</time></trkpt><trkpt lat="38.6594379" lon="16.3818386"><ele>558.0</ele><time>2026-04-11T14:09:02.678Z</time></trkpt><trkpt lat="38.659555" lon="16.3817843"><ele>554.0</ele><time>2026-04-11T14:09:03.677Z</time></trkpt><trkpt lat="38.659673" lon="16.3817113"><ele>550.0</ele><time>2026-04-11T14:09:04.677Z</time></trkpt><trkpt lat="38.6597842" lon="16.3816205"><ele>546.0</ele><time>2026-04-11T14:09:05.678Z</time></trkpt><trkpt lat="38.6598929" lon="16.381536"><ele>546.0</ele><time>2026-04-11T14:09:06.677Z</time></trkpt><trkpt lat="38.6600083" lon="16.381459"><ele>546.0</ele><time>2026-04-11T14:09:07.677Z</time></trkpt><trkpt lat="38.6601303" lon="16.3813995"><ele>546.0</ele><time>2026-04-11T14:09:08.677Z</time></trkpt><trkpt lat="38.6602506" lon="16.3813498"><ele>546.0</ele><time>2026-04-11T14:09:09.677Z</time></trkpt><trkpt lat="38.6603569" lon="16.3812878"><ele>545.75</ele><time>2026-04-11T14:09:10.678Z</time></trkpt><trkpt lat="38.6604466" lon="16.3811948"><ele>545.5</ele><time>2026-04-11T14:09:11.678Z</time></trkpt><trkpt lat="38.6605147" lon="16.3810695"><ele>545.25</ele><time>2026-04-11T14:09:12.678Z</time></trkpt><trkpt lat="38.6605683" lon="16.3809348"><ele>545.0</ele><time>2026-04-11T14:09:13.677Z</time></trkpt><trkpt lat="38.6606233" lon="16.3808297"><ele>545.0</ele><time>2026-04-11T14:09:14.677Z</time></trkpt><trkpt lat="38.660682" lon="16.3807648"><ele>545.0</ele><time>2026-04-11T14:09:15.678Z</time></trkpt><trkpt lat="38.660754" lon="16.3807426"><ele>545.0</ele><time>2026-04-11T14:09:16.677Z</time></trkpt><trkpt lat="38.6608314" lon="16.3807703"><ele>545.0</ele><time>2026-04-11T14:09:17.677Z</time></trkpt><trkpt lat="38.6609119" lon="16.3808268"><ele>545.0</ele><time>2026-04-11T14:09:18.678Z</time></trkpt><trkpt lat="38.6610031" lon="16.380876"><ele>545.0</ele><time>2026-04-11T14:09:19.677Z</time></trkpt><trkpt lat="38.6611018" lon="16.3808954"><ele>544.6666666666666</ele><time>2026-04-11T14:09:20.678Z</time></trkpt><trkpt lat="38.6611981" lon="16.3808758"><ele>544.3333333333333</ele><time>2026-04-11T14:09:21.678Z</time></trkpt><trkpt lat="38.6612859" lon="16.3808165"><ele>544.0</ele><time>2026-04-11T14:09:22.678Z</time></trkpt><trkpt lat="38.6613553" lon="16.3807509"><ele>543.6666666666666</ele><time>2026-04-11T14:09:23.677Z</time></trkpt><trkpt lat="38.6614212" lon="16.3807081"><ele>543.3333333333334</ele><time>2026-04-11T14:09:24.677Z</time></trkpt><trkpt lat="38.6614857" lon="16.3806937"><ele>543.0</ele><time>2026-04-11T14:09:25.677Z</time></trkpt><trkpt lat="38.6615932" lon="16.380783"><ele>543.0</ele><time>2026-04-11T14:09:27.677Z</time></trkpt><trkpt lat="38.6616196" lon="16.3808872"><ele>543.0</ele><time>2026-04-11T14:09:28.677Z</time></trkpt><trkpt lat="38.6616114" lon="16.3810133"><ele>543.0</ele><time>2026-04-11T14:09:29.678Z</time></trkpt><trkpt lat="38.6615728" lon="16.3811488"><ele>543.0</ele><time>2026-04-11T14:09:30.678Z</time></trkpt><trkpt lat="38.6615153" lon="16.3812828"><ele>543.0</ele><time>2026-04-11T14:09:31.678Z</time></trkpt><trkpt lat="38.6614408" lon="16.381416"><ele>544.5</ele><time>2026-04-11T14:09:32.677Z</time></trkpt><trkpt lat="38.6613671" lon="16.3815426"><ele>546.0</ele><time>2026-04-11T14:09:33.677Z</time></trkpt><trkpt lat="38.6612973" lon="16.3816742"><ele>547.5</ele><time>2026-04-11T14:09:34.678Z</time></trkpt><trkpt lat="38.6612277" lon="16.3818184"><ele>549.0</ele><time>2026-04-11T14:09:35.677Z</time></trkpt><trkpt lat="38.6611572" lon="16.3819581"><ele>546.75</ele><time>2026-04-11T14:09:36.677Z</time></trkpt><trkpt lat="38.661069" lon="16.3820967"><ele>544.5</ele><time>2026-04-11T14:09:37.678Z</time></trkpt><trkpt lat="38.6609696" lon="16.3822411"><ele>542.25</ele><time>2026-04-11T14:09:38.677Z</time></trkpt><trkpt lat="38.6608653" lon="16.3823863"><ele>540.0</ele><time>2026-04-11T14:09:39.678Z</time></trkpt><trkpt lat="38.6607622" lon="16.382544"><ele>540.0</ele><time>2026-04-11T14:09:40.678Z</time></trkpt><trkpt lat="38.6606616" lon="16.3827024"><ele>540.0</ele><time>2026-04-11T14:09:41.677Z</time></trkpt><trkpt lat="38.6605623" lon="16.3828563"><ele>540.0</ele><time>2026-04-11T14:09:42.677Z</time></trkpt><trkpt lat="38.6604595" lon="16.3830206"><ele>539.0</ele><time>2026-04-11T14:09:43.678Z</time></trkpt><trkpt lat="38.6603559" lon="16.3831774"><ele>538.0</ele><time>2026-04-11T14:09:44.677Z</time></trkpt><trkpt lat="38.6602506" lon="16.3833305"><ele>537.0</ele><time>2026-04-11T14:09:45.677Z</time></trkpt><trkpt lat="38.6601395" lon="16.3834765"><ele>537.0</ele><time>2026-04-11T14:09:46.677Z</time></trkpt><trkpt lat="38.6600327" lon="16.3836173"><ele>537.0</ele><time>2026-04-11T14:09:47.678Z</time></trkpt><trkpt lat="38.6599363" lon="16.383747"><ele>537.0</ele><time>2026-04-11T14:09:48.677Z</time></trkpt><trkpt lat="38.6598545" lon="16.3838731"><ele>537.0</ele><time>2026-04-11T14:09:49.678Z</time></trkpt><trkpt lat="38.659805" lon="16.3839911"><ele>537.8000000000001</ele><time>2026-04-11T14:09:50.678Z</time></trkpt><trkpt lat="38.6597909" lon="16.3840906"><ele>538.6</ele><time>2026-04-11T14:09:51.677Z</time></trkpt><trkpt lat="38.6597991" lon="16.3842096"><ele>539.4000000000001</ele><time>2026-04-11T14:09:52.677Z</time></trkpt><trkpt lat="38.6598245" lon="16.3843315"><ele>540.2</ele><time>2026-04-11T14:09:53.678Z</time></trkpt><trkpt lat="38.659856" lon="16.3844623"><ele>541.0</ele><time>2026-04-11T14:09:54.677Z</time></trkpt><trkpt lat="38.6598865" lon="16.3846019"><ele>539.5</ele><time>2026-04-11T14:09:55.677Z</time></trkpt><trkpt lat="38.6599177" lon="16.3847477"><ele>538.0</ele><time>2026-04-11T14:09:56.677Z</time></trkpt><trkpt lat="38.6599547" lon="16.3849004"><ele>536.5</ele><time>2026-04-11T14:09:57.678Z</time></trkpt><trkpt lat="38.6599909" lon="16.3850701"><ele>535.0</ele><time>2026-04-11T14:09:58.678Z</time></trkpt><trkpt lat="38.6600354" lon="16.3852281"><ele>535.0</ele><time>2026-04-11T14:09:59.677Z</time></trkpt><trkpt lat="38.6601066" lon="16.3853529"><ele>535.0</ele><time>2026-04-11T14:10:00.678Z</time></trkpt><trkpt lat="38.6601946" lon="16.3854301"><ele>535.0</ele><time>2026-04-11T14:10:01.678Z</time></trkpt><trkpt lat="38.6602962" lon="16.3854872"><ele>535.0</ele><time>2026-04-11T14:10:02.678Z</time></trkpt><trkpt lat="38.6604025" lon="16.3855431"><ele>536.0</ele><time>2026-04-11T14:10:03.678Z</time></trkpt><trkpt lat="38.6604967" lon="16.3856133"><ele>537.0</ele><time>2026-04-11T14:10:04.678Z</time></trkpt><trkpt lat="38.6605688" lon="16.3857363"><ele>538.0</ele><time>2026-04-11T14:10:05.677Z</time></trkpt><trkpt lat="38.6606262" lon="16.3858878"><ele>539.0</ele><time>2026-04-11T14:10:06.678Z</time></trkpt><trkpt lat="38.6606501" lon="16.386044"><ele>539.0</ele><time>2026-04-11T14:10:07.677Z</time></trkpt><trkpt lat="38.6606528" lon="16.3861932"><ele>539.0</ele><time>2026-04-11T14:10:08.677Z</time></trkpt><trkpt lat="38.6606804" lon="16.386325"><ele>539.0</ele><time>2026-04-11T14:10:09.677Z</time></trkpt><trkpt lat="38.660741" lon="16.3864153"><ele>539.0</ele><time>2026-04-11T14:10:10.678Z</time></trkpt><trkpt lat="38.660827" lon="16.3864415"><ele>539.0</ele><time>2026-04-11T14:10:11.678Z</time></trkpt><trkpt lat="38.6609269" lon="16.3864143"><ele>539.75</ele><time>2026-04-11T14:10:12.677Z</time></trkpt><trkpt lat="38.661032" lon="16.3863637"><ele>540.5</ele><time>2026-04-11T14:10:13.677Z</time></trkpt><trkpt lat="38.661151" lon="16.3862975"><ele>541.25</ele><time>2026-04-11T14:10:14.677Z</time></trkpt><trkpt lat="38.6612727" lon="16.3862269"><ele>542.0</ele><time>2026-04-11T14:10:15.677Z</time></trkpt><trkpt lat="38.661392" lon="16.386169"><ele>542.0</ele><time>2026-04-11T14:10:16.678Z</time></trkpt><trkpt lat="38.6615039" lon="16.3861136"><ele>542.0</ele><time>2026-04-11T14:10:17.677Z</time></trkpt><trkpt lat="38.6616116" lon="16.3860654"><ele>542.0</ele><time>2026-04-11T14:10:18.677Z</time></trkpt><trkpt lat="38.6617321" lon="16.3860606"><ele>542.0</ele><time>2026-04-11T14:10:19.677Z</time></trkpt><trkpt lat="38.6618462" lon="16.3861024"><ele>542.0</ele><time>2026-04-11T14:10:20.677Z</time></trkpt><trkpt lat="38.6619461" lon="16.3861749"><ele>542.0</ele><time>2026-04-11T14:10:21.677Z</time></trkpt><trkpt lat="38.6620515" lon="16.3862629"><ele>542.0</ele><time>2026-04-11T14:10:22.677Z</time></trkpt><trkpt lat="38.6621657" lon="16.3863505"><ele>542.0</ele><time>2026-04-11T14:10:23.678Z</time></trkpt><trkpt lat="38.6622942" lon="16.3864446"><ele>538.5</ele><time>2026-04-11T14:10:24.678Z</time></trkpt><trkpt lat="38.6624155" lon="16.3865491"><ele>535.0</ele><time>2026-04-11T14:10:25.677Z</time></trkpt><trkpt lat="38.6625265" lon="16.3866417"><ele>531.5</ele><time>2026-04-11T14:10:26.677Z</time></trkpt><trkpt lat="38.6626323" lon="16.3867101"><ele>528.0</ele><time>2026-04-11T14:10:27.677Z</time></trkpt><trkpt lat="38.6627443" lon="16.3867338"><ele>527.25</ele><time>2026-04-11T14:10:28.677Z</time></trkpt><trkpt lat="38.6628584" lon="16.3867257"><ele>526.5</ele><time>2026-04-11T14:10:29.677Z</time></trkpt><trkpt lat="38.6629756" lon="16.3866887"><ele>525.75</ele><time>2026-04-11T14:10:30.677Z</time></trkpt><trkpt lat="38.6630908" lon="16.3866236"><ele>525.0</ele><time>2026-04-11T14:10:31.677Z</time></trkpt><trkpt lat="38.6632059" lon="16.3865789"><ele>525.0</ele><time>2026-04-11T14:10:32.678Z</time></trkpt><trkpt lat="38.6633082" lon="16.3865618"><ele>525.0</ele><time>2026-04-11T14:10:33.678Z</time></trkpt><trkpt lat="38.6634148" lon="16.3865707"><ele>525.0</ele><time>2026-04-11T14:10:34.678Z</time></trkpt><trkpt lat="38.6635234" lon="16.3866104"><ele>525.0</ele><time>2026-04-11T14:10:35.677Z</time></trkpt><trkpt lat="38.6636296" lon="16.386687"><ele>525.0</ele><time>2026-04-11T14:10:36.678Z</time></trkpt><trkpt lat="38.6637326" lon="16.3867858"><ele>525.25</ele><time>2026-04-11T14:10:37.678Z</time></trkpt><trkpt lat="38.6638296" lon="16.3868979"><ele>525.5</ele><time>2026-04-11T14:10:38.678Z</time></trkpt><trkpt lat="38.6639119" lon="16.3870134"><ele>525.75</ele><time>2026-04-11T14:10:39.677Z</time></trkpt><trkpt lat="38.6639899" lon="16.3871306"><ele>526.0</ele><time>2026-04-11T14:10:40.677Z</time></trkpt><trkpt lat="38.6640504" lon="16.3872568"><ele>526.0</ele><time>2026-04-11T14:10:41.678Z</time></trkpt><trkpt lat="38.664087" lon="16.3873936"><ele>526.0</ele><time>2026-04-11T14:10:42.677Z</time></trkpt><trkpt lat="38.6641081" lon="16.3875384"><ele>526.0</ele><time>2026-04-11T14:10:43.677Z</time></trkpt><trkpt lat="38.6641257" lon="16.3876796"><ele>526.0</ele><time>2026-04-11T14:10:44.678Z</time></trkpt><trkpt lat="38.6641547" lon="16.3878199"><ele>526.0</ele><time>2026-04-11T14:10:45.678Z</time></trkpt><trkpt lat="38.6642048" lon="16.3879574"><ele>526.0</ele><time>2026-04-11T14:10:46.678Z</time></trkpt><trkpt lat="38.664267" lon="16.3880881"><ele>526.0</ele><time>2026-04-11T14:10:47.677Z</time></trkpt><trkpt lat="38.6643407" lon="16.388214"><ele>526.0</ele><time>2026-04-11T14:10:48.677Z</time></trkpt><trkpt lat="38.6644168" lon="16.3883217"><ele>526.0</ele><time>2026-04-11T14:10:49.677Z</time></trkpt><trkpt lat="38.6644945" lon="16.3884"><ele>526.0</ele><time>2026-04-11T14:10:50.677Z</time></trkpt><trkpt lat="38.6645822" lon="16.3884547"><ele>526.0</ele><time>2026-04-11T14:10:51.677Z</time></trkpt><trkpt lat="38.6646716" lon="16.3884726"><ele>526.0</ele><time>2026-04-11T14:10:52.677Z</time></trkpt><trkpt lat="38.6647693" lon="16.388463"><ele>526.0</ele><time>2026-04-11T14:10:53.677Z</time></trkpt><trkpt lat="38.6648813" lon="16.3884204"><ele>526.0</ele><time>2026-04-11T14:10:54.677Z</time></trkpt><trkpt lat="38.6649998" lon="16.3883735"><ele>526.0</ele><time>2026-04-11T14:10:55.677Z</time></trkpt><trkpt lat="38.6651251" lon="16.3883231"><ele>526.0</ele><time>2026-04-11T14:10:56.678Z</time></trkpt><trkpt lat="38.6652553" lon="16.3882816"><ele>526.0</ele><time>2026-04-11T14:10:57.678Z</time></trkpt><trkpt lat="38.6653877" lon="16.3882457"><ele>526.0</ele><time>2026-04-11T14:10:58.678Z</time></trkpt><trkpt lat="38.6655033" lon="16.3882281"><ele>526.0</ele><time>2026-04-11T14:10:59.677Z</time></trkpt><trkpt lat="38.6656037" lon="16.388248"><ele>526.0</ele><time>2026-04-11T14:11:00.678Z</time></trkpt><trkpt lat="38.6656755" lon="16.3883148"><ele>526.0</ele><time>2026-04-11T14:11:01.677Z</time></trkpt><trkpt lat="38.6657281" lon="16.3884147"><ele>526.0</ele><time>2026-04-11T14:11:02.677Z</time></trkpt><trkpt lat="38.6657688" lon="16.3885378"><ele>526.0</ele><time>2026-04-11T14:11:03.677Z</time></trkpt><trkpt lat="38.6658015" lon="16.3886819"><ele>526.0</ele><time>2026-04-11T14:11:04.677Z</time></trkpt><trkpt lat="38.6658311" lon="16.3888469"><ele>526.0</ele><time>2026-04-11T14:11:05.677Z</time></trkpt><trkpt lat="38.6658637" lon="16.3890158"><ele>526.0</ele><time>2026-04-11T14:11:06.677Z</time></trkpt><trkpt lat="38.6659017" lon="16.389185"><ele>524.0</ele><time>2026-04-11T14:11:07.678Z</time></trkpt><trkpt lat="38.6659447" lon="16.3893625"><ele>522.0</ele><time>2026-04-11T14:11:08.678Z</time></trkpt><trkpt lat="38.6659882" lon="16.3895532"><ele>520.0</ele><time>2026-04-11T14:11:09.677Z</time></trkpt><trkpt lat="38.6660301" lon="16.3897444"><ele>520.0</ele><time>2026-04-11T14:11:10.678Z</time></trkpt><trkpt lat="38.6660765" lon="16.389935"><ele>520.0</ele><time>2026-04-11T14:11:11.677Z</time></trkpt><trkpt lat="38.6661216" lon="16.3901148"><ele>520.0</ele><time>2026-04-11T14:11:12.677Z</time></trkpt><trkpt lat="38.6661547" lon="16.3902973"><ele>519.75</ele><time>2026-04-11T14:11:13.677Z</time></trkpt><trkpt lat="38.6661717" lon="16.3904642"><ele>519.5</ele><time>2026-04-11T14:11:14.677Z</time></trkpt><trkpt lat="38.6661608" lon="16.3906268"><ele>519.25</ele><time>2026-04-11T14:11:15.678Z</time></trkpt><trkpt lat="38.6661232" lon="16.3907946"><ele>519.0</ele><time>2026-04-11T14:11:16.677Z</time></trkpt><trkpt lat="38.6660786" lon="16.3909528"><ele>519.75</ele><time>2026-04-11T14:11:17.677Z</time></trkpt><trkpt lat="38.6660333" lon="16.3911062"><ele>520.5</ele><time>2026-04-11T14:11:18.677Z</time></trkpt><trkpt lat="38.6659979" lon="16.3912633"><ele>521.25</ele><time>2026-04-11T14:11:19.677Z</time></trkpt><trkpt lat="38.6659825" lon="16.3914289"><ele>522.0</ele><time>2026-04-11T14:11:20.677Z</time></trkpt><trkpt lat="38.6659811" lon="16.3915835"><ele>522.6</ele><time>2026-04-11T14:11:21.678Z</time></trkpt><trkpt lat="38.6659683" lon="16.3917289"><ele>523.2</ele><time>2026-04-11T14:11:22.678Z</time></trkpt><trkpt lat="38.6659415" lon="16.3918506"><ele>523.8</ele><time>2026-04-11T14:11:23.678Z</time></trkpt><trkpt lat="38.6658845" lon="16.3919426"><ele>524.4</ele><time>2026-04-11T14:11:24.678Z</time></trkpt><trkpt lat="38.6658006" lon="16.3919961"><ele>525.0</ele><time>2026-04-11T14:11:25.677Z</time></trkpt><trkpt lat="38.6657052" lon="16.392021"><ele>525.0</ele><time>2026-04-11T14:11:26.677Z</time></trkpt><trkpt lat="38.6656061" lon="16.3920284"><ele>525.0</ele><time>2026-04-11T14:11:27.677Z</time></trkpt><trkpt lat="38.6655046" lon="16.3920388"><ele>525.0</ele><time>2026-04-11T14:11:28.678Z</time></trkpt><trkpt lat="38.6654032" lon="16.3920596"><ele>525.0</ele><time>2026-04-11T14:11:29.677Z</time></trkpt><trkpt lat="38.6653021" lon="16.3921235"><ele>525.0</ele><time>2026-04-11T14:11:30.678Z</time></trkpt><trkpt lat="38.6652087" lon="16.3922153"><ele>524.75</ele><time>2026-04-11T14:11:31.677Z</time></trkpt><trkpt lat="38.6651385" lon="16.3923221"><ele>524.5</ele><time>2026-04-11T14:11:32.677Z</time></trkpt><trkpt lat="38.6650785" lon="16.3924395"><ele>524.25</ele><time>2026-04-11T14:11:33.677Z</time></trkpt><trkpt lat="38.6650168" lon="16.3925713"><ele>524.0</ele><time>2026-04-11T14:11:34.677Z</time></trkpt><trkpt lat="38.6649822" lon="16.392707"><ele>524.0</ele><time>2026-04-11T14:11:35.677Z</time></trkpt><trkpt lat="38.6649816" lon="16.3928333"><ele>524.0</ele><time>2026-04-11T14:11:36.677Z</time></trkpt><trkpt lat="38.6650243" lon="16.3929584"><ele>524.0</ele><time>2026-04-11T14:11:37.677Z</time></trkpt><trkpt lat="38.6650958" lon="16.3930767"><ele>524.0</ele><time>2026-04-11T14:11:38.678Z</time></trkpt><trkpt lat="38.6651804" lon="16.3931789"><ele>524.0</ele><time>2026-04-11T14:11:39.677Z</time></trkpt><trkpt lat="38.6652643" lon="16.393277"><ele>526.6</ele><time>2026-04-11T14:11:40.677Z</time></trkpt><trkpt lat="38.6653422" lon="16.3933857"><ele>529.2</ele><time>2026-04-11T14:11:41.678Z</time></trkpt><trkpt lat="38.6654004" lon="16.3935137"><ele>531.8000000000001</ele><time>2026-04-11T14:11:42.677Z</time></trkpt><trkpt lat="38.6654314" lon="16.393651"><ele>534.4</ele><time>2026-04-11T14:11:43.677Z</time></trkpt><trkpt lat="38.665432" lon="16.3937837"><ele>537.0</ele><time>2026-04-11T14:11:44.677Z</time></trkpt><trkpt lat="38.6654062" lon="16.3939278"><ele>537.0</ele><time>2026-04-11T14:11:45.677Z</time></trkpt><trkpt lat="38.6653496" lon="16.3940686"><ele>537.0</ele><time>2026-04-11T14:11:46.677Z</time></trkpt><trkpt lat="38.665294" lon="16.3942057"><ele>537.0</ele><time>2026-04-11T14:11:47.678Z</time></trkpt><trkpt lat="38.6652398" lon="16.3943439"><ele>537.0</ele><time>2026-04-11T14:11:48.678Z</time></trkpt><trkpt lat="38.6651904" lon="16.394487"><ele>533.5</ele><time>2026-04-11T14:11:49.678Z</time></trkpt><trkpt lat="38.6651542" lon="16.3946413"><ele>530.0</ele><time>2026-04-11T14:11:50.678Z</time></trkpt><trkpt lat="38.6651386" lon="16.3947978"><ele>526.5</ele><time>2026-04-11T14:11:51.678Z</time></trkpt><trkpt lat="38.6651324" lon="16.3949567"><ele>523.0</ele><time>2026-04-11T14:11:52.677Z</time></trkpt><trkpt lat="38.6651324" lon="16.3951057"><ele>523.0</ele><time>2026-04-11T14:11:53.678Z</time></trkpt><trkpt lat="38.6651367" lon="16.3952774"><ele>523.0</ele><time>2026-04-11T14:11:54.678Z</time></trkpt><trkpt lat="38.6651275" lon="16.3954501"><ele>523.0</ele><time>2026-04-11T14:11:55.678Z</time></trkpt><trkpt lat="38.6651177" lon="16.3956248"><ele>523.0</ele><time>2026-04-11T14:11:56.678Z</time></trkpt><trkpt lat="38.6651123" lon="16.3958058"><ele>523.5</ele><time>2026-04-11T14:11:57.677Z</time></trkpt><trkpt lat="38.6651076" lon="16.3959915"><ele>524.0</ele><time>2026-04-11T14:11:58.678Z</time></trkpt><trkpt lat="38.6651008" lon="16.3961694"><ele>524.5</ele><time>2026-04-11T14:11:59.677Z</time></trkpt><trkpt lat="38.6650941" lon="16.3963491"><ele>525.0</ele><time>2026-04-11T14:12:00.677Z</time></trkpt><trkpt lat="38.6650839" lon="16.3965264"><ele>524.0</ele><time>2026-04-11T14:12:01.677Z</time></trkpt><trkpt lat="38.6650742" lon="16.3966998"><ele>523.0</ele><time>2026-04-11T14:12:02.678Z</time></trkpt><trkpt lat="38.6650742" lon="16.3968699"><ele>522.0</ele><time>2026-04-11T14:12:03.678Z</time></trkpt><trkpt lat="38.6650721" lon="16.3970288"><ele>521.0</ele><time>2026-04-11T14:12:04.677Z</time></trkpt><trkpt lat="38.6650686" lon="16.3971677"><ele>521.0</ele><time>2026-04-11T14:12:05.677Z</time></trkpt><trkpt lat="38.6650641" lon="16.3972969"><ele>521.0</ele><time>2026-04-11T14:12:06.678Z</time></trkpt><trkpt lat="38.6650623" lon="16.3974259"><ele>521.0</ele><time>2026-04-11T14:12:07.678Z</time></trkpt><trkpt lat="38.6650604" lon="16.3975591"><ele>521.0</ele><time>2026-04-11T14:12:08.677Z</time></trkpt><trkpt lat="38.6650536" lon="16.3976947"><ele>521.0</ele><time>2026-04-11T14:12:09.677Z</time></trkpt><trkpt lat="38.6650494" lon="16.3978238"><ele>521.0</ele><time>2026-04-11T14:12:10.678Z</time></trkpt><trkpt lat="38.6650449" lon="16.3979414"><ele>521.0</ele><time>2026-04-11T14:12:11.678Z</time></trkpt><trkpt lat="38.6650475" lon="16.3980433"><ele>521.0</ele><time>2026-04-11T14:12:12.677Z</time></trkpt><trkpt lat="38.6650624" lon="16.3981428"><ele>521.0</ele><time>2026-04-11T14:12:13.678Z</time></trkpt><trkpt lat="38.6650907" lon="16.3982329"><ele>521.0</ele><time>2026-04-11T14:12:14.677Z</time></trkpt><trkpt lat="38.6651356" lon="16.3983169"><ele>521.0</ele><time>2026-04-11T14:12:15.677Z</time></trkpt><trkpt lat="38.6652029" lon="16.398402"><ele>523.1666666666666</ele><time>2026-04-11T14:12:16.678Z</time></trkpt><trkpt lat="38.66528" lon="16.3984978"><ele>525.3333333333333</ele><time>2026-04-11T14:12:17.677Z</time></trkpt><trkpt lat="38.6653469" lon="16.3985761"><ele>527.5</ele><time>2026-04-11T14:12:18.677Z</time></trkpt><trkpt lat="38.6654035" lon="16.3986431"><ele>529.6666666666666</ele><time>2026-04-11T14:12:19.677Z</time></trkpt><trkpt lat="38.6654626" lon="16.3987057"><ele>531.8333333333334</ele><time>2026-04-11T14:12:20.677Z</time></trkpt><trkpt lat="38.6655242" lon="16.3987627"><ele>534.0</ele><time>2026-04-11T14:12:21.677Z</time></trkpt><trkpt lat="38.6655819" lon="16.3988241"><ele>532.5</ele><time>2026-04-11T14:12:22.678Z</time></trkpt><trkpt lat="38.6656414" lon="16.3988912"><ele>531.0</ele><time>2026-04-11T14:12:23.677Z</time></trkpt><trkpt lat="38.6656969" lon="16.3989675"><ele>529.5</ele><time>2026-04-11T14:12:24.677Z</time></trkpt><trkpt lat="38.665755" lon="16.3990492"><ele>528.0</ele><time>2026-04-11T14:12:25.678Z</time></trkpt><trkpt lat="38.6658181" lon="16.3991321"><ele>526.5</ele><time>2026-04-11T14:12:26.677Z</time></trkpt><trkpt lat="38.6658862" lon="16.3992292"><ele>525.0</ele><time>2026-04-11T14:12:27.677Z</time></trkpt><trkpt lat="38.6659504" lon="16.399338"><ele>525.0</ele><time>2026-04-11T14:12:28.678Z</time></trkpt><trkpt lat="38.6660049" lon="16.3994465"><ele>525.0</ele><time>2026-04-11T14:12:29.678Z</time></trkpt><trkpt lat="38.6660522" lon="16.3995575"><ele>525.0</ele><time>2026-04-11T14:12:30.678Z</time></trkpt><trkpt lat="38.6660948" lon="16.3996726"><ele>525.0</ele><time>2026-04-11T14:12:31.678Z</time></trkpt><trkpt lat="38.666131" lon="16.3998011"><ele>525.0</ele><time>2026-04-11T14:12:32.677Z</time></trkpt><trkpt lat="38.6661781" lon="16.3999348"><ele>527.4</ele><time>2026-04-11T14:12:33.677Z</time></trkpt><trkpt lat="38.6662327" lon="16.4000597"><ele>529.8</ele><time>2026-04-11T14:12:34.677Z</time></trkpt><trkpt lat="38.6662858" lon="16.4001688"><ele>532.2</ele><time>2026-04-11T14:12:35.678Z</time></trkpt><trkpt lat="38.6663349" lon="16.400267"><ele>534.6</ele><time>2026-04-11T14:12:36.677Z</time></trkpt><trkpt lat="38.6663837" lon="16.4003676"><ele>537.0</ele><time>2026-04-11T14:12:37.677Z</time></trkpt><trkpt lat="38.6664308" lon="16.4004754"><ele>536.6666666666666</ele><time>2026-04-11T14:12:38.677Z</time></trkpt><trkpt lat="38.6664816" lon="16.400584"><ele>536.3333333333334</ele><time>2026-04-11T14:12:39.677Z</time></trkpt><trkpt lat="38.6665301" lon="16.4006898"><ele>536.0</ele><time>2026-04-11T14:12:40.677Z</time></trkpt><trkpt lat="38.6665722" lon="16.4007849"><ele>535.6666666666667</ele><time>2026-04-11T14:12:41.677Z</time></trkpt><trkpt lat="38.6666017" lon="16.4008832"><ele>535.3333333333334</ele><time>2026-04-11T14:12:42.678Z</time></trkpt><trkpt lat="38.6666191" lon="16.4009871"><ele>535.0</ele><time>2026-04-11T14:12:43.678Z</time></trkpt><trkpt lat="38.6666254" lon="16.4010978"><ele>535.0</ele><time>2026-04-11T14:12:44.677Z</time></trkpt><trkpt lat="38.6666114" lon="16.4012079"><ele>535.0</ele><time>2026-04-11T14:12:45.677Z</time></trkpt><trkpt lat="38.666584" lon="16.4013197"><ele>535.0</ele><time>2026-04-11T14:12:46.677Z</time></trkpt><trkpt lat="38.6665467" lon="16.4014258"><ele>535.0</ele><time>2026-04-11T14:12:47.678Z</time></trkpt><trkpt lat="38.6665105" lon="16.4015411"><ele>535.0</ele><time>2026-04-11T14:12:48.678Z</time></trkpt><trkpt lat="38.6664854" lon="16.4016607"><ele>534.8</ele><time>2026-04-11T14:12:49.677Z</time></trkpt><trkpt lat="38.6664691" lon="16.4017882"><ele>534.6</ele><time>2026-04-11T14:12:50.678Z</time></trkpt><trkpt lat="38.6664701" lon="16.4019159"><ele>534.4</ele><time>2026-04-11T14:12:51.677Z</time></trkpt><trkpt lat="38.6664789" lon="16.402037"><ele>534.2</ele><time>2026-04-11T14:12:52.678Z</time></trkpt><trkpt lat="38.6665036" lon="16.4021371"><ele>534.0</ele><time>2026-04-11T14:12:53.678Z</time></trkpt><trkpt lat="38.6665449" lon="16.402249"><ele>534.5</ele><time>2026-04-11T14:12:54.677Z</time></trkpt><trkpt lat="38.6666127" lon="16.4023621"><ele>535.0</ele><time>2026-04-11T14:12:55.678Z</time></trkpt><trkpt lat="38.6667223" lon="16.4024808"><ele>535.5</ele><time>2026-04-11T14:12:56.677Z</time></trkpt><trkpt lat="38.6668515" lon="16.4026096"><ele>536.0</ele><time>2026-04-11T14:12:57.678Z</time></trkpt><trkpt lat="38.6669966" lon="16.4027488"><ele>536.0</ele><time>2026-04-11T14:12:58.677Z</time></trkpt><trkpt lat="38.6671304" lon="16.4028935"><ele>536.0</ele><time>2026-04-11T14:12:59.678Z</time></trkpt><trkpt lat="38.6672519" lon="16.4030457"><ele>536.0</ele><time>2026-04-11T14:13:00.677Z</time></trkpt><trkpt lat="38.66737" lon="16.4032299"><ele>531.6666666666666</ele><time>2026-04-11T14:13:01.678Z</time></trkpt><trkpt lat="38.6674801" lon="16.4034167"><ele>527.3333333333334</ele><time>2026-04-11T14:13:02.678Z</time></trkpt><trkpt lat="38.6675888" lon="16.403607"><ele>523.0</ele><time>2026-04-11T14:13:03.678Z</time></trkpt><trkpt lat="38.6676971" lon="16.4037983"><ele>524.0</ele><time>2026-04-11T14:13:04.677Z</time></trkpt><trkpt lat="38.6677954" lon="16.4039793"><ele>525.0</ele><time>2026-04-11T14:13:05.678Z</time></trkpt><trkpt lat="38.6678969" lon="16.4041534"><ele>526.0</ele><time>2026-04-11T14:13:06.677Z</time></trkpt><trkpt lat="38.6680037" lon="16.4043163"><ele>526.0</ele><time>2026-04-11T14:13:07.677Z</time></trkpt><trkpt lat="38.6681093" lon="16.4044782"><ele>526.0</ele><time>2026-04-11T14:13:08.678Z</time></trkpt><trkpt lat="38.6682173" lon="16.4046293"><ele>526.0</ele><time>2026-04-11T14:13:09.677Z</time></trkpt><trkpt lat="38.6683234" lon="16.4047731"><ele>526.0</ele><time>2026-04-11T14:13:10.678Z</time></trkpt><trkpt lat="38.6684303" lon="16.4049196"><ele>526.0</ele><time>2026-04-11T14:13:11.678Z</time></trkpt><trkpt lat="38.6685383" lon="16.4050513"><ele>526.0</ele><time>2026-04-11T14:13:12.677Z</time></trkpt><trkpt lat="38.6686467" lon="16.4051822"><ele>526.0</ele><time>2026-04-11T14:13:13.677Z</time></trkpt><trkpt lat="38.6687518" lon="16.4052873"><ele>526.0</ele><time>2026-04-11T14:13:14.678Z</time></trkpt><trkpt lat="38.6688658" lon="16.4053613"><ele>526.0</ele><time>2026-04-11T14:13:15.677Z</time></trkpt><trkpt lat="38.6689833" lon="16.4053805"><ele>526.0</ele><time>2026-04-11T14:13:16.678Z</time></trkpt><trkpt lat="38.6691046" lon="16.4053444"><ele>526.0</ele><time>2026-04-11T14:13:17.678Z</time></trkpt><trkpt lat="38.6692084" lon="16.4052659"><ele>526.0</ele><time>2026-04-11T14:13:18.678Z</time></trkpt><trkpt lat="38.6692985" lon="16.4051691"><ele>526.0</ele><time>2026-04-11T14:13:19.678Z</time></trkpt><trkpt lat="38.6693873" lon="16.405058"><ele>526.0</ele><time>2026-04-11T14:13:20.677Z</time></trkpt><trkpt lat="38.6694823" lon="16.4049259"><ele>525.0</ele><time>2026-04-11T14:13:21.678Z</time></trkpt><trkpt lat="38.6695858" lon="16.4048134"><ele>524.0</ele><time>2026-04-11T14:13:22.678Z</time></trkpt><trkpt lat="38.6696934" lon="16.4047147"><ele>523.0</ele><time>2026-04-11T14:13:23.677Z</time></trkpt><trkpt lat="38.6698068" lon="16.4046509"><ele>522.0</ele><time>2026-04-11T14:13:24.678Z</time></trkpt><trkpt lat="38.6699321" lon="16.4046544"><ele>522.0</ele><time>2026-04-11T14:13:25.678Z</time></trkpt><trkpt lat="38.6700464" lon="16.4047122"><ele>522.0</ele><time>2026-04-11T14:13:26.678Z</time></trkpt><trkpt lat="38.6701411" lon="16.4048022"><ele>522.0</ele><time>2026-04-11T14:13:27.678Z</time></trkpt><trkpt lat="38.6702324" lon="16.4049022"><ele>522.0</ele><time>2026-04-11T14:13:28.677Z</time></trkpt><trkpt lat="38.6703303" lon="16.405001"><ele>523.75</ele><time>2026-04-11T14:13:29.677Z</time></trkpt><trkpt lat="38.670439" lon="16.4050962"><ele>525.5</ele><time>2026-04-11T14:13:30.678Z</time></trkpt><trkpt lat="38.6705558" lon="16.4051747"><ele>527.25</ele><time>2026-04-11T14:13:31.677Z</time></trkpt><trkpt lat="38.670673" lon="16.4052609"><ele>529.0</ele><time>2026-04-11T14:13:32.677Z</time></trkpt><trkpt lat="38.6707772" lon="16.4053391"><ele>529.0</ele><time>2026-04-11T14:13:33.677Z</time></trkpt><trkpt lat="38.670869" lon="16.4054298"><ele>529.0</ele><time>2026-04-11T14:13:34.677Z</time></trkpt><trkpt lat="38.6709492" lon="16.4055473"><ele>529.0</ele><time>2026-04-11T14:13:35.678Z</time></trkpt><trkpt lat="38.6710189" lon="16.4056736"><ele>529.0</ele><time>2026-04-11T14:13:36.677Z</time></trkpt><trkpt lat="38.6710703" lon="16.4057947"><ele>527.75</ele><time>2026-04-11T14:13:37.677Z</time></trkpt><trkpt lat="38.6711222" lon="16.4059193"><ele>526.5</ele><time>2026-04-11T14:13:38.678Z</time></trkpt><trkpt lat="38.6711789" lon="16.4060497"><ele>525.25</ele><time>2026-04-11T14:13:39.677Z</time></trkpt><trkpt lat="38.6712596" lon="16.406166"><ele>524.0</ele><time>2026-04-11T14:13:40.677Z</time></trkpt><trkpt lat="38.6713566" lon="16.4062617"><ele>523.0</ele><time>2026-04-11T14:13:41.678Z</time></trkpt><trkpt lat="38.6714627" lon="16.4063454"><ele>522.0</ele><time>2026-04-11T14:13:42.677Z</time></trkpt><trkpt lat="38.6715651" lon="16.4064259"><ele>521.0</ele><time>2026-04-11T14:13:43.677Z</time></trkpt><trkpt lat="38.6716589" lon="16.4065153"><ele>520.0</ele><time>2026-04-11T14:13:44.678Z</time></trkpt><trkpt lat="38.6717771" lon="16.4066138"><ele>520.0</ele><time>2026-04-11T14:13:45.677Z</time></trkpt><trkpt lat="38.6719201" lon="16.4067173"><ele>520.0</ele><time>2026-04-11T14:13:46.677Z</time></trkpt><trkpt lat="38.6720553" lon="16.4068252"><ele>520.0</ele><time>2026-04-11T14:13:47.677Z</time></trkpt><trkpt lat="38.6721741" lon="16.4069223"><ele>519.75</ele><time>2026-04-11T14:13:48.677Z</time></trkpt><trkpt lat="38.6722851" lon="16.4070164"><ele>519.5</ele><time>2026-04-11T14:13:49.677Z</time></trkpt><trkpt lat="38.6723909" lon="16.4071027"><ele>519.25</ele><time>2026-04-11T14:13:50.677Z</time></trkpt><trkpt lat="38.672493" lon="16.4071735"><ele>519.0</ele><time>2026-04-11T14:13:51.678Z</time></trkpt><trkpt lat="38.6725925" lon="16.4072454"><ele>519.0</ele><time>2026-04-11T14:13:52.677Z</time></trkpt><trkpt lat="38.6726868" lon="16.4073136"><ele>519.0</ele><time>2026-04-11T14:13:53.678Z</time></trkpt><trkpt lat="38.6727766" lon="16.4073711"><ele>519.0</ele><time>2026-04-11T14:13:54.677Z</time></trkpt><trkpt lat="38.6728683" lon="16.407409"><ele>519.0</ele><time>2026-04-11T14:13:55.678Z</time></trkpt><trkpt lat="38.6729664" lon="16.407422"><ele>519.0</ele><time>2026-04-11T14:13:56.677Z</time></trkpt><trkpt lat="38.6730712" lon="16.4074165"><ele>519.8</ele><time>2026-04-11T14:13:57.678Z</time></trkpt><trkpt lat="38.6731795" lon="16.4073969"><ele>520.5999999999999</ele><time>2026-04-11T14:13:58.677Z</time></trkpt><trkpt lat="38.6732866" lon="16.4073708"><ele>521.4</ele><time>2026-04-11T14:13:59.677Z</time></trkpt><trkpt lat="38.6733933" lon="16.4073487"><ele>522.1999999999999</ele><time>2026-04-11T14:14:00.677Z</time></trkpt><trkpt lat="38.673506" lon="16.4073245"><ele>523.0</ele><time>2026-04-11T14:14:01.677Z</time></trkpt><trkpt lat="38.6736177" lon="16.4073024"><ele>523.4</ele><time>2026-04-11T14:14:02.677Z</time></trkpt><trkpt lat="38.6737326" lon="16.4072856"><ele>523.8</ele><time>2026-04-11T14:14:03.678Z</time></trkpt><trkpt lat="38.6738421" lon="16.4072729"><ele>524.2</ele><time>2026-04-11T14:14:04.677Z</time></trkpt><trkpt lat="38.6739508" lon="16.4072642"><ele>524.6</ele><time>2026-04-11T14:14:05.677Z</time></trkpt><trkpt lat="38.6740646" lon="16.4072467"><ele>525.0</ele><time>2026-04-11T14:14:06.677Z</time></trkpt><trkpt lat="38.6741722" lon="16.4072299"><ele>525.0</ele><time>2026-04-11T14:14:07.677Z</time></trkpt><trkpt lat="38.6742821" lon="16.4072089"><ele>525.0</ele><time>2026-04-11T14:14:08.677Z</time></trkpt><trkpt lat="38.6743892" lon="16.4071962"><ele>525.0</ele><time>2026-04-11T14:14:09.677Z</time></trkpt><trkpt lat="38.6745002" lon="16.4071928"><ele>525.0</ele><time>2026-04-11T14:14:10.677Z</time></trkpt><trkpt lat="38.67461" lon="16.4071829"><ele>525.0</ele><time>2026-04-11T14:14:11.678Z</time></trkpt><trkpt lat="38.6747197" lon="16.4071771"><ele>524.8</ele><time>2026-04-11T14:14:12.677Z</time></trkpt><trkpt lat="38.6748249" lon="16.4071678"><ele>524.6</ele><time>2026-04-11T14:14:13.678Z</time></trkpt><trkpt lat="38.6749275" lon="16.4071731"><ele>524.4</ele><time>2026-04-11T14:14:14.678Z</time></trkpt><trkpt lat="38.6750304" lon="16.4071966"><ele>524.2</ele><time>2026-04-11T14:14:15.677Z</time></trkpt><trkpt lat="38.6751393" lon="16.4072445"><ele>524.0</ele><time>2026-04-11T14:14:16.677Z</time></trkpt><trkpt lat="38.6752429" lon="16.4072983"><ele>523.8</ele><time>2026-04-11T14:14:17.677Z</time></trkpt><trkpt lat="38.6753433" lon="16.4073585"><ele>523.5999999999999</ele><time>2026-04-11T14:14:18.678Z</time></trkpt><trkpt lat="38.675446" lon="16.4074192"><ele>523.4</ele><time>2026-04-11T14:14:19.678Z</time></trkpt><trkpt lat="38.6755416" lon="16.4074798"><ele>523.1999999999999</ele><time>2026-04-11T14:14:20.678Z</time></trkpt><trkpt lat="38.6756384" lon="16.4075411"><ele>523.0</ele><time>2026-04-11T14:14:21.678Z</time></trkpt><trkpt lat="38.6757407" lon="16.4076059"><ele>523.0</ele><time>2026-04-11T14:14:22.677Z</time></trkpt><trkpt lat="38.6758426" lon="16.4076818"><ele>523.0</ele><time>2026-04-11T14:14:23.677Z</time></trkpt><trkpt lat="38.675943" lon="16.4077578"><ele>523.0</ele><time>2026-04-11T14:14:24.677Z</time></trkpt><trkpt lat="38.6760384" lon="16.4078533"><ele>523.0</ele><time>2026-04-11T14:14:25.677Z</time></trkpt><trkpt lat="38.67612" lon="16.407951"><ele>523.8</ele><time>2026-04-11T14:14:26.678Z</time></trkpt><trkpt lat="38.6761751" lon="16.4080538"><ele>524.5999999999999</ele><time>2026-04-11T14:14:27.678Z</time></trkpt><trkpt lat="38.6762227" lon="16.4081637"><ele>525.4000000000001</ele><time>2026-04-11T14:14:28.678Z</time></trkpt><trkpt lat="38.6762811" lon="16.4082443"><ele>526.2</ele><time>2026-04-11T14:14:29.677Z</time></trkpt><trkpt lat="38.6763632" lon="16.4082986"><ele>527.0</ele><time>2026-04-11T14:14:30.678Z</time></trkpt><trkpt lat="38.6764551" lon="16.4083241"><ele>527.0</ele><time>2026-04-11T14:14:31.677Z</time></trkpt><trkpt lat="38.6765478" lon="16.4083038"><ele>527.0</ele><time>2026-04-11T14:14:32.678Z</time></trkpt><trkpt lat="38.6766439" lon="16.4082269"><ele>527.0</ele><time>2026-04-11T14:14:33.678Z</time></trkpt><trkpt lat="38.676751" lon="16.408124"><ele>527.0</ele><time>2026-04-11T14:14:34.677Z</time></trkpt><trkpt lat="38.6768634" lon="16.4080095"><ele>527.25</ele><time>2026-04-11T14:14:35.677Z</time></trkpt><trkpt lat="38.6769819" lon="16.4079018"><ele>527.5</ele><time>2026-04-11T14:14:36.677Z</time></trkpt><trkpt lat="38.6770994" lon="16.4077981"><ele>527.75</ele><time>2026-04-11T14:14:37.677Z</time></trkpt><trkpt lat="38.6772194" lon="16.4077008"><ele>528.0</ele><time>2026-04-11T14:14:38.678Z</time></trkpt><trkpt lat="38.6773295" lon="16.4076191"><ele>528.0</ele><time>2026-04-11T14:14:39.677Z</time></trkpt><trkpt lat="38.677432" lon="16.4075421"><ele>528.0</ele><time>2026-04-11T14:14:40.678Z</time></trkpt><trkpt lat="38.6775318" lon="16.4074809"><ele>528.0</ele><time>2026-04-11T14:14:41.678Z</time></trkpt><trkpt lat="38.6776296" lon="16.4074222"><ele>528.0</ele><time>2026-04-11T14:14:42.677Z</time></trkpt><trkpt lat="38.6777379" lon="16.407401"><ele>528.0</ele><time>2026-04-11T14:14:43.677Z</time></trkpt><trkpt lat="38.6778458" lon="16.4074"><ele>528.6</ele><time>2026-04-11T14:14:44.677Z</time></trkpt><trkpt lat="38.6779633" lon="16.4074065"><ele>529.1999999999999</ele><time>2026-04-11T14:14:45.677Z</time></trkpt><trkpt lat="38.6780685" lon="16.4074009"><ele>529.8</ele><time>2026-04-11T14:14:46.678Z</time></trkpt><trkpt lat="38.6781638" lon="16.4073843"><ele>530.4</ele><time>2026-04-11T14:14:47.677Z</time></trkpt><trkpt lat="38.6782735" lon="16.4073771"><ele>531.0</ele><time>2026-04-11T14:14:48.677Z</time></trkpt><trkpt lat="38.6783823" lon="16.4073809"><ele>531.0</ele><time>2026-04-11T14:14:49.677Z</time></trkpt><trkpt lat="38.6784939" lon="16.407384"><ele>531.0</ele><time>2026-04-11T14:14:50.677Z</time></trkpt><trkpt lat="38.6786046" lon="16.4073887"><ele>531.0</ele><time>2026-04-11T14:14:51.677Z</time></trkpt><trkpt lat="38.6787189" lon="16.4074024"><ele>531.0</ele><time>2026-04-11T14:14:52.678Z</time></trkpt><trkpt lat="38.6788238" lon="16.407423"><ele>531.0</ele><time>2026-04-11T14:14:53.677Z</time></trkpt><trkpt lat="38.6789274" lon="16.407451"><ele>532.0</ele><time>2026-04-11T14:14:54.677Z</time></trkpt><trkpt lat="38.6790274" lon="16.4074934"><ele>533.0</ele><time>2026-04-11T14:14:55.677Z</time></trkpt><trkpt lat="38.679133" lon="16.4075496"><ele>534.0</ele><time>2026-04-11T14:14:56.677Z</time></trkpt><trkpt lat="38.6792449" lon="16.4076157"><ele>535.0</ele><time>2026-04-11T14:14:57.677Z</time></trkpt><trkpt lat="38.6793601" lon="16.4076841"><ele>533.8</ele><time>2026-04-11T14:14:58.677Z</time></trkpt><trkpt lat="38.6794622" lon="16.407758"><ele>532.6</ele><time>2026-04-11T14:14:59.677Z</time></trkpt><trkpt lat="38.6795505" lon="16.4078267"><ele>531.4</ele><time>2026-04-11T14:15:00.677Z</time></trkpt><trkpt lat="38.6796459" lon="16.4078749"><ele>530.2</ele><time>2026-04-11T14:15:01.677Z</time></trkpt><trkpt lat="38.679733" lon="16.4079245"><ele>529.0</ele><time>2026-04-11T14:15:02.677Z</time></trkpt><trkpt lat="38.6798121" lon="16.4079753"><ele>530.3333333333334</ele><time>2026-04-11T14:15:03.678Z</time></trkpt><trkpt lat="38.6798924" lon="16.4080262"><ele>531.6666666666667</ele><time>2026-04-11T14:15:04.677Z</time></trkpt><trkpt lat="38.6799704" lon="16.408078"><ele>533.0</ele><time>2026-04-11T14:15:05.678Z</time></trkpt><trkpt lat="38.6800423" lon="16.4081381"><ele>534.3333333333334</ele><time>2026-04-11T14:15:06.677Z</time></trkpt><trkpt lat="38.6801049" lon="16.4082074"><ele>535.6666666666666</ele><time>2026-04-11T14:15:07.678Z</time></trkpt><trkpt lat="38.6801727" lon="16.4082771"><ele>537.0</ele><time>2026-04-11T14:15:08.677Z</time></trkpt><trkpt lat="38.6802294" lon="16.4083592"><ele>536.8000000000001</ele><time>2026-04-11T14:15:09.678Z</time></trkpt><trkpt lat="38.6802851" lon="16.4084496"><ele>536.6</ele><time>2026-04-11T14:15:10.677Z</time></trkpt><trkpt lat="38.6803242" lon="16.408562"><ele>536.4000000000001</ele><time>2026-04-11T14:15:11.678Z</time></trkpt><trkpt lat="38.6803624" lon="16.4086772"><ele>536.2</ele><time>2026-04-11T14:15:12.677Z</time></trkpt><trkpt lat="38.6804088" lon="16.4087848"><ele>536.0</ele><time>2026-04-11T14:15:13.677Z</time></trkpt><trkpt lat="38.6804528" lon="16.4088822"><ele>536.0</ele><time>2026-04-11T14:15:14.678Z</time></trkpt><trkpt lat="38.6804991" lon="16.4089717"><ele>536.0</ele><time>2026-04-11T14:15:15.677Z</time></trkpt><trkpt lat="38.6805473" lon="16.4090626"><ele>536.0</ele><time>2026-04-11T14:15:16.677Z</time></trkpt><trkpt lat="38.6805843" lon="16.4091354"><ele>536.0</ele><time>2026-04-11T14:15:17.677Z</time></trkpt><trkpt lat="38.6806391" lon="16.4092149"><ele>536.0</ele><time>2026-04-11T14:15:18.677Z</time></trkpt><trkpt lat="38.680701" lon="16.4092994"><ele>536.0</ele><time>2026-04-11T14:15:19.677Z</time></trkpt><trkpt lat="38.6807573" lon="16.4093866"><ele>536.0</ele><time>2026-04-11T14:15:20.677Z</time></trkpt><trkpt lat="38.6808053" lon="16.4094678"><ele>536.0</ele><time>2026-04-11T14:15:21.678Z</time></trkpt><trkpt lat="38.6808535" lon="16.4095462"><ele>536.0</ele><time>2026-04-11T14:15:22.677Z</time></trkpt><trkpt lat="38.6808958" lon="16.4096242"><ele>536.0</ele><time>2026-04-11T14:15:23.678Z</time></trkpt><trkpt lat="38.6809367" lon="16.4096976"><ele>536.0</ele><time>2026-04-11T14:15:24.678Z</time></trkpt><trkpt lat="38.6809858" lon="16.409763"><ele>536.0</ele><time>2026-04-11T14:15:25.677Z</time></trkpt><trkpt lat="38.6810327" lon="16.4098373"><ele>536.0</ele><time>2026-04-11T14:15:26.677Z</time></trkpt><trkpt lat="38.6810748" lon="16.4099096"><ele>535.8333333333333</ele><time>2026-04-11T14:15:27.677Z</time></trkpt><trkpt lat="38.6811105" lon="16.4099815"><ele>535.6666666666666</ele><time>2026-04-11T14:15:28.677Z</time></trkpt><trkpt lat="38.6811333" lon="16.4100597"><ele>535.5</ele><time>2026-04-11T14:15:29.678Z</time></trkpt><trkpt lat="38.6811453" lon="16.4101505"><ele>535.3333333333334</ele><time>2026-04-11T14:15:30.678Z</time></trkpt><trkpt lat="38.6811442" lon="16.4102504"><ele>535.1666666666667</ele><time>2026-04-11T14:15:31.677Z</time></trkpt><trkpt lat="38.6811246" lon="16.410354"><ele>535.0</ele><time>2026-04-11T14:15:32.677Z</time></trkpt><trkpt lat="38.6810849" lon="16.4104507"><ele>536.1666666666667</ele><time>2026-04-11T14:15:33.677Z</time></trkpt><trkpt lat="38.6810397" lon="16.4105423"><ele>537.3333333333334</ele><time>2026-04-11T14:15:34.678Z</time></trkpt><trkpt lat="38.6809798" lon="16.4106245"><ele>538.5</ele><time>2026-04-11T14:15:35.677Z</time></trkpt><trkpt lat="38.6809188" lon="16.4107058"><ele>539.6666666666666</ele><time>2026-04-11T14:15:36.677Z</time></trkpt><trkpt lat="38.68086" lon="16.4107901"><ele>540.8333333333333</ele><time>2026-04-11T14:15:37.677Z</time></trkpt><trkpt lat="38.6808037" lon="16.4108874"><ele>542.0</ele><time>2026-04-11T14:15:38.678Z</time></trkpt><trkpt lat="38.6807706" lon="16.4109885"><ele>542.0</ele><time>2026-04-11T14:15:39.677Z</time></trkpt><trkpt lat="38.6807495" lon="16.4110963"><ele>542.0</ele><time>2026-04-11T14:15:40.678Z</time></trkpt><trkpt lat="38.6807504" lon="16.4112111"><ele>542.0</ele><time>2026-04-11T14:15:41.677Z</time></trkpt><trkpt lat="38.6807802" lon="16.4113309"><ele>542.0</ele><time>2026-04-11T14:15:42.678Z</time></trkpt><trkpt lat="38.6808267" lon="16.4114493"><ele>542.0</ele><time>2026-04-11T14:15:43.678Z</time></trkpt><trkpt lat="38.6808802" lon="16.4115485"><ele>541.8000000000001</ele><time>2026-04-11T14:15:44.678Z</time></trkpt><trkpt lat="38.6809265" lon="16.411654"><ele>541.6</ele><time>2026-04-11T14:15:45.677Z</time></trkpt><trkpt lat="38.680961" lon="16.4117577"><ele>541.4000000000001</ele><time>2026-04-11T14:15:46.677Z</time></trkpt><trkpt lat="38.680992" lon="16.4118721"><ele>541.2</ele><time>2026-04-11T14:15:47.677Z</time></trkpt><trkpt lat="38.681007" lon="16.4119869"><ele>541.0</ele><time>2026-04-11T14:15:48.677Z</time></trkpt><trkpt lat="38.6810116" lon="16.4121099"><ele>541.6</ele><time>2026-04-11T14:15:49.677Z</time></trkpt><trkpt lat="38.6810168" lon="16.4122246"><ele>542.2</ele><time>2026-04-11T14:15:50.677Z</time></trkpt><trkpt lat="38.6810307" lon="16.41233"><ele>542.8</ele><time>2026-04-11T14:15:51.678Z</time></trkpt><trkpt lat="38.6810553" lon="16.4124287"><ele>543.4</ele><time>2026-04-11T14:15:52.677Z</time></trkpt><trkpt lat="38.6811046" lon="16.4125346"><ele>544.0</ele><time>2026-04-11T14:15:53.677Z</time></trkpt><trkpt lat="38.6811715" lon="16.4126505"><ele>541.75</ele><time>2026-04-11T14:15:54.677Z</time></trkpt><trkpt lat="38.6812459" lon="16.4127755"><ele>539.5</ele><time>2026-04-11T14:15:55.678Z</time></trkpt><trkpt lat="38.6813277" lon="16.4129161"><ele>537.25</ele><time>2026-04-11T14:15:56.677Z</time></trkpt><trkpt lat="38.681413" lon="16.4130562"><ele>535.0</ele><time>2026-04-11T14:15:57.677Z</time></trkpt><trkpt lat="38.6814945" lon="16.4131957"><ele>535.0</ele><time>2026-04-11T14:15:58.677Z</time></trkpt><trkpt lat="38.6815739" lon="16.413333"><ele>535.0</ele><time>2026-04-11T14:15:59.677Z</time></trkpt><trkpt lat="38.6816488" lon="16.4134559"><ele>535.0</ele><time>2026-04-11T14:16:00.677Z</time></trkpt><trkpt lat="38.6817049" lon="16.4135827"><ele>535.0</ele><time>2026-04-11T14:16:01.677Z</time></trkpt><trkpt lat="38.681747" lon="16.4137108"><ele>536.4</ele><time>2026-04-11T14:16:02.678Z</time></trkpt><trkpt lat="38.6817745" lon="16.413841"><ele>537.8</ele><time>2026-04-11T14:16:03.678Z</time></trkpt><trkpt lat="38.6817812" lon="16.4139638"><ele>539.2</ele><time>2026-04-11T14:16:04.677Z</time></trkpt><trkpt lat="38.6817716" lon="16.4140821"><ele>540.6</ele><time>2026-04-11T14:16:05.677Z</time></trkpt><trkpt lat="38.6817563" lon="16.4141766"><ele>542.0</ele><time>2026-04-11T14:16:06.678Z</time></trkpt><trkpt lat="38.6817569" lon="16.4142915"><ele>542.0</ele><time>2026-04-11T14:16:08.677Z</time></trkpt><trkpt lat="38.6818274" lon="16.414269"><ele>542.0</ele><time>2026-04-11T14:16:30.677Z</time></trkpt><trkpt lat="38.6818455" lon="16.4141241"><ele>542.0</ele><time>2026-04-11T14:16:32.677Z</time></trkpt><trkpt lat="38.6818418" lon="16.4140237"><ele>542.0</ele><time>2026-04-11T14:16:33.678Z</time></trkpt><trkpt lat="38.6818317" lon="16.4139258"><ele>542.0</ele><time>2026-04-11T14:16:34.677Z</time></trkpt><trkpt lat="38.6818041" lon="16.4138104"><ele>542.0</ele><time>2026-04-11T14:16:36.677Z</time></trkpt><trkpt lat="38.6818012" lon="16.4139271"><ele>542.0</ele><time>2026-04-11T14:16:41.677Z</time></trkpt><trkpt lat="38.6817981" lon="16.4140771"><ele>542.0</ele><time>2026-04-11T14:16:43.677Z</time></trkpt><trkpt lat="38.6817919" lon="16.4141591"><ele>542.0</ele><time>2026-04-11T14:16:44.678Z</time></trkpt><trkpt lat="38.6817912" lon="16.4142916"><ele>542.0</ele><time>2026-04-11T14:16:46.677Z</time></trkpt><trkpt lat="38.6818022" lon="16.4143744"><ele>542.0</ele><time>2026-04-11T14:16:49.678Z</time></trkpt><trkpt lat="38.6818412" lon="16.4142878"><ele>542.0</ele><time>2026-04-11T14:16:58.678Z</time></trkpt><trkpt lat="38.681846" lon="16.4141905"><ele>542.0</ele><time>2026-04-11T14:17:00.677Z</time></trkpt><trkpt lat="38.6818391" lon="16.4140569"><ele>542.0</ele><time>2026-04-11T14:17:02.677Z</time></trkpt><trkpt lat="38.6818319" lon="16.4139094"><ele>542.0</ele><time>2026-04-11T14:17:04.677Z</time></trkpt><trkpt lat="38.6818082" lon="16.4137575"><ele>542.0</ele><time>2026-04-11T14:17:06.678Z</time></trkpt><trkpt lat="38.6817863" lon="16.4136409"><ele>542.0</ele><time>2026-04-11T14:17:08.678Z</time></trkpt><trkpt lat="38.6817764" lon="16.4135281"><ele>540.6</ele><time>2026-04-11T14:17:11.678Z</time></trkpt><trkpt lat="38.6817548" lon="16.4134496"><ele>539.2</ele><time>2026-04-11T14:17:13.677Z</time></trkpt><trkpt lat="38.6817008" lon="16.4133399"><ele>537.8</ele><time>2026-04-11T14:17:15.678Z</time></trkpt><trkpt lat="38.6816372" lon="16.4132306"><ele>536.4</ele><time>2026-04-11T14:17:17.678Z</time></trkpt><trkpt lat="38.6815675" lon="16.4131127"><ele>535.0</ele><time>2026-04-11T14:17:19.677Z</time></trkpt><trkpt lat="38.6814975" lon="16.4129751"><ele>533.1666666666667</ele><time>2026-04-11T14:17:21.677Z</time></trkpt><trkpt lat="38.6814206" lon="16.4128558"><ele>531.3333333333334</ele><time>2026-04-11T14:17:23.677Z</time></trkpt><trkpt lat="38.6813762" lon="16.4127927"><ele>529.5</ele><time>2026-04-11T14:17:24.678Z</time></trkpt><trkpt lat="38.6813354" lon="16.4127183"><ele>527.6666666666666</ele><time>2026-04-11T14:17:25.678Z</time></trkpt><trkpt lat="38.6812992" lon="16.4126322"><ele>525.8333333333333</ele><time>2026-04-11T14:17:26.677Z</time></trkpt><trkpt lat="38.6812632" lon="16.4125416"><ele>524.0</ele><time>2026-04-11T14:17:27.677Z</time></trkpt><trkpt lat="38.6812348" lon="16.4124541"><ele>524.0</ele><time>2026-04-11T14:17:28.677Z</time></trkpt><trkpt lat="38.6812198" lon="16.4123445"><ele>524.0</ele><time>2026-04-11T14:17:29.677Z</time></trkpt><trkpt lat="38.6812235" lon="16.4122306"><ele>524.0</ele><time>2026-04-11T14:17:30.677Z</time></trkpt><trkpt lat="38.6812304" lon="16.4121006"><ele>524.0</ele><time>2026-04-11T14:17:31.677Z</time></trkpt><trkpt lat="38.6812718" lon="16.4119986"><ele>524.0</ele><time>2026-04-11T14:17:32.677Z</time></trkpt><trkpt lat="38.681299" lon="16.4118905"><ele>523.5</ele><time>2026-04-11T14:17:33.678Z</time></trkpt><trkpt lat="38.6813222" lon="16.4117835"><ele>523.0</ele><time>2026-04-11T14:17:34.677Z</time></trkpt><trkpt lat="38.6813285" lon="16.4116758"><ele>522.5</ele><time>2026-04-11T14:17:35.677Z</time></trkpt><trkpt lat="38.6813221" lon="16.4115703"><ele>522.0</ele><time>2026-04-11T14:17:36.678Z</time></trkpt><trkpt lat="38.6813025" lon="16.4114799"><ele>521.5</ele><time>2026-04-11T14:17:37.677Z</time></trkpt><trkpt lat="38.6812801" lon="16.4113786"><ele>521.0</ele><time>2026-04-11T14:17:38.677Z</time></trkpt><trkpt lat="38.6812766" lon="16.4112807"><ele>522.1666666666666</ele><time>2026-04-11T14:17:39.678Z</time></trkpt><trkpt lat="38.6812901" lon="16.4111935"><ele>523.3333333333333</ele><time>2026-04-11T14:17:40.677Z</time></trkpt><trkpt lat="38.6813698" lon="16.4110723"><ele>524.5</ele><time>2026-04-11T14:17:42.677Z</time></trkpt><trkpt lat="38.6814462" lon="16.4110432"><ele>525.6666666666666</ele><time>2026-04-11T14:17:43.677Z</time></trkpt><trkpt lat="38.6815242" lon="16.4110333"><ele>526.8333333333334</ele><time>2026-04-11T14:17:44.677Z</time></trkpt><trkpt lat="38.6816101" lon="16.4110567"><ele>528.0</ele><time>2026-04-11T14:17:45.678Z</time></trkpt><trkpt lat="38.681693" lon="16.4110988"><ele>528.0</ele><time>2026-04-11T14:17:46.677Z</time></trkpt><trkpt lat="38.6817753" lon="16.4111364"><ele>528.0</ele><time>2026-04-11T14:17:47.677Z</time></trkpt><trkpt lat="38.6818645" lon="16.4111739"><ele>528.0</ele><time>2026-04-11T14:17:48.677Z</time></trkpt><trkpt lat="38.6819473" lon="16.411167"><ele>528.0</ele><time>2026-04-11T14:17:49.677Z</time></trkpt><trkpt lat="38.6820149" lon="16.4111315"><ele>528.0</ele><time>2026-04-11T14:17:50.677Z</time></trkpt><trkpt lat="38.6820609" lon="16.4110671"><ele>528.0</ele><time>2026-04-11T14:17:51.677Z</time></trkpt><trkpt lat="38.6820697" lon="16.4109662"><ele>525.4</ele><time>2026-04-11T14:17:52.677Z</time></trkpt><trkpt lat="38.6820512" lon="16.4108482"><ele>522.8</ele><time>2026-04-11T14:17:53.678Z</time></trkpt><trkpt lat="38.6820163" lon="16.4107239"><ele>520.2</ele><time>2026-04-11T14:17:54.677Z</time></trkpt><trkpt lat="38.6819826" lon="16.4105988"><ele>517.6</ele><time>2026-04-11T14:17:55.678Z</time></trkpt><trkpt lat="38.6819575" lon="16.4104806"><ele>515.0</ele><time>2026-04-11T14:17:56.677Z</time></trkpt><trkpt lat="38.681949" lon="16.410361"><ele>515.0</ele><time>2026-04-11T14:17:57.677Z</time></trkpt><trkpt lat="38.6820503" lon="16.4100495"><ele>515.0</ele><time>2026-04-11T14:18:00.678Z</time></trkpt><trkpt lat="38.6821319" lon="16.4099635"><ele>515.0</ele><time>2026-04-11T14:18:01.678Z</time></trkpt><trkpt lat="38.6822144" lon="16.4098959"><ele>515.0</ele><time>2026-04-11T14:18:02.677Z</time></trkpt><trkpt lat="38.6822987" lon="16.4098371"><ele>515.0</ele><time>2026-04-11T14:18:03.677Z</time></trkpt><trkpt lat="38.6823753" lon="16.4097612"><ele>515.0</ele><time>2026-04-11T14:18:04.678Z</time></trkpt><trkpt lat="38.6824406" lon="16.4096663"><ele>515.0</ele><time>2026-04-11T14:18:05.677Z</time></trkpt><trkpt lat="38.6824887" lon="16.4095477"><ele>515.0</ele><time>2026-04-11T14:18:06.677Z</time></trkpt><trkpt lat="38.6825245" lon="16.4094281"><ele>517.5</ele><time>2026-04-11T14:18:07.677Z</time></trkpt><trkpt lat="38.6825612" lon="16.4093074"><ele>520.0</ele><time>2026-04-11T14:18:08.677Z</time></trkpt><trkpt lat="38.6826672" lon="16.4090721"><ele>522.5</ele><time>2026-04-11T14:18:10.677Z</time></trkpt><trkpt lat="38.6827397" lon="16.4089583"><ele>525.0</ele><time>2026-04-11T14:18:11.677Z</time></trkpt><trkpt lat="38.6828204" lon="16.4088494"><ele>519.25</ele><time>2026-04-11T14:18:12.677Z</time></trkpt><trkpt lat="38.6829041" lon="16.4087392"><ele>513.5</ele><time>2026-04-11T14:18:13.678Z</time></trkpt><trkpt lat="38.6829862" lon="16.408628"><ele>507.75</ele><time>2026-04-11T14:18:14.678Z</time></trkpt><trkpt lat="38.6830602" lon="16.4085209"><ele>502.0</ele><time>2026-04-11T14:18:15.677Z</time></trkpt><trkpt lat="38.6831301" lon="16.4084051"><ele>502.0</ele><time>2026-04-11T14:18:16.677Z</time></trkpt><trkpt lat="38.6831877" lon="16.4082823"><ele>502.00000000000006</ele><time>2026-04-11T14:18:17.678Z</time></trkpt><trkpt lat="38.6832287" lon="16.4081532"><ele>502.00000000000006</ele><time>2026-04-11T14:18:18.677Z</time></trkpt><trkpt lat="38.6832374" lon="16.408015"><ele>502.0</ele><time>2026-04-11T14:18:19.678Z</time></trkpt><trkpt lat="38.6832363" lon="16.4078619"><ele>502.0</ele><time>2026-04-11T14:18:20.677Z</time></trkpt><trkpt lat="38.6832205" lon="16.4077092"><ele>502.0</ele><time>2026-04-11T14:18:21.677Z</time></trkpt><trkpt lat="38.6831982" lon="16.407556"><ele>502.0</ele><time>2026-04-11T14:18:22.677Z</time></trkpt><trkpt lat="38.6831824" lon="16.4074057"><ele>502.0</ele><time>2026-04-11T14:18:23.678Z</time></trkpt><trkpt lat="38.6831791" lon="16.4072615"><ele>502.0</ele><time>2026-04-11T14:18:24.677Z</time></trkpt><trkpt lat="38.6831702" lon="16.407117"><ele>502.0</ele><time>2026-04-11T14:18:25.677Z</time></trkpt><trkpt lat="38.6831728" lon="16.4069796"><ele>502.00000000000006</ele><time>2026-04-11T14:18:26.677Z</time></trkpt><trkpt lat="38.6831822" lon="16.4068583"><ele>502.00000000000006</ele><time>2026-04-11T14:18:27.678Z</time></trkpt><trkpt lat="38.6832095" lon="16.4067432"><ele>502.0</ele><time>2026-04-11T14:18:28.677Z</time></trkpt><trkpt lat="38.6832509" lon="16.4066335"><ele>502.0</ele><time>2026-04-11T14:18:29.677Z</time></trkpt><trkpt lat="38.683312" lon="16.4065301"><ele>502.0</ele><time>2026-04-11T14:18:30.677Z</time></trkpt><trkpt lat="38.6833955" lon="16.4064416"><ele>502.00000000000006</ele><time>2026-04-11T14:18:31.678Z</time></trkpt><trkpt lat="38.6834877" lon="16.4063735"><ele>502.00000000000006</ele><time>2026-04-11T14:18:32.678Z</time></trkpt><trkpt lat="38.6835812" lon="16.4063263"><ele>502.0</ele><time>2026-04-11T14:18:33.678Z</time></trkpt><trkpt lat="38.6836779" lon="16.406311"><ele>502.0</ele><time>2026-04-11T14:18:34.677Z</time></trkpt><trkpt lat="38.6837717" lon="16.4063366"><ele>500.40000000000003</ele><time>2026-04-11T14:18:35.677Z</time></trkpt><trkpt lat="38.6838572" lon="16.4064021"><ele>498.80000000000007</ele><time>2026-04-11T14:18:36.677Z</time></trkpt><trkpt lat="38.6839274" lon="16.4064916"><ele>497.2</ele><time>2026-04-11T14:18:37.677Z</time></trkpt><trkpt lat="38.6839874" lon="16.4065958"><ele>495.6</ele><time>2026-04-11T14:18:38.677Z</time></trkpt><trkpt lat="38.6840434" lon="16.4067131"><ele>494.0</ele><time>2026-04-11T14:18:39.678Z</time></trkpt><trkpt lat="38.6840951" lon="16.4068461"><ele>494.0</ele><time>2026-04-11T14:18:40.677Z</time></trkpt><trkpt lat="38.6841374" lon="16.4069911"><ele>494.0</ele><time>2026-04-11T14:18:41.677Z</time></trkpt><trkpt lat="38.6841847" lon="16.4071391"><ele>494.0</ele><time>2026-04-11T14:18:42.677Z</time></trkpt><trkpt lat="38.6842376" lon="16.4072834"><ele>494.0</ele><time>2026-04-11T14:18:43.677Z</time></trkpt><trkpt lat="38.6842943" lon="16.407434"><ele>494.0</ele><time>2026-04-11T14:18:44.677Z</time></trkpt><trkpt lat="38.6843494" lon="16.4075943"><ele>494.0</ele><time>2026-04-11T14:18:45.677Z</time></trkpt><trkpt lat="38.6843898" lon="16.4077636"><ele>494.0</ele><time>2026-04-11T14:18:46.677Z</time></trkpt><trkpt lat="38.6844289" lon="16.4079356"><ele>494.0</ele><time>2026-04-11T14:18:47.678Z</time></trkpt><trkpt lat="38.6844686" lon="16.4081026"><ele>494.0</ele><time>2026-04-11T14:18:48.677Z</time></trkpt><trkpt lat="38.6845036" lon="16.4082583"><ele>494.0</ele><time>2026-04-11T14:18:49.677Z</time></trkpt><trkpt lat="38.6845414" lon="16.4084117"><ele>494.0</ele><time>2026-04-11T14:18:50.678Z</time></trkpt><trkpt lat="38.6845825" lon="16.408578"><ele>494.0</ele><time>2026-04-11T14:18:51.678Z</time></trkpt><trkpt lat="38.6846191" lon="16.4087469"><ele>491.0</ele><time>2026-04-11T14:18:52.677Z</time></trkpt><trkpt lat="38.6846507" lon="16.4088994"><ele>488.0</ele><time>2026-04-11T14:18:53.678Z</time></trkpt><trkpt lat="38.6846863" lon="16.4090299"><ele>485.0</ele><time>2026-04-11T14:18:54.677Z</time></trkpt><trkpt lat="38.6847429" lon="16.4091366"><ele>482.0</ele><time>2026-04-11T14:18:55.678Z</time></trkpt><trkpt lat="38.6848275" lon="16.4092119"><ele>479.0</ele><time>2026-04-11T14:18:56.677Z</time></trkpt><trkpt lat="38.6849239" lon="16.409237"><ele>479.0</ele><time>2026-04-11T14:18:57.677Z</time></trkpt><trkpt lat="38.6850289" lon="16.4092136"><ele>479.0</ele><time>2026-04-11T14:18:58.677Z</time></trkpt><trkpt lat="38.685147" lon="16.409181"><ele>479.0</ele><time>2026-04-11T14:18:59.678Z</time></trkpt><trkpt lat="38.6852702" lon="16.4091358"><ele>479.0</ele><time>2026-04-11T14:19:00.678Z</time></trkpt><trkpt lat="38.6853901" lon="16.4091088"><ele>477.25</ele><time>2026-04-11T14:19:01.677Z</time></trkpt><trkpt lat="38.685501" lon="16.4091178"><ele>475.5</ele><time>2026-04-11T14:19:02.678Z</time></trkpt><trkpt lat="38.6856042" lon="16.4091381"><ele>473.75</ele><time>2026-04-11T14:19:03.677Z</time></trkpt><trkpt lat="38.6857029" lon="16.4091447"><ele>472.0</ele><time>2026-04-11T14:19:04.677Z</time></trkpt><trkpt lat="38.6859423" lon="16.4089497"><ele>472.0</ele><time>2026-04-11T14:19:07.678Z</time></trkpt><trkpt lat="38.6860097" lon="16.4088604"><ele>472.00000000000006</ele><time>2026-04-11T14:19:08.678Z</time></trkpt><trkpt lat="38.6860779" lon="16.4087808"><ele>472.00000000000006</ele><time>2026-04-11T14:19:09.677Z</time></trkpt><trkpt lat="38.6861435" lon="16.4086982"><ele>472.0</ele><time>2026-04-11T14:19:10.677Z</time></trkpt><trkpt lat="38.6862016" lon="16.4085869"><ele>472.0</ele><time>2026-04-11T14:19:11.678Z</time></trkpt><trkpt lat="38.686255" lon="16.4084634"><ele>469.33333333333337</ele><time>2026-04-11T14:19:12.677Z</time></trkpt><trkpt lat="38.6863075" lon="16.4083261"><ele>466.66666666666663</ele><time>2026-04-11T14:19:13.678Z</time></trkpt><trkpt lat="38.6864034" lon="16.4080226"><ele>464.0</ele><time>2026-04-11T14:19:15.677Z</time></trkpt><trkpt lat="38.6864806" lon="16.4077489"><ele>464.0</ele><time>2026-04-11T14:19:17.677Z</time></trkpt><trkpt lat="38.6864946" lon="16.407476"><ele>464.0</ele><time>2026-04-11T14:19:19.677Z</time></trkpt><trkpt lat="38.6864276" lon="16.4071825"><ele>462.0</ele><time>2026-04-11T14:19:21.677Z</time></trkpt><trkpt lat="38.6863425" lon="16.4069054"><ele>460.0</ele><time>2026-04-11T14:19:23.677Z</time></trkpt><trkpt lat="38.6863239" lon="16.4065951"><ele>458.0</ele><time>2026-04-11T14:19:25.677Z</time></trkpt><trkpt lat="38.6863398" lon="16.4062866"><ele>456.0</ele><time>2026-04-11T14:19:27.678Z</time></trkpt><trkpt lat="38.6863298" lon="16.4059792"><ele>456.0</ele><time>2026-04-11T14:19:29.677Z</time></trkpt><trkpt lat="38.6863047" lon="16.4058213"><ele>456.0</ele><time>2026-04-11T14:19:30.677Z</time></trkpt><trkpt lat="38.6862883" lon="16.405525"><ele>456.0</ele><time>2026-04-11T14:19:32.678Z</time></trkpt><trkpt lat="38.6863006" lon="16.4053805"><ele>455.66666666666663</ele><time>2026-04-11T14:19:33.677Z</time></trkpt><trkpt lat="38.6863387" lon="16.4050819"><ele>455.3333333333333</ele><time>2026-04-11T14:19:35.678Z</time></trkpt><trkpt lat="38.6863393" lon="16.4049302"><ele>455.0</ele><time>2026-04-11T14:19:36.678Z</time></trkpt><trkpt lat="38.6862723" lon="16.404613"><ele>453.5</ele><time>2026-04-11T14:19:38.678Z</time></trkpt><trkpt lat="38.6862218" lon="16.4044659"><ele>452.0</ele><time>2026-04-11T14:19:39.677Z</time></trkpt><trkpt lat="38.6861644" lon="16.4043154"><ele>450.5</ele><time>2026-04-11T14:19:40.677Z</time></trkpt><trkpt lat="38.6861118" lon="16.4041664"><ele>449.0</ele><time>2026-04-11T14:19:41.677Z</time></trkpt><trkpt lat="38.6860626" lon="16.4040136"><ele>451.2</ele><time>2026-04-11T14:19:42.678Z</time></trkpt><trkpt lat="38.686018" lon="16.4038708"><ele>453.4</ele><time>2026-04-11T14:19:43.678Z</time></trkpt><trkpt lat="38.6859809" lon="16.4037404"><ele>455.6</ele><time>2026-04-11T14:19:44.677Z</time></trkpt><trkpt lat="38.6859537" lon="16.4036256"><ele>457.8</ele><time>2026-04-11T14:19:45.678Z</time></trkpt><trkpt lat="38.6859283" lon="16.4035198"><ele>460.0</ele><time>2026-04-11T14:19:46.677Z</time></trkpt><trkpt lat="38.6859147" lon="16.4034262"><ele>460.0</ele><time>2026-04-11T14:19:47.678Z</time></trkpt><trkpt lat="38.6859351" lon="16.4033366"><ele>460.0</ele><time>2026-04-11T14:19:48.677Z</time></trkpt><trkpt lat="38.6859733" lon="16.4032722"><ele>460.0</ele><time>2026-04-11T14:19:49.677Z</time></trkpt><trkpt lat="38.686037" lon="16.403216"><ele>460.0</ele><time>2026-04-11T14:19:50.677Z</time></trkpt><trkpt lat="38.686128" lon="16.4031871"><ele>460.0</ele><time>2026-04-11T14:19:51.677Z</time></trkpt><trkpt lat="38.6863618" lon="16.4031614"><ele>457.5</ele><time>2026-04-11T14:19:53.677Z</time></trkpt><trkpt lat="38.6864874" lon="16.4031406"><ele>455.0</ele><time>2026-04-11T14:19:54.678Z</time></trkpt><trkpt lat="38.6866122" lon="16.4031096"><ele>452.5</ele><time>2026-04-11T14:19:55.677Z</time></trkpt><trkpt lat="38.6867436" lon="16.403076"><ele>450.0</ele><time>2026-04-11T14:19:56.677Z</time></trkpt><trkpt lat="38.6870033" lon="16.4030257"><ele>450.0</ele><time>2026-04-11T14:19:58.677Z</time></trkpt><trkpt lat="38.6872442" lon="16.4030381"><ele>450.0</ele><time>2026-04-11T14:20:00.678Z</time></trkpt><trkpt lat="38.6873613" lon="16.4030956"><ele>450.0</ele><time>2026-04-11T14:20:01.677Z</time></trkpt><trkpt lat="38.6874724" lon="16.4031645"><ele>450.0</ele><time>2026-04-11T14:20:02.678Z</time></trkpt><trkpt lat="38.6875883" lon="16.4032048"><ele>450.0</ele><time>2026-04-11T14:20:03.677Z</time></trkpt><trkpt lat="38.6877113" lon="16.4031982"><ele>450.0</ele><time>2026-04-11T14:20:04.677Z</time></trkpt><trkpt lat="38.6879225" lon="16.4030644"><ele>451.33333333333337</ele><time>2026-04-11T14:20:06.677Z</time></trkpt><trkpt lat="38.6880167" lon="16.4029699"><ele>452.6666666666667</ele><time>2026-04-11T14:20:07.678Z</time></trkpt><trkpt lat="38.6881044" lon="16.40286"><ele>454.0</ele><time>2026-04-11T14:20:08.677Z</time></trkpt><trkpt lat="38.6882512" lon="16.4026034"><ele>454.0</ele><time>2026-04-11T14:20:10.677Z</time></trkpt><trkpt lat="38.6883404" lon="16.4023127"><ele>454.0</ele><time>2026-04-11T14:20:12.677Z</time></trkpt><trkpt lat="38.6884431" lon="16.4020447"><ele>455.5</ele><time>2026-04-11T14:20:14.677Z</time></trkpt><trkpt lat="38.6886383" lon="16.4018674"><ele>457.0</ele><time>2026-04-11T14:20:16.677Z</time></trkpt><trkpt lat="38.6888915" lon="16.4018024"><ele>457.0</ele><time>2026-04-11T14:20:18.677Z</time></trkpt><trkpt lat="38.6891638" lon="16.4017946"><ele>457.0</ele><time>2026-04-11T14:20:20.678Z</time></trkpt><trkpt lat="38.6894335" lon="16.401826"><ele>461.5</ele><time>2026-04-11T14:20:22.678Z</time></trkpt><trkpt lat="38.6896768" lon="16.4018782"><ele>466.0</ele><time>2026-04-11T14:20:24.677Z</time></trkpt><trkpt lat="38.6899145" lon="16.401983"><ele>466.5</ele><time>2026-04-11T14:20:26.678Z</time></trkpt><trkpt lat="38.6902282" lon="16.4021881"><ele>467.0</ele><time>2026-04-11T14:20:29.677Z</time></trkpt><trkpt lat="38.6903344" lon="16.4022337"><ele>467.0</ele><time>2026-04-11T14:20:30.678Z</time></trkpt><trkpt lat="38.6905491" lon="16.4022735"><ele>467.0</ele><time>2026-04-11T14:20:32.678Z</time></trkpt><trkpt lat="38.6906555" lon="16.4022813"><ele>467.0</ele><time>2026-04-11T14:20:33.678Z</time></trkpt><trkpt lat="38.6908717" lon="16.4022577"><ele>468.5</ele><time>2026-04-11T14:20:35.678Z</time></trkpt><trkpt lat="38.6911769" lon="16.4021453"><ele>470.0</ele><time>2026-04-11T14:20:38.677Z</time></trkpt><trkpt lat="38.6913665" lon="16.4020583"><ele>470.0</ele><time>2026-04-11T14:20:40.678Z</time></trkpt><trkpt lat="38.6914525" lon="16.4020208"><ele>470.0</ele><time>2026-04-11T14:20:41.677Z</time></trkpt><trkpt lat="38.6915309" lon="16.4019761"><ele>470.0</ele><time>2026-04-11T14:20:42.677Z</time></trkpt><trkpt lat="38.6916913" lon="16.4019204"><ele>470.0</ele><time>2026-04-11T14:20:44.677Z</time></trkpt><trkpt lat="38.6917733" lon="16.4019033"><ele>470.0</ele><time>2026-04-11T14:20:45.677Z</time></trkpt><trkpt lat="38.6918532" lon="16.4018896"><ele>469.75</ele><time>2026-04-11T14:20:46.677Z</time></trkpt><trkpt lat="38.6919381" lon="16.4018933"><ele>469.5</ele><time>2026-04-11T14:20:47.678Z</time></trkpt><trkpt lat="38.6921396" lon="16.4019326"><ele>469.25</ele><time>2026-04-11T14:20:49.678Z</time></trkpt><trkpt lat="38.6922424" lon="16.4019648"><ele>469.0</ele><time>2026-04-11T14:20:50.677Z</time></trkpt><trkpt lat="38.6923485" lon="16.4019919"><ele>469.0</ele><time>2026-04-11T14:20:51.677Z</time></trkpt><trkpt lat="38.6924426" lon="16.4020205"><ele>469.0</ele><time>2026-04-11T14:20:52.677Z</time></trkpt><trkpt lat="38.6925443" lon="16.4020474"><ele>469.0</ele><time>2026-04-11T14:20:53.677Z</time></trkpt><trkpt lat="38.6926437" lon="16.4020785"><ele>469.0</ele><time>2026-04-11T14:20:54.678Z</time></trkpt><trkpt lat="38.6929423" lon="16.4021576"><ele>469.50000000000006</ele><time>2026-04-11T14:20:57.677Z</time></trkpt><trkpt lat="38.6930435" lon="16.4021812"><ele>470.0</ele><time>2026-04-11T14:20:58.677Z</time></trkpt><trkpt lat="38.6931408" lon="16.4021979"><ele>470.5</ele><time>2026-04-11T14:20:59.677Z</time></trkpt><trkpt lat="38.6932316" lon="16.4022264"><ele>471.0</ele><time>2026-04-11T14:21:00.678Z</time></trkpt><trkpt lat="38.6933101" lon="16.4022559"><ele>471.50000000000006</ele><time>2026-04-11T14:21:01.677Z</time></trkpt><trkpt lat="38.6933721" lon="16.4022909"><ele>472.0</ele><time>2026-04-11T14:21:02.677Z</time></trkpt><trkpt lat="38.6934371" lon="16.4023398"><ele>472.0</ele><time>2026-04-11T14:21:03.677Z</time></trkpt><trkpt lat="38.693505" lon="16.4024021"><ele>472.00000000000006</ele><time>2026-04-11T14:21:04.677Z</time></trkpt><trkpt lat="38.6935627" lon="16.4024898"><ele>472.00000000000006</ele><time>2026-04-11T14:21:05.677Z</time></trkpt><trkpt lat="38.6936235" lon="16.4026017"><ele>472.0</ele><time>2026-04-11T14:21:06.678Z</time></trkpt><trkpt lat="38.6936856" lon="16.4027258"><ele>472.0</ele><time>2026-04-11T14:21:07.678Z</time></trkpt><trkpt lat="38.6937448" lon="16.402861"><ele>472.0</ele><time>2026-04-11T14:21:08.677Z</time></trkpt><trkpt lat="38.6938161" lon="16.402997"><ele>472.0</ele><time>2026-04-11T14:21:09.677Z</time></trkpt><trkpt lat="38.69389" lon="16.403126"><ele>472.0</ele><time>2026-04-11T14:21:10.677Z</time></trkpt><trkpt lat="38.6939739" lon="16.4032408"><ele>472.0</ele><time>2026-04-11T14:21:11.678Z</time></trkpt><trkpt lat="38.6940611" lon="16.4033449"><ele>472.25</ele><time>2026-04-11T14:21:12.678Z</time></trkpt><trkpt lat="38.6941634" lon="16.4034383"><ele>472.5</ele><time>2026-04-11T14:21:13.677Z</time></trkpt><trkpt lat="38.6942721" lon="16.4035173"><ele>472.75</ele><time>2026-04-11T14:21:14.678Z</time></trkpt><trkpt lat="38.6943898" lon="16.4035832"><ele>473.0</ele><time>2026-04-11T14:21:15.677Z</time></trkpt><trkpt lat="38.6944972" lon="16.4036761"><ele>473.0</ele><time>2026-04-11T14:21:16.677Z</time></trkpt><trkpt lat="38.6946114" lon="16.4037725"><ele>473.0</ele><time>2026-04-11T14:21:17.678Z</time></trkpt><trkpt lat="38.6947259" lon="16.4038686"><ele>473.0</ele><time>2026-04-11T14:21:18.678Z</time></trkpt><trkpt lat="38.6948438" lon="16.4039681"><ele>473.0</ele><time>2026-04-11T14:21:19.678Z</time></trkpt><trkpt lat="38.6949609" lon="16.4040583"><ele>472.75</ele><time>2026-04-11T14:21:20.678Z</time></trkpt><trkpt lat="38.695072" lon="16.4041568"><ele>472.5</ele><time>2026-04-11T14:21:21.677Z</time></trkpt><trkpt lat="38.695189" lon="16.4042452"><ele>472.25</ele><time>2026-04-11T14:21:22.678Z</time></trkpt><trkpt lat="38.6952973" lon="16.4043307"><ele>472.0</ele><time>2026-04-11T14:21:23.678Z</time></trkpt><trkpt lat="38.6953961" lon="16.4044169"><ele>472.0</ele><time>2026-04-11T14:21:24.677Z</time></trkpt><trkpt lat="38.695494" lon="16.4044983"><ele>472.00000000000006</ele><time>2026-04-11T14:21:25.677Z</time></trkpt><trkpt lat="38.695581" lon="16.4045676"><ele>472.00000000000006</ele><time>2026-04-11T14:21:26.677Z</time></trkpt><trkpt lat="38.6956672" lon="16.4046366"><ele>472.0</ele><time>2026-04-11T14:21:27.678Z</time></trkpt><trkpt lat="38.695757" lon="16.4047081"><ele>472.0</ele><time>2026-04-11T14:21:28.677Z</time></trkpt><trkpt lat="38.6958501" lon="16.4047847"><ele>472.0</ele><time>2026-04-11T14:21:29.678Z</time></trkpt><trkpt lat="38.6959513" lon="16.4048723"><ele>472.0</ele><time>2026-04-11T14:21:30.677Z</time></trkpt><trkpt lat="38.6960625" lon="16.4049591"><ele>472.0</ele><time>2026-04-11T14:21:31.678Z</time></trkpt><trkpt lat="38.6961792" lon="16.4050465"><ele>472.0</ele><time>2026-04-11T14:21:32.678Z</time></trkpt><trkpt lat="38.6962922" lon="16.4051393"><ele>472.0</ele><time>2026-04-11T14:21:33.678Z</time></trkpt><trkpt lat="38.6964055" lon="16.4052284"><ele>472.0</ele><time>2026-04-11T14:21:34.677Z</time></trkpt><trkpt lat="38.6965191" lon="16.4053204"><ele>472.0</ele><time>2026-04-11T14:21:35.677Z</time></trkpt><trkpt lat="38.6966412" lon="16.4054118"><ele>472.0</ele><time>2026-04-11T14:21:36.677Z</time></trkpt><trkpt lat="38.6967587" lon="16.4055062"><ele>472.0</ele><time>2026-04-11T14:21:37.677Z</time></trkpt><trkpt lat="38.6968722" lon="16.405605"><ele>472.0</ele><time>2026-04-11T14:21:38.677Z</time></trkpt><trkpt lat="38.6969831" lon="16.4056947"><ele>472.0</ele><time>2026-04-11T14:21:39.678Z</time></trkpt><trkpt lat="38.6970794" lon="16.4057917"><ele>472.0</ele><time>2026-04-11T14:21:40.677Z</time></trkpt><trkpt lat="38.6971636" lon="16.4058928"><ele>470.0</ele><time>2026-04-11T14:21:41.677Z</time></trkpt><trkpt lat="38.6972398" lon="16.4060219"><ele>468.0</ele><time>2026-04-11T14:21:42.678Z</time></trkpt><trkpt lat="38.6973047" lon="16.4061668"><ele>466.0</ele><time>2026-04-11T14:21:43.677Z</time></trkpt><trkpt lat="38.6973616" lon="16.4063288"><ele>464.0</ele><time>2026-04-11T14:21:44.678Z</time></trkpt><trkpt lat="38.6974002" lon="16.4065141"><ele>463.66666666666663</ele><time>2026-04-11T14:21:45.678Z</time></trkpt><trkpt lat="38.6974402" lon="16.4067054"><ele>463.33333333333337</ele><time>2026-04-11T14:21:46.677Z</time></trkpt><trkpt lat="38.6974719" lon="16.4068932"><ele>463.0</ele><time>2026-04-11T14:21:47.677Z</time></trkpt><trkpt lat="38.697506" lon="16.4070828"><ele>462.5</ele><time>2026-04-11T14:21:48.677Z</time></trkpt><trkpt lat="38.6975422" lon="16.4072685"><ele>462.0</ele><time>2026-04-11T14:21:49.677Z</time></trkpt><trkpt lat="38.6975797" lon="16.4074475"><ele>461.5</ele><time>2026-04-11T14:21:50.677Z</time></trkpt><trkpt lat="38.6976123" lon="16.4076318"><ele>461.0</ele><time>2026-04-11T14:21:51.677Z</time></trkpt><trkpt lat="38.697643" lon="16.4078061"><ele>461.0</ele><time>2026-04-11T14:21:52.678Z</time></trkpt><trkpt lat="38.6976738" lon="16.4079781"><ele>461.0</ele><time>2026-04-11T14:21:53.676Z</time></trkpt><trkpt lat="38.6977019" lon="16.4081388"><ele>461.0</ele><time>2026-04-11T14:21:54.676Z</time></trkpt><trkpt lat="38.6977286" lon="16.4082883"><ele>461.0</ele><time>2026-04-11T14:21:55.676Z</time></trkpt><trkpt lat="38.6977642" lon="16.4084283"><ele>457.4</ele><time>2026-04-11T14:21:56.676Z</time></trkpt><trkpt lat="38.6978134" lon="16.4085198"><ele>453.8</ele><time>2026-04-11T14:21:57.677Z</time></trkpt><trkpt lat="38.6979217" lon="16.4085619"><ele>450.19999999999993</ele><time>2026-04-11T14:21:59.677Z</time></trkpt><trkpt lat="38.6980123" lon="16.4084483"><ele>446.59999999999997</ele><time>2026-04-11T14:22:01.676Z</time></trkpt><trkpt lat="38.6980365" lon="16.4083236"><ele>443.0</ele><time>2026-04-11T14:22:02.676Z</time></trkpt><trkpt lat="38.6980523" lon="16.4081698"><ele>443.0</ele><time>2026-04-11T14:22:03.677Z</time></trkpt><trkpt lat="38.6980722" lon="16.4080086"><ele>443.0</ele><time>2026-04-11T14:22:04.676Z</time></trkpt><trkpt lat="38.6981018" lon="16.4078525"><ele>443.0</ele><time>2026-04-11T14:22:05.676Z</time></trkpt><trkpt lat="38.6981428" lon="16.4077156"><ele>443.0</ele><time>2026-04-11T14:22:06.676Z</time></trkpt><trkpt lat="38.6981915" lon="16.4076101"><ele>443.79999999999995</ele><time>2026-04-11T14:22:07.677Z</time></trkpt><trkpt lat="38.6982548" lon="16.4075585"><ele>444.59999999999997</ele><time>2026-04-11T14:22:08.676Z</time></trkpt><trkpt lat="38.6983179" lon="16.4075366"><ele>445.40000000000003</ele><time>2026-04-11T14:22:09.676Z</time></trkpt><trkpt lat="38.6984052" lon="16.4076154"><ele>446.20000000000005</ele><time>2026-04-11T14:22:11.676Z</time></trkpt><trkpt lat="38.6983986" lon="16.4077338"><ele>447.0</ele><time>2026-04-11T14:22:12.676Z</time></trkpt><trkpt lat="38.6983672" lon="16.4078892"><ele>446.0</ele><time>2026-04-11T14:22:13.676Z</time></trkpt><trkpt lat="38.6983241" lon="16.4080602"><ele>445.0</ele><time>2026-04-11T14:22:14.676Z</time></trkpt><trkpt lat="38.6982809" lon="16.4082373"><ele>444.0</ele><time>2026-04-11T14:22:15.677Z</time></trkpt><trkpt lat="38.6982486" lon="16.4084019"><ele>443.0</ele><time>2026-04-11T14:22:16.677Z</time></trkpt><trkpt lat="38.6982342" lon="16.408534"><ele>443.0</ele><time>2026-04-11T14:22:17.677Z</time></trkpt><trkpt lat="38.6982348" lon="16.40864"><ele>442.99999999999994</ele><time>2026-04-11T14:22:18.676Z</time></trkpt><trkpt lat="38.698263" lon="16.4087301"><ele>442.99999999999994</ele><time>2026-04-11T14:22:19.676Z</time></trkpt><trkpt lat="38.6983672" lon="16.408771"><ele>443.0</ele><time>2026-04-11T14:22:21.676Z</time></trkpt><trkpt lat="38.6984437" lon="16.4086975"><ele>443.0</ele><time>2026-04-11T14:22:22.677Z</time></trkpt><trkpt lat="38.6985266" lon="16.4085708"><ele>439.5</ele><time>2026-04-11T14:22:23.677Z</time></trkpt><trkpt lat="38.6986068" lon="16.4084178"><ele>436.0</ele><time>2026-04-11T14:22:24.676Z</time></trkpt><trkpt lat="38.6986829" lon="16.4082511"><ele>432.5</ele><time>2026-04-11T14:22:25.677Z</time></trkpt><trkpt lat="38.698728" lon="16.4080852"><ele>429.0</ele><time>2026-04-11T14:22:26.677Z</time></trkpt><trkpt lat="38.6987706" lon="16.4079456"><ele>429.0</ele><time>2026-04-11T14:22:27.676Z</time></trkpt><trkpt lat="38.698837" lon="16.4078308"><ele>429.0</ele><time>2026-04-11T14:22:28.676Z</time></trkpt><trkpt lat="38.6989301" lon="16.4077309"><ele>429.0</ele><time>2026-04-11T14:22:29.676Z</time></trkpt><trkpt lat="38.6990355" lon="16.4076069"><ele>429.0</ele><time>2026-04-11T14:22:30.677Z</time></trkpt><trkpt lat="38.6991349" lon="16.4074491"><ele>429.0</ele><time>2026-04-11T14:22:31.676Z</time></trkpt><trkpt lat="38.6992663" lon="16.4072824"><ele>429.0</ele><time>2026-04-11T14:22:32.676Z</time></trkpt><trkpt lat="38.6994295" lon="16.4071472"><ele>429.0</ele><time>2026-04-11T14:22:33.677Z</time></trkpt><trkpt lat="38.6996018" lon="16.4069951"><ele>426.33333333333337</ele><time>2026-04-11T14:22:34.676Z</time></trkpt><trkpt lat="38.6997459" lon="16.406834"><ele>423.6666666666667</ele><time>2026-04-11T14:22:35.676Z</time></trkpt><trkpt lat="38.6998603" lon="16.4066977"><ele>421.0</ele><time>2026-04-11T14:22:36.676Z</time></trkpt><trkpt lat="38.6999431" lon="16.406599"><ele>421.00000000000006</ele><time>2026-04-11T14:22:37.676Z</time></trkpt><trkpt lat="38.6999997" lon="16.4065545"><ele>421.0</ele><time>2026-04-11T14:22:38.677Z</time></trkpt><trkpt lat="38.7000868" lon="16.4065673"><ele>421.0</ele><time>2026-04-11T14:22:40.676Z</time></trkpt><trkpt lat="38.7000642" lon="16.4066955"><ele>421.0</ele><time>2026-04-11T14:22:42.677Z</time></trkpt><trkpt lat="38.700021" lon="16.406792"><ele>421.00000000000006</ele><time>2026-04-11T14:22:43.677Z</time></trkpt><trkpt lat="38.6999593" lon="16.4069015"><ele>421.0</ele><time>2026-04-11T14:22:44.677Z</time></trkpt><trkpt lat="38.6998775" lon="16.4070281"><ele>421.0</ele><time>2026-04-11T14:22:45.676Z</time></trkpt><trkpt lat="38.6997969" lon="16.4071578"><ele>421.0</ele><time>2026-04-11T14:22:46.677Z</time></trkpt><trkpt lat="38.6997204" lon="16.4072879"><ele>421.0</ele><time>2026-04-11T14:22:47.677Z</time></trkpt><trkpt lat="38.6996415" lon="16.4074218"><ele>421.0</ele><time>2026-04-11T14:22:48.677Z</time></trkpt><trkpt lat="38.6995823" lon="16.4075591"><ele>417.5</ele><time>2026-04-11T14:22:49.677Z</time></trkpt><trkpt lat="38.6995308" lon="16.4077001"><ele>414.0</ele><time>2026-04-11T14:22:50.676Z</time></trkpt><trkpt lat="38.6994914" lon="16.4078604"><ele>410.5</ele><time>2026-04-11T14:22:51.677Z</time></trkpt><trkpt lat="38.6994579" lon="16.4080453"><ele>407.0</ele><time>2026-04-11T14:22:52.677Z</time></trkpt><trkpt lat="38.6994387" lon="16.4082308"><ele>405.75</ele><time>2026-04-11T14:22:53.676Z</time></trkpt><trkpt lat="38.699439" lon="16.4084078"><ele>404.5</ele><time>2026-04-11T14:22:54.676Z</time></trkpt><trkpt lat="38.6994675" lon="16.4085955"><ele>403.25</ele><time>2026-04-11T14:22:55.676Z</time></trkpt><trkpt lat="38.6995277" lon="16.4087639"><ele>402.0</ele><time>2026-04-11T14:22:56.676Z</time></trkpt><trkpt lat="38.6995924" lon="16.4089174"><ele>402.0</ele><time>2026-04-11T14:22:57.676Z</time></trkpt><trkpt lat="38.6996707" lon="16.4090397"><ele>402.0</ele><time>2026-04-11T14:22:58.676Z</time></trkpt><trkpt lat="38.6997575" lon="16.4091441"><ele>402.0</ele><time>2026-04-11T14:22:59.676Z</time></trkpt><trkpt lat="38.6998421" lon="16.4092336"><ele>402.0</ele><time>2026-04-11T14:23:00.676Z</time></trkpt><trkpt lat="38.6999248" lon="16.4093334"><ele>402.0</ele><time>2026-04-11T14:23:01.676Z</time></trkpt><trkpt lat="38.6999841" lon="16.4094571"><ele>402.0</ele><time>2026-04-11T14:23:02.676Z</time></trkpt><trkpt lat="38.7000126" lon="16.4096102"><ele>402.0</ele><time>2026-04-11T14:23:03.676Z</time></trkpt><trkpt lat="38.7000253" lon="16.4097816"><ele>402.0</ele><time>2026-04-11T14:23:04.677Z</time></trkpt><trkpt lat="38.7000433" lon="16.4099551"><ele>404.75</ele><time>2026-04-11T14:23:05.677Z</time></trkpt><trkpt lat="38.700061" lon="16.4101153"><ele>407.5</ele><time>2026-04-11T14:23:06.676Z</time></trkpt><trkpt lat="38.7000865" lon="16.4102793"><ele>410.25</ele><time>2026-04-11T14:23:07.677Z</time></trkpt><trkpt lat="38.7001485" lon="16.4104404"><ele>413.0</ele><time>2026-04-11T14:23:08.676Z</time></trkpt><trkpt lat="38.7002384" lon="16.4106057"><ele>407.25</ele><time>2026-04-11T14:23:09.676Z</time></trkpt><trkpt lat="38.7003492" lon="16.410753"><ele>401.5</ele><time>2026-04-11T14:23:10.676Z</time></trkpt><trkpt lat="38.7004532" lon="16.4109001"><ele>395.75</ele><time>2026-04-11T14:23:11.677Z</time></trkpt><trkpt lat="38.7005519" lon="16.4110141"><ele>390.0</ele><time>2026-04-11T14:23:12.677Z</time></trkpt><trkpt lat="38.7006397" lon="16.4110919"><ele>390.0</ele><time>2026-04-11T14:23:13.676Z</time></trkpt><trkpt lat="38.7007229" lon="16.411147"><ele>390.0</ele><time>2026-04-11T14:23:14.676Z</time></trkpt><trkpt lat="38.700804" lon="16.4111712"><ele>390.0</ele><time>2026-04-11T14:23:15.677Z</time></trkpt><trkpt lat="38.7008823" lon="16.4111703"><ele>390.0</ele><time>2026-04-11T14:23:16.676Z</time></trkpt><trkpt lat="38.7009636" lon="16.4111566"><ele>390.0</ele><time>2026-04-11T14:23:17.677Z</time></trkpt><trkpt lat="38.7010672" lon="16.4111144"><ele>390.0</ele><time>2026-04-11T14:23:18.677Z</time></trkpt><trkpt lat="38.7011882" lon="16.411039"><ele>389.25</ele><time>2026-04-11T14:23:19.677Z</time></trkpt><trkpt lat="38.7013161" lon="16.4109555"><ele>388.5</ele><time>2026-04-11T14:23:20.677Z</time></trkpt><trkpt lat="38.7014388" lon="16.4108874"><ele>387.75</ele><time>2026-04-11T14:23:21.676Z</time></trkpt><trkpt lat="38.7015581" lon="16.4108232"><ele>387.0</ele><time>2026-04-11T14:23:22.676Z</time></trkpt><trkpt lat="38.7016737" lon="16.4107574"><ele>387.0</ele><time>2026-04-11T14:23:23.676Z</time></trkpt><trkpt lat="38.7017898" lon="16.4106935"><ele>387.0</ele><time>2026-04-11T14:23:24.676Z</time></trkpt><trkpt lat="38.7019075" lon="16.410633"><ele>387.0</ele><time>2026-04-11T14:23:25.676Z</time></trkpt><trkpt lat="38.7020285" lon="16.4105623"><ele>387.0</ele><time>2026-04-11T14:23:26.676Z</time></trkpt><trkpt lat="38.7021533" lon="16.4104863"><ele>388.75</ele><time>2026-04-11T14:23:27.676Z</time></trkpt><trkpt lat="38.7022716" lon="16.4104179"><ele>390.5</ele><time>2026-04-11T14:23:28.676Z</time></trkpt><trkpt lat="38.7023917" lon="16.4103471"><ele>392.25</ele><time>2026-04-11T14:23:29.677Z</time></trkpt><trkpt lat="38.7025059" lon="16.4102788"><ele>394.0</ele><time>2026-04-11T14:23:30.676Z</time></trkpt><trkpt lat="38.7026098" lon="16.4102051"><ele>394.0</ele><time>2026-04-11T14:23:31.677Z</time></trkpt><trkpt lat="38.7027068" lon="16.4101285"><ele>394.0</ele><time>2026-04-11T14:23:32.677Z</time></trkpt><trkpt lat="38.7028162" lon="16.4100579"><ele>394.0</ele><time>2026-04-11T14:23:33.677Z</time></trkpt><trkpt lat="38.7029298" lon="16.4099924"><ele>394.0</ele><time>2026-04-11T14:23:34.676Z</time></trkpt><trkpt lat="38.7030472" lon="16.409938"><ele>392.75</ele><time>2026-04-11T14:23:35.677Z</time></trkpt><trkpt lat="38.7031733" lon="16.4098835"><ele>391.5</ele><time>2026-04-11T14:23:36.677Z</time></trkpt><trkpt lat="38.7032998" lon="16.4098094"><ele>390.25</ele><time>2026-04-11T14:23:37.676Z</time></trkpt><trkpt lat="38.7034201" lon="16.4097326"><ele>389.0</ele><time>2026-04-11T14:23:38.677Z</time></trkpt><trkpt lat="38.7035383" lon="16.409657"><ele>388.25</ele><time>2026-04-11T14:23:39.676Z</time></trkpt><trkpt lat="38.7036566" lon="16.4095805"><ele>387.5</ele><time>2026-04-11T14:23:40.677Z</time></trkpt><trkpt lat="38.7037776" lon="16.4095124"><ele>386.75</ele><time>2026-04-11T14:23:41.677Z</time></trkpt><trkpt lat="38.7038977" lon="16.4094399"><ele>386.0</ele><time>2026-04-11T14:23:42.676Z</time></trkpt><trkpt lat="38.7040163" lon="16.4093715"><ele>386.0</ele><time>2026-04-11T14:23:43.676Z</time></trkpt><trkpt lat="38.7041345" lon="16.4093046"><ele>386.0</ele><time>2026-04-11T14:23:44.676Z</time></trkpt><trkpt lat="38.7042589" lon="16.4092334"><ele>386.0</ele><time>2026-04-11T14:23:45.676Z</time></trkpt><trkpt lat="38.7043787" lon="16.4091648"><ele>386.0</ele><time>2026-04-11T14:23:46.676Z</time></trkpt><trkpt lat="38.7045056" lon="16.4090946"><ele>386.0</ele><time>2026-04-11T14:23:47.676Z</time></trkpt><trkpt lat="38.7046252" lon="16.4090226"><ele>386.0</ele><time>2026-04-11T14:23:48.676Z</time></trkpt><trkpt lat="38.7047479" lon="16.408951"><ele>386.0</ele><time>2026-04-11T14:23:49.677Z</time></trkpt><trkpt lat="38.7048758" lon="16.4088754"><ele>386.0</ele><time>2026-04-11T14:23:50.676Z</time></trkpt><trkpt lat="38.7049985" lon="16.4088008"><ele>386.0</ele><time>2026-04-11T14:23:51.676Z</time></trkpt><trkpt lat="38.7051146" lon="16.4087281"><ele>386.0</ele><time>2026-04-11T14:23:52.676Z</time></trkpt><trkpt lat="38.7052352" lon="16.4086588"><ele>386.0</ele><time>2026-04-11T14:23:53.676Z</time></trkpt><trkpt lat="38.7053547" lon="16.4085943"><ele>386.0</ele><time>2026-04-11T14:23:54.676Z</time></trkpt><trkpt lat="38.7054718" lon="16.4085258"><ele>386.75</ele><time>2026-04-11T14:23:55.677Z</time></trkpt><trkpt lat="38.7055948" lon="16.4084527"><ele>387.5</ele><time>2026-04-11T14:23:56.677Z</time></trkpt><trkpt lat="38.7057224" lon="16.4083785"><ele>388.25</ele><time>2026-04-11T14:23:57.676Z</time></trkpt><trkpt lat="38.7058539" lon="16.4083033"><ele>389.0</ele><time>2026-04-11T14:23:58.676Z</time></trkpt><trkpt lat="38.7059902" lon="16.4082253"><ele>389.5</ele><time>2026-04-11T14:23:59.676Z</time></trkpt><trkpt lat="38.7061213" lon="16.4081545"><ele>390.0</ele><time>2026-04-11T14:24:00.676Z</time></trkpt><trkpt lat="38.7062468" lon="16.4080771"><ele>390.5</ele><time>2026-04-11T14:24:01.677Z</time></trkpt><trkpt lat="38.706373" lon="16.4079999"><ele>391.0</ele><time>2026-04-11T14:24:02.676Z</time></trkpt><trkpt lat="38.7064967" lon="16.4079261"><ele>391.0</ele><time>2026-04-11T14:24:03.676Z</time></trkpt><trkpt lat="38.7066153" lon="16.4078454"><ele>391.0</ele><time>2026-04-11T14:24:04.676Z</time></trkpt><trkpt lat="38.7067409" lon="16.407769"><ele>391.0</ele><time>2026-04-11T14:24:05.677Z</time></trkpt><trkpt lat="38.7068653" lon="16.4076959"><ele>391.0</ele><time>2026-04-11T14:24:06.676Z</time></trkpt><trkpt lat="38.7069895" lon="16.407628"><ele>391.6666666666667</ele><time>2026-04-11T14:24:07.676Z</time></trkpt><trkpt lat="38.7071131" lon="16.4075606"><ele>392.33333333333337</ele><time>2026-04-11T14:24:08.677Z</time></trkpt><trkpt lat="38.7072352" lon="16.4074848"><ele>393.0</ele><time>2026-04-11T14:24:09.677Z</time></trkpt><trkpt lat="38.7074839" lon="16.4073338"><ele>393.0</ele><time>2026-04-11T14:24:11.676Z</time></trkpt><trkpt lat="38.7076074" lon="16.4072526"><ele>393.0</ele><time>2026-04-11T14:24:12.676Z</time></trkpt><trkpt lat="38.7077325" lon="16.4071863"><ele>393.0</ele><time>2026-04-11T14:24:13.676Z</time></trkpt><trkpt lat="38.7081065" lon="16.4069702"><ele>394.0</ele><time>2026-04-11T14:24:16.676Z</time></trkpt><trkpt lat="38.7082297" lon="16.406901"><ele>395.0</ele><time>2026-04-11T14:24:17.677Z</time></trkpt><trkpt lat="38.7083601" lon="16.4068297"><ele>396.0</ele><time>2026-04-11T14:24:18.676Z</time></trkpt><trkpt lat="38.7084831" lon="16.4067511"><ele>397.0</ele><time>2026-04-11T14:24:19.677Z</time></trkpt><trkpt lat="38.7086035" lon="16.4066783"><ele>398.0</ele><time>2026-04-11T14:24:20.676Z</time></trkpt><trkpt lat="38.7087195" lon="16.406598"><ele>399.0</ele><time>2026-04-11T14:24:21.677Z</time></trkpt><trkpt lat="38.708843" lon="16.4065231"><ele>400.0</ele><time>2026-04-11T14:24:22.676Z</time></trkpt><trkpt lat="38.7089579" lon="16.4064534"><ele>401.0</ele><time>2026-04-11T14:24:23.676Z</time></trkpt><trkpt lat="38.7090667" lon="16.4063785"><ele>401.20000000000005</ele><time>2026-04-11T14:24:24.676Z</time></trkpt><trkpt lat="38.7091723" lon="16.4063138"><ele>401.40000000000003</ele><time>2026-04-11T14:24:25.676Z</time></trkpt><trkpt lat="38.7092667" lon="16.4062572"><ele>401.6</ele><time>2026-04-11T14:24:26.676Z</time></trkpt><trkpt lat="38.7093517" lon="16.4062032"><ele>401.8</ele><time>2026-04-11T14:24:27.677Z</time></trkpt><trkpt lat="38.709433" lon="16.406156"><ele>402.0</ele><time>2026-04-11T14:24:28.677Z</time></trkpt><trkpt lat="38.7095112" lon="16.4061353"><ele>402.40000000000003</ele><time>2026-04-11T14:24:29.677Z</time></trkpt><trkpt lat="38.7096084" lon="16.4061428"><ele>402.8</ele><time>2026-04-11T14:24:30.676Z</time></trkpt><trkpt lat="38.7097121" lon="16.4061751"><ele>403.2</ele><time>2026-04-11T14:24:31.676Z</time></trkpt><trkpt lat="38.7098102" lon="16.4062074"><ele>403.6</ele><time>2026-04-11T14:24:32.676Z</time></trkpt><trkpt lat="38.7099017" lon="16.4062349"><ele>404.0</ele><time>2026-04-11T14:24:33.676Z</time></trkpt><trkpt lat="38.7099833" lon="16.4062783"><ele>404.0</ele><time>2026-04-11T14:24:34.676Z</time></trkpt><trkpt lat="38.7100486" lon="16.4063489"><ele>404.0</ele><time>2026-04-11T14:24:35.676Z</time></trkpt><trkpt lat="38.7101074" lon="16.4064455"><ele>404.0</ele><time>2026-04-11T14:24:36.676Z</time></trkpt><trkpt lat="38.7101471" lon="16.4065605"><ele>404.0</ele><time>2026-04-11T14:24:37.676Z</time></trkpt><trkpt lat="38.7101787" lon="16.4066583"><ele>404.0</ele><time>2026-04-11T14:24:38.677Z</time></trkpt><trkpt lat="38.7102022" lon="16.4067733"><ele>403.99999999999994</ele><time>2026-04-11T14:24:39.677Z</time></trkpt><trkpt lat="38.7102264" lon="16.4068683"><ele>404.0</ele><time>2026-04-11T14:24:40.676Z</time></trkpt><trkpt lat="38.7102693" lon="16.4069457"><ele>404.0</ele><time>2026-04-11T14:24:41.676Z</time></trkpt><trkpt lat="38.7103314" lon="16.4070212"><ele>404.0</ele><time>2026-04-11T14:24:42.676Z</time></trkpt><trkpt lat="38.7104097" lon="16.4070733"><ele>403.99999999999994</ele><time>2026-04-11T14:24:43.676Z</time></trkpt><trkpt lat="38.7104905" lon="16.4070928"><ele>404.0</ele><time>2026-04-11T14:24:44.676Z</time></trkpt><trkpt lat="38.710584" lon="16.4070921"><ele>404.3333333333333</ele><time>2026-04-11T14:24:45.676Z</time></trkpt><trkpt lat="38.7106734" lon="16.4070682"><ele>404.66666666666663</ele><time>2026-04-11T14:24:46.677Z</time></trkpt><trkpt lat="38.7107636" lon="16.4070271"><ele>405.0</ele><time>2026-04-11T14:24:47.677Z</time></trkpt><trkpt lat="38.7108466" lon="16.4069764"><ele>405.33333333333337</ele><time>2026-04-11T14:24:48.677Z</time></trkpt><trkpt lat="38.7109252" lon="16.406934"><ele>405.6666666666667</ele><time>2026-04-11T14:24:49.676Z</time></trkpt><trkpt lat="38.7110065" lon="16.4069083"><ele>406.0</ele><time>2026-04-11T14:24:50.677Z</time></trkpt><trkpt lat="38.7110851" lon="16.4069201"><ele>407.20000000000005</ele><time>2026-04-11T14:24:51.676Z</time></trkpt><trkpt lat="38.711158" lon="16.4069428"><ele>408.40000000000003</ele><time>2026-04-11T14:24:52.676Z</time></trkpt><trkpt lat="38.7112327" lon="16.4069843"><ele>409.6</ele><time>2026-04-11T14:24:53.676Z</time></trkpt><trkpt lat="38.7113128" lon="16.4070521"><ele>410.8</ele><time>2026-04-11T14:24:54.676Z</time></trkpt><trkpt lat="38.7113948" lon="16.4071282"><ele>412.0</ele><time>2026-04-11T14:24:55.676Z</time></trkpt><trkpt lat="38.7114705" lon="16.4072046"><ele>412.6</ele><time>2026-04-11T14:24:56.676Z</time></trkpt><trkpt lat="38.711531" lon="16.4072966"><ele>413.20000000000005</ele><time>2026-04-11T14:24:57.677Z</time></trkpt><trkpt lat="38.7115776" lon="16.4074027"><ele>413.8</ele><time>2026-04-11T14:24:58.676Z</time></trkpt><trkpt lat="38.7116102" lon="16.4075173"><ele>414.4</ele><time>2026-04-11T14:24:59.676Z</time></trkpt><trkpt lat="38.7116249" lon="16.407647"><ele>415.0</ele><time>2026-04-11T14:25:00.676Z</time></trkpt><trkpt lat="38.711633" lon="16.4077811"><ele>415.0</ele><time>2026-04-11T14:25:01.676Z</time></trkpt><trkpt lat="38.7116465" lon="16.4079173"><ele>415.0</ele><time>2026-04-11T14:25:02.676Z</time></trkpt><trkpt lat="38.7116684" lon="16.4080601"><ele>415.0</ele><time>2026-04-11T14:25:03.676Z</time></trkpt><trkpt lat="38.7117057" lon="16.4081955"><ele>415.0</ele><time>2026-04-11T14:25:04.677Z</time></trkpt><trkpt lat="38.7117494" lon="16.4083392"><ele>414.75</ele><time>2026-04-11T14:25:05.676Z</time></trkpt><trkpt lat="38.7117968" lon="16.4084797"><ele>414.5</ele><time>2026-04-11T14:25:06.676Z</time></trkpt><trkpt lat="38.7118535" lon="16.4086182"><ele>414.25</ele><time>2026-04-11T14:25:07.676Z</time></trkpt><trkpt lat="38.7119057" lon="16.4087438"><ele>414.0</ele><time>2026-04-11T14:25:08.677Z</time></trkpt><trkpt lat="38.7119837" lon="16.4088531"><ele>416.75</ele><time>2026-04-11T14:25:09.676Z</time></trkpt><trkpt lat="38.71208" lon="16.4089374"><ele>419.5</ele><time>2026-04-11T14:25:10.676Z</time></trkpt><trkpt lat="38.71218" lon="16.4090142"><ele>422.25</ele><time>2026-04-11T14:25:11.677Z</time></trkpt><trkpt lat="38.7122719" lon="16.409101"><ele>425.0</ele><time>2026-04-11T14:25:12.677Z</time></trkpt><trkpt lat="38.7123443" lon="16.4092046"><ele>425.0</ele><time>2026-04-11T14:25:13.676Z</time></trkpt><trkpt lat="38.7124158" lon="16.4093087"><ele>425.0</ele><time>2026-04-11T14:25:14.676Z</time></trkpt><trkpt lat="38.7124789" lon="16.4094232"><ele>425.0</ele><time>2026-04-11T14:25:15.677Z</time></trkpt><trkpt lat="38.712521" lon="16.4095311"><ele>425.0</ele><time>2026-04-11T14:25:16.677Z</time></trkpt><trkpt lat="38.7125284" lon="16.4096504"><ele>425.0</ele><time>2026-04-11T14:25:17.677Z</time></trkpt><trkpt lat="38.7125196" lon="16.4097832"><ele>424.0</ele><time>2026-04-11T14:25:18.677Z</time></trkpt><trkpt lat="38.7125155" lon="16.4099297"><ele>423.0</ele><time>2026-04-11T14:25:19.677Z</time></trkpt><trkpt lat="38.7125502" lon="16.4100666"><ele>422.0</ele><time>2026-04-11T14:25:20.677Z</time></trkpt><trkpt lat="38.712592" lon="16.4102202"><ele>421.0</ele><time>2026-04-11T14:25:21.677Z</time></trkpt><trkpt lat="38.7126423" lon="16.4103728"><ele>420.0</ele><time>2026-04-11T14:25:22.676Z</time></trkpt><trkpt lat="38.7126985" lon="16.4105208"><ele>419.0</ele><time>2026-04-11T14:25:23.677Z</time></trkpt><trkpt lat="38.7127579" lon="16.4106675"><ele>418.0</ele><time>2026-04-11T14:25:24.677Z</time></trkpt><trkpt lat="38.7128231" lon="16.4108201"><ele>417.0</ele><time>2026-04-11T14:25:25.677Z</time></trkpt><trkpt lat="38.7128848" lon="16.4109605"><ele>422.0</ele><time>2026-04-11T14:25:26.676Z</time></trkpt><trkpt lat="38.7129503" lon="16.4110924"><ele>427.0</ele><time>2026-04-11T14:25:27.676Z</time></trkpt><trkpt lat="38.7130334" lon="16.4111959"><ele>432.0</ele><time>2026-04-11T14:25:28.676Z</time></trkpt><trkpt lat="38.713107" lon="16.411304"><ele>437.0</ele><time>2026-04-11T14:25:29.677Z</time></trkpt><trkpt lat="38.7131548" lon="16.4114355"><ele>437.0</ele><time>2026-04-11T14:25:30.676Z</time></trkpt><trkpt lat="38.713153" lon="16.411582"><ele>437.0</ele><time>2026-04-11T14:25:31.676Z</time></trkpt><trkpt lat="38.7131321" lon="16.4117386"><ele>437.0</ele><time>2026-04-11T14:25:32.676Z</time></trkpt><trkpt lat="38.7131005" lon="16.4118969"><ele>437.0</ele><time>2026-04-11T14:25:33.676Z</time></trkpt><trkpt lat="38.7130886" lon="16.4120471"><ele>436.0</ele><time>2026-04-11T14:25:34.676Z</time></trkpt><trkpt lat="38.7131037" lon="16.4122014"><ele>435.0</ele><time>2026-04-11T14:25:35.677Z</time></trkpt><trkpt lat="38.7131443" lon="16.4123406"><ele>434.0</ele><time>2026-04-11T14:25:36.676Z</time></trkpt><trkpt lat="38.7132107" lon="16.4124726"><ele>433.0</ele><time>2026-04-11T14:25:37.676Z</time></trkpt><trkpt lat="38.7133009" lon="16.4125864"><ele>433.0</ele><time>2026-04-11T14:25:38.676Z</time></trkpt><trkpt lat="38.7134143" lon="16.4126627"><ele>433.0</ele><time>2026-04-11T14:25:39.676Z</time></trkpt><trkpt lat="38.7135352" lon="16.412693"><ele>433.0</ele><time>2026-04-11T14:25:40.676Z</time></trkpt><trkpt lat="38.7136746" lon="16.4126775"><ele>433.0</ele><time>2026-04-11T14:25:41.677Z</time></trkpt><trkpt lat="38.7137995" lon="16.4126453"><ele>437.0</ele><time>2026-04-11T14:25:42.676Z</time></trkpt><trkpt lat="38.7139261" lon="16.4126057"><ele>441.0</ele><time>2026-04-11T14:25:43.676Z</time></trkpt><trkpt lat="38.7140517" lon="16.4125651"><ele>445.0</ele><time>2026-04-11T14:25:44.677Z</time></trkpt><trkpt lat="38.7141842" lon="16.4125455"><ele>449.0</ele><time>2026-04-11T14:25:45.676Z</time></trkpt><trkpt lat="38.714312" lon="16.4125465"><ele>453.5</ele><time>2026-04-11T14:25:46.676Z</time></trkpt><trkpt lat="38.7144348" lon="16.4125898"><ele>458.0</ele><time>2026-04-11T14:25:47.676Z</time></trkpt><trkpt lat="38.7145287" lon="16.4126708"><ele>462.5</ele><time>2026-04-11T14:25:48.676Z</time></trkpt><trkpt lat="38.7146092" lon="16.4127747"><ele>467.0</ele><time>2026-04-11T14:25:49.677Z</time></trkpt><trkpt lat="38.7146695" lon="16.412904"><ele>466.0</ele><time>2026-04-11T14:25:50.676Z</time></trkpt><trkpt lat="38.7147095" lon="16.4130646"><ele>465.0</ele><time>2026-04-11T14:25:51.676Z</time></trkpt><trkpt lat="38.7147235" lon="16.4132314"><ele>464.0</ele><time>2026-04-11T14:25:52.677Z</time></trkpt><trkpt lat="38.7147331" lon="16.4134123"><ele>463.0</ele><time>2026-04-11T14:25:53.676Z</time></trkpt><trkpt lat="38.7147337" lon="16.4135856"><ele>463.0</ele><time>2026-04-11T14:25:54.677Z</time></trkpt><trkpt lat="38.7147419" lon="16.4137578"><ele>463.0</ele><time>2026-04-11T14:25:55.676Z</time></trkpt><trkpt lat="38.7147736" lon="16.4139241"><ele>463.0</ele><time>2026-04-11T14:25:56.677Z</time></trkpt><trkpt lat="38.7148399" lon="16.414058"><ele>463.0</ele><time>2026-04-11T14:25:57.676Z</time></trkpt><trkpt lat="38.7149362" lon="16.4141359"><ele>462.0</ele><time>2026-04-11T14:25:58.676Z</time></trkpt><trkpt lat="38.7150564" lon="16.4141664"><ele>461.0</ele><time>2026-04-11T14:25:59.676Z</time></trkpt><trkpt lat="38.715192" lon="16.4141585"><ele>460.0</ele><time>2026-04-11T14:26:00.676Z</time></trkpt><trkpt lat="38.7153231" lon="16.4141304"><ele>459.0</ele><time>2026-04-11T14:26:01.677Z</time></trkpt><trkpt lat="38.7154542" lon="16.4140759"><ele>459.0</ele><time>2026-04-11T14:26:02.677Z</time></trkpt><trkpt lat="38.7155818" lon="16.41402"><ele>459.0</ele><time>2026-04-11T14:26:03.676Z</time></trkpt><trkpt lat="38.715708" lon="16.4139646"><ele>459.0</ele><time>2026-04-11T14:26:04.677Z</time></trkpt><trkpt lat="38.7158335" lon="16.4139108"><ele>459.0</ele><time>2026-04-11T14:26:05.676Z</time></trkpt><trkpt lat="38.7159702" lon="16.4138685"><ele>464.5</ele><time>2026-04-11T14:26:06.676Z</time></trkpt><trkpt lat="38.7161088" lon="16.4138388"><ele>470.0</ele><time>2026-04-11T14:26:07.676Z</time></trkpt><trkpt lat="38.7162361" lon="16.4138239"><ele>475.5</ele><time>2026-04-11T14:26:08.676Z</time></trkpt><trkpt lat="38.7163414" lon="16.4138242"><ele>481.0</ele><time>2026-04-11T14:26:09.677Z</time></trkpt><trkpt lat="38.7164351" lon="16.4138559"><ele>481.0</ele><time>2026-04-11T14:26:10.677Z</time></trkpt><trkpt lat="38.7165092" lon="16.4139199"><ele>481.0</ele><time>2026-04-11T14:26:11.676Z</time></trkpt><trkpt lat="38.7165494" lon="16.4139907"><ele>481.0</ele><time>2026-04-11T14:26:12.676Z</time></trkpt><trkpt lat="38.7165975" lon="16.4140954"><ele>481.0</ele><time>2026-04-11T14:26:13.676Z</time></trkpt><trkpt lat="38.7166288" lon="16.4142115"><ele>481.0</ele><time>2026-04-11T14:26:14.676Z</time></trkpt><trkpt lat="38.7166304" lon="16.4143483"><ele>481.0</ele><time>2026-04-11T14:26:15.677Z</time></trkpt><trkpt lat="38.7165868" lon="16.4144855"><ele>481.0</ele><time>2026-04-11T14:26:16.676Z</time></trkpt><trkpt lat="38.71651" lon="16.4145899"><ele>481.0</ele><time>2026-04-11T14:26:17.676Z</time></trkpt><trkpt lat="38.7164176" lon="16.4146734"><ele>481.0</ele><time>2026-04-11T14:26:18.677Z</time></trkpt><trkpt lat="38.7163186" lon="16.4147344"><ele>481.4</ele><time>2026-04-11T14:26:19.676Z</time></trkpt><trkpt lat="38.7162209" lon="16.4148063"><ele>481.8</ele><time>2026-04-11T14:26:20.677Z</time></trkpt><trkpt lat="38.7161559" lon="16.4149114"><ele>482.19999999999993</ele><time>2026-04-11T14:26:21.676Z</time></trkpt><trkpt lat="38.7161208" lon="16.4150423"><ele>482.59999999999997</ele><time>2026-04-11T14:26:22.677Z</time></trkpt><trkpt lat="38.7161267" lon="16.4151935"><ele>483.0</ele><time>2026-04-11T14:26:23.677Z</time></trkpt><trkpt lat="38.7161773" lon="16.415346"><ele>482.25</ele><time>2026-04-11T14:26:24.677Z</time></trkpt><trkpt lat="38.7162528" lon="16.4155"><ele>481.5</ele><time>2026-04-11T14:26:25.676Z</time></trkpt><trkpt lat="38.7163356" lon="16.4156544"><ele>480.75</ele><time>2026-04-11T14:26:26.677Z</time></trkpt><trkpt lat="38.7164076" lon="16.4158094"><ele>480.0</ele><time>2026-04-11T14:26:27.677Z</time></trkpt><trkpt lat="38.7164809" lon="16.4159632"><ele>480.0</ele><time>2026-04-11T14:26:28.676Z</time></trkpt><trkpt lat="38.7165498" lon="16.4161242"><ele>480.0</ele><time>2026-04-11T14:26:29.676Z</time></trkpt><trkpt lat="38.7166261" lon="16.4162764"><ele>480.0</ele><time>2026-04-11T14:26:30.676Z</time></trkpt><trkpt lat="38.7167106" lon="16.4164237"><ele>480.0</ele><time>2026-04-11T14:26:31.676Z</time></trkpt><trkpt lat="38.7167977" lon="16.4165546"><ele>481.25</ele><time>2026-04-11T14:26:32.676Z</time></trkpt><trkpt lat="38.7168906" lon="16.4166705"><ele>482.5</ele><time>2026-04-11T14:26:33.676Z</time></trkpt><trkpt lat="38.7169977" lon="16.4167422"><ele>483.75</ele><time>2026-04-11T14:26:34.676Z</time></trkpt><trkpt lat="38.7171144" lon="16.416774"><ele>485.0</ele><time>2026-04-11T14:26:35.677Z</time></trkpt><trkpt lat="38.7172395" lon="16.41679"><ele>485.0</ele><time>2026-04-11T14:26:36.676Z</time></trkpt><trkpt lat="38.7173542" lon="16.4168177"><ele>485.0</ele><time>2026-04-11T14:26:37.676Z</time></trkpt><trkpt lat="38.7174665" lon="16.4168896"><ele>485.0</ele><time>2026-04-11T14:26:38.676Z</time></trkpt><trkpt lat="38.7175629" lon="16.4169971"><ele>485.0</ele><time>2026-04-11T14:26:39.676Z</time></trkpt><trkpt lat="38.7176589" lon="16.417109"><ele>487.5</ele><time>2026-04-11T14:26:40.676Z</time></trkpt><trkpt lat="38.7177613" lon="16.4172368"><ele>490.0</ele><time>2026-04-11T14:26:41.677Z</time></trkpt><trkpt lat="38.7178679" lon="16.4173701"><ele>492.5</ele><time>2026-04-11T14:26:42.676Z</time></trkpt><trkpt lat="38.7179833" lon="16.4174827"><ele>495.0</ele><time>2026-04-11T14:26:43.676Z</time></trkpt><trkpt lat="38.7180857" lon="16.417617"><ele>495.0</ele><time>2026-04-11T14:26:44.676Z</time></trkpt><trkpt lat="38.7181813" lon="16.4177688"><ele>495.0</ele><time>2026-04-11T14:26:45.677Z</time></trkpt><trkpt lat="38.7182495" lon="16.4179258"><ele>495.0</ele><time>2026-04-11T14:26:46.677Z</time></trkpt><trkpt lat="38.7182945" lon="16.4181085"><ele>495.0</ele><time>2026-04-11T14:26:47.676Z</time></trkpt><trkpt lat="38.7183008" lon="16.4182957"><ele>494.5</ele><time>2026-04-11T14:26:48.676Z</time></trkpt><trkpt lat="38.7182748" lon="16.4184662"><ele>494.0</ele><time>2026-04-11T14:26:49.677Z</time></trkpt><trkpt lat="38.7182443" lon="16.418638"><ele>493.5</ele><time>2026-04-11T14:26:50.677Z</time></trkpt><trkpt lat="38.7182452" lon="16.418805"><ele>493.0</ele><time>2026-04-11T14:26:51.676Z</time></trkpt><trkpt lat="38.7182709" lon="16.4189827"><ele>492.75</ele><time>2026-04-11T14:26:52.676Z</time></trkpt><trkpt lat="38.7183156" lon="16.419161"><ele>492.5</ele><time>2026-04-11T14:26:53.677Z</time></trkpt><trkpt lat="38.7183591" lon="16.419337"><ele>492.25</ele><time>2026-04-11T14:26:54.676Z</time></trkpt><trkpt lat="38.7184026" lon="16.4195135"><ele>492.0</ele><time>2026-04-11T14:26:55.677Z</time></trkpt><trkpt lat="38.7184174" lon="16.4197025"><ele>491.75</ele><time>2026-04-11T14:26:56.677Z</time></trkpt><trkpt lat="38.7184004" lon="16.4198879"><ele>491.5</ele><time>2026-04-11T14:26:57.677Z</time></trkpt><trkpt lat="38.7183751" lon="16.4200701"><ele>491.25</ele><time>2026-04-11T14:26:58.676Z</time></trkpt><trkpt lat="38.7183732" lon="16.4202449"><ele>491.0</ele><time>2026-04-11T14:26:59.676Z</time></trkpt><trkpt lat="38.718398" lon="16.4204155"><ele>490.25</ele><time>2026-04-11T14:27:00.677Z</time></trkpt><trkpt lat="38.7184643" lon="16.4205805"><ele>489.5</ele><time>2026-04-11T14:27:01.676Z</time></trkpt><trkpt lat="38.7185355" lon="16.420745"><ele>488.75</ele><time>2026-04-11T14:27:02.677Z</time></trkpt><trkpt lat="38.7185943" lon="16.4209133"><ele>488.0</ele><time>2026-04-11T14:27:03.676Z</time></trkpt><trkpt lat="38.7186487" lon="16.4210863"><ele>490.75</ele><time>2026-04-11T14:27:04.676Z</time></trkpt><trkpt lat="38.7187125" lon="16.4212482"><ele>493.5</ele><time>2026-04-11T14:27:05.676Z</time></trkpt><trkpt lat="38.7187958" lon="16.421387"><ele>496.25</ele><time>2026-04-11T14:27:06.676Z</time></trkpt><trkpt lat="38.7188901" lon="16.4215112"><ele>499.0</ele><time>2026-04-11T14:27:07.677Z</time></trkpt><trkpt lat="38.7190014" lon="16.4216059"><ele>499.0</ele><time>2026-04-11T14:27:08.676Z</time></trkpt><trkpt lat="38.719115" lon="16.4216707"><ele>499.0</ele><time>2026-04-11T14:27:09.676Z</time></trkpt><trkpt lat="38.7192394" lon="16.4217212"><ele>499.0</ele><time>2026-04-11T14:27:10.676Z</time></trkpt><trkpt lat="38.7193626" lon="16.421767"><ele>499.0</ele><time>2026-04-11T14:27:11.676Z</time></trkpt><trkpt lat="38.7194975" lon="16.4218145"><ele>500.75</ele><time>2026-04-11T14:27:12.677Z</time></trkpt><trkpt lat="38.7196253" lon="16.421865"><ele>502.5</ele><time>2026-04-11T14:27:13.676Z</time></trkpt><trkpt lat="38.7197451" lon="16.4219225"><ele>504.25</ele><time>2026-04-11T14:27:14.677Z</time></trkpt><trkpt lat="38.7198511" lon="16.421988"><ele>506.0</ele><time>2026-04-11T14:27:15.677Z</time></trkpt><trkpt lat="38.7199602" lon="16.4220717"><ele>503.25</ele><time>2026-04-11T14:27:16.677Z</time></trkpt><trkpt lat="38.7200728" lon="16.4221622"><ele>500.5</ele><time>2026-04-11T14:27:17.676Z</time></trkpt><trkpt lat="38.720183" lon="16.4222583"><ele>497.75</ele><time>2026-04-11T14:27:18.677Z</time></trkpt><trkpt lat="38.7202897" lon="16.4223484"><ele>495.0</ele><time>2026-04-11T14:27:19.676Z</time></trkpt><trkpt lat="38.7203966" lon="16.4224368"><ele>494.6</ele><time>2026-04-11T14:27:20.676Z</time></trkpt><trkpt lat="38.7204981" lon="16.4225036"><ele>494.2</ele><time>2026-04-11T14:27:21.676Z</time></trkpt><trkpt lat="38.7205912" lon="16.4225446"><ele>493.79999999999995</ele><time>2026-04-11T14:27:22.676Z</time></trkpt><trkpt lat="38.7206691" lon="16.4225327"><ele>493.4</ele><time>2026-04-11T14:27:23.676Z</time></trkpt><trkpt lat="38.7207478" lon="16.4224722"><ele>493.0</ele><time>2026-04-11T14:27:24.676Z</time></trkpt><trkpt lat="38.7208267" lon="16.4223707"><ele>493.0</ele><time>2026-04-11T14:27:25.677Z</time></trkpt><trkpt lat="38.7208949" lon="16.4222187"><ele>493.0</ele><time>2026-04-11T14:27:26.676Z</time></trkpt><trkpt lat="38.7209548" lon="16.4220702"><ele>493.0</ele><time>2026-04-11T14:27:27.676Z</time></trkpt><trkpt lat="38.7210068" lon="16.4219464"><ele>493.0</ele><time>2026-04-11T14:27:28.676Z</time></trkpt><trkpt lat="38.7210687" lon="16.4218578"><ele>494.0</ele><time>2026-04-11T14:27:29.676Z</time></trkpt><trkpt lat="38.7211393" lon="16.4218073"><ele>494.99999999999994</ele><time>2026-04-11T14:27:30.676Z</time></trkpt><trkpt lat="38.7212266" lon="16.4218026"><ele>495.99999999999994</ele><time>2026-04-11T14:27:31.677Z</time></trkpt><trkpt lat="38.7213082" lon="16.421855"><ele>497.0</ele><time>2026-04-11T14:27:32.676Z</time></trkpt><trkpt lat="38.7213846" lon="16.4219593"><ele>498.0</ele><time>2026-04-11T14:27:33.677Z</time></trkpt><trkpt lat="38.7214704" lon="16.4220633"><ele>498.0</ele><time>2026-04-11T14:27:34.676Z</time></trkpt><trkpt lat="38.7215708" lon="16.422131"><ele>498.0</ele><time>2026-04-11T14:27:35.676Z</time></trkpt><trkpt lat="38.7216844" lon="16.4221498"><ele>498.0</ele><time>2026-04-11T14:27:36.676Z</time></trkpt><trkpt lat="38.7218143" lon="16.4221193"><ele>498.0</ele><time>2026-04-11T14:27:37.676Z</time></trkpt><trkpt lat="38.7219498" lon="16.4220686"><ele>494.5</ele><time>2026-04-11T14:27:38.676Z</time></trkpt><trkpt lat="38.7220733" lon="16.4220144"><ele>491.0</ele><time>2026-04-11T14:27:39.676Z</time></trkpt><trkpt lat="38.7221964" lon="16.4219418"><ele>487.5</ele><time>2026-04-11T14:27:40.676Z</time></trkpt><trkpt lat="38.7223008" lon="16.4218284"><ele>484.0</ele><time>2026-04-11T14:27:41.676Z</time></trkpt><trkpt lat="38.7223965" lon="16.4216781"><ele>484.0</ele><time>2026-04-11T14:27:42.676Z</time></trkpt><trkpt lat="38.7224935" lon="16.4215248"><ele>484.0</ele><time>2026-04-11T14:27:43.676Z</time></trkpt><trkpt lat="38.7225899" lon="16.4213825"><ele>484.0</ele><time>2026-04-11T14:27:44.677Z</time></trkpt><trkpt lat="38.7226884" lon="16.4212458"><ele>484.0</ele><time>2026-04-11T14:27:45.677Z</time></trkpt><trkpt lat="38.7227982" lon="16.4211189"><ele>483.0</ele><time>2026-04-11T14:27:46.676Z</time></trkpt><trkpt lat="38.7229184" lon="16.4210033"><ele>482.0</ele><time>2026-04-11T14:27:47.676Z</time></trkpt><trkpt lat="38.7230476" lon="16.420899"><ele>481.0</ele><time>2026-04-11T14:27:48.677Z</time></trkpt><trkpt lat="38.7231914" lon="16.4208135"><ele>481.0</ele><time>2026-04-11T14:27:49.677Z</time></trkpt><trkpt lat="38.7233445" lon="16.4207326"><ele>481.0</ele><time>2026-04-11T14:27:50.676Z</time></trkpt><trkpt lat="38.723502" lon="16.420677"><ele>481.0</ele><time>2026-04-11T14:27:51.677Z</time></trkpt><trkpt lat="38.7236579" lon="16.4206378"><ele>478.75</ele><time>2026-04-11T14:27:52.676Z</time></trkpt><trkpt lat="38.7238016" lon="16.4205905"><ele>476.5</ele><time>2026-04-11T14:27:53.677Z</time></trkpt><trkpt lat="38.7239363" lon="16.4205076"><ele>474.25</ele><time>2026-04-11T14:27:54.677Z</time></trkpt><trkpt lat="38.7240523" lon="16.4203865"><ele>472.0</ele><time>2026-04-11T14:27:55.676Z</time></trkpt><trkpt lat="38.7241541" lon="16.4202578"><ele>472.0</ele><time>2026-04-11T14:27:56.676Z</time></trkpt><trkpt lat="38.7242225" lon="16.4200807"><ele>472.0</ele><time>2026-04-11T14:27:57.677Z</time></trkpt><trkpt lat="38.724276" lon="16.4198923"><ele>472.0</ele><time>2026-04-11T14:27:58.676Z</time></trkpt><trkpt lat="38.7243639" lon="16.419744"><ele>470.0</ele><time>2026-04-11T14:27:59.676Z</time></trkpt><trkpt lat="38.724477" lon="16.4196458"><ele>468.0</ele><time>2026-04-11T14:28:00.677Z</time></trkpt><trkpt lat="38.7245996" lon="16.4196073"><ele>466.0</ele><time>2026-04-11T14:28:01.676Z</time></trkpt><trkpt lat="38.7247224" lon="16.4196347"><ele>464.0</ele><time>2026-04-11T14:28:02.677Z</time></trkpt><trkpt lat="38.7248333" lon="16.4197134"><ele>464.0</ele><time>2026-04-11T14:28:03.676Z</time></trkpt><trkpt lat="38.7249313" lon="16.4198165"><ele>464.0</ele><time>2026-04-11T14:28:04.677Z</time></trkpt><trkpt lat="38.7249888" lon="16.4199279"><ele>464.0</ele><time>2026-04-11T14:28:05.676Z</time></trkpt><trkpt lat="38.7250061" lon="16.4200527"><ele>464.0</ele><time>2026-04-11T14:28:06.677Z</time></trkpt><trkpt lat="38.7249816" lon="16.4201662"><ele>464.0</ele><time>2026-04-11T14:28:07.677Z</time></trkpt><trkpt lat="38.7249412" lon="16.4202658"><ele>464.0</ele><time>2026-04-11T14:28:08.677Z</time></trkpt><trkpt lat="38.7248941" lon="16.4203532"><ele>464.0</ele><time>2026-04-11T14:28:09.677Z</time></trkpt><trkpt lat="38.7248544" lon="16.4204573"><ele>464.0</ele><time>2026-04-11T14:28:10.677Z</time></trkpt><trkpt lat="38.7248215" lon="16.4205754"><ele>464.0</ele><time>2026-04-11T14:28:11.676Z</time></trkpt><trkpt lat="38.7248035" lon="16.4207225"><ele>464.0</ele><time>2026-04-11T14:28:12.676Z</time></trkpt><trkpt lat="38.7247991" lon="16.420884"><ele>465.0</ele><time>2026-04-11T14:28:13.676Z</time></trkpt><trkpt lat="38.7248052" lon="16.4210472"><ele>466.0</ele><time>2026-04-11T14:28:14.676Z</time></trkpt><trkpt lat="38.7248218" lon="16.4212187"><ele>467.0</ele><time>2026-04-11T14:28:15.676Z</time></trkpt><trkpt lat="38.7248362" lon="16.4213942"><ele>468.0</ele><time>2026-04-11T14:28:16.676Z</time></trkpt><trkpt lat="38.7248437" lon="16.4215641"><ele>469.5</ele><time>2026-04-11T14:28:17.677Z</time></trkpt><trkpt lat="38.7248544" lon="16.4217403"><ele>471.0</ele><time>2026-04-11T14:28:18.676Z</time></trkpt><trkpt lat="38.7248648" lon="16.4219169"><ele>472.5</ele><time>2026-04-11T14:28:19.677Z</time></trkpt><trkpt lat="38.7248805" lon="16.4220926"><ele>474.0</ele><time>2026-04-11T14:28:20.676Z</time></trkpt><trkpt lat="38.7248984" lon="16.4222642"><ele>474.75</ele><time>2026-04-11T14:28:21.676Z</time></trkpt><trkpt lat="38.7249138" lon="16.4224198"><ele>475.5</ele><time>2026-04-11T14:28:22.677Z</time></trkpt><trkpt lat="38.7249459" lon="16.422565"><ele>476.25</ele><time>2026-04-11T14:28:23.676Z</time></trkpt><trkpt lat="38.7249891" lon="16.422707"><ele>477.0</ele><time>2026-04-11T14:28:24.676Z</time></trkpt><trkpt lat="38.7250264" lon="16.4228538"><ele>478.0</ele><time>2026-04-11T14:28:25.677Z</time></trkpt><trkpt lat="38.7250704" lon="16.4230015"><ele>479.0</ele><time>2026-04-11T14:28:26.676Z</time></trkpt><trkpt lat="38.7250982" lon="16.4231606"><ele>480.0</ele><time>2026-04-11T14:28:27.676Z</time></trkpt><trkpt lat="38.7250927" lon="16.4233127"><ele>481.0</ele><time>2026-04-11T14:28:28.676Z</time></trkpt><trkpt lat="38.725041" lon="16.4234492"><ele>481.0</ele><time>2026-04-11T14:28:29.677Z</time></trkpt><trkpt lat="38.7249704" lon="16.4235731"><ele>481.0</ele><time>2026-04-11T14:28:30.677Z</time></trkpt><trkpt lat="38.724908" lon="16.4236888"><ele>481.0</ele><time>2026-04-11T14:28:31.676Z</time></trkpt><trkpt lat="38.7248404" lon="16.4237863"><ele>481.0</ele><time>2026-04-11T14:28:32.676Z</time></trkpt><trkpt lat="38.7247561" lon="16.4238416"><ele>481.0</ele><time>2026-04-11T14:28:33.676Z</time></trkpt><trkpt lat="38.7246758" lon="16.4238934"><ele>481.6</ele><time>2026-04-11T14:28:34.677Z</time></trkpt><trkpt lat="38.724616" lon="16.4239593"><ele>482.20000000000005</ele><time>2026-04-11T14:28:35.676Z</time></trkpt><trkpt lat="38.7245882" lon="16.4240351"><ele>482.79999999999995</ele><time>2026-04-11T14:28:36.677Z</time></trkpt><trkpt lat="38.7246239" lon="16.4241922"><ele>483.4</ele><time>2026-04-11T14:28:38.676Z</time></trkpt><trkpt lat="38.7246852" lon="16.4242665"><ele>484.0</ele><time>2026-04-11T14:28:39.677Z</time></trkpt><trkpt lat="38.7247832" lon="16.4243107"><ele>484.0</ele><time>2026-04-11T14:28:40.677Z</time></trkpt><trkpt lat="38.7248699" lon="16.4243634"><ele>484.0</ele><time>2026-04-11T14:28:41.676Z</time></trkpt><trkpt lat="38.7249481" lon="16.4244256"><ele>484.0</ele><time>2026-04-11T14:28:42.676Z</time></trkpt><trkpt lat="38.7250305" lon="16.424499"><ele>484.0</ele><time>2026-04-11T14:28:43.676Z</time></trkpt><trkpt lat="38.725113" lon="16.4245734"><ele>484.0</ele><time>2026-04-11T14:28:44.677Z</time></trkpt><trkpt lat="38.7252027" lon="16.4246563"><ele>482.75</ele><time>2026-04-11T14:28:45.676Z</time></trkpt><trkpt lat="38.7252922" lon="16.4247502"><ele>481.5</ele><time>2026-04-11T14:28:46.676Z</time></trkpt><trkpt lat="38.7253868" lon="16.4248422"><ele>480.25</ele><time>2026-04-11T14:28:47.677Z</time></trkpt><trkpt lat="38.7254806" lon="16.4249403"><ele>479.0</ele><time>2026-04-11T14:28:48.676Z</time></trkpt><trkpt lat="38.7255907" lon="16.4250116"><ele>479.0</ele><time>2026-04-11T14:28:49.677Z</time></trkpt><trkpt lat="38.725682" lon="16.425096"><ele>479.0</ele><time>2026-04-11T14:28:50.676Z</time></trkpt><trkpt lat="38.7257687" lon="16.4251662"><ele>479.0</ele><time>2026-04-11T14:28:51.676Z</time></trkpt><trkpt lat="38.7258477" lon="16.4252008"><ele>479.0</ele><time>2026-04-11T14:28:52.676Z</time></trkpt><trkpt lat="38.7259274" lon="16.4251919"><ele>479.0</ele><time>2026-04-11T14:28:53.676Z</time></trkpt><trkpt lat="38.7260031" lon="16.4251531"><ele>476.25</ele><time>2026-04-11T14:28:54.676Z</time></trkpt><trkpt lat="38.7260675" lon="16.4250631"><ele>473.5</ele><time>2026-04-11T14:28:55.676Z</time></trkpt><trkpt lat="38.7261157" lon="16.4249288"><ele>470.75</ele><time>2026-04-11T14:28:56.676Z</time></trkpt><trkpt lat="38.7261577" lon="16.4247581"><ele>468.0</ele><time>2026-04-11T14:28:57.676Z</time></trkpt><trkpt lat="38.7262009" lon="16.4245784"><ele>468.0</ele><time>2026-04-11T14:28:58.677Z</time></trkpt><trkpt lat="38.7262537" lon="16.4244006"><ele>468.0</ele><time>2026-04-11T14:28:59.677Z</time></trkpt><trkpt lat="38.7263147" lon="16.4242242"><ele>468.0</ele><time>2026-04-11T14:29:00.676Z</time></trkpt><trkpt lat="38.7263813" lon="16.4240426"><ele>468.0</ele><time>2026-04-11T14:29:01.676Z</time></trkpt><trkpt lat="38.72644" lon="16.4238733"><ele>468.0</ele><time>2026-04-11T14:29:02.677Z</time></trkpt><trkpt lat="38.7265087" lon="16.4236978"><ele>468.0</ele><time>2026-04-11T14:29:03.676Z</time></trkpt><trkpt lat="38.7265829" lon="16.4235221"><ele>470.25</ele><time>2026-04-11T14:29:04.677Z</time></trkpt><trkpt lat="38.7266486" lon="16.4233575"><ele>472.5</ele><time>2026-04-11T14:29:05.676Z</time></trkpt><trkpt lat="38.7267045" lon="16.4232014"><ele>474.75</ele><time>2026-04-11T14:29:06.677Z</time></trkpt><trkpt lat="38.726754" lon="16.4230525"><ele>477.0</ele><time>2026-04-11T14:29:07.676Z</time></trkpt><trkpt lat="38.7268045" lon="16.4229252"><ele>477.1666666666667</ele><time>2026-04-11T14:29:08.677Z</time></trkpt><trkpt lat="38.7268648" lon="16.4228415"><ele>477.33333333333337</ele><time>2026-04-11T14:29:09.676Z</time></trkpt><trkpt lat="38.7269355" lon="16.4227902"><ele>477.5</ele><time>2026-04-11T14:29:10.676Z</time></trkpt><trkpt lat="38.7270087" lon="16.4227756"><ele>477.6666666666667</ele><time>2026-04-11T14:29:11.676Z</time></trkpt><trkpt lat="38.7270791" lon="16.4228145"><ele>477.83333333333337</ele><time>2026-04-11T14:29:12.676Z</time></trkpt><trkpt lat="38.7271403" lon="16.4229151"><ele>478.0</ele><time>2026-04-11T14:29:13.676Z</time></trkpt><trkpt lat="38.7271813" lon="16.4230616"><ele>476.25</ele><time>2026-04-11T14:29:14.676Z</time></trkpt><trkpt lat="38.727206" lon="16.4232399"><ele>474.5</ele><time>2026-04-11T14:29:15.676Z</time></trkpt><trkpt lat="38.7272278" lon="16.4234177"><ele>472.75</ele><time>2026-04-11T14:29:16.676Z</time></trkpt><trkpt lat="38.7272632" lon="16.423565"><ele>471.0</ele><time>2026-04-11T14:29:17.677Z</time></trkpt><trkpt lat="38.7273245" lon="16.4236764"><ele>471.0</ele><time>2026-04-11T14:29:18.676Z</time></trkpt><trkpt lat="38.7273981" lon="16.4237578"><ele>471.0</ele><time>2026-04-11T14:29:19.676Z</time></trkpt><trkpt lat="38.727491" lon="16.4238239"><ele>471.0</ele><time>2026-04-11T14:29:20.676Z</time></trkpt><trkpt lat="38.7275925" lon="16.4238701"><ele>471.0</ele><time>2026-04-11T14:29:21.677Z</time></trkpt><trkpt lat="38.7277064" lon="16.4239121"><ele>471.0</ele><time>2026-04-11T14:29:22.676Z</time></trkpt><trkpt lat="38.7278365" lon="16.4239533"><ele>469.75</ele><time>2026-04-11T14:29:23.677Z</time></trkpt><trkpt lat="38.7279718" lon="16.4240094"><ele>468.5</ele><time>2026-04-11T14:29:24.677Z</time></trkpt><trkpt lat="38.7281107" lon="16.4240768"><ele>467.25</ele><time>2026-04-11T14:29:25.676Z</time></trkpt><trkpt lat="38.7282489" lon="16.4241597"><ele>466.0</ele><time>2026-04-11T14:29:26.676Z</time></trkpt><trkpt lat="38.7283735" lon="16.4242568"><ele>466.0</ele><time>2026-04-11T14:29:27.677Z</time></trkpt><trkpt lat="38.7284877" lon="16.4243747"><ele>466.0</ele><time>2026-04-11T14:29:28.676Z</time></trkpt><trkpt lat="38.7286006" lon="16.4245049"><ele>466.0</ele><time>2026-04-11T14:29:29.676Z</time></trkpt><trkpt lat="38.7287109" lon="16.4246325"><ele>466.0</ele><time>2026-04-11T14:29:30.676Z</time></trkpt><trkpt lat="38.728827" lon="16.4247591"><ele>465.6666666666667</ele><time>2026-04-11T14:29:31.676Z</time></trkpt><trkpt lat="38.7289424" lon="16.4248861"><ele>465.33333333333337</ele><time>2026-04-11T14:29:32.677Z</time></trkpt><trkpt lat="38.7290585" lon="16.4250054"><ele>465.0</ele><time>2026-04-11T14:29:33.676Z</time></trkpt><trkpt lat="38.7291747" lon="16.4251298"><ele>465.0</ele><time>2026-04-11T14:29:34.676Z</time></trkpt><trkpt lat="38.7292853" lon="16.425262"><ele>465.0</ele><time>2026-04-11T14:29:35.676Z</time></trkpt><trkpt lat="38.7293984" lon="16.4253905"><ele>465.0</ele><time>2026-04-11T14:29:36.676Z</time></trkpt><trkpt lat="38.7295038" lon="16.4255284"><ele>464.5</ele><time>2026-04-11T14:29:37.676Z</time></trkpt><trkpt lat="38.7295967" lon="16.4256775"><ele>464.0</ele><time>2026-04-11T14:29:38.676Z</time></trkpt><trkpt lat="38.729677" lon="16.4258217"><ele>463.5</ele><time>2026-04-11T14:29:39.676Z</time></trkpt><trkpt lat="38.7297495" lon="16.4259524"><ele>463.0</ele><time>2026-04-11T14:29:40.676Z</time></trkpt><trkpt lat="38.7298104" lon="16.4260723"><ele>463.00000000000006</ele><time>2026-04-11T14:29:41.676Z</time></trkpt><trkpt lat="38.729846" lon="16.4261805"><ele>463.0</ele><time>2026-04-11T14:29:42.677Z</time></trkpt><trkpt lat="38.7298409" lon="16.4262808"><ele>463.0</ele><time>2026-04-11T14:29:43.676Z</time></trkpt><trkpt lat="38.7298089" lon="16.4263788"><ele>463.0</ele><time>2026-04-11T14:29:44.676Z</time></trkpt><trkpt lat="38.729749" lon="16.4264736"><ele>463.00000000000006</ele><time>2026-04-11T14:29:45.677Z</time></trkpt><trkpt lat="38.7296722" lon="16.4265522"><ele>463.0</ele><time>2026-04-11T14:29:46.676Z</time></trkpt><trkpt lat="38.729588" lon="16.4266222"><ele>463.4</ele><time>2026-04-11T14:29:47.676Z</time></trkpt><trkpt lat="38.7294988" lon="16.4266944"><ele>463.79999999999995</ele><time>2026-04-11T14:29:48.677Z</time></trkpt><trkpt lat="38.7294109" lon="16.4267735"><ele>464.2</ele><time>2026-04-11T14:29:49.676Z</time></trkpt><trkpt lat="38.7293253" lon="16.4268691"><ele>464.6</ele><time>2026-04-11T14:29:50.677Z</time></trkpt><trkpt lat="38.7292453" lon="16.4269809"><ele>465.0</ele><time>2026-04-11T14:29:51.676Z</time></trkpt><trkpt lat="38.729187" lon="16.4271043"><ele>463.0</ele><time>2026-04-11T14:29:52.676Z</time></trkpt><trkpt lat="38.7291499" lon="16.427244"><ele>461.0</ele><time>2026-04-11T14:29:53.676Z</time></trkpt><trkpt lat="38.7291306" lon="16.4273873"><ele>459.0</ele><time>2026-04-11T14:29:54.676Z</time></trkpt><trkpt lat="38.7291372" lon="16.4275285"><ele>457.0</ele><time>2026-04-11T14:29:55.677Z</time></trkpt><trkpt lat="38.7291901" lon="16.4276654"><ele>457.0</ele><time>2026-04-11T14:29:56.677Z</time></trkpt><trkpt lat="38.7292589" lon="16.4278003"><ele>457.0</ele><time>2026-04-11T14:29:57.676Z</time></trkpt><trkpt lat="38.7293264" lon="16.4279484"><ele>457.0</ele><time>2026-04-11T14:29:58.676Z</time></trkpt><trkpt lat="38.729379" lon="16.4281118"><ele>457.0</ele><time>2026-04-11T14:29:59.677Z</time></trkpt><trkpt lat="38.7294189" lon="16.4282717"><ele>459.5</ele><time>2026-04-11T14:30:00.676Z</time></trkpt><trkpt lat="38.7294461" lon="16.4284413"><ele>462.0</ele><time>2026-04-11T14:30:01.677Z</time></trkpt><trkpt lat="38.7294459" lon="16.4286155"><ele>464.5</ele><time>2026-04-11T14:30:02.676Z</time></trkpt><trkpt lat="38.7294474" lon="16.4287989"><ele>467.0</ele><time>2026-04-11T14:30:03.676Z</time></trkpt><trkpt lat="38.729456" lon="16.4289826"><ele>467.75</ele><time>2026-04-11T14:30:04.677Z</time></trkpt><trkpt lat="38.7294637" lon="16.429169"><ele>468.5</ele><time>2026-04-11T14:30:05.677Z</time></trkpt><trkpt lat="38.7294595" lon="16.4293584"><ele>469.25</ele><time>2026-04-11T14:30:06.676Z</time></trkpt><trkpt lat="38.7294539" lon="16.4295382"><ele>470.0</ele><time>2026-04-11T14:30:07.676Z</time></trkpt><trkpt lat="38.7294541" lon="16.4297107"><ele>470.75</ele><time>2026-04-11T14:30:08.677Z</time></trkpt><trkpt lat="38.7294545" lon="16.4298672"><ele>471.5</ele><time>2026-04-11T14:30:09.676Z</time></trkpt><trkpt lat="38.7294458" lon="16.4300165"><ele>472.25</ele><time>2026-04-11T14:30:10.677Z</time></trkpt><trkpt lat="38.7294287" lon="16.4301687"><ele>473.0</ele><time>2026-04-11T14:30:11.677Z</time></trkpt><trkpt lat="38.7293979" lon="16.4303192"><ele>471.75</ele><time>2026-04-11T14:30:12.676Z</time></trkpt><trkpt lat="38.7293557" lon="16.4304642"><ele>470.5</ele><time>2026-04-11T14:30:13.677Z</time></trkpt><trkpt lat="38.7292974" lon="16.430596"><ele>469.25</ele><time>2026-04-11T14:30:14.676Z</time></trkpt><trkpt lat="38.7292318" lon="16.4307182"><ele>468.0</ele><time>2026-04-11T14:30:15.676Z</time></trkpt><trkpt lat="38.7291598" lon="16.4308351"><ele>468.0</ele><time>2026-04-11T14:30:16.676Z</time></trkpt><trkpt lat="38.7290972" lon="16.4309552"><ele>468.0</ele><time>2026-04-11T14:30:17.676Z</time></trkpt><trkpt lat="38.7290359" lon="16.4310885"><ele>468.0</ele><time>2026-04-11T14:30:18.676Z</time></trkpt><trkpt lat="38.7289697" lon="16.4312169"><ele>468.0</ele><time>2026-04-11T14:30:19.676Z</time></trkpt><trkpt lat="38.7288968" lon="16.4313503"><ele>470.25</ele><time>2026-04-11T14:30:20.677Z</time></trkpt><trkpt lat="38.7288243" lon="16.4314869"><ele>472.5</ele><time>2026-04-11T14:30:21.676Z</time></trkpt><trkpt lat="38.7287564" lon="16.4316341"><ele>474.75</ele><time>2026-04-11T14:30:22.677Z</time></trkpt><trkpt lat="38.7286806" lon="16.4317783"><ele>477.0</ele><time>2026-04-11T14:30:23.676Z</time></trkpt><trkpt lat="38.7286112" lon="16.4319265"><ele>475.25</ele><time>2026-04-11T14:30:24.676Z</time></trkpt><trkpt lat="38.7285443" lon="16.4320851"><ele>473.5</ele><time>2026-04-11T14:30:25.676Z</time></trkpt><trkpt lat="38.7284681" lon="16.4322448"><ele>471.75</ele><time>2026-04-11T14:30:26.676Z</time></trkpt><trkpt lat="38.7284019" lon="16.4324112"><ele>470.0</ele><time>2026-04-11T14:30:27.677Z</time></trkpt><trkpt lat="38.7283415" lon="16.4325814"><ele>470.0</ele><time>2026-04-11T14:30:28.677Z</time></trkpt><trkpt lat="38.7282905" lon="16.4327564"><ele>470.0</ele><time>2026-04-11T14:30:29.677Z</time></trkpt><trkpt lat="38.7282365" lon="16.4329343"><ele>470.0</ele><time>2026-04-11T14:30:30.677Z</time></trkpt><trkpt lat="38.7281771" lon="16.4331012"><ele>470.0</ele><time>2026-04-11T14:30:31.676Z</time></trkpt><trkpt lat="38.7281319" lon="16.4332796"><ele>471.75</ele><time>2026-04-11T14:30:32.677Z</time></trkpt><trkpt lat="38.7280973" lon="16.4334498"><ele>473.5</ele><time>2026-04-11T14:30:33.676Z</time></trkpt><trkpt lat="38.7280741" lon="16.433635"><ele>475.25</ele><time>2026-04-11T14:30:34.676Z</time></trkpt><trkpt lat="38.7280491" lon="16.4338234"><ele>477.0</ele><time>2026-04-11T14:30:35.677Z</time></trkpt><trkpt lat="38.7280233" lon="16.4340088"><ele>478.75</ele><time>2026-04-11T14:30:36.676Z</time></trkpt><trkpt lat="38.7279756" lon="16.4341802"><ele>480.5</ele><time>2026-04-11T14:30:37.676Z</time></trkpt><trkpt lat="38.7279198" lon="16.4343541"><ele>482.25</ele><time>2026-04-11T14:30:38.676Z</time></trkpt><trkpt lat="38.7278673" lon="16.434516"><ele>484.0</ele><time>2026-04-11T14:30:39.677Z</time></trkpt><trkpt lat="38.7278238" lon="16.4346863"><ele>486.33333333333337</ele><time>2026-04-11T14:30:40.677Z</time></trkpt><trkpt lat="38.7278175" lon="16.4348697"><ele>488.66666666666663</ele><time>2026-04-11T14:30:41.676Z</time></trkpt><trkpt lat="38.7278362" lon="16.4350633"><ele>491.0</ele><time>2026-04-11T14:30:42.676Z</time></trkpt><trkpt lat="38.727872" lon="16.4352562"><ele>491.0</ele><time>2026-04-11T14:30:43.676Z</time></trkpt><trkpt lat="38.727908" lon="16.4354527"><ele>491.0</ele><time>2026-04-11T14:30:44.677Z</time></trkpt><trkpt lat="38.7279491" lon="16.4356518"><ele>491.0</ele><time>2026-04-11T14:30:45.676Z</time></trkpt><trkpt lat="38.7279981" lon="16.4358459"><ele>491.0</ele><time>2026-04-11T14:30:46.677Z</time></trkpt><trkpt lat="38.7280523" lon="16.43603"><ele>491.0</ele><time>2026-04-11T14:30:47.677Z</time></trkpt><trkpt lat="38.7281143" lon="16.4362092"><ele>491.0</ele><time>2026-04-11T14:30:48.676Z</time></trkpt><trkpt lat="38.7281693" lon="16.4363716"><ele>491.0</ele><time>2026-04-11T14:30:49.676Z</time></trkpt><trkpt lat="38.7281836" lon="16.436567"><ele>491.0</ele><time>2026-04-11T14:30:50.676Z</time></trkpt><trkpt lat="38.7281706" lon="16.4367688"><ele>491.0</ele><time>2026-04-11T14:30:51.676Z</time></trkpt><trkpt lat="38.7281379" lon="16.4369733"><ele>491.0</ele><time>2026-04-11T14:30:52.676Z</time></trkpt><trkpt lat="38.7281057" lon="16.4371689"><ele>491.0</ele><time>2026-04-11T14:30:53.676Z</time></trkpt><trkpt lat="38.7280881" lon="16.4373676"><ele>491.0</ele><time>2026-04-11T14:30:54.677Z</time></trkpt><trkpt lat="38.72808" lon="16.4375652"><ele>491.0</ele><time>2026-04-11T14:30:55.677Z</time></trkpt><trkpt lat="38.7281005" lon="16.4377655"><ele>491.0</ele><time>2026-04-11T14:30:56.676Z</time></trkpt><trkpt lat="38.7281428" lon="16.4379641"><ele>491.0</ele><time>2026-04-11T14:30:57.676Z</time></trkpt><trkpt lat="38.7281963" lon="16.4381668"><ele>491.0</ele><time>2026-04-11T14:30:58.676Z</time></trkpt><trkpt lat="38.7282483" lon="16.4383705"><ele>490.3333333333333</ele><time>2026-04-11T14:30:59.676Z</time></trkpt><trkpt lat="38.7282618" lon="16.4385947"><ele>489.66666666666663</ele><time>2026-04-11T14:31:00.676Z</time></trkpt><trkpt lat="38.7282453" lon="16.4388115"><ele>489.0</ele><time>2026-04-11T14:31:01.677Z</time></trkpt><trkpt lat="38.728188" lon="16.439022"><ele>488.66666666666663</ele><time>2026-04-11T14:31:02.677Z</time></trkpt><trkpt lat="38.7281193" lon="16.4392197"><ele>488.3333333333333</ele><time>2026-04-11T14:31:03.676Z</time></trkpt><trkpt lat="38.7280627" lon="16.4394173"><ele>488.0</ele><time>2026-04-11T14:31:04.676Z</time></trkpt><trkpt lat="38.7280391" lon="16.4396103"><ele>487.25</ele><time>2026-04-11T14:31:05.676Z</time></trkpt><trkpt lat="38.7280494" lon="16.4397987"><ele>486.5</ele><time>2026-04-11T14:31:06.676Z</time></trkpt><trkpt lat="38.7280906" lon="16.439962"><ele>485.75</ele><time>2026-04-11T14:31:07.676Z</time></trkpt><trkpt lat="38.7281787" lon="16.4400938"><ele>485.0</ele><time>2026-04-11T14:31:08.677Z</time></trkpt><trkpt lat="38.7282918" lon="16.4402019"><ele>485.0</ele><time>2026-04-11T14:31:09.677Z</time></trkpt><trkpt lat="38.7284218" lon="16.4402859"><ele>485.0</ele><time>2026-04-11T14:31:10.676Z</time></trkpt><trkpt lat="38.7285624" lon="16.4403345"><ele>485.0</ele><time>2026-04-11T14:31:11.677Z</time></trkpt><trkpt lat="38.7287061" lon="16.4403558"><ele>485.0</ele><time>2026-04-11T14:31:12.676Z</time></trkpt><trkpt lat="38.7288607" lon="16.4403677"><ele>485.25</ele><time>2026-04-11T14:31:13.676Z</time></trkpt><trkpt lat="38.7290116" lon="16.4403953"><ele>485.5</ele><time>2026-04-11T14:31:14.676Z</time></trkpt><trkpt lat="38.7291527" lon="16.4404429"><ele>485.75</ele><time>2026-04-11T14:31:15.676Z</time></trkpt><trkpt lat="38.7292895" lon="16.4405145"><ele>486.0</ele><time>2026-04-11T14:31:16.676Z</time></trkpt><trkpt lat="38.7294205" lon="16.4405923"><ele>486.0</ele><time>2026-04-11T14:31:17.676Z</time></trkpt><trkpt lat="38.7295604" lon="16.4406635"><ele>486.0</ele><time>2026-04-11T14:31:18.676Z</time></trkpt><trkpt lat="38.7297022" lon="16.440697"><ele>486.0</ele><time>2026-04-11T14:31:19.676Z</time></trkpt><trkpt lat="38.729841" lon="16.4406877"><ele>486.0</ele><time>2026-04-11T14:31:20.676Z</time></trkpt><trkpt lat="38.729987" lon="16.4406251"><ele>486.0</ele><time>2026-04-11T14:31:21.676Z</time></trkpt><trkpt lat="38.7301261" lon="16.4405235"><ele>486.0</ele><time>2026-04-11T14:31:22.676Z</time></trkpt><trkpt lat="38.7302489" lon="16.4403981"><ele>486.0</ele><time>2026-04-11T14:31:23.676Z</time></trkpt><trkpt lat="38.7303569" lon="16.4402556"><ele>487.25</ele><time>2026-04-11T14:31:24.676Z</time></trkpt><trkpt lat="38.7304505" lon="16.4400987"><ele>488.5</ele><time>2026-04-11T14:31:25.677Z</time></trkpt><trkpt lat="38.7305453" lon="16.4399466"><ele>489.75</ele><time>2026-04-11T14:31:26.676Z</time></trkpt><trkpt lat="38.7306465" lon="16.4398177"><ele>491.0</ele><time>2026-04-11T14:31:27.676Z</time></trkpt><trkpt lat="38.7307674" lon="16.4397177"><ele>491.0</ele><time>2026-04-11T14:31:28.677Z</time></trkpt><trkpt lat="38.7308966" lon="16.4396393"><ele>491.0</ele><time>2026-04-11T14:31:29.676Z</time></trkpt><trkpt lat="38.7310356" lon="16.4395661"><ele>491.0</ele><time>2026-04-11T14:31:30.676Z</time></trkpt><trkpt lat="38.7311664" lon="16.4394836"><ele>491.0</ele><time>2026-04-11T14:31:31.676Z</time></trkpt><trkpt lat="38.7312796" lon="16.4393678"><ele>493.0</ele><time>2026-04-11T14:31:32.676Z</time></trkpt><trkpt lat="38.731379" lon="16.439238"><ele>495.0</ele><time>2026-04-11T14:31:33.677Z</time></trkpt><trkpt lat="38.7314654" lon="16.4390962"><ele>497.0</ele><time>2026-04-11T14:31:34.677Z</time></trkpt><trkpt lat="38.7315413" lon="16.4389442"><ele>499.0</ele><time>2026-04-11T14:31:35.677Z</time></trkpt><trkpt lat="38.7316108" lon="16.4387898"><ele>500.25</ele><time>2026-04-11T14:31:36.677Z</time></trkpt><trkpt lat="38.7316872" lon="16.4386477"><ele>501.5</ele><time>2026-04-11T14:31:37.676Z</time></trkpt><trkpt lat="38.7317624" lon="16.4385297"><ele>502.75</ele><time>2026-04-11T14:31:38.677Z</time></trkpt><trkpt lat="38.731846" lon="16.4384522"><ele>504.0</ele><time>2026-04-11T14:31:39.676Z</time></trkpt><trkpt lat="38.7319411" lon="16.4384342"><ele>504.0</ele><time>2026-04-11T14:31:40.677Z</time></trkpt><trkpt lat="38.7320233" lon="16.4384725"><ele>504.0</ele><time>2026-04-11T14:31:41.677Z</time></trkpt><trkpt lat="38.7320841" lon="16.4385427"><ele>504.0</ele><time>2026-04-11T14:31:42.677Z</time></trkpt><trkpt lat="38.7321376" lon="16.4386392"><ele>504.0</ele><time>2026-04-11T14:31:43.677Z</time></trkpt><trkpt lat="38.732158" lon="16.4387613"><ele>504.0</ele><time>2026-04-11T14:31:44.676Z</time></trkpt><trkpt lat="38.7321483" lon="16.4388985"><ele>506.75</ele><time>2026-04-11T14:31:45.677Z</time></trkpt><trkpt lat="38.7321111" lon="16.4390379"><ele>509.5</ele><time>2026-04-11T14:31:46.677Z</time></trkpt><trkpt lat="38.7320548" lon="16.43917"><ele>512.25</ele><time>2026-04-11T14:31:47.677Z</time></trkpt><trkpt lat="38.7319975" lon="16.439307"><ele>515.0</ele><time>2026-04-11T14:31:48.677Z</time></trkpt><trkpt lat="38.731947" lon="16.4394511"><ele>511.5</ele><time>2026-04-11T14:31:49.676Z</time></trkpt><trkpt lat="38.7318876" lon="16.4395994"><ele>508.0</ele><time>2026-04-11T14:31:50.676Z</time></trkpt><trkpt lat="38.7318222" lon="16.4397479"><ele>504.5</ele><time>2026-04-11T14:31:51.676Z</time></trkpt><trkpt lat="38.7317556" lon="16.4398964"><ele>501.0</ele><time>2026-04-11T14:31:52.677Z</time></trkpt><trkpt lat="38.7316919" lon="16.4400432"><ele>501.0</ele><time>2026-04-11T14:31:53.676Z</time></trkpt><trkpt lat="38.7316496" lon="16.4402028"><ele>501.0</ele><time>2026-04-11T14:31:54.676Z</time></trkpt><trkpt lat="38.7316332" lon="16.4403842"><ele>501.0</ele><time>2026-04-11T14:31:55.676Z</time></trkpt><trkpt lat="38.7316396" lon="16.4405587"><ele>501.0</ele><time>2026-04-11T14:31:56.677Z</time></trkpt><trkpt lat="38.7316716" lon="16.4407191"><ele>501.5</ele><time>2026-04-11T14:31:57.676Z</time></trkpt><trkpt lat="38.7317461" lon="16.4408662"><ele>502.0</ele><time>2026-04-11T14:31:58.676Z</time></trkpt><trkpt lat="38.7318452" lon="16.440981"><ele>502.5</ele><time>2026-04-11T14:31:59.676Z</time></trkpt><trkpt lat="38.7319606" lon="16.4410631"><ele>503.0</ele><time>2026-04-11T14:32:00.677Z</time></trkpt><trkpt lat="38.7320726" lon="16.4411368"><ele>506.99999999999994</ele><time>2026-04-11T14:32:01.676Z</time></trkpt><trkpt lat="38.7321599" lon="16.4412163"><ele>511.0</ele><time>2026-04-11T14:32:02.677Z</time></trkpt><trkpt lat="38.7322073" lon="16.4413149"><ele>515.0</ele><time>2026-04-11T14:32:03.677Z</time></trkpt><trkpt lat="38.7322144" lon="16.4414273"><ele>519.0</ele><time>2026-04-11T14:32:04.676Z</time></trkpt><trkpt lat="38.7321942" lon="16.4415295"><ele>523.0</ele><time>2026-04-11T14:32:05.676Z</time></trkpt><trkpt lat="38.7321482" lon="16.441609"><ele>527.0</ele><time>2026-04-11T14:32:06.676Z</time></trkpt><trkpt lat="38.7320594" lon="16.441652"><ele>527.5</ele><time>2026-04-11T14:32:07.676Z</time></trkpt><trkpt lat="38.7319422" lon="16.4416918"><ele>528.0</ele><time>2026-04-11T14:32:08.676Z</time></trkpt><trkpt lat="38.7318359" lon="16.4417486"><ele>528.5</ele><time>2026-04-11T14:32:09.677Z</time></trkpt><trkpt lat="38.7317373" lon="16.4418228"><ele>529.0</ele><time>2026-04-11T14:32:10.676Z</time></trkpt><trkpt lat="38.7316433" lon="16.4419018"><ele>527.2</ele><time>2026-04-11T14:32:11.676Z</time></trkpt><trkpt lat="38.7315416" lon="16.4419724"><ele>525.4</ele><time>2026-04-11T14:32:12.676Z</time></trkpt><trkpt lat="38.7314407" lon="16.4420282"><ele>523.6</ele><time>2026-04-11T14:32:13.676Z</time></trkpt><trkpt lat="38.7313465" lon="16.4421008"><ele>521.8</ele><time>2026-04-11T14:32:14.677Z</time></trkpt><trkpt lat="38.7312877" lon="16.4422007"><ele>520.0</ele><time>2026-04-11T14:32:15.676Z</time></trkpt><trkpt lat="38.731269" lon="16.4423377"><ele>520.0</ele><time>2026-04-11T14:32:16.676Z</time></trkpt><trkpt lat="38.7312929" lon="16.4424695"><ele>520.0</ele><time>2026-04-11T14:32:17.677Z</time></trkpt><trkpt lat="38.7313593" lon="16.4425815"><ele>520.0</ele><time>2026-04-11T14:32:18.677Z</time></trkpt><trkpt lat="38.7314421" lon="16.4426793"><ele>520.0</ele><time>2026-04-11T14:32:19.676Z</time></trkpt><trkpt lat="38.7315426" lon="16.4427705"><ele>520.0</ele><time>2026-04-11T14:32:20.677Z</time></trkpt><trkpt lat="38.7316588" lon="16.4428612"><ele>520.0</ele><time>2026-04-11T14:32:21.677Z</time></trkpt><trkpt lat="38.7317644" lon="16.442967"><ele>520.0</ele><time>2026-04-11T14:32:22.676Z</time></trkpt><trkpt lat="38.7318635" lon="16.4430825"><ele>520.0</ele><time>2026-04-11T14:32:23.676Z</time></trkpt><trkpt lat="38.7319623" lon="16.4431953"><ele>523.8</ele><time>2026-04-11T14:32:24.677Z</time></trkpt><trkpt lat="38.7320424" lon="16.4432999"><ele>527.6</ele><time>2026-04-11T14:32:25.676Z</time></trkpt><trkpt lat="38.732112" lon="16.4434053"><ele>531.4</ele><time>2026-04-11T14:32:26.676Z</time></trkpt><trkpt lat="38.7321432" lon="16.4435239"><ele>535.2</ele><time>2026-04-11T14:32:27.677Z</time></trkpt><trkpt lat="38.7321414" lon="16.4436607"><ele>539.0</ele><time>2026-04-11T14:32:28.676Z</time></trkpt><trkpt lat="38.732118" lon="16.4438012"><ele>540.75</ele><time>2026-04-11T14:32:29.677Z</time></trkpt><trkpt lat="38.7320767" lon="16.443937"><ele>542.5</ele><time>2026-04-11T14:32:30.676Z</time></trkpt><trkpt lat="38.7320242" lon="16.4440806"><ele>544.25</ele><time>2026-04-11T14:32:31.677Z</time></trkpt><trkpt lat="38.7319824" lon="16.4442174"><ele>546.0</ele><time>2026-04-11T14:32:32.676Z</time></trkpt><trkpt lat="38.7319462" lon="16.4443606"><ele>546.0</ele><time>2026-04-11T14:32:33.676Z</time></trkpt><trkpt lat="38.7319224" lon="16.444498"><ele>546.0</ele><time>2026-04-11T14:32:34.676Z</time></trkpt><trkpt lat="38.7319205" lon="16.4446363"><ele>546.0</ele><time>2026-04-11T14:32:35.677Z</time></trkpt><trkpt lat="38.7319181" lon="16.4447674"><ele>546.0</ele><time>2026-04-11T14:32:36.677Z</time></trkpt><trkpt lat="38.7319276" lon="16.4449022"><ele>546.0</ele><time>2026-04-11T14:32:37.676Z</time></trkpt><trkpt lat="38.7319392" lon="16.4450339"><ele>546.0</ele><time>2026-04-11T14:32:38.676Z</time></trkpt><trkpt lat="38.7319522" lon="16.4451681"><ele>546.0</ele><time>2026-04-11T14:32:39.677Z</time></trkpt><trkpt lat="38.7319668" lon="16.4452876"><ele>546.0</ele><time>2026-04-11T14:32:40.676Z</time></trkpt><trkpt lat="38.7319942" lon="16.4454054"><ele>546.0</ele><time>2026-04-11T14:32:41.677Z</time></trkpt><trkpt lat="38.7320323" lon="16.4455244"><ele>546.0</ele><time>2026-04-11T14:32:42.676Z</time></trkpt><trkpt lat="38.7320822" lon="16.44564"><ele>545.4</ele><time>2026-04-11T14:32:43.677Z</time></trkpt><trkpt lat="38.732132" lon="16.445755"><ele>544.8</ele><time>2026-04-11T14:32:44.677Z</time></trkpt><trkpt lat="38.7321853" lon="16.4458626"><ele>544.1999999999999</ele><time>2026-04-11T14:32:45.676Z</time></trkpt><trkpt lat="38.7322386" lon="16.4459687"><ele>543.6</ele><time>2026-04-11T14:32:46.676Z</time></trkpt><trkpt lat="38.7322927" lon="16.4460706"><ele>543.0</ele><time>2026-04-11T14:32:47.676Z</time></trkpt><trkpt lat="38.7323511" lon="16.446164"><ele>543.0</ele><time>2026-04-11T14:32:48.677Z</time></trkpt><trkpt lat="38.732422" lon="16.4462324"><ele>543.0</ele><time>2026-04-11T14:32:49.677Z</time></trkpt><trkpt lat="38.7325007" lon="16.4462639"><ele>543.0</ele><time>2026-04-11T14:32:50.676Z</time></trkpt><trkpt lat="38.732578" lon="16.4462517"><ele>543.0</ele><time>2026-04-11T14:32:51.676Z</time></trkpt><trkpt lat="38.7326533" lon="16.4462029"><ele>543.0</ele><time>2026-04-11T14:32:52.677Z</time></trkpt><trkpt lat="38.7327045" lon="16.4461191"><ele>543.0</ele><time>2026-04-11T14:32:53.676Z</time></trkpt><trkpt lat="38.7327319" lon="16.4460016"><ele>543.0</ele><time>2026-04-11T14:32:54.676Z</time></trkpt><trkpt lat="38.7327313" lon="16.4458649"><ele>543.0</ele><time>2026-04-11T14:32:55.677Z</time></trkpt><trkpt lat="38.7327159" lon="16.4457258"><ele>543.0</ele><time>2026-04-11T14:32:56.677Z</time></trkpt><trkpt lat="38.7327034" lon="16.4455941"><ele>543.0</ele><time>2026-04-11T14:32:57.677Z</time></trkpt><trkpt lat="38.7326978" lon="16.4454755"><ele>543.0</ele><time>2026-04-11T14:32:58.677Z</time></trkpt><trkpt lat="38.7327143" lon="16.4453845"><ele>545.1999999999999</ele><time>2026-04-11T14:32:59.676Z</time></trkpt><trkpt lat="38.7328016" lon="16.4453207"><ele>547.4</ele><time>2026-04-11T14:33:01.676Z</time></trkpt><trkpt lat="38.7328946" lon="16.4454285"><ele>549.5999999999999</ele><time>2026-04-11T14:33:03.677Z</time></trkpt><trkpt lat="38.7329284" lon="16.4455353"><ele>551.8</ele><time>2026-04-11T14:33:04.676Z</time></trkpt><trkpt lat="38.7329601" lon="16.4456616"><ele>554.0</ele><time>2026-04-11T14:33:05.676Z</time></trkpt><trkpt lat="38.7329962" lon="16.4457822"><ele>554.0</ele><time>2026-04-11T14:33:06.676Z</time></trkpt><trkpt lat="38.733033" lon="16.4458846"><ele>554.0</ele><time>2026-04-11T14:33:07.677Z</time></trkpt><trkpt lat="38.7330788" lon="16.4459524"><ele>554.0</ele><time>2026-04-11T14:33:08.677Z</time></trkpt><trkpt lat="38.7331334" lon="16.4459979"><ele>554.0</ele><time>2026-04-11T14:33:09.677Z</time></trkpt><trkpt lat="38.7332586" lon="16.445959"><ele>554.0</ele><time>2026-04-11T14:33:11.676Z</time></trkpt><trkpt lat="38.7332978" lon="16.4458708"><ele>554.0</ele><time>2026-04-11T14:33:12.676Z</time></trkpt><trkpt lat="38.7333017" lon="16.4457324"><ele>554.0</ele><time>2026-04-11T14:33:13.676Z</time></trkpt><trkpt lat="38.7332769" lon="16.4455572"><ele>554.0</ele><time>2026-04-11T14:33:14.677Z</time></trkpt><trkpt lat="38.7332377" lon="16.4453611"><ele>554.0</ele><time>2026-04-11T14:33:15.677Z</time></trkpt><trkpt lat="38.7332085" lon="16.4451693"><ele>554.0</ele><time>2026-04-11T14:33:16.676Z</time></trkpt><trkpt lat="38.733201" lon="16.4450012"><ele>555.5</ele><time>2026-04-11T14:33:17.677Z</time></trkpt><trkpt lat="38.7332155" lon="16.4448441"><ele>557.0</ele><time>2026-04-11T14:33:18.676Z</time></trkpt><trkpt lat="38.7332373" lon="16.4446991"><ele>558.5</ele><time>2026-04-11T14:33:19.677Z</time></trkpt><trkpt lat="38.733281" lon="16.4445625"><ele>560.0</ele><time>2026-04-11T14:33:20.677Z</time></trkpt><trkpt lat="38.7333541" lon="16.4444627"><ele>560.0</ele><time>2026-04-11T14:33:21.676Z</time></trkpt><trkpt lat="38.7334567" lon="16.444388"><ele>560.0</ele><time>2026-04-11T14:33:22.676Z</time></trkpt><trkpt lat="38.7335803" lon="16.4443398"><ele>560.0</ele><time>2026-04-11T14:33:23.676Z</time></trkpt><trkpt lat="38.7337074" lon="16.4443314"><ele>560.0</ele><time>2026-04-11T14:33:24.676Z</time></trkpt><trkpt lat="38.7338362" lon="16.4443653"><ele>562.0</ele><time>2026-04-11T14:33:25.677Z</time></trkpt><trkpt lat="38.7339533" lon="16.4444402"><ele>564.0</ele><time>2026-04-11T14:33:26.676Z</time></trkpt><trkpt lat="38.7340677" lon="16.4445377"><ele>566.0</ele><time>2026-04-11T14:33:27.676Z</time></trkpt><trkpt lat="38.734184" lon="16.4446548"><ele>568.0</ele><time>2026-04-11T14:33:28.677Z</time></trkpt><trkpt lat="38.7343018" lon="16.4447902"><ele>570.3333333333334</ele><time>2026-04-11T14:33:29.676Z</time></trkpt><trkpt lat="38.7344304" lon="16.4449293"><ele>572.6666666666666</ele><time>2026-04-11T14:33:30.676Z</time></trkpt><trkpt lat="38.7345693" lon="16.4450756"><ele>575.0</ele><time>2026-04-11T14:33:31.676Z</time></trkpt><trkpt lat="38.7347095" lon="16.4452281"><ele>575.0</ele><time>2026-04-11T14:33:32.676Z</time></trkpt><trkpt lat="38.7348623" lon="16.4453821"><ele>575.0</ele><time>2026-04-11T14:33:33.677Z</time></trkpt><trkpt lat="38.7350188" lon="16.44555"><ele>575.0</ele><time>2026-04-11T14:33:34.677Z</time></trkpt><trkpt lat="38.7351669" lon="16.4457008"><ele>576.6666666666666</ele><time>2026-04-11T14:33:35.677Z</time></trkpt><trkpt lat="38.7353168" lon="16.4458488"><ele>578.3333333333334</ele><time>2026-04-11T14:33:36.677Z</time></trkpt><trkpt lat="38.7354559" lon="16.4459913"><ele>580.0</ele><time>2026-04-11T14:33:37.676Z</time></trkpt><trkpt lat="38.7355798" lon="16.4461297"><ele>580.0</ele><time>2026-04-11T14:33:38.677Z</time></trkpt><trkpt lat="38.7356987" lon="16.4462578"><ele>580.0</ele><time>2026-04-11T14:33:39.676Z</time></trkpt><trkpt lat="38.7358195" lon="16.4463815"><ele>580.0</ele><time>2026-04-11T14:33:40.677Z</time></trkpt><trkpt lat="38.73594" lon="16.4465094"><ele>582.0</ele><time>2026-04-11T14:33:41.676Z</time></trkpt><trkpt lat="38.7360619" lon="16.4466409"><ele>584.0</ele><time>2026-04-11T14:33:42.676Z</time></trkpt><trkpt lat="38.736184" lon="16.4467759"><ele>586.0</ele><time>2026-04-11T14:33:43.676Z</time></trkpt><trkpt lat="38.7363131" lon="16.446907"><ele>586.0</ele><time>2026-04-11T14:33:44.677Z</time></trkpt><trkpt lat="38.7364433" lon="16.4470404"><ele>586.0</ele><time>2026-04-11T14:33:45.677Z</time></trkpt><trkpt lat="38.7365723" lon="16.4471845"><ele>586.0</ele><time>2026-04-11T14:33:46.676Z</time></trkpt><trkpt lat="38.7366978" lon="16.4473286"><ele>585.3333333333334</ele><time>2026-04-11T14:33:47.677Z</time></trkpt><trkpt lat="38.7368228" lon="16.4474621"><ele>584.6666666666666</ele><time>2026-04-11T14:33:48.677Z</time></trkpt><trkpt lat="38.7369569" lon="16.4475996"><ele>584.0</ele><time>2026-04-11T14:33:49.676Z</time></trkpt><trkpt lat="38.7370914" lon="16.4477354"><ele>584.0</ele><time>2026-04-11T14:33:50.676Z</time></trkpt><trkpt lat="38.7372281" lon="16.4478766"><ele>584.0</ele><time>2026-04-11T14:33:51.676Z</time></trkpt><trkpt lat="38.737362" lon="16.448021"><ele>584.0</ele><time>2026-04-11T14:33:52.676Z</time></trkpt><trkpt lat="38.7374969" lon="16.4481589"><ele>583.6666666666666</ele><time>2026-04-11T14:33:53.676Z</time></trkpt><trkpt lat="38.7376348" lon="16.4482979"><ele>583.3333333333334</ele><time>2026-04-11T14:33:54.676Z</time></trkpt><trkpt lat="38.7377803" lon="16.4484103"><ele>583.0</ele><time>2026-04-11T14:33:55.677Z</time></trkpt><trkpt lat="38.7379356" lon="16.4484872"><ele>583.0</ele><time>2026-04-11T14:33:56.676Z</time></trkpt><trkpt lat="38.7380962" lon="16.4485376"><ele>583.0</ele><time>2026-04-11T14:33:57.677Z</time></trkpt><trkpt lat="38.7382615" lon="16.4485783"><ele>583.0</ele><time>2026-04-11T14:33:58.676Z</time></trkpt><trkpt lat="38.7384206" lon="16.4486351"><ele>584.0</ele><time>2026-04-11T14:33:59.676Z</time></trkpt><trkpt lat="38.7385629" lon="16.4487252"><ele>585.0</ele><time>2026-04-11T14:34:00.677Z</time></trkpt><trkpt lat="38.738684" lon="16.4488417"><ele>586.0</ele><time>2026-04-11T14:34:01.677Z</time></trkpt><trkpt lat="38.7387932" lon="16.4489859"><ele>586.0</ele><time>2026-04-11T14:34:02.676Z</time></trkpt><trkpt lat="38.7388878" lon="16.4491418"><ele>586.0</ele><time>2026-04-11T14:34:03.676Z</time></trkpt><trkpt lat="38.738972" lon="16.449312"><ele>586.0</ele><time>2026-04-11T14:34:04.676Z</time></trkpt><trkpt lat="38.7390567" lon="16.4494869"><ele>586.0</ele><time>2026-04-11T14:34:05.677Z</time></trkpt><trkpt lat="38.7391464" lon="16.4496479"><ele>586.0</ele><time>2026-04-11T14:34:06.677Z</time></trkpt><trkpt lat="38.7392336" lon="16.4498138"><ele>586.0</ele><time>2026-04-11T14:34:07.676Z</time></trkpt><trkpt lat="38.7393292" lon="16.4499828"><ele>588.0</ele><time>2026-04-11T14:34:08.676Z</time></trkpt><trkpt lat="38.7394358" lon="16.4501391"><ele>590.0</ele><time>2026-04-11T14:34:09.676Z</time></trkpt><trkpt lat="38.7395492" lon="16.4502849"><ele>592.0</ele><time>2026-04-11T14:34:10.676Z</time></trkpt><trkpt lat="38.7396746" lon="16.4504282"><ele>591.6666666666667</ele><time>2026-04-11T14:34:11.677Z</time></trkpt><trkpt lat="38.7398049" lon="16.4505647"><ele>591.3333333333334</ele><time>2026-04-11T14:34:12.676Z</time></trkpt><trkpt lat="38.7399255" lon="16.4506982"><ele>591.0</ele><time>2026-04-11T14:34:13.677Z</time></trkpt><trkpt lat="38.7400559" lon="16.4508397"><ele>591.0</ele><time>2026-04-11T14:34:14.676Z</time></trkpt><trkpt lat="38.7401851" lon="16.4509763"><ele>591.0</ele><time>2026-04-11T14:34:15.676Z</time></trkpt><trkpt lat="38.740307" lon="16.4511141"><ele>591.0</ele><time>2026-04-11T14:34:16.676Z</time></trkpt><trkpt lat="38.7404156" lon="16.4512639"><ele>593.0</ele><time>2026-04-11T14:34:17.676Z</time></trkpt><trkpt lat="38.7405027" lon="16.4514343"><ele>595.0</ele><time>2026-04-11T14:34:18.676Z</time></trkpt><trkpt lat="38.7405757" lon="16.4516092"><ele>597.0</ele><time>2026-04-11T14:34:19.676Z</time></trkpt><trkpt lat="38.7406472" lon="16.4517924"><ele>597.0</ele><time>2026-04-11T14:34:20.677Z</time></trkpt><trkpt lat="38.7407229" lon="16.4519865"><ele>597.0</ele><time>2026-04-11T14:34:21.676Z</time></trkpt><trkpt lat="38.7407912" lon="16.4521763"><ele>597.0</ele><time>2026-04-11T14:34:22.676Z</time></trkpt><trkpt lat="38.7408645" lon="16.4523729"><ele>597.0</ele><time>2026-04-11T14:34:23.677Z</time></trkpt><trkpt lat="38.740935" lon="16.4525681"><ele>597.0</ele><time>2026-04-11T14:34:24.676Z</time></trkpt><trkpt lat="38.7410054" lon="16.4527571"><ele>597.0</ele><time>2026-04-11T14:34:25.676Z</time></trkpt><trkpt lat="38.7410755" lon="16.4529525"><ele>596.3333333333334</ele><time>2026-04-11T14:34:26.677Z</time></trkpt><trkpt lat="38.7411499" lon="16.4531523"><ele>595.6666666666667</ele><time>2026-04-11T14:34:27.676Z</time></trkpt><trkpt lat="38.741223" lon="16.4533512"><ele>595.0</ele><time>2026-04-11T14:34:28.677Z</time></trkpt><trkpt lat="38.7412993" lon="16.4535516"><ele>595.0</ele><time>2026-04-11T14:34:29.677Z</time></trkpt><trkpt lat="38.7413704" lon="16.4537491"><ele>595.0</ele><time>2026-04-11T14:34:30.677Z</time></trkpt><trkpt lat="38.7414409" lon="16.4539411"><ele>595.0</ele><time>2026-04-11T14:34:31.677Z</time></trkpt><trkpt lat="38.7415124" lon="16.4541286"><ele>594.0</ele><time>2026-04-11T14:34:32.677Z</time></trkpt><trkpt lat="38.7415861" lon="16.454319"><ele>593.0</ele><time>2026-04-11T14:34:33.676Z</time></trkpt><trkpt lat="38.7416569" lon="16.4545013"><ele>592.0</ele><time>2026-04-11T14:34:34.677Z</time></trkpt><trkpt lat="38.7417191" lon="16.454692"><ele>591.3333333333334</ele><time>2026-04-11T14:34:35.677Z</time></trkpt><trkpt lat="38.7417683" lon="16.4548893"><ele>590.6666666666666</ele><time>2026-04-11T14:34:36.677Z</time></trkpt><trkpt lat="38.7418021" lon="16.4550859"><ele>590.0</ele><time>2026-04-11T14:34:37.676Z</time></trkpt><trkpt lat="38.7418371" lon="16.4552918"><ele>588.3333333333333</ele><time>2026-04-11T14:34:38.676Z</time></trkpt><trkpt lat="38.7418641" lon="16.4555026"><ele>586.6666666666666</ele><time>2026-04-11T14:34:39.676Z</time></trkpt><trkpt lat="38.7418955" lon="16.4557066"><ele>585.0</ele><time>2026-04-11T14:34:40.677Z</time></trkpt><trkpt lat="38.7419307" lon="16.455905"><ele>585.0</ele><time>2026-04-11T14:34:41.677Z</time></trkpt><trkpt lat="38.7419603" lon="16.4560795"><ele>585.0</ele><time>2026-04-11T14:34:42.677Z</time></trkpt><trkpt lat="38.7420016" lon="16.45624"><ele>585.0</ele><time>2026-04-11T14:34:43.676Z</time></trkpt><trkpt lat="38.7420455" lon="16.4563783"><ele>585.0</ele><time>2026-04-11T14:34:44.677Z</time></trkpt><trkpt lat="38.7421068" lon="16.4564869"><ele>585.0</ele><time>2026-04-11T14:34:45.677Z</time></trkpt><trkpt lat="38.742192" lon="16.4565427"><ele>585.0</ele><time>2026-04-11T14:34:46.677Z</time></trkpt><trkpt lat="38.7422796" lon="16.4565376"><ele>585.0</ele><time>2026-04-11T14:34:47.676Z</time></trkpt><trkpt lat="38.7423739" lon="16.4564891"><ele>585.0</ele><time>2026-04-11T14:34:48.677Z</time></trkpt><trkpt lat="38.7424725" lon="16.4564166"><ele>585.0</ele><time>2026-04-11T14:34:49.677Z</time></trkpt><trkpt lat="38.742582" lon="16.4563107"><ele>583.75</ele><time>2026-04-11T14:34:50.677Z</time></trkpt><trkpt lat="38.7426978" lon="16.4561992"><ele>582.5</ele><time>2026-04-11T14:34:51.677Z</time></trkpt><trkpt lat="38.7428109" lon="16.4560981"><ele>581.25</ele><time>2026-04-11T14:34:52.676Z</time></trkpt><trkpt lat="38.7429185" lon="16.4560177"><ele>580.0</ele><time>2026-04-11T14:34:53.676Z</time></trkpt><trkpt lat="38.7430176" lon="16.4559754"><ele>579.5</ele><time>2026-04-11T14:34:54.676Z</time></trkpt><trkpt lat="38.7431189" lon="16.4559893"><ele>579.0</ele><time>2026-04-11T14:34:55.676Z</time></trkpt><trkpt lat="38.7432118" lon="16.4560585"><ele>578.5</ele><time>2026-04-11T14:34:56.676Z</time></trkpt><trkpt lat="38.7432881" lon="16.4561659"><ele>578.0</ele><time>2026-04-11T14:34:57.676Z</time></trkpt><trkpt lat="38.7433556" lon="16.4563106"><ele>578.0</ele><time>2026-04-11T14:34:58.677Z</time></trkpt><trkpt lat="38.7434211" lon="16.4564705"><ele>578.0</ele><time>2026-04-11T14:34:59.676Z</time></trkpt><trkpt lat="38.7434785" lon="16.4566259"><ele>578.0</ele><time>2026-04-11T14:35:00.677Z</time></trkpt><trkpt lat="38.7435317" lon="16.4568018"><ele>578.0</ele><time>2026-04-11T14:35:01.676Z</time></trkpt><trkpt lat="38.743606" lon="16.4569594"><ele>576.75</ele><time>2026-04-11T14:35:02.677Z</time></trkpt><trkpt lat="38.7436876" lon="16.4570917"><ele>575.5</ele><time>2026-04-11T14:35:03.676Z</time></trkpt><trkpt lat="38.7437768" lon="16.4571984"><ele>574.25</ele><time>2026-04-11T14:35:04.677Z</time></trkpt><trkpt lat="38.7438638" lon="16.4572969"><ele>573.0</ele><time>2026-04-11T14:35:05.677Z</time></trkpt><trkpt lat="38.7439358" lon="16.457385"><ele>573.0</ele><time>2026-04-11T14:35:06.676Z</time></trkpt><trkpt lat="38.7439966" lon="16.4574487"><ele>573.0</ele><time>2026-04-11T14:35:07.676Z</time></trkpt><trkpt lat="38.7440564" lon="16.4574773"><ele>573.0</ele><time>2026-04-11T14:35:08.677Z</time></trkpt><trkpt lat="38.7441218" lon="16.4574819"><ele>573.0</ele><time>2026-04-11T14:35:09.677Z</time></trkpt><trkpt lat="38.7441984" lon="16.4574094"><ele>573.0</ele><time>2026-04-11T14:35:11.677Z</time></trkpt><trkpt lat="38.7442114" lon="16.4573029"><ele>573.0</ele><time>2026-04-11T14:35:13.676Z</time></trkpt><trkpt lat="38.7441879" lon="16.4572195"><ele>573.0</ele><time>2026-04-11T14:35:15.677Z</time></trkpt><trkpt lat="38.7441404" lon="16.4571502"><ele>573.0</ele><time>2026-04-11T14:35:17.677Z</time></trkpt><trkpt lat="38.7440961" lon="16.4570677"><ele>573.0</ele><time>2026-04-11T14:35:19.677Z</time></trkpt><trkpt lat="38.7440457" lon="16.4569797"><ele>573.0</ele><time>2026-04-11T14:35:21.676Z</time></trkpt><trkpt lat="38.7439857" lon="16.4568812"><ele>573.0</ele><time>2026-04-11T14:35:23.677Z</time></trkpt><trkpt lat="38.7439284" lon="16.4567719"><ele>573.0</ele><time>2026-04-11T14:35:25.676Z</time></trkpt><trkpt lat="38.7438861" lon="16.4566496"><ele>570.8</ele><time>2026-04-11T14:35:27.676Z</time></trkpt><trkpt lat="38.7438738" lon="16.4565133"><ele>568.5999999999999</ele><time>2026-04-11T14:35:29.677Z</time></trkpt><trkpt lat="38.7438921" lon="16.4563585"><ele>566.4000000000001</ele><time>2026-04-11T14:35:31.676Z</time></trkpt><trkpt lat="38.743906" lon="16.4562563"><ele>564.2</ele><time>2026-04-11T14:35:32.677Z</time></trkpt><trkpt lat="38.7439143" lon="16.4561484"><ele>562.0</ele><time>2026-04-11T14:35:33.677Z</time></trkpt><trkpt lat="38.7439241" lon="16.4560362"><ele>560.2</ele><time>2026-04-11T14:35:34.676Z</time></trkpt><trkpt lat="38.7439279" lon="16.4559119"><ele>558.4000000000001</ele><time>2026-04-11T14:35:35.676Z</time></trkpt><trkpt lat="38.7439061" lon="16.4557832"><ele>556.5999999999999</ele><time>2026-04-11T14:35:36.676Z</time></trkpt><trkpt lat="38.7438544" lon="16.4556541"><ele>554.8</ele><time>2026-04-11T14:35:37.677Z</time></trkpt><trkpt lat="38.7438124" lon="16.455528"><ele>553.0</ele><time>2026-04-11T14:35:38.676Z</time></trkpt><trkpt lat="38.7437873" lon="16.4553938"><ele>551.0</ele><time>2026-04-11T14:35:39.677Z</time></trkpt><trkpt lat="38.743788" lon="16.45525"><ele>549.0</ele><time>2026-04-11T14:35:40.677Z</time></trkpt><trkpt lat="38.7437978" lon="16.4550944"><ele>547.0</ele><time>2026-04-11T14:35:41.676Z</time></trkpt><trkpt lat="38.7437994" lon="16.454927"><ele>545.0</ele><time>2026-04-11T14:35:42.676Z</time></trkpt><trkpt lat="38.7437737" lon="16.4547789"><ele>545.0</ele><time>2026-04-11T14:35:43.676Z</time></trkpt><trkpt lat="38.7437037" lon="16.4546544"><ele>545.0</ele><time>2026-04-11T14:35:44.677Z</time></trkpt><trkpt lat="38.7436026" lon="16.4545804"><ele>545.0</ele><time>2026-04-11T14:35:45.676Z</time></trkpt><trkpt lat="38.7434965" lon="16.4545483"><ele>545.0</ele><time>2026-04-11T14:35:46.676Z</time></trkpt><trkpt lat="38.743393" lon="16.4545404"><ele>545.0</ele><time>2026-04-11T14:35:47.677Z</time></trkpt><trkpt lat="38.7433151" lon="16.4545097"><ele>546.6</ele><time>2026-04-11T14:35:48.677Z</time></trkpt><trkpt lat="38.7432615" lon="16.4544347"><ele>548.2</ele><time>2026-04-11T14:35:49.677Z</time></trkpt><trkpt lat="38.7432305" lon="16.4543301"><ele>549.8</ele><time>2026-04-11T14:35:50.676Z</time></trkpt><trkpt lat="38.7432178" lon="16.4542034"><ele>551.4</ele><time>2026-04-11T14:35:51.677Z</time></trkpt><trkpt lat="38.7432126" lon="16.4540436"><ele>553.0</ele><time>2026-04-11T14:35:52.676Z</time></trkpt><trkpt lat="38.7432082" lon="16.4538743"><ele>551.0</ele><time>2026-04-11T14:35:53.676Z</time></trkpt><trkpt lat="38.7432111" lon="16.4536936"><ele>549.0</ele><time>2026-04-11T14:35:54.677Z</time></trkpt><trkpt lat="38.7432168" lon="16.4535082"><ele>547.0</ele><time>2026-04-11T14:35:55.676Z</time></trkpt><trkpt lat="38.7432037" lon="16.4533299"><ele>545.0</ele><time>2026-04-11T14:35:56.677Z</time></trkpt><trkpt lat="38.7431833" lon="16.4531484"><ele>545.0</ele><time>2026-04-11T14:35:57.677Z</time></trkpt><trkpt lat="38.7431653" lon="16.4529721"><ele>545.0</ele><time>2026-04-11T14:35:58.676Z</time></trkpt><trkpt lat="38.7431601" lon="16.4527895"><ele>545.0</ele><time>2026-04-11T14:35:59.677Z</time></trkpt><trkpt lat="38.7431777" lon="16.4525945"><ele>545.0</ele><time>2026-04-11T14:36:00.676Z</time></trkpt><trkpt lat="38.7432114" lon="16.4523906"><ele>545.0</ele><time>2026-04-11T14:36:01.676Z</time></trkpt><trkpt lat="38.7432429" lon="16.4521952"><ele>545.0</ele><time>2026-04-11T14:36:02.677Z</time></trkpt><trkpt lat="38.7432694" lon="16.4520157"><ele>545.0</ele><time>2026-04-11T14:36:03.677Z</time></trkpt><trkpt lat="38.743318" lon="16.4518435"><ele>545.0</ele><time>2026-04-11T14:36:04.676Z</time></trkpt><trkpt lat="38.743399" lon="16.4516941"><ele>545.0</ele><time>2026-04-11T14:36:05.676Z</time></trkpt><trkpt lat="38.7435015" lon="16.4515715"><ele>545.0</ele><time>2026-04-11T14:36:06.677Z</time></trkpt><trkpt lat="38.7436231" lon="16.451476"><ele>545.0</ele><time>2026-04-11T14:36:07.676Z</time></trkpt><trkpt lat="38.7437612" lon="16.4513913"><ele>545.0</ele><time>2026-04-11T14:36:08.676Z</time></trkpt><trkpt lat="38.7438925" lon="16.4513028"><ele>541.75</ele><time>2026-04-11T14:36:09.676Z</time></trkpt><trkpt lat="38.7440132" lon="16.4512057"><ele>538.5</ele><time>2026-04-11T14:36:10.676Z</time></trkpt><trkpt lat="38.7441174" lon="16.4510656"><ele>535.25</ele><time>2026-04-11T14:36:11.677Z</time></trkpt><trkpt lat="38.7442017" lon="16.4509021"><ele>532.0</ele><time>2026-04-11T14:36:12.677Z</time></trkpt><trkpt lat="38.7442815" lon="16.4507187"><ele>532.0</ele><time>2026-04-11T14:36:13.676Z</time></trkpt><trkpt lat="38.744357" lon="16.4505482"><ele>532.0</ele><time>2026-04-11T14:36:14.677Z</time></trkpt><trkpt lat="38.7444382" lon="16.4503875"><ele>532.0</ele><time>2026-04-11T14:36:15.677Z</time></trkpt><trkpt lat="38.7445117" lon="16.4502306"><ele>532.0</ele><time>2026-04-11T14:36:16.676Z</time></trkpt><trkpt lat="38.7445619" lon="16.4500535"><ele>530.75</ele><time>2026-04-11T14:36:17.677Z</time></trkpt><trkpt lat="38.7445645" lon="16.4498736"><ele>529.5</ele><time>2026-04-11T14:36:18.676Z</time></trkpt><trkpt lat="38.7445385" lon="16.4496857"><ele>528.25</ele><time>2026-04-11T14:36:19.677Z</time></trkpt><trkpt lat="38.7445243" lon="16.4494893"><ele>527.0</ele><time>2026-04-11T14:36:20.676Z</time></trkpt><trkpt lat="38.7445163" lon="16.4492956"><ele>527.0</ele><time>2026-04-11T14:36:21.676Z</time></trkpt><trkpt lat="38.7445074" lon="16.4491159"><ele>527.0</ele><time>2026-04-11T14:36:22.676Z</time></trkpt><trkpt lat="38.7444898" lon="16.4489502"><ele>527.0</ele><time>2026-04-11T14:36:23.677Z</time></trkpt><trkpt lat="38.7444718" lon="16.4488058"><ele>527.0</ele><time>2026-04-11T14:36:24.677Z</time></trkpt><trkpt lat="38.7444854" lon="16.4486774"><ele>527.0</ele><time>2026-04-11T14:36:25.676Z</time></trkpt><trkpt lat="38.7445287" lon="16.4485846"><ele>527.0</ele><time>2026-04-11T14:36:26.676Z</time></trkpt><trkpt lat="38.7445952" lon="16.4485253"><ele>527.0</ele><time>2026-04-11T14:36:27.676Z</time></trkpt><trkpt lat="38.7446684" lon="16.4485095"><ele>527.0</ele><time>2026-04-11T14:36:28.676Z</time></trkpt><trkpt lat="38.7447414" lon="16.4485569"><ele>527.0</ele><time>2026-04-11T14:36:29.676Z</time></trkpt><trkpt lat="38.7448111" lon="16.4486654"><ele>527.0</ele><time>2026-04-11T14:36:30.676Z</time></trkpt><trkpt lat="38.7448828" lon="16.4488122"><ele>527.0</ele><time>2026-04-11T14:36:31.677Z</time></trkpt><trkpt lat="38.7449594" lon="16.4489501"><ele>527.0</ele><time>2026-04-11T14:36:32.677Z</time></trkpt><trkpt lat="38.7450418" lon="16.4490838"><ele>527.0</ele><time>2026-04-11T14:36:33.676Z</time></trkpt><trkpt lat="38.7451332" lon="16.4492155"><ele>527.0</ele><time>2026-04-11T14:36:34.677Z</time></trkpt><trkpt lat="38.7452243" lon="16.449347"><ele>528.5</ele><time>2026-04-11T14:36:35.676Z</time></trkpt><trkpt lat="38.745312" lon="16.4494883"><ele>530.0</ele><time>2026-04-11T14:36:36.676Z</time></trkpt><trkpt lat="38.7453933" lon="16.4496364"><ele>531.5</ele><time>2026-04-11T14:36:37.677Z</time></trkpt><trkpt lat="38.745473" lon="16.4497847"><ele>533.0</ele><time>2026-04-11T14:36:38.676Z</time></trkpt><trkpt lat="38.7455491" lon="16.4499443"><ele>533.0</ele><time>2026-04-11T14:36:39.676Z</time></trkpt><trkpt lat="38.7456073" lon="16.4501232"><ele>533.0</ele><time>2026-04-11T14:36:40.676Z</time></trkpt><trkpt lat="38.7456668" lon="16.4502851"><ele>533.0</ele><time>2026-04-11T14:36:41.677Z</time></trkpt><trkpt lat="38.7457326" lon="16.4504467"><ele>533.0</ele><time>2026-04-11T14:36:42.677Z</time></trkpt><trkpt lat="38.745817" lon="16.4505899"><ele>533.25</ele><time>2026-04-11T14:36:43.676Z</time></trkpt><trkpt lat="38.7459229" lon="16.4507095"><ele>533.5</ele><time>2026-04-11T14:36:44.676Z</time></trkpt><trkpt lat="38.7460406" lon="16.4507988"><ele>533.75</ele><time>2026-04-11T14:36:45.677Z</time></trkpt><trkpt lat="38.7461607" lon="16.4508648"><ele>534.0</ele><time>2026-04-11T14:36:46.676Z</time></trkpt><trkpt lat="38.7462864" lon="16.4509209"><ele>534.0</ele><time>2026-04-11T14:36:47.676Z</time></trkpt><trkpt lat="38.746404" lon="16.4509943"><ele>534.0</ele><time>2026-04-11T14:36:48.677Z</time></trkpt><trkpt lat="38.7465092" lon="16.4510863"><ele>534.0</ele><time>2026-04-11T14:36:49.677Z</time></trkpt><trkpt lat="38.7466053" lon="16.4511938"><ele>534.0</ele><time>2026-04-11T14:36:50.676Z</time></trkpt><trkpt lat="38.7466991" lon="16.4513148"><ele>532.25</ele><time>2026-04-11T14:36:51.676Z</time></trkpt><trkpt lat="38.7467654" lon="16.451446"><ele>530.5</ele><time>2026-04-11T14:36:52.677Z</time></trkpt><trkpt lat="38.7468182" lon="16.4515909"><ele>528.75</ele><time>2026-04-11T14:36:53.677Z</time></trkpt><trkpt lat="38.7468473" lon="16.4517592"><ele>527.0</ele><time>2026-04-11T14:36:54.677Z</time></trkpt><trkpt lat="38.7468668" lon="16.4519283"><ele>527.0</ele><time>2026-04-11T14:36:55.677Z</time></trkpt><trkpt lat="38.7468843" lon="16.4520946"><ele>527.0</ele><time>2026-04-11T14:36:56.676Z</time></trkpt><trkpt lat="38.7469119" lon="16.4522523"><ele>527.0</ele><time>2026-04-11T14:36:57.676Z</time></trkpt><trkpt lat="38.7469589" lon="16.4523979"><ele>527.0</ele><time>2026-04-11T14:36:58.677Z</time></trkpt><trkpt lat="38.7470223" lon="16.4525449"><ele>527.0</ele><time>2026-04-11T14:36:59.676Z</time></trkpt><trkpt lat="38.7470946" lon="16.4526806"><ele>527.0</ele><time>2026-04-11T14:37:00.676Z</time></trkpt><trkpt lat="38.7471851" lon="16.452815"><ele>527.0</ele><time>2026-04-11T14:37:01.676Z</time></trkpt><trkpt lat="38.7472614" lon="16.4529371"><ele>527.0</ele><time>2026-04-11T14:37:02.677Z</time></trkpt><trkpt lat="38.7473403" lon="16.4530551"><ele>526.75</ele><time>2026-04-11T14:37:03.677Z</time></trkpt><trkpt lat="38.7474168" lon="16.453169"><ele>526.5</ele><time>2026-04-11T14:37:04.676Z</time></trkpt><trkpt lat="38.7474879" lon="16.4532875"><ele>526.25</ele><time>2026-04-11T14:37:05.676Z</time></trkpt><trkpt lat="38.7475704" lon="16.4534013"><ele>526.0</ele><time>2026-04-11T14:37:06.676Z</time></trkpt><trkpt lat="38.7476469" lon="16.4535111"><ele>524.4</ele><time>2026-04-11T14:37:07.677Z</time></trkpt><trkpt lat="38.7477145" lon="16.45362"><ele>522.8</ele><time>2026-04-11T14:37:08.677Z</time></trkpt><trkpt lat="38.7477837" lon="16.4537298"><ele>521.1999999999999</ele><time>2026-04-11T14:37:09.677Z</time></trkpt><trkpt lat="38.7478549" lon="16.453834"><ele>519.6</ele><time>2026-04-11T14:37:10.676Z</time></trkpt><trkpt lat="38.7479284" lon="16.4539453"><ele>518.0</ele><time>2026-04-11T14:37:11.676Z</time></trkpt><trkpt lat="38.7480041" lon="16.4540641"><ele>518.0</ele><time>2026-04-11T14:37:12.676Z</time></trkpt><trkpt lat="38.7480903" lon="16.4541869"><ele>518.0</ele><time>2026-04-11T14:37:13.677Z</time></trkpt><trkpt lat="38.7481746" lon="16.4543155"><ele>518.0</ele><time>2026-04-11T14:37:14.676Z</time></trkpt><trkpt lat="38.7482525" lon="16.4544527"><ele>518.0</ele><time>2026-04-11T14:37:15.676Z</time></trkpt><trkpt lat="38.7483292" lon="16.4545796"><ele>518.1999999999999</ele><time>2026-04-11T14:37:16.676Z</time></trkpt><trkpt lat="38.7484099" lon="16.4547003"><ele>518.4</ele><time>2026-04-11T14:37:17.676Z</time></trkpt><trkpt lat="38.7484825" lon="16.4548084"><ele>518.5999999999999</ele><time>2026-04-11T14:37:18.677Z</time></trkpt><trkpt lat="38.7485522" lon="16.4549131"><ele>518.8</ele><time>2026-04-11T14:37:19.677Z</time></trkpt><trkpt lat="38.7486291" lon="16.4549862"><ele>519.0</ele><time>2026-04-11T14:37:20.676Z</time></trkpt><trkpt lat="38.7487047" lon="16.4550156"><ele>516.6</ele><time>2026-04-11T14:37:21.676Z</time></trkpt><trkpt lat="38.7487828" lon="16.4549968"><ele>514.2</ele><time>2026-04-11T14:37:22.676Z</time></trkpt><trkpt lat="38.7488478" lon="16.4549389"><ele>511.80000000000007</ele><time>2026-04-11T14:37:23.677Z</time></trkpt><trkpt lat="38.7488786" lon="16.4548355"><ele>509.40000000000003</ele><time>2026-04-11T14:37:24.676Z</time></trkpt><trkpt lat="38.7488777" lon="16.4547027"><ele>507.0</ele><time>2026-04-11T14:37:25.676Z</time></trkpt><trkpt lat="38.7488628" lon="16.4545626"><ele>506.25</ele><time>2026-04-11T14:37:26.677Z</time></trkpt><trkpt lat="38.7488588" lon="16.4544079"><ele>505.5</ele><time>2026-04-11T14:37:27.676Z</time></trkpt><trkpt lat="38.7488589" lon="16.4542543"><ele>504.75</ele><time>2026-04-11T14:37:28.677Z</time></trkpt><trkpt lat="38.7488647" lon="16.4541089"><ele>504.0</ele><time>2026-04-11T14:37:29.677Z</time></trkpt><trkpt lat="38.7489037" lon="16.4539831"><ele>504.0</ele><time>2026-04-11T14:37:30.676Z</time></trkpt><trkpt lat="38.7489752" lon="16.4538652"><ele>504.0</ele><time>2026-04-11T14:37:31.676Z</time></trkpt><trkpt lat="38.7490722" lon="16.4537698"><ele>504.0</ele><time>2026-04-11T14:37:32.676Z</time></trkpt><trkpt lat="38.749174" lon="16.4536869"><ele>504.0</ele><time>2026-04-11T14:37:33.676Z</time></trkpt><trkpt lat="38.7492867" lon="16.4536014"><ele>503.0</ele><time>2026-04-11T14:37:34.676Z</time></trkpt><trkpt lat="38.7493943" lon="16.4535088"><ele>502.0</ele><time>2026-04-11T14:37:35.677Z</time></trkpt><trkpt lat="38.7495027" lon="16.4534182"><ele>501.0</ele><time>2026-04-11T14:37:36.676Z</time></trkpt><trkpt lat="38.7496109" lon="16.4533368"><ele>500.0</ele><time>2026-04-11T14:37:37.677Z</time></trkpt><trkpt lat="38.7497132" lon="16.4532597"><ele>500.0</ele><time>2026-04-11T14:37:38.676Z</time></trkpt><trkpt lat="38.749818" lon="16.4531819"><ele>500.0</ele><time>2026-04-11T14:37:39.677Z</time></trkpt><trkpt lat="38.7499248" lon="16.4531133"><ele>500.0</ele><time>2026-04-11T14:37:40.677Z</time></trkpt><trkpt lat="38.7500295" lon="16.4530681"><ele>500.0</ele><time>2026-04-11T14:37:41.677Z</time></trkpt><trkpt lat="38.750142" lon="16.4530385"><ele>499.6</ele><time>2026-04-11T14:37:42.677Z</time></trkpt><trkpt lat="38.7502591" lon="16.4530343"><ele>499.2</ele><time>2026-04-11T14:37:43.677Z</time></trkpt><trkpt lat="38.7503786" lon="16.4530451"><ele>498.79999999999995</ele><time>2026-04-11T14:37:44.676Z</time></trkpt><trkpt lat="38.7504752" lon="16.453082"><ele>498.4</ele><time>2026-04-11T14:37:45.677Z</time></trkpt><trkpt lat="38.7505734" lon="16.4531189"><ele>498.0</ele><time>2026-04-11T14:37:46.677Z</time></trkpt><trkpt lat="38.7506669" lon="16.4531636"><ele>498.0</ele><time>2026-04-11T14:37:47.676Z</time></trkpt><trkpt lat="38.7507536" lon="16.4532254"><ele>497.99999999999994</ele><time>2026-04-11T14:37:48.676Z</time></trkpt><trkpt lat="38.750834" lon="16.4533019"><ele>497.99999999999994</ele><time>2026-04-11T14:37:49.677Z</time></trkpt><trkpt lat="38.7509061" lon="16.4533844"><ele>498.0</ele><time>2026-04-11T14:37:50.677Z</time></trkpt><trkpt lat="38.750976" lon="16.4534745"><ele>498.0</ele><time>2026-04-11T14:37:51.676Z</time></trkpt><trkpt lat="38.7510458" lon="16.4535756"><ele>499.79999999999995</ele><time>2026-04-11T14:37:52.677Z</time></trkpt><trkpt lat="38.7511098" lon="16.4536768"><ele>501.59999999999997</ele><time>2026-04-11T14:37:53.676Z</time></trkpt><trkpt lat="38.7511575" lon="16.4537809"><ele>503.40000000000003</ele><time>2026-04-11T14:37:54.677Z</time></trkpt><trkpt lat="38.7511985" lon="16.4538772"><ele>505.20000000000005</ele><time>2026-04-11T14:37:55.677Z</time></trkpt><trkpt lat="38.7511639" lon="16.4540553"><ele>507.0</ele><time>2026-04-11T14:37:57.676Z</time></trkpt><trkpt lat="38.7511099" lon="16.4541763"><ele>507.25</ele><time>2026-04-11T14:37:58.676Z</time></trkpt><trkpt lat="38.7510516" lon="16.4543156"><ele>507.5</ele><time>2026-04-11T14:37:59.676Z</time></trkpt><trkpt lat="38.7510106" lon="16.4544655"><ele>507.75</ele><time>2026-04-11T14:38:00.677Z</time></trkpt><trkpt lat="38.7509859" lon="16.4546163"><ele>508.0</ele><time>2026-04-11T14:38:01.676Z</time></trkpt><trkpt lat="38.750986" lon="16.4547812"><ele>502.0</ele><time>2026-04-11T14:38:02.676Z</time></trkpt><trkpt lat="38.7509973" lon="16.4549498"><ele>496.0</ele><time>2026-04-11T14:38:03.676Z</time></trkpt><trkpt lat="38.7510037" lon="16.4551141"><ele>490.0</ele><time>2026-04-11T14:38:04.676Z</time></trkpt><trkpt lat="38.7510206" lon="16.4552775"><ele>484.0</ele><time>2026-04-11T14:38:05.677Z</time></trkpt><trkpt lat="38.7510363" lon="16.45544"><ele>485.0</ele><time>2026-04-11T14:38:06.676Z</time></trkpt><trkpt lat="38.7510496" lon="16.4555932"><ele>486.0</ele><time>2026-04-11T14:38:07.676Z</time></trkpt><trkpt lat="38.7510787" lon="16.4557269"><ele>487.0</ele><time>2026-04-11T14:38:08.676Z</time></trkpt><trkpt lat="38.7511501" lon="16.4558603"><ele>488.0</ele><time>2026-04-11T14:38:09.677Z</time></trkpt><trkpt lat="38.7512614" lon="16.4559509"><ele>488.0</ele><time>2026-04-11T14:38:10.677Z</time></trkpt><trkpt lat="38.7513895" lon="16.4560293"><ele>488.0</ele><time>2026-04-11T14:38:11.677Z</time></trkpt><trkpt lat="38.751514" lon="16.4561114"><ele>488.0</ele><time>2026-04-11T14:38:12.676Z</time></trkpt><trkpt lat="38.7516235" lon="16.4562197"><ele>488.0</ele><time>2026-04-11T14:38:13.676Z</time></trkpt><trkpt lat="38.7517244" lon="16.4563486"><ele>484.25</ele><time>2026-04-11T14:38:14.677Z</time></trkpt><trkpt lat="38.7518042" lon="16.4564853"><ele>480.5</ele><time>2026-04-11T14:38:15.677Z</time></trkpt><trkpt lat="38.7518772" lon="16.4566106"><ele>476.75</ele><time>2026-04-11T14:38:16.676Z</time></trkpt><trkpt lat="38.7519617" lon="16.4567119"><ele>473.0</ele><time>2026-04-11T14:38:17.676Z</time></trkpt><trkpt lat="38.7520481" lon="16.4567771"><ele>473.0</ele><time>2026-04-11T14:38:18.676Z</time></trkpt><trkpt lat="38.7521484" lon="16.456811"><ele>473.0</ele><time>2026-04-11T14:38:19.676Z</time></trkpt><trkpt lat="38.7522726" lon="16.4568184"><ele>473.0</ele><time>2026-04-11T14:38:20.676Z</time></trkpt><trkpt lat="38.7524057" lon="16.4567984"><ele>473.0</ele><time>2026-04-11T14:38:21.676Z</time></trkpt><trkpt lat="38.7525436" lon="16.456797"><ele>473.0</ele><time>2026-04-11T14:38:22.676Z</time></trkpt><trkpt lat="38.7526791" lon="16.4567962"><ele>473.0</ele><time>2026-04-11T14:38:23.676Z</time></trkpt><trkpt lat="38.7528078" lon="16.4568119"><ele>473.0</ele><time>2026-04-11T14:38:24.677Z</time></trkpt><trkpt lat="38.7529251" lon="16.4568449"><ele>473.0</ele><time>2026-04-11T14:38:25.676Z</time></trkpt><trkpt lat="38.7530338" lon="16.4569019"><ele>473.25</ele><time>2026-04-11T14:38:26.676Z</time></trkpt><trkpt lat="38.7531339" lon="16.4569924"><ele>473.5</ele><time>2026-04-11T14:38:27.677Z</time></trkpt><trkpt lat="38.7532356" lon="16.4571163"><ele>473.75</ele><time>2026-04-11T14:38:28.676Z</time></trkpt><trkpt lat="38.7533442" lon="16.4572611"><ele>474.0</ele><time>2026-04-11T14:38:29.677Z</time></trkpt><trkpt lat="38.7534535" lon="16.4574017"><ele>472.0</ele><time>2026-04-11T14:38:30.677Z</time></trkpt><trkpt lat="38.7535637" lon="16.4575359"><ele>470.0</ele><time>2026-04-11T14:38:31.676Z</time></trkpt><trkpt lat="38.7536663" lon="16.4576611"><ele>468.0</ele><time>2026-04-11T14:38:32.676Z</time></trkpt><trkpt lat="38.753771" lon="16.457802"><ele>466.0</ele><time>2026-04-11T14:38:33.676Z</time></trkpt><trkpt lat="38.7538575" lon="16.4579415"><ele>463.75</ele><time>2026-04-11T14:38:34.677Z</time></trkpt><trkpt lat="38.7539351" lon="16.4580871"><ele>461.5</ele><time>2026-04-11T14:38:35.677Z</time></trkpt><trkpt lat="38.7539977" lon="16.458244"><ele>459.25</ele><time>2026-04-11T14:38:36.676Z</time></trkpt><trkpt lat="38.7540231" lon="16.4584142"><ele>457.0</ele><time>2026-04-11T14:38:37.677Z</time></trkpt><trkpt lat="38.7540166" lon="16.4586007"><ele>453.6666666666667</ele><time>2026-04-11T14:38:38.676Z</time></trkpt><trkpt lat="38.7539848" lon="16.4587942"><ele>450.33333333333337</ele><time>2026-04-11T14:38:39.677Z</time></trkpt><trkpt lat="38.7539342" lon="16.4589966"><ele>447.0</ele><time>2026-04-11T14:38:40.676Z</time></trkpt><trkpt lat="38.7538812" lon="16.459215"><ele>447.0</ele><time>2026-04-11T14:38:41.676Z</time></trkpt><trkpt lat="38.7538249" lon="16.4594284"><ele>447.0</ele><time>2026-04-11T14:38:42.677Z</time></trkpt><trkpt lat="38.7537759" lon="16.4596359"><ele>447.0</ele><time>2026-04-11T14:38:43.676Z</time></trkpt><trkpt lat="38.7537337" lon="16.4598375"><ele>446.25</ele><time>2026-04-11T14:38:44.676Z</time></trkpt><trkpt lat="38.7536936" lon="16.4600252"><ele>445.5</ele><time>2026-04-11T14:38:45.676Z</time></trkpt><trkpt lat="38.7536564" lon="16.4602088"><ele>444.75</ele><time>2026-04-11T14:38:46.677Z</time></trkpt><trkpt lat="38.7536449" lon="16.4603869"><ele>444.0</ele><time>2026-04-11T14:38:47.676Z</time></trkpt><trkpt lat="38.753649" lon="16.4605701"><ele>444.0</ele><time>2026-04-11T14:38:48.676Z</time></trkpt><trkpt lat="38.7536725" lon="16.4607625"><ele>444.0</ele><time>2026-04-11T14:38:49.676Z</time></trkpt><trkpt lat="38.7537124" lon="16.4609624"><ele>444.0</ele><time>2026-04-11T14:38:50.677Z</time></trkpt><trkpt lat="38.7537573" lon="16.4611709"><ele>442.5</ele><time>2026-04-11T14:38:51.676Z</time></trkpt><trkpt lat="38.7537953" lon="16.4613763"><ele>441.0</ele><time>2026-04-11T14:38:52.676Z</time></trkpt><trkpt lat="38.7538332" lon="16.4615554"><ele>439.5</ele><time>2026-04-11T14:38:53.677Z</time></trkpt><trkpt lat="38.7538752" lon="16.4617052"><ele>438.0</ele><time>2026-04-11T14:38:54.676Z</time></trkpt><trkpt lat="38.7539521" lon="16.4618393"><ele>438.0</ele><time>2026-04-11T14:38:55.677Z</time></trkpt><trkpt lat="38.7540544" lon="16.4619386"><ele>438.0</ele><time>2026-04-11T14:38:56.676Z</time></trkpt><trkpt lat="38.7541842" lon="16.4619948"><ele>438.0</ele><time>2026-04-11T14:38:57.677Z</time></trkpt><trkpt lat="38.7543229" lon="16.4620334"><ele>438.0</ele><time>2026-04-11T14:38:58.677Z</time></trkpt><trkpt lat="38.7544621" lon="16.4620733"><ele>437.75</ele><time>2026-04-11T14:38:59.676Z</time></trkpt><trkpt lat="38.7546014" lon="16.4621084"><ele>437.5</ele><time>2026-04-11T14:39:00.676Z</time></trkpt><trkpt lat="38.7547252" lon="16.4621497"><ele>437.25</ele><time>2026-04-11T14:39:01.676Z</time></trkpt><trkpt lat="38.7548461" lon="16.4621938"><ele>437.0</ele><time>2026-04-11T14:39:02.677Z</time></trkpt><trkpt lat="38.7549608" lon="16.4622538"><ele>435.25</ele><time>2026-04-11T14:39:03.676Z</time></trkpt><trkpt lat="38.7550615" lon="16.4623499"><ele>433.5</ele><time>2026-04-11T14:39:04.677Z</time></trkpt><trkpt lat="38.7551535" lon="16.4624644"><ele>431.75</ele><time>2026-04-11T14:39:05.676Z</time></trkpt><trkpt lat="38.7552374" lon="16.4626074"><ele>430.0</ele><time>2026-04-11T14:39:06.677Z</time></trkpt><trkpt lat="38.7553198" lon="16.4627707"><ele>429.33333333333337</ele><time>2026-04-11T14:39:07.676Z</time></trkpt><trkpt lat="38.7554042" lon="16.4629461"><ele>428.66666666666663</ele><time>2026-04-11T14:39:08.677Z</time></trkpt><trkpt lat="38.7554953" lon="16.4631239"><ele>428.0</ele><time>2026-04-11T14:39:09.676Z</time></trkpt><trkpt lat="38.7555833" lon="16.4633011"><ele>427.0</ele><time>2026-04-11T14:39:10.677Z</time></trkpt><trkpt lat="38.7556672" lon="16.4634797"><ele>426.0</ele><time>2026-04-11T14:39:11.676Z</time></trkpt><trkpt lat="38.7557462" lon="16.4636484"><ele>425.0</ele><time>2026-04-11T14:39:12.676Z</time></trkpt><trkpt lat="38.7558288" lon="16.4638251"><ele>423.66666666666663</ele><time>2026-04-11T14:39:13.677Z</time></trkpt><trkpt lat="38.7559077" lon="16.4640001"><ele>422.33333333333337</ele><time>2026-04-11T14:39:14.676Z</time></trkpt><trkpt lat="38.755988" lon="16.4641697"><ele>421.0</ele><time>2026-04-11T14:39:15.677Z</time></trkpt><trkpt lat="38.7560484" lon="16.4643387"><ele>417.0</ele><time>2026-04-11T14:39:16.676Z</time></trkpt><trkpt lat="38.7560821" lon="16.4645172"><ele>413.0</ele><time>2026-04-11T14:39:17.677Z</time></trkpt><trkpt lat="38.7560977" lon="16.4647057"><ele>409.0</ele><time>2026-04-11T14:39:18.676Z</time></trkpt><trkpt lat="38.7561055" lon="16.4648979"><ele>405.0</ele><time>2026-04-11T14:39:19.676Z</time></trkpt><trkpt lat="38.7561254" lon="16.4650869"><ele>405.0</ele><time>2026-04-11T14:39:20.676Z</time></trkpt><trkpt lat="38.756169" lon="16.4652741"><ele>405.0</ele><time>2026-04-11T14:39:21.676Z</time></trkpt><trkpt lat="38.7562418" lon="16.4654501"><ele>405.0</ele><time>2026-04-11T14:39:22.676Z</time></trkpt><trkpt lat="38.7563241" lon="16.4656256"><ele>406.66666666666663</ele><time>2026-04-11T14:39:23.676Z</time></trkpt><trkpt lat="38.7564256" lon="16.4658002"><ele>408.3333333333333</ele><time>2026-04-11T14:39:24.677Z</time></trkpt><trkpt lat="38.7565193" lon="16.4659765"><ele>410.0</ele><time>2026-04-11T14:39:25.676Z</time></trkpt><trkpt lat="38.7566128" lon="16.4661475"><ele>411.0</ele><time>2026-04-11T14:39:26.676Z</time></trkpt><trkpt lat="38.7567038" lon="16.4663132"><ele>412.0</ele><time>2026-04-11T14:39:27.676Z</time></trkpt><trkpt lat="38.756789" lon="16.4664752"><ele>413.0</ele><time>2026-04-11T14:39:28.676Z</time></trkpt><trkpt lat="38.7568655" lon="16.4666318"><ele>408.25</ele><time>2026-04-11T14:39:29.676Z</time></trkpt><trkpt lat="38.7569065" lon="16.4667959"><ele>403.5</ele><time>2026-04-11T14:39:30.676Z</time></trkpt><trkpt lat="38.7569167" lon="16.4669637"><ele>398.75</ele><time>2026-04-11T14:39:31.676Z</time></trkpt><trkpt lat="38.7569054" lon="16.4671497"><ele>394.0</ele><time>2026-04-11T14:39:32.676Z</time></trkpt><trkpt lat="38.7568926" lon="16.4673418"><ele>394.0</ele><time>2026-04-11T14:39:33.677Z</time></trkpt><trkpt lat="38.7568729" lon="16.4675485"><ele>394.0</ele><time>2026-04-11T14:39:34.676Z</time></trkpt><trkpt lat="38.7568518" lon="16.4677561"><ele>394.0</ele><time>2026-04-11T14:39:35.677Z</time></trkpt><trkpt lat="38.7568341" lon="16.4679535"><ele>396.75</ele><time>2026-04-11T14:39:36.677Z</time></trkpt><trkpt lat="38.7568052" lon="16.4681481"><ele>399.5</ele><time>2026-04-11T14:39:37.677Z</time></trkpt><trkpt lat="38.7567647" lon="16.4683203"><ele>402.25</ele><time>2026-04-11T14:39:38.676Z</time></trkpt><trkpt lat="38.7567337" lon="16.4684804"><ele>405.0</ele><time>2026-04-11T14:39:39.676Z</time></trkpt><trkpt lat="38.7567348" lon="16.4686344"><ele>405.0</ele><time>2026-04-11T14:39:40.677Z</time></trkpt><trkpt lat="38.756776" lon="16.4687644"><ele>405.0</ele><time>2026-04-11T14:39:41.676Z</time></trkpt><trkpt lat="38.7568576" lon="16.4688937"><ele>405.0</ele><time>2026-04-11T14:39:42.676Z</time></trkpt><trkpt lat="38.7569634" lon="16.4690152"><ele>405.0</ele><time>2026-04-11T14:39:43.676Z</time></trkpt><trkpt lat="38.7570861" lon="16.4691343"><ele>401.66666666666663</ele><time>2026-04-11T14:39:44.676Z</time></trkpt><trkpt lat="38.7572225" lon="16.4692603"><ele>398.3333333333333</ele><time>2026-04-11T14:39:45.677Z</time></trkpt><trkpt lat="38.7573527" lon="16.4693973"><ele>395.0</ele><time>2026-04-11T14:39:46.676Z</time></trkpt><trkpt lat="38.7574767" lon="16.4695287"><ele>394.0</ele><time>2026-04-11T14:39:47.676Z</time></trkpt><trkpt lat="38.7575896" lon="16.4696589"><ele>393.0</ele><time>2026-04-11T14:39:48.676Z</time></trkpt><trkpt lat="38.7576719" lon="16.469804"><ele>392.0</ele><time>2026-04-11T14:39:49.677Z</time></trkpt><trkpt lat="38.7577163" lon="16.4699517"><ele>391.0</ele><time>2026-04-11T14:39:50.677Z</time></trkpt><trkpt lat="38.7577226" lon="16.4701178"><ele>389.75</ele><time>2026-04-11T14:39:51.676Z</time></trkpt><trkpt lat="38.7577174" lon="16.4702939"><ele>388.5</ele><time>2026-04-11T14:39:52.676Z</time></trkpt><trkpt lat="38.7577397" lon="16.4704584"><ele>387.25</ele><time>2026-04-11T14:39:53.676Z</time></trkpt><trkpt lat="38.7578126" lon="16.470613"><ele>386.0</ele><time>2026-04-11T14:39:54.676Z</time></trkpt><trkpt lat="38.75791" lon="16.4707641"><ele>386.0</ele><time>2026-04-11T14:39:55.676Z</time></trkpt><trkpt lat="38.7580178" lon="16.4709121"><ele>386.0</ele><time>2026-04-11T14:39:56.676Z</time></trkpt><trkpt lat="38.7581138" lon="16.4710582"><ele>386.0</ele><time>2026-04-11T14:39:57.676Z</time></trkpt><trkpt lat="38.7582102" lon="16.4711946"><ele>387.5</ele><time>2026-04-11T14:39:58.676Z</time></trkpt><trkpt lat="38.7583082" lon="16.4713135"><ele>389.0</ele><time>2026-04-11T14:39:59.676Z</time></trkpt><trkpt lat="38.7584264" lon="16.4713682"><ele>390.5</ele><time>2026-04-11T14:40:00.676Z</time></trkpt><trkpt lat="38.7585489" lon="16.4713586"><ele>392.0</ele><time>2026-04-11T14:40:01.677Z</time></trkpt><trkpt lat="38.7586719" lon="16.4713157"><ele>392.0</ele><time>2026-04-11T14:40:02.676Z</time></trkpt><trkpt lat="38.7588042" lon="16.4713083"><ele>392.0</ele><time>2026-04-11T14:40:03.676Z</time></trkpt><trkpt lat="38.7589253" lon="16.4713611"><ele>392.0</ele><time>2026-04-11T14:40:04.677Z</time></trkpt><trkpt lat="38.7590257" lon="16.4714802"><ele>392.0</ele><time>2026-04-11T14:40:05.677Z</time></trkpt><trkpt lat="38.7591191" lon="16.4716325"><ele>392.0</ele><time>2026-04-11T14:40:06.677Z</time></trkpt><trkpt lat="38.7592009" lon="16.4717949"><ele>392.0</ele><time>2026-04-11T14:40:07.676Z</time></trkpt><trkpt lat="38.7592739" lon="16.4719649"><ele>392.0</ele><time>2026-04-11T14:40:08.677Z</time></trkpt><trkpt lat="38.759356" lon="16.4721341"><ele>392.66666666666663</ele><time>2026-04-11T14:40:09.676Z</time></trkpt><trkpt lat="38.7594534" lon="16.4723032"><ele>393.33333333333337</ele><time>2026-04-11T14:40:10.677Z</time></trkpt><trkpt lat="38.7595706" lon="16.4724624"><ele>394.0</ele><time>2026-04-11T14:40:11.676Z</time></trkpt><trkpt lat="38.7596814" lon="16.4726177"><ele>394.0</ele><time>2026-04-11T14:40:12.676Z</time></trkpt><trkpt lat="38.7597975" lon="16.4727718"><ele>394.0</ele><time>2026-04-11T14:40:13.676Z</time></trkpt><trkpt lat="38.7599186" lon="16.4729305"><ele>394.0</ele><time>2026-04-11T14:40:14.677Z</time></trkpt><trkpt lat="38.7600388" lon="16.4730967"><ele>391.6666666666667</ele><time>2026-04-11T14:40:15.677Z</time></trkpt><trkpt lat="38.7601645" lon="16.4732577"><ele>389.33333333333337</ele><time>2026-04-11T14:40:16.677Z</time></trkpt><trkpt lat="38.7602855" lon="16.4734088"><ele>387.0</ele><time>2026-04-11T14:40:17.676Z</time></trkpt><trkpt lat="38.7603977" lon="16.4735614"><ele>387.0</ele><time>2026-04-11T14:40:18.676Z</time></trkpt><trkpt lat="38.7604871" lon="16.4737273"><ele>387.0</ele><time>2026-04-11T14:40:19.676Z</time></trkpt><trkpt lat="38.7605414" lon="16.4739026"><ele>387.0</ele><time>2026-04-11T14:40:20.677Z</time></trkpt><trkpt lat="38.7605597" lon="16.4740878"><ele>385.6666666666667</ele><time>2026-04-11T14:40:21.676Z</time></trkpt><trkpt lat="38.760553" lon="16.4742871"><ele>384.33333333333337</ele><time>2026-04-11T14:40:22.676Z</time></trkpt><trkpt lat="38.7605313" lon="16.4744885"><ele>383.0</ele><time>2026-04-11T14:40:23.676Z</time></trkpt><trkpt lat="38.7604851" lon="16.4746843"><ele>382.33333333333337</ele><time>2026-04-11T14:40:24.676Z</time></trkpt><trkpt lat="38.7604058" lon="16.4748723"><ele>381.6666666666667</ele><time>2026-04-11T14:40:25.676Z</time></trkpt><trkpt lat="38.7603006" lon="16.4750416"><ele>381.0</ele><time>2026-04-11T14:40:26.677Z</time></trkpt><trkpt lat="38.7602041" lon="16.4752041"><ele>378.3333333333333</ele><time>2026-04-11T14:40:27.677Z</time></trkpt><trkpt lat="38.7601299" lon="16.4753822"><ele>375.66666666666663</ele><time>2026-04-11T14:40:28.676Z</time></trkpt><trkpt lat="38.7600699" lon="16.4755734"><ele>373.0</ele><time>2026-04-11T14:40:29.676Z</time></trkpt><trkpt lat="38.7600251" lon="16.4757729"><ele>372.75</ele><time>2026-04-11T14:40:30.677Z</time></trkpt><trkpt lat="38.7599984" lon="16.4759713"><ele>372.5</ele><time>2026-04-11T14:40:31.676Z</time></trkpt><trkpt lat="38.7599828" lon="16.4761537"><ele>372.25</ele><time>2026-04-11T14:40:32.676Z</time></trkpt><trkpt lat="38.7600023" lon="16.4763265"><ele>372.0</ele><time>2026-04-11T14:40:33.676Z</time></trkpt><trkpt lat="38.7600496" lon="16.4764804"><ele>371.75</ele><time>2026-04-11T14:40:34.677Z</time></trkpt><trkpt lat="38.76014" lon="16.4766046"><ele>371.5</ele><time>2026-04-11T14:40:35.676Z</time></trkpt><trkpt lat="38.7602612" lon="16.4766879"><ele>371.25</ele><time>2026-04-11T14:40:36.676Z</time></trkpt><trkpt lat="38.7603952" lon="16.4767395"><ele>371.0</ele><time>2026-04-11T14:40:37.677Z</time></trkpt><trkpt lat="38.7605259" lon="16.4767943"><ele>371.0</ele><time>2026-04-11T14:40:38.677Z</time></trkpt><trkpt lat="38.760658" lon="16.4768282"><ele>371.0</ele><time>2026-04-11T14:40:39.676Z</time></trkpt><trkpt lat="38.7607779" lon="16.4768197"><ele>371.0</ele><time>2026-04-11T14:40:40.676Z</time></trkpt><trkpt lat="38.7608751" lon="16.476757"><ele>371.0</ele><time>2026-04-11T14:40:41.676Z</time></trkpt><trkpt lat="38.7609699" lon="16.4766386"><ele>369.25</ele><time>2026-04-11T14:40:42.676Z</time></trkpt><trkpt lat="38.7610653" lon="16.4765045"><ele>367.5</ele><time>2026-04-11T14:40:43.677Z</time></trkpt><trkpt lat="38.7611741" lon="16.4763821"><ele>365.75</ele><time>2026-04-11T14:40:44.677Z</time></trkpt><trkpt lat="38.7612806" lon="16.4762591"><ele>364.0</ele><time>2026-04-11T14:40:45.677Z</time></trkpt><trkpt lat="38.7613657" lon="16.4761072"><ele>364.0</ele><time>2026-04-11T14:40:46.676Z</time></trkpt><trkpt lat="38.7614497" lon="16.4759759"><ele>364.0</ele><time>2026-04-11T14:40:47.676Z</time></trkpt><trkpt lat="38.761541" lon="16.4759055"><ele>364.0</ele><time>2026-04-11T14:40:48.676Z</time></trkpt><trkpt lat="38.7616596" lon="16.4758889"><ele>364.0</ele><time>2026-04-11T14:40:49.677Z</time></trkpt><trkpt lat="38.7617666" lon="16.4759005"><ele>358.25</ele><time>2026-04-11T14:40:50.677Z</time></trkpt><trkpt lat="38.76188" lon="16.4758965"><ele>352.5</ele><time>2026-04-11T14:40:51.676Z</time></trkpt><trkpt lat="38.7619853" lon="16.4758346"><ele>346.75</ele><time>2026-04-11T14:40:52.676Z</time></trkpt><trkpt lat="38.7620736" lon="16.4757165"><ele>341.0</ele><time>2026-04-11T14:40:53.675Z</time></trkpt><trkpt lat="38.7621378" lon="16.4755619"><ele>340.5</ele><time>2026-04-11T14:40:54.675Z</time></trkpt><trkpt lat="38.7621663" lon="16.4753865"><ele>340.0</ele><time>2026-04-11T14:40:55.675Z</time></trkpt><trkpt lat="38.762165" lon="16.4752019"><ele>339.5</ele><time>2026-04-11T14:40:56.675Z</time></trkpt><trkpt lat="38.762136" lon="16.4750239"><ele>339.0</ele><time>2026-04-11T14:40:57.676Z</time></trkpt><trkpt lat="38.7620813" lon="16.4748588"><ele>339.0</ele><time>2026-04-11T14:40:58.675Z</time></trkpt><trkpt lat="38.7620181" lon="16.4746929"><ele>339.0</ele><time>2026-04-11T14:40:59.676Z</time></trkpt><trkpt lat="38.7619516" lon="16.4745358"><ele>339.0</ele><time>2026-04-11T14:41:00.675Z</time></trkpt><trkpt lat="38.7618664" lon="16.4743931"><ele>339.0</ele><time>2026-04-11T14:41:01.675Z</time></trkpt><trkpt lat="38.761779" lon="16.4742614"><ele>343.0</ele><time>2026-04-11T14:41:02.676Z</time></trkpt><trkpt lat="38.7617016" lon="16.4741373"><ele>347.0</ele><time>2026-04-11T14:41:03.675Z</time></trkpt><trkpt lat="38.7616607" lon="16.4740001"><ele>351.0</ele><time>2026-04-11T14:41:04.675Z</time></trkpt><trkpt lat="38.7616484" lon="16.4738406"><ele>355.0</ele><time>2026-04-11T14:41:05.675Z</time></trkpt><trkpt lat="38.7616641" lon="16.4736582"><ele>355.0</ele><time>2026-04-11T14:41:06.675Z</time></trkpt><trkpt lat="38.7616922" lon="16.4734739"><ele>355.0</ele><time>2026-04-11T14:41:07.675Z</time></trkpt><trkpt lat="38.7617395" lon="16.4733097"><ele>355.0</ele><time>2026-04-11T14:41:08.676Z</time></trkpt><trkpt lat="38.7618115" lon="16.4731638"><ele>355.0</ele><time>2026-04-11T14:41:09.675Z</time></trkpt><trkpt lat="38.7618981" lon="16.4730407"><ele>346.0</ele><time>2026-04-11T14:41:10.676Z</time></trkpt><trkpt lat="38.7619924" lon="16.4729387"><ele>337.0</ele><time>2026-04-11T14:41:11.675Z</time></trkpt><trkpt lat="38.7620723" lon="16.4728169"><ele>328.0</ele><time>2026-04-11T14:41:12.675Z</time></trkpt><trkpt lat="38.7621358" lon="16.4726763"><ele>319.0</ele><time>2026-04-11T14:41:13.675Z</time></trkpt><trkpt lat="38.7621723" lon="16.4725355"><ele>319.0</ele><time>2026-04-11T14:41:14.675Z</time></trkpt><trkpt lat="38.7621756" lon="16.4723807"><ele>319.0</ele><time>2026-04-11T14:41:15.676Z</time></trkpt><trkpt lat="38.7621274" lon="16.4722402"><ele>319.0</ele><time>2026-04-11T14:41:16.675Z</time></trkpt><trkpt lat="38.7620324" lon="16.4721149"><ele>319.0</ele><time>2026-04-11T14:41:17.675Z</time></trkpt><trkpt lat="38.7619104" lon="16.4720329"><ele>324.25</ele><time>2026-04-11T14:41:18.675Z</time></trkpt><trkpt lat="38.7617856" lon="16.4719805"><ele>329.5</ele><time>2026-04-11T14:41:19.676Z</time></trkpt><trkpt lat="38.7616841" lon="16.4719273"><ele>334.75</ele><time>2026-04-11T14:41:20.675Z</time></trkpt><trkpt lat="38.7616029" lon="16.4718452"><ele>340.0</ele><time>2026-04-11T14:41:21.676Z</time></trkpt><trkpt lat="38.7615508" lon="16.4717269"><ele>340.0</ele><time>2026-04-11T14:41:22.675Z</time></trkpt><trkpt lat="38.7615217" lon="16.4715784"><ele>340.0</ele><time>2026-04-11T14:41:23.675Z</time></trkpt><trkpt lat="38.7615018" lon="16.4714149"><ele>340.0</ele><time>2026-04-11T14:41:24.675Z</time></trkpt><trkpt lat="38.7615046" lon="16.4712528"><ele>340.0</ele><time>2026-04-11T14:41:25.675Z</time></trkpt><trkpt lat="38.7615253" lon="16.4710859"><ele>337.75</ele><time>2026-04-11T14:41:26.676Z</time></trkpt><trkpt lat="38.7615789" lon="16.4709101"><ele>335.5</ele><time>2026-04-11T14:41:27.675Z</time></trkpt><trkpt lat="38.7616321" lon="16.470745"><ele>333.25</ele><time>2026-04-11T14:41:28.675Z</time></trkpt><trkpt lat="38.7616519" lon="16.4705867"><ele>331.0</ele><time>2026-04-11T14:41:29.675Z</time></trkpt><trkpt lat="38.7616226" lon="16.47042"><ele>328.75</ele><time>2026-04-11T14:41:30.675Z</time></trkpt><trkpt lat="38.7615661" lon="16.4702566"><ele>326.5</ele><time>2026-04-11T14:41:31.675Z</time></trkpt><trkpt lat="38.761495" lon="16.4701041"><ele>324.25</ele><time>2026-04-11T14:41:32.676Z</time></trkpt><trkpt lat="38.7614183" lon="16.4699777"><ele>322.0</ele><time>2026-04-11T14:41:33.675Z</time></trkpt><trkpt lat="38.7613136" lon="16.4698727"><ele>322.0</ele><time>2026-04-11T14:41:34.675Z</time></trkpt><trkpt lat="38.7612006" lon="16.4698035"><ele>322.0</ele><time>2026-04-11T14:41:35.676Z</time></trkpt><trkpt lat="38.761086" lon="16.4697373"><ele>322.0</ele><time>2026-04-11T14:41:36.675Z</time></trkpt><trkpt lat="38.7609692" lon="16.4696574"><ele>322.0</ele><time>2026-04-11T14:41:37.676Z</time></trkpt><trkpt lat="38.7608446" lon="16.4695588"><ele>321.75</ele><time>2026-04-11T14:41:38.675Z</time></trkpt><trkpt lat="38.760724" lon="16.4694625"><ele>321.5</ele><time>2026-04-11T14:41:39.676Z</time></trkpt><trkpt lat="38.7606088" lon="16.4693944"><ele>321.25</ele><time>2026-04-11T14:41:40.676Z</time></trkpt><trkpt lat="38.7604918" lon="16.4693503"><ele>321.0</ele><time>2026-04-11T14:41:41.676Z</time></trkpt><trkpt lat="38.7603812" lon="16.469316"><ele>321.0</ele><time>2026-04-11T14:41:42.675Z</time></trkpt><trkpt lat="38.7602896" lon="16.4692465"><ele>321.0</ele><time>2026-04-11T14:41:43.675Z</time></trkpt><trkpt lat="38.7602276" lon="16.4691382"><ele>321.0</ele><time>2026-04-11T14:41:44.676Z</time></trkpt><trkpt lat="38.7601939" lon="16.4690016"><ele>321.0</ele><time>2026-04-11T14:41:45.675Z</time></trkpt><trkpt lat="38.7601937" lon="16.4688575"><ele>321.0</ele><time>2026-04-11T14:41:46.675Z</time></trkpt><trkpt lat="38.7602261" lon="16.46872"><ele>322.75</ele><time>2026-04-11T14:41:47.675Z</time></trkpt><trkpt lat="38.7602958" lon="16.4686016"><ele>324.5</ele><time>2026-04-11T14:41:48.675Z</time></trkpt><trkpt lat="38.7603896" lon="16.4685145"><ele>326.25</ele><time>2026-04-11T14:41:49.675Z</time></trkpt><trkpt lat="38.7604985" lon="16.4684626"><ele>328.0</ele><time>2026-04-11T14:41:50.675Z</time></trkpt><trkpt lat="38.760611" lon="16.4684479"><ele>328.0</ele><time>2026-04-11T14:41:51.676Z</time></trkpt><trkpt lat="38.7607149" lon="16.4684687"><ele>328.0</ele><time>2026-04-11T14:41:52.675Z</time></trkpt><trkpt lat="38.7608281" lon="16.4685389"><ele>328.0</ele><time>2026-04-11T14:41:53.676Z</time></trkpt><trkpt lat="38.7609558" lon="16.46863"><ele>328.0</ele><time>2026-04-11T14:41:54.675Z</time></trkpt><trkpt lat="38.7610963" lon="16.468727"><ele>324.3333333333333</ele><time>2026-04-11T14:41:55.675Z</time></trkpt><trkpt lat="38.7612439" lon="16.4687987"><ele>320.6666666666667</ele><time>2026-04-11T14:41:56.675Z</time></trkpt><trkpt lat="38.7613916" lon="16.4688414"><ele>317.0</ele><time>2026-04-11T14:41:57.676Z</time></trkpt><trkpt lat="38.7615324" lon="16.4688642"><ele>317.0</ele><time>2026-04-11T14:41:58.675Z</time></trkpt><trkpt lat="38.7616724" lon="16.4688973"><ele>317.0</ele><time>2026-04-11T14:41:59.676Z</time></trkpt><trkpt lat="38.7618002" lon="16.4689468"><ele>317.0</ele><time>2026-04-11T14:42:00.675Z</time></trkpt><trkpt lat="38.7619073" lon="16.4690371"><ele>317.0</ele><time>2026-04-11T14:42:01.676Z</time></trkpt><trkpt lat="38.761999" lon="16.4691574"><ele>316.5</ele><time>2026-04-11T14:42:02.676Z</time></trkpt><trkpt lat="38.7620658" lon="16.4693045"><ele>316.0</ele><time>2026-04-11T14:42:03.675Z</time></trkpt><trkpt lat="38.7621147" lon="16.4694731"><ele>315.5</ele><time>2026-04-11T14:42:04.675Z</time></trkpt><trkpt lat="38.7621577" lon="16.4696384"><ele>315.0</ele><time>2026-04-11T14:42:05.675Z</time></trkpt><trkpt lat="38.7622307" lon="16.4697919"><ele>315.0</ele><time>2026-04-11T14:42:06.675Z</time></trkpt><trkpt lat="38.7623214" lon="16.4699385"><ele>315.0</ele><time>2026-04-11T14:42:07.675Z</time></trkpt><trkpt lat="38.7624193" lon="16.4700769"><ele>315.0</ele><time>2026-04-11T14:42:08.675Z</time></trkpt><trkpt lat="38.7625166" lon="16.4702086"><ele>315.0</ele><time>2026-04-11T14:42:09.675Z</time></trkpt><trkpt lat="38.7626192" lon="16.4703279"><ele>315.5</ele><time>2026-04-11T14:42:10.675Z</time></trkpt><trkpt lat="38.7627356" lon="16.4704263"><ele>316.0</ele><time>2026-04-11T14:42:11.676Z</time></trkpt><trkpt lat="38.7628629" lon="16.4705092"><ele>316.5</ele><time>2026-04-11T14:42:12.675Z</time></trkpt><trkpt lat="38.7629905" lon="16.4706026"><ele>317.0</ele><time>2026-04-11T14:42:13.676Z</time></trkpt><trkpt lat="38.7631021" lon="16.4707254"><ele>317.0</ele><time>2026-04-11T14:42:14.675Z</time></trkpt><trkpt lat="38.7632105" lon="16.4708758"><ele>317.0</ele><time>2026-04-11T14:42:15.675Z</time></trkpt><trkpt lat="38.763307" lon="16.4710299"><ele>317.0</ele><time>2026-04-11T14:42:16.675Z</time></trkpt><trkpt lat="38.7633815" lon="16.4712036"><ele>312.33333333333337</ele><time>2026-04-11T14:42:17.675Z</time></trkpt><trkpt lat="38.7634172" lon="16.4713977"><ele>307.6666666666667</ele><time>2026-04-11T14:42:18.676Z</time></trkpt><trkpt lat="38.7634344" lon="16.4715937"><ele>303.0</ele><time>2026-04-11T14:42:19.675Z</time></trkpt><trkpt lat="38.7634676" lon="16.4717849"><ele>306.3333333333333</ele><time>2026-04-11T14:42:20.676Z</time></trkpt><trkpt lat="38.7635312" lon="16.4719556"><ele>309.66666666666663</ele><time>2026-04-11T14:42:21.675Z</time></trkpt><trkpt lat="38.7636265" lon="16.4721164"><ele>313.0</ele><time>2026-04-11T14:42:22.676Z</time></trkpt><trkpt lat="38.7637377" lon="16.4722677"><ele>313.0</ele><time>2026-04-11T14:42:23.675Z</time></trkpt><trkpt lat="38.7638435" lon="16.4724165"><ele>313.0</ele><time>2026-04-11T14:42:24.675Z</time></trkpt><trkpt lat="38.7639407" lon="16.4725758"><ele>313.0</ele><time>2026-04-11T14:42:25.675Z</time></trkpt><trkpt lat="38.7640138" lon="16.4727601"><ele>308.66666666666663</ele><time>2026-04-11T14:42:26.675Z</time></trkpt><trkpt lat="38.7640809" lon="16.4729558"><ele>304.3333333333333</ele><time>2026-04-11T14:42:27.675Z</time></trkpt><trkpt lat="38.7641212" lon="16.4731616"><ele>300.0</ele><time>2026-04-11T14:42:28.675Z</time></trkpt><trkpt lat="38.7641554" lon="16.4733635"><ele>300.0</ele><time>2026-04-11T14:42:29.676Z</time></trkpt><trkpt lat="38.7641936" lon="16.4735653"><ele>300.0</ele><time>2026-04-11T14:42:30.676Z</time></trkpt><trkpt lat="38.7642483" lon="16.4737612"><ele>300.0</ele><time>2026-04-11T14:42:31.675Z</time></trkpt><trkpt lat="38.7643266" lon="16.4739641"><ele>302.5</ele><time>2026-04-11T14:42:32.675Z</time></trkpt><trkpt lat="38.7644372" lon="16.4741949"><ele>305.0</ele><time>2026-04-11T14:42:33.676Z</time></trkpt><trkpt lat="38.7645803" lon="16.4744764"><ele>296.0</ele><time>2026-04-11T14:42:34.675Z</time></trkpt><trkpt lat="38.7647343" lon="16.4747819"><ele>287.0</ele><time>2026-04-11T14:42:35.675Z</time></trkpt><trkpt lat="38.7648614" lon="16.4750685"><ele>287.0</ele><time>2026-04-11T14:42:36.675Z</time></trkpt><trkpt lat="38.7649902" lon="16.4753553"><ele>287.0</ele><time>2026-04-11T14:42:37.675Z</time></trkpt><trkpt lat="38.7651129" lon="16.4756339"><ele>283.5</ele><time>2026-04-11T14:42:38.676Z</time></trkpt><trkpt lat="38.7652384" lon="16.4759106"><ele>280.0</ele><time>2026-04-11T14:42:39.675Z</time></trkpt><trkpt lat="38.7653601" lon="16.4761802"><ele>278.0</ele><time>2026-04-11T14:42:40.676Z</time></trkpt><trkpt lat="38.7654834" lon="16.4764448"><ele>276.0</ele><time>2026-04-11T14:42:41.675Z</time></trkpt><trkpt lat="38.7656051" lon="16.4767065"><ele>276.0</ele><time>2026-04-11T14:42:42.675Z</time></trkpt><trkpt lat="38.7657201" lon="16.4769662"><ele>276.0</ele><time>2026-04-11T14:42:43.675Z</time></trkpt><trkpt lat="38.7658291" lon="16.4772169"><ele>276.3333333333333</ele><time>2026-04-11T14:42:44.675Z</time></trkpt><trkpt lat="38.7659345" lon="16.4774593"><ele>276.66666666666663</ele><time>2026-04-11T14:42:45.675Z</time></trkpt><trkpt lat="38.7660435" lon="16.4776991"><ele>277.0</ele><time>2026-04-11T14:42:46.676Z</time></trkpt><trkpt lat="38.7661488" lon="16.4779414"><ele>276.0</ele><time>2026-04-11T14:42:47.675Z</time></trkpt><trkpt lat="38.7662588" lon="16.4781815"><ele>275.0</ele><time>2026-04-11T14:42:48.675Z</time></trkpt><trkpt lat="38.7663648" lon="16.4784205"><ele>274.0</ele><time>2026-04-11T14:42:49.676Z</time></trkpt><trkpt lat="38.7664684" lon="16.4786446"><ele>272.66666666666663</ele><time>2026-04-11T14:42:50.676Z</time></trkpt><trkpt lat="38.766566" lon="16.478855"><ele>271.3333333333333</ele><time>2026-04-11T14:42:51.676Z</time></trkpt><trkpt lat="38.7666565" lon="16.4790579"><ele>270.0</ele><time>2026-04-11T14:42:52.675Z</time></trkpt><trkpt lat="38.7667417" lon="16.4792489"><ele>270.0</ele><time>2026-04-11T14:42:53.676Z</time></trkpt><trkpt lat="38.7667981" lon="16.4794289"><ele>270.0</ele><time>2026-04-11T14:42:54.676Z</time></trkpt><trkpt lat="38.766832" lon="16.479625"><ele>270.0</ele><time>2026-04-11T14:42:55.675Z</time></trkpt><trkpt lat="38.7668725" lon="16.4798221"><ele>270.3333333333333</ele><time>2026-04-11T14:42:56.676Z</time></trkpt><trkpt lat="38.7669399" lon="16.480025"><ele>270.66666666666663</ele><time>2026-04-11T14:42:57.675Z</time></trkpt><trkpt lat="38.7670052" lon="16.4802309"><ele>271.0</ele><time>2026-04-11T14:42:58.676Z</time></trkpt><trkpt lat="38.7670699" lon="16.4804376"><ele>271.0</ele><time>2026-04-11T14:42:59.675Z</time></trkpt><trkpt lat="38.7671319" lon="16.4806355"><ele>271.0</ele><time>2026-04-11T14:43:00.675Z</time></trkpt><trkpt lat="38.7672202" lon="16.4808117"><ele>271.0</ele><time>2026-04-11T14:43:01.675Z</time></trkpt><trkpt lat="38.7673398" lon="16.480956"><ele>271.0</ele><time>2026-04-11T14:43:02.675Z</time></trkpt><trkpt lat="38.7674839" lon="16.4810619"><ele>271.0</ele><time>2026-04-11T14:43:03.676Z</time></trkpt><trkpt lat="38.7676429" lon="16.4811232"><ele>271.0</ele><time>2026-04-11T14:43:04.675Z</time></trkpt><trkpt lat="38.7678247" lon="16.4811425"><ele>271.0</ele><time>2026-04-11T14:43:05.675Z</time></trkpt><trkpt lat="38.7680246" lon="16.4811403"><ele>271.0</ele><time>2026-04-11T14:43:06.676Z</time></trkpt><trkpt lat="38.7682315" lon="16.4811198"><ele>271.0</ele><time>2026-04-11T14:43:07.675Z</time></trkpt><trkpt lat="38.7684379" lon="16.481115"><ele>267.66666666666663</ele><time>2026-04-11T14:43:08.675Z</time></trkpt><trkpt lat="38.7686431" lon="16.4811192"><ele>264.3333333333333</ele><time>2026-04-11T14:43:09.675Z</time></trkpt><trkpt lat="38.7688531" lon="16.4811149"><ele>261.0</ele><time>2026-04-11T14:43:10.675Z</time></trkpt><trkpt lat="38.7690661" lon="16.48111"><ele>261.0</ele><time>2026-04-11T14:43:11.676Z</time></trkpt><trkpt lat="38.7692814" lon="16.4811135"><ele>261.0</ele><time>2026-04-11T14:43:12.675Z</time></trkpt><trkpt lat="38.7694952" lon="16.4811112"><ele>261.0</ele><time>2026-04-11T14:43:13.675Z</time></trkpt><trkpt lat="38.7697103" lon="16.4811094"><ele>260.6666666666667</ele><time>2026-04-11T14:43:14.676Z</time></trkpt><trkpt lat="38.7699211" lon="16.4811077"><ele>260.33333333333337</ele><time>2026-04-11T14:43:15.675Z</time></trkpt><trkpt lat="38.7701292" lon="16.4811061"><ele>260.0</ele><time>2026-04-11T14:43:16.675Z</time></trkpt><trkpt lat="38.7703412" lon="16.481103"><ele>259.0</ele><time>2026-04-11T14:43:17.676Z</time></trkpt><trkpt lat="38.7705441" lon="16.4811061"><ele>258.0</ele><time>2026-04-11T14:43:18.675Z</time></trkpt><trkpt lat="38.7707419" lon="16.4811157"><ele>257.0</ele><time>2026-04-11T14:43:19.675Z</time></trkpt><trkpt lat="38.7709242" lon="16.4811466"><ele>257.0</ele><time>2026-04-11T14:43:20.675Z</time></trkpt><trkpt lat="38.7710869" lon="16.4812076"><ele>257.0</ele><time>2026-04-11T14:43:21.675Z</time></trkpt><trkpt lat="38.7712305" lon="16.4813122"><ele>257.0</ele><time>2026-04-11T14:43:22.675Z</time></trkpt><trkpt lat="38.7713633" lon="16.4814553"><ele>257.0</ele><time>2026-04-11T14:43:23.675Z</time></trkpt><trkpt lat="38.771476" lon="16.4816277"><ele>257.0</ele><time>2026-04-11T14:43:24.675Z</time></trkpt><trkpt lat="38.7715668" lon="16.4818204"><ele>257.0</ele><time>2026-04-11T14:43:25.675Z</time></trkpt><trkpt lat="38.7716501" lon="16.4820144"><ele>257.0</ele><time>2026-04-11T14:43:26.675Z</time></trkpt><trkpt lat="38.7717278" lon="16.4822237"><ele>257.0</ele><time>2026-04-11T14:43:27.675Z</time></trkpt><trkpt lat="38.7718129" lon="16.4824288"><ele>257.0</ele><time>2026-04-11T14:43:28.676Z</time></trkpt><trkpt lat="38.7719041" lon="16.4826382"><ele>257.0</ele><time>2026-04-11T14:43:29.676Z</time></trkpt><trkpt lat="38.771992" lon="16.4828493"><ele>257.0</ele><time>2026-04-11T14:43:30.675Z</time></trkpt><trkpt lat="38.7720772" lon="16.4830616"><ele>257.0</ele><time>2026-04-11T14:43:31.675Z</time></trkpt><trkpt lat="38.7721593" lon="16.4832731"><ele>256.6666666666667</ele><time>2026-04-11T14:43:32.675Z</time></trkpt><trkpt lat="38.7722468" lon="16.4834865"><ele>256.3333333333333</ele><time>2026-04-11T14:43:33.675Z</time></trkpt><trkpt lat="38.7723365" lon="16.4837071"><ele>256.0</ele><time>2026-04-11T14:43:34.675Z</time></trkpt><trkpt lat="38.7724199" lon="16.4839216"><ele>256.0</ele><time>2026-04-11T14:43:35.675Z</time></trkpt><trkpt lat="38.7725097" lon="16.4841348"><ele>256.0</ele><time>2026-04-11T14:43:36.675Z</time></trkpt><trkpt lat="38.7725957" lon="16.4843489"><ele>256.0</ele><time>2026-04-11T14:43:37.676Z</time></trkpt><trkpt lat="38.7726821" lon="16.4845588"><ele>257.3333333333333</ele><time>2026-04-11T14:43:38.676Z</time></trkpt><trkpt lat="38.7727689" lon="16.4847695"><ele>258.6666666666667</ele><time>2026-04-11T14:43:39.675Z</time></trkpt><trkpt lat="38.7728507" lon="16.4849779"><ele>260.0</ele><time>2026-04-11T14:43:40.676Z</time></trkpt><trkpt lat="38.7729325" lon="16.4851809"><ele>260.0</ele><time>2026-04-11T14:43:41.675Z</time></trkpt><trkpt lat="38.7730194" lon="16.4853735"><ele>260.0</ele><time>2026-04-11T14:43:42.675Z</time></trkpt><trkpt lat="38.773105" lon="16.4855619"><ele>260.0</ele><time>2026-04-11T14:43:43.675Z</time></trkpt><trkpt lat="38.7731875" lon="16.4857537"><ele>260.0</ele><time>2026-04-11T14:43:44.675Z</time></trkpt><trkpt lat="38.7732638" lon="16.485931"><ele>260.0</ele><time>2026-04-11T14:43:45.675Z</time></trkpt><trkpt lat="38.7733371" lon="16.4861118"><ele>260.0</ele><time>2026-04-11T14:43:46.676Z</time></trkpt><trkpt lat="38.7734132" lon="16.4862797"><ele>260.0</ele><time>2026-04-11T14:43:47.676Z</time></trkpt><trkpt lat="38.7734867" lon="16.4864458"><ele>260.0</ele><time>2026-04-11T14:43:48.676Z</time></trkpt><trkpt lat="38.7735569" lon="16.486614"><ele>260.0</ele><time>2026-04-11T14:43:49.675Z</time></trkpt><trkpt lat="38.7736269" lon="16.4867781"><ele>260.0</ele><time>2026-04-11T14:43:50.676Z</time></trkpt><trkpt lat="38.7736994" lon="16.4869437"><ele>260.75</ele><time>2026-04-11T14:43:51.676Z</time></trkpt><trkpt lat="38.7737582" lon="16.4871036"><ele>261.5</ele><time>2026-04-11T14:43:52.675Z</time></trkpt><trkpt lat="38.7738188" lon="16.4872538"><ele>262.25</ele><time>2026-04-11T14:43:53.676Z</time></trkpt><trkpt lat="38.7738754" lon="16.4873936"><ele>263.0</ele><time>2026-04-11T14:43:54.675Z</time></trkpt><trkpt lat="38.7739301" lon="16.4875211"><ele>263.0</ele><time>2026-04-11T14:43:55.675Z</time></trkpt><trkpt lat="38.7739789" lon="16.4876359"><ele>263.0</ele><time>2026-04-11T14:43:56.675Z</time></trkpt><trkpt lat="38.7740253" lon="16.4877424"><ele>263.0</ele><time>2026-04-11T14:43:57.675Z</time></trkpt><trkpt lat="38.7740727" lon="16.4878345"><ele>263.0</ele><time>2026-04-11T14:43:58.676Z</time></trkpt><trkpt lat="38.7741678" lon="16.4878833"><ele>263.0</ele><time>2026-04-11T14:44:00.676Z</time></trkpt><trkpt lat="38.7742268" lon="16.4877738"><ele>263.0</ele><time>2026-04-11T14:44:02.675Z</time></trkpt><trkpt lat="38.7742255" lon="16.487679"><ele>263.0</ele><time>2026-04-11T14:44:03.675Z</time></trkpt><trkpt lat="38.7742179" lon="16.4875848"><ele>263.0</ele><time>2026-04-11T14:44:04.676Z</time></trkpt><trkpt lat="38.774212" lon="16.4874941"><ele>263.0</ele><time>2026-04-11T14:44:05.675Z</time></trkpt><trkpt lat="38.7742098" lon="16.4874029"><ele>263.0</ele><time>2026-04-11T14:44:06.675Z</time></trkpt><trkpt lat="38.77421" lon="16.4873172"><ele>263.0</ele><time>2026-04-11T14:44:07.675Z</time></trkpt><trkpt lat="38.7742133" lon="16.4871617"><ele>263.4</ele><time>2026-04-11T14:44:09.675Z</time></trkpt><trkpt lat="38.7742096" lon="16.4870043"><ele>263.8</ele><time>2026-04-11T14:44:11.676Z</time></trkpt><trkpt lat="38.7742038" lon="16.4869234"><ele>264.2</ele><time>2026-04-11T14:44:12.676Z</time></trkpt><trkpt lat="38.7742001" lon="16.4867553"><ele>264.6</ele><time>2026-04-11T14:44:14.676Z</time></trkpt><trkpt lat="38.7742014" lon="16.4866575"><ele>265.0</ele><time>2026-04-11T14:44:15.675Z</time></trkpt><trkpt lat="38.774203" lon="16.4865558"><ele>265.0</ele><time>2026-04-11T14:44:16.676Z</time></trkpt><trkpt lat="38.7742033" lon="16.4864505"><ele>265.0</ele><time>2026-04-11T14:44:17.675Z</time></trkpt><trkpt lat="38.7742017" lon="16.486339"><ele>265.0</ele><time>2026-04-11T14:44:18.676Z</time></trkpt><trkpt lat="38.7742" lon="16.4862238"><ele>265.0</ele><time>2026-04-11T14:44:19.675Z</time></trkpt><trkpt lat="38.7742012" lon="16.4861008"><ele>265.0</ele><time>2026-04-11T14:44:20.675Z</time></trkpt><trkpt lat="38.7742011" lon="16.4859692"><ele>265.0</ele><time>2026-04-11T14:44:21.675Z</time></trkpt><trkpt lat="38.7741957" lon="16.4858308"><ele>265.0</ele><time>2026-04-11T14:44:22.675Z</time></trkpt><trkpt lat="38.7741934" lon="16.4856904"><ele>265.0</ele><time>2026-04-11T14:44:23.676Z</time></trkpt><trkpt lat="38.7741975" lon="16.4855513"><ele>265.0</ele><time>2026-04-11T14:44:24.675Z</time></trkpt><trkpt lat="38.7742056" lon="16.485404"><ele>265.0</ele><time>2026-04-11T14:44:25.675Z</time></trkpt><trkpt lat="38.7742127" lon="16.4852584"><ele>264.75</ele><time>2026-04-11T14:44:26.676Z</time></trkpt><trkpt lat="38.7742246" lon="16.4851129"><ele>264.5</ele><time>2026-04-11T14:44:27.675Z</time></trkpt><trkpt lat="38.7742381" lon="16.4849603"><ele>264.25</ele><time>2026-04-11T14:44:28.676Z</time></trkpt><trkpt lat="38.7742522" lon="16.484805"><ele>264.0</ele><time>2026-04-11T14:44:29.675Z</time></trkpt><trkpt lat="38.7742699" lon="16.4846482"><ele>264.25</ele><time>2026-04-11T14:44:30.675Z</time></trkpt><trkpt lat="38.774292" lon="16.4844968"><ele>264.5</ele><time>2026-04-11T14:44:31.676Z</time></trkpt><trkpt lat="38.7743042" lon="16.4843428"><ele>264.75</ele><time>2026-04-11T14:44:32.675Z</time></trkpt><trkpt lat="38.7743135" lon="16.4841883"><ele>265.0</ele><time>2026-04-11T14:44:33.675Z</time></trkpt><trkpt lat="38.7743302" lon="16.4840304"><ele>265.0</ele><time>2026-04-11T14:44:34.675Z</time></trkpt><trkpt lat="38.7743478" lon="16.483885"><ele>265.0</ele><time>2026-04-11T14:44:35.675Z</time></trkpt><trkpt lat="38.7743755" lon="16.4837404"><ele>265.0</ele><time>2026-04-11T14:44:36.676Z</time></trkpt><trkpt lat="38.7744073" lon="16.4836047"><ele>265.0</ele><time>2026-04-11T14:44:37.675Z</time></trkpt><trkpt lat="38.7744423" lon="16.4834634"><ele>264.75</ele><time>2026-04-11T14:44:38.675Z</time></trkpt><trkpt lat="38.7744792" lon="16.4833139"><ele>264.5</ele><time>2026-04-11T14:44:39.676Z</time></trkpt><trkpt lat="38.7745175" lon="16.4831573"><ele>264.25</ele><time>2026-04-11T14:44:40.675Z</time></trkpt><trkpt lat="38.7745617" lon="16.4829969"><ele>264.0</ele><time>2026-04-11T14:44:41.675Z</time></trkpt><trkpt lat="38.7746012" lon="16.4828261"><ele>264.0</ele><time>2026-04-11T14:44:42.676Z</time></trkpt><trkpt lat="38.7746399" lon="16.4826494"><ele>264.0</ele><time>2026-04-11T14:44:43.675Z</time></trkpt><trkpt lat="38.7746813" lon="16.4824733"><ele>264.0</ele><time>2026-04-11T14:44:44.675Z</time></trkpt><trkpt lat="38.7747262" lon="16.4822908"><ele>264.0</ele><time>2026-04-11T14:44:45.675Z</time></trkpt><trkpt lat="38.7747714" lon="16.4821127"><ele>263.25</ele><time>2026-04-11T14:44:46.675Z</time></trkpt><trkpt lat="38.7748151" lon="16.4819308"><ele>262.5</ele><time>2026-04-11T14:44:47.675Z</time></trkpt><trkpt lat="38.7748572" lon="16.4817463"><ele>261.75</ele><time>2026-04-11T14:44:48.675Z</time></trkpt><trkpt lat="38.7748973" lon="16.4815707"><ele>261.0</ele><time>2026-04-11T14:44:49.675Z</time></trkpt><trkpt lat="38.7749367" lon="16.481385"><ele>261.25</ele><time>2026-04-11T14:44:50.675Z</time></trkpt><trkpt lat="38.7749797" lon="16.4812145"><ele>261.5</ele><time>2026-04-11T14:44:51.675Z</time></trkpt><trkpt lat="38.7750194" lon="16.4810465"><ele>261.75</ele><time>2026-04-11T14:44:52.675Z</time></trkpt><trkpt lat="38.7750577" lon="16.4808764"><ele>262.0</ele><time>2026-04-11T14:44:53.675Z</time></trkpt><trkpt lat="38.7751016" lon="16.4807052"><ele>262.0</ele><time>2026-04-11T14:44:54.675Z</time></trkpt><trkpt lat="38.7751464" lon="16.480535"><ele>262.0</ele><time>2026-04-11T14:44:55.675Z</time></trkpt><trkpt lat="38.7751996" lon="16.48037"><ele>262.0</ele><time>2026-04-11T14:44:56.675Z</time></trkpt><trkpt lat="38.775246" lon="16.48022"><ele>262.0</ele><time>2026-04-11T14:44:57.675Z</time></trkpt><trkpt lat="38.775287" lon="16.4800842"><ele>262.6</ele><time>2026-04-11T14:44:58.675Z</time></trkpt><trkpt lat="38.7753281" lon="16.4799517"><ele>263.2</ele><time>2026-04-11T14:44:59.675Z</time></trkpt><trkpt lat="38.7753711" lon="16.4798227"><ele>263.8</ele><time>2026-04-11T14:45:00.676Z</time></trkpt><trkpt lat="38.7754083" lon="16.4797011"><ele>264.4</ele><time>2026-04-11T14:45:01.676Z</time></trkpt><trkpt lat="38.7754346" lon="16.479592"><ele>265.0</ele><time>2026-04-11T14:45:02.676Z</time></trkpt><trkpt lat="38.7754608" lon="16.479495"><ele>265.0</ele><time>2026-04-11T14:45:03.676Z</time></trkpt><trkpt lat="38.7754916" lon="16.4794055"><ele>265.0</ele><time>2026-04-11T14:45:04.675Z</time></trkpt><trkpt lat="38.7755231" lon="16.4793302"><ele>265.0</ele><time>2026-04-11T14:45:05.676Z</time></trkpt><trkpt lat="38.7755673" lon="16.4792711"><ele>265.0</ele><time>2026-04-11T14:45:06.676Z</time></trkpt><trkpt lat="38.7756235" lon="16.4792268"><ele>265.0</ele><time>2026-04-11T14:45:07.675Z</time></trkpt><trkpt lat="38.7757412" lon="16.4792003"><ele>265.0</ele><time>2026-04-11T14:45:09.676Z</time></trkpt><trkpt lat="38.7758554" lon="16.4791994"><ele>265.0</ele><time>2026-04-11T14:45:11.675Z</time></trkpt><trkpt lat="38.7759787" lon="16.4792157"><ele>265.0</ele><time>2026-04-11T14:45:13.675Z</time></trkpt><trkpt lat="38.776045" lon="16.4792128"><ele>265.0</ele><time>2026-04-11T14:45:14.676Z</time></trkpt><trkpt lat="38.7761148" lon="16.4792069"><ele>265.0</ele><time>2026-04-11T14:45:15.675Z</time></trkpt><trkpt lat="38.7761833" lon="16.4791868"><ele>265.0</ele><time>2026-04-11T14:45:16.675Z</time></trkpt><trkpt lat="38.7762489" lon="16.4791669"><ele>265.0</ele><time>2026-04-11T14:45:17.676Z</time></trkpt><trkpt lat="38.7763136" lon="16.4791466"><ele>264.16666666666663</ele><time>2026-04-11T14:45:18.675Z</time></trkpt><trkpt lat="38.7763814" lon="16.4791248"><ele>263.3333333333333</ele><time>2026-04-11T14:45:19.676Z</time></trkpt><trkpt lat="38.7764497" lon="16.4791062"><ele>262.5</ele><time>2026-04-11T14:45:20.675Z</time></trkpt><trkpt lat="38.7765214" lon="16.4790879"><ele>261.6666666666667</ele><time>2026-04-11T14:45:21.676Z</time></trkpt><trkpt lat="38.7765963" lon="16.4790638"><ele>260.83333333333337</ele><time>2026-04-11T14:45:22.675Z</time></trkpt><trkpt lat="38.776679" lon="16.4790581"><ele>260.0</ele><time>2026-04-11T14:45:23.675Z</time></trkpt><trkpt lat="38.7767646" lon="16.4790751"><ele>260.0</ele><time>2026-04-11T14:45:24.675Z</time></trkpt><trkpt lat="38.7768473" lon="16.4791058"><ele>260.0</ele><time>2026-04-11T14:45:25.676Z</time></trkpt><trkpt lat="38.7769364" lon="16.4791467"><ele>260.0</ele><time>2026-04-11T14:45:26.676Z</time></trkpt><trkpt lat="38.7770279" lon="16.4791912"><ele>260.0</ele><time>2026-04-11T14:45:27.675Z</time></trkpt><trkpt lat="38.7771243" lon="16.4792349"><ele>260.0</ele><time>2026-04-11T14:45:28.676Z</time></trkpt><trkpt lat="38.7772243" lon="16.4792782"><ele>258.25</ele><time>2026-04-11T14:45:29.675Z</time></trkpt><trkpt lat="38.7773259" lon="16.479334"><ele>256.5</ele><time>2026-04-11T14:45:30.675Z</time></trkpt><trkpt lat="38.7774144" lon="16.4794109"><ele>254.75</ele><time>2026-04-11T14:45:31.675Z</time></trkpt><trkpt lat="38.7774909" lon="16.4795232"><ele>253.0</ele><time>2026-04-11T14:45:32.675Z</time></trkpt><trkpt lat="38.7775577" lon="16.4796508"><ele>252.25</ele><time>2026-04-11T14:45:33.675Z</time></trkpt><trkpt lat="38.7776149" lon="16.4797912"><ele>251.5</ele><time>2026-04-11T14:45:34.675Z</time></trkpt><trkpt lat="38.777671" lon="16.4799417"><ele>250.75</ele><time>2026-04-11T14:45:35.675Z</time></trkpt><trkpt lat="38.777726" lon="16.4800965"><ele>250.0</ele><time>2026-04-11T14:45:36.675Z</time></trkpt><trkpt lat="38.7777868" lon="16.4802434"><ele>249.75</ele><time>2026-04-11T14:45:37.676Z</time></trkpt><trkpt lat="38.7778472" lon="16.4803965"><ele>249.5</ele><time>2026-04-11T14:45:38.675Z</time></trkpt><trkpt lat="38.7779078" lon="16.48055"><ele>249.25</ele><time>2026-04-11T14:45:39.675Z</time></trkpt><trkpt lat="38.7779704" lon="16.4807066"><ele>249.0</ele><time>2026-04-11T14:45:40.675Z</time></trkpt><trkpt lat="38.7780396" lon="16.4808616"><ele>248.0</ele><time>2026-04-11T14:45:41.676Z</time></trkpt><trkpt lat="38.7781064" lon="16.4810213"><ele>247.0</ele><time>2026-04-11T14:45:42.675Z</time></trkpt><trkpt lat="38.7781688" lon="16.4811812"><ele>246.0</ele><time>2026-04-11T14:45:43.675Z</time></trkpt><trkpt lat="38.7782304" lon="16.4813502"><ele>245.0</ele><time>2026-04-11T14:45:44.676Z</time></trkpt><trkpt lat="38.7782978" lon="16.4815147"><ele>243.25</ele><time>2026-04-11T14:45:45.676Z</time></trkpt><trkpt lat="38.7783646" lon="16.481674"><ele>241.5</ele><time>2026-04-11T14:45:46.676Z</time></trkpt><trkpt lat="38.778433" lon="16.4818378"><ele>239.75</ele><time>2026-04-11T14:45:47.675Z</time></trkpt><trkpt lat="38.7785007" lon="16.4819989"><ele>238.0</ele><time>2026-04-11T14:45:48.675Z</time></trkpt><trkpt lat="38.7785794" lon="16.4821586"><ele>235.75</ele><time>2026-04-11T14:45:49.675Z</time></trkpt><trkpt lat="38.7786611" lon="16.4823078"><ele>233.5</ele><time>2026-04-11T14:45:50.675Z</time></trkpt><trkpt lat="38.7787418" lon="16.4824474"><ele>231.25</ele><time>2026-04-11T14:45:51.676Z</time></trkpt><trkpt lat="38.7788293" lon="16.4825597"><ele>229.0</ele><time>2026-04-11T14:45:52.676Z</time></trkpt><trkpt lat="38.7789315" lon="16.4826317"><ele>229.0</ele><time>2026-04-11T14:45:53.675Z</time></trkpt><trkpt lat="38.7790622" lon="16.4826588"><ele>229.0</ele><time>2026-04-11T14:45:54.675Z</time></trkpt><trkpt lat="38.7792091" lon="16.4826462"><ele>229.0</ele><time>2026-04-11T14:45:55.676Z</time></trkpt><trkpt lat="38.7793605" lon="16.4826049"><ele>229.0</ele><time>2026-04-11T14:45:56.675Z</time></trkpt><trkpt lat="38.7795248" lon="16.4825784"><ele>227.0</ele><time>2026-04-11T14:45:57.676Z</time></trkpt><trkpt lat="38.7796951" lon="16.4825927"><ele>225.0</ele><time>2026-04-11T14:45:58.676Z</time></trkpt><trkpt lat="38.7798625" lon="16.4826382"><ele>223.0</ele><time>2026-04-11T14:45:59.675Z</time></trkpt><trkpt lat="38.780027" lon="16.4827033"><ele>222.66666666666666</ele><time>2026-04-11T14:46:00.675Z</time></trkpt><trkpt lat="38.7801848" lon="16.4827809"><ele>222.33333333333331</ele><time>2026-04-11T14:46:01.675Z</time></trkpt><trkpt lat="38.7803327" lon="16.4828832"><ele>222.0</ele><time>2026-04-11T14:46:02.675Z</time></trkpt><trkpt lat="38.7804702" lon="16.4830041"><ele>222.0</ele><time>2026-04-11T14:46:03.676Z</time></trkpt><trkpt lat="38.780604" lon="16.4831114"><ele>222.0</ele><time>2026-04-11T14:46:04.676Z</time></trkpt><trkpt lat="38.7807381" lon="16.4831758"><ele>222.0</ele><time>2026-04-11T14:46:05.675Z</time></trkpt><trkpt lat="38.7808824" lon="16.4831839"><ele>222.0</ele><time>2026-04-11T14:46:06.675Z</time></trkpt><trkpt lat="38.7810305" lon="16.4831322"><ele>221.0</ele><time>2026-04-11T14:46:07.675Z</time></trkpt><trkpt lat="38.7811711" lon="16.4830571"><ele>220.0</ele><time>2026-04-11T14:46:08.675Z</time></trkpt><trkpt lat="38.7813052" lon="16.4829736"><ele>219.0</ele><time>2026-04-11T14:46:09.675Z</time></trkpt><trkpt lat="38.7814427" lon="16.4828896"><ele>219.0</ele><time>2026-04-11T14:46:10.675Z</time></trkpt><trkpt lat="38.7815798" lon="16.4828268"><ele>219.0</ele><time>2026-04-11T14:46:11.675Z</time></trkpt><trkpt lat="38.7817243" lon="16.4827824"><ele>219.0</ele><time>2026-04-11T14:46:12.675Z</time></trkpt><trkpt lat="38.7818727" lon="16.482769"><ele>219.0</ele><time>2026-04-11T14:46:13.675Z</time></trkpt><trkpt lat="38.7820206" lon="16.4827881"><ele>218.66666666666669</ele><time>2026-04-11T14:46:14.676Z</time></trkpt><trkpt lat="38.7821767" lon="16.4828292"><ele>218.33333333333334</ele><time>2026-04-11T14:46:15.676Z</time></trkpt><trkpt lat="38.7823381" lon="16.4828769"><ele>218.0</ele><time>2026-04-11T14:46:16.675Z</time></trkpt><trkpt lat="38.7825029" lon="16.4829314"><ele>219.33333333333334</ele><time>2026-04-11T14:46:17.675Z</time></trkpt><trkpt lat="38.7826636" lon="16.4830126"><ele>220.66666666666669</ele><time>2026-04-11T14:46:18.675Z</time></trkpt><trkpt lat="38.782822" lon="16.4831112"><ele>222.0</ele><time>2026-04-11T14:46:19.675Z</time></trkpt><trkpt lat="38.7829701" lon="16.4832176"><ele>222.0</ele><time>2026-04-11T14:46:20.676Z</time></trkpt><trkpt lat="38.7831086" lon="16.483329"><ele>222.0</ele><time>2026-04-11T14:46:21.676Z</time></trkpt><trkpt lat="38.7832396" lon="16.4834413"><ele>222.0</ele><time>2026-04-11T14:46:22.675Z</time></trkpt><trkpt lat="38.783363" lon="16.4835647"><ele>222.0</ele><time>2026-04-11T14:46:23.676Z</time></trkpt><trkpt lat="38.7834842" lon="16.4836986"><ele>222.0</ele><time>2026-04-11T14:46:24.675Z</time></trkpt><trkpt lat="38.7836036" lon="16.4838616"><ele>222.0</ele><time>2026-04-11T14:46:25.675Z</time></trkpt><trkpt lat="38.7837226" lon="16.4840363"><ele>220.33333333333331</ele><time>2026-04-11T14:46:26.675Z</time></trkpt><trkpt lat="38.7838394" lon="16.4842251"><ele>218.66666666666666</ele><time>2026-04-11T14:46:27.676Z</time></trkpt><trkpt lat="38.7839579" lon="16.4844289"><ele>217.0</ele><time>2026-04-11T14:46:28.675Z</time></trkpt><trkpt lat="38.784083" lon="16.4846386"><ele>215.66666666666666</ele><time>2026-04-11T14:46:29.675Z</time></trkpt><trkpt lat="38.7842141" lon="16.4848494"><ele>214.33333333333331</ele><time>2026-04-11T14:46:30.675Z</time></trkpt><trkpt lat="38.7843448" lon="16.4850635"><ele>213.0</ele><time>2026-04-11T14:46:31.676Z</time></trkpt><trkpt lat="38.7844735" lon="16.4852822"><ele>212.0</ele><time>2026-04-11T14:46:32.675Z</time></trkpt><trkpt lat="38.7846038" lon="16.4855057"><ele>211.0</ele><time>2026-04-11T14:46:33.675Z</time></trkpt><trkpt lat="38.7847295" lon="16.4857275"><ele>210.0</ele><time>2026-04-11T14:46:34.676Z</time></trkpt><trkpt lat="38.784863" lon="16.4859463"><ele>210.0</ele><time>2026-04-11T14:46:35.675Z</time></trkpt><trkpt lat="38.7849978" lon="16.4861605"><ele>210.0</ele><time>2026-04-11T14:46:36.676Z</time></trkpt><trkpt lat="38.7851333" lon="16.4863751"><ele>210.0</ele><time>2026-04-11T14:46:37.675Z</time></trkpt><trkpt lat="38.7852666" lon="16.4865948"><ele>208.33333333333331</ele><time>2026-04-11T14:46:38.675Z</time></trkpt><trkpt lat="38.7853989" lon="16.4868196"><ele>206.66666666666666</ele><time>2026-04-11T14:46:39.675Z</time></trkpt><trkpt lat="38.7855332" lon="16.4870495"><ele>205.0</ele><time>2026-04-11T14:46:40.675Z</time></trkpt><trkpt lat="38.7856686" lon="16.4872764"><ele>204.33333333333331</ele><time>2026-04-11T14:46:41.675Z</time></trkpt><trkpt lat="38.7858082" lon="16.4875035"><ele>203.66666666666669</ele><time>2026-04-11T14:46:42.675Z</time></trkpt><trkpt lat="38.7859472" lon="16.4877283"><ele>203.0</ele><time>2026-04-11T14:46:43.676Z</time></trkpt><trkpt lat="38.7860897" lon="16.487946"><ele>201.5</ele><time>2026-04-11T14:46:44.675Z</time></trkpt><trkpt lat="38.786238" lon="16.4881619"><ele>200.0</ele><time>2026-04-11T14:46:45.675Z</time></trkpt><trkpt lat="38.786394" lon="16.4883738"><ele>200.0</ele><time>2026-04-11T14:46:46.675Z</time></trkpt><trkpt lat="38.7865555" lon="16.48858"><ele>200.0</ele><time>2026-04-11T14:46:47.675Z</time></trkpt><trkpt lat="38.7867117" lon="16.4887952"><ele>199.33333333333334</ele><time>2026-04-11T14:46:48.675Z</time></trkpt><trkpt lat="38.7868551" lon="16.4890136"><ele>198.66666666666669</ele><time>2026-04-11T14:46:49.676Z</time></trkpt><trkpt lat="38.7869818" lon="16.4892327"><ele>198.0</ele><time>2026-04-11T14:46:50.675Z</time></trkpt><trkpt lat="38.7870916" lon="16.4894625"><ele>198.0</ele><time>2026-04-11T14:46:51.675Z</time></trkpt><trkpt lat="38.7871801" lon="16.4897012"><ele>198.0</ele><time>2026-04-11T14:46:52.675Z</time></trkpt><trkpt lat="38.7872658" lon="16.4899354"><ele>198.0</ele><time>2026-04-11T14:46:53.675Z</time></trkpt><trkpt lat="38.7873429" lon="16.4901581"><ele>198.0</ele><time>2026-04-11T14:46:54.676Z</time></trkpt><trkpt lat="38.7874088" lon="16.4903675"><ele>198.0</ele><time>2026-04-11T14:46:55.675Z</time></trkpt><trkpt lat="38.7874603" lon="16.4905596"><ele>198.0</ele><time>2026-04-11T14:46:56.676Z</time></trkpt><trkpt lat="38.7874977" lon="16.4907444"><ele>197.75</ele><time>2026-04-11T14:46:57.675Z</time></trkpt><trkpt lat="38.7875244" lon="16.490921"><ele>197.5</ele><time>2026-04-11T14:46:58.675Z</time></trkpt><trkpt lat="38.7875497" lon="16.4910961"><ele>197.25</ele><time>2026-04-11T14:46:59.676Z</time></trkpt><trkpt lat="38.7875755" lon="16.4912466"><ele>197.0</ele><time>2026-04-11T14:47:00.676Z</time></trkpt><trkpt lat="38.7876227" lon="16.4913766"><ele>195.75</ele><time>2026-04-11T14:47:01.676Z</time></trkpt><trkpt lat="38.7876957" lon="16.4914885"><ele>194.5</ele><time>2026-04-11T14:47:02.675Z</time></trkpt><trkpt lat="38.7877819" lon="16.4915655"><ele>193.25</ele><time>2026-04-11T14:47:03.676Z</time></trkpt><trkpt lat="38.787892" lon="16.4916275"><ele>192.0</ele><time>2026-04-11T14:47:04.675Z</time></trkpt><trkpt lat="38.7880117" lon="16.4916771"><ele>192.0</ele><time>2026-04-11T14:47:05.675Z</time></trkpt><trkpt lat="38.7881487" lon="16.4917119"><ele>192.0</ele><time>2026-04-11T14:47:06.675Z</time></trkpt><trkpt lat="38.7883005" lon="16.4917502"><ele>192.0</ele><time>2026-04-11T14:47:07.676Z</time></trkpt><trkpt lat="38.7884612" lon="16.4917947"><ele>192.33333333333331</ele><time>2026-04-11T14:47:08.676Z</time></trkpt><trkpt lat="38.7886294" lon="16.4918414"><ele>192.66666666666666</ele><time>2026-04-11T14:47:09.675Z</time></trkpt><trkpt lat="38.7888013" lon="16.4918896"><ele>193.0</ele><time>2026-04-11T14:47:10.676Z</time></trkpt><trkpt lat="38.788973" lon="16.4919394"><ele>193.0</ele><time>2026-04-11T14:47:11.676Z</time></trkpt><trkpt lat="38.7891362" lon="16.4919879"><ele>193.0</ele><time>2026-04-11T14:47:12.675Z</time></trkpt><trkpt lat="38.7892942" lon="16.4920388"><ele>193.0</ele><time>2026-04-11T14:47:13.675Z</time></trkpt><trkpt lat="38.7894583" lon="16.4920785"><ele>192.66666666666666</ele><time>2026-04-11T14:47:14.675Z</time></trkpt><trkpt lat="38.7896369" lon="16.4920904"><ele>192.33333333333331</ele><time>2026-04-11T14:47:15.675Z</time></trkpt><trkpt lat="38.7898202" lon="16.4920837"><ele>192.0</ele><time>2026-04-11T14:47:16.675Z</time></trkpt><trkpt lat="38.7900046" lon="16.4920646"><ele>192.66666666666669</ele><time>2026-04-11T14:47:17.675Z</time></trkpt><trkpt lat="38.7901915" lon="16.4920482"><ele>193.33333333333334</ele><time>2026-04-11T14:47:18.675Z</time></trkpt><trkpt lat="38.7903809" lon="16.4920303"><ele>194.0</ele><time>2026-04-11T14:47:19.675Z</time></trkpt><trkpt lat="38.7905571" lon="16.4920163"><ele>194.0</ele><time>2026-04-11T14:47:20.676Z</time></trkpt><trkpt lat="38.7907164" lon="16.4920072"><ele>194.0</ele><time>2026-04-11T14:47:21.675Z</time></trkpt><trkpt lat="38.7908688" lon="16.4920127"><ele>194.0</ele><time>2026-04-11T14:47:22.675Z</time></trkpt><trkpt lat="38.7910078" lon="16.4920297"><ele>194.25</ele><time>2026-04-11T14:47:23.675Z</time></trkpt><trkpt lat="38.7911361" lon="16.4920712"><ele>194.5</ele><time>2026-04-11T14:47:24.675Z</time></trkpt><trkpt lat="38.791246" lon="16.4921373"><ele>194.75</ele><time>2026-04-11T14:47:25.675Z</time></trkpt><trkpt lat="38.791353" lon="16.4922224"><ele>195.0</ele><time>2026-04-11T14:47:26.675Z</time></trkpt><trkpt lat="38.7914608" lon="16.4922984"><ele>195.25</ele><time>2026-04-11T14:47:27.676Z</time></trkpt><trkpt lat="38.7915662" lon="16.4923716"><ele>195.5</ele><time>2026-04-11T14:47:28.675Z</time></trkpt><trkpt lat="38.7916739" lon="16.4924463"><ele>195.75</ele><time>2026-04-11T14:47:29.676Z</time></trkpt><trkpt lat="38.7917804" lon="16.492521"><ele>196.0</ele><time>2026-04-11T14:47:30.675Z</time></trkpt><trkpt lat="38.7918851" lon="16.4925932"><ele>196.66666666666666</ele><time>2026-04-11T14:47:31.675Z</time></trkpt><trkpt lat="38.7919719" lon="16.4926491"><ele>197.33333333333331</ele><time>2026-04-11T14:47:32.676Z</time></trkpt><trkpt lat="38.7920471" lon="16.4926989"><ele>198.0</ele><time>2026-04-11T14:47:33.676Z</time></trkpt><trkpt lat="38.7921069" lon="16.49274"><ele>198.66666666666669</ele><time>2026-04-11T14:47:34.675Z</time></trkpt><trkpt lat="38.7921845" lon="16.4927977"><ele>199.33333333333334</ele><time>2026-04-11T14:47:36.675Z</time></trkpt><trkpt lat="38.7922528" lon="16.4927699"><ele>200.0</ele><time>2026-04-11T14:48:06.676Z</time></trkpt><trkpt lat="38.7923117" lon="16.4927275"><ele>200.0</ele><time>2026-04-11T14:48:08.675Z</time></trkpt><trkpt lat="38.7924142" lon="16.4926297"><ele>200.0</ele><time>2026-04-11T14:48:10.675Z</time></trkpt><trkpt lat="38.7924874" lon="16.4925423"><ele>200.0</ele><time>2026-04-11T14:48:11.675Z</time></trkpt><trkpt lat="38.7925739" lon="16.4924318"><ele>200.0</ele><time>2026-04-11T14:48:12.675Z</time></trkpt><trkpt lat="38.7926656" lon="16.492307"><ele>200.75</ele><time>2026-04-11T14:48:13.676Z</time></trkpt><trkpt lat="38.7927651" lon="16.4921697"><ele>201.5</ele><time>2026-04-11T14:48:14.675Z</time></trkpt><trkpt lat="38.7928672" lon="16.492036"><ele>202.25</ele><time>2026-04-11T14:48:15.675Z</time></trkpt><trkpt lat="38.7929655" lon="16.4918953"><ele>203.0</ele><time>2026-04-11T14:48:16.675Z</time></trkpt><trkpt lat="38.7930665" lon="16.4917477"><ele>203.0</ele><time>2026-04-11T14:48:17.675Z</time></trkpt><trkpt lat="38.7931683" lon="16.4916046"><ele>203.0</ele><time>2026-04-11T14:48:18.675Z</time></trkpt><trkpt lat="38.7932796" lon="16.491465"><ele>203.0</ele><time>2026-04-11T14:48:19.675Z</time></trkpt><trkpt lat="38.7934023" lon="16.4913574"><ele>201.33333333333334</ele><time>2026-04-11T14:48:20.675Z</time></trkpt><trkpt lat="38.793546" lon="16.4912495"><ele>199.66666666666669</ele><time>2026-04-11T14:48:21.675Z</time></trkpt><trkpt lat="38.7937029" lon="16.4911673"><ele>198.0</ele><time>2026-04-11T14:48:22.676Z</time></trkpt><trkpt lat="38.7938654" lon="16.4910888"><ele>198.0</ele><time>2026-04-11T14:48:23.676Z</time></trkpt><trkpt lat="38.7940321" lon="16.4910038"><ele>198.0</ele><time>2026-04-11T14:48:24.675Z</time></trkpt><trkpt lat="38.7942025" lon="16.4909155"><ele>198.0</ele><time>2026-04-11T14:48:25.675Z</time></trkpt><trkpt lat="38.7943791" lon="16.4908196"><ele>199.33333333333331</ele><time>2026-04-11T14:48:26.676Z</time></trkpt><trkpt lat="38.794555" lon="16.4907226"><ele>200.66666666666666</ele><time>2026-04-11T14:48:27.675Z</time></trkpt><trkpt lat="38.7947302" lon="16.490626"><ele>202.0</ele><time>2026-04-11T14:48:28.676Z</time></trkpt><trkpt lat="38.7949034" lon="16.4905365"><ele>202.0</ele><time>2026-04-11T14:48:29.675Z</time></trkpt><trkpt lat="38.7950778" lon="16.4904412"><ele>202.0</ele><time>2026-04-11T14:48:30.676Z</time></trkpt><trkpt lat="38.7952322" lon="16.4903198"><ele>202.0</ele><time>2026-04-11T14:48:31.675Z</time></trkpt><trkpt lat="38.7953858" lon="16.4901642"><ele>200.66666666666666</ele><time>2026-04-11T14:48:32.675Z</time></trkpt><trkpt lat="38.7955274" lon="16.4899695"><ele>199.33333333333331</ele><time>2026-04-11T14:48:33.675Z</time></trkpt><trkpt lat="38.7956636" lon="16.4897526"><ele>198.0</ele><time>2026-04-11T14:48:34.676Z</time></trkpt><trkpt lat="38.7958059" lon="16.4895236"><ele>197.5</ele><time>2026-04-11T14:48:35.675Z</time></trkpt><trkpt lat="38.7959544" lon="16.4892987"><ele>197.0</ele><time>2026-04-11T14:48:36.675Z</time></trkpt><trkpt lat="38.7961077" lon="16.4890711"><ele>199.0</ele><time>2026-04-11T14:48:37.676Z</time></trkpt><trkpt lat="38.7962612" lon="16.48884"><ele>201.0</ele><time>2026-04-11T14:48:38.675Z</time></trkpt><trkpt lat="38.7964105" lon="16.4886082"><ele>201.0</ele><time>2026-04-11T14:48:39.675Z</time></trkpt><trkpt lat="38.7965631" lon="16.4883725"><ele>201.0</ele><time>2026-04-11T14:48:40.676Z</time></trkpt><trkpt lat="38.7967179" lon="16.4881301"><ele>202.5</ele><time>2026-04-11T14:48:41.676Z</time></trkpt><trkpt lat="38.796873" lon="16.4878839"><ele>204.0</ele><time>2026-04-11T14:48:42.676Z</time></trkpt><trkpt lat="38.7970289" lon="16.4876452"><ele>204.0</ele><time>2026-04-11T14:48:43.675Z</time></trkpt><trkpt lat="38.7971826" lon="16.4874012"><ele>204.0</ele><time>2026-04-11T14:48:44.675Z</time></trkpt><trkpt lat="38.7973346" lon="16.4871564"><ele>203.5</ele><time>2026-04-11T14:48:45.676Z</time></trkpt><trkpt lat="38.797489" lon="16.4869159"><ele>203.0</ele><time>2026-04-11T14:48:46.676Z</time></trkpt><trkpt lat="38.7976459" lon="16.4866791"><ele>203.0</ele><time>2026-04-11T14:48:47.675Z</time></trkpt><trkpt lat="38.7977981" lon="16.486447"><ele>203.0</ele><time>2026-04-11T14:48:48.675Z</time></trkpt><trkpt lat="38.7979451" lon="16.4862174"><ele>203.0</ele><time>2026-04-11T14:48:49.675Z</time></trkpt><trkpt lat="38.7980915" lon="16.4859896"><ele>203.0</ele><time>2026-04-11T14:48:50.675Z</time></trkpt><trkpt lat="38.798235" lon="16.4857688"><ele>203.0</ele><time>2026-04-11T14:48:51.675Z</time></trkpt><trkpt lat="38.7983753" lon="16.4855462"><ele>203.0</ele><time>2026-04-11T14:48:52.675Z</time></trkpt><trkpt lat="38.7985211" lon="16.4853339"><ele>203.0</ele><time>2026-04-11T14:48:53.675Z</time></trkpt><trkpt lat="38.7986817" lon="16.4851376"><ele>203.5</ele><time>2026-04-11T14:48:54.675Z</time></trkpt><trkpt lat="38.7988582" lon="16.4849558"><ele>204.0</ele><time>2026-04-11T14:48:55.675Z</time></trkpt><trkpt lat="38.7990449" lon="16.4847906"><ele>204.0</ele><time>2026-04-11T14:48:56.675Z</time></trkpt><trkpt lat="38.799234" lon="16.4846429"><ele>204.0</ele><time>2026-04-11T14:48:57.675Z</time></trkpt><trkpt lat="38.7994227" lon="16.4844925"><ele>204.0</ele><time>2026-04-11T14:48:58.675Z</time></trkpt><trkpt lat="38.7995982" lon="16.4843404"><ele>204.0</ele><time>2026-04-11T14:48:59.676Z</time></trkpt><trkpt lat="38.7997682" lon="16.4841627"><ele>204.0</ele><time>2026-04-11T14:49:00.675Z</time></trkpt><trkpt lat="38.7999305" lon="16.4839609"><ele>204.0</ele><time>2026-04-11T14:49:01.676Z</time></trkpt><trkpt lat="38.8000764" lon="16.4837347"><ele>205.5</ele><time>2026-04-11T14:49:02.675Z</time></trkpt><trkpt lat="38.8002186" lon="16.4834942"><ele>207.0</ele><time>2026-04-11T14:49:03.675Z</time></trkpt><trkpt lat="38.8003539" lon="16.4832514"><ele>207.0</ele><time>2026-04-11T14:49:04.675Z</time></trkpt><trkpt lat="38.8004904" lon="16.4830039"><ele>207.0</ele><time>2026-04-11T14:49:05.676Z</time></trkpt><trkpt lat="38.8006293" lon="16.4827566"><ele>206.5</ele><time>2026-04-11T14:49:06.675Z</time></trkpt><trkpt lat="38.8007646" lon="16.482502"><ele>206.0</ele><time>2026-04-11T14:49:07.676Z</time></trkpt><trkpt lat="38.8008888" lon="16.4822445"><ele>206.5</ele><time>2026-04-11T14:49:08.676Z</time></trkpt><trkpt lat="38.801009" lon="16.4819758"><ele>207.0</ele><time>2026-04-11T14:49:09.675Z</time></trkpt><trkpt lat="38.8011272" lon="16.4817082"><ele>207.0</ele><time>2026-04-11T14:49:10.676Z</time></trkpt><trkpt lat="38.8012463" lon="16.4814465"><ele>207.0</ele><time>2026-04-11T14:49:11.675Z</time></trkpt><trkpt lat="38.8013676" lon="16.4811748"><ele>207.0</ele><time>2026-04-11T14:49:12.675Z</time></trkpt><trkpt lat="38.8014921" lon="16.4809003"><ele>207.0</ele><time>2026-04-11T14:49:13.676Z</time></trkpt><trkpt lat="38.8016129" lon="16.4806279"><ele>207.0</ele><time>2026-04-11T14:49:14.675Z</time></trkpt><trkpt lat="38.8017359" lon="16.4803562"><ele>207.0</ele><time>2026-04-11T14:49:15.676Z</time></trkpt><trkpt lat="38.8018563" lon="16.4800887"><ele>207.0</ele><time>2026-04-11T14:49:16.675Z</time></trkpt><trkpt lat="38.8019791" lon="16.4798179"><ele>207.0</ele><time>2026-04-11T14:49:17.675Z</time></trkpt><trkpt lat="38.8020979" lon="16.4795496"><ele>206.0</ele><time>2026-04-11T14:49:18.675Z</time></trkpt><trkpt lat="38.8022196" lon="16.4792876"><ele>205.0</ele><time>2026-04-11T14:49:19.675Z</time></trkpt><trkpt lat="38.8023369" lon="16.4790277"><ele>205.0</ele><time>2026-04-11T14:49:20.676Z</time></trkpt><trkpt lat="38.8024517" lon="16.4787788"><ele>205.0</ele><time>2026-04-11T14:49:21.676Z</time></trkpt><trkpt lat="38.8025769" lon="16.4785409"><ele>205.0</ele><time>2026-04-11T14:49:22.675Z</time></trkpt><trkpt lat="38.8027204" lon="16.4783152"><ele>205.33333333333331</ele><time>2026-04-11T14:49:23.676Z</time></trkpt><trkpt lat="38.8028663" lon="16.478102"><ele>205.66666666666669</ele><time>2026-04-11T14:49:24.675Z</time></trkpt><trkpt lat="38.8030244" lon="16.4779064"><ele>206.0</ele><time>2026-04-11T14:49:25.675Z</time></trkpt><trkpt lat="38.8031892" lon="16.4777166"><ele>206.0</ele><time>2026-04-11T14:49:26.676Z</time></trkpt><trkpt lat="38.8033547" lon="16.4775229"><ele>206.0</ele><time>2026-04-11T14:49:27.675Z</time></trkpt><trkpt lat="38.8035199" lon="16.4773279"><ele>206.0</ele><time>2026-04-11T14:49:28.676Z</time></trkpt><trkpt lat="38.8036878" lon="16.4771315"><ele>207.0</ele><time>2026-04-11T14:49:29.675Z</time></trkpt><trkpt lat="38.8038561" lon="16.4769334"><ele>208.0</ele><time>2026-04-11T14:49:30.675Z</time></trkpt><trkpt lat="38.8040245" lon="16.4767351"><ele>208.0</ele><time>2026-04-11T14:49:31.675Z</time></trkpt><trkpt lat="38.8041956" lon="16.4765395"><ele>208.0</ele><time>2026-04-11T14:49:32.675Z</time></trkpt><trkpt lat="38.8043616" lon="16.4763388"><ele>208.5</ele><time>2026-04-11T14:49:33.675Z</time></trkpt><trkpt lat="38.8045283" lon="16.4761413"><ele>209.0</ele><time>2026-04-11T14:49:34.676Z</time></trkpt><trkpt lat="38.8046944" lon="16.4759399"><ele>209.0</ele><time>2026-04-11T14:49:35.676Z</time></trkpt><trkpt lat="38.8048655" lon="16.4757393"><ele>209.0</ele><time>2026-04-11T14:49:36.676Z</time></trkpt><trkpt lat="38.8050333" lon="16.475544"><ele>210.5</ele><time>2026-04-11T14:49:37.676Z</time></trkpt><trkpt lat="38.8052001" lon="16.4753476"><ele>212.0</ele><time>2026-04-11T14:49:38.676Z</time></trkpt><trkpt lat="38.8053653" lon="16.4751538"><ele>212.0</ele><time>2026-04-11T14:49:39.676Z</time></trkpt><trkpt lat="38.8055324" lon="16.4749595"><ele>212.0</ele><time>2026-04-11T14:49:40.675Z</time></trkpt><trkpt lat="38.8056973" lon="16.4747625"><ele>212.5</ele><time>2026-04-11T14:49:41.676Z</time></trkpt><trkpt lat="38.8058664" lon="16.474566"><ele>213.0</ele><time>2026-04-11T14:49:42.676Z</time></trkpt><trkpt lat="38.8060348" lon="16.4743665"><ele>213.0</ele><time>2026-04-11T14:49:43.675Z</time></trkpt><trkpt lat="38.8062018" lon="16.474168"><ele>213.0</ele><time>2026-04-11T14:49:44.675Z</time></trkpt><trkpt lat="38.8063682" lon="16.4739713"><ele>213.0</ele><time>2026-04-11T14:49:45.676Z</time></trkpt><trkpt lat="38.8065364" lon="16.4737731"><ele>213.0</ele><time>2026-04-11T14:49:46.675Z</time></trkpt><trkpt lat="38.8067047" lon="16.4735733"><ele>214.5</ele><time>2026-04-11T14:49:47.676Z</time></trkpt><trkpt lat="38.806873" lon="16.4733776"><ele>216.0</ele><time>2026-04-11T14:49:48.675Z</time></trkpt><trkpt lat="38.8070414" lon="16.4731783"><ele>216.0</ele><time>2026-04-11T14:49:49.675Z</time></trkpt><trkpt lat="38.8072097" lon="16.472977"><ele>216.0</ele><time>2026-04-11T14:49:50.676Z</time></trkpt><trkpt lat="38.807378" lon="16.4727754"><ele>217.0</ele><time>2026-04-11T14:49:51.675Z</time></trkpt><trkpt lat="38.8075494" lon="16.4725763"><ele>218.0</ele><time>2026-04-11T14:49:52.675Z</time></trkpt><trkpt lat="38.807721" lon="16.4723778"><ele>219.0</ele><time>2026-04-11T14:49:53.676Z</time></trkpt><trkpt lat="38.8078915" lon="16.4721806"><ele>220.0</ele><time>2026-04-11T14:49:54.675Z</time></trkpt><trkpt lat="38.8080615" lon="16.4719812"><ele>220.0</ele><time>2026-04-11T14:49:55.675Z</time></trkpt><trkpt lat="38.8082343" lon="16.4717799"><ele>220.0</ele><time>2026-04-11T14:49:56.675Z</time></trkpt><trkpt lat="38.8084048" lon="16.4715753"><ele>220.5</ele><time>2026-04-11T14:49:57.675Z</time></trkpt><trkpt lat="38.8085778" lon="16.4713702"><ele>221.0</ele><time>2026-04-11T14:49:58.675Z</time></trkpt><trkpt lat="38.8087512" lon="16.4711722"><ele>221.0</ele><time>2026-04-11T14:49:59.675Z</time></trkpt><trkpt lat="38.8089231" lon="16.4709696"><ele>221.0</ele><time>2026-04-11T14:50:00.676Z</time></trkpt><trkpt lat="38.8090934" lon="16.4707679"><ele>221.0</ele><time>2026-04-11T14:50:01.675Z</time></trkpt><trkpt lat="38.8092643" lon="16.4705628"><ele>221.0</ele><time>2026-04-11T14:50:02.676Z</time></trkpt><trkpt lat="38.8094315" lon="16.4703623"><ele>223.0</ele><time>2026-04-11T14:50:03.675Z</time></trkpt><trkpt lat="38.8095925" lon="16.4701569"><ele>225.0</ele><time>2026-04-11T14:50:04.675Z</time></trkpt><trkpt lat="38.8097582" lon="16.469956"><ele>225.0</ele><time>2026-04-11T14:50:05.676Z</time></trkpt><trkpt lat="38.8099188" lon="16.4697617"><ele>225.0</ele><time>2026-04-11T14:50:06.675Z</time></trkpt><trkpt lat="38.8100803" lon="16.4695709"><ele>225.0</ele><time>2026-04-11T14:50:07.675Z</time></trkpt><trkpt lat="38.8102463" lon="16.4693859"><ele>227.0</ele><time>2026-04-11T14:50:08.675Z</time></trkpt><trkpt lat="38.8104234" lon="16.4692077"><ele>229.0</ele><time>2026-04-11T14:50:09.675Z</time></trkpt><trkpt lat="38.8106087" lon="16.4690472"><ele>231.0</ele><time>2026-04-11T14:50:10.675Z</time></trkpt><trkpt lat="38.8108018" lon="16.4688975"><ele>230.33333333333331</ele><time>2026-04-11T14:50:11.676Z</time></trkpt><trkpt lat="38.8110004" lon="16.4687705"><ele>229.66666666666666</ele><time>2026-04-11T14:50:12.676Z</time></trkpt><trkpt lat="38.8112044" lon="16.4686539"><ele>229.0</ele><time>2026-04-11T14:50:13.676Z</time></trkpt><trkpt lat="38.8114173" lon="16.4685477"><ele>229.0</ele><time>2026-04-11T14:50:14.676Z</time></trkpt><trkpt lat="38.8116357" lon="16.4684381"><ele>229.0</ele><time>2026-04-11T14:50:15.675Z</time></trkpt><trkpt lat="38.811857" lon="16.468323"><ele>229.5</ele><time>2026-04-11T14:50:16.675Z</time></trkpt><trkpt lat="38.8120747" lon="16.468205"><ele>230.0</ele><time>2026-04-11T14:50:17.675Z</time></trkpt><trkpt lat="38.8122886" lon="16.4680845"><ele>230.0</ele><time>2026-04-11T14:50:18.676Z</time></trkpt><trkpt lat="38.8125065" lon="16.4679643"><ele>230.0</ele><time>2026-04-11T14:50:19.675Z</time></trkpt><trkpt lat="38.8127266" lon="16.467845"><ele>230.0</ele><time>2026-04-11T14:50:20.675Z</time></trkpt><trkpt lat="38.8129479" lon="16.4677237"><ele>230.0</ele><time>2026-04-11T14:50:21.675Z</time></trkpt><trkpt lat="38.8131679" lon="16.4676092"><ele>230.0</ele><time>2026-04-11T14:50:22.675Z</time></trkpt><trkpt lat="38.8133913" lon="16.4675019"><ele>230.0</ele><time>2026-04-11T14:50:23.675Z</time></trkpt><trkpt lat="38.8136195" lon="16.4674144"><ele>232.0</ele><time>2026-04-11T14:50:24.675Z</time></trkpt><trkpt lat="38.8138526" lon="16.4673398"><ele>234.0</ele><time>2026-04-11T14:50:25.675Z</time></trkpt><trkpt lat="38.8140876" lon="16.4672735"><ele>235.5</ele><time>2026-04-11T14:50:26.676Z</time></trkpt><trkpt lat="38.8143255" lon="16.4672027"><ele>237.0</ele><time>2026-04-11T14:50:27.675Z</time></trkpt><trkpt lat="38.814564" lon="16.4671325"><ele>234.5</ele><time>2026-04-11T14:50:28.676Z</time></trkpt><trkpt lat="38.8147955" lon="16.4670647"><ele>232.0</ele><time>2026-04-11T14:50:29.676Z</time></trkpt><trkpt lat="38.8150268" lon="16.4669971"><ele>236.0</ele><time>2026-04-11T14:50:30.676Z</time></trkpt><trkpt lat="38.8152539" lon="16.4669317"><ele>240.0</ele><time>2026-04-11T14:50:31.675Z</time></trkpt><trkpt lat="38.8154745" lon="16.4668655"><ele>240.0</ele><time>2026-04-11T14:50:32.675Z</time></trkpt><trkpt lat="38.8156998" lon="16.4667962"><ele>240.0</ele><time>2026-04-11T14:50:33.676Z</time></trkpt><trkpt lat="38.8159229" lon="16.4667279"><ele>241.0</ele><time>2026-04-11T14:50:34.675Z</time></trkpt><trkpt lat="38.8161402" lon="16.4666583"><ele>242.0</ele><time>2026-04-11T14:50:35.676Z</time></trkpt><trkpt lat="38.8163491" lon="16.4665757"><ele>243.0</ele><time>2026-04-11T14:50:36.676Z</time></trkpt><trkpt lat="38.8165493" lon="16.46648"><ele>243.0</ele><time>2026-04-11T14:50:37.675Z</time></trkpt><trkpt lat="38.816744" lon="16.466354"><ele>243.0</ele><time>2026-04-11T14:50:38.675Z</time></trkpt><trkpt lat="38.8169337" lon="16.4662275"><ele>243.0</ele><time>2026-04-11T14:50:39.676Z</time></trkpt><trkpt lat="38.8171282" lon="16.4660965"><ele>245.66666666666669</ele><time>2026-04-11T14:50:40.675Z</time></trkpt><trkpt lat="38.817322" lon="16.4659628"><ele>248.33333333333334</ele><time>2026-04-11T14:50:41.676Z</time></trkpt><trkpt lat="38.8175108" lon="16.4658358"><ele>251.0</ele><time>2026-04-11T14:50:42.675Z</time></trkpt><trkpt lat="38.8177031" lon="16.4657051"><ele>253.66666666666669</ele><time>2026-04-11T14:50:43.675Z</time></trkpt><trkpt lat="38.8178904" lon="16.4655751"><ele>256.3333333333333</ele><time>2026-04-11T14:50:44.675Z</time></trkpt><trkpt lat="38.8180815" lon="16.4654451"><ele>259.0</ele><time>2026-04-11T14:50:45.676Z</time></trkpt><trkpt lat="38.8182655" lon="16.4653202"><ele>259.0</ele><time>2026-04-11T14:50:46.676Z</time></trkpt><trkpt lat="38.8184485" lon="16.4651871"><ele>259.0</ele><time>2026-04-11T14:50:47.676Z</time></trkpt><trkpt lat="38.8186241" lon="16.4650305"><ele>259.0</ele><time>2026-04-11T14:50:48.676Z</time></trkpt><trkpt lat="38.8187873" lon="16.4648479"><ele>262.66666666666663</ele><time>2026-04-11T14:50:49.675Z</time></trkpt><trkpt lat="38.8189237" lon="16.4646595"><ele>266.3333333333333</ele><time>2026-04-11T14:50:50.675Z</time></trkpt><trkpt lat="38.8190455" lon="16.4644631"><ele>270.0</ele><time>2026-04-11T14:50:51.675Z</time></trkpt><trkpt lat="38.8191679" lon="16.4642626"><ele>270.0</ele><time>2026-04-11T14:50:52.675Z</time></trkpt><trkpt lat="38.8192878" lon="16.4640605"><ele>270.0</ele><time>2026-04-11T14:50:53.676Z</time></trkpt><trkpt lat="38.8194188" lon="16.4638799"><ele>270.0</ele><time>2026-04-11T14:50:54.676Z</time></trkpt><trkpt lat="38.8195592" lon="16.4637219"><ele>273.6666666666667</ele><time>2026-04-11T14:50:55.675Z</time></trkpt><trkpt lat="38.8197171" lon="16.4635803"><ele>277.33333333333337</ele><time>2026-04-11T14:50:56.676Z</time></trkpt><trkpt lat="38.8198843" lon="16.4634497"><ele>281.0</ele><time>2026-04-11T14:50:57.675Z</time></trkpt><trkpt lat="38.8200698" lon="16.4633441"><ele>287.33333333333337</ele><time>2026-04-11T14:50:58.675Z</time></trkpt><trkpt lat="38.8202572" lon="16.4632499"><ele>293.6666666666667</ele><time>2026-04-11T14:50:59.676Z</time></trkpt><trkpt lat="38.8204397" lon="16.463148"><ele>300.0</ele><time>2026-04-11T14:51:00.676Z</time></trkpt><trkpt lat="38.8206134" lon="16.4630158"><ele>297.6666666666667</ele><time>2026-04-11T14:51:01.675Z</time></trkpt><trkpt lat="38.8207682" lon="16.4628531"><ele>295.33333333333337</ele><time>2026-04-11T14:51:02.675Z</time></trkpt><trkpt lat="38.8209062" lon="16.4626538"><ele>293.0</ele><time>2026-04-11T14:51:03.676Z</time></trkpt><trkpt lat="38.8210243" lon="16.4624348"><ele>300.33333333333337</ele><time>2026-04-11T14:51:04.676Z</time></trkpt><trkpt lat="38.8211163" lon="16.4622022"><ele>307.6666666666667</ele><time>2026-04-11T14:51:05.675Z</time></trkpt><trkpt lat="38.8211893" lon="16.4619566"><ele>315.0</ele><time>2026-04-11T14:51:06.675Z</time></trkpt><trkpt lat="38.8212452" lon="16.4617172"><ele>315.0</ele><time>2026-04-11T14:51:07.675Z</time></trkpt><trkpt lat="38.8213074" lon="16.4614717"><ele>315.0</ele><time>2026-04-11T14:51:08.676Z</time></trkpt><trkpt lat="38.8213806" lon="16.4612313"><ele>315.0</ele><time>2026-04-11T14:51:09.675Z</time></trkpt><trkpt lat="38.8214674" lon="16.4610006"><ele>312.6666666666667</ele><time>2026-04-11T14:51:10.676Z</time></trkpt><trkpt lat="38.8215693" lon="16.4607708"><ele>310.33333333333337</ele><time>2026-04-11T14:51:11.675Z</time></trkpt><trkpt lat="38.8216767" lon="16.4605459"><ele>308.0</ele><time>2026-04-11T14:51:12.675Z</time></trkpt><trkpt lat="38.8217927" lon="16.4603374"><ele>312.6666666666667</ele><time>2026-04-11T14:51:13.675Z</time></trkpt><trkpt lat="38.8219148" lon="16.460143"><ele>317.3333333333333</ele><time>2026-04-11T14:51:14.675Z</time></trkpt><trkpt lat="38.8220376" lon="16.459947"><ele>322.0</ele><time>2026-04-11T14:51:15.675Z</time></trkpt><trkpt lat="38.822166" lon="16.4597502"><ele>319.0</ele><time>2026-04-11T14:51:16.675Z</time></trkpt><trkpt lat="38.822287" lon="16.4595486"><ele>316.0</ele><time>2026-04-11T14:51:17.675Z</time></trkpt><trkpt lat="38.8223944" lon="16.4593277"><ele>313.0</ele><time>2026-04-11T14:51:18.675Z</time></trkpt><trkpt lat="38.8224817" lon="16.4591092"><ele>313.0</ele><time>2026-04-11T14:51:19.675Z</time></trkpt><trkpt lat="38.8225484" lon="16.4588828"><ele>313.0</ele><time>2026-04-11T14:51:20.676Z</time></trkpt><trkpt lat="38.8225916" lon="16.4586487"><ele>313.0</ele><time>2026-04-11T14:51:21.675Z</time></trkpt><trkpt lat="38.8226107" lon="16.4584109"><ele>313.66666666666663</ele><time>2026-04-11T14:51:22.675Z</time></trkpt><trkpt lat="38.8226065" lon="16.4581726"><ele>314.3333333333333</ele><time>2026-04-11T14:51:23.675Z</time></trkpt><trkpt lat="38.8225888" lon="16.457943"><ele>315.0</ele><time>2026-04-11T14:51:24.675Z</time></trkpt><trkpt lat="38.8225579" lon="16.4577209"><ele>315.0</ele><time>2026-04-11T14:51:25.675Z</time></trkpt><trkpt lat="38.8225175" lon="16.4575159"><ele>315.0</ele><time>2026-04-11T14:51:26.675Z</time></trkpt><trkpt lat="38.8224688" lon="16.45731"><ele>315.0</ele><time>2026-04-11T14:51:27.675Z</time></trkpt><trkpt lat="38.8224263" lon="16.4571087"><ele>317.0</ele><time>2026-04-11T14:51:28.675Z</time></trkpt><trkpt lat="38.8223831" lon="16.4569056"><ele>319.0</ele><time>2026-04-11T14:51:29.675Z</time></trkpt><trkpt lat="38.8223423" lon="16.4566969"><ele>321.0</ele><time>2026-04-11T14:51:30.675Z</time></trkpt><trkpt lat="38.8223268" lon="16.456473"><ele>321.0</ele><time>2026-04-11T14:51:31.675Z</time></trkpt><trkpt lat="38.8223219" lon="16.4562336"><ele>321.0</ele><time>2026-04-11T14:51:32.676Z</time></trkpt><trkpt lat="38.8223349" lon="16.455983"><ele>321.0</ele><time>2026-04-11T14:51:33.675Z</time></trkpt><trkpt lat="38.8223615" lon="16.4557305"><ele>321.0</ele><time>2026-04-11T14:51:34.675Z</time></trkpt><trkpt lat="38.8223886" lon="16.4554727"><ele>321.0</ele><time>2026-04-11T14:51:35.676Z</time></trkpt><trkpt lat="38.8224202" lon="16.455204"><ele>321.0</ele><time>2026-04-11T14:51:36.675Z</time></trkpt><trkpt lat="38.8224492" lon="16.4549232"><ele>321.0</ele><time>2026-04-11T14:51:37.675Z</time></trkpt><trkpt lat="38.8224675" lon="16.4546451"><ele>321.0</ele><time>2026-04-11T14:51:38.676Z</time></trkpt><trkpt lat="38.822477" lon="16.454367"><ele>321.0</ele><time>2026-04-11T14:51:39.675Z</time></trkpt><trkpt lat="38.8224787" lon="16.4540988"><ele>323.3333333333333</ele><time>2026-04-11T14:51:40.675Z</time></trkpt><trkpt lat="38.8224716" lon="16.453838"><ele>325.66666666666663</ele><time>2026-04-11T14:51:41.676Z</time></trkpt><trkpt lat="38.8224616" lon="16.4535744"><ele>328.0</ele><time>2026-04-11T14:51:42.675Z</time></trkpt><trkpt lat="38.8224468" lon="16.4533129"><ele>330.3333333333333</ele><time>2026-04-11T14:51:43.675Z</time></trkpt><trkpt lat="38.8224236" lon="16.4530547"><ele>332.6666666666667</ele><time>2026-04-11T14:51:44.675Z</time></trkpt><trkpt lat="38.8223993" lon="16.4528011"><ele>335.0</ele><time>2026-04-11T14:51:45.676Z</time></trkpt><trkpt lat="38.8223669" lon="16.4525493"><ele>337.6666666666667</ele><time>2026-04-11T14:51:46.676Z</time></trkpt><trkpt lat="38.8223326" lon="16.4523009"><ele>340.3333333333333</ele><time>2026-04-11T14:51:47.675Z</time></trkpt><trkpt lat="38.8222977" lon="16.4520502"><ele>343.0</ele><time>2026-04-11T14:51:48.675Z</time></trkpt><trkpt lat="38.8222704" lon="16.451803"><ele>346.3333333333333</ele><time>2026-04-11T14:51:49.675Z</time></trkpt><trkpt lat="38.8222538" lon="16.4515731"><ele>349.6666666666667</ele><time>2026-04-11T14:51:50.675Z</time></trkpt><trkpt lat="38.8222477" lon="16.4513494"><ele>353.0</ele><time>2026-04-11T14:51:51.675Z</time></trkpt><trkpt lat="38.8222585" lon="16.4511309"><ele>354.0</ele><time>2026-04-11T14:51:52.676Z</time></trkpt><trkpt lat="38.8222869" lon="16.4509103"><ele>355.0</ele><time>2026-04-11T14:51:53.676Z</time></trkpt><trkpt lat="38.8223381" lon="16.4507013"><ele>356.0</ele><time>2026-04-11T14:51:54.675Z</time></trkpt><trkpt lat="38.8224051" lon="16.4505036"><ele>355.0</ele><time>2026-04-11T14:51:55.676Z</time></trkpt><trkpt lat="38.8224973" lon="16.450318"><ele>354.0</ele><time>2026-04-11T14:51:56.675Z</time></trkpt><trkpt lat="38.8226104" lon="16.4501595"><ele>353.0</ele><time>2026-04-11T14:51:57.675Z</time></trkpt><trkpt lat="38.8227299" lon="16.4500085"><ele>357.6666666666667</ele><time>2026-04-11T14:51:58.675Z</time></trkpt><trkpt lat="38.8228501" lon="16.4498575"><ele>362.3333333333333</ele><time>2026-04-11T14:51:59.675Z</time></trkpt><trkpt lat="38.8229623" lon="16.4496983"><ele>367.0</ele><time>2026-04-11T14:52:00.676Z</time></trkpt><trkpt lat="38.8230662" lon="16.4495345"><ele>367.5</ele><time>2026-04-11T14:52:01.675Z</time></trkpt><trkpt lat="38.8231556" lon="16.4493707"><ele>368.0</ele><time>2026-04-11T14:52:02.675Z</time></trkpt><trkpt lat="38.823242" lon="16.449217"><ele>368.5</ele><time>2026-04-11T14:52:03.675Z</time></trkpt><trkpt lat="38.8233318" lon="16.4490875"><ele>369.0</ele><time>2026-04-11T14:52:04.675Z</time></trkpt><trkpt lat="38.8234197" lon="16.4489761"><ele>369.1666666666667</ele><time>2026-04-11T14:52:05.676Z</time></trkpt><trkpt lat="38.8235022" lon="16.4488841"><ele>369.3333333333333</ele><time>2026-04-11T14:52:06.675Z</time></trkpt><trkpt lat="38.8235804" lon="16.4488235"><ele>369.5</ele><time>2026-04-11T14:52:07.675Z</time></trkpt><trkpt lat="38.8236535" lon="16.448787"><ele>369.66666666666663</ele><time>2026-04-11T14:52:08.676Z</time></trkpt><trkpt lat="38.8237187" lon="16.4487734"><ele>369.8333333333333</ele><time>2026-04-11T14:52:09.676Z</time></trkpt><trkpt lat="38.8237841" lon="16.4487711"><ele>370.0</ele><time>2026-04-11T14:52:10.675Z</time></trkpt><trkpt lat="38.8238491" lon="16.4487751"><ele>370.2</ele><time>2026-04-11T14:52:11.675Z</time></trkpt><trkpt lat="38.8239466" lon="16.4487551"><ele>370.4</ele><time>2026-04-11T14:52:13.675Z</time></trkpt><trkpt lat="38.8239852" lon="16.4486417"><ele>370.6</ele><time>2026-04-11T14:52:15.676Z</time></trkpt><trkpt lat="38.8240078" lon="16.4485034"><ele>370.8</ele><time>2026-04-11T14:52:17.675Z</time></trkpt><trkpt lat="38.8240669" lon="16.4483519"><ele>371.0</ele><time>2026-04-11T14:52:19.675Z</time></trkpt><trkpt lat="38.8241205" lon="16.4482814"><ele>371.0</ele><time>2026-04-11T14:52:20.675Z</time></trkpt><trkpt lat="38.8241901" lon="16.44822"><ele>371.0</ele><time>2026-04-11T14:52:21.675Z</time></trkpt><trkpt lat="38.8242668" lon="16.4481678"><ele>371.0</ele><time>2026-04-11T14:52:22.675Z</time></trkpt><trkpt lat="38.8243507" lon="16.448118"><ele>371.0</ele><time>2026-04-11T14:52:23.675Z</time></trkpt><trkpt lat="38.8244421" lon="16.4480699"><ele>371.0</ele><time>2026-04-11T14:52:24.675Z</time></trkpt><trkpt lat="38.8245328" lon="16.4480263"><ele>370.4</ele><time>2026-04-11T14:52:25.675Z</time></trkpt><trkpt lat="38.8246245" lon="16.447986"><ele>369.8</ele><time>2026-04-11T14:52:26.676Z</time></trkpt><trkpt lat="38.8247129" lon="16.4479537"><ele>369.2</ele><time>2026-04-11T14:52:27.676Z</time></trkpt><trkpt lat="38.8248084" lon="16.44793"><ele>368.59999999999997</ele><time>2026-04-11T14:52:28.675Z</time></trkpt><trkpt lat="38.8249127" lon="16.4479074"><ele>368.0</ele><time>2026-04-11T14:52:29.676Z</time></trkpt><trkpt lat="38.8250199" lon="16.4479023"><ele>368.0</ele><time>2026-04-11T14:52:30.675Z</time></trkpt><trkpt lat="38.8251273" lon="16.447902"><ele>368.0</ele><time>2026-04-11T14:52:31.676Z</time></trkpt><trkpt lat="38.8252444" lon="16.4479077"><ele>368.0</ele><time>2026-04-11T14:52:32.675Z</time></trkpt><trkpt lat="38.8253647" lon="16.4479272"><ele>368.0</ele><time>2026-04-11T14:52:33.675Z</time></trkpt><trkpt lat="38.8254867" lon="16.4479583"><ele>366.75</ele><time>2026-04-11T14:52:34.675Z</time></trkpt><trkpt lat="38.8256097" lon="16.4479954"><ele>365.5</ele><time>2026-04-11T14:52:35.675Z</time></trkpt><trkpt lat="38.8257284" lon="16.4480441"><ele>364.25</ele><time>2026-04-11T14:52:36.675Z</time></trkpt><trkpt lat="38.8258439" lon="16.4481056"><ele>363.0</ele><time>2026-04-11T14:52:37.675Z</time></trkpt><trkpt lat="38.825958" lon="16.4481784"><ele>363.5</ele><time>2026-04-11T14:52:38.676Z</time></trkpt><trkpt lat="38.8260668" lon="16.4482598"><ele>364.0</ele><time>2026-04-11T14:52:39.676Z</time></trkpt><trkpt lat="38.8261766" lon="16.4483518"><ele>364.5</ele><time>2026-04-11T14:52:40.676Z</time></trkpt><trkpt lat="38.8262897" lon="16.4484534"><ele>365.0</ele><time>2026-04-11T14:52:41.675Z</time></trkpt><trkpt lat="38.8264065" lon="16.4485617"><ele>365.0</ele><time>2026-04-11T14:52:42.675Z</time></trkpt><trkpt lat="38.8265218" lon="16.4486756"><ele>365.0</ele><time>2026-04-11T14:52:43.675Z</time></trkpt><trkpt lat="38.826635" lon="16.448785"><ele>365.0</ele><time>2026-04-11T14:52:44.675Z</time></trkpt><trkpt lat="38.826748" lon="16.448891"><ele>365.0</ele><time>2026-04-11T14:52:45.675Z</time></trkpt><trkpt lat="38.8268613" lon="16.4489984"><ele>364.75</ele><time>2026-04-11T14:52:46.675Z</time></trkpt><trkpt lat="38.8269748" lon="16.4490936"><ele>364.5</ele><time>2026-04-11T14:52:47.675Z</time></trkpt><trkpt lat="38.8270947" lon="16.4491598"><ele>364.25</ele><time>2026-04-11T14:52:48.675Z</time></trkpt><trkpt lat="38.8272304" lon="16.449196"><ele>364.0</ele><time>2026-04-11T14:52:49.676Z</time></trkpt><trkpt lat="38.8273764" lon="16.4492154"><ele>364.0</ele><time>2026-04-11T14:52:50.675Z</time></trkpt><trkpt lat="38.8275155" lon="16.4492104"><ele>364.0</ele><time>2026-04-11T14:52:51.675Z</time></trkpt><trkpt lat="38.8276545" lon="16.4491707"><ele>364.0</ele><time>2026-04-11T14:52:52.675Z</time></trkpt><trkpt lat="38.827785" lon="16.4491332"><ele>364.0</ele><time>2026-04-11T14:52:53.675Z</time></trkpt><trkpt lat="38.8279071" lon="16.4491031"><ele>363.66666666666663</ele><time>2026-04-11T14:52:54.675Z</time></trkpt><trkpt lat="38.8280182" lon="16.4490943"><ele>363.3333333333333</ele><time>2026-04-11T14:52:55.675Z</time></trkpt><trkpt lat="38.8281187" lon="16.4490929"><ele>363.0</ele><time>2026-04-11T14:52:56.675Z</time></trkpt><trkpt lat="38.8281927" lon="16.4490955"><ele>362.6666666666667</ele><time>2026-04-11T14:52:57.675Z</time></trkpt><trkpt lat="38.8282595" lon="16.4491"><ele>362.33333333333337</ele><time>2026-04-11T14:52:59.675Z</time></trkpt><trkpt lat="38.8283379" lon="16.4491591"><ele>362.0</ele><time>2026-04-11T14:53:04.675Z</time></trkpt><trkpt lat="38.8284164" lon="16.4492581"><ele>361.20000000000005</ele><time>2026-04-11T14:53:06.675Z</time></trkpt><trkpt lat="38.8285268" lon="16.449343"><ele>360.4</ele><time>2026-04-11T14:53:08.675Z</time></trkpt><trkpt lat="38.8285835" lon="16.4494017"><ele>359.6</ele><time>2026-04-11T14:53:09.675Z</time></trkpt><trkpt lat="38.8286336" lon="16.4494771"><ele>358.79999999999995</ele><time>2026-04-11T14:53:10.676Z</time></trkpt><trkpt lat="38.8286645" lon="16.4495808"><ele>358.0</ele><time>2026-04-11T14:53:11.675Z</time></trkpt><trkpt lat="38.8286929" lon="16.4496991"><ele>358.0</ele><time>2026-04-11T14:53:12.675Z</time></trkpt><trkpt lat="38.8287138" lon="16.4498203"><ele>358.0</ele><time>2026-04-11T14:53:13.675Z</time></trkpt><trkpt lat="38.8287383" lon="16.4499454"><ele>358.0</ele><time>2026-04-11T14:53:14.675Z</time></trkpt><trkpt lat="38.828762" lon="16.4500748"><ele>358.0</ele><time>2026-04-11T14:53:15.675Z</time></trkpt><trkpt lat="38.8287855" lon="16.450217"><ele>358.0</ele><time>2026-04-11T14:53:16.675Z</time></trkpt><trkpt lat="38.8288102" lon="16.4503617"><ele>357.75</ele><time>2026-04-11T14:53:17.675Z</time></trkpt><trkpt lat="38.8288335" lon="16.4505128"><ele>357.5</ele><time>2026-04-11T14:53:18.675Z</time></trkpt><trkpt lat="38.8288508" lon="16.4506696"><ele>357.25</ele><time>2026-04-11T14:53:19.676Z</time></trkpt><trkpt lat="38.8288733" lon="16.4508373"><ele>357.0</ele><time>2026-04-11T14:53:20.676Z</time></trkpt><trkpt lat="38.8288948" lon="16.4510078"><ele>357.0</ele><time>2026-04-11T14:53:21.676Z</time></trkpt><trkpt lat="38.8289124" lon="16.4511785"><ele>357.0</ele><time>2026-04-11T14:53:22.675Z</time></trkpt><trkpt lat="38.8289288" lon="16.4513585"><ele>357.0</ele><time>2026-04-11T14:53:23.675Z</time></trkpt><trkpt lat="38.8289462" lon="16.4515295"><ele>357.0</ele><time>2026-04-11T14:53:24.675Z</time></trkpt><trkpt lat="38.8289535" lon="16.451707"><ele>356.3333333333333</ele><time>2026-04-11T14:53:25.675Z</time></trkpt><trkpt lat="38.8289605" lon="16.4518899"><ele>355.66666666666663</ele><time>2026-04-11T14:53:26.676Z</time></trkpt><trkpt lat="38.8289609" lon="16.452084"><ele>355.0</ele><time>2026-04-11T14:53:27.676Z</time></trkpt><trkpt lat="38.8289499" lon="16.4522856"><ele>354.3333333333333</ele><time>2026-04-11T14:53:28.675Z</time></trkpt><trkpt lat="38.8289388" lon="16.4524973"><ele>353.6666666666667</ele><time>2026-04-11T14:53:29.675Z</time></trkpt><trkpt lat="38.8289272" lon="16.4527157"><ele>353.0</ele><time>2026-04-11T14:53:30.676Z</time></trkpt><trkpt lat="38.8289216" lon="16.4529367"><ele>352.0</ele><time>2026-04-11T14:53:31.675Z</time></trkpt><trkpt lat="38.8289137" lon="16.4531585"><ele>351.0</ele><time>2026-04-11T14:53:32.675Z</time></trkpt><trkpt lat="38.8289021" lon="16.4533866"><ele>350.0</ele><time>2026-04-11T14:53:33.675Z</time></trkpt><trkpt lat="38.8288919" lon="16.4536192"><ele>348.6666666666667</ele><time>2026-04-11T14:53:34.675Z</time></trkpt><trkpt lat="38.8288831" lon="16.453856"><ele>347.3333333333333</ele><time>2026-04-11T14:53:35.675Z</time></trkpt><trkpt lat="38.8288678" lon="16.4540943"><ele>346.0</ele><time>2026-04-11T14:53:36.675Z</time></trkpt><trkpt lat="38.8288555" lon="16.4543336"><ele>346.0</ele><time>2026-04-11T14:53:37.676Z</time></trkpt><trkpt lat="38.8288409" lon="16.4545583"><ele>346.0</ele><time>2026-04-11T14:53:38.675Z</time></trkpt><trkpt lat="38.8288302" lon="16.4547754"><ele>346.0</ele><time>2026-04-11T14:53:39.676Z</time></trkpt><trkpt lat="38.8288169" lon="16.455003"><ele>345.66666666666663</ele><time>2026-04-11T14:53:40.675Z</time></trkpt><trkpt lat="38.8287993" lon="16.4552298"><ele>345.3333333333333</ele><time>2026-04-11T14:53:41.676Z</time></trkpt><trkpt lat="38.8287839" lon="16.4554537"><ele>345.0</ele><time>2026-04-11T14:53:42.675Z</time></trkpt><trkpt lat="38.8287745" lon="16.4556783"><ele>344.3333333333333</ele><time>2026-04-11T14:53:43.676Z</time></trkpt><trkpt lat="38.828766" lon="16.4558927"><ele>343.66666666666663</ele><time>2026-04-11T14:53:44.675Z</time></trkpt><trkpt lat="38.8287582" lon="16.4560916"><ele>343.0</ele><time>2026-04-11T14:53:45.676Z</time></trkpt><trkpt lat="38.8287485" lon="16.4562908"><ele>342.3333333333333</ele><time>2026-04-11T14:53:46.675Z</time></trkpt><trkpt lat="38.8287326" lon="16.4565033"><ele>341.6666666666667</ele><time>2026-04-11T14:53:47.675Z</time></trkpt><trkpt lat="38.828716" lon="16.4567126"><ele>341.0</ele><time>2026-04-11T14:53:48.675Z</time></trkpt><trkpt lat="38.8286971" lon="16.4569215"><ele>339.6666666666667</ele><time>2026-04-11T14:53:49.675Z</time></trkpt><trkpt lat="38.8286753" lon="16.4571332"><ele>338.3333333333333</ele><time>2026-04-11T14:53:50.675Z</time></trkpt><trkpt lat="38.8286535" lon="16.4573543"><ele>337.0</ele><time>2026-04-11T14:53:51.675Z</time></trkpt><trkpt lat="38.8286271" lon="16.4575749"><ele>337.0</ele><time>2026-04-11T14:53:52.675Z</time></trkpt><trkpt lat="38.828593" lon="16.457798"><ele>337.0</ele><time>2026-04-11T14:53:53.675Z</time></trkpt><trkpt lat="38.8285618" lon="16.4580259"><ele>337.0</ele><time>2026-04-11T14:53:54.675Z</time></trkpt><trkpt lat="38.8285259" lon="16.458253"><ele>337.0</ele><time>2026-04-11T14:53:55.675Z</time></trkpt><trkpt lat="38.8284865" lon="16.4584817"><ele>337.0</ele><time>2026-04-11T14:53:56.676Z</time></trkpt><trkpt lat="38.8284568" lon="16.4587224"><ele>337.0</ele><time>2026-04-11T14:53:57.675Z</time></trkpt><trkpt lat="38.8284375" lon="16.4589712"><ele>336.0</ele><time>2026-04-11T14:53:58.675Z</time></trkpt><trkpt lat="38.8284365" lon="16.4592248"><ele>335.0</ele><time>2026-04-11T14:53:59.676Z</time></trkpt><trkpt lat="38.8284395" lon="16.4594871"><ele>334.0</ele><time>2026-04-11T14:54:00.675Z</time></trkpt><trkpt lat="38.8284472" lon="16.4597595"><ele>333.0</ele><time>2026-04-11T14:54:01.676Z</time></trkpt><trkpt lat="38.8284541" lon="16.4600337"><ele>332.0</ele><time>2026-04-11T14:54:02.676Z</time></trkpt><trkpt lat="38.8284617" lon="16.4602979"><ele>331.0</ele><time>2026-04-11T14:54:03.675Z</time></trkpt><trkpt lat="38.8284665" lon="16.4605694"><ele>329.66666666666663</ele><time>2026-04-11T14:54:04.676Z</time></trkpt><trkpt lat="38.8284701" lon="16.460838"><ele>328.3333333333333</ele><time>2026-04-11T14:54:05.675Z</time></trkpt><trkpt lat="38.8284774" lon="16.4611036"><ele>327.0</ele><time>2026-04-11T14:54:06.675Z</time></trkpt><trkpt lat="38.8284822" lon="16.4613783"><ele>322.0</ele><time>2026-04-11T14:54:07.676Z</time></trkpt><trkpt lat="38.8284801" lon="16.4616745"><ele>317.0</ele><time>2026-04-11T14:54:08.676Z</time></trkpt><trkpt lat="38.8284841" lon="16.4619761"><ele>315.5</ele><time>2026-04-11T14:54:09.676Z</time></trkpt><trkpt lat="38.8284876" lon="16.4622891"><ele>314.0</ele><time>2026-04-11T14:54:10.675Z</time></trkpt><trkpt lat="38.8284937" lon="16.4626034"><ele>314.0</ele><time>2026-04-11T14:54:11.676Z</time></trkpt><trkpt lat="38.8284976" lon="16.4629194"><ele>314.0</ele><time>2026-04-11T14:54:12.675Z</time></trkpt><trkpt lat="38.8284995" lon="16.4632396"><ele>313.5</ele><time>2026-04-11T14:54:13.675Z</time></trkpt><trkpt lat="38.8285021" lon="16.4635571"><ele>313.0</ele><time>2026-04-11T14:54:14.675Z</time></trkpt><trkpt lat="38.8285073" lon="16.4638726"><ele>313.0</ele><time>2026-04-11T14:54:15.675Z</time></trkpt><trkpt lat="38.8285109" lon="16.4641797"><ele>313.0</ele><time>2026-04-11T14:54:16.676Z</time></trkpt><trkpt lat="38.8285157" lon="16.4644884"><ele>312.5</ele><time>2026-04-11T14:54:17.675Z</time></trkpt><trkpt lat="38.8285263" lon="16.464799"><ele>312.0</ele><time>2026-04-11T14:54:18.676Z</time></trkpt><trkpt lat="38.8285328" lon="16.465102"><ele>312.0</ele><time>2026-04-11T14:54:19.676Z</time></trkpt><trkpt lat="38.8285381" lon="16.4653912"><ele>312.0</ele><time>2026-04-11T14:54:20.676Z</time></trkpt><trkpt lat="38.8285403" lon="16.4656892"><ele>312.0</ele><time>2026-04-11T14:54:21.675Z</time></trkpt><trkpt lat="38.8285435" lon="16.4659902"><ele>312.0</ele><time>2026-04-11T14:54:22.676Z</time></trkpt><trkpt lat="38.8285461" lon="16.466293"><ele>311.5</ele><time>2026-04-11T14:54:23.675Z</time></trkpt><trkpt lat="38.8285486" lon="16.4665988"><ele>311.0</ele><time>2026-04-11T14:54:24.675Z</time></trkpt><trkpt lat="38.8285496" lon="16.466898"><ele>310.5</ele><time>2026-04-11T14:54:25.676Z</time></trkpt><trkpt lat="38.8285554" lon="16.4671951"><ele>310.0</ele><time>2026-04-11T14:54:26.675Z</time></trkpt><trkpt lat="38.8285633" lon="16.4674922"><ele>310.0</ele><time>2026-04-11T14:54:27.675Z</time></trkpt><trkpt lat="38.8285717" lon="16.4677874"><ele>310.0</ele><time>2026-04-11T14:54:28.676Z</time></trkpt><trkpt lat="38.8285758" lon="16.468081"><ele>310.5</ele><time>2026-04-11T14:54:29.675Z</time></trkpt><trkpt lat="38.8285772" lon="16.4683697"><ele>311.0</ele><time>2026-04-11T14:54:30.675Z</time></trkpt><trkpt lat="38.8285788" lon="16.4686606"><ele>313.0</ele><time>2026-04-11T14:54:31.676Z</time></trkpt><trkpt lat="38.8285819" lon="16.4689485"><ele>315.0</ele><time>2026-04-11T14:54:32.675Z</time></trkpt><trkpt lat="38.8285851" lon="16.4692382"><ele>315.0</ele><time>2026-04-11T14:54:33.675Z</time></trkpt><trkpt lat="38.8285919" lon="16.4695209"><ele>315.0</ele><time>2026-04-11T14:54:34.675Z</time></trkpt><trkpt lat="38.828593" lon="16.4698057"><ele>315.0</ele><time>2026-04-11T14:54:35.676Z</time></trkpt><trkpt lat="38.8285953" lon="16.4700915"><ele>315.3333333333333</ele><time>2026-04-11T14:54:36.675Z</time></trkpt><trkpt lat="38.8285971" lon="16.4703766"><ele>315.66666666666663</ele><time>2026-04-11T14:54:37.676Z</time></trkpt><trkpt lat="38.828605" lon="16.4706659"><ele>316.0</ele><time>2026-04-11T14:54:38.676Z</time></trkpt><trkpt lat="38.8286104" lon="16.4709535"><ele>316.0</ele><time>2026-04-11T14:54:39.675Z</time></trkpt><trkpt lat="38.8286121" lon="16.4712372"><ele>316.0</ele><time>2026-04-11T14:54:40.675Z</time></trkpt><trkpt lat="38.8286166" lon="16.4715203"><ele>316.0</ele><time>2026-04-11T14:54:41.675Z</time></trkpt><trkpt lat="38.8286276" lon="16.4723888"><ele>317.5</ele><time>2026-04-11T14:54:44.675Z</time></trkpt><trkpt lat="38.8286294" lon="16.4726821"><ele>319.0</ele><time>2026-04-11T14:54:45.675Z</time></trkpt><trkpt lat="38.8286326" lon="16.4729726"><ele>319.0</ele><time>2026-04-11T14:54:46.675Z</time></trkpt><trkpt lat="38.8286485" lon="16.4735475"><ele>319.0</ele><time>2026-04-11T14:54:48.675Z</time></trkpt><trkpt lat="38.8286525" lon="16.4738473"><ele>319.0</ele><time>2026-04-11T14:54:49.676Z</time></trkpt><trkpt lat="38.8286595" lon="16.4741522"><ele>319.0</ele><time>2026-04-11T14:54:50.676Z</time></trkpt><trkpt lat="38.8286744" lon="16.4750488"><ele>319.0</ele><time>2026-04-11T14:54:53.675Z</time></trkpt><trkpt lat="38.8286777" lon="16.4753548"><ele>319.0</ele><time>2026-04-11T14:54:54.675Z</time></trkpt><trkpt lat="38.8286775" lon="16.4756591"><ele>319.5</ele><time>2026-04-11T14:54:55.675Z</time></trkpt><trkpt lat="38.8286831" lon="16.4759686"><ele>320.0</ele><time>2026-04-11T14:54:56.675Z</time></trkpt><trkpt lat="38.8286896" lon="16.47628"><ele>321.0</ele><time>2026-04-11T14:54:57.676Z</time></trkpt><trkpt lat="38.828692" lon="16.4765965"><ele>322.0</ele><time>2026-04-11T14:54:58.675Z</time></trkpt><trkpt lat="38.8286959" lon="16.4769069"><ele>322.5</ele><time>2026-04-11T14:54:59.676Z</time></trkpt><trkpt lat="38.8286972" lon="16.47722"><ele>323.0</ele><time>2026-04-11T14:55:00.676Z</time></trkpt><trkpt lat="38.8287009" lon="16.4775242"><ele>323.0</ele><time>2026-04-11T14:55:01.675Z</time></trkpt><trkpt lat="38.8287042" lon="16.4778318"><ele>323.0</ele><time>2026-04-11T14:55:02.675Z</time></trkpt><trkpt lat="38.828707" lon="16.478131"><ele>323.0</ele><time>2026-04-11T14:55:03.675Z</time></trkpt><trkpt lat="38.8287102" lon="16.4784362"><ele>323.0</ele><time>2026-04-11T14:55:04.675Z</time></trkpt><trkpt lat="38.8287149" lon="16.4787367"><ele>325.5</ele><time>2026-04-11T14:55:05.676Z</time></trkpt><trkpt lat="38.8287233" lon="16.4790353"><ele>328.0</ele><time>2026-04-11T14:55:06.676Z</time></trkpt><trkpt lat="38.8287274" lon="16.4793263"><ele>328.5</ele><time>2026-04-11T14:55:07.676Z</time></trkpt><trkpt lat="38.8287323" lon="16.4796221"><ele>329.0</ele><time>2026-04-11T14:55:08.675Z</time></trkpt><trkpt lat="38.8287358" lon="16.4799169"><ele>329.0</ele><time>2026-04-11T14:55:09.675Z</time></trkpt><trkpt lat="38.828742" lon="16.4802103"><ele>329.0</ele><time>2026-04-11T14:55:10.676Z</time></trkpt><trkpt lat="38.8287424" lon="16.4804987"><ele>329.33333333333337</ele><time>2026-04-11T14:55:11.675Z</time></trkpt><trkpt lat="38.8287452" lon="16.4807836"><ele>329.6666666666667</ele><time>2026-04-11T14:55:12.675Z</time></trkpt><trkpt lat="38.8287484" lon="16.4810587"><ele>330.0</ele><time>2026-04-11T14:55:13.675Z</time></trkpt><trkpt lat="38.8287523" lon="16.481327"><ele>331.0</ele><time>2026-04-11T14:55:14.675Z</time></trkpt><trkpt lat="38.8287571" lon="16.4815816"><ele>332.0</ele><time>2026-04-11T14:55:15.676Z</time></trkpt><trkpt lat="38.8287621" lon="16.4818374"><ele>333.0</ele><time>2026-04-11T14:55:16.675Z</time></trkpt><trkpt lat="38.8287698" lon="16.482086"><ele>333.6666666666667</ele><time>2026-04-11T14:55:17.675Z</time></trkpt><trkpt lat="38.8287719" lon="16.4823266"><ele>334.33333333333337</ele><time>2026-04-11T14:55:18.675Z</time></trkpt><trkpt lat="38.8287713" lon="16.4825532"><ele>335.0</ele><time>2026-04-11T14:55:19.675Z</time></trkpt><trkpt lat="38.8287707" lon="16.4827657"><ele>336.0</ele><time>2026-04-11T14:55:20.676Z</time></trkpt><trkpt lat="38.8287748" lon="16.4829863"><ele>337.0</ele><time>2026-04-11T14:55:21.675Z</time></trkpt><trkpt lat="38.8287829" lon="16.4832083"><ele>338.0</ele><time>2026-04-11T14:55:22.676Z</time></trkpt><trkpt lat="38.8287856" lon="16.4834316"><ele>338.0</ele><time>2026-04-11T14:55:23.675Z</time></trkpt><trkpt lat="38.8287888" lon="16.4836521"><ele>338.0</ele><time>2026-04-11T14:55:24.676Z</time></trkpt><trkpt lat="38.8287945" lon="16.4838692"><ele>338.0</ele><time>2026-04-11T14:55:25.675Z</time></trkpt><trkpt lat="38.8287959" lon="16.4840884"><ele>338.33333333333337</ele><time>2026-04-11T14:55:26.675Z</time></trkpt><trkpt lat="38.8287914" lon="16.4843152"><ele>338.6666666666667</ele><time>2026-04-11T14:55:27.675Z</time></trkpt><trkpt lat="38.8287907" lon="16.4845329"><ele>339.0</ele><time>2026-04-11T14:55:28.675Z</time></trkpt><trkpt lat="38.8287938" lon="16.4847426"><ele>339.3333333333333</ele><time>2026-04-11T14:55:29.675Z</time></trkpt><trkpt lat="38.8287972" lon="16.4849521"><ele>339.66666666666663</ele><time>2026-04-11T14:55:30.675Z</time></trkpt><trkpt lat="38.8288066" lon="16.4851593"><ele>340.0</ele><time>2026-04-11T14:55:31.675Z</time></trkpt><trkpt lat="38.8288243" lon="16.4853642"><ele>340.0</ele><time>2026-04-11T14:55:32.675Z</time></trkpt><trkpt lat="38.8288459" lon="16.4855732"><ele>340.0</ele><time>2026-04-11T14:55:33.675Z</time></trkpt><trkpt lat="38.8288682" lon="16.485768"><ele>340.0</ele><time>2026-04-11T14:55:34.676Z</time></trkpt><trkpt lat="38.8288909" lon="16.485943"><ele>340.0</ele><time>2026-04-11T14:55:35.675Z</time></trkpt><trkpt lat="38.8289128" lon="16.4861118"><ele>340.0</ele><time>2026-04-11T14:55:36.675Z</time></trkpt><trkpt lat="38.8289317" lon="16.486279"><ele>340.0</ele><time>2026-04-11T14:55:37.676Z</time></trkpt><trkpt lat="38.8289486" lon="16.4864409"><ele>340.0</ele><time>2026-04-11T14:55:38.676Z</time></trkpt><trkpt lat="38.8289639" lon="16.4865862"><ele>339.8</ele><time>2026-04-11T14:55:39.675Z</time></trkpt><trkpt lat="38.8289816" lon="16.4867196"><ele>339.6</ele><time>2026-04-11T14:55:40.675Z</time></trkpt><trkpt lat="38.8289986" lon="16.4868506"><ele>339.4</ele><time>2026-04-11T14:55:41.675Z</time></trkpt><trkpt lat="38.8290096" lon="16.4869757"><ele>339.2</ele><time>2026-04-11T14:55:42.676Z</time></trkpt><trkpt lat="38.8290208" lon="16.4870959"><ele>339.0</ele><time>2026-04-11T14:55:43.676Z</time></trkpt><trkpt lat="38.8290363" lon="16.4872137"><ele>339.5</ele><time>2026-04-11T14:55:44.675Z</time></trkpt><trkpt lat="38.8290528" lon="16.4873211"><ele>340.0</ele><time>2026-04-11T14:55:45.676Z</time></trkpt><trkpt lat="38.8290741" lon="16.4874143"><ele>340.5</ele><time>2026-04-11T14:55:46.675Z</time></trkpt><trkpt lat="38.8291379" lon="16.4874927"><ele>341.0</ele><time>2026-04-11T14:55:48.675Z</time></trkpt><trkpt lat="38.8292348" lon="16.4874333"><ele>341.5</ele><time>2026-04-11T14:55:50.676Z</time></trkpt><trkpt lat="38.8292958" lon="16.4873606"><ele>342.0</ele><time>2026-04-11T14:55:51.675Z</time></trkpt><trkpt lat="38.8293617" lon="16.4872665"><ele>342.0</ele><time>2026-04-11T14:55:52.675Z</time></trkpt><trkpt lat="38.8294333" lon="16.4871869"><ele>342.0</ele><time>2026-04-11T14:55:53.676Z</time></trkpt><trkpt lat="38.829525" lon="16.4870951"><ele>342.0</ele><time>2026-04-11T14:55:54.675Z</time></trkpt><trkpt lat="38.8296243" lon="16.4870121"><ele>342.0</ele><time>2026-04-11T14:55:55.675Z</time></trkpt><trkpt lat="38.8297209" lon="16.4869195"><ele>342.0</ele><time>2026-04-11T14:55:56.675Z</time></trkpt><trkpt lat="38.8298221" lon="16.4868221"><ele>342.0</ele><time>2026-04-11T14:55:57.676Z</time></trkpt><trkpt lat="38.8299198" lon="16.4867203"><ele>342.0</ele><time>2026-04-11T14:55:58.675Z</time></trkpt><trkpt lat="38.8300118" lon="16.4866057"><ele>342.0</ele><time>2026-04-11T14:55:59.675Z</time></trkpt><trkpt lat="38.8301055" lon="16.4864795"><ele>342.5</ele><time>2026-04-11T14:56:00.676Z</time></trkpt><trkpt lat="38.830199" lon="16.4863387"><ele>343.0</ele><time>2026-04-11T14:56:01.676Z</time></trkpt><trkpt lat="38.8302912" lon="16.4861904"><ele>343.5</ele><time>2026-04-11T14:56:02.675Z</time></trkpt><trkpt lat="38.8303736" lon="16.486038"><ele>344.0</ele><time>2026-04-11T14:56:03.675Z</time></trkpt><trkpt lat="38.8304576" lon="16.4858859"><ele>342.6666666666667</ele><time>2026-04-11T14:56:04.675Z</time></trkpt><trkpt lat="38.8305407" lon="16.4857228"><ele>341.3333333333333</ele><time>2026-04-11T14:56:05.675Z</time></trkpt><trkpt lat="38.8306259" lon="16.4855502"><ele>340.0</ele><time>2026-04-11T14:56:06.676Z</time></trkpt><trkpt lat="38.8307205" lon="16.485378"><ele>339.3333333333333</ele><time>2026-04-11T14:56:07.675Z</time></trkpt><trkpt lat="38.8308165" lon="16.4852128"><ele>338.6666666666667</ele><time>2026-04-11T14:56:08.676Z</time></trkpt><trkpt lat="38.8309057" lon="16.4850525"><ele>338.0</ele><time>2026-04-11T14:56:09.676Z</time></trkpt><trkpt lat="38.8309945" lon="16.4848898"><ele>337.6666666666667</ele><time>2026-04-11T14:56:10.675Z</time></trkpt><trkpt lat="38.8310933" lon="16.484733"><ele>337.3333333333333</ele><time>2026-04-11T14:56:11.675Z</time></trkpt><trkpt lat="38.8311959" lon="16.4845959"><ele>337.0</ele><time>2026-04-11T14:56:12.675Z</time></trkpt><trkpt lat="38.8313076" lon="16.484468"><ele>336.66666666666663</ele><time>2026-04-11T14:56:13.675Z</time></trkpt><trkpt lat="38.8314261" lon="16.4843406"><ele>336.3333333333333</ele><time>2026-04-11T14:56:14.675Z</time></trkpt><trkpt lat="38.8315487" lon="16.484213"><ele>336.0</ele><time>2026-04-11T14:56:15.675Z</time></trkpt><trkpt lat="38.8316635" lon="16.484089"><ele>336.0</ele><time>2026-04-11T14:56:16.676Z</time></trkpt><trkpt lat="38.8317916" lon="16.4839692"><ele>336.0</ele><time>2026-04-11T14:56:17.676Z</time></trkpt><trkpt lat="38.8319219" lon="16.4838487"><ele>336.0</ele><time>2026-04-11T14:56:18.675Z</time></trkpt><trkpt lat="38.8320583" lon="16.4837391"><ele>335.0</ele><time>2026-04-11T14:56:19.676Z</time></trkpt><trkpt lat="38.832197" lon="16.4836404"><ele>334.0</ele><time>2026-04-11T14:56:20.675Z</time></trkpt><trkpt lat="38.8323349" lon="16.4835607"><ele>333.0</ele><time>2026-04-11T14:56:21.675Z</time></trkpt><trkpt lat="38.8324766" lon="16.4834864"><ele>333.0</ele><time>2026-04-11T14:56:22.675Z</time></trkpt><trkpt lat="38.8326183" lon="16.4834065"><ele>333.0</ele><time>2026-04-11T14:56:23.675Z</time></trkpt><trkpt lat="38.8327558" lon="16.4833341"><ele>333.0</ele><time>2026-04-11T14:56:24.675Z</time></trkpt><trkpt lat="38.832898" lon="16.4832506"><ele>333.3333333333333</ele><time>2026-04-11T14:56:25.675Z</time></trkpt><trkpt lat="38.8330385" lon="16.4831733"><ele>333.66666666666663</ele><time>2026-04-11T14:56:26.675Z</time></trkpt><trkpt lat="38.833178" lon="16.4830868"><ele>334.0</ele><time>2026-04-11T14:56:27.675Z</time></trkpt><trkpt lat="38.8333149" lon="16.4829926"><ele>334.0</ele><time>2026-04-11T14:56:28.675Z</time></trkpt><trkpt lat="38.8334414" lon="16.4828897"><ele>334.0</ele><time>2026-04-11T14:56:29.675Z</time></trkpt><trkpt lat="38.8335701" lon="16.4827818"><ele>334.0</ele><time>2026-04-11T14:56:30.675Z</time></trkpt><trkpt lat="38.833695" lon="16.4826657"><ele>334.66666666666663</ele><time>2026-04-11T14:56:31.675Z</time></trkpt><trkpt lat="38.8338128" lon="16.4825473"><ele>335.3333333333333</ele><time>2026-04-11T14:56:32.675Z</time></trkpt><trkpt lat="38.8339365" lon="16.4824207"><ele>336.0</ele><time>2026-04-11T14:56:33.676Z</time></trkpt><trkpt lat="38.8340615" lon="16.4822938"><ele>336.0</ele><time>2026-04-11T14:56:34.675Z</time></trkpt><trkpt lat="38.834185" lon="16.4821643"><ele>336.0</ele><time>2026-04-11T14:56:35.675Z</time></trkpt><trkpt lat="38.83431" lon="16.4820272"><ele>336.0</ele><time>2026-04-11T14:56:36.676Z</time></trkpt><trkpt lat="38.8344323" lon="16.4818952"><ele>335.0</ele><time>2026-04-11T14:56:37.675Z</time></trkpt><trkpt lat="38.8345586" lon="16.4817596"><ele>334.0</ele><time>2026-04-11T14:56:38.675Z</time></trkpt><trkpt lat="38.8346848" lon="16.4816101"><ele>333.0</ele><time>2026-04-11T14:56:39.676Z</time></trkpt><trkpt lat="38.8348084" lon="16.4814575"><ele>333.0</ele><time>2026-04-11T14:56:40.675Z</time></trkpt><trkpt lat="38.8349211" lon="16.4813065"><ele>333.0</ele><time>2026-04-11T14:56:41.675Z</time></trkpt><trkpt lat="38.835034" lon="16.48116"><ele>333.0</ele><time>2026-04-11T14:56:42.675Z</time></trkpt><trkpt lat="38.8351442" lon="16.4810099"><ele>333.25</ele><time>2026-04-11T14:56:43.676Z</time></trkpt><trkpt lat="38.8352481" lon="16.4808704"><ele>333.5</ele><time>2026-04-11T14:56:44.675Z</time></trkpt><trkpt lat="38.8353558" lon="16.480739"><ele>333.75</ele><time>2026-04-11T14:56:45.676Z</time></trkpt><trkpt lat="38.8354671" lon="16.4806168"><ele>334.0</ele><time>2026-04-11T14:56:46.675Z</time></trkpt><trkpt lat="38.8355897" lon="16.4805037"><ele>333.66666666666663</ele><time>2026-04-11T14:56:47.675Z</time></trkpt><trkpt lat="38.8357227" lon="16.4803935"><ele>333.3333333333333</ele><time>2026-04-11T14:56:48.676Z</time></trkpt><trkpt lat="38.8358525" lon="16.480294"><ele>333.0</ele><time>2026-04-11T14:56:49.676Z</time></trkpt><trkpt lat="38.8359862" lon="16.4801974"><ele>334.0</ele><time>2026-04-11T14:56:50.675Z</time></trkpt><trkpt lat="38.8361184" lon="16.4800992"><ele>335.0</ele><time>2026-04-11T14:56:51.675Z</time></trkpt><trkpt lat="38.8362502" lon="16.4800086"><ele>336.0</ele><time>2026-04-11T14:56:52.676Z</time></trkpt><trkpt lat="38.8363853" lon="16.4799178"><ele>336.0</ele><time>2026-04-11T14:56:53.675Z</time></trkpt><trkpt lat="38.8365232" lon="16.4798311"><ele>336.0</ele><time>2026-04-11T14:56:54.676Z</time></trkpt><trkpt lat="38.8366661" lon="16.4797614"><ele>336.0</ele><time>2026-04-11T14:56:55.675Z</time></trkpt><trkpt lat="38.8368056" lon="16.4797014"><ele>336.6666666666667</ele><time>2026-04-11T14:56:56.675Z</time></trkpt><trkpt lat="38.8369498" lon="16.4796403"><ele>337.33333333333337</ele><time>2026-04-11T14:56:57.676Z</time></trkpt><trkpt lat="38.8370989" lon="16.4795844"><ele>338.0</ele><time>2026-04-11T14:56:58.676Z</time></trkpt><trkpt lat="38.8372448" lon="16.4795411"><ele>338.0</ele><time>2026-04-11T14:56:59.675Z</time></trkpt><trkpt lat="38.837399" lon="16.4795052"><ele>338.0</ele><time>2026-04-11T14:57:00.675Z</time></trkpt><trkpt lat="38.8375526" lon="16.4794711"><ele>338.0</ele><time>2026-04-11T14:57:01.676Z</time></trkpt><trkpt lat="38.8377068" lon="16.4794332"><ele>338.0</ele><time>2026-04-11T14:57:02.675Z</time></trkpt><trkpt lat="38.8378543" lon="16.4793987"><ele>338.0</ele><time>2026-04-11T14:57:03.675Z</time></trkpt><trkpt lat="38.8380114" lon="16.4793572"><ele>338.0</ele><time>2026-04-11T14:57:04.676Z</time></trkpt><trkpt lat="38.8381713" lon="16.479332"><ele>338.0</ele><time>2026-04-11T14:57:05.676Z</time></trkpt><trkpt lat="38.8383369" lon="16.4793163"><ele>338.0</ele><time>2026-04-11T14:57:06.675Z</time></trkpt><trkpt lat="38.8385051" lon="16.4793078"><ele>338.0</ele><time>2026-04-11T14:57:07.675Z</time></trkpt><trkpt lat="38.8386557" lon="16.4793033"><ele>337.75</ele><time>2026-04-11T14:57:08.676Z</time></trkpt><trkpt lat="38.8387928" lon="16.4792783"><ele>337.5</ele><time>2026-04-11T14:57:09.675Z</time></trkpt><trkpt lat="38.8389266" lon="16.4792272"><ele>337.25</ele><time>2026-04-11T14:57:10.675Z</time></trkpt><trkpt lat="38.8390485" lon="16.4791399"><ele>337.0</ele><time>2026-04-11T14:57:11.676Z</time></trkpt><trkpt lat="38.83917" lon="16.4790317"><ele>337.0</ele><time>2026-04-11T14:57:12.675Z</time></trkpt><trkpt lat="38.8392945" lon="16.4789231"><ele>337.0</ele><time>2026-04-11T14:57:13.676Z</time></trkpt><trkpt lat="38.8394185" lon="16.4788206"><ele>337.0</ele><time>2026-04-11T14:57:14.675Z</time></trkpt><trkpt lat="38.8395455" lon="16.4787132"><ele>337.5</ele><time>2026-04-11T14:57:15.676Z</time></trkpt><trkpt lat="38.8396743" lon="16.4786119"><ele>338.0</ele><time>2026-04-11T14:57:16.675Z</time></trkpt><trkpt lat="38.8398114" lon="16.4785273"><ele>338.5</ele><time>2026-04-11T14:57:17.676Z</time></trkpt><trkpt lat="38.839951" lon="16.4784716"><ele>339.0</ele><time>2026-04-11T14:57:18.675Z</time></trkpt><trkpt lat="38.8400936" lon="16.4784324"><ele>339.3333333333333</ele><time>2026-04-11T14:57:19.675Z</time></trkpt><trkpt lat="38.8402374" lon="16.4783973"><ele>339.66666666666663</ele><time>2026-04-11T14:57:20.676Z</time></trkpt><trkpt lat="38.8403868" lon="16.4783524"><ele>340.0</ele><time>2026-04-11T14:57:21.675Z</time></trkpt><trkpt lat="38.8405408" lon="16.4783061"><ele>340.0</ele><time>2026-04-11T14:57:22.676Z</time></trkpt><trkpt lat="38.8406889" lon="16.478258"><ele>340.0</ele><time>2026-04-11T14:57:23.675Z</time></trkpt><trkpt lat="38.8408476" lon="16.4782094"><ele>340.0</ele><time>2026-04-11T14:57:24.675Z</time></trkpt><trkpt lat="38.841009" lon="16.4781572"><ele>340.0</ele><time>2026-04-11T14:57:25.675Z</time></trkpt><trkpt lat="38.841168" lon="16.4781061"><ele>340.0</ele><time>2026-04-11T14:57:26.676Z</time></trkpt><trkpt lat="38.8413218" lon="16.4780547"><ele>340.0</ele><time>2026-04-11T14:57:27.676Z</time></trkpt><trkpt lat="38.8414719" lon="16.4780026"><ele>340.0</ele><time>2026-04-11T14:57:28.675Z</time></trkpt><trkpt lat="38.8416151" lon="16.4779607"><ele>340.0</ele><time>2026-04-11T14:57:29.676Z</time></trkpt><trkpt lat="38.8417554" lon="16.4779125"><ele>340.0</ele><time>2026-04-11T14:57:30.675Z</time></trkpt><trkpt lat="38.8418878" lon="16.4778574"><ele>340.0</ele><time>2026-04-11T14:57:31.676Z</time></trkpt><trkpt lat="38.842017" lon="16.4777825"><ele>340.0</ele><time>2026-04-11T14:57:32.675Z</time></trkpt><trkpt lat="38.8421417" lon="16.4776889"><ele>340.0</ele><time>2026-04-11T14:57:33.675Z</time></trkpt><trkpt lat="38.8422566" lon="16.4775764"><ele>340.0</ele><time>2026-04-11T14:57:34.675Z</time></trkpt><trkpt lat="38.8423822" lon="16.4774509"><ele>340.0</ele><time>2026-04-11T14:57:35.675Z</time></trkpt><trkpt lat="38.8425018" lon="16.4773322"><ele>340.0</ele><time>2026-04-11T14:57:36.676Z</time></trkpt><trkpt lat="38.842625" lon="16.4772314"><ele>340.0</ele><time>2026-04-11T14:57:37.675Z</time></trkpt><trkpt lat="38.8427593" lon="16.4771434"><ele>340.0</ele><time>2026-04-11T14:57:38.675Z</time></trkpt><trkpt lat="38.8429156" lon="16.4770874"><ele>339.0</ele><time>2026-04-11T14:57:39.675Z</time></trkpt><trkpt lat="38.843084" lon="16.4770467"><ele>338.0</ele><time>2026-04-11T14:57:40.675Z</time></trkpt><trkpt lat="38.8432486" lon="16.4770152"><ele>337.0</ele><time>2026-04-11T14:57:41.675Z</time></trkpt><trkpt lat="38.8433957" lon="16.4769706"><ele>336.0</ele><time>2026-04-11T14:57:42.676Z</time></trkpt><trkpt lat="38.8435292" lon="16.4769426"><ele>335.0</ele><time>2026-04-11T14:57:43.675Z</time></trkpt><trkpt lat="38.843663" lon="16.4769428"><ele>334.0</ele><time>2026-04-11T14:57:44.675Z</time></trkpt><trkpt lat="38.8437953" lon="16.4769765"><ele>333.0</ele><time>2026-04-11T14:57:45.675Z</time></trkpt><trkpt lat="38.8439255" lon="16.4770104"><ele>333.0</ele><time>2026-04-11T14:57:46.675Z</time></trkpt><trkpt lat="38.8440533" lon="16.4770216"><ele>333.0</ele><time>2026-04-11T14:57:47.676Z</time></trkpt><trkpt lat="38.8441779" lon="16.4770025"><ele>333.0</ele><time>2026-04-11T14:57:48.675Z</time></trkpt><trkpt lat="38.8443189" lon="16.4769558"><ele>333.0</ele><time>2026-04-11T14:57:49.675Z</time></trkpt><trkpt lat="38.8444687" lon="16.4769115"><ele>332.3333333333333</ele><time>2026-04-11T14:57:50.676Z</time></trkpt><trkpt lat="38.8446241" lon="16.4768591"><ele>331.66666666666663</ele><time>2026-04-11T14:57:51.676Z</time></trkpt><trkpt lat="38.8447828" lon="16.4768127"><ele>331.0</ele><time>2026-04-11T14:57:52.676Z</time></trkpt><trkpt lat="38.8449463" lon="16.4767616"><ele>331.0</ele><time>2026-04-11T14:57:53.675Z</time></trkpt><trkpt lat="38.8451158" lon="16.4767092"><ele>331.0</ele><time>2026-04-11T14:57:54.675Z</time></trkpt><trkpt lat="38.8452876" lon="16.4766662"><ele>331.0</ele><time>2026-04-11T14:57:55.675Z</time></trkpt><trkpt lat="38.8454697" lon="16.4766254"><ele>331.0</ele><time>2026-04-11T14:57:56.675Z</time></trkpt><trkpt lat="38.8456467" lon="16.4765913"><ele>331.0</ele><time>2026-04-11T14:57:57.675Z</time></trkpt><trkpt lat="38.8458235" lon="16.4765633"><ele>331.0</ele><time>2026-04-11T14:57:58.675Z</time></trkpt><trkpt lat="38.8459987" lon="16.476533"><ele>331.0</ele><time>2026-04-11T14:57:59.675Z</time></trkpt><trkpt lat="38.8461779" lon="16.4765078"><ele>331.0</ele><time>2026-04-11T14:58:00.675Z</time></trkpt><trkpt lat="38.8463535" lon="16.4764759"><ele>331.0</ele><time>2026-04-11T14:58:01.675Z</time></trkpt><trkpt lat="38.8465264" lon="16.4764381"><ele>331.0</ele><time>2026-04-11T14:58:02.675Z</time></trkpt><trkpt lat="38.8466919" lon="16.4763904"><ele>331.0</ele><time>2026-04-11T14:58:03.675Z</time></trkpt><trkpt lat="38.8468582" lon="16.4763172"><ele>331.0</ele><time>2026-04-11T14:58:04.676Z</time></trkpt><trkpt lat="38.8470203" lon="16.4762192"><ele>331.3333333333333</ele><time>2026-04-11T14:58:05.675Z</time></trkpt><trkpt lat="38.8471753" lon="16.4761048"><ele>331.6666666666667</ele><time>2026-04-11T14:58:06.675Z</time></trkpt><trkpt lat="38.8473311" lon="16.4759909"><ele>332.0</ele><time>2026-04-11T14:58:07.675Z</time></trkpt><trkpt lat="38.8474876" lon="16.4758697"><ele>333.33333333333337</ele><time>2026-04-11T14:58:08.675Z</time></trkpt><trkpt lat="38.8476427" lon="16.4757524"><ele>334.6666666666667</ele><time>2026-04-11T14:58:09.675Z</time></trkpt><trkpt lat="38.8478007" lon="16.4756314"><ele>336.0</ele><time>2026-04-11T14:58:10.675Z</time></trkpt><trkpt lat="38.847955" lon="16.4755173"><ele>334.6666666666667</ele><time>2026-04-11T14:58:11.676Z</time></trkpt><trkpt lat="38.8481084" lon="16.4753934"><ele>333.33333333333337</ele><time>2026-04-11T14:58:12.675Z</time></trkpt><trkpt lat="38.8482618" lon="16.4752658"><ele>332.0</ele><time>2026-04-11T14:58:13.675Z</time></trkpt><trkpt lat="38.8484238" lon="16.4751423"><ele>334.33333333333337</ele><time>2026-04-11T14:58:14.675Z</time></trkpt><trkpt lat="38.8485785" lon="16.4750273"><ele>336.6666666666667</ele><time>2026-04-11T14:58:15.675Z</time></trkpt><trkpt lat="38.8487303" lon="16.4749091"><ele>339.0</ele><time>2026-04-11T14:58:16.676Z</time></trkpt><trkpt lat="38.8488753" lon="16.474805"><ele>339.0</ele><time>2026-04-11T14:58:17.676Z</time></trkpt><trkpt lat="38.849018" lon="16.4747155"><ele>339.0</ele><time>2026-04-11T14:58:18.676Z</time></trkpt><trkpt lat="38.8491613" lon="16.4746524"><ele>339.0</ele><time>2026-04-11T14:58:19.676Z</time></trkpt><trkpt lat="38.8493026" lon="16.4746234"><ele>339.25</ele><time>2026-04-11T14:58:20.675Z</time></trkpt><trkpt lat="38.849449" lon="16.4746163"><ele>339.5</ele><time>2026-04-11T14:58:21.675Z</time></trkpt><trkpt lat="38.8495895" lon="16.4746305"><ele>339.75</ele><time>2026-04-11T14:58:22.676Z</time></trkpt><trkpt lat="38.8497242" lon="16.4746305"><ele>340.0</ele><time>2026-04-11T14:58:23.675Z</time></trkpt><trkpt lat="38.8498434" lon="16.474603"><ele>340.0</ele><time>2026-04-11T14:58:24.675Z</time></trkpt><trkpt lat="38.849944" lon="16.4745233"><ele>340.0</ele><time>2026-04-11T14:58:25.675Z</time></trkpt><trkpt lat="38.850018" lon="16.474386"><ele>340.0</ele><time>2026-04-11T14:58:26.675Z</time></trkpt><trkpt lat="38.8500728" lon="16.4742296"><ele>340.0</ele><time>2026-04-11T14:58:27.675Z</time></trkpt><trkpt lat="38.8501109" lon="16.4740475"><ele>340.75</ele><time>2026-04-11T14:58:28.675Z</time></trkpt><trkpt lat="38.8501562" lon="16.4738731"><ele>341.5</ele><time>2026-04-11T14:58:29.675Z</time></trkpt><trkpt lat="38.8502184" lon="16.4737201"><ele>342.25</ele><time>2026-04-11T14:58:30.676Z</time></trkpt><trkpt lat="38.8502956" lon="16.4736103"><ele>343.0</ele><time>2026-04-11T14:58:31.675Z</time></trkpt><trkpt lat="38.8503914" lon="16.4735422"><ele>343.0</ele><time>2026-04-11T14:58:32.676Z</time></trkpt><trkpt lat="38.8504997" lon="16.4735248"><ele>343.0</ele><time>2026-04-11T14:58:33.675Z</time></trkpt><trkpt lat="38.8506188" lon="16.4735434"><ele>343.0</ele><time>2026-04-11T14:58:34.676Z</time></trkpt><trkpt lat="38.8507413" lon="16.4735693"><ele>343.0</ele><time>2026-04-11T14:58:35.675Z</time></trkpt><trkpt lat="38.8508738" lon="16.4735815"><ele>343.5</ele><time>2026-04-11T14:58:36.676Z</time></trkpt><trkpt lat="38.8509952" lon="16.4735853"><ele>344.0</ele><time>2026-04-11T14:58:37.676Z</time></trkpt><trkpt lat="38.8511071" lon="16.4735411"><ele>344.5</ele><time>2026-04-11T14:58:38.675Z</time></trkpt><trkpt lat="38.8511986" lon="16.4734425"><ele>345.0</ele><time>2026-04-11T14:58:39.675Z</time></trkpt><trkpt lat="38.85126" lon="16.473312"><ele>345.0</ele><time>2026-04-11T14:58:40.675Z</time></trkpt><trkpt lat="38.8513164" lon="16.4731619"><ele>345.0</ele><time>2026-04-11T14:58:41.675Z</time></trkpt><trkpt lat="38.8513764" lon="16.4729999"><ele>345.0</ele><time>2026-04-11T14:58:42.675Z</time></trkpt><trkpt lat="38.8514462" lon="16.4728534"><ele>345.0</ele><time>2026-04-11T14:58:43.676Z</time></trkpt><trkpt lat="38.8515385" lon="16.4727302"><ele>343.25</ele><time>2026-04-11T14:58:44.676Z</time></trkpt><trkpt lat="38.8516502" lon="16.4726296"><ele>341.5</ele><time>2026-04-11T14:58:45.676Z</time></trkpt><trkpt lat="38.8517479" lon="16.4725382"><ele>339.75</ele><time>2026-04-11T14:58:46.675Z</time></trkpt><trkpt lat="38.8518296" lon="16.4724059"><ele>338.0</ele><time>2026-04-11T14:58:47.675Z</time></trkpt><trkpt lat="38.8518926" lon="16.4722533"><ele>336.75</ele><time>2026-04-11T14:58:48.675Z</time></trkpt><trkpt lat="38.8519591" lon="16.472091"><ele>335.5</ele><time>2026-04-11T14:58:49.675Z</time></trkpt><trkpt lat="38.8520428" lon="16.4719343"><ele>334.25</ele><time>2026-04-11T14:58:50.675Z</time></trkpt><trkpt lat="38.8521287" lon="16.4717905"><ele>333.0</ele><time>2026-04-11T14:58:51.675Z</time></trkpt><trkpt lat="38.8522021" lon="16.4716631"><ele>333.0</ele><time>2026-04-11T14:58:52.676Z</time></trkpt><trkpt lat="38.8522689" lon="16.4715548"><ele>333.0</ele><time>2026-04-11T14:58:53.676Z</time></trkpt><trkpt lat="38.8523579" lon="16.4714786"><ele>333.0</ele><time>2026-04-11T14:58:54.675Z</time></trkpt><trkpt lat="38.8524497" lon="16.4714599"><ele>333.0</ele><time>2026-04-11T14:58:55.676Z</time></trkpt><trkpt lat="38.8525447" lon="16.4715021"><ele>333.0</ele><time>2026-04-11T14:58:56.676Z</time></trkpt><trkpt lat="38.8526289" lon="16.4715737"><ele>333.75</ele><time>2026-04-11T14:58:57.675Z</time></trkpt><trkpt lat="38.8527032" lon="16.4716995"><ele>334.5</ele><time>2026-04-11T14:58:58.676Z</time></trkpt><trkpt lat="38.8527704" lon="16.4718384"><ele>335.25</ele><time>2026-04-11T14:58:59.675Z</time></trkpt><trkpt lat="38.8528503" lon="16.4719392"><ele>336.0</ele><time>2026-04-11T14:59:00.675Z</time></trkpt><trkpt lat="38.8529458" lon="16.4719872"><ele>336.0</ele><time>2026-04-11T14:59:01.676Z</time></trkpt><trkpt lat="38.8530528" lon="16.4719816"><ele>336.0</ele><time>2026-04-11T14:59:02.676Z</time></trkpt><trkpt lat="38.8531593" lon="16.4719287"><ele>336.0</ele><time>2026-04-11T14:59:03.675Z</time></trkpt><trkpt lat="38.8532574" lon="16.471842"><ele>336.0</ele><time>2026-04-11T14:59:04.675Z</time></trkpt><trkpt lat="38.8533363" lon="16.4717357"><ele>336.0</ele><time>2026-04-11T14:59:05.675Z</time></trkpt><trkpt lat="38.8533917" lon="16.4716137"><ele>336.0</ele><time>2026-04-11T14:59:06.676Z</time></trkpt><trkpt lat="38.8534266" lon="16.4714695"><ele>336.0</ele><time>2026-04-11T14:59:07.675Z</time></trkpt><trkpt lat="38.8534274" lon="16.4712979"><ele>336.0</ele><time>2026-04-11T14:59:08.675Z</time></trkpt><trkpt lat="38.853418" lon="16.4711311"><ele>336.5</ele><time>2026-04-11T14:59:09.675Z</time></trkpt><trkpt lat="38.853413" lon="16.4709524"><ele>337.0</ele><time>2026-04-11T14:59:10.676Z</time></trkpt><trkpt lat="38.8534108" lon="16.4707911"><ele>337.5</ele><time>2026-04-11T14:59:11.675Z</time></trkpt><trkpt lat="38.8534234" lon="16.4706205"><ele>338.0</ele><time>2026-04-11T14:59:12.675Z</time></trkpt><trkpt lat="38.8534577" lon="16.4704517"><ele>338.6666666666667</ele><time>2026-04-11T14:59:13.675Z</time></trkpt><trkpt lat="38.853498" lon="16.4703115"><ele>339.33333333333337</ele><time>2026-04-11T14:59:14.675Z</time></trkpt><trkpt lat="38.8535286" lon="16.4701906"><ele>340.0</ele><time>2026-04-11T14:59:15.675Z</time></trkpt><trkpt lat="38.8535576" lon="16.4700908"><ele>340.6666666666667</ele><time>2026-04-11T14:59:16.675Z</time></trkpt><trkpt lat="38.8536068" lon="16.4700153"><ele>341.3333333333333</ele><time>2026-04-11T14:59:17.675Z</time></trkpt><trkpt lat="38.8536619" lon="16.469968"><ele>342.0</ele><time>2026-04-11T14:59:18.675Z</time></trkpt><trkpt lat="38.8537794" lon="16.4699645"><ele>342.0</ele><time>2026-04-11T14:59:20.676Z</time></trkpt><trkpt lat="38.853843" lon="16.4700035"><ele>342.0</ele><time>2026-04-11T14:59:21.675Z</time></trkpt><trkpt lat="38.8539062" lon="16.4700782"><ele>342.0</ele><time>2026-04-11T14:59:22.675Z</time></trkpt><trkpt lat="38.853961" lon="16.4701723"><ele>342.0</ele><time>2026-04-11T14:59:23.675Z</time></trkpt><trkpt lat="38.8540142" lon="16.4702762"><ele>342.0</ele><time>2026-04-11T14:59:24.675Z</time></trkpt><trkpt lat="38.8540669" lon="16.4703935"><ele>342.40000000000003</ele><time>2026-04-11T14:59:25.675Z</time></trkpt><trkpt lat="38.8541302" lon="16.4705103"><ele>342.8</ele><time>2026-04-11T14:59:26.675Z</time></trkpt><trkpt lat="38.854215" lon="16.4705883"><ele>343.2</ele><time>2026-04-11T14:59:27.675Z</time></trkpt><trkpt lat="38.8543219" lon="16.470621"><ele>343.6</ele><time>2026-04-11T14:59:28.675Z</time></trkpt><trkpt lat="38.854422" lon="16.4705951"><ele>344.0</ele><time>2026-04-11T14:59:29.675Z</time></trkpt><trkpt lat="38.8545137" lon="16.4705194"><ele>343.5</ele><time>2026-04-11T14:59:30.675Z</time></trkpt><trkpt lat="38.8546003" lon="16.4704147"><ele>343.0</ele><time>2026-04-11T14:59:31.676Z</time></trkpt><trkpt lat="38.8546938" lon="16.4702967"><ele>342.5</ele><time>2026-04-11T14:59:32.676Z</time></trkpt><trkpt lat="38.8547844" lon="16.4701708"><ele>342.0</ele><time>2026-04-11T14:59:33.675Z</time></trkpt><trkpt lat="38.8548708" lon="16.4700394"><ele>342.0</ele><time>2026-04-11T14:59:34.675Z</time></trkpt><trkpt lat="38.8549477" lon="16.4699002"><ele>342.0</ele><time>2026-04-11T14:59:35.675Z</time></trkpt><trkpt lat="38.8550138" lon="16.4697471"><ele>342.0</ele><time>2026-04-11T14:59:36.676Z</time></trkpt><trkpt lat="38.8550667" lon="16.4695739"><ele>342.0</ele><time>2026-04-11T14:59:37.676Z</time></trkpt><trkpt lat="38.8551276" lon="16.4693966"><ele>337.6666666666667</ele><time>2026-04-11T14:59:38.676Z</time></trkpt><trkpt lat="38.8551914" lon="16.4692205"><ele>333.33333333333337</ele><time>2026-04-11T14:59:39.675Z</time></trkpt><trkpt lat="38.8552664" lon="16.46905"><ele>329.0</ele><time>2026-04-11T14:59:40.675Z</time></trkpt><trkpt lat="38.855342" lon="16.4688824"><ele>329.6666666666667</ele><time>2026-04-11T14:59:41.675Z</time></trkpt><trkpt lat="38.8554132" lon="16.4687101"><ele>330.3333333333333</ele><time>2026-04-11T14:59:42.675Z</time></trkpt><trkpt lat="38.85548" lon="16.4685364"><ele>331.0</ele><time>2026-04-11T14:59:43.675Z</time></trkpt><trkpt lat="38.8555459" lon="16.4683678"><ele>331.0</ele><time>2026-04-11T14:59:44.676Z</time></trkpt><trkpt lat="38.8556148" lon="16.4682039"><ele>331.0</ele><time>2026-04-11T14:59:45.675Z</time></trkpt><trkpt lat="38.8556824" lon="16.4680509"><ele>331.0</ele><time>2026-04-11T14:59:46.676Z</time></trkpt><trkpt lat="38.8557559" lon="16.4678974"><ele>331.0</ele><time>2026-04-11T14:59:47.675Z</time></trkpt><trkpt lat="38.8558251" lon="16.4677188"><ele>331.0</ele><time>2026-04-11T14:59:48.675Z</time></trkpt><trkpt lat="38.8559028" lon="16.4675527"><ele>331.0</ele><time>2026-04-11T14:59:49.675Z</time></trkpt><trkpt lat="38.8559887" lon="16.4674231"><ele>331.0</ele><time>2026-04-11T14:59:50.675Z</time></trkpt><trkpt lat="38.8560892" lon="16.4673056"><ele>331.0</ele><time>2026-04-11T14:59:51.676Z</time></trkpt><trkpt lat="38.8561796" lon="16.4671988"><ele>329.6</ele><time>2026-04-11T14:59:52.675Z</time></trkpt><trkpt lat="38.8562662" lon="16.4671177"><ele>328.20000000000005</ele><time>2026-04-11T14:59:53.675Z</time></trkpt><trkpt lat="38.8563554" lon="16.4670556"><ele>326.79999999999995</ele><time>2026-04-11T14:59:54.675Z</time></trkpt><trkpt lat="38.8564579" lon="16.4670291"><ele>325.4</ele><time>2026-04-11T14:59:55.675Z</time></trkpt><trkpt lat="38.8565572" lon="16.4670184"><ele>324.0</ele><time>2026-04-11T14:59:56.676Z</time></trkpt><trkpt lat="38.8566583" lon="16.4670204"><ele>324.0</ele><time>2026-04-11T14:59:57.676Z</time></trkpt><trkpt lat="38.8567555" lon="16.4669763"><ele>324.0</ele><time>2026-04-11T14:59:58.675Z</time></trkpt><trkpt lat="38.8568191" lon="16.4668824"><ele>324.0</ele><time>2026-04-11T14:59:59.675Z</time></trkpt><trkpt lat="38.8568601" lon="16.4667644"><ele>324.0</ele><time>2026-04-11T15:00:00.675Z</time></trkpt><trkpt lat="38.8568895" lon="16.4666562"><ele>324.0</ele><time>2026-04-11T15:00:01.675Z</time></trkpt><trkpt lat="38.8569316" lon="16.4665368"><ele>323.1666666666667</ele><time>2026-04-11T15:00:02.676Z</time></trkpt><trkpt lat="38.857" lon="16.4664627"><ele>322.3333333333333</ele><time>2026-04-11T15:00:03.675Z</time></trkpt><trkpt lat="38.8570782" lon="16.4664237"><ele>321.5</ele><time>2026-04-11T15:00:04.675Z</time></trkpt><trkpt lat="38.857156" lon="16.4664187"><ele>320.66666666666663</ele><time>2026-04-11T15:00:05.675Z</time></trkpt><trkpt lat="38.8572393" lon="16.4664364"><ele>319.8333333333333</ele><time>2026-04-11T15:00:06.675Z</time></trkpt><trkpt lat="38.8573227" lon="16.4664549"><ele>319.0</ele><time>2026-04-11T15:00:07.675Z</time></trkpt><trkpt lat="38.8574069" lon="16.4664551"><ele>319.0</ele><time>2026-04-11T15:00:08.676Z</time></trkpt><trkpt lat="38.8574939" lon="16.4664333"><ele>319.0</ele><time>2026-04-11T15:00:09.675Z</time></trkpt><trkpt lat="38.857569" lon="16.4663679"><ele>319.0</ele><time>2026-04-11T15:00:10.675Z</time></trkpt><trkpt lat="38.8576321" lon="16.4662874"><ele>319.0</ele><time>2026-04-11T15:00:11.676Z</time></trkpt><trkpt lat="38.8576902" lon="16.4661907"><ele>319.0</ele><time>2026-04-11T15:00:12.675Z</time></trkpt><trkpt lat="38.8577409" lon="16.4660548"><ele>318.59999999999997</ele><time>2026-04-11T15:00:13.675Z</time></trkpt><trkpt lat="38.857785" lon="16.4659102"><ele>318.2</ele><time>2026-04-11T15:00:14.676Z</time></trkpt><trkpt lat="38.8578301" lon="16.4657635"><ele>317.79999999999995</ele><time>2026-04-11T15:00:15.675Z</time></trkpt><trkpt lat="38.8578819" lon="16.4656444"><ele>317.4</ele><time>2026-04-11T15:00:16.675Z</time></trkpt><trkpt lat="38.8579452" lon="16.4655701"><ele>317.0</ele><time>2026-04-11T15:00:17.675Z</time></trkpt><trkpt lat="38.8580096" lon="16.4655401"><ele>317.0</ele><time>2026-04-11T15:00:18.675Z</time></trkpt><trkpt lat="38.8580998" lon="16.465637"><ele>317.0</ele><time>2026-04-11T15:00:20.675Z</time></trkpt><trkpt lat="38.858099" lon="16.4657502"><ele>317.0</ele><time>2026-04-11T15:00:21.675Z</time></trkpt><trkpt lat="38.8580843" lon="16.4658911"><ele>317.0</ele><time>2026-04-11T15:00:22.675Z</time></trkpt><trkpt lat="38.8580659" lon="16.4660445"><ele>317.0</ele><time>2026-04-11T15:00:23.676Z</time></trkpt><trkpt lat="38.8580508" lon="16.4661975"><ele>318.5</ele><time>2026-04-11T15:00:24.675Z</time></trkpt><trkpt lat="38.8580372" lon="16.4663568"><ele>320.0</ele><time>2026-04-11T15:00:25.676Z</time></trkpt><trkpt lat="38.8580303" lon="16.4665018"><ele>321.5</ele><time>2026-04-11T15:00:26.675Z</time></trkpt><trkpt lat="38.858027" lon="16.4666567"><ele>323.0</ele><time>2026-04-11T15:00:27.675Z</time></trkpt><trkpt lat="38.858033" lon="16.4668188"><ele>323.0</ele><time>2026-04-11T15:00:28.676Z</time></trkpt><trkpt lat="38.8580499" lon="16.4669912"><ele>323.0</ele><time>2026-04-11T15:00:29.675Z</time></trkpt><trkpt lat="38.8580759" lon="16.4671641"><ele>323.0</ele><time>2026-04-11T15:00:30.675Z</time></trkpt><trkpt lat="38.8581176" lon="16.4673189"><ele>323.0</ele><time>2026-04-11T15:00:31.676Z</time></trkpt><trkpt lat="38.8581846" lon="16.4674432"><ele>323.79999999999995</ele><time>2026-04-11T15:00:32.675Z</time></trkpt><trkpt lat="38.858265" lon="16.4675306"><ele>324.6</ele><time>2026-04-11T15:00:33.676Z</time></trkpt><trkpt lat="38.8583682" lon="16.4675698"><ele>325.4</ele><time>2026-04-11T15:00:34.676Z</time></trkpt><trkpt lat="38.8584662" lon="16.4675985"><ele>326.20000000000005</ele><time>2026-04-11T15:00:35.675Z</time></trkpt><trkpt lat="38.858562" lon="16.4676235"><ele>327.0</ele><time>2026-04-11T15:00:36.676Z</time></trkpt><trkpt lat="38.8586471" lon="16.4676443"><ele>329.1666666666667</ele><time>2026-04-11T15:00:37.676Z</time></trkpt><trkpt lat="38.858721" lon="16.4676598"><ele>331.3333333333333</ele><time>2026-04-11T15:00:38.675Z</time></trkpt><trkpt lat="38.858785" lon="16.4676881"><ele>333.5</ele><time>2026-04-11T15:00:39.675Z</time></trkpt><trkpt lat="38.858854" lon="16.4677393"><ele>335.66666666666663</ele><time>2026-04-11T15:00:40.675Z</time></trkpt><trkpt lat="38.8589167" lon="16.467801"><ele>337.8333333333333</ele><time>2026-04-11T15:00:41.675Z</time></trkpt><trkpt lat="38.8589729" lon="16.4678783"><ele>340.0</ele><time>2026-04-11T15:00:42.675Z</time></trkpt><trkpt lat="38.8590307" lon="16.4679711"><ele>340.0</ele><time>2026-04-11T15:00:43.676Z</time></trkpt><trkpt lat="38.8590794" lon="16.4680505"><ele>340.0</ele><time>2026-04-11T15:00:44.676Z</time></trkpt><trkpt lat="38.8591253" lon="16.4681165"><ele>340.0</ele><time>2026-04-11T15:00:45.675Z</time></trkpt><trkpt lat="38.8592246" lon="16.4681984"><ele>340.0</ele><time>2026-04-11T15:00:47.676Z</time></trkpt><trkpt lat="38.8593232" lon="16.4682552"><ele>340.0</ele><time>2026-04-11T15:00:49.676Z</time></trkpt><trkpt lat="38.8594256" lon="16.4682859"><ele>339.5</ele><time>2026-04-11T15:00:51.676Z</time></trkpt><trkpt lat="38.8595459" lon="16.4683021"><ele>339.0</ele><time>2026-04-11T15:00:53.675Z</time></trkpt><trkpt lat="38.8596624" lon="16.4683174"><ele>338.5</ele><time>2026-04-11T15:00:55.675Z</time></trkpt><trkpt lat="38.8597822" lon="16.4683343"><ele>338.0</ele><time>2026-04-11T15:00:57.676Z</time></trkpt><trkpt lat="38.8599189" lon="16.468346"><ele>338.0</ele><time>2026-04-11T15:00:59.675Z</time></trkpt><trkpt lat="38.8600003" lon="16.4683547"><ele>338.0</ele><time>2026-04-11T15:01:00.676Z</time></trkpt><trkpt lat="38.8600985" lon="16.4683583"><ele>338.0</ele><time>2026-04-11T15:01:01.675Z</time></trkpt><trkpt lat="38.860198" lon="16.4683678"><ele>338.0</ele><time>2026-04-11T15:01:02.675Z</time></trkpt><trkpt lat="38.8603034" lon="16.4683751"><ele>338.0</ele><time>2026-04-11T15:01:03.675Z</time></trkpt><trkpt lat="38.8603999" lon="16.46837"><ele>338.0</ele><time>2026-04-11T15:01:04.675Z</time></trkpt><trkpt lat="38.8604779" lon="16.4683398"><ele>338.0</ele><time>2026-04-11T15:01:05.676Z</time></trkpt><trkpt lat="38.8605535" lon="16.4682772"><ele>338.0</ele><time>2026-04-11T15:01:06.675Z</time></trkpt><trkpt lat="38.860609" lon="16.4681732"><ele>338.0</ele><time>2026-04-11T15:01:07.676Z</time></trkpt><trkpt lat="38.8606361" lon="16.4680587"><ele>338.0</ele><time>2026-04-11T15:01:08.676Z</time></trkpt><trkpt lat="38.8606613" lon="16.4679434"><ele>337.4</ele><time>2026-04-11T15:01:09.675Z</time></trkpt><trkpt lat="38.8606835" lon="16.4678192"><ele>336.79999999999995</ele><time>2026-04-11T15:01:10.675Z</time></trkpt><trkpt lat="38.8607261" lon="16.4677116"><ele>336.2</ele><time>2026-04-11T15:01:11.676Z</time></trkpt><trkpt lat="38.8607856" lon="16.4676173"><ele>335.6</ele><time>2026-04-11T15:01:12.675Z</time></trkpt><trkpt lat="38.8608636" lon="16.4675412"><ele>335.0</ele><time>2026-04-11T15:01:13.676Z</time></trkpt><trkpt lat="38.8609617" lon="16.4674889"><ele>334.8</ele><time>2026-04-11T15:01:14.675Z</time></trkpt><trkpt lat="38.8610651" lon="16.4674741"><ele>334.6</ele><time>2026-04-11T15:01:15.675Z</time></trkpt><trkpt lat="38.8611638" lon="16.4674941"><ele>334.4</ele><time>2026-04-11T15:01:16.676Z</time></trkpt><trkpt lat="38.8612505" lon="16.467556"><ele>334.2</ele><time>2026-04-11T15:01:17.675Z</time></trkpt><trkpt lat="38.8613195" lon="16.46765"><ele>334.0</ele><time>2026-04-11T15:01:18.675Z</time></trkpt><trkpt lat="38.8613681" lon="16.4677649"><ele>334.0</ele><time>2026-04-11T15:01:19.675Z</time></trkpt><trkpt lat="38.8613903" lon="16.4679047"><ele>334.0</ele><time>2026-04-11T15:01:20.676Z</time></trkpt><trkpt lat="38.8613925" lon="16.4680519"><ele>334.0</ele><time>2026-04-11T15:01:21.675Z</time></trkpt><trkpt lat="38.8613779" lon="16.468204"><ele>334.0</ele><time>2026-04-11T15:01:22.675Z</time></trkpt><trkpt lat="38.8613634" lon="16.4683603"><ele>333.0</ele><time>2026-04-11T15:01:23.675Z</time></trkpt><trkpt lat="38.8613749" lon="16.4685214"><ele>332.0</ele><time>2026-04-11T15:01:24.675Z</time></trkpt><trkpt lat="38.8614269" lon="16.4686641"><ele>331.0</ele><time>2026-04-11T15:01:25.675Z</time></trkpt><trkpt lat="38.8615129" lon="16.4687839"><ele>330.0</ele><time>2026-04-11T15:01:26.676Z</time></trkpt><trkpt lat="38.8616264" lon="16.4688685"><ele>330.5</ele><time>2026-04-11T15:01:27.675Z</time></trkpt><trkpt lat="38.8617594" lon="16.4689195"><ele>331.0</ele><time>2026-04-11T15:01:28.675Z</time></trkpt><trkpt lat="38.8618937" lon="16.4689737"><ele>331.5</ele><time>2026-04-11T15:01:29.676Z</time></trkpt><trkpt lat="38.862029" lon="16.4690349"><ele>332.0</ele><time>2026-04-11T15:01:30.675Z</time></trkpt><trkpt lat="38.8621602" lon="16.4691037"><ele>332.0</ele><time>2026-04-11T15:01:31.675Z</time></trkpt><trkpt lat="38.8622907" lon="16.4691742"><ele>332.0</ele><time>2026-04-11T15:01:32.676Z</time></trkpt><trkpt lat="38.8624276" lon="16.4692405"><ele>332.0</ele><time>2026-04-11T15:01:33.676Z</time></trkpt><trkpt lat="38.862567" lon="16.4693057"><ele>332.0</ele><time>2026-04-11T15:01:34.675Z</time></trkpt><trkpt lat="38.8627038" lon="16.4693649"><ele>333.5</ele><time>2026-04-11T15:01:35.675Z</time></trkpt><trkpt lat="38.8628318" lon="16.4694367"><ele>335.0</ele><time>2026-04-11T15:01:36.676Z</time></trkpt><trkpt lat="38.8629537" lon="16.4695011"><ele>336.5</ele><time>2026-04-11T15:01:37.675Z</time></trkpt><trkpt lat="38.8630734" lon="16.4695615"><ele>338.0</ele><time>2026-04-11T15:01:38.676Z</time></trkpt><trkpt lat="38.8631901" lon="16.469611"><ele>338.0</ele><time>2026-04-11T15:01:39.676Z</time></trkpt><trkpt lat="38.8633019" lon="16.4696662"><ele>338.0</ele><time>2026-04-11T15:01:40.676Z</time></trkpt><trkpt lat="38.8634138" lon="16.4697148"><ele>338.0</ele><time>2026-04-11T15:01:41.675Z</time></trkpt><trkpt lat="38.8635296" lon="16.4697454"><ele>338.0</ele><time>2026-04-11T15:01:42.676Z</time></trkpt><trkpt lat="38.8636426" lon="16.4697693"><ele>338.5</ele><time>2026-04-11T15:01:43.675Z</time></trkpt><trkpt lat="38.8637594" lon="16.4697926"><ele>339.0</ele><time>2026-04-11T15:01:44.676Z</time></trkpt><trkpt lat="38.8638865" lon="16.4698127"><ele>339.5</ele><time>2026-04-11T15:01:45.675Z</time></trkpt><trkpt lat="38.8640182" lon="16.469839"><ele>340.0</ele><time>2026-04-11T15:01:46.675Z</time></trkpt><trkpt lat="38.8641505" lon="16.4698779"><ele>340.0</ele><time>2026-04-11T15:01:47.675Z</time></trkpt><trkpt lat="38.8642761" lon="16.4699359"><ele>340.0</ele><time>2026-04-11T15:01:48.675Z</time></trkpt><trkpt lat="38.864396" lon="16.4699925"><ele>340.0</ele><time>2026-04-11T15:01:49.675Z</time></trkpt><trkpt lat="38.8645017" lon="16.4700499"><ele>340.0</ele><time>2026-04-11T15:01:50.675Z</time></trkpt><trkpt lat="38.8646027" lon="16.4701018"><ele>340.2</ele><time>2026-04-11T15:01:51.676Z</time></trkpt><trkpt lat="38.8647049" lon="16.4701606"><ele>340.4</ele><time>2026-04-11T15:01:52.675Z</time></trkpt><trkpt lat="38.8648032" lon="16.4702247"><ele>340.6</ele><time>2026-04-11T15:01:53.675Z</time></trkpt><trkpt lat="38.8648938" lon="16.4703"><ele>340.8</ele><time>2026-04-11T15:01:54.676Z</time></trkpt><trkpt lat="38.8649743" lon="16.4703899"><ele>341.0</ele><time>2026-04-11T15:01:55.675Z</time></trkpt><trkpt lat="38.8650448" lon="16.4704952"><ele>341.25</ele><time>2026-04-11T15:01:56.676Z</time></trkpt><trkpt lat="38.8651074" lon="16.4706125"><ele>341.5</ele><time>2026-04-11T15:01:57.675Z</time></trkpt><trkpt lat="38.8651716" lon="16.4707272"><ele>341.75</ele><time>2026-04-11T15:01:58.675Z</time></trkpt><trkpt lat="38.8652389" lon="16.4708456"><ele>342.0</ele><time>2026-04-11T15:01:59.675Z</time></trkpt><trkpt lat="38.8653095" lon="16.4709658"><ele>342.75</ele><time>2026-04-11T15:02:00.675Z</time></trkpt><trkpt lat="38.8653859" lon="16.471094"><ele>343.5</ele><time>2026-04-11T15:02:01.675Z</time></trkpt><trkpt lat="38.8654615" lon="16.4712285"><ele>344.25</ele><time>2026-04-11T15:02:02.675Z</time></trkpt><trkpt lat="38.8655328" lon="16.4713578"><ele>345.0</ele><time>2026-04-11T15:02:03.676Z</time></trkpt><trkpt lat="38.8656067" lon="16.4714862"><ele>345.5</ele><time>2026-04-11T15:02:04.676Z</time></trkpt><trkpt lat="38.8656834" lon="16.4716161"><ele>346.0</ele><time>2026-04-11T15:02:05.676Z</time></trkpt><trkpt lat="38.8657633" lon="16.471746"><ele>346.5</ele><time>2026-04-11T15:02:06.675Z</time></trkpt><trkpt lat="38.8658418" lon="16.4718744"><ele>347.0</ele><time>2026-04-11T15:02:07.676Z</time></trkpt><trkpt lat="38.8659198" lon="16.4720016"><ele>346.25</ele><time>2026-04-11T15:02:08.675Z</time></trkpt><trkpt lat="38.8659967" lon="16.4721318"><ele>345.5</ele><time>2026-04-11T15:02:09.675Z</time></trkpt><trkpt lat="38.8660717" lon="16.4722676"><ele>344.75</ele><time>2026-04-11T15:02:10.675Z</time></trkpt><trkpt lat="38.8661458" lon="16.4723925"><ele>344.0</ele><time>2026-04-11T15:02:11.675Z</time></trkpt><trkpt lat="38.8662235" lon="16.472526"><ele>344.0</ele><time>2026-04-11T15:02:12.675Z</time></trkpt><trkpt lat="38.8663046" lon="16.4726593"><ele>344.0</ele><time>2026-04-11T15:02:13.676Z</time></trkpt><trkpt lat="38.8663846" lon="16.4727882"><ele>344.0</ele><time>2026-04-11T15:02:14.675Z</time></trkpt><trkpt lat="38.8664676" lon="16.4729169"><ele>344.0</ele><time>2026-04-11T15:02:15.676Z</time></trkpt><trkpt lat="38.866547" lon="16.4730466"><ele>344.0</ele><time>2026-04-11T15:02:16.676Z</time></trkpt><trkpt lat="38.8666254" lon="16.4731755"><ele>344.0</ele><time>2026-04-11T15:02:17.675Z</time></trkpt><trkpt lat="38.8667066" lon="16.4733111"><ele>344.0</ele><time>2026-04-11T15:02:18.675Z</time></trkpt><trkpt lat="38.8667913" lon="16.4734404"><ele>344.0</ele><time>2026-04-11T15:02:19.676Z</time></trkpt><trkpt lat="38.8668738" lon="16.4735729"><ele>344.0</ele><time>2026-04-11T15:02:20.675Z</time></trkpt><trkpt lat="38.8669613" lon="16.4737061"><ele>344.0</ele><time>2026-04-11T15:02:21.675Z</time></trkpt><trkpt lat="38.8670516" lon="16.4738074"><ele>344.0</ele><time>2026-04-11T15:02:22.675Z</time></trkpt><trkpt lat="38.8671597" lon="16.4738854"><ele>344.0</ele><time>2026-04-11T15:02:23.675Z</time></trkpt><trkpt lat="38.8672769" lon="16.4739174"><ele>344.75</ele><time>2026-04-11T15:02:24.675Z</time></trkpt><trkpt lat="38.8673949" lon="16.4739189"><ele>345.5</ele><time>2026-04-11T15:02:25.675Z</time></trkpt><trkpt lat="38.8675143" lon="16.4739154"><ele>346.25</ele><time>2026-04-11T15:02:26.676Z</time></trkpt><trkpt lat="38.8676317" lon="16.4739262"><ele>347.0</ele><time>2026-04-11T15:02:27.675Z</time></trkpt><trkpt lat="38.8677456" lon="16.4739409"><ele>347.25</ele><time>2026-04-11T15:02:28.676Z</time></trkpt><trkpt lat="38.8678587" lon="16.4739645"><ele>347.5</ele><time>2026-04-11T15:02:29.675Z</time></trkpt><trkpt lat="38.8679676" lon="16.4740114"><ele>347.75</ele><time>2026-04-11T15:02:30.675Z</time></trkpt><trkpt lat="38.8680757" lon="16.4740653"><ele>348.0</ele><time>2026-04-11T15:02:31.676Z</time></trkpt><trkpt lat="38.8681878" lon="16.4741269"><ele>348.0</ele><time>2026-04-11T15:02:32.675Z</time></trkpt><trkpt lat="38.8682998" lon="16.4741984"><ele>348.0</ele><time>2026-04-11T15:02:33.675Z</time></trkpt><trkpt lat="38.8684162" lon="16.4742624"><ele>348.0</ele><time>2026-04-11T15:02:34.675Z</time></trkpt><trkpt lat="38.8685383" lon="16.4743052"><ele>348.0</ele><time>2026-04-11T15:02:35.676Z</time></trkpt><trkpt lat="38.868659" lon="16.4743347"><ele>348.25</ele><time>2026-04-11T15:02:36.676Z</time></trkpt><trkpt lat="38.8687823" lon="16.4743431"><ele>348.5</ele><time>2026-04-11T15:02:37.676Z</time></trkpt><trkpt lat="38.8689023" lon="16.4743355"><ele>348.75</ele><time>2026-04-11T15:02:38.675Z</time></trkpt><trkpt lat="38.869017" lon="16.4743208"><ele>349.0</ele><time>2026-04-11T15:02:39.676Z</time></trkpt><trkpt lat="38.8691323" lon="16.4743124"><ele>349.0</ele><time>2026-04-11T15:02:40.676Z</time></trkpt><trkpt lat="38.8692516" lon="16.4743169"><ele>349.0</ele><time>2026-04-11T15:02:41.675Z</time></trkpt><trkpt lat="38.8693732" lon="16.4743409"><ele>349.0</ele><time>2026-04-11T15:02:42.675Z</time></trkpt><trkpt lat="38.869498" lon="16.4743745"><ele>349.0</ele><time>2026-04-11T15:02:43.676Z</time></trkpt><trkpt lat="38.8696263" lon="16.4744028"><ele>348.75</ele><time>2026-04-11T15:02:44.675Z</time></trkpt><trkpt lat="38.869759" lon="16.4744266"><ele>348.5</ele><time>2026-04-11T15:02:45.675Z</time></trkpt><trkpt lat="38.8698858" lon="16.4744528"><ele>348.25</ele><time>2026-04-11T15:02:46.676Z</time></trkpt><trkpt lat="38.8700121" lon="16.4744752"><ele>348.0</ele><time>2026-04-11T15:02:47.675Z</time></trkpt><trkpt lat="38.8701291" lon="16.4744981"><ele>347.0</ele><time>2026-04-11T15:02:48.675Z</time></trkpt><trkpt lat="38.8702387" lon="16.4745271"><ele>346.0</ele><time>2026-04-11T15:02:49.675Z</time></trkpt><trkpt lat="38.8703386" lon="16.4745476"><ele>345.0</ele><time>2026-04-11T15:02:50.676Z</time></trkpt><trkpt lat="38.8704264" lon="16.4745924"><ele>344.0</ele><time>2026-04-11T15:02:51.675Z</time></trkpt><trkpt lat="38.8705087" lon="16.4746714"><ele>343.0</ele><time>2026-04-11T15:02:52.675Z</time></trkpt><trkpt lat="38.8705944" lon="16.4747614"><ele>343.0</ele><time>2026-04-11T15:02:53.675Z</time></trkpt><trkpt lat="38.8706852" lon="16.4748486"><ele>343.0</ele><time>2026-04-11T15:02:54.676Z</time></trkpt><trkpt lat="38.8707779" lon="16.474922"><ele>343.0</ele><time>2026-04-11T15:02:55.675Z</time></trkpt><trkpt lat="38.8708798" lon="16.4749827"><ele>343.0</ele><time>2026-04-11T15:02:56.676Z</time></trkpt><trkpt lat="38.8710025" lon="16.4750198"><ele>341.75</ele><time>2026-04-11T15:02:57.675Z</time></trkpt><trkpt lat="38.8711317" lon="16.4750401"><ele>340.5</ele><time>2026-04-11T15:02:58.675Z</time></trkpt><trkpt lat="38.8712615" lon="16.4750508"><ele>339.25</ele><time>2026-04-11T15:02:59.675Z</time></trkpt><trkpt lat="38.8713901" lon="16.4750781"><ele>338.0</ele><time>2026-04-11T15:03:00.675Z</time></trkpt><trkpt lat="38.8715208" lon="16.475117"><ele>338.0</ele><time>2026-04-11T15:03:01.675Z</time></trkpt><trkpt lat="38.8716585" lon="16.4751921"><ele>338.0</ele><time>2026-04-11T15:03:02.675Z</time></trkpt><trkpt lat="38.8717937" lon="16.4752766"><ele>338.0</ele><time>2026-04-11T15:03:03.676Z</time></trkpt><trkpt lat="38.8719386" lon="16.47535"><ele>337.75</ele><time>2026-04-11T15:03:04.675Z</time></trkpt><trkpt lat="38.8720496" lon="16.4754269"><ele>337.5</ele><time>2026-04-11T15:03:05.675Z</time></trkpt><trkpt lat="38.8721694" lon="16.4755082"><ele>337.25</ele><time>2026-04-11T15:03:06.676Z</time></trkpt><trkpt lat="38.8722922" lon="16.4755828"><ele>337.0</ele><time>2026-04-11T15:03:07.675Z</time></trkpt><trkpt lat="38.8724134" lon="16.475656"><ele>337.75</ele><time>2026-04-11T15:03:08.675Z</time></trkpt><trkpt lat="38.8725358" lon="16.4756952"><ele>338.5</ele><time>2026-04-11T15:03:09.675Z</time></trkpt><trkpt lat="38.8726589" lon="16.4756954"><ele>339.25</ele><time>2026-04-11T15:03:10.675Z</time></trkpt><trkpt lat="38.8727719" lon="16.4756344"><ele>340.0</ele><time>2026-04-11T15:03:11.676Z</time></trkpt><trkpt lat="38.8728686" lon="16.4755274"><ele>341.25</ele><time>2026-04-11T15:03:12.676Z</time></trkpt><trkpt lat="38.872934" lon="16.4753992"><ele>342.5</ele><time>2026-04-11T15:03:13.676Z</time></trkpt><trkpt lat="38.8730062" lon="16.4752596"><ele>343.75</ele><time>2026-04-11T15:03:14.675Z</time></trkpt><trkpt lat="38.8730792" lon="16.4751178"><ele>345.0</ele><time>2026-04-11T15:03:15.675Z</time></trkpt><trkpt lat="38.8731529" lon="16.4749802"><ele>345.0</ele><time>2026-04-11T15:03:16.675Z</time></trkpt><trkpt lat="38.8732249" lon="16.4748527"><ele>345.0</ele><time>2026-04-11T15:03:17.676Z</time></trkpt><trkpt lat="38.873292" lon="16.4747519"><ele>345.0</ele><time>2026-04-11T15:03:18.675Z</time></trkpt><trkpt lat="38.8733556" lon="16.4746625"><ele>345.0</ele><time>2026-04-11T15:03:19.676Z</time></trkpt><trkpt lat="38.8734247" lon="16.4745943"><ele>345.0</ele><time>2026-04-11T15:03:20.676Z</time></trkpt><trkpt lat="38.8735012" lon="16.4745579"><ele>345.0</ele><time>2026-04-11T15:03:21.675Z</time></trkpt><trkpt lat="38.8735806" lon="16.4745578"><ele>345.0</ele><time>2026-04-11T15:03:22.675Z</time></trkpt><trkpt lat="38.8736665" lon="16.474606"><ele>345.0</ele><time>2026-04-11T15:03:23.676Z</time></trkpt><trkpt lat="38.8737388" lon="16.4747032"><ele>345.0</ele><time>2026-04-11T15:03:24.675Z</time></trkpt><trkpt lat="38.8737912" lon="16.4748509"><ele>345.0</ele><time>2026-04-11T15:03:25.676Z</time></trkpt><trkpt lat="38.8738233" lon="16.4750281"><ele>345.25</ele><time>2026-04-11T15:03:26.676Z</time></trkpt><trkpt lat="38.8738606" lon="16.4752067"><ele>345.5</ele><time>2026-04-11T15:03:27.675Z</time></trkpt><trkpt lat="38.8739087" lon="16.4753655"><ele>345.75</ele><time>2026-04-11T15:03:28.675Z</time></trkpt><trkpt lat="38.8739748" lon="16.475516"><ele>346.0</ele><time>2026-04-11T15:03:29.675Z</time></trkpt><trkpt lat="38.8740532" lon="16.4756538"><ele>346.75</ele><time>2026-04-11T15:03:30.675Z</time></trkpt><trkpt lat="38.8741454" lon="16.4757799"><ele>347.5</ele><time>2026-04-11T15:03:31.675Z</time></trkpt><trkpt lat="38.8742463" lon="16.4759067"><ele>348.25</ele><time>2026-04-11T15:03:32.675Z</time></trkpt><trkpt lat="38.8743573" lon="16.4760327"><ele>349.0</ele><time>2026-04-11T15:03:33.676Z</time></trkpt><trkpt lat="38.8744649" lon="16.4761517"><ele>350.0</ele><time>2026-04-11T15:03:34.675Z</time></trkpt><trkpt lat="38.8745763" lon="16.4762713"><ele>351.0</ele><time>2026-04-11T15:03:35.676Z</time></trkpt><trkpt lat="38.8746848" lon="16.4763971"><ele>352.0</ele><time>2026-04-11T15:03:36.676Z</time></trkpt><trkpt lat="38.8747932" lon="16.4765294"><ele>353.0</ele><time>2026-04-11T15:03:37.675Z</time></trkpt><trkpt lat="38.8749044" lon="16.476671"><ele>353.0</ele><time>2026-04-11T15:03:38.675Z</time></trkpt><trkpt lat="38.8750121" lon="16.4768102"><ele>353.0</ele><time>2026-04-11T15:03:39.675Z</time></trkpt><trkpt lat="38.8751231" lon="16.4769467"><ele>353.0</ele><time>2026-04-11T15:03:40.676Z</time></trkpt><trkpt lat="38.8752403" lon="16.4770749"><ele>353.0</ele><time>2026-04-11T15:03:41.675Z</time></trkpt><trkpt lat="38.875354" lon="16.4772029"><ele>353.0</ele><time>2026-04-11T15:03:42.676Z</time></trkpt><trkpt lat="38.8754617" lon="16.4773352"><ele>353.0</ele><time>2026-04-11T15:03:43.676Z</time></trkpt><trkpt lat="38.8755645" lon="16.4774666"><ele>353.0</ele><time>2026-04-11T15:03:44.675Z</time></trkpt><trkpt lat="38.8756615" lon="16.4775904"><ele>353.0</ele><time>2026-04-11T15:03:45.675Z</time></trkpt><trkpt lat="38.8757635" lon="16.4777148"><ele>353.0</ele><time>2026-04-11T15:03:46.675Z</time></trkpt><trkpt lat="38.8758694" lon="16.477834"><ele>353.0</ele><time>2026-04-11T15:03:47.675Z</time></trkpt><trkpt lat="38.8759703" lon="16.4779539"><ele>353.0</ele><time>2026-04-11T15:03:48.675Z</time></trkpt><trkpt lat="38.8760675" lon="16.4780792"><ele>353.75</ele><time>2026-04-11T15:03:49.675Z</time></trkpt><trkpt lat="38.8761639" lon="16.4782032"><ele>354.5</ele><time>2026-04-11T15:03:50.675Z</time></trkpt><trkpt lat="38.8762591" lon="16.4783309"><ele>355.25</ele><time>2026-04-11T15:03:51.675Z</time></trkpt><trkpt lat="38.8763579" lon="16.4784536"><ele>356.0</ele><time>2026-04-11T15:03:52.675Z</time></trkpt><trkpt lat="38.8764566" lon="16.4785765"><ele>356.0</ele><time>2026-04-11T15:03:53.675Z</time></trkpt><trkpt lat="38.8765564" lon="16.4786928"><ele>356.0</ele><time>2026-04-11T15:03:54.675Z</time></trkpt><trkpt lat="38.8766552" lon="16.4788216"><ele>356.0</ele><time>2026-04-11T15:03:55.675Z</time></trkpt><trkpt lat="38.8767522" lon="16.4789443"><ele>356.0</ele><time>2026-04-11T15:03:56.675Z</time></trkpt><trkpt lat="38.8768458" lon="16.4790659"><ele>356.75</ele><time>2026-04-11T15:03:57.675Z</time></trkpt><trkpt lat="38.8769281" lon="16.4791817"><ele>357.5</ele><time>2026-04-11T15:03:58.676Z</time></trkpt><trkpt lat="38.8769939" lon="16.4793155"><ele>358.25</ele><time>2026-04-11T15:03:59.675Z</time></trkpt><trkpt lat="38.8770446" lon="16.4794642"><ele>359.0</ele><time>2026-04-11T15:04:00.676Z</time></trkpt><trkpt lat="38.8770752" lon="16.4796296"><ele>359.25</ele><time>2026-04-11T15:04:01.675Z</time></trkpt><trkpt lat="38.8770941" lon="16.4798021"><ele>359.5</ele><time>2026-04-11T15:04:02.675Z</time></trkpt><trkpt lat="38.8771073" lon="16.4799718"><ele>359.75</ele><time>2026-04-11T15:04:03.675Z</time></trkpt><trkpt lat="38.8771245" lon="16.4801479"><ele>360.0</ele><time>2026-04-11T15:04:04.676Z</time></trkpt><trkpt lat="38.8771488" lon="16.4803267"><ele>360.25</ele><time>2026-04-11T15:04:05.676Z</time></trkpt><trkpt lat="38.8771767" lon="16.4805059"><ele>360.5</ele><time>2026-04-11T15:04:06.676Z</time></trkpt><trkpt lat="38.8771937" lon="16.480697"><ele>360.75</ele><time>2026-04-11T15:04:07.675Z</time></trkpt><trkpt lat="38.8772124" lon="16.4808898"><ele>361.0</ele><time>2026-04-11T15:04:08.675Z</time></trkpt><trkpt lat="38.877235" lon="16.4810842"><ele>361.0</ele><time>2026-04-11T15:04:09.676Z</time></trkpt><trkpt lat="38.8772641" lon="16.4812562"><ele>361.0</ele><time>2026-04-11T15:04:10.676Z</time></trkpt><trkpt lat="38.8772883" lon="16.4814288"><ele>361.0</ele><time>2026-04-11T15:04:11.676Z</time></trkpt><trkpt lat="38.8773131" lon="16.4816003"><ele>361.0</ele><time>2026-04-11T15:04:12.675Z</time></trkpt><trkpt lat="38.8773335" lon="16.4817704"><ele>360.75</ele><time>2026-04-11T15:04:13.676Z</time></trkpt><trkpt lat="38.8773581" lon="16.4819386"><ele>360.5</ele><time>2026-04-11T15:04:14.676Z</time></trkpt><trkpt lat="38.8773745" lon="16.4821053"><ele>360.25</ele><time>2026-04-11T15:04:15.676Z</time></trkpt><trkpt lat="38.8774011" lon="16.4822736"><ele>360.0</ele><time>2026-04-11T15:04:16.676Z</time></trkpt><trkpt lat="38.8774277" lon="16.4824448"><ele>361.0</ele><time>2026-04-11T15:04:17.675Z</time></trkpt><trkpt lat="38.8774461" lon="16.48262"><ele>362.0</ele><time>2026-04-11T15:04:18.676Z</time></trkpt><trkpt lat="38.8774696" lon="16.4827979"><ele>363.0</ele><time>2026-04-11T15:04:19.675Z</time></trkpt><trkpt lat="38.8775004" lon="16.4829663"><ele>364.0</ele><time>2026-04-11T15:04:20.675Z</time></trkpt><trkpt lat="38.8775295" lon="16.4831427"><ele>364.0</ele><time>2026-04-11T15:04:21.676Z</time></trkpt><trkpt lat="38.8775428" lon="16.4833196"><ele>364.0</ele><time>2026-04-11T15:04:22.676Z</time></trkpt><trkpt lat="38.8775447" lon="16.483485"><ele>364.0</ele><time>2026-04-11T15:04:23.675Z</time></trkpt><trkpt lat="38.8775355" lon="16.4836465"><ele>364.0</ele><time>2026-04-11T15:04:24.676Z</time></trkpt><trkpt lat="38.8775218" lon="16.483804"><ele>363.6</ele><time>2026-04-11T15:04:25.676Z</time></trkpt><trkpt lat="38.8775124" lon="16.4839428"><ele>363.2</ele><time>2026-04-11T15:04:26.675Z</time></trkpt><trkpt lat="38.8775221" lon="16.4840603"><ele>362.8</ele><time>2026-04-11T15:04:27.676Z</time></trkpt><trkpt lat="38.8775531" lon="16.4841525"><ele>362.40000000000003</ele><time>2026-04-11T15:04:28.676Z</time></trkpt><trkpt lat="38.8776123" lon="16.4842329"><ele>362.0</ele><time>2026-04-11T15:04:29.676Z</time></trkpt><trkpt lat="38.8777022" lon="16.4842867"><ele>361.40000000000003</ele><time>2026-04-11T15:04:30.676Z</time></trkpt><trkpt lat="38.8778137" lon="16.4842992"><ele>360.8</ele><time>2026-04-11T15:04:31.675Z</time></trkpt><trkpt lat="38.8779261" lon="16.4842848"><ele>360.2</ele><time>2026-04-11T15:04:32.675Z</time></trkpt><trkpt lat="38.8780301" lon="16.4842737"><ele>359.6</ele><time>2026-04-11T15:04:33.675Z</time></trkpt><trkpt lat="38.8781421" lon="16.484268"><ele>359.0</ele><time>2026-04-11T15:04:34.675Z</time></trkpt><trkpt lat="38.8782425" lon="16.4842905"><ele>359.0</ele><time>2026-04-11T15:04:35.675Z</time></trkpt><trkpt lat="38.878318" lon="16.48434"><ele>359.0</ele><time>2026-04-11T15:04:36.675Z</time></trkpt><trkpt lat="38.8783625" lon="16.4844151"><ele>359.0</ele><time>2026-04-11T15:04:37.675Z</time></trkpt><trkpt lat="38.878391" lon="16.484517"><ele>359.0</ele><time>2026-04-11T15:04:38.675Z</time></trkpt><trkpt lat="38.8784176" lon="16.4846312"><ele>359.0</ele><time>2026-04-11T15:04:39.675Z</time></trkpt><trkpt lat="38.8784496" lon="16.4847688"><ele>359.0</ele><time>2026-04-11T15:04:40.675Z</time></trkpt><trkpt lat="38.878483" lon="16.4849214"><ele>355.75</ele><time>2026-04-11T15:04:41.676Z</time></trkpt><trkpt lat="38.8785284" lon="16.4850565"><ele>352.5</ele><time>2026-04-11T15:04:42.675Z</time></trkpt><trkpt lat="38.878593" lon="16.4851767"><ele>349.25</ele><time>2026-04-11T15:04:43.676Z</time></trkpt><trkpt lat="38.8786605" lon="16.4852989"><ele>346.0</ele><time>2026-04-11T15:04:44.676Z</time></trkpt><trkpt lat="38.8787426" lon="16.4854067"><ele>347.0</ele><time>2026-04-11T15:04:45.675Z</time></trkpt><trkpt lat="38.878828" lon="16.485517"><ele>348.0</ele><time>2026-04-11T15:04:46.676Z</time></trkpt><trkpt lat="38.8788819" lon="16.4856369"><ele>349.0</ele><time>2026-04-11T15:04:47.676Z</time></trkpt><trkpt lat="38.8789192" lon="16.485765"><ele>350.0</ele><time>2026-04-11T15:04:48.676Z</time></trkpt><trkpt lat="38.8789402" lon="16.4859076"><ele>351.0</ele><time>2026-04-11T15:04:49.675Z</time></trkpt><trkpt lat="38.8789611" lon="16.4860472"><ele>351.0</ele><time>2026-04-11T15:04:50.676Z</time></trkpt><trkpt lat="38.8789836" lon="16.486172"><ele>351.0</ele><time>2026-04-11T15:04:51.675Z</time></trkpt><trkpt lat="38.8789946" lon="16.4862885"><ele>351.0</ele><time>2026-04-11T15:04:52.675Z</time></trkpt><trkpt lat="38.8790073" lon="16.4863697"><ele>351.0</ele><time>2026-04-11T15:04:53.675Z</time></trkpt><trkpt lat="38.8790107" lon="16.4864533"><ele>351.0</ele><time>2026-04-11T15:04:54.676Z</time></trkpt><trkpt lat="38.8790061" lon="16.4865855"><ele>351.0</ele><time>2026-04-11T15:04:56.676Z</time></trkpt><trkpt lat="38.8789954" lon="16.486707"><ele>351.0</ele><time>2026-04-11T15:04:58.675Z</time></trkpt><trkpt lat="38.8789678" lon="16.4868372"><ele>351.0</ele><time>2026-04-11T15:05:00.676Z</time></trkpt><trkpt lat="38.8789455" lon="16.4869527"><ele>351.0</ele><time>2026-04-11T15:05:02.675Z</time></trkpt><trkpt lat="38.8789554" lon="16.4870412"><ele>351.0</ele><time>2026-04-11T15:06:29.675Z</time></trkpt><trkpt lat="38.8789697" lon="16.4871374"><ele>351.0</ele><time>2026-04-11T15:06:31.675Z</time></trkpt><trkpt lat="38.878969" lon="16.4872702"><ele>351.0</ele><time>2026-04-11T15:06:33.675Z</time></trkpt><trkpt lat="38.8789598" lon="16.4874046"><ele>350.5</ele><time>2026-04-11T15:06:35.675Z</time></trkpt><trkpt lat="38.8789417" lon="16.4875111"><ele>350.0</ele><time>2026-04-11T15:06:37.675Z</time></trkpt><trkpt lat="38.8789381" lon="16.4876095"><ele>349.5</ele><time>2026-04-11T15:06:39.675Z</time></trkpt><trkpt lat="38.8789576" lon="16.4877118"><ele>349.0</ele><time>2026-04-11T15:06:41.675Z</time></trkpt><trkpt lat="38.8790061" lon="16.4877854"><ele>348.5</ele><time>2026-04-11T15:06:43.675Z</time></trkpt><trkpt lat="38.8790754" lon="16.4878146"><ele>348.0</ele><time>2026-04-11T15:06:45.675Z</time></trkpt><trkpt lat="38.8791567" lon="16.4878185"><ele>348.1666666666667</ele><time>2026-04-11T15:06:47.676Z</time></trkpt><trkpt lat="38.8792714" lon="16.4878305"><ele>348.3333333333333</ele><time>2026-04-11T15:06:49.675Z</time></trkpt><trkpt lat="38.8793418" lon="16.4878377"><ele>348.5</ele><time>2026-04-11T15:06:50.675Z</time></trkpt><trkpt lat="38.8794207" lon="16.4878415"><ele>348.66666666666663</ele><time>2026-04-11T15:06:51.675Z</time></trkpt><trkpt lat="38.8794925" lon="16.4878405"><ele>348.8333333333333</ele><time>2026-04-11T15:06:52.675Z</time></trkpt><trkpt lat="38.8795581" lon="16.4878398"><ele>349.0</ele><time>2026-04-11T15:06:53.675Z</time></trkpt><trkpt lat="38.8796301" lon="16.4878393"><ele>348.99999999999994</ele><time>2026-04-11T15:06:54.676Z</time></trkpt><trkpt lat="38.8797003" lon="16.4878187"><ele>349.0</ele><time>2026-04-11T15:06:55.676Z</time></trkpt><trkpt lat="38.8797691" lon="16.4877925"><ele>349.0</ele><time>2026-04-11T15:06:56.675Z</time></trkpt><trkpt lat="38.8798331" lon="16.4877617"><ele>349.0</ele><time>2026-04-11T15:06:57.676Z</time></trkpt><trkpt lat="38.8799038" lon="16.4877303"><ele>349.0</ele><time>2026-04-11T15:06:58.676Z</time></trkpt><trkpt lat="38.8799713" lon="16.4876992"><ele>348.99999999999994</ele><time>2026-04-11T15:06:59.675Z</time></trkpt><trkpt lat="38.8800365" lon="16.4876732"><ele>349.0</ele><time>2026-04-11T15:07:00.676Z</time></trkpt><trkpt lat="38.8801014" lon="16.4876591"><ele>350.25</ele><time>2026-04-11T15:07:01.676Z</time></trkpt><trkpt lat="38.8802092" lon="16.4876865"><ele>351.5</ele><time>2026-04-11T15:07:03.675Z</time></trkpt><trkpt lat="38.8802915" lon="16.4877665"><ele>352.75</ele><time>2026-04-11T15:07:05.675Z</time></trkpt><trkpt lat="38.8803637" lon="16.4878693"><ele>354.0</ele><time>2026-04-11T15:07:07.676Z</time></trkpt><trkpt lat="38.8804411" lon="16.4880129"><ele>354.0</ele><time>2026-04-11T15:07:09.676Z</time></trkpt><trkpt lat="38.8804875" lon="16.4881021"><ele>354.0</ele><time>2026-04-11T15:07:10.676Z</time></trkpt><trkpt lat="38.8805419" lon="16.4881987"><ele>354.0</ele><time>2026-04-11T15:07:11.675Z</time></trkpt><trkpt lat="38.8805948" lon="16.4882887"><ele>354.0</ele><time>2026-04-11T15:07:12.675Z</time></trkpt><trkpt lat="38.8806559" lon="16.4883789"><ele>354.0</ele><time>2026-04-11T15:07:13.676Z</time></trkpt><trkpt lat="38.8807125" lon="16.4884769"><ele>354.0</ele><time>2026-04-11T15:07:14.676Z</time></trkpt><trkpt lat="38.8807643" lon="16.4885716"><ele>354.0</ele><time>2026-04-11T15:07:15.675Z</time></trkpt><trkpt lat="38.8808143" lon="16.4886619"><ele>354.0</ele><time>2026-04-11T15:07:16.676Z</time></trkpt><trkpt lat="38.8808606" lon="16.4887547"><ele>354.0</ele><time>2026-04-11T15:07:17.675Z</time></trkpt><trkpt lat="38.8808854" lon="16.4888466"><ele>354.0</ele><time>2026-04-11T15:07:18.675Z</time></trkpt><trkpt lat="38.8808892" lon="16.4889387"><ele>354.0</ele><time>2026-04-11T15:07:19.675Z</time></trkpt><trkpt lat="38.8808675" lon="16.4890326"><ele>352.0</ele><time>2026-04-11T15:07:20.675Z</time></trkpt><trkpt lat="38.8808212" lon="16.4891234"><ele>350.0</ele><time>2026-04-11T15:07:21.675Z</time></trkpt><trkpt lat="38.8807537" lon="16.4891993"><ele>348.0</ele><time>2026-04-11T15:07:22.675Z</time></trkpt><trkpt lat="38.8806666" lon="16.4892713"><ele>346.0</ele><time>2026-04-11T15:07:23.676Z</time></trkpt><trkpt lat="38.8805797" lon="16.4893329"><ele>344.0</ele><time>2026-04-11T15:07:24.675Z</time></trkpt><trkpt lat="38.8804955" lon="16.489398"><ele>344.0</ele><time>2026-04-11T15:07:25.675Z</time></trkpt><trkpt lat="38.8804197" lon="16.4894743"><ele>344.0</ele><time>2026-04-11T15:07:26.676Z</time></trkpt><trkpt lat="38.8803535" lon="16.4895748"><ele>344.0</ele><time>2026-04-11T15:07:27.676Z</time></trkpt><trkpt lat="38.8803098" lon="16.489693"><ele>344.0</ele><time>2026-04-11T15:07:28.675Z</time></trkpt><trkpt lat="38.8802943" lon="16.4898193"><ele>344.0</ele><time>2026-04-11T15:07:29.675Z</time></trkpt><trkpt lat="38.8803054" lon="16.4899307"><ele>343.6666666666667</ele><time>2026-04-11T15:07:30.675Z</time></trkpt><trkpt lat="38.8803406" lon="16.4900395"><ele>343.33333333333337</ele><time>2026-04-11T15:07:31.675Z</time></trkpt><trkpt lat="38.8803851" lon="16.4901321"><ele>343.0</ele><time>2026-04-11T15:07:32.675Z</time></trkpt><trkpt lat="38.8804173" lon="16.4902201"><ele>342.6666666666667</ele><time>2026-04-11T15:07:33.675Z</time></trkpt><trkpt lat="38.8804371" lon="16.4903132"><ele>342.3333333333333</ele><time>2026-04-11T15:07:34.675Z</time></trkpt><trkpt lat="38.8804406" lon="16.490414"><ele>342.0</ele><time>2026-04-11T15:07:35.675Z</time></trkpt><trkpt lat="38.8804441" lon="16.4905086"><ele>341.8333333333333</ele><time>2026-04-11T15:07:36.675Z</time></trkpt><trkpt lat="38.8804617" lon="16.4906079"><ele>341.6666666666667</ele><time>2026-04-11T15:07:37.675Z</time></trkpt><trkpt lat="38.8804979" lon="16.4907037"><ele>341.5</ele><time>2026-04-11T15:07:38.675Z</time></trkpt><trkpt lat="38.8805453" lon="16.4907901"><ele>341.33333333333337</ele><time>2026-04-11T15:07:39.676Z</time></trkpt><trkpt lat="38.8805889" lon="16.490872"><ele>341.1666666666667</ele><time>2026-04-11T15:07:40.675Z</time></trkpt><trkpt lat="38.8806148" lon="16.490957"><ele>341.0</ele><time>2026-04-11T15:07:41.676Z</time></trkpt><trkpt lat="38.8806162" lon="16.491052"><ele>341.0</ele><time>2026-04-11T15:07:42.676Z</time></trkpt><trkpt lat="38.8805976" lon="16.4911441"><ele>341.0</ele><time>2026-04-11T15:07:43.676Z</time></trkpt><trkpt lat="38.8805413" lon="16.4912129"><ele>341.0</ele><time>2026-04-11T15:07:44.676Z</time></trkpt><trkpt lat="38.8804614" lon="16.4912718"><ele>341.0</ele><time>2026-04-11T15:07:45.675Z</time></trkpt><trkpt lat="38.8803738" lon="16.4913319"><ele>341.0</ele><time>2026-04-11T15:07:46.675Z</time></trkpt><trkpt lat="38.880292" lon="16.4914017"><ele>341.0</ele><time>2026-04-11T15:07:47.675Z</time></trkpt><trkpt lat="38.8802238" lon="16.4914884"><ele>342.20000000000005</ele><time>2026-04-11T15:07:48.675Z</time></trkpt><trkpt lat="38.8801723" lon="16.4915885"><ele>343.40000000000003</ele><time>2026-04-11T15:07:49.676Z</time></trkpt><trkpt lat="38.8801323" lon="16.4916939"><ele>344.6</ele><time>2026-04-11T15:07:50.675Z</time></trkpt><trkpt lat="38.8800905" lon="16.4918051"><ele>345.8</ele><time>2026-04-11T15:07:51.676Z</time></trkpt><trkpt lat="38.8800461" lon="16.4919052"><ele>347.0</ele><time>2026-04-11T15:07:52.675Z</time></trkpt><trkpt lat="38.8799832" lon="16.4919778"><ele>341.20000000000005</ele><time>2026-04-11T15:07:53.675Z</time></trkpt><trkpt lat="38.8799114" lon="16.4920112"><ele>335.40000000000003</ele><time>2026-04-11T15:07:54.675Z</time></trkpt><trkpt lat="38.8798288" lon="16.4920157"><ele>329.6</ele><time>2026-04-11T15:07:55.676Z</time></trkpt><trkpt lat="38.8797268" lon="16.491997"><ele>323.8</ele><time>2026-04-11T15:07:56.676Z</time></trkpt><trkpt lat="38.8796256" lon="16.4919841"><ele>318.0</ele><time>2026-04-11T15:07:57.676Z</time></trkpt><trkpt lat="38.8795275" lon="16.4919747"><ele>318.0</ele><time>2026-04-11T15:07:58.675Z</time></trkpt><trkpt lat="38.87943" lon="16.4919718"><ele>318.0</ele><time>2026-04-11T15:07:59.675Z</time></trkpt><trkpt lat="38.8793348" lon="16.4919721"><ele>318.0</ele><time>2026-04-11T15:08:00.676Z</time></trkpt><trkpt lat="38.8792399" lon="16.4919707"><ele>318.0</ele><time>2026-04-11T15:08:01.675Z</time></trkpt><trkpt lat="38.8791359" lon="16.4919771"><ele>318.0</ele><time>2026-04-11T15:08:02.676Z</time></trkpt><trkpt lat="38.8790355" lon="16.4919837"><ele>316.8</ele><time>2026-04-11T15:08:03.675Z</time></trkpt><trkpt lat="38.878938" lon="16.4919802"><ele>315.6</ele><time>2026-04-11T15:08:04.676Z</time></trkpt><trkpt lat="38.8788382" lon="16.4919769"><ele>314.4</ele><time>2026-04-11T15:08:05.676Z</time></trkpt><trkpt lat="38.8787321" lon="16.4919777"><ele>313.2</ele><time>2026-04-11T15:08:06.675Z</time></trkpt><trkpt lat="38.8786268" lon="16.491974"><ele>312.0</ele><time>2026-04-11T15:08:07.675Z</time></trkpt><trkpt lat="38.8785232" lon="16.4919713"><ele>311.0</ele><time>2026-04-11T15:08:08.675Z</time></trkpt><trkpt lat="38.8784182" lon="16.4919642"><ele>310.0</ele><time>2026-04-11T15:08:09.676Z</time></trkpt><trkpt lat="38.8783118" lon="16.4919451"><ele>309.0</ele><time>2026-04-11T15:08:10.676Z</time></trkpt><trkpt lat="38.8782068" lon="16.4919351"><ele>308.0</ele><time>2026-04-11T15:08:11.676Z</time></trkpt><trkpt lat="38.8780971" lon="16.4919278"><ele>307.0</ele><time>2026-04-11T15:08:12.675Z</time></trkpt><trkpt lat="38.8779855" lon="16.4919119"><ele>307.0</ele><time>2026-04-11T15:08:13.676Z</time></trkpt><trkpt lat="38.8778765" lon="16.4918904"><ele>307.0</ele><time>2026-04-11T15:08:14.676Z</time></trkpt><trkpt lat="38.877763" lon="16.491875"><ele>307.0</ele><time>2026-04-11T15:08:15.675Z</time></trkpt><trkpt lat="38.8776408" lon="16.4918546"><ele>307.0</ele><time>2026-04-11T15:08:16.675Z</time></trkpt><trkpt lat="38.8775172" lon="16.4918374"><ele>304.75</ele><time>2026-04-11T15:08:17.675Z</time></trkpt><trkpt lat="38.877392" lon="16.4918075"><ele>302.5</ele><time>2026-04-11T15:08:18.675Z</time></trkpt><trkpt lat="38.8772637" lon="16.4917667"><ele>300.25</ele><time>2026-04-11T15:08:19.676Z</time></trkpt><trkpt lat="38.8771351" lon="16.4917312"><ele>298.0</ele><time>2026-04-11T15:08:20.676Z</time></trkpt><trkpt lat="38.8770072" lon="16.491685"><ele>298.0</ele><time>2026-04-11T15:08:21.675Z</time></trkpt><trkpt lat="38.8768923" lon="16.4916035"><ele>298.0</ele><time>2026-04-11T15:08:22.676Z</time></trkpt><trkpt lat="38.876781" lon="16.4915003"><ele>298.0</ele><time>2026-04-11T15:08:23.675Z</time></trkpt><trkpt lat="38.8766738" lon="16.4913961"><ele>298.0</ele><time>2026-04-11T15:08:24.676Z</time></trkpt><trkpt lat="38.8765721" lon="16.4912944"><ele>294.5</ele><time>2026-04-11T15:08:25.675Z</time></trkpt><trkpt lat="38.8764681" lon="16.4911932"><ele>291.0</ele><time>2026-04-11T15:08:26.675Z</time></trkpt><trkpt lat="38.876368" lon="16.4910887"><ele>287.5</ele><time>2026-04-11T15:08:27.675Z</time></trkpt><trkpt lat="38.8762655" lon="16.4909945"><ele>284.0</ele><time>2026-04-11T15:08:28.675Z</time></trkpt><trkpt lat="38.8761638" lon="16.4909093"><ele>284.0</ele><time>2026-04-11T15:08:29.675Z</time></trkpt><trkpt lat="38.8760587" lon="16.4908497"><ele>284.0</ele><time>2026-04-11T15:08:30.675Z</time></trkpt><trkpt lat="38.8759547" lon="16.4908234"><ele>284.0</ele><time>2026-04-11T15:08:31.675Z</time></trkpt><trkpt lat="38.8758479" lon="16.4908178"><ele>284.0</ele><time>2026-04-11T15:08:32.675Z</time></trkpt><trkpt lat="38.8757355" lon="16.4908213"><ele>284.0</ele><time>2026-04-11T15:08:33.675Z</time></trkpt><trkpt lat="38.8756208" lon="16.490824"><ele>287.0</ele><time>2026-04-11T15:08:34.675Z</time></trkpt><trkpt lat="38.8755067" lon="16.4908136"><ele>290.0</ele><time>2026-04-11T15:08:35.676Z</time></trkpt><trkpt lat="38.875395" lon="16.4908126"><ele>293.0</ele><time>2026-04-11T15:08:36.675Z</time></trkpt><trkpt lat="38.875286" lon="16.4908143"><ele>296.0</ele><time>2026-04-11T15:08:37.675Z</time></trkpt><trkpt lat="38.8751674" lon="16.490833"><ele>298.0</ele><time>2026-04-11T15:08:38.676Z</time></trkpt><trkpt lat="38.8750425" lon="16.4908406"><ele>300.0</ele><time>2026-04-11T15:08:39.675Z</time></trkpt><trkpt lat="38.8749208" lon="16.4908462"><ele>302.0</ele><time>2026-04-11T15:08:40.675Z</time></trkpt><trkpt lat="38.874811" lon="16.4908386"><ele>304.0</ele><time>2026-04-11T15:08:41.676Z</time></trkpt><trkpt lat="38.8746991" lon="16.4908444"><ele>304.0</ele><time>2026-04-11T15:08:42.676Z</time></trkpt><trkpt lat="38.8745879" lon="16.4908556"><ele>304.0</ele><time>2026-04-11T15:08:43.675Z</time></trkpt><trkpt lat="38.8744866" lon="16.4908615"><ele>304.0</ele><time>2026-04-11T15:08:44.675Z</time></trkpt><trkpt lat="38.8743874" lon="16.4908716"><ele>304.0</ele><time>2026-04-11T15:08:45.675Z</time></trkpt><trkpt lat="38.8742835" lon="16.4908921"><ele>304.0</ele><time>2026-04-11T15:08:46.675Z</time></trkpt><trkpt lat="38.8741819" lon="16.4909329"><ele>304.0</ele><time>2026-04-11T15:08:47.676Z</time></trkpt><trkpt lat="38.8740874" lon="16.4909835"><ele>304.0</ele><time>2026-04-11T15:08:48.676Z</time></trkpt><trkpt lat="38.87399" lon="16.4910458"><ele>304.0</ele><time>2026-04-11T15:08:49.676Z</time></trkpt><trkpt lat="38.8738992" lon="16.4911202"><ele>304.0</ele><time>2026-04-11T15:08:50.676Z</time></trkpt><trkpt lat="38.8738063" lon="16.4911894"><ele>304.0</ele><time>2026-04-11T15:08:51.675Z</time></trkpt><trkpt lat="38.8737201" lon="16.4912487"><ele>305.4</ele><time>2026-04-11T15:08:52.675Z</time></trkpt><trkpt lat="38.8736421" lon="16.4913088"><ele>306.79999999999995</ele><time>2026-04-11T15:08:53.675Z</time></trkpt><trkpt lat="38.8735651" lon="16.4913871"><ele>308.20000000000005</ele><time>2026-04-11T15:08:54.676Z</time></trkpt><trkpt lat="38.8734903" lon="16.4914841"><ele>309.6</ele><time>2026-04-11T15:08:55.676Z</time></trkpt><trkpt lat="38.8734176" lon="16.4915812"><ele>311.0</ele><time>2026-04-11T15:08:56.676Z</time></trkpt><trkpt lat="38.8733451" lon="16.4916794"><ele>311.0</ele><time>2026-04-11T15:08:57.675Z</time></trkpt><trkpt lat="38.8732721" lon="16.4917753"><ele>311.0</ele><time>2026-04-11T15:08:58.675Z</time></trkpt><trkpt lat="38.8731883" lon="16.4918571"><ele>311.0</ele><time>2026-04-11T15:08:59.675Z</time></trkpt><trkpt lat="38.8730919" lon="16.4919259"><ele>311.0</ele><time>2026-04-11T15:09:00.675Z</time></trkpt><trkpt lat="38.8729833" lon="16.4919719"><ele>311.0</ele><time>2026-04-11T15:09:01.675Z</time></trkpt><trkpt lat="38.8728639" lon="16.491998"><ele>311.0</ele><time>2026-04-11T15:09:02.676Z</time></trkpt><trkpt lat="38.872739" lon="16.4920037"><ele>311.0</ele><time>2026-04-11T15:09:03.676Z</time></trkpt><trkpt lat="38.8726211" lon="16.4920053"><ele>311.0</ele><time>2026-04-11T15:09:04.676Z</time></trkpt><trkpt lat="38.8725112" lon="16.4920217"><ele>311.0</ele><time>2026-04-11T15:09:05.674Z</time></trkpt><trkpt lat="38.8724242" lon="16.4920654"><ele>311.0</ele><time>2026-04-11T15:09:06.675Z</time></trkpt><trkpt lat="38.8723539" lon="16.4921545"><ele>312.0</ele><time>2026-04-11T15:09:07.674Z</time></trkpt><trkpt lat="38.8722984" lon="16.4922762"><ele>313.0</ele><time>2026-04-11T15:09:08.674Z</time></trkpt><trkpt lat="38.8722432" lon="16.4924233"><ele>314.0</ele><time>2026-04-11T15:09:09.674Z</time></trkpt><trkpt lat="38.8721753" lon="16.4925687"><ele>315.0</ele><time>2026-04-11T15:09:10.675Z</time></trkpt><trkpt lat="38.8721092" lon="16.4927143"><ele>315.0</ele><time>2026-04-11T15:09:11.675Z</time></trkpt><trkpt lat="38.8720527" lon="16.4928621"><ele>315.0</ele><time>2026-04-11T15:09:12.674Z</time></trkpt><trkpt lat="38.8719937" lon="16.4930088"><ele>315.0</ele><time>2026-04-11T15:09:13.674Z</time></trkpt><trkpt lat="38.8719324" lon="16.4931586"><ele>315.0</ele><time>2026-04-11T15:09:14.674Z</time></trkpt><trkpt lat="38.8718657" lon="16.4933115"><ele>315.75</ele><time>2026-04-11T15:09:15.675Z</time></trkpt><trkpt lat="38.8717908" lon="16.4934577"><ele>316.5</ele><time>2026-04-11T15:09:16.674Z</time></trkpt><trkpt lat="38.8717056" lon="16.4935962"><ele>317.25</ele><time>2026-04-11T15:09:17.674Z</time></trkpt><trkpt lat="38.8716125" lon="16.4937424"><ele>318.0</ele><time>2026-04-11T15:09:18.675Z</time></trkpt><trkpt lat="38.8715228" lon="16.4938876"><ele>310.0</ele><time>2026-04-11T15:09:19.675Z</time></trkpt><trkpt lat="38.8714272" lon="16.4940378"><ele>302.0</ele><time>2026-04-11T15:09:20.675Z</time></trkpt><trkpt lat="38.8713325" lon="16.494196"><ele>294.0</ele><time>2026-04-11T15:09:21.675Z</time></trkpt><trkpt lat="38.8712496" lon="16.4943503"><ele>294.0</ele><time>2026-04-11T15:09:22.674Z</time></trkpt><trkpt lat="38.8711639" lon="16.4945031"><ele>294.0</ele><time>2026-04-11T15:09:23.674Z</time></trkpt><trkpt lat="38.8710733" lon="16.4946446"><ele>294.0</ele><time>2026-04-11T15:09:24.674Z</time></trkpt><trkpt lat="38.870975" lon="16.4947674"><ele>294.0</ele><time>2026-04-11T15:09:25.675Z</time></trkpt><trkpt lat="38.8708711" lon="16.4948824"><ele>290.25</ele><time>2026-04-11T15:09:26.675Z</time></trkpt><trkpt lat="38.8707632" lon="16.4949963"><ele>286.5</ele><time>2026-04-11T15:09:27.674Z</time></trkpt><trkpt lat="38.8706492" lon="16.4951092"><ele>282.75</ele><time>2026-04-11T15:09:28.674Z</time></trkpt><trkpt lat="38.8705327" lon="16.4952111"><ele>279.0</ele><time>2026-04-11T15:09:29.675Z</time></trkpt><trkpt lat="38.8704126" lon="16.4952949"><ele>279.0</ele><time>2026-04-11T15:09:30.674Z</time></trkpt><trkpt lat="38.8702933" lon="16.4953588"><ele>279.0</ele><time>2026-04-11T15:09:31.674Z</time></trkpt><trkpt lat="38.8701676" lon="16.4954245"><ele>279.0</ele><time>2026-04-11T15:09:32.674Z</time></trkpt><trkpt lat="38.8700575" lon="16.4955051"><ele>279.0</ele><time>2026-04-11T15:09:33.674Z</time></trkpt><trkpt lat="38.8699786" lon="16.4956124"><ele>277.25</ele><time>2026-04-11T15:09:34.675Z</time></trkpt><trkpt lat="38.8699249" lon="16.4957462"><ele>275.5</ele><time>2026-04-11T15:09:35.675Z</time></trkpt><trkpt lat="38.8699061" lon="16.4958921"><ele>273.75</ele><time>2026-04-11T15:09:36.675Z</time></trkpt><trkpt lat="38.8698981" lon="16.4960374"><ele>272.0</ele><time>2026-04-11T15:09:37.674Z</time></trkpt><trkpt lat="38.869883" lon="16.4961885"><ele>273.0</ele><time>2026-04-11T15:09:38.674Z</time></trkpt><trkpt lat="38.8698686" lon="16.496351"><ele>274.0</ele><time>2026-04-11T15:09:39.674Z</time></trkpt><trkpt lat="38.8698537" lon="16.4964981"><ele>275.0</ele><time>2026-04-11T15:09:40.675Z</time></trkpt><trkpt lat="38.8698253" lon="16.49663"><ele>276.0</ele><time>2026-04-11T15:09:41.674Z</time></trkpt><trkpt lat="38.8697843" lon="16.4967325"><ele>277.0</ele><time>2026-04-11T15:09:42.674Z</time></trkpt><trkpt lat="38.8697113" lon="16.4968107"><ele>277.0</ele><time>2026-04-11T15:09:43.675Z</time></trkpt><trkpt lat="38.8696167" lon="16.4968531"><ele>277.0</ele><time>2026-04-11T15:09:44.674Z</time></trkpt><trkpt lat="38.8694991" lon="16.4968548"><ele>277.0</ele><time>2026-04-11T15:09:45.675Z</time></trkpt><trkpt lat="38.8693745" lon="16.4968342"><ele>277.0</ele><time>2026-04-11T15:09:46.674Z</time></trkpt><trkpt lat="38.8692487" lon="16.496799"><ele>274.0</ele><time>2026-04-11T15:09:47.674Z</time></trkpt><trkpt lat="38.8691297" lon="16.4968024"><ele>271.0</ele><time>2026-04-11T15:09:48.675Z</time></trkpt><trkpt lat="38.86902" lon="16.4968174"><ele>268.0</ele><time>2026-04-11T15:09:49.674Z</time></trkpt><trkpt lat="38.868902" lon="16.4968162"><ele>265.0</ele><time>2026-04-11T15:09:50.674Z</time></trkpt><trkpt lat="38.8687832" lon="16.4967702"><ele>265.0</ele><time>2026-04-11T15:09:51.675Z</time></trkpt><trkpt lat="38.8686705" lon="16.4966898"><ele>265.0</ele><time>2026-04-11T15:09:52.674Z</time></trkpt><trkpt lat="38.8685723" lon="16.4965902"><ele>265.0</ele><time>2026-04-11T15:09:53.674Z</time></trkpt><trkpt lat="38.8684792" lon="16.4964985"><ele>265.0</ele><time>2026-04-11T15:09:54.674Z</time></trkpt><trkpt lat="38.8683878" lon="16.4964228"><ele>263.8</ele><time>2026-04-11T15:09:55.674Z</time></trkpt><trkpt lat="38.8682947" lon="16.4963917"><ele>262.6</ele><time>2026-04-11T15:09:56.674Z</time></trkpt><trkpt lat="38.8681897" lon="16.4964127"><ele>261.4</ele><time>2026-04-11T15:09:57.674Z</time></trkpt><trkpt lat="38.8680885" lon="16.4964871"><ele>260.2</ele><time>2026-04-11T15:09:58.674Z</time></trkpt><trkpt lat="38.8680124" lon="16.4966101"><ele>259.0</ele><time>2026-04-11T15:09:59.674Z</time></trkpt><trkpt lat="38.8679457" lon="16.4967426"><ele>259.0</ele><time>2026-04-11T15:10:00.675Z</time></trkpt><trkpt lat="38.8678806" lon="16.4968755"><ele>259.0</ele><time>2026-04-11T15:10:01.675Z</time></trkpt><trkpt lat="38.8678171" lon="16.4969939"><ele>259.0</ele><time>2026-04-11T15:10:02.674Z</time></trkpt><trkpt lat="38.8677855" lon="16.4971189"><ele>259.0</ele><time>2026-04-11T15:10:03.674Z</time></trkpt><trkpt lat="38.8677923" lon="16.4972413"><ele>259.0</ele><time>2026-04-11T15:10:04.675Z</time></trkpt><trkpt lat="38.8678398" lon="16.4973642"><ele>260.5</ele><time>2026-04-11T15:10:05.674Z</time></trkpt><trkpt lat="38.867907" lon="16.4974939"><ele>262.0</ele><time>2026-04-11T15:10:06.674Z</time></trkpt><trkpt lat="38.8679757" lon="16.4976299"><ele>263.5</ele><time>2026-04-11T15:10:07.675Z</time></trkpt><trkpt lat="38.8680323" lon="16.4977746"><ele>265.0</ele><time>2026-04-11T15:10:08.674Z</time></trkpt><trkpt lat="38.8680819" lon="16.4979216"><ele>265.0</ele><time>2026-04-11T15:10:09.674Z</time></trkpt><trkpt lat="38.8681219" lon="16.4980764"><ele>265.0</ele><time>2026-04-11T15:10:10.674Z</time></trkpt><trkpt lat="38.8681583" lon="16.4982428"><ele>265.0</ele><time>2026-04-11T15:10:11.674Z</time></trkpt><trkpt lat="38.8682007" lon="16.4984124"><ele>265.0</ele><time>2026-04-11T15:10:12.674Z</time></trkpt><trkpt lat="38.8682522" lon="16.4985846"><ele>265.0</ele><time>2026-04-11T15:10:13.674Z</time></trkpt><trkpt lat="38.868312" lon="16.4987505"><ele>265.0</ele><time>2026-04-11T15:10:14.675Z</time></trkpt><trkpt lat="38.8683771" lon="16.4989199"><ele>265.0</ele><time>2026-04-11T15:10:15.674Z</time></trkpt><trkpt lat="38.8684296" lon="16.4990767"><ele>265.0</ele><time>2026-04-11T15:10:16.674Z</time></trkpt><trkpt lat="38.8684751" lon="16.4992351"><ele>267.5</ele><time>2026-04-11T15:10:17.675Z</time></trkpt><trkpt lat="38.8685148" lon="16.4993934"><ele>270.0</ele><time>2026-04-11T15:10:18.674Z</time></trkpt><trkpt lat="38.8685459" lon="16.4995495"><ele>272.5</ele><time>2026-04-11T15:10:19.674Z</time></trkpt><trkpt lat="38.8685687" lon="16.4997207"><ele>275.0</ele><time>2026-04-11T15:10:20.675Z</time></trkpt><trkpt lat="38.8685734" lon="16.4998916"><ele>275.0</ele><time>2026-04-11T15:10:21.675Z</time></trkpt><trkpt lat="38.8685745" lon="16.5000599"><ele>275.0</ele><time>2026-04-11T15:10:22.675Z</time></trkpt><trkpt lat="38.8685643" lon="16.500226"><ele>275.0</ele><time>2026-04-11T15:10:23.674Z</time></trkpt><trkpt lat="38.8685307" lon="16.5003865"><ele>275.0</ele><time>2026-04-11T15:10:24.675Z</time></trkpt><trkpt lat="38.8684725" lon="16.5005336"><ele>263.0</ele><time>2026-04-11T15:10:25.675Z</time></trkpt><trkpt lat="38.8683985" lon="16.5006641"><ele>251.0</ele><time>2026-04-11T15:10:26.675Z</time></trkpt><trkpt lat="38.8683363" lon="16.5007962"><ele>239.0</ele><time>2026-04-11T15:10:27.675Z</time></trkpt><trkpt lat="38.8683103" lon="16.5009462"><ele>227.0</ele><time>2026-04-11T15:10:28.674Z</time></trkpt><trkpt lat="38.8683245" lon="16.5010923"><ele>227.0</ele><time>2026-04-11T15:10:29.675Z</time></trkpt><trkpt lat="38.868379" lon="16.5012247"><ele>227.0</ele><time>2026-04-11T15:10:30.675Z</time></trkpt><trkpt lat="38.8684645" lon="16.5013308"><ele>227.0</ele><time>2026-04-11T15:10:31.675Z</time></trkpt><trkpt lat="38.8685502" lon="16.5014294"><ele>227.0</ele><time>2026-04-11T15:10:32.674Z</time></trkpt><trkpt lat="38.8686389" lon="16.5015283"><ele>226.25</ele><time>2026-04-11T15:10:33.674Z</time></trkpt><trkpt lat="38.8687149" lon="16.5016556"><ele>225.5</ele><time>2026-04-11T15:10:34.674Z</time></trkpt><trkpt lat="38.8687689" lon="16.5017991"><ele>224.75</ele><time>2026-04-11T15:10:35.674Z</time></trkpt><trkpt lat="38.868802" lon="16.501948"><ele>224.0</ele><time>2026-04-11T15:10:36.674Z</time></trkpt><trkpt lat="38.8688257" lon="16.5021115"><ele>224.0</ele><time>2026-04-11T15:10:37.675Z</time></trkpt><trkpt lat="38.8688384" lon="16.5022778"><ele>224.0</ele><time>2026-04-11T15:10:38.674Z</time></trkpt><trkpt lat="38.8688556" lon="16.5024361"><ele>224.0</ele><time>2026-04-11T15:10:39.674Z</time></trkpt><trkpt lat="38.8688861" lon="16.5025772"><ele>224.0</ele><time>2026-04-11T15:10:40.674Z</time></trkpt><trkpt lat="38.868923" lon="16.5026915"><ele>224.0</ele><time>2026-04-11T15:10:41.675Z</time></trkpt><trkpt lat="38.8689783" lon="16.5027844"><ele>223.99999999999997</ele><time>2026-04-11T15:10:42.674Z</time></trkpt><trkpt lat="38.8690623" lon="16.5028434"><ele>223.99999999999997</ele><time>2026-04-11T15:10:43.674Z</time></trkpt><trkpt lat="38.8691612" lon="16.5028861"><ele>224.0</ele><time>2026-04-11T15:10:44.675Z</time></trkpt><trkpt lat="38.8692641" lon="16.5029243"><ele>224.0</ele><time>2026-04-11T15:10:45.675Z</time></trkpt><trkpt lat="38.8693665" lon="16.5029588"><ele>221.16666666666669</ele><time>2026-04-11T15:10:46.675Z</time></trkpt><trkpt lat="38.8694622" lon="16.5029996"><ele>218.33333333333334</ele><time>2026-04-11T15:10:47.675Z</time></trkpt><trkpt lat="38.8695452" lon="16.5030444"><ele>215.5</ele><time>2026-04-11T15:10:48.674Z</time></trkpt><trkpt lat="38.8696169" lon="16.5030934"><ele>212.66666666666669</ele><time>2026-04-11T15:10:49.675Z</time></trkpt><trkpt lat="38.8696723" lon="16.5031592"><ele>209.83333333333334</ele><time>2026-04-11T15:10:50.674Z</time></trkpt><trkpt lat="38.8697049" lon="16.5032402"><ele>207.0</ele><time>2026-04-11T15:10:51.674Z</time></trkpt><trkpt lat="38.8697058" lon="16.5033296"><ele>207.0</ele><time>2026-04-11T15:10:52.674Z</time></trkpt><trkpt lat="38.869662" lon="16.5034141"><ele>207.0</ele><time>2026-04-11T15:10:53.674Z</time></trkpt><trkpt lat="38.8695829" lon="16.5034566"><ele>207.0</ele><time>2026-04-11T15:10:54.674Z</time></trkpt><trkpt lat="38.8694962" lon="16.5034561"><ele>207.0</ele><time>2026-04-11T15:10:55.674Z</time></trkpt><trkpt lat="38.8694009" lon="16.503401"><ele>207.0</ele><time>2026-04-11T15:10:56.675Z</time></trkpt><trkpt lat="38.8693075" lon="16.5033075"><ele>207.0</ele><time>2026-04-11T15:10:57.675Z</time></trkpt><trkpt lat="38.8692145" lon="16.503222"><ele>207.0</ele><time>2026-04-11T15:10:58.675Z</time></trkpt><trkpt lat="38.8691196" lon="16.5031759"><ele>207.0</ele><time>2026-04-11T15:10:59.674Z</time></trkpt><trkpt lat="38.8690222" lon="16.5031788"><ele>207.0</ele><time>2026-04-11T15:11:00.674Z</time></trkpt><trkpt lat="38.8689236" lon="16.503236"><ele>207.0</ele><time>2026-04-11T15:11:01.674Z</time></trkpt><trkpt lat="38.868837" lon="16.5033261"><ele>207.0</ele><time>2026-04-11T15:11:02.675Z</time></trkpt><trkpt lat="38.8687687" lon="16.5034378"><ele>207.0</ele><time>2026-04-11T15:11:03.674Z</time></trkpt><trkpt lat="38.8687147" lon="16.503553"><ele>207.0</ele><time>2026-04-11T15:11:04.674Z</time></trkpt><trkpt lat="38.8686575" lon="16.5036784"><ele>207.0</ele><time>2026-04-11T15:11:05.675Z</time></trkpt><trkpt lat="38.8685944" lon="16.5037908"><ele>207.0</ele><time>2026-04-11T15:11:06.674Z</time></trkpt><trkpt lat="38.8685105" lon="16.5038863"><ele>203.2</ele><time>2026-04-11T15:11:07.674Z</time></trkpt><trkpt lat="38.8684204" lon="16.5039393"><ele>199.39999999999998</ele><time>2026-04-11T15:11:08.674Z</time></trkpt><trkpt lat="38.8683302" lon="16.5039381"><ele>195.60000000000002</ele><time>2026-04-11T15:11:09.674Z</time></trkpt><trkpt lat="38.8682419" lon="16.5038996"><ele>191.8</ele><time>2026-04-11T15:11:10.675Z</time></trkpt><trkpt lat="38.8681593" lon="16.5038473"><ele>188.0</ele><time>2026-04-11T15:11:11.675Z</time></trkpt><trkpt lat="38.8680855" lon="16.5038115"><ele>188.0</ele><time>2026-04-11T15:11:12.674Z</time></trkpt><trkpt lat="38.8680113" lon="16.5038137"><ele>188.0</ele><time>2026-04-11T15:11:13.675Z</time></trkpt><trkpt lat="38.8679311" lon="16.503858"><ele>188.0</ele><time>2026-04-11T15:11:14.675Z</time></trkpt><trkpt lat="38.8678437" lon="16.5039425"><ele>188.0</ele><time>2026-04-11T15:11:15.674Z</time></trkpt><trkpt lat="38.8677494" lon="16.5040344"><ele>188.0</ele><time>2026-04-11T15:11:16.674Z</time></trkpt><trkpt lat="38.8676574" lon="16.5040968"><ele>187.0</ele><time>2026-04-11T15:11:17.674Z</time></trkpt><trkpt lat="38.8675761" lon="16.5041131"><ele>186.0</ele><time>2026-04-11T15:11:18.674Z</time></trkpt><trkpt lat="38.867499" lon="16.504083"><ele>185.0</ele><time>2026-04-11T15:11:19.674Z</time></trkpt><trkpt lat="38.8674435" lon="16.5040153"><ele>184.0</ele><time>2026-04-11T15:11:20.674Z</time></trkpt><trkpt lat="38.8674252" lon="16.5039189"><ele>183.0</ele><time>2026-04-11T15:11:21.674Z</time></trkpt><trkpt lat="38.8674364" lon="16.5038067"><ele>182.0</ele><time>2026-04-11T15:11:22.674Z</time></trkpt><trkpt lat="38.8674408" lon="16.5036888"><ele>182.0</ele><time>2026-04-11T15:11:23.674Z</time></trkpt><trkpt lat="38.8674234" lon="16.5035908"><ele>182.0</ele><time>2026-04-11T15:11:24.675Z</time></trkpt><trkpt lat="38.8673763" lon="16.5035322"><ele>182.0</ele><time>2026-04-11T15:11:25.675Z</time></trkpt><trkpt lat="38.8672644" lon="16.5035706"><ele>182.0</ele><time>2026-04-11T15:11:27.674Z</time></trkpt><trkpt lat="38.8672241" lon="16.5036584"><ele>182.0</ele><time>2026-04-11T15:11:28.675Z</time></trkpt><trkpt lat="38.8672052" lon="16.5037782"><ele>182.0</ele><time>2026-04-11T15:11:29.674Z</time></trkpt><trkpt lat="38.8672075" lon="16.5039134"><ele>182.0</ele><time>2026-04-11T15:11:30.674Z</time></trkpt><trkpt lat="38.8672159" lon="16.5040487"><ele>182.0</ele><time>2026-04-11T15:11:31.674Z</time></trkpt><trkpt lat="38.8672226" lon="16.504195"><ele>182.0</ele><time>2026-04-11T15:11:32.674Z</time></trkpt><trkpt lat="38.8672055" lon="16.5043358"><ele>182.0</ele><time>2026-04-11T15:11:33.674Z</time></trkpt><trkpt lat="38.8671736" lon="16.5044695"><ele>182.0</ele><time>2026-04-11T15:11:34.675Z</time></trkpt><trkpt lat="38.8671145" lon="16.5046062"><ele>178.0</ele><time>2026-04-11T15:11:35.674Z</time></trkpt><trkpt lat="38.8670402" lon="16.5047269"><ele>174.0</ele><time>2026-04-11T15:11:36.675Z</time></trkpt><trkpt lat="38.8669542" lon="16.5048403"><ele>170.0</ele><time>2026-04-11T15:11:37.675Z</time></trkpt><trkpt lat="38.8668521" lon="16.5049617"><ele>166.0</ele><time>2026-04-11T15:11:38.674Z</time></trkpt><trkpt lat="38.8667526" lon="16.5050889"><ele>166.0</ele><time>2026-04-11T15:11:39.674Z</time></trkpt><trkpt lat="38.8666617" lon="16.5052149"><ele>166.0</ele><time>2026-04-11T15:11:40.675Z</time></trkpt><trkpt lat="38.8665866" lon="16.5053427"><ele>166.0</ele><time>2026-04-11T15:11:41.674Z</time></trkpt><trkpt lat="38.8665223" lon="16.5054849"><ele>166.0</ele><time>2026-04-11T15:11:42.675Z</time></trkpt><trkpt lat="38.8664759" lon="16.5056456"><ele>166.75</ele><time>2026-04-11T15:11:43.674Z</time></trkpt><trkpt lat="38.8664486" lon="16.5058028"><ele>167.5</ele><time>2026-04-11T15:11:44.674Z</time></trkpt><trkpt lat="38.8664317" lon="16.5059498"><ele>168.25</ele><time>2026-04-11T15:11:45.674Z</time></trkpt><trkpt lat="38.8664187" lon="16.5060954"><ele>169.0</ele><time>2026-04-11T15:11:46.675Z</time></trkpt><trkpt lat="38.8664268" lon="16.5062372"><ele>169.5</ele><time>2026-04-11T15:11:47.674Z</time></trkpt><trkpt lat="38.8664609" lon="16.5063742"><ele>170.0</ele><time>2026-04-11T15:11:48.674Z</time></trkpt><trkpt lat="38.8665163" lon="16.5065086"><ele>170.5</ele><time>2026-04-11T15:11:49.675Z</time></trkpt><trkpt lat="38.8665787" lon="16.5066404"><ele>171.0</ele><time>2026-04-11T15:11:50.674Z</time></trkpt><trkpt lat="38.8666256" lon="16.5067811"><ele>171.0</ele><time>2026-04-11T15:11:51.674Z</time></trkpt><trkpt lat="38.8666683" lon="16.5069291"><ele>171.0</ele><time>2026-04-11T15:11:52.675Z</time></trkpt><trkpt lat="38.8666945" lon="16.5070835"><ele>171.0</ele><time>2026-04-11T15:11:53.674Z</time></trkpt><trkpt lat="38.8667136" lon="16.5072422"><ele>171.0</ele><time>2026-04-11T15:11:54.675Z</time></trkpt><trkpt lat="38.8667426" lon="16.5073881"><ele>165.8</ele><time>2026-04-11T15:11:55.674Z</time></trkpt><trkpt lat="38.8667996" lon="16.507514"><ele>160.60000000000002</ele><time>2026-04-11T15:11:56.674Z</time></trkpt><trkpt lat="38.866889" lon="16.5076121"><ele>155.4</ele><time>2026-04-11T15:11:57.675Z</time></trkpt><trkpt lat="38.8669803" lon="16.507684"><ele>150.2</ele><time>2026-04-11T15:11:58.674Z</time></trkpt><trkpt lat="38.8670634" lon="16.5077578"><ele>145.0</ele><time>2026-04-11T15:11:59.674Z</time></trkpt><trkpt lat="38.8671188" lon="16.507849"><ele>144.2</ele><time>2026-04-11T15:12:00.675Z</time></trkpt><trkpt lat="38.8671451" lon="16.5079462"><ele>143.4</ele><time>2026-04-11T15:12:01.674Z</time></trkpt><trkpt lat="38.8671421" lon="16.5080454"><ele>142.6</ele><time>2026-04-11T15:12:02.674Z</time></trkpt><trkpt lat="38.8671009" lon="16.5081406"><ele>141.8</ele><time>2026-04-11T15:12:03.675Z</time></trkpt><trkpt lat="38.86703" lon="16.5082269"><ele>141.0</ele><time>2026-04-11T15:12:04.674Z</time></trkpt><trkpt lat="38.8669173" lon="16.5083003"><ele>141.0</ele><time>2026-04-11T15:12:05.674Z</time></trkpt><trkpt lat="38.866789" lon="16.5083575"><ele>141.0</ele><time>2026-04-11T15:12:06.675Z</time></trkpt><trkpt lat="38.8666616" lon="16.5084131"><ele>141.0</ele><time>2026-04-11T15:12:07.674Z</time></trkpt><trkpt lat="38.8665462" lon="16.5084732"><ele>141.0</ele><time>2026-04-11T15:12:08.674Z</time></trkpt><trkpt lat="38.8664443" lon="16.508538"><ele>141.0</ele><time>2026-04-11T15:12:09.674Z</time></trkpt><trkpt lat="38.8663523" lon="16.5086138"><ele>141.0</ele><time>2026-04-11T15:12:10.675Z</time></trkpt><trkpt lat="38.8662719" lon="16.5087073"><ele>141.0</ele><time>2026-04-11T15:12:11.674Z</time></trkpt><trkpt lat="38.8661991" lon="16.5088134"><ele>141.0</ele><time>2026-04-11T15:12:12.674Z</time></trkpt><trkpt lat="38.8661342" lon="16.508931"><ele>141.0</ele><time>2026-04-11T15:12:13.674Z</time></trkpt><trkpt lat="38.8660916" lon="16.5090734"><ele>141.0</ele><time>2026-04-11T15:12:14.674Z</time></trkpt><trkpt lat="38.8660694" lon="16.5092289"><ele>141.0</ele><time>2026-04-11T15:12:15.674Z</time></trkpt><trkpt lat="38.8660717" lon="16.5093872"><ele>141.0</ele><time>2026-04-11T15:12:16.674Z</time></trkpt><trkpt lat="38.866079" lon="16.5095434"><ele>141.0</ele><time>2026-04-11T15:12:17.675Z</time></trkpt><trkpt lat="38.8660784" lon="16.5096818"><ele>142.2</ele><time>2026-04-11T15:12:18.675Z</time></trkpt><trkpt lat="38.8660539" lon="16.5097964"><ele>143.39999999999998</ele><time>2026-04-11T15:12:19.674Z</time></trkpt><trkpt lat="38.8660077" lon="16.5098899"><ele>144.6</ele><time>2026-04-11T15:12:20.674Z</time></trkpt><trkpt lat="38.8659335" lon="16.5099554"><ele>145.79999999999998</ele><time>2026-04-11T15:12:21.675Z</time></trkpt><trkpt lat="38.8658499" lon="16.5099979"><ele>147.0</ele><time>2026-04-11T15:12:22.674Z</time></trkpt><trkpt lat="38.865762" lon="16.5100317"><ele>147.0</ele><time>2026-04-11T15:12:23.675Z</time></trkpt><trkpt lat="38.8656824" lon="16.5100817"><ele>147.0</ele><time>2026-04-11T15:12:24.675Z</time></trkpt><trkpt lat="38.8656268" lon="16.5101497"><ele>147.0</ele><time>2026-04-11T15:12:25.674Z</time></trkpt><trkpt lat="38.8655875" lon="16.5102695"><ele>147.0</ele><time>2026-04-11T15:12:26.674Z</time></trkpt><trkpt lat="38.8655621" lon="16.5104175"><ele>147.0</ele><time>2026-04-11T15:12:27.675Z</time></trkpt><trkpt lat="38.8655586" lon="16.5105675"><ele>144.25</ele><time>2026-04-11T15:12:28.674Z</time></trkpt><trkpt lat="38.8655646" lon="16.5107152"><ele>141.5</ele><time>2026-04-11T15:12:29.674Z</time></trkpt><trkpt lat="38.8655828" lon="16.5108668"><ele>138.75</ele><time>2026-04-11T15:12:30.674Z</time></trkpt><trkpt lat="38.8656145" lon="16.5110248"><ele>136.0</ele><time>2026-04-11T15:12:31.674Z</time></trkpt><trkpt lat="38.8656596" lon="16.5111824"><ele>135.75</ele><time>2026-04-11T15:12:32.674Z</time></trkpt><trkpt lat="38.8657186" lon="16.5113426"><ele>135.5</ele><time>2026-04-11T15:12:33.675Z</time></trkpt><trkpt lat="38.8657872" lon="16.5115101"><ele>135.25</ele><time>2026-04-11T15:12:34.674Z</time></trkpt><trkpt lat="38.8658557" lon="16.5116837"><ele>135.0</ele><time>2026-04-11T15:12:35.674Z</time></trkpt><trkpt lat="38.8659143" lon="16.5118657"><ele>130.0</ele><time>2026-04-11T15:12:36.674Z</time></trkpt><trkpt lat="38.8659834" lon="16.512043"><ele>125.0</ele><time>2026-04-11T15:12:37.675Z</time></trkpt><trkpt lat="38.8660546" lon="16.5122221"><ele>120.0</ele><time>2026-04-11T15:12:38.674Z</time></trkpt><trkpt lat="38.8661289" lon="16.5124059"><ele>120.0</ele><time>2026-04-11T15:12:39.675Z</time></trkpt><trkpt lat="38.8661982" lon="16.5125853"><ele>120.0</ele><time>2026-04-11T15:12:40.675Z</time></trkpt><trkpt lat="38.8662638" lon="16.5127635"><ele>120.0</ele><time>2026-04-11T15:12:41.674Z</time></trkpt><trkpt lat="38.8663271" lon="16.5129476"><ele>122.33333333333334</ele><time>2026-04-11T15:12:42.674Z</time></trkpt><trkpt lat="38.8663903" lon="16.5131293"><ele>124.66666666666667</ele><time>2026-04-11T15:12:43.675Z</time></trkpt><trkpt lat="38.8664582" lon="16.5133038"><ele>127.0</ele><time>2026-04-11T15:12:44.674Z</time></trkpt><trkpt lat="38.8665277" lon="16.5134841"><ele>127.0</ele><time>2026-04-11T15:12:45.674Z</time></trkpt><trkpt lat="38.8665934" lon="16.5136571"><ele>127.0</ele><time>2026-04-11T15:12:46.675Z</time></trkpt><trkpt lat="38.8666578" lon="16.5138169"><ele>127.0</ele><time>2026-04-11T15:12:47.674Z</time></trkpt><trkpt lat="38.8667143" lon="16.5139743"><ele>127.0</ele><time>2026-04-11T15:12:48.674Z</time></trkpt><trkpt lat="38.8667745" lon="16.5141284"><ele>124.25</ele><time>2026-04-11T15:12:49.674Z</time></trkpt><trkpt lat="38.8668486" lon="16.5142605"><ele>121.5</ele><time>2026-04-11T15:12:50.674Z</time></trkpt><trkpt lat="38.8669213" lon="16.5143735"><ele>118.75</ele><time>2026-04-11T15:12:51.675Z</time></trkpt><trkpt lat="38.8669997" lon="16.5144719"><ele>116.0</ele><time>2026-04-11T15:12:52.674Z</time></trkpt><trkpt lat="38.8670917" lon="16.5145345"><ele>119.25</ele><time>2026-04-11T15:12:53.674Z</time></trkpt><trkpt lat="38.8671963" lon="16.5145737"><ele>122.5</ele><time>2026-04-11T15:12:54.675Z</time></trkpt><trkpt lat="38.8673091" lon="16.514594"><ele>125.75</ele><time>2026-04-11T15:12:55.674Z</time></trkpt><trkpt lat="38.8674229" lon="16.5146272"><ele>129.0</ele><time>2026-04-11T15:12:56.674Z</time></trkpt><trkpt lat="38.8675305" lon="16.5146798"><ele>124.5</ele><time>2026-04-11T15:12:57.674Z</time></trkpt><trkpt lat="38.8676403" lon="16.5147433"><ele>120.0</ele><time>2026-04-11T15:12:58.674Z</time></trkpt><trkpt lat="38.8677589" lon="16.5148035"><ele>115.5</ele><time>2026-04-11T15:12:59.675Z</time></trkpt><trkpt lat="38.8678666" lon="16.5148734"><ele>111.0</ele><time>2026-04-11T15:13:00.674Z</time></trkpt><trkpt lat="38.8679618" lon="16.5149473"><ele>111.0</ele><time>2026-04-11T15:13:01.674Z</time></trkpt><trkpt lat="38.8680276" lon="16.5150338"><ele>111.0</ele><time>2026-04-11T15:13:02.674Z</time></trkpt><trkpt lat="38.8680641" lon="16.5151376"><ele>111.0</ele><time>2026-04-11T15:13:03.674Z</time></trkpt><trkpt lat="38.8680851" lon="16.5152571"><ele>111.0</ele><time>2026-04-11T15:13:04.674Z</time></trkpt><trkpt lat="38.8680933" lon="16.5153852"><ele>111.0</ele><time>2026-04-11T15:13:05.674Z</time></trkpt><trkpt lat="38.8681112" lon="16.5155165"><ele>109.8</ele><time>2026-04-11T15:13:06.674Z</time></trkpt><trkpt lat="38.8681513" lon="16.5156285"><ele>108.6</ele><time>2026-04-11T15:13:07.675Z</time></trkpt><trkpt lat="38.8682154" lon="16.5157132"><ele>107.4</ele><time>2026-04-11T15:13:08.675Z</time></trkpt><trkpt lat="38.8683064" lon="16.5157651"><ele>106.2</ele><time>2026-04-11T15:13:09.674Z</time></trkpt><trkpt lat="38.8684011" lon="16.515812"><ele>105.0</ele><time>2026-04-11T15:13:10.674Z</time></trkpt><trkpt lat="38.8684692" lon="16.51589"><ele>105.0</ele><time>2026-04-11T15:13:11.675Z</time></trkpt><trkpt lat="38.8685209" lon="16.5159954"><ele>105.0</ele><time>2026-04-11T15:13:12.675Z</time></trkpt><trkpt lat="38.8685536" lon="16.5161225"><ele>105.0</ele><time>2026-04-11T15:13:13.675Z</time></trkpt><trkpt lat="38.8685807" lon="16.5162669"><ele>105.0</ele><time>2026-04-11T15:13:14.675Z</time></trkpt><trkpt lat="38.8686115" lon="16.5163943"><ele>105.0</ele><time>2026-04-11T15:13:15.675Z</time></trkpt><trkpt lat="38.868655" lon="16.5165271"><ele>107.25</ele><time>2026-04-11T15:13:16.675Z</time></trkpt><trkpt lat="38.8687182" lon="16.5166389"><ele>109.5</ele><time>2026-04-11T15:13:17.674Z</time></trkpt><trkpt lat="38.8688155" lon="16.5167065"><ele>111.75</ele><time>2026-04-11T15:13:18.675Z</time></trkpt><trkpt lat="38.8689292" lon="16.5167329"><ele>114.0</ele><time>2026-04-11T15:13:19.674Z</time></trkpt><trkpt lat="38.869044" lon="16.5167132"><ele>114.0</ele><time>2026-04-11T15:13:20.674Z</time></trkpt><trkpt lat="38.8691511" lon="16.5166597"><ele>114.0</ele><time>2026-04-11T15:13:21.674Z</time></trkpt><trkpt lat="38.8692507" lon="16.5165841"><ele>114.0</ele><time>2026-04-11T15:13:22.674Z</time></trkpt><trkpt lat="38.8693363" lon="16.516486"><ele>114.0</ele><time>2026-04-11T15:13:23.674Z</time></trkpt><trkpt lat="38.8694181" lon="16.516372"><ele>114.0</ele><time>2026-04-11T15:13:24.674Z</time></trkpt><trkpt lat="38.869501" lon="16.5162738"><ele>114.0</ele><time>2026-04-11T15:13:25.675Z</time></trkpt><trkpt lat="38.8695906" lon="16.5162112"><ele>114.0</ele><time>2026-04-11T15:13:26.674Z</time></trkpt><trkpt lat="38.8696831" lon="16.5161763"><ele>114.0</ele><time>2026-04-11T15:13:27.674Z</time></trkpt><trkpt lat="38.8697858" lon="16.5161836"><ele>114.0</ele><time>2026-04-11T15:13:28.674Z</time></trkpt><trkpt lat="38.8698948" lon="16.5162123"><ele>114.0</ele><time>2026-04-11T15:13:29.674Z</time></trkpt><trkpt lat="38.8700167" lon="16.5162555"><ele>114.0</ele><time>2026-04-11T15:13:30.675Z</time></trkpt><trkpt lat="38.8701558" lon="16.5163045"><ele>114.0</ele><time>2026-04-11T15:13:31.674Z</time></trkpt><trkpt lat="38.8702896" lon="16.5163471"><ele>114.0</ele><time>2026-04-11T15:13:32.674Z</time></trkpt><trkpt lat="38.8704234" lon="16.5163904"><ele>112.5</ele><time>2026-04-11T15:13:33.675Z</time></trkpt><trkpt lat="38.8705568" lon="16.5164281"><ele>111.0</ele><time>2026-04-11T15:13:34.674Z</time></trkpt><trkpt lat="38.870696" lon="16.516466"><ele>109.5</ele><time>2026-04-11T15:13:35.674Z</time></trkpt><trkpt lat="38.8708316" lon="16.5165042"><ele>108.0</ele><time>2026-04-11T15:13:36.674Z</time></trkpt><trkpt lat="38.8709669" lon="16.5165336"><ele>106.25</ele><time>2026-04-11T15:13:37.674Z</time></trkpt><trkpt lat="38.8711042" lon="16.5165531"><ele>104.5</ele><time>2026-04-11T15:13:38.674Z</time></trkpt><trkpt lat="38.8712369" lon="16.5165688"><ele>102.75</ele><time>2026-04-11T15:13:39.674Z</time></trkpt><trkpt lat="38.8713741" lon="16.5165829"><ele>101.0</ele><time>2026-04-11T15:13:40.674Z</time></trkpt><trkpt lat="38.8715109" lon="16.5165964"><ele>101.0</ele><time>2026-04-11T15:13:41.675Z</time></trkpt><trkpt lat="38.8716488" lon="16.5166065"><ele>101.0</ele><time>2026-04-11T15:13:42.674Z</time></trkpt><trkpt lat="38.8717801" lon="16.5166165"><ele>101.0</ele><time>2026-04-11T15:13:43.675Z</time></trkpt><trkpt lat="38.8719118" lon="16.5166325"><ele>101.0</ele><time>2026-04-11T15:13:44.675Z</time></trkpt><trkpt lat="38.8720439" lon="16.5166422"><ele>99.25</ele><time>2026-04-11T15:13:45.675Z</time></trkpt><trkpt lat="38.8721919" lon="16.5166616"><ele>97.5</ele><time>2026-04-11T15:13:46.674Z</time></trkpt><trkpt lat="38.8723349" lon="16.5166924"><ele>95.75</ele><time>2026-04-11T15:13:47.674Z</time></trkpt><trkpt lat="38.8724719" lon="16.516722"><ele>94.0</ele><time>2026-04-11T15:13:48.674Z</time></trkpt><trkpt lat="38.8725935" lon="16.5167512"><ele>92.0</ele><time>2026-04-11T15:13:49.675Z</time></trkpt><trkpt lat="38.8727173" lon="16.5167931"><ele>90.0</ele><time>2026-04-11T15:13:50.674Z</time></trkpt><trkpt lat="38.8728313" lon="16.5168551"><ele>88.0</ele><time>2026-04-11T15:13:51.674Z</time></trkpt><trkpt lat="38.8729236" lon="16.5169373"><ele>86.0</ele><time>2026-04-11T15:13:52.675Z</time></trkpt><trkpt lat="38.8730018" lon="16.5170466"><ele>87.75</ele><time>2026-04-11T15:13:53.674Z</time></trkpt><trkpt lat="38.8730843" lon="16.5171491"><ele>89.5</ele><time>2026-04-11T15:13:54.674Z</time></trkpt><trkpt lat="38.8731711" lon="16.5172286"><ele>91.25</ele><time>2026-04-11T15:13:55.674Z</time></trkpt><trkpt lat="38.8732722" lon="16.5172905"><ele>93.0</ele><time>2026-04-11T15:13:56.674Z</time></trkpt><trkpt lat="38.8733914" lon="16.517314"><ele>91.5</ele><time>2026-04-11T15:13:57.674Z</time></trkpt><trkpt lat="38.8735132" lon="16.5173212"><ele>90.0</ele><time>2026-04-11T15:13:58.674Z</time></trkpt><trkpt lat="38.873647" lon="16.5173276"><ele>88.5</ele><time>2026-04-11T15:13:59.674Z</time></trkpt><trkpt lat="38.873784" lon="16.5173244"><ele>87.0</ele><time>2026-04-11T15:14:00.674Z</time></trkpt><trkpt lat="38.8739223" lon="16.5173039"><ele>87.0</ele><time>2026-04-11T15:14:01.674Z</time></trkpt><trkpt lat="38.8740604" lon="16.5172781"><ele>87.0</ele><time>2026-04-11T15:14:02.674Z</time></trkpt><trkpt lat="38.8741877" lon="16.5172538"><ele>87.0</ele><time>2026-04-11T15:14:03.675Z</time></trkpt><trkpt lat="38.8743143" lon="16.517247"><ele>87.0</ele><time>2026-04-11T15:14:04.674Z</time></trkpt><trkpt lat="38.8744303" lon="16.5172866"><ele>85.75</ele><time>2026-04-11T15:14:05.674Z</time></trkpt><trkpt lat="38.87453" lon="16.5173681"><ele>84.5</ele><time>2026-04-11T15:14:06.675Z</time></trkpt><trkpt lat="38.8746201" lon="16.5174854"><ele>83.25</ele><time>2026-04-11T15:14:07.674Z</time></trkpt><trkpt lat="38.874715" lon="16.517602"><ele>82.0</ele><time>2026-04-11T15:14:08.675Z</time></trkpt><trkpt lat="38.8748208" lon="16.5177086"><ele>82.0</ele><time>2026-04-11T15:14:09.674Z</time></trkpt><trkpt lat="38.8749356" lon="16.5177948"><ele>82.0</ele><time>2026-04-11T15:14:10.674Z</time></trkpt><trkpt lat="38.8750642" lon="16.5178469"><ele>82.0</ele><time>2026-04-11T15:14:11.674Z</time></trkpt><trkpt lat="38.8751967" lon="16.5178773"><ele>82.0</ele><time>2026-04-11T15:14:12.674Z</time></trkpt><trkpt lat="38.8753265" lon="16.517879"><ele>82.25</ele><time>2026-04-11T15:14:13.675Z</time></trkpt><trkpt lat="38.8754499" lon="16.5178476"><ele>82.5</ele><time>2026-04-11T15:14:14.675Z</time></trkpt><trkpt lat="38.8755633" lon="16.5177743"><ele>82.75</ele><time>2026-04-11T15:14:15.675Z</time></trkpt><trkpt lat="38.8756651" lon="16.5176885"><ele>83.0</ele><time>2026-04-11T15:14:16.675Z</time></trkpt><trkpt lat="38.8757658" lon="16.517629"><ele>83.0</ele><time>2026-04-11T15:14:17.675Z</time></trkpt><trkpt lat="38.8758643" lon="16.5176035"><ele>83.0</ele><time>2026-04-11T15:14:18.675Z</time></trkpt><trkpt lat="38.8759651" lon="16.5176128"><ele>83.0</ele><time>2026-04-11T15:14:19.674Z</time></trkpt><trkpt lat="38.8760607" lon="16.5176428"><ele>83.0</ele><time>2026-04-11T15:14:20.675Z</time></trkpt><trkpt lat="38.8761556" lon="16.5177027"><ele>83.0</ele><time>2026-04-11T15:14:21.675Z</time></trkpt><trkpt lat="38.8762568" lon="16.5177597"><ele>84.0</ele><time>2026-04-11T15:14:22.675Z</time></trkpt><trkpt lat="38.8763723" lon="16.5178124"><ele>85.0</ele><time>2026-04-11T15:14:23.675Z</time></trkpt><trkpt lat="38.8765034" lon="16.517869"><ele>86.0</ele><time>2026-04-11T15:14:24.675Z</time></trkpt><trkpt lat="38.876633" lon="16.5179363"><ele>87.0</ele><time>2026-04-11T15:14:25.674Z</time></trkpt><trkpt lat="38.8767627" lon="16.5180097"><ele>84.5</ele><time>2026-04-11T15:14:26.675Z</time></trkpt><trkpt lat="38.8768892" lon="16.5180861"><ele>82.0</ele><time>2026-04-11T15:14:27.674Z</time></trkpt><trkpt lat="38.8770109" lon="16.5181682"><ele>79.5</ele><time>2026-04-11T15:14:28.675Z</time></trkpt><trkpt lat="38.8771235" lon="16.5182601"><ele>77.0</ele><time>2026-04-11T15:14:29.674Z</time></trkpt><trkpt lat="38.8772353" lon="16.518362"><ele>77.0</ele><time>2026-04-11T15:14:30.674Z</time></trkpt><trkpt lat="38.87735" lon="16.518461"><ele>77.0</ele><time>2026-04-11T15:14:31.674Z</time></trkpt><trkpt lat="38.8774741" lon="16.5185424"><ele>77.0</ele><time>2026-04-11T15:14:32.674Z</time></trkpt><trkpt lat="38.877597" lon="16.5186044"><ele>77.0</ele><time>2026-04-11T15:14:33.674Z</time></trkpt><trkpt lat="38.8777277" lon="16.5186503"><ele>77.2</ele><time>2026-04-11T15:14:34.674Z</time></trkpt><trkpt lat="38.8778547" lon="16.5186915"><ele>77.4</ele><time>2026-04-11T15:14:35.674Z</time></trkpt><trkpt lat="38.8779648" lon="16.5187383"><ele>77.6</ele><time>2026-04-11T15:14:36.675Z</time></trkpt><trkpt lat="38.8780645" lon="16.5187945"><ele>77.8</ele><time>2026-04-11T15:14:37.674Z</time></trkpt><trkpt lat="38.8781381" lon="16.5188674"><ele>78.0</ele><time>2026-04-11T15:14:38.674Z</time></trkpt><trkpt lat="38.8781895" lon="16.5189701"><ele>78.0</ele><time>2026-04-11T15:14:39.675Z</time></trkpt><trkpt lat="38.8782205" lon="16.5190924"><ele>78.0</ele><time>2026-04-11T15:14:40.675Z</time></trkpt><trkpt lat="38.8782352" lon="16.5192311"><ele>78.0</ele><time>2026-04-11T15:14:41.674Z</time></trkpt><trkpt lat="38.8782348" lon="16.5193773"><ele>78.0</ele><time>2026-04-11T15:14:42.675Z</time></trkpt><trkpt lat="38.8782138" lon="16.5195291"><ele>78.0</ele><time>2026-04-11T15:14:43.674Z</time></trkpt><trkpt lat="38.8781816" lon="16.5196896"><ele>77.0</ele><time>2026-04-11T15:14:44.675Z</time></trkpt><trkpt lat="38.8781487" lon="16.5198655"><ele>76.0</ele><time>2026-04-11T15:14:45.674Z</time></trkpt><trkpt lat="38.8781153" lon="16.5200488"><ele>75.0</ele><time>2026-04-11T15:14:46.675Z</time></trkpt><trkpt lat="38.8780832" lon="16.520237"><ele>74.0</ele><time>2026-04-11T15:14:47.675Z</time></trkpt><trkpt lat="38.8780489" lon="16.5204265"><ele>74.0</ele><time>2026-04-11T15:14:48.674Z</time></trkpt><trkpt lat="38.8780158" lon="16.520618"><ele>74.0</ele><time>2026-04-11T15:14:49.674Z</time></trkpt><trkpt lat="38.8779821" lon="16.5208084"><ele>74.0</ele><time>2026-04-11T15:14:50.674Z</time></trkpt><trkpt lat="38.8779562" lon="16.520998"><ele>74.0</ele><time>2026-04-11T15:14:51.675Z</time></trkpt><trkpt lat="38.8779435" lon="16.5211894"><ele>74.0</ele><time>2026-04-11T15:14:52.675Z</time></trkpt><trkpt lat="38.8779496" lon="16.5213771"><ele>74.0</ele><time>2026-04-11T15:14:53.675Z</time></trkpt><trkpt lat="38.8779785" lon="16.5215695"><ele>74.0</ele><time>2026-04-11T15:14:54.674Z</time></trkpt><trkpt lat="38.8780285" lon="16.5217526"><ele>73.66666666666667</ele><time>2026-04-11T15:14:55.674Z</time></trkpt><trkpt lat="38.8780848" lon="16.5219425"><ele>73.33333333333333</ele><time>2026-04-11T15:14:56.675Z</time></trkpt><trkpt lat="38.8781452" lon="16.5221298"><ele>73.0</ele><time>2026-04-11T15:14:57.675Z</time></trkpt><trkpt lat="38.8782039" lon="16.5223154"><ele>72.66666666666666</ele><time>2026-04-11T15:14:58.674Z</time></trkpt><trkpt lat="38.8782604" lon="16.5224988"><ele>72.33333333333333</ele><time>2026-04-11T15:14:59.675Z</time></trkpt><trkpt lat="38.8783214" lon="16.5226897"><ele>72.0</ele><time>2026-04-11T15:15:00.675Z</time></trkpt><trkpt lat="38.878383" lon="16.5228885"><ele>72.0</ele><time>2026-04-11T15:15:01.674Z</time></trkpt><trkpt lat="38.8784477" lon="16.523089"><ele>72.0</ele><time>2026-04-11T15:15:02.675Z</time></trkpt><trkpt lat="38.8785085" lon="16.5232823"><ele>72.0</ele><time>2026-04-11T15:15:03.674Z</time></trkpt><trkpt lat="38.8785744" lon="16.5234775"><ele>72.0</ele><time>2026-04-11T15:15:04.674Z</time></trkpt><trkpt lat="38.8786423" lon="16.5236723"><ele>72.0</ele><time>2026-04-11T15:15:05.674Z</time></trkpt><trkpt lat="38.8786987" lon="16.5238628"><ele>72.0</ele><time>2026-04-11T15:15:06.674Z</time></trkpt><trkpt lat="38.8787512" lon="16.5240458"><ele>71.5</ele><time>2026-04-11T15:15:07.674Z</time></trkpt><trkpt lat="38.8787868" lon="16.5242307"><ele>71.0</ele><time>2026-04-11T15:15:08.674Z</time></trkpt><trkpt lat="38.8788038" lon="16.5244096"><ele>70.5</ele><time>2026-04-11T15:15:09.674Z</time></trkpt><trkpt lat="38.8788036" lon="16.5245893"><ele>70.0</ele><time>2026-04-11T15:15:10.674Z</time></trkpt><trkpt lat="38.8787752" lon="16.5247754"><ele>69.75</ele><time>2026-04-11T15:15:11.674Z</time></trkpt><trkpt lat="38.878734" lon="16.5249517"><ele>69.5</ele><time>2026-04-11T15:15:12.675Z</time></trkpt><trkpt lat="38.8786924" lon="16.5251218"><ele>69.25</ele><time>2026-04-11T15:15:13.674Z</time></trkpt><trkpt lat="38.8786388" lon="16.5253043"><ele>69.0</ele><time>2026-04-11T15:15:14.674Z</time></trkpt><trkpt lat="38.87859" lon="16.5254909"><ele>68.33333333333333</ele><time>2026-04-11T15:15:15.674Z</time></trkpt><trkpt lat="38.8785508" lon="16.5256865"><ele>67.66666666666666</ele><time>2026-04-11T15:15:16.675Z</time></trkpt><trkpt lat="38.8785179" lon="16.5258901"><ele>67.0</ele><time>2026-04-11T15:15:17.675Z</time></trkpt><trkpt lat="38.8784956" lon="16.526093"><ele>67.33333333333333</ele><time>2026-04-11T15:15:18.674Z</time></trkpt><trkpt lat="38.8784896" lon="16.5262969"><ele>67.66666666666667</ele><time>2026-04-11T15:15:19.674Z</time></trkpt><trkpt lat="38.8784927" lon="16.5265083"><ele>68.0</ele><time>2026-04-11T15:15:20.674Z</time></trkpt><trkpt lat="38.8784979" lon="16.5267214"><ele>68.0</ele><time>2026-04-11T15:15:21.674Z</time></trkpt><trkpt lat="38.8784964" lon="16.5269417"><ele>68.0</ele><time>2026-04-11T15:15:22.674Z</time></trkpt><trkpt lat="38.8785018" lon="16.5271621"><ele>68.0</ele><time>2026-04-11T15:15:23.674Z</time></trkpt><trkpt lat="38.8785096" lon="16.5273782"><ele>67.33333333333334</ele><time>2026-04-11T15:15:24.674Z</time></trkpt><trkpt lat="38.878523" lon="16.527586"><ele>66.66666666666667</ele><time>2026-04-11T15:15:25.675Z</time></trkpt><trkpt lat="38.8785536" lon="16.527787"><ele>66.0</ele><time>2026-04-11T15:15:26.675Z</time></trkpt><trkpt lat="38.8786065" lon="16.5279877"><ele>65.66666666666667</ele><time>2026-04-11T15:15:27.675Z</time></trkpt><trkpt lat="38.8786796" lon="16.5281836"><ele>65.33333333333334</ele><time>2026-04-11T15:15:28.674Z</time></trkpt><trkpt lat="38.8787591" lon="16.5283688"><ele>65.0</ele><time>2026-04-11T15:15:29.674Z</time></trkpt><trkpt lat="38.8788457" lon="16.5285458"><ele>65.0</ele><time>2026-04-11T15:15:30.675Z</time></trkpt><trkpt lat="38.8789358" lon="16.5287244"><ele>65.0</ele><time>2026-04-11T15:15:31.674Z</time></trkpt><trkpt lat="38.8790244" lon="16.5288986"><ele>65.0</ele><time>2026-04-11T15:15:32.675Z</time></trkpt><trkpt lat="38.8791128" lon="16.5290806"><ele>65.0</ele><time>2026-04-11T15:15:33.674Z</time></trkpt><trkpt lat="38.8791984" lon="16.5292526"><ele>65.0</ele><time>2026-04-11T15:15:34.674Z</time></trkpt><trkpt lat="38.8792911" lon="16.5294272"><ele>65.0</ele><time>2026-04-11T15:15:35.674Z</time></trkpt><trkpt lat="38.8793722" lon="16.5296119"><ele>64.66666666666667</ele><time>2026-04-11T15:15:36.674Z</time></trkpt><trkpt lat="38.8794522" lon="16.5297994"><ele>64.33333333333333</ele><time>2026-04-11T15:15:37.674Z</time></trkpt><trkpt lat="38.8795172" lon="16.5299975"><ele>64.0</ele><time>2026-04-11T15:15:38.675Z</time></trkpt><trkpt lat="38.8795738" lon="16.530199"><ele>63.33333333333333</ele><time>2026-04-11T15:15:39.674Z</time></trkpt><trkpt lat="38.8796338" lon="16.5304025"><ele>62.66666666666667</ele><time>2026-04-11T15:15:40.674Z</time></trkpt><trkpt lat="38.8796877" lon="16.5305944"><ele>62.0</ele><time>2026-04-11T15:15:41.675Z</time></trkpt><trkpt lat="38.879742" lon="16.5307959"><ele>62.0</ele><time>2026-04-11T15:15:42.674Z</time></trkpt><trkpt lat="38.8797965" lon="16.5309922"><ele>62.0</ele><time>2026-04-11T15:15:43.674Z</time></trkpt><trkpt lat="38.8798435" lon="16.5311978"><ele>62.0</ele><time>2026-04-11T15:15:44.675Z</time></trkpt><trkpt lat="38.8798875" lon="16.5314058"><ele>61.66666666666667</ele><time>2026-04-11T15:15:45.674Z</time></trkpt><trkpt lat="38.8799246" lon="16.5316179"><ele>61.33333333333333</ele><time>2026-04-11T15:15:46.675Z</time></trkpt><trkpt lat="38.8799604" lon="16.5318315"><ele>61.0</ele><time>2026-04-11T15:15:47.674Z</time></trkpt><trkpt lat="38.8799895" lon="16.5320538"><ele>61.0</ele><time>2026-04-11T15:15:48.674Z</time></trkpt><trkpt lat="38.8800148" lon="16.5322805"><ele>61.0</ele><time>2026-04-11T15:15:49.674Z</time></trkpt><trkpt lat="38.8800483" lon="16.5325018"><ele>61.0</ele><time>2026-04-11T15:15:50.675Z</time></trkpt><trkpt lat="38.8800729" lon="16.5327267"><ele>60.33333333333333</ele><time>2026-04-11T15:15:51.675Z</time></trkpt><trkpt lat="38.8801025" lon="16.5329546"><ele>59.66666666666667</ele><time>2026-04-11T15:15:52.675Z</time></trkpt><trkpt lat="38.8801423" lon="16.5331843"><ele>59.0</ele><time>2026-04-11T15:15:53.674Z</time></trkpt><trkpt lat="38.8801818" lon="16.5334144"><ele>59.0</ele><time>2026-04-11T15:15:54.675Z</time></trkpt><trkpt lat="38.8802119" lon="16.5336462"><ele>59.0</ele><time>2026-04-11T15:15:55.675Z</time></trkpt><trkpt lat="38.8802457" lon="16.533868"><ele>59.0</ele><time>2026-04-11T15:15:56.675Z</time></trkpt><trkpt lat="38.8802822" lon="16.5340918"><ele>59.0</ele><time>2026-04-11T15:15:57.674Z</time></trkpt><trkpt lat="38.8803133" lon="16.5343152"><ele>59.0</ele><time>2026-04-11T15:15:58.675Z</time></trkpt><trkpt lat="38.8803392" lon="16.5345457"><ele>59.0</ele><time>2026-04-11T15:15:59.675Z</time></trkpt><trkpt lat="38.8803643" lon="16.5347798"><ele>59.0</ele><time>2026-04-11T15:16:00.674Z</time></trkpt><trkpt lat="38.8803936" lon="16.5350077"><ele>59.0</ele><time>2026-04-11T15:16:01.674Z</time></trkpt><trkpt lat="38.8804287" lon="16.535226"><ele>59.0</ele><time>2026-04-11T15:16:02.675Z</time></trkpt><trkpt lat="38.8804745" lon="16.5354398"><ele>58.333333333333336</ele><time>2026-04-11T15:16:03.674Z</time></trkpt><trkpt lat="38.8805234" lon="16.5356587"><ele>57.66666666666667</ele><time>2026-04-11T15:16:04.674Z</time></trkpt><trkpt lat="38.8805797" lon="16.535875"><ele>57.0</ele><time>2026-04-11T15:16:05.674Z</time></trkpt><trkpt lat="38.8806382" lon="16.5360917"><ele>56.66666666666667</ele><time>2026-04-11T15:16:06.674Z</time></trkpt><trkpt lat="38.8807013" lon="16.5363081"><ele>56.333333333333336</ele><time>2026-04-11T15:16:07.675Z</time></trkpt><trkpt lat="38.8807529" lon="16.5365335"><ele>56.0</ele><time>2026-04-11T15:16:08.674Z</time></trkpt><trkpt lat="38.880804" lon="16.5367456"><ele>56.0</ele><time>2026-04-11T15:16:09.675Z</time></trkpt><trkpt lat="38.8808598" lon="16.5369629"><ele>56.0</ele><time>2026-04-11T15:16:10.674Z</time></trkpt><trkpt lat="38.8809194" lon="16.5371734"><ele>56.0</ele><time>2026-04-11T15:16:11.675Z</time></trkpt><trkpt lat="38.8809797" lon="16.5373773"><ele>56.0</ele><time>2026-04-11T15:16:12.675Z</time></trkpt><trkpt lat="38.8810491" lon="16.5375746"><ele>56.0</ele><time>2026-04-11T15:16:13.675Z</time></trkpt><trkpt lat="38.881141" lon="16.5377626"><ele>56.0</ele><time>2026-04-11T15:16:14.674Z</time></trkpt><trkpt lat="38.8812438" lon="16.5379353"><ele>56.333333333333336</ele><time>2026-04-11T15:16:15.675Z</time></trkpt><trkpt lat="38.8813558" lon="16.5381032"><ele>56.66666666666667</ele><time>2026-04-11T15:16:16.674Z</time></trkpt><trkpt lat="38.8814779" lon="16.5382712"><ele>57.0</ele><time>2026-04-11T15:16:17.674Z</time></trkpt><trkpt lat="38.8816027" lon="16.5384342"><ele>57.0</ele><time>2026-04-11T15:16:18.675Z</time></trkpt><trkpt lat="38.8817236" lon="16.5385977"><ele>57.0</ele><time>2026-04-11T15:16:19.675Z</time></trkpt><trkpt lat="38.8818453" lon="16.5387711"><ele>57.0</ele><time>2026-04-11T15:16:20.675Z</time></trkpt><trkpt lat="38.8819713" lon="16.5389472"><ele>56.66666666666667</ele><time>2026-04-11T15:16:21.674Z</time></trkpt><trkpt lat="38.8820968" lon="16.5391219"><ele>56.333333333333336</ele><time>2026-04-11T15:16:22.675Z</time></trkpt><trkpt lat="38.8822217" lon="16.5392906"><ele>56.0</ele><time>2026-04-11T15:16:23.674Z</time></trkpt><trkpt lat="38.882341" lon="16.5394589"><ele>55.66666666666667</ele><time>2026-04-11T15:16:24.674Z</time></trkpt><trkpt lat="38.8824619" lon="16.5396404"><ele>55.33333333333333</ele><time>2026-04-11T15:16:25.674Z</time></trkpt><trkpt lat="38.8825862" lon="16.5398134"><ele>55.0</ele><time>2026-04-11T15:16:26.675Z</time></trkpt><trkpt lat="38.8827023" lon="16.5399792"><ele>56.666666666666664</ele><time>2026-04-11T15:16:27.675Z</time></trkpt><trkpt lat="38.882812" lon="16.5401527"><ele>58.33333333333333</ele><time>2026-04-11T15:16:28.674Z</time></trkpt><trkpt lat="38.8829052" lon="16.5403382"><ele>60.0</ele><time>2026-04-11T15:16:29.674Z</time></trkpt><trkpt lat="38.882985" lon="16.5405297"><ele>60.0</ele><time>2026-04-11T15:16:30.675Z</time></trkpt><trkpt lat="38.883047" lon="16.5407343"><ele>60.0</ele><time>2026-04-11T15:16:31.675Z</time></trkpt><trkpt lat="38.8830996" lon="16.5409489"><ele>60.0</ele><time>2026-04-11T15:16:32.675Z</time></trkpt><trkpt lat="38.8831478" lon="16.5411673"><ele>58.33333333333333</ele><time>2026-04-11T15:16:33.674Z</time></trkpt><trkpt lat="38.8831924" lon="16.5413864"><ele>56.666666666666664</ele><time>2026-04-11T15:16:34.674Z</time></trkpt><trkpt lat="38.8832327" lon="16.5416078"><ele>55.0</ele><time>2026-04-11T15:16:35.675Z</time></trkpt><trkpt lat="38.8832732" lon="16.5418259"><ele>55.0</ele><time>2026-04-11T15:16:36.674Z</time></trkpt><trkpt lat="38.8833105" lon="16.542047"><ele>55.0</ele><time>2026-04-11T15:16:37.674Z</time></trkpt><trkpt lat="38.8833504" lon="16.5422607"><ele>55.0</ele><time>2026-04-11T15:16:38.674Z</time></trkpt><trkpt lat="38.8833964" lon="16.5424707"><ele>55.666666666666664</ele><time>2026-04-11T15:16:39.674Z</time></trkpt><trkpt lat="38.8834569" lon="16.5426745"><ele>56.33333333333333</ele><time>2026-04-11T15:16:40.674Z</time></trkpt><trkpt lat="38.8835444" lon="16.5428718"><ele>57.0</ele><time>2026-04-11T15:16:41.674Z</time></trkpt><trkpt lat="38.8836439" lon="16.5430611"><ele>57.0</ele><time>2026-04-11T15:16:42.674Z</time></trkpt><trkpt lat="38.8837447" lon="16.5432432"><ele>57.0</ele><time>2026-04-11T15:16:43.674Z</time></trkpt><trkpt lat="38.8838528" lon="16.5434232"><ele>57.0</ele><time>2026-04-11T15:16:44.674Z</time></trkpt><trkpt lat="38.8839645" lon="16.5436018"><ele>56.0</ele><time>2026-04-11T15:16:45.674Z</time></trkpt><trkpt lat="38.884072" lon="16.5437802"><ele>55.0</ele><time>2026-04-11T15:16:46.674Z</time></trkpt><trkpt lat="38.8841771" lon="16.5439605"><ele>54.0</ele><time>2026-04-11T15:16:47.675Z</time></trkpt><trkpt lat="38.8842891" lon="16.5441419"><ele>55.33333333333333</ele><time>2026-04-11T15:16:48.674Z</time></trkpt><trkpt lat="38.8843995" lon="16.5443308"><ele>56.666666666666664</ele><time>2026-04-11T15:16:49.674Z</time></trkpt><trkpt lat="38.8844995" lon="16.5445171"><ele>58.0</ele><time>2026-04-11T15:16:50.674Z</time></trkpt><trkpt lat="38.8845963" lon="16.5447015"><ele>58.0</ele><time>2026-04-11T15:16:51.675Z</time></trkpt><trkpt lat="38.8846955" lon="16.5448788"><ele>58.0</ele><time>2026-04-11T15:16:52.674Z</time></trkpt><trkpt lat="38.8847932" lon="16.5450432"><ele>58.0</ele><time>2026-04-11T15:16:53.674Z</time></trkpt><trkpt lat="38.8848873" lon="16.5452014"><ele>58.0</ele><time>2026-04-11T15:16:54.674Z</time></trkpt><trkpt lat="38.8849785" lon="16.5453453"><ele>58.0</ele><time>2026-04-11T15:16:55.675Z</time></trkpt><trkpt lat="38.885097" lon="16.5454671"><ele>58.0</ele><time>2026-04-11T15:16:56.675Z</time></trkpt><trkpt lat="38.8852363" lon="16.5455679"><ele>57.33333333333333</ele><time>2026-04-11T15:16:57.674Z</time></trkpt><trkpt lat="38.8853808" lon="16.5456467"><ele>56.66666666666667</ele><time>2026-04-11T15:16:58.675Z</time></trkpt><trkpt lat="38.8855326" lon="16.5457081"><ele>56.0</ele><time>2026-04-11T15:16:59.675Z</time></trkpt><trkpt lat="38.8856909" lon="16.5457497"><ele>56.0</ele><time>2026-04-11T15:17:00.675Z</time></trkpt><trkpt lat="38.8858543" lon="16.5457714"><ele>56.0</ele><time>2026-04-11T15:17:01.674Z</time></trkpt><trkpt lat="38.886008" lon="16.5457747"><ele>56.0</ele><time>2026-04-11T15:17:02.675Z</time></trkpt><trkpt lat="38.8861623" lon="16.5457665"><ele>57.0</ele><time>2026-04-11T15:17:03.674Z</time></trkpt><trkpt lat="38.8863118" lon="16.5457633"><ele>58.0</ele><time>2026-04-11T15:17:04.674Z</time></trkpt><trkpt lat="38.8864512" lon="16.5457549"><ele>59.0</ele><time>2026-04-11T15:17:05.674Z</time></trkpt><trkpt lat="38.8865756" lon="16.545755"><ele>60.0</ele><time>2026-04-11T15:17:06.674Z</time></trkpt><trkpt lat="38.8866877" lon="16.5457727"><ele>60.0</ele><time>2026-04-11T15:17:07.675Z</time></trkpt><trkpt lat="38.886791" lon="16.5458058"><ele>60.0</ele><time>2026-04-11T15:17:08.674Z</time></trkpt><trkpt lat="38.8868825" lon="16.5458677"><ele>60.0</ele><time>2026-04-11T15:17:09.675Z</time></trkpt><trkpt lat="38.8869606" lon="16.545957"><ele>60.0</ele><time>2026-04-11T15:17:10.674Z</time></trkpt><trkpt lat="38.8870246" lon="16.5460704"><ele>60.0</ele><time>2026-04-11T15:17:11.675Z</time></trkpt><trkpt lat="38.8870872" lon="16.5461963"><ele>58.75</ele><time>2026-04-11T15:17:12.674Z</time></trkpt><trkpt lat="38.8871488" lon="16.5463318"><ele>57.5</ele><time>2026-04-11T15:17:13.674Z</time></trkpt><trkpt lat="38.8872085" lon="16.5464737"><ele>56.25</ele><time>2026-04-11T15:17:14.675Z</time></trkpt><trkpt lat="38.8872745" lon="16.5466177"><ele>55.0</ele><time>2026-04-11T15:17:15.675Z</time></trkpt><trkpt lat="38.8873351" lon="16.54676"><ele>55.0</ele><time>2026-04-11T15:17:16.674Z</time></trkpt><trkpt lat="38.8874014" lon="16.5468848"><ele>55.0</ele><time>2026-04-11T15:17:17.674Z</time></trkpt><trkpt lat="38.8874731" lon="16.5469938"><ele>55.0</ele><time>2026-04-11T15:17:18.674Z</time></trkpt><trkpt lat="38.8875596" lon="16.5470946"><ele>55.0</ele><time>2026-04-11T15:17:19.674Z</time></trkpt><trkpt lat="38.8876615" lon="16.5471747"><ele>55.5</ele><time>2026-04-11T15:17:20.674Z</time></trkpt><trkpt lat="38.8877748" lon="16.547238"><ele>56.0</ele><time>2026-04-11T15:17:21.674Z</time></trkpt><trkpt lat="38.8878994" lon="16.5472955"><ele>56.5</ele><time>2026-04-11T15:17:22.674Z</time></trkpt><trkpt lat="38.8880337" lon="16.5473489"><ele>57.0</ele><time>2026-04-11T15:17:23.675Z</time></trkpt><trkpt lat="38.8881734" lon="16.5474114"><ele>57.0</ele><time>2026-04-11T15:17:24.674Z</time></trkpt><trkpt lat="38.8883066" lon="16.5474781"><ele>57.0</ele><time>2026-04-11T15:17:25.674Z</time></trkpt><trkpt lat="38.8884389" lon="16.5475422"><ele>57.0</ele><time>2026-04-11T15:17:26.674Z</time></trkpt><trkpt lat="38.8885814" lon="16.5476112"><ele>57.0</ele><time>2026-04-11T15:17:27.674Z</time></trkpt><trkpt lat="38.8887221" lon="16.5476895"><ele>57.33333333333333</ele><time>2026-04-11T15:17:28.675Z</time></trkpt><trkpt lat="38.8888695" lon="16.5477671"><ele>57.666666666666664</ele><time>2026-04-11T15:17:29.674Z</time></trkpt><trkpt lat="38.8890211" lon="16.5478476"><ele>58.0</ele><time>2026-04-11T15:17:30.674Z</time></trkpt><trkpt lat="38.8891731" lon="16.5479237"><ele>58.666666666666664</ele><time>2026-04-11T15:17:31.675Z</time></trkpt><trkpt lat="38.8893186" lon="16.5479938"><ele>59.33333333333333</ele><time>2026-04-11T15:17:32.675Z</time></trkpt><trkpt lat="38.8894646" lon="16.548065"><ele>60.0</ele><time>2026-04-11T15:17:33.674Z</time></trkpt><trkpt lat="38.8896097" lon="16.5481435"><ele>60.0</ele><time>2026-04-11T15:17:34.674Z</time></trkpt><trkpt lat="38.8897559" lon="16.5482218"><ele>60.0</ele><time>2026-04-11T15:17:35.674Z</time></trkpt><trkpt lat="38.8898952" lon="16.548295"><ele>60.0</ele><time>2026-04-11T15:17:36.675Z</time></trkpt><trkpt lat="38.8900351" lon="16.5483598"><ele>61.5</ele><time>2026-04-11T15:17:37.675Z</time></trkpt><trkpt lat="38.8901694" lon="16.5484138"><ele>63.0</ele><time>2026-04-11T15:17:38.674Z</time></trkpt><trkpt lat="38.8903145" lon="16.5484554"><ele>64.5</ele><time>2026-04-11T15:17:39.674Z</time></trkpt><trkpt lat="38.8904657" lon="16.5484804"><ele>66.0</ele><time>2026-04-11T15:17:40.674Z</time></trkpt><trkpt lat="38.8906066" lon="16.5485085"><ele>66.0</ele><time>2026-04-11T15:17:41.674Z</time></trkpt><trkpt lat="38.8907592" lon="16.5485189"><ele>66.0</ele><time>2026-04-11T15:17:42.675Z</time></trkpt><trkpt lat="38.8909097" lon="16.5485304"><ele>66.0</ele><time>2026-04-11T15:17:43.674Z</time></trkpt><trkpt lat="38.8910524" lon="16.5485433"><ele>66.0</ele><time>2026-04-11T15:17:44.674Z</time></trkpt><trkpt lat="38.8911862" lon="16.5485509"><ele>66.39999999999999</ele><time>2026-04-11T15:17:45.674Z</time></trkpt><trkpt lat="38.8913137" lon="16.5485698"><ele>66.8</ele><time>2026-04-11T15:17:46.675Z</time></trkpt><trkpt lat="38.8914289" lon="16.5486089"><ele>67.19999999999999</ele><time>2026-04-11T15:17:47.674Z</time></trkpt><trkpt lat="38.8915248" lon="16.5486588"><ele>67.6</ele><time>2026-04-11T15:17:48.675Z</time></trkpt><trkpt lat="38.8916024" lon="16.5487362"><ele>68.0</ele><time>2026-04-11T15:17:49.675Z</time></trkpt><trkpt lat="38.8916789" lon="16.5488376"><ele>68.6</ele><time>2026-04-11T15:17:50.674Z</time></trkpt><trkpt lat="38.891748" lon="16.5489491"><ele>69.19999999999999</ele><time>2026-04-11T15:17:51.674Z</time></trkpt><trkpt lat="38.8918114" lon="16.5490729"><ele>69.8</ele><time>2026-04-11T15:17:52.675Z</time></trkpt><trkpt lat="38.8918726" lon="16.5491914"><ele>70.39999999999999</ele><time>2026-04-11T15:17:53.675Z</time></trkpt><trkpt lat="38.8919309" lon="16.5493068"><ele>71.0</ele><time>2026-04-11T15:17:54.675Z</time></trkpt><trkpt lat="38.8919876" lon="16.5494089"><ele>71.0</ele><time>2026-04-11T15:17:55.675Z</time></trkpt><trkpt lat="38.8920454" lon="16.5494983"><ele>71.0</ele><time>2026-04-11T15:17:56.675Z</time></trkpt><trkpt lat="38.8921064" lon="16.5495876"><ele>71.0</ele><time>2026-04-11T15:17:57.675Z</time></trkpt><trkpt lat="38.8921704" lon="16.5496854"><ele>71.0</ele><time>2026-04-11T15:17:58.674Z</time></trkpt><trkpt lat="38.8922367" lon="16.5497786"><ele>71.0</ele><time>2026-04-11T15:17:59.675Z</time></trkpt><trkpt lat="38.892302" lon="16.5498669"><ele>71.0</ele><time>2026-04-11T15:18:00.674Z</time></trkpt><trkpt lat="38.8923685" lon="16.5499246"><ele>71.0</ele><time>2026-04-11T15:18:01.675Z</time></trkpt><trkpt lat="38.8924348" lon="16.5499587"><ele>71.0</ele><time>2026-04-11T15:18:02.675Z</time></trkpt><trkpt lat="38.8924976" lon="16.5499723"><ele>71.0</ele><time>2026-04-11T15:18:03.675Z</time></trkpt><trkpt lat="38.8926008" lon="16.5499349"><ele>71.0</ele><time>2026-04-11T15:18:05.675Z</time></trkpt><trkpt lat="38.8926375" lon="16.5498068"><ele>71.0</ele><time>2026-04-11T15:18:07.675Z</time></trkpt><trkpt lat="38.8926333" lon="16.5496988"><ele>73.0</ele><time>2026-04-11T15:18:08.674Z</time></trkpt><trkpt lat="38.8926247" lon="16.5495963"><ele>75.0</ele><time>2026-04-11T15:18:09.675Z</time></trkpt><trkpt lat="38.8926164" lon="16.5495106"><ele>77.0</ele><time>2026-04-11T15:18:10.675Z</time></trkpt><trkpt lat="38.8926082" lon="16.5494277"><ele>79.0</ele><time>2026-04-11T15:18:11.674Z</time></trkpt><trkpt lat="38.8926181" lon="16.549316"><ele>81.0</ele><time>2026-04-11T15:18:13.674Z</time></trkpt><trkpt lat="38.8926914" lon="16.54925"><ele>83.0</ele><time>2026-04-11T15:18:16.674Z</time></trkpt><trkpt lat="38.892774" lon="16.5492312"><ele>83.0</ele><time>2026-04-11T15:18:19.675Z</time></trkpt><trkpt lat="38.892798" lon="16.5491456"><ele>83.0</ele><time>2026-04-11T15:18:21.675Z</time></trkpt><trkpt lat="38.8927942" lon="16.5489721"><ele>83.0</ele><time>2026-04-11T15:18:23.674Z</time></trkpt><trkpt lat="38.8927888" lon="16.548855"><ele>83.0</ele><time>2026-04-11T15:18:24.675Z</time></trkpt><trkpt lat="38.8927884" lon="16.5487368"><ele>83.0</ele><time>2026-04-11T15:18:25.674Z</time></trkpt><trkpt lat="38.8927853" lon="16.5486118"><ele>83.0</ele><time>2026-04-11T15:18:26.674Z</time></trkpt><trkpt lat="38.8927848" lon="16.5484828"><ele>83.0</ele><time>2026-04-11T15:18:27.674Z</time></trkpt><trkpt lat="38.8927852" lon="16.5483518"><ele>83.0</ele><time>2026-04-11T15:18:28.675Z</time></trkpt><trkpt lat="38.8927918" lon="16.5482114"><ele>83.0</ele><time>2026-04-11T15:18:29.675Z</time></trkpt><trkpt lat="38.8928117" lon="16.548069"><ele>83.0</ele><time>2026-04-11T15:18:30.674Z</time></trkpt><trkpt lat="38.8928323" lon="16.5479252"><ele>81.5</ele><time>2026-04-11T15:18:31.674Z</time></trkpt><trkpt lat="38.8928528" lon="16.54777"><ele>80.0</ele><time>2026-04-11T15:18:32.674Z</time></trkpt><trkpt lat="38.8928671" lon="16.5476087"><ele>78.5</ele><time>2026-04-11T15:18:33.674Z</time></trkpt><trkpt lat="38.892886" lon="16.5474562"><ele>77.0</ele><time>2026-04-11T15:18:34.675Z</time></trkpt><trkpt lat="38.8929023" lon="16.5472936"><ele>77.0</ele><time>2026-04-11T15:18:35.675Z</time></trkpt><trkpt lat="38.892926" lon="16.5471334"><ele>77.0</ele><time>2026-04-11T15:18:36.675Z</time></trkpt><trkpt lat="38.8929513" lon="16.5469855"><ele>77.0</ele><time>2026-04-11T15:18:37.675Z</time></trkpt><trkpt lat="38.892979" lon="16.5468396"><ele>77.0</ele><time>2026-04-11T15:18:38.674Z</time></trkpt><trkpt lat="38.8930081" lon="16.5466992"><ele>76.75</ele><time>2026-04-11T15:18:39.675Z</time></trkpt><trkpt lat="38.8930362" lon="16.5465638"><ele>76.5</ele><time>2026-04-11T15:18:40.675Z</time></trkpt><trkpt lat="38.8930951" lon="16.5463062"><ele>76.25</ele><time>2026-04-11T15:18:42.675Z</time></trkpt><trkpt lat="38.8931307" lon="16.5461811"><ele>76.0</ele><time>2026-04-11T15:18:43.674Z</time></trkpt><trkpt lat="38.8931605" lon="16.5460519"><ele>76.0</ele><time>2026-04-11T15:18:44.674Z</time></trkpt><trkpt lat="38.893192" lon="16.5459201"><ele>76.0</ele><time>2026-04-11T15:18:45.674Z</time></trkpt><trkpt lat="38.8932265" lon="16.5457884"><ele>76.0</ele><time>2026-04-11T15:18:46.674Z</time></trkpt><trkpt lat="38.8932614" lon="16.5456551"><ele>76.0</ele><time>2026-04-11T15:18:47.675Z</time></trkpt><trkpt lat="38.893343" lon="16.5453938"><ele>75.5</ele><time>2026-04-11T15:18:49.674Z</time></trkpt><trkpt lat="38.8933861" lon="16.5452644"><ele>75.0</ele><time>2026-04-11T15:18:50.674Z</time></trkpt><trkpt lat="38.8934342" lon="16.5451332"><ele>74.5</ele><time>2026-04-11T15:18:51.675Z</time></trkpt><trkpt lat="38.8934814" lon="16.5450021"><ele>74.0</ele><time>2026-04-11T15:18:52.675Z</time></trkpt><trkpt lat="38.8935373" lon="16.5448674"><ele>76.66666666666667</ele><time>2026-04-11T15:18:53.674Z</time></trkpt><trkpt lat="38.8936542" lon="16.5445786"><ele>79.33333333333333</ele><time>2026-04-11T15:18:55.674Z</time></trkpt><trkpt lat="38.893716" lon="16.5444317"><ele>82.0</ele><time>2026-04-11T15:18:56.674Z</time></trkpt><trkpt lat="38.8937765" lon="16.544287"><ele>82.0</ele><time>2026-04-11T15:18:57.674Z</time></trkpt><trkpt lat="38.8938363" lon="16.5441496"><ele>82.0</ele><time>2026-04-11T15:18:58.674Z</time></trkpt><trkpt lat="38.8938964" lon="16.5440162"><ele>82.0</ele><time>2026-04-11T15:18:59.674Z</time></trkpt><trkpt lat="38.8939547" lon="16.5438784"><ele>82.0</ele><time>2026-04-11T15:19:00.675Z</time></trkpt><trkpt lat="38.8940133" lon="16.5437473"><ele>79.75</ele><time>2026-04-11T15:19:01.674Z</time></trkpt><trkpt lat="38.8940731" lon="16.5436101"><ele>77.5</ele><time>2026-04-11T15:19:02.675Z</time></trkpt><trkpt lat="38.8941346" lon="16.5434789"><ele>75.25</ele><time>2026-04-11T15:19:03.674Z</time></trkpt><trkpt lat="38.8941929" lon="16.543354"><ele>73.0</ele><time>2026-04-11T15:19:04.674Z</time></trkpt><trkpt lat="38.8942514" lon="16.5432282"><ele>74.0</ele><time>2026-04-11T15:19:05.674Z</time></trkpt><trkpt lat="38.894363" lon="16.5429782"><ele>75.0</ele><time>2026-04-11T15:19:07.674Z</time></trkpt><trkpt lat="38.8944227" lon="16.5428503"><ele>76.0</ele><time>2026-04-11T15:19:08.674Z</time></trkpt><trkpt lat="38.8944783" lon="16.5427273"><ele>76.0</ele><time>2026-04-11T15:19:09.674Z</time></trkpt><trkpt lat="38.8945349" lon="16.5425925"><ele>76.0</ele><time>2026-04-11T15:19:10.674Z</time></trkpt><trkpt lat="38.8945916" lon="16.5424631"><ele>76.0</ele><time>2026-04-11T15:19:11.674Z</time></trkpt><trkpt lat="38.8946506" lon="16.54233"><ele>76.0</ele><time>2026-04-11T15:19:12.674Z</time></trkpt><trkpt lat="38.8947091" lon="16.5421976"><ele>76.0</ele><time>2026-04-11T15:19:13.674Z</time></trkpt><trkpt lat="38.8947622" lon="16.5420689"><ele>76.0</ele><time>2026-04-11T15:19:14.674Z</time></trkpt><trkpt lat="38.8948228" lon="16.5419349"><ele>76.0</ele><time>2026-04-11T15:19:15.675Z</time></trkpt><trkpt lat="38.8949353" lon="16.5416636"><ele>75.5</ele><time>2026-04-11T15:19:17.675Z</time></trkpt><trkpt lat="38.8949871" lon="16.5415254"><ele>75.0</ele><time>2026-04-11T15:19:18.674Z</time></trkpt><trkpt lat="38.8950385" lon="16.5413947"><ele>74.5</ele><time>2026-04-11T15:19:19.674Z</time></trkpt><trkpt lat="38.8951" lon="16.5412663"><ele>74.0</ele><time>2026-04-11T15:19:20.675Z</time></trkpt><trkpt lat="38.8951549" lon="16.5411398"><ele>75.33333333333334</ele><time>2026-04-11T15:19:21.675Z</time></trkpt><trkpt lat="38.895263" lon="16.5408931"><ele>76.66666666666667</ele><time>2026-04-11T15:19:23.675Z</time></trkpt><trkpt lat="38.8953067" lon="16.5407581"><ele>78.0</ele><time>2026-04-11T15:19:24.675Z</time></trkpt><trkpt lat="38.8953834" lon="16.5406112"><ele>78.0</ele><time>2026-04-11T15:19:25.674Z</time></trkpt><trkpt lat="38.8954607" lon="16.5404737"><ele>78.0</ele><time>2026-04-11T15:19:26.675Z</time></trkpt><trkpt lat="38.8955305" lon="16.5403313"><ele>78.0</ele><time>2026-04-11T15:19:27.675Z</time></trkpt><trkpt lat="38.8955945" lon="16.5401866"><ele>78.0</ele><time>2026-04-11T15:19:28.674Z</time></trkpt><trkpt lat="38.8956523" lon="16.5400444"><ele>77.66666666666667</ele><time>2026-04-11T15:19:29.675Z</time></trkpt><trkpt lat="38.8957085" lon="16.5398953"><ele>77.33333333333334</ele><time>2026-04-11T15:19:30.674Z</time></trkpt><trkpt lat="38.8958256" lon="16.5396191"><ele>77.0</ele><time>2026-04-11T15:19:32.674Z</time></trkpt><trkpt lat="38.8958835" lon="16.5394854"><ele>79.66666666666667</ele><time>2026-04-11T15:19:33.674Z</time></trkpt><trkpt lat="38.8959967" lon="16.5392219"><ele>82.33333333333333</ele><time>2026-04-11T15:19:35.674Z</time></trkpt><trkpt lat="38.896056" lon="16.5390933"><ele>85.0</ele><time>2026-04-11T15:19:36.674Z</time></trkpt><trkpt lat="38.8961082" lon="16.538959"><ele>85.0</ele><time>2026-04-11T15:19:37.674Z</time></trkpt><trkpt lat="38.8961567" lon="16.5388208"><ele>85.0</ele><time>2026-04-11T15:19:38.674Z</time></trkpt><trkpt lat="38.8962419" lon="16.5385418"><ele>85.0</ele><time>2026-04-11T15:19:40.674Z</time></trkpt><trkpt lat="38.8962851" lon="16.5383966"><ele>83.25</ele><time>2026-04-11T15:19:41.674Z</time></trkpt><trkpt lat="38.8963225" lon="16.5382542"><ele>81.5</ele><time>2026-04-11T15:19:42.674Z</time></trkpt><trkpt lat="38.8963512" lon="16.5381025"><ele>79.75</ele><time>2026-04-11T15:19:43.675Z</time></trkpt><trkpt lat="38.8963835" lon="16.5379521"><ele>78.0</ele><time>2026-04-11T15:19:44.674Z</time></trkpt><trkpt lat="38.8964354" lon="16.5376432"><ele>77.75</ele><time>2026-04-11T15:19:46.675Z</time></trkpt><trkpt lat="38.8964643" lon="16.537503"><ele>77.5</ele><time>2026-04-11T15:19:47.674Z</time></trkpt><trkpt lat="38.8964881" lon="16.5373675"><ele>77.25</ele><time>2026-04-11T15:19:48.674Z</time></trkpt><trkpt lat="38.8965052" lon="16.5372173"><ele>77.0</ele><time>2026-04-11T15:19:49.675Z</time></trkpt><trkpt lat="38.8965443" lon="16.5369192"><ele>77.0</ele><time>2026-04-11T15:19:51.674Z</time></trkpt><trkpt lat="38.8965589" lon="16.5367705"><ele>77.0</ele><time>2026-04-11T15:19:52.674Z</time></trkpt><trkpt lat="38.8966029" lon="16.5364985"><ele>77.0</ele><time>2026-04-11T15:19:54.675Z</time></trkpt><trkpt lat="38.8966231" lon="16.536361"><ele>77.0</ele><time>2026-04-11T15:19:55.674Z</time></trkpt><trkpt lat="38.8966615" lon="16.5361035"><ele>77.0</ele><time>2026-04-11T15:19:57.675Z</time></trkpt><trkpt lat="38.8966741" lon="16.535987"><ele>77.0</ele><time>2026-04-11T15:19:58.674Z</time></trkpt><trkpt lat="38.896692" lon="16.5357617"><ele>77.0</ele><time>2026-04-11T15:20:00.674Z</time></trkpt><trkpt lat="38.8967023" lon="16.5356707"><ele>77.0</ele><time>2026-04-11T15:20:01.674Z</time></trkpt><trkpt lat="38.8967476" lon="16.5355448"><ele>77.0</ele><time>2026-04-11T15:20:03.675Z</time></trkpt><trkpt lat="38.89685" lon="16.5354843"><ele>77.6</ele><time>2026-04-11T15:20:05.674Z</time></trkpt><trkpt lat="38.8969522" lon="16.5354694"><ele>78.2</ele><time>2026-04-11T15:20:07.674Z</time></trkpt><trkpt lat="38.8970708" lon="16.5355055"><ele>78.8</ele><time>2026-04-11T15:20:09.675Z</time></trkpt><trkpt lat="38.897155" lon="16.5356023"><ele>79.4</ele><time>2026-04-11T15:20:11.675Z</time></trkpt><trkpt lat="38.897184" lon="16.5356784"><ele>80.0</ele><time>2026-04-11T15:20:12.674Z</time></trkpt><trkpt lat="38.8972564" lon="16.5357673"><ele>80.0</ele><time>2026-04-11T15:20:14.674Z</time></trkpt><trkpt lat="38.897385" lon="16.5357972"><ele>80.0</ele><time>2026-04-11T15:20:16.674Z</time></trkpt><trkpt lat="38.8974566" lon="16.5358114"><ele>80.0</ele><time>2026-04-11T15:20:17.674Z</time></trkpt><trkpt lat="38.8975924" lon="16.5358428"><ele>80.0</ele><time>2026-04-11T15:20:19.674Z</time></trkpt><trkpt lat="38.8976578" lon="16.5358494"><ele>80.0</ele><time>2026-04-11T15:20:20.675Z</time></trkpt><trkpt lat="38.8977586" lon="16.5358205"><ele>81.4</ele><time>2026-04-11T15:20:22.675Z</time></trkpt><trkpt lat="38.8978323" lon="16.5357451"><ele>82.8</ele><time>2026-04-11T15:20:24.674Z</time></trkpt><trkpt lat="38.8979014" lon="16.5356712"><ele>84.19999999999999</ele><time>2026-04-11T15:20:26.674Z</time></trkpt><trkpt lat="38.8979835" lon="16.5356009"><ele>85.6</ele><time>2026-04-11T15:20:28.674Z</time></trkpt><trkpt lat="38.8980955" lon="16.5354783"><ele>87.0</ele><time>2026-04-11T15:20:31.674Z</time></trkpt><trkpt lat="38.8981751" lon="16.5354073"><ele>87.0</ele><time>2026-04-11T15:20:33.675Z</time></trkpt><trkpt lat="38.8983544" lon="16.535229"><ele>87.0</ele><time>2026-04-11T15:20:37.675Z</time></trkpt><trkpt lat="38.8984451" lon="16.5351448"><ele>87.0</ele><time>2026-04-11T15:20:39.675Z</time></trkpt><trkpt lat="38.8985399" lon="16.5350597"><ele>87.8</ele><time>2026-04-11T15:20:41.675Z</time></trkpt><trkpt lat="38.8985869" lon="16.5349959"><ele>88.6</ele><time>2026-04-11T15:20:42.674Z</time></trkpt><trkpt lat="38.8986701" lon="16.5348495"><ele>89.39999999999999</ele><time>2026-04-11T15:20:44.674Z</time></trkpt><trkpt lat="38.8987157" lon="16.5347643"><ele>90.19999999999999</ele><time>2026-04-11T15:20:45.674Z</time></trkpt><trkpt lat="38.8987612" lon="16.5346704"><ele>91.0</ele><time>2026-04-11T15:20:46.674Z</time></trkpt><trkpt lat="38.8988095" lon="16.534569"><ele>91.6</ele><time>2026-04-11T15:20:47.674Z</time></trkpt><trkpt lat="38.8988596" lon="16.5344617"><ele>92.19999999999999</ele><time>2026-04-11T15:20:48.674Z</time></trkpt><trkpt lat="38.8989079" lon="16.5343523"><ele>92.80000000000001</ele><time>2026-04-11T15:20:49.674Z</time></trkpt><trkpt lat="38.8989519" lon="16.5342335"><ele>93.4</ele><time>2026-04-11T15:20:50.674Z</time></trkpt><trkpt lat="38.8990043" lon="16.5341108"><ele>94.0</ele><time>2026-04-11T15:20:51.674Z</time></trkpt><trkpt lat="38.8990652" lon="16.5339748"><ele>94.0</ele><time>2026-04-11T15:20:52.675Z</time></trkpt><trkpt lat="38.8991197" lon="16.5338308"><ele>94.0</ele><time>2026-04-11T15:20:53.675Z</time></trkpt><trkpt lat="38.8991642" lon="16.5336814"><ele>94.0</ele><time>2026-04-11T15:20:54.674Z</time></trkpt><trkpt lat="38.8992072" lon="16.5335447"><ele>94.0</ele><time>2026-04-11T15:20:55.675Z</time></trkpt><trkpt lat="38.8992481" lon="16.5334131"><ele>96.2</ele><time>2026-04-11T15:20:56.674Z</time></trkpt><trkpt lat="38.8992912" lon="16.5333043"><ele>98.4</ele><time>2026-04-11T15:20:57.674Z</time></trkpt><trkpt lat="38.8993399" lon="16.5332009"><ele>100.6</ele><time>2026-04-11T15:20:58.675Z</time></trkpt><trkpt lat="38.8993992" lon="16.5331043"><ele>102.8</ele><time>2026-04-11T15:20:59.674Z</time></trkpt><trkpt lat="38.8994766" lon="16.5330364"><ele>105.0</ele><time>2026-04-11T15:21:00.674Z</time></trkpt><trkpt lat="38.8995594" lon="16.5329752"><ele>105.0</ele><time>2026-04-11T15:21:01.675Z</time></trkpt><trkpt lat="38.8996548" lon="16.5329308"><ele>105.0</ele><time>2026-04-11T15:21:02.674Z</time></trkpt><trkpt lat="38.8997521" lon="16.5328917"><ele>105.0</ele><time>2026-04-11T15:21:03.675Z</time></trkpt><trkpt lat="38.8998527" lon="16.5328526"><ele>105.0</ele><time>2026-04-11T15:21:04.674Z</time></trkpt><trkpt lat="38.8999577" lon="16.5328132"><ele>105.0</ele><time>2026-04-11T15:21:05.674Z</time></trkpt><trkpt lat="38.9000587" lon="16.532777"><ele>106.0</ele><time>2026-04-11T15:21:06.674Z</time></trkpt><trkpt lat="38.9001631" lon="16.5327459"><ele>107.0</ele><time>2026-04-11T15:21:07.675Z</time></trkpt><trkpt lat="38.9002605" lon="16.5327416"><ele>108.0</ele><time>2026-04-11T15:21:08.675Z</time></trkpt><trkpt lat="38.9003391" lon="16.5327878"><ele>109.0</ele><time>2026-04-11T15:21:09.675Z</time></trkpt><trkpt lat="38.9003941" lon="16.5328645"><ele>110.0</ele><time>2026-04-11T15:21:10.674Z</time></trkpt><trkpt lat="38.9004211" lon="16.5329595"><ele>111.6</ele><time>2026-04-11T15:21:11.674Z</time></trkpt><trkpt lat="38.9004156" lon="16.5330676"><ele>113.2</ele><time>2026-04-11T15:21:12.675Z</time></trkpt><trkpt lat="38.9003699" lon="16.5331676"><ele>114.80000000000001</ele><time>2026-04-11T15:21:13.674Z</time></trkpt><trkpt lat="38.9002934" lon="16.5332761"><ele>116.4</ele><time>2026-04-11T15:21:14.674Z</time></trkpt><trkpt lat="38.9002127" lon="16.533399"><ele>118.0</ele><time>2026-04-11T15:21:15.674Z</time></trkpt><trkpt lat="38.900143" lon="16.533531"><ele>118.0</ele><time>2026-04-11T15:21:16.674Z</time></trkpt><trkpt lat="38.9000893" lon="16.5336691"><ele>118.00000000000001</ele><time>2026-04-11T15:21:17.675Z</time></trkpt><trkpt lat="38.9000682" lon="16.5338032"><ele>118.00000000000001</ele><time>2026-04-11T15:21:18.674Z</time></trkpt><trkpt lat="38.9000642" lon="16.5339276"><ele>118.0</ele><time>2026-04-11T15:21:19.674Z</time></trkpt><trkpt lat="38.9000947" lon="16.5340408"><ele>118.0</ele><time>2026-04-11T15:21:20.674Z</time></trkpt><trkpt lat="38.9001617" lon="16.5341263"><ele>118.0</ele><time>2026-04-11T15:21:21.675Z</time></trkpt><trkpt lat="38.900258" lon="16.5341797"><ele>118.0</ele><time>2026-04-11T15:21:22.674Z</time></trkpt><trkpt lat="38.9003726" lon="16.5342234"><ele>118.0</ele><time>2026-04-11T15:21:23.675Z</time></trkpt><trkpt lat="38.9004934" lon="16.5342644"><ele>118.0</ele><time>2026-04-11T15:21:24.674Z</time></trkpt><trkpt lat="38.9006184" lon="16.5343226"><ele>118.0</ele><time>2026-04-11T15:21:25.674Z</time></trkpt><trkpt lat="38.900745" lon="16.534377"><ele>118.0</ele><time>2026-04-11T15:21:26.675Z</time></trkpt><trkpt lat="38.9008675" lon="16.5344286"><ele>118.0</ele><time>2026-04-11T15:21:27.674Z</time></trkpt><trkpt lat="38.9009812" lon="16.5344757"><ele>118.0</ele><time>2026-04-11T15:21:28.675Z</time></trkpt><trkpt lat="38.9010769" lon="16.5345039"><ele>118.2</ele><time>2026-04-11T15:21:29.675Z</time></trkpt><trkpt lat="38.9011697" lon="16.5344989"><ele>118.4</ele><time>2026-04-11T15:21:30.674Z</time></trkpt><trkpt lat="38.9012629" lon="16.5344505"><ele>118.60000000000001</ele><time>2026-04-11T15:21:31.674Z</time></trkpt><trkpt lat="38.9013301" lon="16.5343631"><ele>118.80000000000001</ele><time>2026-04-11T15:21:32.674Z</time></trkpt><trkpt lat="38.9013853" lon="16.5342524"><ele>119.0</ele><time>2026-04-11T15:21:33.674Z</time></trkpt><trkpt lat="38.9014191" lon="16.5341285"><ele>119.0</ele><time>2026-04-11T15:21:34.675Z</time></trkpt><trkpt lat="38.9014258" lon="16.5339807"><ele>119.0</ele><time>2026-04-11T15:21:35.674Z</time></trkpt><trkpt lat="38.9014078" lon="16.5338406"><ele>119.0</ele><time>2026-04-11T15:21:36.674Z</time></trkpt><trkpt lat="38.9013813" lon="16.5337273"><ele>119.0</ele><time>2026-04-11T15:21:37.674Z</time></trkpt><trkpt lat="38.9013745" lon="16.5336235"><ele>119.0</ele><time>2026-04-11T15:21:38.674Z</time></trkpt><trkpt lat="38.9013953" lon="16.5335251"><ele>121.6</ele><time>2026-04-11T15:21:39.675Z</time></trkpt><trkpt lat="38.9014421" lon="16.533431"><ele>124.2</ele><time>2026-04-11T15:21:40.674Z</time></trkpt><trkpt lat="38.9015163" lon="16.53335"><ele>126.79999999999998</ele><time>2026-04-11T15:21:41.674Z</time></trkpt><trkpt lat="38.9016079" lon="16.5332665"><ele>129.4</ele><time>2026-04-11T15:21:42.674Z</time></trkpt><trkpt lat="38.9017007" lon="16.5331873"><ele>132.0</ele><time>2026-04-11T15:21:43.674Z</time></trkpt><trkpt lat="38.9017966" lon="16.5331048"><ele>136.75</ele><time>2026-04-11T15:21:44.674Z</time></trkpt><trkpt lat="38.9018939" lon="16.5330171"><ele>141.5</ele><time>2026-04-11T15:21:45.674Z</time></trkpt><trkpt lat="38.9019966" lon="16.532939"><ele>146.25</ele><time>2026-04-11T15:21:46.674Z</time></trkpt><trkpt lat="38.9021026" lon="16.5328643"><ele>151.0</ele><time>2026-04-11T15:21:47.674Z</time></trkpt><trkpt lat="38.9022083" lon="16.5327991"><ele>151.0</ele><time>2026-04-11T15:21:48.674Z</time></trkpt><trkpt lat="38.9023028" lon="16.5327328"><ele>151.0</ele><time>2026-04-11T15:21:49.674Z</time></trkpt><trkpt lat="38.9023897" lon="16.5326549"><ele>151.0</ele><time>2026-04-11T15:21:50.674Z</time></trkpt><trkpt lat="38.9024691" lon="16.5325631"><ele>151.0</ele><time>2026-04-11T15:21:51.675Z</time></trkpt><trkpt lat="38.9025471" lon="16.5324748"><ele>151.0</ele><time>2026-04-11T15:21:52.674Z</time></trkpt><trkpt lat="38.9026233" lon="16.5323796"><ele>154.0</ele><time>2026-04-11T15:21:53.674Z</time></trkpt><trkpt lat="38.9027011" lon="16.5323088"><ele>157.0</ele><time>2026-04-11T15:21:54.675Z</time></trkpt><trkpt lat="38.9027917" lon="16.5322575"><ele>160.0</ele><time>2026-04-11T15:21:55.674Z</time></trkpt><trkpt lat="38.9028825" lon="16.5322019"><ele>163.0</ele><time>2026-04-11T15:21:56.675Z</time></trkpt><trkpt lat="38.9029775" lon="16.5321704"><ele>166.0</ele><time>2026-04-11T15:21:57.674Z</time></trkpt><trkpt lat="38.9030755" lon="16.5321374"><ele>166.0</ele><time>2026-04-11T15:21:58.674Z</time></trkpt><trkpt lat="38.9031758" lon="16.532118"><ele>166.0</ele><time>2026-04-11T15:21:59.674Z</time></trkpt><trkpt lat="38.9032745" lon="16.5321071"><ele>166.0</ele><time>2026-04-11T15:22:00.674Z</time></trkpt><trkpt lat="38.9033633" lon="16.5320764"><ele>166.0</ele><time>2026-04-11T15:22:01.674Z</time></trkpt><trkpt lat="38.9034371" lon="16.5320036"><ele>166.0</ele><time>2026-04-11T15:22:02.674Z</time></trkpt><trkpt lat="38.9035058" lon="16.5319362"><ele>166.33333333333334</ele><time>2026-04-11T15:22:03.675Z</time></trkpt><trkpt lat="38.9035601" lon="16.5318852"><ele>166.66666666666669</ele><time>2026-04-11T15:22:04.675Z</time></trkpt><trkpt lat="38.9036415" lon="16.5318871"><ele>167.0</ele><time>2026-04-11T15:22:06.674Z</time></trkpt><trkpt lat="38.9036327" lon="16.5319712"><ele>167.33333333333334</ele><time>2026-04-11T15:22:08.675Z</time></trkpt><trkpt lat="38.9035759" lon="16.532034"><ele>167.66666666666666</ele><time>2026-04-11T15:22:09.674Z</time></trkpt><trkpt lat="38.903499" lon="16.5321085"><ele>168.0</ele><time>2026-04-11T15:22:10.675Z</time></trkpt><trkpt lat="38.9034224" lon="16.5321907"><ele>167.60000000000002</ele><time>2026-04-11T15:22:11.674Z</time></trkpt><trkpt lat="38.9033471" lon="16.5322779"><ele>167.20000000000002</ele><time>2026-04-11T15:22:12.674Z</time></trkpt><trkpt lat="38.9032727" lon="16.5323588"><ele>166.8</ele><time>2026-04-11T15:22:13.674Z</time></trkpt><trkpt lat="38.9032022" lon="16.5324225"><ele>166.4</ele><time>2026-04-11T15:22:14.674Z</time></trkpt><trkpt lat="38.9031266" lon="16.5324676"><ele>166.0</ele><time>2026-04-11T15:22:15.674Z</time></trkpt><trkpt lat="38.9030469" lon="16.5325013"><ele>166.0</ele><time>2026-04-11T15:22:16.674Z</time></trkpt><trkpt lat="38.902969" lon="16.5325279"><ele>166.0</ele><time>2026-04-11T15:22:17.674Z</time></trkpt><trkpt lat="38.9028894" lon="16.5325752"><ele>166.0</ele><time>2026-04-11T15:22:18.674Z</time></trkpt><trkpt lat="38.9028223" lon="16.5326464"><ele>166.0</ele><time>2026-04-11T15:22:19.674Z</time></trkpt><trkpt lat="38.9027848" lon="16.5327286"><ele>166.0</ele><time>2026-04-11T15:22:20.675Z</time></trkpt><trkpt lat="38.9027903" lon="16.5328166"><ele>166.0</ele><time>2026-04-11T15:22:21.675Z</time></trkpt><trkpt lat="38.9028302" lon="16.5328906"><ele>166.0</ele><time>2026-04-11T15:22:22.675Z</time></trkpt><trkpt lat="38.9029114" lon="16.5329194"><ele>166.0</ele><time>2026-04-11T15:22:23.674Z</time></trkpt><trkpt lat="38.9030215" lon="16.5329062"><ele>166.0</ele><time>2026-04-11T15:22:24.674Z</time></trkpt><trkpt lat="38.9031397" lon="16.5328752"><ele>166.0</ele><time>2026-04-11T15:22:25.675Z</time></trkpt><trkpt lat="38.9032567" lon="16.5328408"><ele>166.0</ele><time>2026-04-11T15:22:26.674Z</time></trkpt><trkpt lat="38.9033796" lon="16.5328299"><ele>168.4</ele><time>2026-04-11T15:22:27.675Z</time></trkpt><trkpt lat="38.9034944" lon="16.5328352"><ele>170.8</ele><time>2026-04-11T15:22:28.675Z</time></trkpt><trkpt lat="38.9036067" lon="16.532853"><ele>173.20000000000002</ele><time>2026-04-11T15:22:29.674Z</time></trkpt><trkpt lat="38.9037095" lon="16.5328709"><ele>175.60000000000002</ele><time>2026-04-11T15:22:30.674Z</time></trkpt><trkpt lat="38.9038126" lon="16.5328652"><ele>178.0</ele><time>2026-04-11T15:22:31.675Z</time></trkpt><trkpt lat="38.9039074" lon="16.532824"><ele>178.0</ele><time>2026-04-11T15:22:32.674Z</time></trkpt><trkpt lat="38.9040021" lon="16.5327556"><ele>178.0</ele><time>2026-04-11T15:22:33.674Z</time></trkpt><trkpt lat="38.9040935" lon="16.532675"><ele>178.0</ele><time>2026-04-11T15:22:34.674Z</time></trkpt><trkpt lat="38.9041769" lon="16.5325891"><ele>178.0</ele><time>2026-04-11T15:22:35.674Z</time></trkpt><trkpt lat="38.9042646" lon="16.5324878"><ele>178.0</ele><time>2026-04-11T15:22:36.674Z</time></trkpt><trkpt lat="38.9043397" lon="16.5323925"><ele>179.83333333333334</ele><time>2026-04-11T15:22:37.674Z</time></trkpt><trkpt lat="38.904405" lon="16.5322908"><ele>181.66666666666669</ele><time>2026-04-11T15:22:38.674Z</time></trkpt><trkpt lat="38.9044609" lon="16.5321981"><ele>183.5</ele><time>2026-04-11T15:22:39.674Z</time></trkpt><trkpt lat="38.9045246" lon="16.5321395"><ele>185.33333333333334</ele><time>2026-04-11T15:22:40.674Z</time></trkpt><trkpt lat="38.9045948" lon="16.5321213"><ele>187.16666666666666</ele><time>2026-04-11T15:22:41.675Z</time></trkpt><trkpt lat="38.9046672" lon="16.5321231"><ele>189.0</ele><time>2026-04-11T15:22:42.675Z</time></trkpt><trkpt lat="38.9047369" lon="16.5321048"><ele>190.0</ele><time>2026-04-11T15:22:43.674Z</time></trkpt><trkpt lat="38.9048" lon="16.5320434"><ele>191.0</ele><time>2026-04-11T15:22:44.675Z</time></trkpt><trkpt lat="38.9048469" lon="16.5319497"><ele>192.0</ele><time>2026-04-11T15:22:45.674Z</time></trkpt><trkpt lat="38.9048916" lon="16.5318537"><ele>193.0</ele><time>2026-04-11T15:22:46.674Z</time></trkpt><trkpt lat="38.9049462" lon="16.531804"><ele>194.0</ele><time>2026-04-11T15:22:47.674Z</time></trkpt><trkpt lat="38.905055" lon="16.5318014"><ele>195.0</ele><time>2026-04-11T15:22:49.674Z</time></trkpt><trkpt lat="38.9050524" lon="16.531954"><ele>195.6</ele><time>2026-04-11T15:22:51.674Z</time></trkpt><trkpt lat="38.9050077" lon="16.5320606"><ele>196.2</ele><time>2026-04-11T15:22:52.674Z</time></trkpt><trkpt lat="38.9049814" lon="16.5321671"><ele>196.8</ele><time>2026-04-11T15:22:53.675Z</time></trkpt><trkpt lat="38.9050427" lon="16.5322505"><ele>197.4</ele><time>2026-04-11T15:22:55.674Z</time></trkpt><trkpt lat="38.905154" lon="16.5321484"><ele>198.0</ele><time>2026-04-11T15:22:57.674Z</time></trkpt><trkpt lat="38.9051984" lon="16.5320488"><ele>197.5</ele><time>2026-04-11T15:22:58.674Z</time></trkpt><trkpt lat="38.905221" lon="16.5319481"><ele>197.0</ele><time>2026-04-11T15:22:59.675Z</time></trkpt><trkpt lat="38.9052173" lon="16.531838"><ele>196.5</ele><time>2026-04-11T15:23:00.675Z</time></trkpt><trkpt lat="38.9051757" lon="16.5317273"><ele>196.0</ele><time>2026-04-11T15:23:01.674Z</time></trkpt><trkpt lat="38.9051186" lon="16.5316235"><ele>195.5</ele><time>2026-04-11T15:23:02.674Z</time></trkpt><trkpt lat="38.9050672" lon="16.5315371"><ele>195.0</ele><time>2026-04-11T15:23:03.674Z</time></trkpt><trkpt lat="38.9050412" lon="16.531452"><ele>195.0</ele><time>2026-04-11T15:23:04.675Z</time></trkpt><trkpt lat="38.9050436" lon="16.5313701"><ele>195.0</ele><time>2026-04-11T15:23:05.674Z</time></trkpt><trkpt lat="38.9050797" lon="16.531288"><ele>195.0</ele><time>2026-04-11T15:23:06.674Z</time></trkpt><trkpt lat="38.9051536" lon="16.5312226"><ele>195.0</ele><time>2026-04-11T15:23:07.675Z</time></trkpt><trkpt lat="38.9052436" lon="16.5311958"><ele>195.0</ele><time>2026-04-11T15:23:08.674Z</time></trkpt><trkpt lat="38.9053288" lon="16.5311806"><ele>195.0</ele><time>2026-04-11T15:23:09.674Z</time></trkpt><trkpt lat="38.9054076" lon="16.531192"><ele>198.8</ele><time>2026-04-11T15:23:10.675Z</time></trkpt><trkpt lat="38.9054809" lon="16.53123"><ele>202.6</ele><time>2026-04-11T15:23:11.675Z</time></trkpt><trkpt lat="38.9055549" lon="16.5312985"><ele>206.39999999999998</ele><time>2026-04-11T15:23:12.675Z</time></trkpt><trkpt lat="38.9056405" lon="16.5313707"><ele>210.2</ele><time>2026-04-11T15:23:13.675Z</time></trkpt><trkpt lat="38.905728" lon="16.5314418"><ele>214.0</ele><time>2026-04-11T15:23:14.674Z</time></trkpt><trkpt lat="38.9058242" lon="16.5315013"><ele>215.6</ele><time>2026-04-11T15:23:15.674Z</time></trkpt><trkpt lat="38.9059212" lon="16.5315466"><ele>217.2</ele><time>2026-04-11T15:23:16.675Z</time></trkpt><trkpt lat="38.9060246" lon="16.5315761"><ele>218.79999999999998</ele><time>2026-04-11T15:23:17.675Z</time></trkpt><trkpt lat="38.9061245" lon="16.5315848"><ele>220.39999999999998</ele><time>2026-04-11T15:23:18.674Z</time></trkpt><trkpt lat="38.9062095" lon="16.5315783"><ele>222.0</ele><time>2026-04-11T15:23:19.674Z</time></trkpt><trkpt lat="38.9062829" lon="16.5315671"><ele>222.0</ele><time>2026-04-11T15:23:20.674Z</time></trkpt><trkpt lat="38.9063553" lon="16.5315436"><ele>222.0</ele><time>2026-04-11T15:23:21.675Z</time></trkpt><trkpt lat="38.9064364" lon="16.5315236"><ele>222.0</ele><time>2026-04-11T15:23:22.674Z</time></trkpt><trkpt lat="38.9065201" lon="16.5315009"><ele>222.0</ele><time>2026-04-11T15:23:23.675Z</time></trkpt><trkpt lat="38.906614" lon="16.5314718"><ele>222.0</ele><time>2026-04-11T15:23:24.675Z</time></trkpt><trkpt lat="38.9067325" lon="16.5314401"><ele>223.75</ele><time>2026-04-11T15:23:25.674Z</time></trkpt><trkpt lat="38.906868" lon="16.5314033"><ele>225.5</ele><time>2026-04-11T15:23:26.674Z</time></trkpt><trkpt lat="38.9070028" lon="16.5313592"><ele>227.25</ele><time>2026-04-11T15:23:27.674Z</time></trkpt><trkpt lat="38.907123" lon="16.5313225"><ele>229.0</ele><time>2026-04-11T15:23:28.675Z</time></trkpt><trkpt lat="38.9072314" lon="16.5312655"><ele>226.5</ele><time>2026-04-11T15:23:29.674Z</time></trkpt><trkpt lat="38.9073239" lon="16.5311695"><ele>224.0</ele><time>2026-04-11T15:23:30.674Z</time></trkpt><trkpt lat="38.9074088" lon="16.5310277"><ele>221.5</ele><time>2026-04-11T15:23:31.674Z</time></trkpt><trkpt lat="38.9074802" lon="16.5308746"><ele>219.0</ele><time>2026-04-11T15:23:32.675Z</time></trkpt><trkpt lat="38.9075367" lon="16.5307468"><ele>223.39999999999998</ele><time>2026-04-11T15:23:33.674Z</time></trkpt><trkpt lat="38.9075959" lon="16.5306461"><ele>227.79999999999998</ele><time>2026-04-11T15:23:34.674Z</time></trkpt><trkpt lat="38.9076585" lon="16.5306093"><ele>232.20000000000002</ele><time>2026-04-11T15:23:35.674Z</time></trkpt><trkpt lat="38.9077557" lon="16.53065"><ele>236.60000000000002</ele><time>2026-04-11T15:23:37.675Z</time></trkpt><trkpt lat="38.9077265" lon="16.5308512"><ele>241.0</ele><time>2026-04-11T15:23:39.674Z</time></trkpt><trkpt lat="38.907644" lon="16.53102"><ele>237.0</ele><time>2026-04-11T15:23:40.674Z</time></trkpt><trkpt lat="38.9074919" lon="16.5312066"><ele>233.0</ele><time>2026-04-11T15:23:41.674Z</time></trkpt><trkpt lat="38.9073218" lon="16.5313607"><ele>229.0</ele><time>2026-04-11T15:23:42.675Z</time></trkpt><trkpt lat="38.9071787" lon="16.5314818"><ele>229.0</ele><time>2026-04-11T15:23:43.675Z</time></trkpt><trkpt lat="38.9070842" lon="16.5315675"><ele>228.99999999999997</ele><time>2026-04-11T15:23:44.675Z</time></trkpt><trkpt lat="38.9070218" lon="16.5316506"><ele>228.99999999999997</ele><time>2026-04-11T15:23:45.674Z</time></trkpt><trkpt lat="38.9070113" lon="16.5317575"><ele>229.0</ele><time>2026-04-11T15:23:46.675Z</time></trkpt><trkpt lat="38.9070564" lon="16.5318674"><ele>229.0</ele><time>2026-04-11T15:23:47.675Z</time></trkpt><trkpt lat="38.9071245" lon="16.5319373"><ele>229.0</ele><time>2026-04-11T15:23:48.674Z</time></trkpt><trkpt lat="38.9072022" lon="16.5319641"><ele>229.0</ele><time>2026-04-11T15:23:49.675Z</time></trkpt><trkpt lat="38.9073072" lon="16.5319563"><ele>229.0</ele><time>2026-04-11T15:23:50.675Z</time></trkpt><trkpt lat="38.907435" lon="16.5319338"><ele>229.0</ele><time>2026-04-11T15:23:51.675Z</time></trkpt><trkpt lat="38.9075824" lon="16.5318945"><ele>231.0</ele><time>2026-04-11T15:23:52.675Z</time></trkpt><trkpt lat="38.9077312" lon="16.5318407"><ele>233.0</ele><time>2026-04-11T15:23:53.674Z</time></trkpt><trkpt lat="38.9078679" lon="16.5317898"><ele>235.0</ele><time>2026-04-11T15:23:54.674Z</time></trkpt><trkpt lat="38.908003" lon="16.5317368"><ele>237.0</ele><time>2026-04-11T15:23:55.674Z</time></trkpt><trkpt lat="38.9081439" lon="16.5316773"><ele>237.0</ele><time>2026-04-11T15:23:56.675Z</time></trkpt><trkpt lat="38.9082822" lon="16.5316614"><ele>237.0</ele><time>2026-04-11T15:23:57.674Z</time></trkpt><trkpt lat="38.9084251" lon="16.5316643"><ele>237.0</ele><time>2026-04-11T15:23:58.674Z</time></trkpt><trkpt lat="38.9085838" lon="16.5316814"><ele>237.0</ele><time>2026-04-11T15:23:59.674Z</time></trkpt><trkpt lat="38.9087411" lon="16.531697"><ele>241.66666666666669</ele><time>2026-04-11T15:24:00.675Z</time></trkpt><trkpt lat="38.9089025" lon="16.531704"><ele>246.33333333333334</ele><time>2026-04-11T15:24:01.674Z</time></trkpt><trkpt lat="38.9090615" lon="16.5317051"><ele>251.0</ele><time>2026-04-11T15:24:02.674Z</time></trkpt><trkpt lat="38.9092091" lon="16.5317226"><ele>252.0</ele><time>2026-04-11T15:24:03.674Z</time></trkpt><trkpt lat="38.9093533" lon="16.5317403"><ele>253.0</ele><time>2026-04-11T15:24:04.674Z</time></trkpt><trkpt lat="38.9094887" lon="16.5317699"><ele>254.0</ele><time>2026-04-11T15:24:05.674Z</time></trkpt><trkpt lat="38.9096336" lon="16.5318014"><ele>255.0</ele><time>2026-04-11T15:24:06.675Z</time></trkpt><trkpt lat="38.9097896" lon="16.5318538"><ele>255.0</ele><time>2026-04-11T15:24:07.675Z</time></trkpt><trkpt lat="38.9099442" lon="16.5319155"><ele>255.0</ele><time>2026-04-11T15:24:08.674Z</time></trkpt><trkpt lat="38.9100948" lon="16.5319811"><ele>255.0</ele><time>2026-04-11T15:24:09.675Z</time></trkpt><trkpt lat="38.9102313" lon="16.5320259"><ele>257.6</ele><time>2026-04-11T15:24:10.674Z</time></trkpt><trkpt lat="38.9103502" lon="16.5320705"><ele>260.2</ele><time>2026-04-11T15:24:11.675Z</time></trkpt><trkpt lat="38.9104507" lon="16.532117"><ele>262.8</ele><time>2026-04-11T15:24:12.674Z</time></trkpt><trkpt lat="38.9105204" lon="16.5321771"><ele>265.4</ele><time>2026-04-11T15:24:13.674Z</time></trkpt><trkpt lat="38.9105697" lon="16.5322565"><ele>268.0</ele><time>2026-04-11T15:24:14.674Z</time></trkpt><trkpt lat="38.9106034" lon="16.5323533"><ele>268.0</ele><time>2026-04-11T15:24:15.675Z</time></trkpt><trkpt lat="38.9106214" lon="16.5324647"><ele>268.0</ele><time>2026-04-11T15:24:16.674Z</time></trkpt><trkpt lat="38.9106149" lon="16.5325711"><ele>268.0</ele><time>2026-04-11T15:24:17.674Z</time></trkpt><trkpt lat="38.9105799" lon="16.5326929"><ele>268.0</ele><time>2026-04-11T15:24:18.674Z</time></trkpt><trkpt lat="38.9105179" lon="16.5328124"><ele>268.0</ele><time>2026-04-11T15:24:19.675Z</time></trkpt><trkpt lat="38.9104256" lon="16.5329282"><ele>268.5</ele><time>2026-04-11T15:24:20.674Z</time></trkpt><trkpt lat="38.9103091" lon="16.5330033"><ele>269.0</ele><time>2026-04-11T15:24:21.675Z</time></trkpt><trkpt lat="38.9101845" lon="16.533037"><ele>269.5</ele><time>2026-04-11T15:24:22.674Z</time></trkpt><trkpt lat="38.9100511" lon="16.5330672"><ele>270.0</ele><time>2026-04-11T15:24:23.675Z</time></trkpt><trkpt lat="38.9099214" lon="16.5331146"><ele>270.0</ele><time>2026-04-11T15:24:24.674Z</time></trkpt><trkpt lat="38.9098066" lon="16.533196"><ele>270.0</ele><time>2026-04-11T15:24:25.674Z</time></trkpt><trkpt lat="38.9097178" lon="16.5333044"><ele>270.0</ele><time>2026-04-11T15:24:26.675Z</time></trkpt><trkpt lat="38.909671" lon="16.5334269"><ele>270.0</ele><time>2026-04-11T15:24:27.675Z</time></trkpt><trkpt lat="38.9096671" lon="16.5335663"><ele>270.0</ele><time>2026-04-11T15:24:28.675Z</time></trkpt><trkpt lat="38.9096879" lon="16.5337138"><ele>270.0</ele><time>2026-04-11T15:24:29.675Z</time></trkpt><trkpt lat="38.909738" lon="16.5338519"><ele>270.0</ele><time>2026-04-11T15:24:30.675Z</time></trkpt><trkpt lat="38.9098094" lon="16.533975"><ele>270.0</ele><time>2026-04-11T15:24:31.675Z</time></trkpt><trkpt lat="38.9098829" lon="16.5340841"><ele>271.75</ele><time>2026-04-11T15:24:32.675Z</time></trkpt><trkpt lat="38.9099725" lon="16.5341714"><ele>273.5</ele><time>2026-04-11T15:24:33.674Z</time></trkpt><trkpt lat="38.9100792" lon="16.5342284"><ele>275.25</ele><time>2026-04-11T15:24:34.675Z</time></trkpt><trkpt lat="38.9102002" lon="16.534246"><ele>277.0</ele><time>2026-04-11T15:24:35.674Z</time></trkpt><trkpt lat="38.9103236" lon="16.5342388"><ele>278.25</ele><time>2026-04-11T15:24:36.674Z</time></trkpt><trkpt lat="38.9104449" lon="16.5342342"><ele>279.5</ele><time>2026-04-11T15:24:37.675Z</time></trkpt><trkpt lat="38.9105604" lon="16.5342238"><ele>280.75</ele><time>2026-04-11T15:24:38.675Z</time></trkpt><trkpt lat="38.9106698" lon="16.5342222"><ele>282.0</ele><time>2026-04-11T15:24:39.675Z</time></trkpt><trkpt lat="38.9107788" lon="16.5342641"><ele>282.0</ele><time>2026-04-11T15:24:40.674Z</time></trkpt><trkpt lat="38.9108756" lon="16.5343457"><ele>282.0</ele><time>2026-04-11T15:24:41.674Z</time></trkpt><trkpt lat="38.9109535" lon="16.5344616"><ele>282.0</ele><time>2026-04-11T15:24:42.674Z</time></trkpt><trkpt lat="38.9110092" lon="16.5345967"><ele>282.0</ele><time>2026-04-11T15:24:43.674Z</time></trkpt><trkpt lat="38.9110603" lon="16.5347318"><ele>285.0</ele><time>2026-04-11T15:24:44.674Z</time></trkpt><trkpt lat="38.9111118" lon="16.5348482"><ele>288.0</ele><time>2026-04-11T15:24:45.674Z</time></trkpt><trkpt lat="38.9111735" lon="16.5349739"><ele>291.0</ele><time>2026-04-11T15:24:46.675Z</time></trkpt><trkpt lat="38.9112286" lon="16.5351015"><ele>294.0</ele><time>2026-04-11T15:24:47.674Z</time></trkpt><trkpt lat="38.9112736" lon="16.5352394"><ele>293.59999999999997</ele><time>2026-04-11T15:24:48.674Z</time></trkpt><trkpt lat="38.9113086" lon="16.5353891"><ele>293.2</ele><time>2026-04-11T15:24:49.675Z</time></trkpt><trkpt lat="38.9113452" lon="16.535518"><ele>292.79999999999995</ele><time>2026-04-11T15:24:50.674Z</time></trkpt><trkpt lat="38.9113879" lon="16.5356309"><ele>292.4</ele><time>2026-04-11T15:24:51.674Z</time></trkpt><trkpt lat="38.9114435" lon="16.5357155"><ele>292.0</ele><time>2026-04-11T15:24:52.674Z</time></trkpt><trkpt lat="38.9115065" lon="16.5357773"><ele>292.0</ele><time>2026-04-11T15:24:53.674Z</time></trkpt><trkpt lat="38.9116051" lon="16.5358155"><ele>292.0</ele><time>2026-04-11T15:24:55.674Z</time></trkpt><trkpt lat="38.9116645" lon="16.5357338"><ele>292.0</ele><time>2026-04-11T15:25:22.675Z</time></trkpt><trkpt lat="38.9116852" lon="16.5356185"><ele>292.0</ele><time>2026-04-11T15:25:24.675Z</time></trkpt><trkpt lat="38.9116564" lon="16.5354694"><ele>292.0</ele><time>2026-04-11T15:25:26.674Z</time></trkpt><trkpt lat="38.9116294" lon="16.5353681"><ele>292.4</ele><time>2026-04-11T15:25:27.674Z</time></trkpt><trkpt lat="38.9116007" lon="16.5352544"><ele>292.79999999999995</ele><time>2026-04-11T15:25:28.674Z</time></trkpt><trkpt lat="38.9115766" lon="16.5351293"><ele>293.2</ele><time>2026-04-11T15:25:29.675Z</time></trkpt><trkpt lat="38.9115595" lon="16.5349988"><ele>293.59999999999997</ele><time>2026-04-11T15:25:30.675Z</time></trkpt><trkpt lat="38.9115496" lon="16.5348662"><ele>294.0</ele><time>2026-04-11T15:25:31.674Z</time></trkpt><trkpt lat="38.9115449" lon="16.534737"><ele>294.0</ele><time>2026-04-11T15:25:32.674Z</time></trkpt><trkpt lat="38.9115464" lon="16.5346052"><ele>294.0</ele><time>2026-04-11T15:25:33.674Z</time></trkpt><trkpt lat="38.9115528" lon="16.5344661"><ele>294.0</ele><time>2026-04-11T15:25:34.675Z</time></trkpt><trkpt lat="38.9115705" lon="16.534333"><ele>294.0</ele><time>2026-04-11T15:25:35.674Z</time></trkpt><trkpt lat="38.9115946" lon="16.5342057"><ele>294.0</ele><time>2026-04-11T15:25:36.674Z</time></trkpt><trkpt lat="38.9116291" lon="16.5340858"><ele>294.2</ele><time>2026-04-11T15:25:37.675Z</time></trkpt><trkpt lat="38.9116694" lon="16.5339636"><ele>294.4</ele><time>2026-04-11T15:25:38.675Z</time></trkpt><trkpt lat="38.9117221" lon="16.5338528"><ele>294.6</ele><time>2026-04-11T15:25:39.675Z</time></trkpt><trkpt lat="38.9117884" lon="16.5337449"><ele>294.8</ele><time>2026-04-11T15:25:40.674Z</time></trkpt><trkpt lat="38.9118679" lon="16.533657"><ele>295.0</ele><time>2026-04-11T15:25:41.674Z</time></trkpt><trkpt lat="38.9119652" lon="16.5335898"><ele>295.75</ele><time>2026-04-11T15:25:42.674Z</time></trkpt><trkpt lat="38.9120695" lon="16.5335329"><ele>296.5</ele><time>2026-04-11T15:25:43.675Z</time></trkpt><trkpt lat="38.9121804" lon="16.5335017"><ele>297.25</ele><time>2026-04-11T15:25:44.675Z</time></trkpt><trkpt lat="38.9122932" lon="16.5334754"><ele>298.0</ele><time>2026-04-11T15:25:45.674Z</time></trkpt><trkpt lat="38.9124051" lon="16.5334276"><ele>298.0</ele><time>2026-04-11T15:25:46.675Z</time></trkpt><trkpt lat="38.9125048" lon="16.533365"><ele>298.0</ele><time>2026-04-11T15:25:47.674Z</time></trkpt><trkpt lat="38.9125904" lon="16.5332675"><ele>298.0</ele><time>2026-04-11T15:25:48.674Z</time></trkpt><trkpt lat="38.912663" lon="16.5331304"><ele>298.0</ele><time>2026-04-11T15:25:49.674Z</time></trkpt><trkpt lat="38.9127351" lon="16.5329785"><ele>297.75</ele><time>2026-04-11T15:25:50.674Z</time></trkpt><trkpt lat="38.912814" lon="16.5328312"><ele>297.5</ele><time>2026-04-11T15:25:51.674Z</time></trkpt><trkpt lat="38.912888" lon="16.532678"><ele>297.25</ele><time>2026-04-11T15:25:52.674Z</time></trkpt><trkpt lat="38.9129711" lon="16.5325152"><ele>297.0</ele><time>2026-04-11T15:25:53.674Z</time></trkpt><trkpt lat="38.9130592" lon="16.5323518"><ele>297.0</ele><time>2026-04-11T15:25:54.675Z</time></trkpt><trkpt lat="38.9131519" lon="16.5322007"><ele>297.0</ele><time>2026-04-11T15:25:55.675Z</time></trkpt><trkpt lat="38.9132458" lon="16.5320419"><ele>297.0</ele><time>2026-04-11T15:25:56.674Z</time></trkpt><trkpt lat="38.9133445" lon="16.5318927"><ele>292.3333333333333</ele><time>2026-04-11T15:25:57.674Z</time></trkpt><trkpt lat="38.9134547" lon="16.5317331"><ele>287.66666666666663</ele><time>2026-04-11T15:25:58.674Z</time></trkpt><trkpt lat="38.9135666" lon="16.5315817"><ele>283.0</ele><time>2026-04-11T15:25:59.675Z</time></trkpt><trkpt lat="38.9136733" lon="16.5314449"><ele>283.0</ele><time>2026-04-11T15:26:00.674Z</time></trkpt><trkpt lat="38.913785" lon="16.531305"><ele>283.0</ele><time>2026-04-11T15:26:01.674Z</time></trkpt><trkpt lat="38.9138919" lon="16.5311608"><ele>283.0</ele><time>2026-04-11T15:26:02.674Z</time></trkpt><trkpt lat="38.9140056" lon="16.5310075"><ele>280.5</ele><time>2026-04-11T15:26:03.675Z</time></trkpt><trkpt lat="38.9141122" lon="16.5308624"><ele>278.0</ele><time>2026-04-11T15:26:04.675Z</time></trkpt><trkpt lat="38.9142064" lon="16.5307372"><ele>275.5</ele><time>2026-04-11T15:26:05.674Z</time></trkpt><trkpt lat="38.9142837" lon="16.5306067"><ele>273.0</ele><time>2026-04-11T15:26:06.675Z</time></trkpt><trkpt lat="38.914339" lon="16.5304715"><ele>276.5</ele><time>2026-04-11T15:26:07.675Z</time></trkpt><trkpt lat="38.9143549" lon="16.5303204"><ele>280.0</ele><time>2026-04-11T15:26:08.675Z</time></trkpt><trkpt lat="38.9143391" lon="16.5301679"><ele>283.5</ele><time>2026-04-11T15:26:09.674Z</time></trkpt><trkpt lat="38.9142792" lon="16.5300203"><ele>287.0</ele><time>2026-04-11T15:26:10.674Z</time></trkpt><trkpt lat="38.9141943" lon="16.5298849"><ele>293.6666666666667</ele><time>2026-04-11T15:26:11.674Z</time></trkpt><trkpt lat="38.9140821" lon="16.5297655"><ele>300.3333333333333</ele><time>2026-04-11T15:26:12.674Z</time></trkpt><trkpt lat="38.913949" lon="16.5296671"><ele>307.0</ele><time>2026-04-11T15:26:13.674Z</time></trkpt><trkpt lat="38.9138118" lon="16.529583"><ele>309.3333333333333</ele><time>2026-04-11T15:26:14.675Z</time></trkpt><trkpt lat="38.9136673" lon="16.529508"><ele>311.6666666666667</ele><time>2026-04-11T15:26:15.674Z</time></trkpt><trkpt lat="38.9135173" lon="16.5294483"><ele>314.0</ele><time>2026-04-11T15:26:16.675Z</time></trkpt><trkpt lat="38.9133778" lon="16.5294016"><ele>314.0</ele><time>2026-04-11T15:26:17.675Z</time></trkpt><trkpt lat="38.9132414" lon="16.5293671"><ele>314.0</ele><time>2026-04-11T15:26:18.675Z</time></trkpt><trkpt lat="38.9131139" lon="16.5293315"><ele>314.0</ele><time>2026-04-11T15:26:19.675Z</time></trkpt><trkpt lat="38.9130066" lon="16.5292849"><ele>314.0</ele><time>2026-04-11T15:26:20.674Z</time></trkpt><trkpt lat="38.9129332" lon="16.5292123"><ele>314.0</ele><time>2026-04-11T15:26:21.674Z</time></trkpt><trkpt lat="38.9129029" lon="16.5291254"><ele>314.0</ele><time>2026-04-11T15:26:22.674Z</time></trkpt><trkpt lat="38.9129086" lon="16.5290287"><ele>314.0</ele><time>2026-04-11T15:26:23.674Z</time></trkpt><trkpt lat="38.9129579" lon="16.5289356"><ele>314.0</ele><time>2026-04-11T15:26:24.675Z</time></trkpt><trkpt lat="38.9130533" lon="16.5288464"><ele>314.0</ele><time>2026-04-11T15:26:25.674Z</time></trkpt><trkpt lat="38.913172" lon="16.528764"><ele>314.33333333333337</ele><time>2026-04-11T15:26:26.674Z</time></trkpt><trkpt lat="38.9133048" lon="16.5286649"><ele>314.6666666666667</ele><time>2026-04-11T15:26:27.675Z</time></trkpt><trkpt lat="38.913457" lon="16.528527"><ele>315.0</ele><time>2026-04-11T15:26:28.675Z</time></trkpt><trkpt lat="38.9135784" lon="16.5283646"><ele>318.0</ele><time>2026-04-11T15:26:29.674Z</time></trkpt><trkpt lat="38.9136472" lon="16.5281721"><ele>321.0</ele><time>2026-04-11T15:26:30.675Z</time></trkpt><trkpt lat="38.9136826" lon="16.527973"><ele>324.0</ele><time>2026-04-11T15:26:31.674Z</time></trkpt><trkpt lat="38.9137156" lon="16.5277733"><ele>324.0</ele><time>2026-04-11T15:26:32.674Z</time></trkpt><trkpt lat="38.9137561" lon="16.5275886"><ele>324.0</ele><time>2026-04-11T15:26:33.674Z</time></trkpt><trkpt lat="38.9138055" lon="16.5274383"><ele>324.0</ele><time>2026-04-11T15:26:34.675Z</time></trkpt><trkpt lat="38.9138834" lon="16.5273324"><ele>324.0</ele><time>2026-04-11T15:26:35.675Z</time></trkpt><trkpt lat="38.9139864" lon="16.5272812"><ele>324.0</ele><time>2026-04-11T15:26:36.674Z</time></trkpt><trkpt lat="38.9141116" lon="16.5272544"><ele>324.0</ele><time>2026-04-11T15:26:37.674Z</time></trkpt><trkpt lat="38.9142583" lon="16.5272129"><ele>324.0</ele><time>2026-04-11T15:26:38.674Z</time></trkpt><trkpt lat="38.9143948" lon="16.5271344"><ele>324.0</ele><time>2026-04-11T15:26:39.674Z</time></trkpt><trkpt lat="38.9145205" lon="16.5270162"><ele>325.6</ele><time>2026-04-11T15:26:40.674Z</time></trkpt><trkpt lat="38.9146294" lon="16.5268883"><ele>327.2</ele><time>2026-04-11T15:26:41.674Z</time></trkpt><trkpt lat="38.914712" lon="16.5267776"><ele>328.8</ele><time>2026-04-11T15:26:42.675Z</time></trkpt><trkpt lat="38.9147963" lon="16.526718"><ele>330.40000000000003</ele><time>2026-04-11T15:26:43.674Z</time></trkpt><trkpt lat="38.9148792" lon="16.5267133"><ele>332.0</ele><time>2026-04-11T15:26:44.674Z</time></trkpt><trkpt lat="38.9149375" lon="16.5267592"><ele>332.0</ele><time>2026-04-11T15:26:45.674Z</time></trkpt><trkpt lat="38.9149764" lon="16.5268365"><ele>332.0</ele><time>2026-04-11T15:26:46.675Z</time></trkpt><trkpt lat="38.9149869" lon="16.526943"><ele>332.0</ele><time>2026-04-11T15:26:47.674Z</time></trkpt><trkpt lat="38.914963" lon="16.5271007"><ele>332.0</ele><time>2026-04-11T15:26:48.674Z</time></trkpt><trkpt lat="38.9149191" lon="16.527293"><ele>332.0</ele><time>2026-04-11T15:26:49.674Z</time></trkpt><trkpt lat="38.9148783" lon="16.5275069"><ele>333.0</ele><time>2026-04-11T15:26:50.674Z</time></trkpt><trkpt lat="38.9148376" lon="16.5277211"><ele>334.0</ele><time>2026-04-11T15:26:51.675Z</time></trkpt><trkpt lat="38.9148074" lon="16.527916"><ele>335.0</ele><time>2026-04-11T15:26:52.674Z</time></trkpt><trkpt lat="38.9147937" lon="16.5280866"><ele>333.8</ele><time>2026-04-11T15:26:53.675Z</time></trkpt><trkpt lat="38.9148074" lon="16.5282224"><ele>332.6</ele><time>2026-04-11T15:26:54.675Z</time></trkpt><trkpt lat="38.9148532" lon="16.5283184"><ele>331.4</ele><time>2026-04-11T15:26:55.674Z</time></trkpt><trkpt lat="38.9149255" lon="16.5283501"><ele>330.2</ele><time>2026-04-11T15:26:56.675Z</time></trkpt><trkpt lat="38.9150075" lon="16.5283131"><ele>329.0</ele><time>2026-04-11T15:26:57.675Z</time></trkpt><trkpt lat="38.9150996" lon="16.5282164"><ele>329.6666666666667</ele><time>2026-04-11T15:26:58.674Z</time></trkpt><trkpt lat="38.9151943" lon="16.5280338"><ele>330.3333333333333</ele><time>2026-04-11T15:26:59.674Z</time></trkpt><trkpt lat="38.9153116" lon="16.5278082"><ele>331.0</ele><time>2026-04-11T15:27:00.674Z</time></trkpt><trkpt lat="38.9154391" lon="16.5276092"><ele>331.0</ele><time>2026-04-11T15:27:01.674Z</time></trkpt><trkpt lat="38.9155692" lon="16.5274422"><ele>331.0</ele><time>2026-04-11T15:27:02.675Z</time></trkpt><trkpt lat="38.9157047" lon="16.5272982"><ele>331.0</ele><time>2026-04-11T15:27:03.675Z</time></trkpt><trkpt lat="38.9158483" lon="16.5271683"><ele>335.0</ele><time>2026-04-11T15:27:04.674Z</time></trkpt><trkpt lat="38.9159949" lon="16.5270506"><ele>339.0</ele><time>2026-04-11T15:27:05.674Z</time></trkpt><trkpt lat="38.9161536" lon="16.5269395"><ele>343.0</ele><time>2026-04-11T15:27:06.674Z</time></trkpt><trkpt lat="38.9163059" lon="16.5268425"><ele>343.0</ele><time>2026-04-11T15:27:07.674Z</time></trkpt><trkpt lat="38.9164475" lon="16.5267439"><ele>343.0</ele><time>2026-04-11T15:27:08.674Z</time></trkpt><trkpt lat="38.9165887" lon="16.5266242"><ele>343.0</ele><time>2026-04-11T15:27:09.675Z</time></trkpt><trkpt lat="38.9167275" lon="16.526505"><ele>346.3333333333333</ele><time>2026-04-11T15:27:10.675Z</time></trkpt><trkpt lat="38.9168671" lon="16.5264014"><ele>349.6666666666667</ele><time>2026-04-11T15:27:11.674Z</time></trkpt><trkpt lat="38.9170253" lon="16.526304"><ele>353.0</ele><time>2026-04-11T15:27:12.675Z</time></trkpt><trkpt lat="38.9171906" lon="16.5262238"><ele>353.0</ele><time>2026-04-11T15:27:13.674Z</time></trkpt><trkpt lat="38.9173628" lon="16.526159"><ele>353.0</ele><time>2026-04-11T15:27:14.675Z</time></trkpt><trkpt lat="38.9175393" lon="16.5260979"><ele>353.0</ele><time>2026-04-11T15:27:15.675Z</time></trkpt><trkpt lat="38.9177209" lon="16.526022"><ele>353.6666666666667</ele><time>2026-04-11T15:27:16.674Z</time></trkpt><trkpt lat="38.9179069" lon="16.5259454"><ele>354.3333333333333</ele><time>2026-04-11T15:27:17.674Z</time></trkpt><trkpt lat="38.9180953" lon="16.5258727"><ele>355.0</ele><time>2026-04-11T15:27:18.675Z</time></trkpt><trkpt lat="38.9182752" lon="16.5257911"><ele>354.66666666666663</ele><time>2026-04-11T15:27:19.674Z</time></trkpt><trkpt lat="38.918436" lon="16.5256979"><ele>354.3333333333333</ele><time>2026-04-11T15:27:20.674Z</time></trkpt><trkpt lat="38.91858" lon="16.5255692"><ele>354.0</ele><time>2026-04-11T15:27:21.675Z</time></trkpt><trkpt lat="38.9187103" lon="16.5253892"><ele>359.6666666666667</ele><time>2026-04-11T15:27:22.674Z</time></trkpt><trkpt lat="38.9188243" lon="16.5251845"><ele>365.33333333333337</ele><time>2026-04-11T15:27:23.674Z</time></trkpt><trkpt lat="38.9189308" lon="16.5249663"><ele>371.0</ele><time>2026-04-11T15:27:24.674Z</time></trkpt><trkpt lat="38.9190356" lon="16.5247462"><ele>370.6666666666667</ele><time>2026-04-11T15:27:25.675Z</time></trkpt><trkpt lat="38.919143" lon="16.5245494"><ele>370.3333333333333</ele><time>2026-04-11T15:27:26.674Z</time></trkpt><trkpt lat="38.9192372" lon="16.5243569"><ele>370.0</ele><time>2026-04-11T15:27:27.675Z</time></trkpt><trkpt lat="38.9192871" lon="16.5241407"><ele>371.0</ele><time>2026-04-11T15:27:28.674Z</time></trkpt><trkpt lat="38.9192892" lon="16.5239312"><ele>372.0</ele><time>2026-04-11T15:27:29.675Z</time></trkpt><trkpt lat="38.9192408" lon="16.5237272"><ele>373.0</ele><time>2026-04-11T15:27:30.674Z</time></trkpt><trkpt lat="38.919156" lon="16.5235683"><ele>373.0</ele><time>2026-04-11T15:27:31.674Z</time></trkpt><trkpt lat="38.9190783" lon="16.5234458"><ele>373.0</ele><time>2026-04-11T15:27:32.675Z</time></trkpt><trkpt lat="38.9190344" lon="16.5233263"><ele>373.0</ele><time>2026-04-11T15:27:33.675Z</time></trkpt><trkpt lat="38.9190396" lon="16.5232015"><ele>373.0</ele><time>2026-04-11T15:27:34.674Z</time></trkpt><trkpt lat="38.9190939" lon="16.5230901"><ele>373.0</ele><time>2026-04-11T15:27:35.675Z</time></trkpt><trkpt lat="38.9191704" lon="16.5230308"><ele>375.5</ele><time>2026-04-11T15:27:36.675Z</time></trkpt><trkpt lat="38.9192646" lon="16.5230239"><ele>378.0</ele><time>2026-04-11T15:27:37.675Z</time></trkpt><trkpt lat="38.9193732" lon="16.5230831"><ele>380.5</ele><time>2026-04-11T15:27:38.674Z</time></trkpt><trkpt lat="38.9194617" lon="16.5232039"><ele>383.0</ele><time>2026-04-11T15:27:39.675Z</time></trkpt><trkpt lat="38.9195459" lon="16.5233652"><ele>383.0</ele><time>2026-04-11T15:27:40.674Z</time></trkpt><trkpt lat="38.9196278" lon="16.5234671"><ele>383.0</ele><time>2026-04-11T15:27:41.675Z</time></trkpt><trkpt lat="38.9197264" lon="16.5234755"><ele>383.0</ele><time>2026-04-11T15:27:42.675Z</time></trkpt><trkpt lat="38.9198243" lon="16.5234062"><ele>383.0</ele><time>2026-04-11T15:27:43.675Z</time></trkpt><trkpt lat="38.9199152" lon="16.5232775"><ele>383.0</ele><time>2026-04-11T15:27:44.674Z</time></trkpt><trkpt lat="38.9199904" lon="16.5231383"><ele>383.0</ele><time>2026-04-11T15:27:45.675Z</time></trkpt><trkpt lat="38.9200595" lon="16.5230684"><ele>383.0</ele><time>2026-04-11T15:27:46.675Z</time></trkpt><trkpt lat="38.9201264" lon="16.523064"><ele>383.0</ele><time>2026-04-11T15:27:47.675Z</time></trkpt><trkpt lat="38.9201884" lon="16.5232116"><ele>383.0</ele><time>2026-04-11T15:27:49.674Z</time></trkpt><trkpt lat="38.9201772" lon="16.5233639"><ele>387.33333333333337</ele><time>2026-04-11T15:27:50.674Z</time></trkpt><trkpt lat="38.920154" lon="16.5235714"><ele>391.6666666666667</ele><time>2026-04-11T15:27:51.675Z</time></trkpt><trkpt lat="38.9201303" lon="16.5238053"><ele>396.0</ele><time>2026-04-11T15:27:52.675Z</time></trkpt><trkpt lat="38.9201272" lon="16.5240463"><ele>396.0</ele><time>2026-04-11T15:27:53.674Z</time></trkpt><trkpt lat="38.9201402" lon="16.5242644"><ele>396.0</ele><time>2026-04-11T15:27:54.675Z</time></trkpt><trkpt lat="38.9201628" lon="16.5244371"><ele>396.0</ele><time>2026-04-11T15:27:55.674Z</time></trkpt><trkpt lat="38.9202018" lon="16.5245567"><ele>396.0</ele><time>2026-04-11T15:27:56.674Z</time></trkpt><trkpt lat="38.9202615" lon="16.5246135"><ele>396.0</ele><time>2026-04-11T15:27:57.675Z</time></trkpt><trkpt lat="38.9203292" lon="16.5246172"><ele>396.0</ele><time>2026-04-11T15:27:58.675Z</time></trkpt><trkpt lat="38.9204051" lon="16.5245678"><ele>396.0</ele><time>2026-04-11T15:27:59.674Z</time></trkpt><trkpt lat="38.9204805" lon="16.5244651"><ele>396.0</ele><time>2026-04-11T15:28:00.674Z</time></trkpt><trkpt lat="38.9205605" lon="16.5243028"><ele>396.0</ele><time>2026-04-11T15:28:01.674Z</time></trkpt><trkpt lat="38.9206208" lon="16.5240696"><ele>396.0</ele><time>2026-04-11T15:28:02.675Z</time></trkpt><trkpt lat="38.9206854" lon="16.5238247"><ele>396.0</ele><time>2026-04-11T15:28:03.674Z</time></trkpt><trkpt lat="38.9207467" lon="16.5235894"><ele>396.0</ele><time>2026-04-11T15:28:04.674Z</time></trkpt><trkpt lat="38.920822" lon="16.5233766"><ele>396.5</ele><time>2026-04-11T15:28:05.675Z</time></trkpt><trkpt lat="38.9208988" lon="16.5231931"><ele>397.0</ele><time>2026-04-11T15:28:06.675Z</time></trkpt><trkpt lat="38.9209774" lon="16.5230484"><ele>397.5</ele><time>2026-04-11T15:28:07.674Z</time></trkpt><trkpt lat="38.92107" lon="16.5229434"><ele>398.0</ele><time>2026-04-11T15:28:08.675Z</time></trkpt><trkpt lat="38.9211779" lon="16.5229004"><ele>397.0</ele><time>2026-04-11T15:28:09.674Z</time></trkpt><trkpt lat="38.9213152" lon="16.5228856"><ele>396.0</ele><time>2026-04-11T15:28:10.674Z</time></trkpt><trkpt lat="38.9214686" lon="16.5228679"><ele>395.0</ele><time>2026-04-11T15:28:11.675Z</time></trkpt><trkpt lat="38.9216315" lon="16.5228481"><ele>401.66666666666663</ele><time>2026-04-11T15:28:12.674Z</time></trkpt><trkpt lat="38.9218105" lon="16.5228159"><ele>408.33333333333337</ele><time>2026-04-11T15:28:13.674Z</time></trkpt><trkpt lat="38.9219886" lon="16.5227813"><ele>415.0</ele><time>2026-04-11T15:28:14.675Z</time></trkpt><trkpt lat="38.9221539" lon="16.5227453"><ele>415.0</ele><time>2026-04-11T15:28:15.674Z</time></trkpt><trkpt lat="38.9222939" lon="16.5226769"><ele>415.0</ele><time>2026-04-11T15:28:16.675Z</time></trkpt><trkpt lat="38.9223963" lon="16.5225645"><ele>415.0</ele><time>2026-04-11T15:28:17.674Z</time></trkpt><trkpt lat="38.9224575" lon="16.5224032"><ele>415.0</ele><time>2026-04-11T15:28:18.674Z</time></trkpt><trkpt lat="38.9224762" lon="16.5221992"><ele>414.0</ele><time>2026-04-11T15:28:19.674Z</time></trkpt><trkpt lat="38.9224814" lon="16.5219636"><ele>413.0</ele><time>2026-04-11T15:28:20.675Z</time></trkpt><trkpt lat="38.9225136" lon="16.5217267"><ele>412.0</ele><time>2026-04-11T15:28:21.674Z</time></trkpt><trkpt lat="38.9225551" lon="16.5214945"><ele>411.25</ele><time>2026-04-11T15:28:22.675Z</time></trkpt><trkpt lat="38.9225962" lon="16.5212956"><ele>410.5</ele><time>2026-04-11T15:28:23.675Z</time></trkpt><trkpt lat="38.9226327" lon="16.5211397"><ele>409.75</ele><time>2026-04-11T15:28:24.675Z</time></trkpt><trkpt lat="38.9226851" lon="16.5210391"><ele>409.0</ele><time>2026-04-11T15:28:25.675Z</time></trkpt><trkpt lat="38.9227474" lon="16.5209964"><ele>409.0</ele><time>2026-04-11T15:28:26.675Z</time></trkpt><trkpt lat="38.9228219" lon="16.5210053"><ele>409.0</ele><time>2026-04-11T15:28:27.675Z</time></trkpt><trkpt lat="38.9229004" lon="16.5210741"><ele>409.0</ele><time>2026-04-11T15:28:28.674Z</time></trkpt><trkpt lat="38.9229591" lon="16.5212076"><ele>409.0</ele><time>2026-04-11T15:28:29.675Z</time></trkpt><trkpt lat="38.9229909" lon="16.5214014"><ele>409.0</ele><time>2026-04-11T15:28:30.674Z</time></trkpt><trkpt lat="38.9230039" lon="16.5216382"><ele>415.33333333333337</ele><time>2026-04-11T15:28:31.675Z</time></trkpt><trkpt lat="38.9230155" lon="16.5218959"><ele>421.66666666666663</ele><time>2026-04-11T15:28:32.675Z</time></trkpt><trkpt lat="38.9230228" lon="16.5221598"><ele>428.0</ele><time>2026-04-11T15:28:33.675Z</time></trkpt><trkpt lat="38.923022" lon="16.5224203"><ele>429.66666666666663</ele><time>2026-04-11T15:28:34.674Z</time></trkpt><trkpt lat="38.9230091" lon="16.5226813"><ele>431.33333333333337</ele><time>2026-04-11T15:28:35.674Z</time></trkpt><trkpt lat="38.9229882" lon="16.5229208"><ele>433.0</ele><time>2026-04-11T15:28:36.674Z</time></trkpt><trkpt lat="38.9229888" lon="16.5231377"><ele>433.6666666666667</ele><time>2026-04-11T15:28:37.674Z</time></trkpt><trkpt lat="38.9230227" lon="16.5233627"><ele>434.33333333333337</ele><time>2026-04-11T15:28:38.674Z</time></trkpt><trkpt lat="38.9230764" lon="16.5235955"><ele>435.0</ele><time>2026-04-11T15:28:39.674Z</time></trkpt><trkpt lat="38.9231366" lon="16.523833"><ele>434.0</ele><time>2026-04-11T15:28:40.674Z</time></trkpt><trkpt lat="38.9231869" lon="16.5240384"><ele>433.0</ele><time>2026-04-11T15:28:41.674Z</time></trkpt><trkpt lat="38.9232348" lon="16.5242035"><ele>432.0</ele><time>2026-04-11T15:28:42.674Z</time></trkpt><trkpt lat="38.9232904" lon="16.5243124"><ele>431.0</ele><time>2026-04-11T15:28:43.675Z</time></trkpt><trkpt lat="38.9233553" lon="16.524362"><ele>433.20000000000005</ele><time>2026-04-11T15:28:44.675Z</time></trkpt><trkpt lat="38.92342" lon="16.5243491"><ele>435.40000000000003</ele><time>2026-04-11T15:28:45.674Z</time></trkpt><trkpt lat="38.9234793" lon="16.5242826"><ele>437.6</ele><time>2026-04-11T15:28:46.674Z</time></trkpt><trkpt lat="38.9235129" lon="16.5241591"><ele>439.8</ele><time>2026-04-11T15:28:47.675Z</time></trkpt><trkpt lat="38.9235087" lon="16.5239837"><ele>442.0</ele><time>2026-04-11T15:28:48.674Z</time></trkpt><trkpt lat="38.9234868" lon="16.5237588"><ele>443.6666666666667</ele><time>2026-04-11T15:28:49.674Z</time></trkpt><trkpt lat="38.9234813" lon="16.5235103"><ele>445.33333333333337</ele><time>2026-04-11T15:28:50.674Z</time></trkpt><trkpt lat="38.9235098" lon="16.5232792"><ele>447.0</ele><time>2026-04-11T15:28:51.675Z</time></trkpt><trkpt lat="38.9235683" lon="16.5230605"><ele>446.66666666666663</ele><time>2026-04-11T15:28:52.674Z</time></trkpt><trkpt lat="38.9236325" lon="16.5228283"><ele>446.3333333333333</ele><time>2026-04-11T15:28:53.675Z</time></trkpt><trkpt lat="38.9236886" lon="16.5226063"><ele>446.0</ele><time>2026-04-11T15:28:54.674Z</time></trkpt><trkpt lat="38.9237645" lon="16.522426"><ele>446.0</ele><time>2026-04-11T15:28:55.674Z</time></trkpt><trkpt lat="38.9238723" lon="16.5222796"><ele>446.0</ele><time>2026-04-11T15:28:56.674Z</time></trkpt><trkpt lat="38.9240062" lon="16.5221602"><ele>446.0</ele><time>2026-04-11T15:28:57.674Z</time></trkpt><trkpt lat="38.9241427" lon="16.5220674"><ele>444.75</ele><time>2026-04-11T15:28:58.674Z</time></trkpt><trkpt lat="38.9242645" lon="16.5220253"><ele>443.5</ele><time>2026-04-11T15:28:59.674Z</time></trkpt><trkpt lat="38.9243823" lon="16.5220498"><ele>442.25</ele><time>2026-04-11T15:29:00.675Z</time></trkpt><trkpt lat="38.9244813" lon="16.5221387"><ele>441.0</ele><time>2026-04-11T15:29:01.674Z</time></trkpt><trkpt lat="38.924561" lon="16.522295"><ele>441.0</ele><time>2026-04-11T15:29:02.674Z</time></trkpt><trkpt lat="38.9246071" lon="16.5224881"><ele>441.0</ele><time>2026-04-11T15:29:03.675Z</time></trkpt><trkpt lat="38.924619" lon="16.522701"><ele>441.0</ele><time>2026-04-11T15:29:04.675Z</time></trkpt><trkpt lat="38.924637" lon="16.5229065"><ele>445.33333333333337</ele><time>2026-04-11T15:29:05.674Z</time></trkpt><trkpt lat="38.9246868" lon="16.5230972"><ele>449.6666666666667</ele><time>2026-04-11T15:29:06.674Z</time></trkpt><trkpt lat="38.9247814" lon="16.5232521"><ele>454.0</ele><time>2026-04-11T15:29:07.674Z</time></trkpt><trkpt lat="38.9249108" lon="16.5233579"><ele>454.0</ele><time>2026-04-11T15:29:08.674Z</time></trkpt><trkpt lat="38.9250623" lon="16.5234452"><ele>454.0</ele><time>2026-04-11T15:29:09.674Z</time></trkpt><trkpt lat="38.9252166" lon="16.5235291"><ele>454.0</ele><time>2026-04-11T15:29:10.674Z</time></trkpt><trkpt lat="38.9253748" lon="16.523622"><ele>455.75</ele><time>2026-04-11T15:29:11.674Z</time></trkpt><trkpt lat="38.9255233" lon="16.5237074"><ele>457.5</ele><time>2026-04-11T15:29:12.674Z</time></trkpt><trkpt lat="38.9256408" lon="16.5238058"><ele>459.25</ele><time>2026-04-11T15:29:13.674Z</time></trkpt><trkpt lat="38.925722" lon="16.5239387"><ele>461.0</ele><time>2026-04-11T15:29:14.675Z</time></trkpt><trkpt lat="38.9257541" lon="16.5240992"><ele>461.25</ele><time>2026-04-11T15:29:15.674Z</time></trkpt><trkpt lat="38.925753" lon="16.5242942"><ele>461.5</ele><time>2026-04-11T15:29:16.675Z</time></trkpt><trkpt lat="38.9257428" lon="16.5244847"><ele>461.75</ele><time>2026-04-11T15:29:17.674Z</time></trkpt><trkpt lat="38.925772" lon="16.5246717"><ele>462.0</ele><time>2026-04-11T15:29:18.674Z</time></trkpt><trkpt lat="38.925843" lon="16.5248674"><ele>465.33333333333337</ele><time>2026-04-11T15:29:19.674Z</time></trkpt><trkpt lat="38.9259301" lon="16.525054"><ele>468.6666666666667</ele><time>2026-04-11T15:29:20.674Z</time></trkpt><trkpt lat="38.9260123" lon="16.5252392"><ele>472.0</ele><time>2026-04-11T15:29:21.674Z</time></trkpt><trkpt lat="38.9260729" lon="16.525397"><ele>472.0</ele><time>2026-04-11T15:29:22.675Z</time></trkpt><trkpt lat="38.9261485" lon="16.5254766"><ele>472.00000000000006</ele><time>2026-04-11T15:29:23.675Z</time></trkpt><trkpt lat="38.9262128" lon="16.5255081"><ele>472.00000000000006</ele><time>2026-04-11T15:29:24.675Z</time></trkpt><trkpt lat="38.9262882" lon="16.5253797"><ele>472.0</ele><time>2026-04-11T15:29:26.674Z</time></trkpt><trkpt lat="38.9262758" lon="16.5252632"><ele>472.0</ele><time>2026-04-11T15:29:27.675Z</time></trkpt><trkpt lat="38.9262206" lon="16.5251188"><ele>473.25</ele><time>2026-04-11T15:29:28.674Z</time></trkpt><trkpt lat="38.9261616" lon="16.5249488"><ele>474.5</ele><time>2026-04-11T15:29:29.674Z</time></trkpt><trkpt lat="38.9261274" lon="16.5247732"><ele>475.75</ele><time>2026-04-11T15:29:30.674Z</time></trkpt><trkpt lat="38.9261353" lon="16.5245919"><ele>477.0</ele><time>2026-04-11T15:29:31.674Z</time></trkpt><trkpt lat="38.9261906" lon="16.5244213"><ele>477.66666666666663</ele><time>2026-04-11T15:29:32.674Z</time></trkpt><trkpt lat="38.9262903" lon="16.5242564"><ele>478.3333333333333</ele><time>2026-04-11T15:29:33.674Z</time></trkpt><trkpt lat="38.9264094" lon="16.52408"><ele>479.0</ele><time>2026-04-11T15:29:34.674Z</time></trkpt><trkpt lat="38.9265523" lon="16.5238992"><ele>479.0</ele><time>2026-04-11T15:29:35.675Z</time></trkpt><trkpt lat="38.9266901" lon="16.5237319"><ele>479.0</ele><time>2026-04-11T15:29:36.675Z</time></trkpt><trkpt lat="38.9268281" lon="16.5235677"><ele>479.0</ele><time>2026-04-11T15:29:37.675Z</time></trkpt><trkpt lat="38.9269709" lon="16.5233988"><ele>478.66666666666663</ele><time>2026-04-11T15:29:38.675Z</time></trkpt><trkpt lat="38.9271217" lon="16.5232255"><ele>478.33333333333337</ele><time>2026-04-11T15:29:39.674Z</time></trkpt><trkpt lat="38.9272697" lon="16.5230528"><ele>478.0</ele><time>2026-04-11T15:29:40.675Z</time></trkpt><trkpt lat="38.9274163" lon="16.5228827"><ele>478.0</ele><time>2026-04-11T15:29:41.674Z</time></trkpt><trkpt lat="38.9275538" lon="16.5227225"><ele>478.0</ele><time>2026-04-11T15:29:42.674Z</time></trkpt><trkpt lat="38.927687" lon="16.5225728"><ele>478.0</ele><time>2026-04-11T15:29:43.674Z</time></trkpt><trkpt lat="38.9278148" lon="16.5224244"><ele>479.33333333333337</ele><time>2026-04-11T15:29:44.675Z</time></trkpt><trkpt lat="38.9279389" lon="16.522278"><ele>480.66666666666663</ele><time>2026-04-11T15:29:45.674Z</time></trkpt><trkpt lat="38.928065" lon="16.522131"><ele>482.0</ele><time>2026-04-11T15:29:46.674Z</time></trkpt><trkpt lat="38.9281973" lon="16.5219783"><ele>482.0</ele><time>2026-04-11T15:29:47.674Z</time></trkpt><trkpt lat="38.9283253" lon="16.5218317"><ele>482.0</ele><time>2026-04-11T15:29:48.674Z</time></trkpt><trkpt lat="38.9284565" lon="16.5216793"><ele>482.0</ele><time>2026-04-11T15:29:49.674Z</time></trkpt><trkpt lat="38.9285871" lon="16.5215251"><ele>481.66666666666663</ele><time>2026-04-11T15:29:50.675Z</time></trkpt><trkpt lat="38.9287199" lon="16.5213624"><ele>481.33333333333337</ele><time>2026-04-11T15:29:51.674Z</time></trkpt><trkpt lat="38.9288565" lon="16.5212027"><ele>481.0</ele><time>2026-04-11T15:29:52.674Z</time></trkpt><trkpt lat="38.9289857" lon="16.5210424"><ele>481.0</ele><time>2026-04-11T15:29:53.674Z</time></trkpt><trkpt lat="38.9290946" lon="16.5208953"><ele>481.0</ele><time>2026-04-11T15:29:54.674Z</time></trkpt><trkpt lat="38.9291906" lon="16.5207586"><ele>481.0</ele><time>2026-04-11T15:29:55.674Z</time></trkpt><trkpt lat="38.9292566" lon="16.5206081"><ele>481.0</ele><time>2026-04-11T15:29:56.674Z</time></trkpt><trkpt lat="38.9292841" lon="16.5204292"><ele>482.0</ele><time>2026-04-11T15:29:57.674Z</time></trkpt><trkpt lat="38.9292851" lon="16.5202257"><ele>483.0</ele><time>2026-04-11T15:29:58.674Z</time></trkpt><trkpt lat="38.9292795" lon="16.5200034"><ele>484.0</ele><time>2026-04-11T15:29:59.675Z</time></trkpt><trkpt lat="38.9292822" lon="16.5197688"><ele>487.33333333333337</ele><time>2026-04-11T15:30:00.674Z</time></trkpt><trkpt lat="38.9292831" lon="16.5195199"><ele>490.66666666666663</ele><time>2026-04-11T15:30:01.674Z</time></trkpt><trkpt lat="38.9292833" lon="16.5192616"><ele>494.0</ele><time>2026-04-11T15:30:02.674Z</time></trkpt><trkpt lat="38.9292786" lon="16.5190179"><ele>494.0</ele><time>2026-04-11T15:30:03.675Z</time></trkpt><trkpt lat="38.9292761" lon="16.5188095"><ele>494.0</ele><time>2026-04-11T15:30:04.675Z</time></trkpt><trkpt lat="38.9292836" lon="16.5186251"><ele>494.0</ele><time>2026-04-11T15:30:05.674Z</time></trkpt><trkpt lat="38.9293089" lon="16.5184569"><ele>494.0</ele><time>2026-04-11T15:30:06.674Z</time></trkpt><trkpt lat="38.9293615" lon="16.5183149"><ele>495.75</ele><time>2026-04-11T15:30:07.674Z</time></trkpt><trkpt lat="38.9294486" lon="16.5181817"><ele>497.5</ele><time>2026-04-11T15:30:08.674Z</time></trkpt><trkpt lat="38.9295523" lon="16.5180576"><ele>499.25</ele><time>2026-04-11T15:30:09.674Z</time></trkpt><trkpt lat="38.9296489" lon="16.5179431"><ele>501.0</ele><time>2026-04-11T15:30:10.674Z</time></trkpt><trkpt lat="38.9297335" lon="16.5178195"><ele>501.5</ele><time>2026-04-11T15:30:11.675Z</time></trkpt><trkpt lat="38.9298296" lon="16.5176984"><ele>502.0</ele><time>2026-04-11T15:30:12.674Z</time></trkpt><trkpt lat="38.9299285" lon="16.5175585"><ele>502.5</ele><time>2026-04-11T15:30:13.675Z</time></trkpt><trkpt lat="38.930029" lon="16.5174127"><ele>503.0</ele><time>2026-04-11T15:30:14.674Z</time></trkpt><trkpt lat="38.9301371" lon="16.5172603"><ele>505.3333333333333</ele><time>2026-04-11T15:30:15.674Z</time></trkpt><trkpt lat="38.9302507" lon="16.5171"><ele>507.66666666666663</ele><time>2026-04-11T15:30:16.674Z</time></trkpt><trkpt lat="38.9303692" lon="16.5169353"><ele>510.0</ele><time>2026-04-11T15:30:17.674Z</time></trkpt><trkpt lat="38.9304879" lon="16.5167655"><ele>510.0</ele><time>2026-04-11T15:30:18.674Z</time></trkpt><trkpt lat="38.9306106" lon="16.5166031"><ele>510.0</ele><time>2026-04-11T15:30:19.675Z</time></trkpt><trkpt lat="38.9307225" lon="16.516441"><ele>510.0</ele><time>2026-04-11T15:30:20.675Z</time></trkpt><trkpt lat="38.9308312" lon="16.5162962"><ele>509.66666666666663</ele><time>2026-04-11T15:30:21.675Z</time></trkpt><trkpt lat="38.930955" lon="16.5161783"><ele>509.3333333333333</ele><time>2026-04-11T15:30:22.674Z</time></trkpt><trkpt lat="38.9311092" lon="16.5161559"><ele>509.0</ele><time>2026-04-11T15:30:23.675Z</time></trkpt><trkpt lat="38.9312591" lon="16.5161528"><ele>509.0</ele><time>2026-04-11T15:30:24.675Z</time></trkpt><trkpt lat="38.9314216" lon="16.5161706"><ele>509.0</ele><time>2026-04-11T15:30:25.674Z</time></trkpt><trkpt lat="38.931584" lon="16.5161811"><ele>509.0</ele><time>2026-04-11T15:30:26.675Z</time></trkpt><trkpt lat="38.9317411" lon="16.5161706"><ele>512.25</ele><time>2026-04-11T15:30:27.674Z</time></trkpt><trkpt lat="38.9318813" lon="16.5161194"><ele>515.5</ele><time>2026-04-11T15:30:28.674Z</time></trkpt><trkpt lat="38.9319967" lon="16.5160258"><ele>518.75</ele><time>2026-04-11T15:30:29.675Z</time></trkpt><trkpt lat="38.9320706" lon="16.5159002"><ele>522.0</ele><time>2026-04-11T15:30:30.675Z</time></trkpt><trkpt lat="38.9321017" lon="16.5157467"><ele>522.0</ele><time>2026-04-11T15:30:31.675Z</time></trkpt><trkpt lat="38.9320858" lon="16.5155943"><ele>522.0</ele><time>2026-04-11T15:30:32.674Z</time></trkpt><trkpt lat="38.9320221" lon="16.5154264"><ele>522.0</ele><time>2026-04-11T15:30:33.674Z</time></trkpt><trkpt lat="38.9319546" lon="16.5152582"><ele>522.0</ele><time>2026-04-11T15:30:34.675Z</time></trkpt><trkpt lat="38.931928" lon="16.5150959"><ele>522.75</ele><time>2026-04-11T15:30:35.675Z</time></trkpt><trkpt lat="38.9319386" lon="16.5149449"><ele>523.5</ele><time>2026-04-11T15:30:36.674Z</time></trkpt><trkpt lat="38.9319762" lon="16.5148167"><ele>524.25</ele><time>2026-04-11T15:30:37.675Z</time></trkpt><trkpt lat="38.9320526" lon="16.5147"><ele>525.0</ele><time>2026-04-11T15:30:38.675Z</time></trkpt><trkpt lat="38.9321626" lon="16.5145995"><ele>525.6666666666666</ele><time>2026-04-11T15:30:39.674Z</time></trkpt><trkpt lat="38.9323045" lon="16.5145101"><ele>526.3333333333333</ele><time>2026-04-11T15:30:40.674Z</time></trkpt><trkpt lat="38.9324575" lon="16.5144342"><ele>527.0</ele><time>2026-04-11T15:30:41.674Z</time></trkpt><trkpt lat="38.9326157" lon="16.5143521"><ele>527.0</ele><time>2026-04-11T15:30:42.675Z</time></trkpt><trkpt lat="38.932776" lon="16.5142688"><ele>527.0</ele><time>2026-04-11T15:30:43.675Z</time></trkpt><trkpt lat="38.9329373" lon="16.5141682"><ele>527.0</ele><time>2026-04-11T15:30:44.675Z</time></trkpt><trkpt lat="38.9330973" lon="16.5141093"><ele>527.0</ele><time>2026-04-11T15:30:45.674Z</time></trkpt><trkpt lat="38.9332536" lon="16.5140794"><ele>527.0</ele><time>2026-04-11T15:30:46.674Z</time></trkpt><trkpt lat="38.9333883" lon="16.5140829"><ele>527.0</ele><time>2026-04-11T15:30:47.675Z</time></trkpt><trkpt lat="38.933505" lon="16.514135"><ele>527.0</ele><time>2026-04-11T15:30:48.674Z</time></trkpt><trkpt lat="38.93361" lon="16.5142433"><ele>528.5</ele><time>2026-04-11T15:30:49.674Z</time></trkpt><trkpt lat="38.9337145" lon="16.514367"><ele>530.0</ele><time>2026-04-11T15:30:50.675Z</time></trkpt><trkpt lat="38.9338208" lon="16.5144334"><ele>531.5</ele><time>2026-04-11T15:30:51.675Z</time></trkpt><trkpt lat="38.9339455" lon="16.5144479"><ele>533.0</ele><time>2026-04-11T15:30:52.674Z</time></trkpt><trkpt lat="38.9340672" lon="16.5144209"><ele>533.0</ele><time>2026-04-11T15:30:53.675Z</time></trkpt><trkpt lat="38.9341987" lon="16.5143532"><ele>533.0</ele><time>2026-04-11T15:30:54.674Z</time></trkpt><trkpt lat="38.9343264" lon="16.5142629"><ele>533.0</ele><time>2026-04-11T15:30:55.674Z</time></trkpt><trkpt lat="38.9344514" lon="16.5141739"><ele>533.0</ele><time>2026-04-11T15:30:56.674Z</time></trkpt><trkpt lat="38.9345597" lon="16.514121"><ele>534.25</ele><time>2026-04-11T15:30:57.675Z</time></trkpt><trkpt lat="38.9346679" lon="16.5141336"><ele>535.5</ele><time>2026-04-11T15:30:58.674Z</time></trkpt><trkpt lat="38.9347746" lon="16.5141976"><ele>536.75</ele><time>2026-04-11T15:30:59.674Z</time></trkpt><trkpt lat="38.9349045" lon="16.5142503"><ele>538.0</ele><time>2026-04-11T15:31:00.674Z</time></trkpt><trkpt lat="38.9350566" lon="16.5142685"><ele>542.0</ele><time>2026-04-11T15:31:01.674Z</time></trkpt><trkpt lat="38.9352214" lon="16.5142566"><ele>546.0</ele><time>2026-04-11T15:31:02.675Z</time></trkpt><trkpt lat="38.9353861" lon="16.5142352"><ele>550.0</ele><time>2026-04-11T15:31:03.674Z</time></trkpt><trkpt lat="38.9355253" lon="16.5142009"><ele>550.0</ele><time>2026-04-11T15:31:04.674Z</time></trkpt><trkpt lat="38.9356554" lon="16.514108"><ele>550.0</ele><time>2026-04-11T15:31:05.675Z</time></trkpt><trkpt lat="38.9357611" lon="16.5139661"><ele>550.0</ele><time>2026-04-11T15:31:06.674Z</time></trkpt><trkpt lat="38.9358399" lon="16.5137998"><ele>550.0</ele><time>2026-04-11T15:31:07.674Z</time></trkpt><trkpt lat="38.9358991" lon="16.5136422"><ele>550.0</ele><time>2026-04-11T15:31:08.675Z</time></trkpt><trkpt lat="38.9359767" lon="16.5135489"><ele>550.0</ele><time>2026-04-11T15:31:09.674Z</time></trkpt><trkpt lat="38.936075" lon="16.5135151"><ele>550.0</ele><time>2026-04-11T15:31:10.675Z</time></trkpt><trkpt lat="38.9361913" lon="16.5135372"><ele>550.0</ele><time>2026-04-11T15:31:11.674Z</time></trkpt><trkpt lat="38.9363147" lon="16.5135684"><ele>550.0</ele><time>2026-04-11T15:31:12.674Z</time></trkpt><trkpt lat="38.9364308" lon="16.5135452"><ele>550.0</ele><time>2026-04-11T15:31:13.674Z</time></trkpt><trkpt lat="38.9365357" lon="16.5134412"><ele>550.0</ele><time>2026-04-11T15:31:14.674Z</time></trkpt><trkpt lat="38.9366108" lon="16.5132949"><ele>550.0</ele><time>2026-04-11T15:31:15.675Z</time></trkpt><trkpt lat="38.9366626" lon="16.5131511"><ele>550.0</ele><time>2026-04-11T15:31:16.675Z</time></trkpt><trkpt lat="38.9367411" lon="16.5130448"><ele>550.0</ele><time>2026-04-11T15:31:17.674Z</time></trkpt><trkpt lat="38.9368332" lon="16.5130002"><ele>550.0</ele><time>2026-04-11T15:31:18.675Z</time></trkpt><trkpt lat="38.9369546" lon="16.5130029"><ele>552.75</ele><time>2026-04-11T15:31:19.675Z</time></trkpt><trkpt lat="38.9370916" lon="16.5130398"><ele>555.5</ele><time>2026-04-11T15:31:20.674Z</time></trkpt><trkpt lat="38.9372417" lon="16.5130886"><ele>558.25</ele><time>2026-04-11T15:31:21.674Z</time></trkpt><trkpt lat="38.9373934" lon="16.5131239"><ele>561.0</ele><time>2026-04-11T15:31:22.675Z</time></trkpt><trkpt lat="38.9375298" lon="16.5131685"><ele>566.0</ele><time>2026-04-11T15:31:23.674Z</time></trkpt><trkpt lat="38.9376514" lon="16.513209"><ele>571.0</ele><time>2026-04-11T15:31:24.674Z</time></trkpt><trkpt lat="38.9377711" lon="16.5132074"><ele>576.0</ele><time>2026-04-11T15:31:25.675Z</time></trkpt><trkpt lat="38.9378713" lon="16.5131491"><ele>581.0</ele><time>2026-04-11T15:31:26.674Z</time></trkpt><trkpt lat="38.9379443" lon="16.5130357"><ele>579.75</ele><time>2026-04-11T15:31:27.674Z</time></trkpt><trkpt lat="38.9379853" lon="16.5128798"><ele>578.5</ele><time>2026-04-11T15:31:28.674Z</time></trkpt><trkpt lat="38.9380049" lon="16.5127052"><ele>577.25</ele><time>2026-04-11T15:31:29.675Z</time></trkpt><trkpt lat="38.9379947" lon="16.5125312"><ele>576.0</ele><time>2026-04-11T15:31:30.674Z</time></trkpt><trkpt lat="38.9379759" lon="16.5123631"><ele>576.0</ele><time>2026-04-11T15:31:31.674Z</time></trkpt><trkpt lat="38.9379687" lon="16.5122207"><ele>576.0</ele><time>2026-04-11T15:31:32.675Z</time></trkpt><trkpt lat="38.9379746" lon="16.5121034"><ele>576.0</ele><time>2026-04-11T15:31:33.675Z</time></trkpt><trkpt lat="38.9379968" lon="16.5120206"><ele>576.0</ele><time>2026-04-11T15:31:34.674Z</time></trkpt><trkpt lat="38.9380441" lon="16.5119476"><ele>576.0</ele><time>2026-04-11T15:31:35.674Z</time></trkpt><trkpt lat="38.9381085" lon="16.5119213"><ele>576.0</ele><time>2026-04-11T15:31:36.675Z</time></trkpt><trkpt lat="38.9382028" lon="16.511942"><ele>573.75</ele><time>2026-04-11T15:31:37.674Z</time></trkpt><trkpt lat="38.9383222" lon="16.511979"><ele>571.5</ele><time>2026-04-11T15:31:38.674Z</time></trkpt><trkpt lat="38.9384643" lon="16.5120283"><ele>569.25</ele><time>2026-04-11T15:31:39.675Z</time></trkpt><trkpt lat="38.9386214" lon="16.5120474"><ele>567.0</ele><time>2026-04-11T15:31:40.674Z</time></trkpt><trkpt lat="38.9387804" lon="16.512051"><ele>567.0</ele><time>2026-04-11T15:31:41.675Z</time></trkpt><trkpt lat="38.9389266" lon="16.5120369"><ele>567.0</ele><time>2026-04-11T15:31:42.674Z</time></trkpt><trkpt lat="38.939068" lon="16.5120391"><ele>567.0</ele><time>2026-04-11T15:31:43.675Z</time></trkpt><trkpt lat="38.9392021" lon="16.5120826"><ele>567.0</ele><time>2026-04-11T15:31:44.674Z</time></trkpt><trkpt lat="38.93934" lon="16.5121365"><ele>576.25</ele><time>2026-04-11T15:31:45.674Z</time></trkpt><trkpt lat="38.9394725" lon="16.512208"><ele>585.5</ele><time>2026-04-11T15:31:46.674Z</time></trkpt><trkpt lat="38.9395977" lon="16.512274"><ele>594.75</ele><time>2026-04-11T15:31:47.674Z</time></trkpt><trkpt lat="38.939705" lon="16.5122969"><ele>604.0</ele><time>2026-04-11T15:31:48.675Z</time></trkpt><trkpt lat="38.9397916" lon="16.5122617"><ele>604.0</ele><time>2026-04-11T15:31:49.674Z</time></trkpt><trkpt lat="38.9398591" lon="16.5121712"><ele>604.0</ele><time>2026-04-11T15:31:50.674Z</time></trkpt><trkpt lat="38.9399039" lon="16.5120558"><ele>604.0</ele><time>2026-04-11T15:31:51.674Z</time></trkpt><trkpt lat="38.9399117" lon="16.5119222"><ele>604.0</ele><time>2026-04-11T15:31:52.675Z</time></trkpt><trkpt lat="38.9398903" lon="16.5117553"><ele>604.0</ele><time>2026-04-11T15:31:53.674Z</time></trkpt><trkpt lat="38.9398876" lon="16.5115805"><ele>603.25</ele><time>2026-04-11T15:31:54.674Z</time></trkpt><trkpt lat="38.9399004" lon="16.5114306"><ele>602.5</ele><time>2026-04-11T15:31:55.675Z</time></trkpt><trkpt lat="38.9399028" lon="16.5112951"><ele>601.75</ele><time>2026-04-11T15:31:56.674Z</time></trkpt><trkpt lat="38.9398477" lon="16.5111578"><ele>601.0</ele><time>2026-04-11T15:31:57.675Z</time></trkpt><trkpt lat="38.9397513" lon="16.5110392"><ele>601.0</ele><time>2026-04-11T15:31:58.675Z</time></trkpt><trkpt lat="38.9396332" lon="16.5109616"><ele>601.0</ele><time>2026-04-11T15:31:59.674Z</time></trkpt><trkpt lat="38.9395103" lon="16.5108968"><ele>601.0</ele><time>2026-04-11T15:32:00.674Z</time></trkpt><trkpt lat="38.9393962" lon="16.5107958"><ele>601.0</ele><time>2026-04-11T15:32:01.674Z</time></trkpt><trkpt lat="38.9393116" lon="16.5106565"><ele>601.0</ele><time>2026-04-11T15:32:02.675Z</time></trkpt><trkpt lat="38.9392575" lon="16.5104953"><ele>601.0</ele><time>2026-04-11T15:32:03.674Z</time></trkpt><trkpt lat="38.939256" lon="16.5103328"><ele>601.0</ele><time>2026-04-11T15:32:04.674Z</time></trkpt><trkpt lat="38.9392846" lon="16.5101676"><ele>601.0</ele><time>2026-04-11T15:32:05.674Z</time></trkpt><trkpt lat="38.9393318" lon="16.5099972"><ele>600.25</ele><time>2026-04-11T15:32:06.675Z</time></trkpt><trkpt lat="38.9393849" lon="16.5098478"><ele>599.5</ele><time>2026-04-11T15:32:07.674Z</time></trkpt><trkpt lat="38.9394763" lon="16.5097492"><ele>598.75</ele><time>2026-04-11T15:32:08.675Z</time></trkpt><trkpt lat="38.939595" lon="16.5096983"><ele>598.0</ele><time>2026-04-11T15:32:09.674Z</time></trkpt><trkpt lat="38.9397325" lon="16.5096831"><ele>598.0</ele><time>2026-04-11T15:32:10.675Z</time></trkpt><trkpt lat="38.9398667" lon="16.5096927"><ele>598.0</ele><time>2026-04-11T15:32:11.674Z</time></trkpt><trkpt lat="38.9400059" lon="16.5097143"><ele>598.0</ele><time>2026-04-11T15:32:12.674Z</time></trkpt><trkpt lat="38.9401337" lon="16.509758"><ele>598.0</ele><time>2026-04-11T15:32:13.674Z</time></trkpt><trkpt lat="38.9402552" lon="16.5098367"><ele>601.0</ele><time>2026-04-11T15:32:14.675Z</time></trkpt><trkpt lat="38.9403721" lon="16.5099218"><ele>604.0</ele><time>2026-04-11T15:32:15.674Z</time></trkpt><trkpt lat="38.9404901" lon="16.5099806"><ele>607.0</ele><time>2026-04-11T15:32:16.674Z</time></trkpt><trkpt lat="38.940603" lon="16.5099973"><ele>610.0</ele><time>2026-04-11T15:32:17.674Z</time></trkpt><trkpt lat="38.9407187" lon="16.5099542"><ele>610.0</ele><time>2026-04-11T15:32:18.675Z</time></trkpt><trkpt lat="38.9408316" lon="16.5098577"><ele>610.0</ele><time>2026-04-11T15:32:19.675Z</time></trkpt><trkpt lat="38.9409332" lon="16.5097442"><ele>610.0</ele><time>2026-04-11T15:32:20.674Z</time></trkpt><trkpt lat="38.9410155" lon="16.5096361"><ele>610.0</ele><time>2026-04-11T15:32:21.674Z</time></trkpt><trkpt lat="38.9410751" lon="16.5095353"><ele>611.1666666666667</ele><time>2026-04-11T15:32:22.675Z</time></trkpt><trkpt lat="38.9411178" lon="16.5094342"><ele>612.3333333333334</ele><time>2026-04-11T15:32:23.674Z</time></trkpt><trkpt lat="38.9411714" lon="16.5093116"><ele>613.5</ele><time>2026-04-11T15:32:25.675Z</time></trkpt><trkpt lat="38.9412353" lon="16.5092766"><ele>614.6666666666666</ele><time>2026-04-11T15:32:28.675Z</time></trkpt><trkpt lat="38.9412822" lon="16.5093727"><ele>615.8333333333333</ele><time>2026-04-11T15:33:20.675Z</time></trkpt><trkpt lat="38.9413197" lon="16.5094701"><ele>617.0</ele><time>2026-04-11T15:33:22.674Z</time></trkpt><trkpt lat="38.9413414" lon="16.5095733"><ele>618.6</ele><time>2026-04-11T15:33:24.674Z</time></trkpt><trkpt lat="38.9413019" lon="16.5096725"><ele>620.2</ele><time>2026-04-11T15:33:26.674Z</time></trkpt><trkpt lat="38.9412051" lon="16.5097809"><ele>621.8</ele><time>2026-04-11T15:33:28.674Z</time></trkpt><trkpt lat="38.9411464" lon="16.5098363"><ele>623.4</ele><time>2026-04-11T15:33:29.675Z</time></trkpt><trkpt lat="38.9410766" lon="16.5098888"><ele>625.0</ele><time>2026-04-11T15:33:30.675Z</time></trkpt><trkpt lat="38.9410043" lon="16.509951"><ele>625.0</ele><time>2026-04-11T15:33:31.674Z</time></trkpt><trkpt lat="38.9409351" lon="16.5100326"><ele>625.0</ele><time>2026-04-11T15:33:32.675Z</time></trkpt><trkpt lat="38.940864" lon="16.5101143"><ele>625.0</ele><time>2026-04-11T15:33:33.675Z</time></trkpt><trkpt lat="38.9407887" lon="16.5102031"><ele>625.0</ele><time>2026-04-11T15:33:34.674Z</time></trkpt><trkpt lat="38.9407115" lon="16.5102997"><ele>625.0</ele><time>2026-04-11T15:33:35.674Z</time></trkpt><trkpt lat="38.9406389" lon="16.5103824"><ele>623.8</ele><time>2026-04-11T15:33:36.674Z</time></trkpt><trkpt lat="38.9405823" lon="16.510474"><ele>622.6</ele><time>2026-04-11T15:33:37.674Z</time></trkpt><trkpt lat="38.9405399" lon="16.5105918"><ele>621.4</ele><time>2026-04-11T15:33:38.675Z</time></trkpt><trkpt lat="38.9405203" lon="16.5107263"><ele>620.2</ele><time>2026-04-11T15:33:39.674Z</time></trkpt><trkpt lat="38.9405096" lon="16.5108596"><ele>619.0</ele><time>2026-04-11T15:33:40.675Z</time></trkpt><trkpt lat="38.9405136" lon="16.5109914"><ele>619.0</ele><time>2026-04-11T15:33:41.675Z</time></trkpt><trkpt lat="38.940537" lon="16.511135"><ele>619.0</ele><time>2026-04-11T15:33:42.674Z</time></trkpt><trkpt lat="38.9405623" lon="16.5112768"><ele>619.0</ele><time>2026-04-11T15:33:43.674Z</time></trkpt><trkpt lat="38.9405895" lon="16.5114077"><ele>619.0</ele><time>2026-04-11T15:33:44.675Z</time></trkpt><trkpt lat="38.94062" lon="16.5115338"><ele>619.0</ele><time>2026-04-11T15:33:45.674Z</time></trkpt><trkpt lat="38.9406679" lon="16.511651"><ele>618.8333333333334</ele><time>2026-04-11T15:33:46.674Z</time></trkpt><trkpt lat="38.9407193" lon="16.5117504"><ele>618.6666666666667</ele><time>2026-04-11T15:33:47.674Z</time></trkpt><trkpt lat="38.9407839" lon="16.5118335"><ele>618.5</ele><time>2026-04-11T15:33:48.675Z</time></trkpt><trkpt lat="38.9408578" lon="16.511892"><ele>618.3333333333334</ele><time>2026-04-11T15:33:49.675Z</time></trkpt><trkpt lat="38.9409352" lon="16.5118889"><ele>618.1666666666666</ele><time>2026-04-11T15:33:50.675Z</time></trkpt><trkpt lat="38.9410088" lon="16.5118364"><ele>618.0</ele><time>2026-04-11T15:33:51.675Z</time></trkpt><trkpt lat="38.9410808" lon="16.5117328"><ele>618.75</ele><time>2026-04-11T15:33:52.674Z</time></trkpt><trkpt lat="38.941158" lon="16.5116049"><ele>619.5</ele><time>2026-04-11T15:33:53.675Z</time></trkpt><trkpt lat="38.9412282" lon="16.5114517"><ele>620.25</ele><time>2026-04-11T15:33:54.674Z</time></trkpt><trkpt lat="38.9412977" lon="16.5113048"><ele>621.0</ele><time>2026-04-11T15:33:55.675Z</time></trkpt><trkpt lat="38.94137" lon="16.5111592"><ele>621.0</ele><time>2026-04-11T15:33:56.675Z</time></trkpt><trkpt lat="38.9414602" lon="16.5110269"><ele>621.0</ele><time>2026-04-11T15:33:57.674Z</time></trkpt><trkpt lat="38.9415741" lon="16.5109034"><ele>621.0</ele><time>2026-04-11T15:33:58.674Z</time></trkpt><trkpt lat="38.941697" lon="16.5107958"><ele>621.0</ele><time>2026-04-11T15:33:59.675Z</time></trkpt><trkpt lat="38.9418309" lon="16.510699"><ele>621.5</ele><time>2026-04-11T15:34:00.674Z</time></trkpt><trkpt lat="38.9419572" lon="16.5106034"><ele>622.0</ele><time>2026-04-11T15:34:01.675Z</time></trkpt><trkpt lat="38.9420599" lon="16.5104923"><ele>622.5</ele><time>2026-04-11T15:34:02.674Z</time></trkpt><trkpt lat="38.9421421" lon="16.5103514"><ele>623.0</ele><time>2026-04-11T15:34:03.675Z</time></trkpt><trkpt lat="38.9422088" lon="16.5101869"><ele>623.0</ele><time>2026-04-11T15:34:04.674Z</time></trkpt><trkpt lat="38.9422841" lon="16.5100317"><ele>623.0</ele><time>2026-04-11T15:34:05.674Z</time></trkpt><trkpt lat="38.9423661" lon="16.5098974"><ele>623.0</ele><time>2026-04-11T15:34:06.674Z</time></trkpt><trkpt lat="38.942463" lon="16.509782"><ele>623.0</ele><time>2026-04-11T15:34:07.675Z</time></trkpt><trkpt lat="38.9425655" lon="16.5097023"><ele>623.25</ele><time>2026-04-11T15:34:08.675Z</time></trkpt><trkpt lat="38.9426719" lon="16.5096412"><ele>623.5</ele><time>2026-04-11T15:34:09.674Z</time></trkpt><trkpt lat="38.9427926" lon="16.5095918"><ele>623.75</ele><time>2026-04-11T15:34:10.675Z</time></trkpt><trkpt lat="38.9429163" lon="16.5095452"><ele>624.0</ele><time>2026-04-11T15:34:11.675Z</time></trkpt><trkpt lat="38.9430494" lon="16.5095186"><ele>626.5</ele><time>2026-04-11T15:34:12.675Z</time></trkpt><trkpt lat="38.9431693" lon="16.5095201"><ele>629.0</ele><time>2026-04-11T15:34:13.674Z</time></trkpt><trkpt lat="38.9432879" lon="16.5095314"><ele>631.5</ele><time>2026-04-11T15:34:14.674Z</time></trkpt><trkpt lat="38.9434028" lon="16.5095433"><ele>634.0</ele><time>2026-04-11T15:34:15.675Z</time></trkpt><trkpt lat="38.9435136" lon="16.5095434"><ele>634.2</ele><time>2026-04-11T15:34:16.674Z</time></trkpt><trkpt lat="38.9436187" lon="16.5095208"><ele>634.4</ele><time>2026-04-11T15:34:17.674Z</time></trkpt><trkpt lat="38.9437115" lon="16.5095"><ele>634.6</ele><time>2026-04-11T15:34:18.674Z</time></trkpt><trkpt lat="38.9437945" lon="16.509474"><ele>634.8</ele><time>2026-04-11T15:34:19.674Z</time></trkpt><trkpt lat="38.9438797" lon="16.5094499"><ele>635.0</ele><time>2026-04-11T15:34:20.674Z</time></trkpt><trkpt lat="38.9439576" lon="16.509441"><ele>635.0</ele><time>2026-04-11T15:34:21.674Z</time></trkpt><trkpt lat="38.9440394" lon="16.509401"><ele>635.0</ele><time>2026-04-11T15:34:22.674Z</time></trkpt><trkpt lat="38.9441195" lon="16.5093503"><ele>635.0</ele><time>2026-04-11T15:34:23.674Z</time></trkpt><trkpt lat="38.9441948" lon="16.5093009"><ele>635.0</ele><time>2026-04-11T15:34:24.674Z</time></trkpt><trkpt lat="38.9442693" lon="16.5092528"><ele>635.0</ele><time>2026-04-11T15:34:25.674Z</time></trkpt><trkpt lat="38.9443402" lon="16.5092018"><ele>635.0</ele><time>2026-04-11T15:34:26.674Z</time></trkpt><trkpt lat="38.9444043" lon="16.5091414"><ele>634.0</ele><time>2026-04-11T15:34:27.674Z</time></trkpt><trkpt lat="38.944479" lon="16.5090755"><ele>633.0</ele><time>2026-04-11T15:34:28.674Z</time></trkpt><trkpt lat="38.9445749" lon="16.5090142"><ele>632.0</ele><time>2026-04-11T15:34:29.674Z</time></trkpt><trkpt lat="38.9446446" lon="16.50897"><ele>631.0</ele><time>2026-04-11T15:34:30.675Z</time></trkpt><trkpt lat="38.9447173" lon="16.5089282"><ele>630.0</ele><time>2026-04-11T15:34:31.675Z</time></trkpt><trkpt lat="38.9447837" lon="16.5088929"><ele>629.0</ele><time>2026-04-11T15:34:32.674Z</time></trkpt><trkpt lat="38.9448488" lon="16.5088734"><ele>629.0</ele><time>2026-04-11T15:34:33.674Z</time></trkpt><trkpt lat="38.944915" lon="16.5088632"><ele>629.0</ele><time>2026-04-11T15:34:34.674Z</time></trkpt><trkpt lat="38.944979" lon="16.5088565"><ele>629.0</ele><time>2026-04-11T15:34:35.674Z</time></trkpt><trkpt lat="38.9451039" lon="16.508854"><ele>629.0</ele><time>2026-04-11T15:34:37.674Z</time></trkpt><trkpt lat="38.945225" lon="16.5088444"><ele>629.0</ele><time>2026-04-11T15:34:39.675Z</time></trkpt><trkpt lat="38.9452887" lon="16.5088222"><ele>629.0</ele><time>2026-04-11T15:34:40.674Z</time></trkpt><trkpt lat="38.9453512" lon="16.5087979"><ele>632.8</ele><time>2026-04-11T15:34:41.675Z</time></trkpt><trkpt lat="38.945468" lon="16.5087407"><ele>636.5999999999999</ele><time>2026-04-11T15:34:43.675Z</time></trkpt><trkpt lat="38.9455777" lon="16.5086741"><ele>640.4</ele><time>2026-04-11T15:34:45.674Z</time></trkpt><trkpt lat="38.9456373" lon="16.5086437"><ele>644.1999999999999</ele><time>2026-04-11T15:34:46.675Z</time></trkpt><trkpt lat="38.945749" lon="16.5085961"><ele>648.0</ele><time>2026-04-11T15:34:48.674Z</time></trkpt><trkpt lat="38.945855" lon="16.5085798"><ele>648.3333333333334</ele><time>2026-04-11T15:34:50.675Z</time></trkpt><trkpt lat="38.9459702" lon="16.5085919"><ele>648.6666666666666</ele><time>2026-04-11T15:34:52.674Z</time></trkpt><trkpt lat="38.946033" lon="16.5086006"><ele>649.0</ele><time>2026-04-11T15:34:53.674Z</time></trkpt><trkpt lat="38.946102" lon="16.5086136"><ele>649.3333333333333</ele><time>2026-04-11T15:34:54.675Z</time></trkpt><trkpt lat="38.9461695" lon="16.5086323"><ele>649.6666666666666</ele><time>2026-04-11T15:34:55.675Z</time></trkpt><trkpt lat="38.9462412" lon="16.5086388"><ele>650.0</ele><time>2026-04-11T15:34:56.674Z</time></trkpt><trkpt lat="38.9463073" lon="16.5086408"><ele>650.0</ele><time>2026-04-11T15:34:57.674Z</time></trkpt><trkpt lat="38.9464277" lon="16.5086254"><ele>650.0</ele><time>2026-04-11T15:34:59.674Z</time></trkpt><trkpt lat="38.9464969" lon="16.5086024"><ele>650.0</ele><time>2026-04-11T15:35:00.674Z</time></trkpt><trkpt lat="38.9465689" lon="16.5085826"><ele>650.0</ele><time>2026-04-11T15:35:01.674Z</time></trkpt><trkpt lat="38.9466394" lon="16.5085654"><ele>650.0</ele><time>2026-04-11T15:35:02.675Z</time></trkpt><trkpt lat="38.9467124" lon="16.5085434"><ele>650.0</ele><time>2026-04-11T15:35:03.674Z</time></trkpt><trkpt lat="38.9467766" lon="16.508529"><ele>649.8333333333333</ele><time>2026-04-11T15:35:04.674Z</time></trkpt><trkpt lat="38.9468998" lon="16.5085255"><ele>649.6666666666666</ele><time>2026-04-11T15:35:06.675Z</time></trkpt><trkpt lat="38.9470012" lon="16.5085038"><ele>649.5</ele><time>2026-04-11T15:35:08.674Z</time></trkpt><trkpt lat="38.9470727" lon="16.5085111"><ele>649.3333333333334</ele><time>2026-04-11T15:35:10.675Z</time></trkpt><trkpt lat="38.9471341" lon="16.5085349"><ele>649.1666666666667</ele><time>2026-04-11T15:35:12.675Z</time></trkpt><trkpt lat="38.9471962" lon="16.508577"><ele>649.0</ele><time>2026-04-11T15:35:14.675Z</time></trkpt><trkpt lat="38.9472574" lon="16.5086072"><ele>649.0</ele><time>2026-04-11T15:35:16.675Z</time></trkpt><trkpt lat="38.9473275" lon="16.5086663"><ele>649.0</ele><time>2026-04-11T15:35:18.674Z</time></trkpt><trkpt lat="38.9473918" lon="16.5087941"><ele>649.0</ele><time>2026-04-11T15:35:20.675Z</time></trkpt><trkpt lat="38.9474258" lon="16.5088655"><ele>649.0</ele><time>2026-04-11T15:35:21.674Z</time></trkpt><trkpt lat="38.9474594" lon="16.5089408"><ele>649.0</ele><time>2026-04-11T15:35:22.675Z</time></trkpt><trkpt lat="38.9475218" lon="16.5090747"><ele>652.0</ele><time>2026-04-11T15:35:24.674Z</time></trkpt><trkpt lat="38.9475914" lon="16.5091779"><ele>655.0</ele><time>2026-04-11T15:35:26.675Z</time></trkpt><trkpt lat="38.9476237" lon="16.5092541"><ele>658.0</ele><time>2026-04-11T15:35:28.674Z</time></trkpt><trkpt lat="38.9475989" lon="16.5093313"><ele>661.0</ele><time>2026-04-11T15:35:31.674Z</time></trkpt><trkpt lat="38.9476737" lon="16.5092533"><ele>664.0</ele><time>2026-04-11T16:34:06.67Z</time></trkpt><trkpt lat="38.9476285" lon="16.509125"><ele>667.0</ele><time>2026-04-11T16:34:09.67Z</time></trkpt><trkpt lat="38.9475636" lon="16.509004"><ele>663.4000000000001</ele><time>2026-04-11T16:34:11.67Z</time></trkpt><trkpt lat="38.9474959" lon="16.508889"><ele>659.8000000000001</ele><time>2026-04-11T16:34:13.671Z</time></trkpt><trkpt lat="38.9474494" lon="16.5087771"><ele>656.2</ele><time>2026-04-11T16:34:15.67Z</time></trkpt><trkpt lat="38.9473938" lon="16.5086743"><ele>652.6</ele><time>2026-04-11T16:34:17.671Z</time></trkpt><trkpt lat="38.947354" lon="16.5085584"><ele>649.0</ele><time>2026-04-11T16:34:19.67Z</time></trkpt><trkpt lat="38.9473103" lon="16.5084376"><ele>649.0</ele><time>2026-04-11T16:34:21.67Z</time></trkpt><trkpt lat="38.9472528" lon="16.5083223"><ele>649.0</ele><time>2026-04-11T16:34:23.67Z</time></trkpt><trkpt lat="38.9471866" lon="16.5082286"><ele>649.0</ele><time>2026-04-11T16:34:25.67Z</time></trkpt><trkpt lat="38.9472583" lon="16.5082969"><ele>649.0</ele><time>2026-04-11T16:38:09.67Z</time></trkpt><trkpt lat="38.9472953" lon="16.5083771"><ele>649.0</ele><time>2026-04-11T16:38:11.67Z</time></trkpt><trkpt lat="38.9472623" lon="16.5084914"><ele>649.0</ele><time>2026-04-11T16:38:14.669Z</time></trkpt><trkpt lat="38.9472609" lon="16.5085835"><ele>649.0</ele><time>2026-04-11T16:38:16.669Z</time></trkpt><trkpt lat="38.947301" lon="16.5086669"><ele>649.0</ele><time>2026-04-11T16:38:18.67Z</time></trkpt><trkpt lat="38.947361" lon="16.5087509"><ele>649.0</ele><time>2026-04-11T16:38:20.67Z</time></trkpt><trkpt lat="38.9474091" lon="16.5088264"><ele>649.0</ele><time>2026-04-11T16:38:22.67Z</time></trkpt><trkpt lat="38.9474571" lon="16.5089067"><ele>649.0</ele><time>2026-04-11T16:38:24.669Z</time></trkpt><trkpt lat="38.9475334" lon="16.5090432"><ele>648.5714285714286</ele><time>2026-04-11T16:38:26.67Z</time></trkpt><trkpt lat="38.9475845" lon="16.50912"><ele>648.1428571428571</ele><time>2026-04-11T16:38:27.669Z</time></trkpt><trkpt lat="38.9476318" lon="16.5092063"><ele>647.7142857142858</ele><time>2026-04-11T16:38:29.67Z</time></trkpt><trkpt lat="38.9475683" lon="16.5091693"><ele>647.2857142857142</ele><time>2026-04-11T16:54:55.668Z</time></trkpt><trkpt lat="38.9475148" lon="16.5091074"><ele>646.8571428571429</ele><time>2026-04-11T16:54:58.669Z</time></trkpt><trkpt lat="38.9475758" lon="16.5091316"><ele>646.4285714285714</ele><time>2026-04-11T16:55:02.668Z</time></trkpt><trkpt lat="38.9476369" lon="16.5091915"><ele>646.0</ele><time>2026-04-11T16:55:31.669Z</time></trkpt><trkpt lat="38.9477141" lon="16.5092272"><ele>645.3333333333334</ele><time>2026-04-11T16:55:34.669Z</time></trkpt><trkpt lat="38.9477848" lon="16.5092984"><ele>644.6666666666667</ele><time>2026-04-11T16:55:36.668Z</time></trkpt><trkpt lat="38.9478825" lon="16.5093944"><ele>644.0</ele><time>2026-04-11T16:55:38.669Z</time></trkpt><trkpt lat="38.9479355" lon="16.5094586"><ele>643.3333333333334</ele><time>2026-04-11T16:55:39.668Z</time></trkpt><trkpt lat="38.9479971" lon="16.5095122"><ele>642.6666666666666</ele><time>2026-04-11T16:55:40.668Z</time></trkpt><trkpt lat="38.948056" lon="16.5095523"><ele>642.0</ele><time>2026-04-11T16:55:41.668Z</time></trkpt><trkpt lat="38.9481125" lon="16.5095974"><ele>642.0</ele><time>2026-04-11T16:55:42.668Z</time></trkpt><trkpt lat="38.9481767" lon="16.5096254"><ele>642.0</ele><time>2026-04-11T16:55:43.668Z</time></trkpt><trkpt lat="38.9482496" lon="16.5096658"><ele>642.0</ele><time>2026-04-11T16:55:44.669Z</time></trkpt><trkpt lat="38.948323" lon="16.5097064"><ele>642.0</ele><time>2026-04-11T16:55:45.668Z</time></trkpt><trkpt lat="38.9483921" lon="16.5097496"><ele>642.0</ele><time>2026-04-11T16:55:46.668Z</time></trkpt><trkpt lat="38.9484593" lon="16.5097961"><ele>642.0</ele><time>2026-04-11T16:55:47.668Z</time></trkpt><trkpt lat="38.9485232" lon="16.509843"><ele>644.1666666666666</ele><time>2026-04-11T16:55:48.668Z</time></trkpt><trkpt lat="38.9485882" lon="16.5098913"><ele>646.3333333333334</ele><time>2026-04-11T16:55:49.669Z</time></trkpt><trkpt lat="38.9486562" lon="16.5099403"><ele>648.5</ele><time>2026-04-11T16:55:50.669Z</time></trkpt><trkpt lat="38.948717" lon="16.5099995"><ele>650.6666666666667</ele><time>2026-04-11T16:55:51.668Z</time></trkpt><trkpt lat="38.9487708" lon="16.51006"><ele>652.8333333333334</ele><time>2026-04-11T16:55:52.668Z</time></trkpt><trkpt lat="38.9488189" lon="16.5101244"><ele>655.0</ele><time>2026-04-11T16:55:53.669Z</time></trkpt><trkpt lat="38.9488661" lon="16.5102108"><ele>655.0</ele><time>2026-04-11T16:55:54.668Z</time></trkpt><trkpt lat="38.9489217" lon="16.5103231"><ele>655.0</ele><time>2026-04-11T16:55:55.669Z</time></trkpt><trkpt lat="38.9489849" lon="16.5104558"><ele>655.0</ele><time>2026-04-11T16:55:56.668Z</time></trkpt><trkpt lat="38.9490488" lon="16.5105733"><ele>655.0</ele><time>2026-04-11T16:55:57.668Z</time></trkpt><trkpt lat="38.9491171" lon="16.5106724"><ele>655.0</ele><time>2026-04-11T16:55:58.668Z</time></trkpt><trkpt lat="38.9491871" lon="16.5107541"><ele>653.3333333333334</ele><time>2026-04-11T16:55:59.668Z</time></trkpt><trkpt lat="38.9492578" lon="16.5108325"><ele>651.6666666666667</ele><time>2026-04-11T16:56:00.669Z</time></trkpt><trkpt lat="38.9493312" lon="16.5109037"><ele>650.0</ele><time>2026-04-11T16:56:01.669Z</time></trkpt><trkpt lat="38.9493984" lon="16.5109699"><ele>648.3333333333334</ele><time>2026-04-11T16:56:02.668Z</time></trkpt><trkpt lat="38.9494593" lon="16.5110175"><ele>646.6666666666666</ele><time>2026-04-11T16:56:03.669Z</time></trkpt><trkpt lat="38.9495326" lon="16.5110634"><ele>645.0</ele><time>2026-04-11T16:56:04.669Z</time></trkpt><trkpt lat="38.9496034" lon="16.5110902"><ele>645.0</ele><time>2026-04-11T16:56:05.668Z</time></trkpt><trkpt lat="38.9496824" lon="16.5111326"><ele>645.0</ele><time>2026-04-11T16:56:06.668Z</time></trkpt><trkpt lat="38.9497583" lon="16.5111781"><ele>645.0</ele><time>2026-04-11T16:56:07.668Z</time></trkpt><trkpt lat="38.9498311" lon="16.5112266"><ele>645.0</ele><time>2026-04-11T16:56:08.668Z</time></trkpt><trkpt lat="38.9498938" lon="16.5112765"><ele>645.0</ele><time>2026-04-11T16:56:09.668Z</time></trkpt><trkpt lat="38.9499521" lon="16.5113262"><ele>645.0</ele><time>2026-04-11T16:56:10.669Z</time></trkpt><trkpt lat="38.9500098" lon="16.5113669"><ele>645.1666666666666</ele><time>2026-04-11T16:56:11.668Z</time></trkpt><trkpt lat="38.9501071" lon="16.5114141"><ele>645.3333333333334</ele><time>2026-04-11T16:56:13.668Z</time></trkpt><trkpt lat="38.9501902" lon="16.5114489"><ele>645.5</ele><time>2026-04-11T16:56:15.668Z</time></trkpt><trkpt lat="38.9503044" lon="16.5114283"><ele>645.6666666666667</ele><time>2026-04-11T16:56:17.669Z</time></trkpt><trkpt lat="38.9503687" lon="16.5114102"><ele>645.8333333333334</ele><time>2026-04-11T16:56:18.668Z</time></trkpt><trkpt lat="38.9504383" lon="16.5113967"><ele>646.0</ele><time>2026-04-11T16:56:19.668Z</time></trkpt><trkpt lat="38.9505104" lon="16.5113798"><ele>646.0</ele><time>2026-04-11T16:56:20.668Z</time></trkpt><trkpt lat="38.9505886" lon="16.5113778"><ele>646.0</ele><time>2026-04-11T16:56:21.669Z</time></trkpt><trkpt lat="38.9506707" lon="16.5113896"><ele>646.0</ele><time>2026-04-11T16:56:22.669Z</time></trkpt><trkpt lat="38.9507554" lon="16.5114177"><ele>646.0</ele><time>2026-04-11T16:56:23.668Z</time></trkpt><trkpt lat="38.9508425" lon="16.5114624"><ele>646.0</ele><time>2026-04-11T16:56:24.668Z</time></trkpt><trkpt lat="38.9509249" lon="16.5115138"><ele>646.0</ele><time>2026-04-11T16:56:25.669Z</time></trkpt><trkpt lat="38.9510078" lon="16.5115701"><ele>646.4</ele><time>2026-04-11T16:56:26.668Z</time></trkpt><trkpt lat="38.9511" lon="16.5116196"><ele>646.8</ele><time>2026-04-11T16:56:27.668Z</time></trkpt><trkpt lat="38.9511912" lon="16.5116513"><ele>647.1999999999999</ele><time>2026-04-11T16:56:28.668Z</time></trkpt><trkpt lat="38.9512891" lon="16.5116608"><ele>647.5999999999999</ele><time>2026-04-11T16:56:29.668Z</time></trkpt><trkpt lat="38.9513934" lon="16.5116575"><ele>648.0</ele><time>2026-04-11T16:56:30.668Z</time></trkpt><trkpt lat="38.9515018" lon="16.5116634"><ele>648.0</ele><time>2026-04-11T16:56:31.669Z</time></trkpt><trkpt lat="38.9516192" lon="16.511681"><ele>648.0</ele><time>2026-04-11T16:56:32.669Z</time></trkpt><trkpt lat="38.9517369" lon="16.5116933"><ele>648.0</ele><time>2026-04-11T16:56:33.668Z</time></trkpt><trkpt lat="38.9518555" lon="16.5117019"><ele>648.0</ele><time>2026-04-11T16:56:34.668Z</time></trkpt><trkpt lat="38.9519733" lon="16.5117003"><ele>649.5</ele><time>2026-04-11T16:56:35.668Z</time></trkpt><trkpt lat="38.9520972" lon="16.5116867"><ele>651.0</ele><time>2026-04-11T16:56:36.668Z</time></trkpt><trkpt lat="38.9522184" lon="16.511658"><ele>652.5</ele><time>2026-04-11T16:56:37.668Z</time></trkpt><trkpt lat="38.95234" lon="16.511619"><ele>654.0</ele><time>2026-04-11T16:56:38.669Z</time></trkpt><trkpt lat="38.9524603" lon="16.5115712"><ele>658.5</ele><time>2026-04-11T16:56:39.668Z</time></trkpt><trkpt lat="38.952586" lon="16.5115215"><ele>663.0</ele><time>2026-04-11T16:56:40.668Z</time></trkpt><trkpt lat="38.9527126" lon="16.5114752"><ele>667.5</ele><time>2026-04-11T16:56:41.668Z</time></trkpt><trkpt lat="38.952844" lon="16.5114402"><ele>672.0</ele><time>2026-04-11T16:56:42.668Z</time></trkpt><trkpt lat="38.9529717" lon="16.511412"><ele>672.0</ele><time>2026-04-11T16:56:43.668Z</time></trkpt><trkpt lat="38.9531016" lon="16.5113893"><ele>672.0</ele><time>2026-04-11T16:56:44.668Z</time></trkpt><trkpt lat="38.9532305" lon="16.5113895"><ele>672.0</ele><time>2026-04-11T16:56:45.668Z</time></trkpt><trkpt lat="38.9533665" lon="16.5114007"><ele>672.0</ele><time>2026-04-11T16:56:46.669Z</time></trkpt><trkpt lat="38.9535" lon="16.5114324"><ele>673.5</ele><time>2026-04-11T16:56:47.668Z</time></trkpt><trkpt lat="38.9536369" lon="16.5114567"><ele>675.0</ele><time>2026-04-11T16:56:48.669Z</time></trkpt><trkpt lat="38.953774" lon="16.5114755"><ele>676.5</ele><time>2026-04-11T16:56:49.668Z</time></trkpt><trkpt lat="38.9539122" lon="16.5114567"><ele>678.0</ele><time>2026-04-11T16:56:50.669Z</time></trkpt><trkpt lat="38.9540473" lon="16.5114138"><ele>678.0</ele><time>2026-04-11T16:56:51.668Z</time></trkpt><trkpt lat="38.9541777" lon="16.5113653"><ele>678.0</ele><time>2026-04-11T16:56:52.669Z</time></trkpt><trkpt lat="38.9543025" lon="16.5113101"><ele>678.0</ele><time>2026-04-11T16:56:53.669Z</time></trkpt><trkpt lat="38.9544219" lon="16.5112346"><ele>678.0</ele><time>2026-04-11T16:56:54.669Z</time></trkpt><trkpt lat="38.9545366" lon="16.5111604"><ele>673.25</ele><time>2026-04-11T16:56:55.668Z</time></trkpt><trkpt lat="38.9546513" lon="16.5110886"><ele>668.5</ele><time>2026-04-11T16:56:56.668Z</time></trkpt><trkpt lat="38.9547621" lon="16.5110234"><ele>663.75</ele><time>2026-04-11T16:56:57.668Z</time></trkpt><trkpt lat="38.9548791" lon="16.5109645"><ele>659.0</ele><time>2026-04-11T16:56:58.668Z</time></trkpt><trkpt lat="38.9549928" lon="16.5109165"><ele>662.4000000000001</ele><time>2026-04-11T16:56:59.668Z</time></trkpt><trkpt lat="38.9550968" lon="16.51088"><ele>665.8</ele><time>2026-04-11T16:57:00.669Z</time></trkpt><trkpt lat="38.955197" lon="16.5108384"><ele>669.2</ele><time>2026-04-11T16:57:01.669Z</time></trkpt><trkpt lat="38.9552902" lon="16.5107917"><ele>672.5999999999999</ele><time>2026-04-11T16:57:02.668Z</time></trkpt><trkpt lat="38.9553739" lon="16.5107452"><ele>676.0</ele><time>2026-04-11T16:57:03.668Z</time></trkpt><trkpt lat="38.955446" lon="16.5106959"><ele>676.0</ele><time>2026-04-11T16:57:04.669Z</time></trkpt><trkpt lat="38.9555066" lon="16.5106476"><ele>676.0</ele><time>2026-04-11T16:57:05.669Z</time></trkpt><trkpt lat="38.9556018" lon="16.5105699"><ele>676.0</ele><time>2026-04-11T16:57:07.669Z</time></trkpt><trkpt lat="38.9556758" lon="16.5105111"><ele>676.0</ele><time>2026-04-11T16:57:09.668Z</time></trkpt><trkpt lat="38.955735" lon="16.5104693"><ele>676.0</ele><time>2026-04-11T16:57:11.668Z</time></trkpt><trkpt lat="38.9558309" lon="16.5104425"><ele>676.0</ele><time>2026-04-11T16:59:57.668Z</time></trkpt><trkpt lat="38.9558839" lon="16.5103958"><ele>672.4285714285714</ele><time>2026-04-11T16:59:58.669Z</time></trkpt><trkpt lat="38.9559374" lon="16.5103431"><ele>668.8571428571429</ele><time>2026-04-11T16:59:59.668Z</time></trkpt><trkpt lat="38.9559876" lon="16.5102863"><ele>665.2857142857142</ele><time>2026-04-11T17:00:00.668Z</time></trkpt><trkpt lat="38.9560461" lon="16.5102333"><ele>661.7142857142858</ele><time>2026-04-11T17:00:01.668Z</time></trkpt><trkpt lat="38.9561046" lon="16.5101832"><ele>658.1428571428571</ele><time>2026-04-11T17:00:02.668Z</time></trkpt><trkpt lat="38.9561725" lon="16.5101358"><ele>654.5714285714286</ele><time>2026-04-11T17:00:03.668Z</time></trkpt><trkpt lat="38.9562463" lon="16.5100922"><ele>651.0</ele><time>2026-04-11T17:00:04.668Z</time></trkpt><trkpt lat="38.9563246" lon="16.5100586"><ele>651.0</ele><time>2026-04-11T17:00:05.669Z</time></trkpt><trkpt lat="38.9564151" lon="16.5100338"><ele>651.0</ele><time>2026-04-11T17:00:06.669Z</time></trkpt><trkpt lat="38.9565059" lon="16.5100336"><ele>651.0</ele><time>2026-04-11T17:00:07.669Z</time></trkpt><trkpt lat="38.9566007" lon="16.5100489"><ele>651.0</ele><time>2026-04-11T17:00:08.668Z</time></trkpt><trkpt lat="38.9567029" lon="16.5100771"><ele>651.0</ele><time>2026-04-11T17:00:09.668Z</time></trkpt><trkpt lat="38.9568091" lon="16.5101127"><ele>652.4</ele><time>2026-04-11T17:00:10.668Z</time></trkpt><trkpt lat="38.9569115" lon="16.5101361"><ele>653.8</ele><time>2026-04-11T17:00:11.669Z</time></trkpt><trkpt lat="38.9570195" lon="16.5101466"><ele>655.1999999999999</ele><time>2026-04-11T17:00:12.668Z</time></trkpt><trkpt lat="38.9571223" lon="16.5101513"><ele>656.5999999999999</ele><time>2026-04-11T17:00:13.669Z</time></trkpt><trkpt lat="38.9572362" lon="16.510158"><ele>658.0</ele><time>2026-04-11T17:00:14.669Z</time></trkpt><trkpt lat="38.9573504" lon="16.51016"><ele>658.0</ele><time>2026-04-11T17:00:15.668Z</time></trkpt><trkpt lat="38.957473" lon="16.5101603"><ele>658.0</ele><time>2026-04-11T17:00:16.668Z</time></trkpt><trkpt lat="38.9575983" lon="16.5101596"><ele>658.0</ele><time>2026-04-11T17:00:17.669Z</time></trkpt><trkpt lat="38.9577221" lon="16.5101589"><ele>658.0</ele><time>2026-04-11T17:00:18.668Z</time></trkpt><trkpt lat="38.9578381" lon="16.5101544"><ele>660.75</ele><time>2026-04-11T17:00:19.669Z</time></trkpt><trkpt lat="38.9579613" lon="16.510158"><ele>663.5</ele><time>2026-04-11T17:00:20.669Z</time></trkpt><trkpt lat="38.9580912" lon="16.5101806"><ele>666.25</ele><time>2026-04-11T17:00:21.668Z</time></trkpt><trkpt lat="38.9582182" lon="16.5102043"><ele>669.0</ele><time>2026-04-11T17:00:22.668Z</time></trkpt><trkpt lat="38.95834" lon="16.51023"><ele>670.25</ele><time>2026-04-11T17:00:23.668Z</time></trkpt><trkpt lat="38.9584628" lon="16.5102629"><ele>671.5</ele><time>2026-04-11T17:00:24.668Z</time></trkpt><trkpt lat="38.9585772" lon="16.5103099"><ele>672.75</ele><time>2026-04-11T17:00:25.668Z</time></trkpt><trkpt lat="38.9586794" lon="16.5103704"><ele>674.0</ele><time>2026-04-11T17:00:26.669Z</time></trkpt><trkpt lat="38.9587736" lon="16.5104548"><ele>674.0</ele><time>2026-04-11T17:00:27.668Z</time></trkpt><trkpt lat="38.9588632" lon="16.5105481"><ele>674.0</ele><time>2026-04-11T17:00:28.669Z</time></trkpt><trkpt lat="38.9589434" lon="16.5106515"><ele>674.0</ele><time>2026-04-11T17:00:29.669Z</time></trkpt><trkpt lat="38.9590084" lon="16.510759"><ele>674.0</ele><time>2026-04-11T17:00:30.668Z</time></trkpt><trkpt lat="38.9590766" lon="16.5108757"><ele>674.0</ele><time>2026-04-11T17:00:31.668Z</time></trkpt><trkpt lat="38.9591435" lon="16.5109931"><ele>675.4000000000001</ele><time>2026-04-11T17:00:32.668Z</time></trkpt><trkpt lat="38.959215" lon="16.5111115"><ele>676.8</ele><time>2026-04-11T17:00:33.668Z</time></trkpt><trkpt lat="38.959289" lon="16.5112225"><ele>678.2</ele><time>2026-04-11T17:00:34.668Z</time></trkpt><trkpt lat="38.95936" lon="16.5113178"><ele>679.5999999999999</ele><time>2026-04-11T17:00:35.668Z</time></trkpt><trkpt lat="38.9594346" lon="16.5113871"><ele>681.0</ele><time>2026-04-11T17:00:36.669Z</time></trkpt><trkpt lat="38.9595191" lon="16.5114108"><ele>681.0</ele><time>2026-04-11T17:00:37.668Z</time></trkpt><trkpt lat="38.9596182" lon="16.5114268"><ele>681.0</ele><time>2026-04-11T17:00:38.668Z</time></trkpt><trkpt lat="38.95972" lon="16.5113979"><ele>681.0</ele><time>2026-04-11T17:00:39.669Z</time></trkpt><trkpt lat="38.9598029" lon="16.5113175"><ele>681.0</ele><time>2026-04-11T17:00:40.669Z</time></trkpt><trkpt lat="38.9598736" lon="16.5111902"><ele>681.0</ele><time>2026-04-11T17:00:41.668Z</time></trkpt><trkpt lat="38.9599437" lon="16.5110536"><ele>681.0</ele><time>2026-04-11T17:00:42.668Z</time></trkpt><trkpt lat="38.960008" lon="16.5109427"><ele>681.0</ele><time>2026-04-11T17:00:43.668Z</time></trkpt><trkpt lat="38.960091" lon="16.5108462"><ele>681.0</ele><time>2026-04-11T17:00:44.668Z</time></trkpt><trkpt lat="38.9601807" lon="16.5107592"><ele>681.0</ele><time>2026-04-11T17:00:45.669Z</time></trkpt><trkpt lat="38.9602794" lon="16.5106986"><ele>681.0</ele><time>2026-04-11T17:00:46.669Z</time></trkpt><trkpt lat="38.9603875" lon="16.5106506"><ele>686.25</ele><time>2026-04-11T17:00:47.669Z</time></trkpt><trkpt lat="38.9605022" lon="16.5106036"><ele>691.5</ele><time>2026-04-11T17:00:48.668Z</time></trkpt><trkpt lat="38.9606206" lon="16.5105724"><ele>696.75</ele><time>2026-04-11T17:00:49.668Z</time></trkpt><trkpt lat="38.9607424" lon="16.5105559"><ele>702.0</ele><time>2026-04-11T17:00:50.668Z</time></trkpt><trkpt lat="38.9608617" lon="16.5105488"><ele>706.5</ele><time>2026-04-11T17:00:51.668Z</time></trkpt><trkpt lat="38.9609877" lon="16.510542"><ele>711.0</ele><time>2026-04-11T17:00:52.668Z</time></trkpt><trkpt lat="38.9611145" lon="16.510539"><ele>715.5</ele><time>2026-04-11T17:00:53.669Z</time></trkpt><trkpt lat="38.9612395" lon="16.510538"><ele>720.0</ele><time>2026-04-11T17:00:54.669Z</time></trkpt><trkpt lat="38.9613601" lon="16.5105364"><ele>720.0</ele><time>2026-04-11T17:00:55.669Z</time></trkpt><trkpt lat="38.9614876" lon="16.5105189"><ele>720.0</ele><time>2026-04-11T17:00:56.668Z</time></trkpt><trkpt lat="38.961614" lon="16.5104641"><ele>720.0</ele><time>2026-04-11T17:00:57.669Z</time></trkpt><trkpt lat="38.9617343" lon="16.5103743"><ele>720.0</ele><time>2026-04-11T17:00:58.669Z</time></trkpt><trkpt lat="38.961857" lon="16.5102805"><ele>716.5</ele><time>2026-04-11T17:00:59.668Z</time></trkpt><trkpt lat="38.9619751" lon="16.5101848"><ele>713.0</ele><time>2026-04-11T17:01:00.669Z</time></trkpt><trkpt lat="38.9620895" lon="16.5100998"><ele>709.5</ele><time>2026-04-11T17:01:01.668Z</time></trkpt><trkpt lat="38.9622117" lon="16.5100331"><ele>706.0</ele><time>2026-04-11T17:01:02.668Z</time></trkpt><trkpt lat="38.9623292" lon="16.5099736"><ele>706.0</ele><time>2026-04-11T17:01:03.668Z</time></trkpt><trkpt lat="38.9624298" lon="16.5098895"><ele>706.0</ele><time>2026-04-11T17:01:04.669Z</time></trkpt><trkpt lat="38.9625162" lon="16.5097744"><ele>706.0</ele><time>2026-04-11T17:01:05.669Z</time></trkpt><trkpt lat="38.9625752" lon="16.509637"><ele>706.0</ele><time>2026-04-11T17:01:06.668Z</time></trkpt><trkpt lat="38.962601" lon="16.509473"><ele>708.0</ele><time>2026-04-11T17:01:07.669Z</time></trkpt><trkpt lat="38.9626381" lon="16.5093249"><ele>710.0</ele><time>2026-04-11T17:01:08.669Z</time></trkpt><trkpt lat="38.9626982" lon="16.5091927"><ele>712.0</ele><time>2026-04-11T17:01:09.669Z</time></trkpt><trkpt lat="38.9627825" lon="16.509071"><ele>714.0</ele><time>2026-04-11T17:01:10.668Z</time></trkpt><trkpt lat="38.9628864" lon="16.50896"><ele>714.0</ele><time>2026-04-11T17:01:11.668Z</time></trkpt><trkpt lat="38.9630061" lon="16.5088578"><ele>714.0</ele><time>2026-04-11T17:01:12.668Z</time></trkpt><trkpt lat="38.9631301" lon="16.5087653"><ele>714.0</ele><time>2026-04-11T17:01:13.669Z</time></trkpt><trkpt lat="38.96325" lon="16.5086628"><ele>714.0</ele><time>2026-04-11T17:01:14.668Z</time></trkpt><trkpt lat="38.9633552" lon="16.5085641"><ele>718.25</ele><time>2026-04-11T17:01:15.668Z</time></trkpt><trkpt lat="38.9634613" lon="16.5084535"><ele>722.5</ele><time>2026-04-11T17:01:16.668Z</time></trkpt><trkpt lat="38.9635621" lon="16.5083227"><ele>726.75</ele><time>2026-04-11T17:01:17.668Z</time></trkpt><trkpt lat="38.9636522" lon="16.5081725"><ele>731.0</ele><time>2026-04-11T17:01:18.669Z</time></trkpt><trkpt lat="38.9637367" lon="16.5080298"><ele>727.0</ele><time>2026-04-11T17:01:19.669Z</time></trkpt><trkpt lat="38.9638259" lon="16.5078815"><ele>723.0</ele><time>2026-04-11T17:01:20.668Z</time></trkpt><trkpt lat="38.9639167" lon="16.5077247"><ele>719.0</ele><time>2026-04-11T17:01:21.668Z</time></trkpt><trkpt lat="38.9640067" lon="16.5075659"><ele>719.0</ele><time>2026-04-11T17:01:22.668Z</time></trkpt><trkpt lat="38.9641042" lon="16.5074016"><ele>719.0</ele><time>2026-04-11T17:01:23.668Z</time></trkpt><trkpt lat="38.9641993" lon="16.5072197"><ele>719.0</ele><time>2026-04-11T17:01:24.668Z</time></trkpt><trkpt lat="38.9642902" lon="16.507034"><ele>726.0</ele><time>2026-04-11T17:01:25.668Z</time></trkpt><trkpt lat="38.9643676" lon="16.5068416"><ele>733.0</ele><time>2026-04-11T17:01:26.669Z</time></trkpt><trkpt lat="38.9644326" lon="16.5066444"><ele>740.0</ele><time>2026-04-11T17:01:27.668Z</time></trkpt><trkpt lat="38.9645042" lon="16.5064614"><ele>740.0</ele><time>2026-04-11T17:01:28.669Z</time></trkpt><trkpt lat="38.9645836" lon="16.506287"><ele>740.0</ele><time>2026-04-11T17:01:29.668Z</time></trkpt><trkpt lat="38.9646859" lon="16.5061417"><ele>740.0</ele><time>2026-04-11T17:01:30.669Z</time></trkpt><trkpt lat="38.964793" lon="16.5060112"><ele>736.5</ele><time>2026-04-11T17:01:31.668Z</time></trkpt><trkpt lat="38.9648706" lon="16.5058866"><ele>733.0</ele><time>2026-04-11T17:01:32.668Z</time></trkpt><trkpt lat="38.9649214" lon="16.5057347"><ele>729.5</ele><time>2026-04-11T17:01:33.668Z</time></trkpt><trkpt lat="38.9649503" lon="16.5055767"><ele>726.0</ele><time>2026-04-11T17:01:34.668Z</time></trkpt><trkpt lat="38.9649487" lon="16.5053999"><ele>726.0</ele><time>2026-04-11T17:01:35.669Z</time></trkpt><trkpt lat="38.9649283" lon="16.5052232"><ele>726.0</ele><time>2026-04-11T17:01:36.669Z</time></trkpt><trkpt lat="38.9648797" lon="16.5050465"><ele>726.0</ele><time>2026-04-11T17:01:37.668Z</time></trkpt><trkpt lat="38.9648171" lon="16.5048828"><ele>726.0</ele><time>2026-04-11T17:01:38.668Z</time></trkpt><trkpt lat="38.9647732" lon="16.5047265"><ele>725.25</ele><time>2026-04-11T17:01:39.669Z</time></trkpt><trkpt lat="38.9647641" lon="16.5045742"><ele>724.5</ele><time>2026-04-11T17:01:40.669Z</time></trkpt><trkpt lat="38.9647897" lon="16.5044224"><ele>723.75</ele><time>2026-04-11T17:01:41.669Z</time></trkpt><trkpt lat="38.9648525" lon="16.5042845"><ele>723.0</ele><time>2026-04-11T17:01:42.668Z</time></trkpt><trkpt lat="38.9649375" lon="16.504155"><ele>724.0</ele><time>2026-04-11T17:01:43.668Z</time></trkpt><trkpt lat="38.965048" lon="16.5040475"><ele>725.0</ele><time>2026-04-11T17:01:44.668Z</time></trkpt><trkpt lat="38.9651641" lon="16.5039381"><ele>726.0</ele><time>2026-04-11T17:01:45.669Z</time></trkpt><trkpt lat="38.9652658" lon="16.5038289"><ele>727.0</ele><time>2026-04-11T17:01:46.669Z</time></trkpt><trkpt lat="38.9653627" lon="16.5037024"><ele>727.0</ele><time>2026-04-11T17:01:47.668Z</time></trkpt><trkpt lat="38.9654634" lon="16.5035781"><ele>727.0</ele><time>2026-04-11T17:01:48.668Z</time></trkpt><trkpt lat="38.9655605" lon="16.5034465"><ele>727.0</ele><time>2026-04-11T17:01:49.668Z</time></trkpt><trkpt lat="38.9656525" lon="16.5033274"><ele>727.0</ele><time>2026-04-11T17:01:50.668Z</time></trkpt><trkpt lat="38.9657529" lon="16.5032434"><ele>727.0</ele><time>2026-04-11T17:01:51.668Z</time></trkpt><trkpt lat="38.9658584" lon="16.5032132"><ele>727.0</ele><time>2026-04-11T17:01:52.668Z</time></trkpt><trkpt lat="38.9659646" lon="16.5032635"><ele>727.0</ele><time>2026-04-11T17:01:53.668Z</time></trkpt><trkpt lat="38.9660559" lon="16.5033553"><ele>727.0</ele><time>2026-04-11T17:01:54.669Z</time></trkpt><trkpt lat="38.9661385" lon="16.5034425"><ele>727.0</ele><time>2026-04-11T17:01:55.668Z</time></trkpt><trkpt lat="38.9662341" lon="16.5034788"><ele>729.0</ele><time>2026-04-11T17:01:56.669Z</time></trkpt><trkpt lat="38.966335" lon="16.5034619"><ele>731.0</ele><time>2026-04-11T17:01:57.669Z</time></trkpt><trkpt lat="38.9664473" lon="16.503409"><ele>733.0</ele><time>2026-04-11T17:01:58.668Z</time></trkpt><trkpt lat="38.9665684" lon="16.5033525"><ele>735.0</ele><time>2026-04-11T17:01:59.668Z</time></trkpt><trkpt lat="38.966697" lon="16.5033077"><ele>741.75</ele><time>2026-04-11T17:02:00.669Z</time></trkpt><trkpt lat="38.9668349" lon="16.5032929"><ele>748.5</ele><time>2026-04-11T17:02:01.668Z</time></trkpt><trkpt lat="38.9669752" lon="16.5033105"><ele>755.25</ele><time>2026-04-11T17:02:02.668Z</time></trkpt><trkpt lat="38.9671022" lon="16.5033231"><ele>762.0</ele><time>2026-04-11T17:02:03.669Z</time></trkpt><trkpt lat="38.9672177" lon="16.5033316"><ele>762.0</ele><time>2026-04-11T17:02:04.668Z</time></trkpt><trkpt lat="38.9673186" lon="16.5033214"><ele>762.0</ele><time>2026-04-11T17:02:05.668Z</time></trkpt><trkpt lat="38.9673895" lon="16.503256"><ele>762.0</ele><time>2026-04-11T17:02:06.669Z</time></trkpt><trkpt lat="38.9674451" lon="16.5031754"><ele>762.0</ele><time>2026-04-11T17:02:07.668Z</time></trkpt><trkpt lat="38.9674721" lon="16.5030702"><ele>762.0</ele><time>2026-04-11T17:02:08.668Z</time></trkpt><trkpt lat="38.9674685" lon="16.5029566"><ele>762.0</ele><time>2026-04-11T17:02:09.668Z</time></trkpt><trkpt lat="38.967445" lon="16.5028303"><ele>759.5</ele><time>2026-04-11T17:02:10.669Z</time></trkpt><trkpt lat="38.9674065" lon="16.502685"><ele>757.0</ele><time>2026-04-11T17:02:11.668Z</time></trkpt><trkpt lat="38.9673828" lon="16.5025321"><ele>754.5</ele><time>2026-04-11T17:02:12.669Z</time></trkpt><trkpt lat="38.96735" lon="16.5023793"><ele>752.0</ele><time>2026-04-11T17:02:13.668Z</time></trkpt><trkpt lat="38.9673404" lon="16.5022225"><ele>752.75</ele><time>2026-04-11T17:02:14.668Z</time></trkpt><trkpt lat="38.9673777" lon="16.50208"><ele>753.5</ele><time>2026-04-11T17:02:15.668Z</time></trkpt><trkpt lat="38.9674389" lon="16.5019645"><ele>754.25</ele><time>2026-04-11T17:02:16.669Z</time></trkpt><trkpt lat="38.9675273" lon="16.5018606"><ele>755.0</ele><time>2026-04-11T17:02:17.668Z</time></trkpt><trkpt lat="38.9676416" lon="16.5017917"><ele>755.0</ele><time>2026-04-11T17:02:18.668Z</time></trkpt><trkpt lat="38.9677693" lon="16.5017486"><ele>755.0</ele><time>2026-04-11T17:02:19.669Z</time></trkpt><trkpt lat="38.9679051" lon="16.5017157"><ele>755.0</ele><time>2026-04-11T17:02:20.667Z</time></trkpt><trkpt lat="38.9680441" lon="16.501693"><ele>755.0</ele><time>2026-04-11T17:02:21.668Z</time></trkpt><trkpt lat="38.9681891" lon="16.5016758"><ele>755.0</ele><time>2026-04-11T17:02:22.667Z</time></trkpt><trkpt lat="38.9683452" lon="16.5016716"><ele>755.0</ele><time>2026-04-11T17:02:23.667Z</time></trkpt><trkpt lat="38.9684952" lon="16.5016611"><ele>755.0</ele><time>2026-04-11T17:02:24.668Z</time></trkpt><trkpt lat="38.9686498" lon="16.5016481"><ele>757.6666666666666</ele><time>2026-04-11T17:02:25.667Z</time></trkpt><trkpt lat="38.9687993" lon="16.5016239"><ele>760.3333333333334</ele><time>2026-04-11T17:02:26.668Z</time></trkpt><trkpt lat="38.9689502" lon="16.5015925"><ele>763.0</ele><time>2026-04-11T17:02:27.667Z</time></trkpt><trkpt lat="38.9690953" lon="16.5015505"><ele>762.5</ele><time>2026-04-11T17:02:28.667Z</time></trkpt><trkpt lat="38.9692292" lon="16.5015274"><ele>762.0</ele><time>2026-04-11T17:02:29.668Z</time></trkpt><trkpt lat="38.9693501" lon="16.5015588"><ele>761.5</ele><time>2026-04-11T17:02:30.667Z</time></trkpt><trkpt lat="38.9694671" lon="16.5016569"><ele>761.0</ele><time>2026-04-11T17:02:31.667Z</time></trkpt><trkpt lat="38.9695683" lon="16.5018218"><ele>761.0</ele><time>2026-04-11T17:02:32.667Z</time></trkpt><trkpt lat="38.9696535" lon="16.5019798"><ele>761.0</ele><time>2026-04-11T17:02:33.667Z</time></trkpt><trkpt lat="38.9697442" lon="16.5021144"><ele>761.0</ele><time>2026-04-11T17:02:34.667Z</time></trkpt><trkpt lat="38.9698431" lon="16.5021904"><ele>761.0</ele><time>2026-04-11T17:02:35.667Z</time></trkpt><trkpt lat="38.969945" lon="16.5021804"><ele>765.25</ele><time>2026-04-11T17:02:36.668Z</time></trkpt><trkpt lat="38.9700456" lon="16.5021272"><ele>769.5</ele><time>2026-04-11T17:02:37.667Z</time></trkpt><trkpt lat="38.9701419" lon="16.5020317"><ele>773.75</ele><time>2026-04-11T17:02:38.667Z</time></trkpt><trkpt lat="38.9702476" lon="16.501935"><ele>778.0</ele><time>2026-04-11T17:02:39.667Z</time></trkpt><trkpt lat="38.9703593" lon="16.501847"><ele>778.0</ele><time>2026-04-11T17:02:40.668Z</time></trkpt><trkpt lat="38.9704893" lon="16.5017709"><ele>778.0</ele><time>2026-04-11T17:02:41.667Z</time></trkpt><trkpt lat="38.9706342" lon="16.5017122"><ele>778.0</ele><time>2026-04-11T17:02:42.667Z</time></trkpt><trkpt lat="38.9707879" lon="16.5016731"><ele>780.0</ele><time>2026-04-11T17:02:43.668Z</time></trkpt><trkpt lat="38.9709472" lon="16.5016448"><ele>782.0</ele><time>2026-04-11T17:02:44.668Z</time></trkpt><trkpt lat="38.9711078" lon="16.5016267"><ele>784.0</ele><time>2026-04-11T17:02:45.668Z</time></trkpt><trkpt lat="38.97127" lon="16.5015975"><ele>784.0</ele><time>2026-04-11T17:02:46.667Z</time></trkpt><trkpt lat="38.9714317" lon="16.501552"><ele>784.0</ele><time>2026-04-11T17:02:47.667Z</time></trkpt><trkpt lat="38.9715963" lon="16.5014966"><ele>784.0</ele><time>2026-04-11T17:02:48.668Z</time></trkpt><trkpt lat="38.9717643" lon="16.5014485"><ele>786.6666666666666</ele><time>2026-04-11T17:02:49.667Z</time></trkpt><trkpt lat="38.9719403" lon="16.5014269"><ele>789.3333333333333</ele><time>2026-04-11T17:02:50.667Z</time></trkpt><trkpt lat="38.9721231" lon="16.501422"><ele>792.0</ele><time>2026-04-11T17:02:51.668Z</time></trkpt><trkpt lat="38.9723009" lon="16.5014372"><ele>792.0</ele><time>2026-04-11T17:02:52.668Z</time></trkpt><trkpt lat="38.9724612" lon="16.501459"><ele>792.0</ele><time>2026-04-11T17:02:53.668Z</time></trkpt><trkpt lat="38.9726011" lon="16.5014485"><ele>792.0</ele><time>2026-04-11T17:02:54.667Z</time></trkpt><trkpt lat="38.9727291" lon="16.5013817"><ele>792.0</ele><time>2026-04-11T17:02:55.667Z</time></trkpt><trkpt lat="38.9728259" lon="16.5012778"><ele>792.6666666666667</ele><time>2026-04-11T17:02:56.667Z</time></trkpt><trkpt lat="38.9729232" lon="16.5011142"><ele>793.3333333333334</ele><time>2026-04-11T17:02:57.667Z</time></trkpt><trkpt lat="38.973016" lon="16.5009324"><ele>794.0</ele><time>2026-04-11T17:02:58.667Z</time></trkpt><trkpt lat="38.9731273" lon="16.5007778"><ele>794.0</ele><time>2026-04-11T17:02:59.668Z</time></trkpt><trkpt lat="38.973256" lon="16.5006376"><ele>794.0</ele><time>2026-04-11T17:03:00.667Z</time></trkpt><trkpt lat="38.9733699" lon="16.5004992"><ele>794.0</ele><time>2026-04-11T17:03:01.668Z</time></trkpt><trkpt lat="38.9734651" lon="16.5003401"><ele>795.75</ele><time>2026-04-11T17:03:02.668Z</time></trkpt><trkpt lat="38.9735325" lon="16.5001636"><ele>797.5</ele><time>2026-04-11T17:03:03.667Z</time></trkpt><trkpt lat="38.9735808" lon="16.4999837"><ele>799.25</ele><time>2026-04-11T17:03:04.667Z</time></trkpt><trkpt lat="38.9736186" lon="16.4998034"><ele>801.0</ele><time>2026-04-11T17:03:05.667Z</time></trkpt><trkpt lat="38.9736635" lon="16.4996302"><ele>795.75</ele><time>2026-04-11T17:03:06.667Z</time></trkpt><trkpt lat="38.9737262" lon="16.4994612"><ele>790.5</ele><time>2026-04-11T17:03:07.667Z</time></trkpt><trkpt lat="38.9738089" lon="16.4993214"><ele>785.25</ele><time>2026-04-11T17:03:08.668Z</time></trkpt><trkpt lat="38.9739229" lon="16.4992331"><ele>780.0</ele><time>2026-04-11T17:03:09.668Z</time></trkpt><trkpt lat="38.9740563" lon="16.4991999"><ele>780.0</ele><time>2026-04-11T17:03:10.667Z</time></trkpt><trkpt lat="38.9741881" lon="16.499171"><ele>780.0</ele><time>2026-04-11T17:03:11.668Z</time></trkpt><trkpt lat="38.9742998" lon="16.4990979"><ele>780.0</ele><time>2026-04-11T17:03:12.668Z</time></trkpt><trkpt lat="38.9743766" lon="16.4989959"><ele>780.0</ele><time>2026-04-11T17:03:13.668Z</time></trkpt><trkpt lat="38.9744412" lon="16.498868"><ele>782.75</ele><time>2026-04-11T17:03:14.667Z</time></trkpt><trkpt lat="38.9745111" lon="16.4987145"><ele>785.5</ele><time>2026-04-11T17:03:15.667Z</time></trkpt><trkpt lat="38.9745917" lon="16.4985688"><ele>788.25</ele><time>2026-04-11T17:03:16.667Z</time></trkpt><trkpt lat="38.9746648" lon="16.4984196"><ele>791.0</ele><time>2026-04-11T17:03:17.667Z</time></trkpt><trkpt lat="38.9747538" lon="16.4982938"><ele>791.0</ele><time>2026-04-11T17:03:18.667Z</time></trkpt><trkpt lat="38.9748602" lon="16.4981865"><ele>791.0</ele><time>2026-04-11T17:03:19.667Z</time></trkpt><trkpt lat="38.9749839" lon="16.4980933"><ele>791.0</ele><time>2026-04-11T17:03:20.667Z</time></trkpt><trkpt lat="38.9751185" lon="16.4980095"><ele>791.0</ele><time>2026-04-11T17:03:21.668Z</time></trkpt><trkpt lat="38.9752557" lon="16.4979342"><ele>789.25</ele><time>2026-04-11T17:03:22.668Z</time></trkpt><trkpt lat="38.975376" lon="16.4978427"><ele>787.5</ele><time>2026-04-11T17:03:23.668Z</time></trkpt><trkpt lat="38.9754855" lon="16.4977625"><ele>785.75</ele><time>2026-04-11T17:03:24.668Z</time></trkpt><trkpt lat="38.975595" lon="16.4976943"><ele>784.0</ele><time>2026-04-11T17:03:25.667Z</time></trkpt><trkpt lat="38.9757206" lon="16.4976617"><ele>782.25</ele><time>2026-04-11T17:03:26.667Z</time></trkpt><trkpt lat="38.9758567" lon="16.4976683"><ele>780.5</ele><time>2026-04-11T17:03:27.667Z</time></trkpt><trkpt lat="38.9759928" lon="16.4976833"><ele>778.75</ele><time>2026-04-11T17:03:28.667Z</time></trkpt><trkpt lat="38.97614" lon="16.4977233"><ele>777.0</ele><time>2026-04-11T17:03:29.667Z</time></trkpt><trkpt lat="38.9762829" lon="16.4977699"><ele>777.0</ele><time>2026-04-11T17:03:30.667Z</time></trkpt><trkpt lat="38.9764237" lon="16.4978429"><ele>777.0</ele><time>2026-04-11T17:03:31.667Z</time></trkpt><trkpt lat="38.9765578" lon="16.4979407"><ele>777.0</ele><time>2026-04-11T17:03:32.667Z</time></trkpt><trkpt lat="38.9766925" lon="16.4980236"><ele>785.75</ele><time>2026-04-11T17:03:33.667Z</time></trkpt><trkpt lat="38.9768375" lon="16.4980534"><ele>794.5</ele><time>2026-04-11T17:03:34.668Z</time></trkpt><trkpt lat="38.9769852" lon="16.4980332"><ele>803.25</ele><time>2026-04-11T17:03:35.667Z</time></trkpt><trkpt lat="38.977134" lon="16.4979878"><ele>812.0</ele><time>2026-04-11T17:03:36.667Z</time></trkpt><trkpt lat="38.9772773" lon="16.4979583"><ele>812.0</ele><time>2026-04-11T17:03:37.667Z</time></trkpt><trkpt lat="38.9774153" lon="16.4979847"><ele>812.0</ele><time>2026-04-11T17:03:38.668Z</time></trkpt><trkpt lat="38.9775608" lon="16.4980538"><ele>812.0</ele><time>2026-04-11T17:03:39.667Z</time></trkpt><trkpt lat="38.9777113" lon="16.4981381"><ele>809.0</ele><time>2026-04-11T17:03:40.668Z</time></trkpt><trkpt lat="38.9778714" lon="16.4981835"><ele>806.0</ele><time>2026-04-11T17:03:41.668Z</time></trkpt><trkpt lat="38.9780512" lon="16.4982115"><ele>803.0</ele><time>2026-04-11T17:03:42.668Z</time></trkpt><trkpt lat="38.9782378" lon="16.498229"><ele>802.6666666666667</ele><time>2026-04-11T17:03:43.668Z</time></trkpt><trkpt lat="38.9784271" lon="16.4982495"><ele>802.3333333333333</ele><time>2026-04-11T17:03:44.667Z</time></trkpt><trkpt lat="38.9786193" lon="16.4982772"><ele>802.0</ele><time>2026-04-11T17:03:45.668Z</time></trkpt><trkpt lat="38.9788258" lon="16.4983048"><ele>802.0</ele><time>2026-04-11T17:03:46.667Z</time></trkpt><trkpt lat="38.9790309" lon="16.498298"><ele>802.0</ele><time>2026-04-11T17:03:47.667Z</time></trkpt><trkpt lat="38.9792255" lon="16.4982737"><ele>802.0</ele><time>2026-04-11T17:03:48.668Z</time></trkpt><trkpt lat="38.979402" lon="16.4982391"><ele>807.3333333333333</ele><time>2026-04-11T17:03:49.667Z</time></trkpt><trkpt lat="38.979576" lon="16.4982178"><ele>812.6666666666667</ele><time>2026-04-11T17:03:50.667Z</time></trkpt><trkpt lat="38.9797366" lon="16.498195"><ele>818.0</ele><time>2026-04-11T17:03:51.668Z</time></trkpt><trkpt lat="38.9798867" lon="16.4981767"><ele>818.0</ele><time>2026-04-11T17:03:52.667Z</time></trkpt><trkpt lat="38.9800163" lon="16.4981371"><ele>818.0</ele><time>2026-04-11T17:03:53.668Z</time></trkpt><trkpt lat="38.9801195" lon="16.4980656"><ele>818.0</ele><time>2026-04-11T17:03:54.668Z</time></trkpt><trkpt lat="38.9801962" lon="16.4979606"><ele>818.0</ele><time>2026-04-11T17:03:55.668Z</time></trkpt><trkpt lat="38.980242" lon="16.4978201"><ele>816.75</ele><time>2026-04-11T17:03:56.667Z</time></trkpt><trkpt lat="38.9802947" lon="16.4976805"><ele>815.5</ele><time>2026-04-11T17:03:57.667Z</time></trkpt><trkpt lat="38.9803758" lon="16.4975681"><ele>814.25</ele><time>2026-04-11T17:03:58.667Z</time></trkpt><trkpt lat="38.9804875" lon="16.4974934"><ele>813.0</ele><time>2026-04-11T17:03:59.668Z</time></trkpt><trkpt lat="38.9806209" lon="16.4974544"><ele>813.0</ele><time>2026-04-11T17:04:00.667Z</time></trkpt><trkpt lat="38.9807602" lon="16.497423"><ele>813.0</ele><time>2026-04-11T17:04:01.668Z</time></trkpt><trkpt lat="38.9809058" lon="16.4974109"><ele>813.0</ele><time>2026-04-11T17:04:02.668Z</time></trkpt><trkpt lat="38.9810514" lon="16.497436"><ele>813.0</ele><time>2026-04-11T17:04:03.667Z</time></trkpt><trkpt lat="38.9812041" lon="16.4975067"><ele>812.0</ele><time>2026-04-11T17:04:04.667Z</time></trkpt><trkpt lat="38.981353" lon="16.4975796"><ele>811.0</ele><time>2026-04-11T17:04:05.667Z</time></trkpt><trkpt lat="38.9814921" lon="16.4976513"><ele>810.0</ele><time>2026-04-11T17:04:06.667Z</time></trkpt><trkpt lat="38.9816345" lon="16.4977347"><ele>809.25</ele><time>2026-04-11T17:04:07.668Z</time></trkpt><trkpt lat="38.9817638" lon="16.4978138"><ele>808.5</ele><time>2026-04-11T17:04:08.667Z</time></trkpt><trkpt lat="38.9818795" lon="16.4979008"><ele>807.75</ele><time>2026-04-11T17:04:09.667Z</time></trkpt><trkpt lat="38.9819795" lon="16.4980307"><ele>807.0</ele><time>2026-04-11T17:04:10.667Z</time></trkpt><trkpt lat="38.982056" lon="16.4981883"><ele>807.0</ele><time>2026-04-11T17:04:11.667Z</time></trkpt><trkpt lat="38.9821201" lon="16.4983494"><ele>807.0</ele><time>2026-04-11T17:04:12.668Z</time></trkpt><trkpt lat="38.9821813" lon="16.4985096"><ele>807.0</ele><time>2026-04-11T17:04:13.668Z</time></trkpt><trkpt lat="38.9822132" lon="16.4986708"><ele>807.0</ele><time>2026-04-11T17:04:14.667Z</time></trkpt><trkpt lat="38.9822219" lon="16.4988467"><ele>812.5</ele><time>2026-04-11T17:04:15.668Z</time></trkpt><trkpt lat="38.9822283" lon="16.4990293"><ele>818.0</ele><time>2026-04-11T17:04:16.667Z</time></trkpt><trkpt lat="38.9822517" lon="16.499194"><ele>823.5</ele><time>2026-04-11T17:04:17.668Z</time></trkpt><trkpt lat="38.9823113" lon="16.4993342"><ele>829.0</ele><time>2026-04-11T17:04:18.667Z</time></trkpt><trkpt lat="38.982414" lon="16.4994488"><ele>826.0</ele><time>2026-04-11T17:04:19.667Z</time></trkpt><trkpt lat="38.98254" lon="16.4995314"><ele>823.0</ele><time>2026-04-11T17:04:20.668Z</time></trkpt><trkpt lat="38.9826801" lon="16.4996015"><ele>820.0</ele><time>2026-04-11T17:04:21.668Z</time></trkpt><trkpt lat="38.9828327" lon="16.4996527"><ele>817.0</ele><time>2026-04-11T17:04:22.667Z</time></trkpt><trkpt lat="38.982998" lon="16.4996936"><ele>824.0</ele><time>2026-04-11T17:04:23.667Z</time></trkpt><trkpt lat="38.9831669" lon="16.4997219"><ele>831.0</ele><time>2026-04-11T17:04:24.668Z</time></trkpt><trkpt lat="38.983333" lon="16.4997387"><ele>838.0</ele><time>2026-04-11T17:04:25.667Z</time></trkpt><trkpt lat="38.9834952" lon="16.4997644"><ele>838.0</ele><time>2026-04-11T17:04:26.668Z</time></trkpt><trkpt lat="38.9836465" lon="16.4998023"><ele>838.0</ele><time>2026-04-11T17:04:27.668Z</time></trkpt><trkpt lat="38.9837897" lon="16.4998765"><ele>838.0</ele><time>2026-04-11T17:04:28.667Z</time></trkpt><trkpt lat="38.9839197" lon="16.4999927"><ele>838.0</ele><time>2026-04-11T17:04:29.667Z</time></trkpt><trkpt lat="38.9840347" lon="16.5001187"><ele>838.0</ele><time>2026-04-11T17:04:30.667Z</time></trkpt><trkpt lat="38.9841506" lon="16.5002297"><ele>838.0</ele><time>2026-04-11T17:04:31.667Z</time></trkpt><trkpt lat="38.9842832" lon="16.5003351"><ele>843.3333333333333</ele><time>2026-04-11T17:04:32.667Z</time></trkpt><trkpt lat="38.9844287" lon="16.5004295"><ele>848.6666666666667</ele><time>2026-04-11T17:04:33.667Z</time></trkpt><trkpt lat="38.9845715" lon="16.5005174"><ele>854.0</ele><time>2026-04-11T17:04:34.667Z</time></trkpt><trkpt lat="38.9847211" lon="16.5006024"><ele>854.0</ele><time>2026-04-11T17:04:35.668Z</time></trkpt><trkpt lat="38.9848698" lon="16.5006813"><ele>854.0</ele><time>2026-04-11T17:04:36.667Z</time></trkpt><trkpt lat="38.9850097" lon="16.5007717"><ele>854.0</ele><time>2026-04-11T17:04:37.667Z</time></trkpt><trkpt lat="38.9851322" lon="16.5008656"><ele>854.5</ele><time>2026-04-11T17:04:38.668Z</time></trkpt><trkpt lat="38.9852416" lon="16.500975"><ele>855.0</ele><time>2026-04-11T17:04:39.667Z</time></trkpt><trkpt lat="38.985344" lon="16.5011006"><ele>855.5</ele><time>2026-04-11T17:04:40.668Z</time></trkpt><trkpt lat="38.985425" lon="16.5012454"><ele>856.0</ele><time>2026-04-11T17:04:41.667Z</time></trkpt><trkpt lat="38.9854926" lon="16.5014005"><ele>856.0</ele><time>2026-04-11T17:04:42.667Z</time></trkpt><trkpt lat="38.9855674" lon="16.5015583"><ele>856.0</ele><time>2026-04-11T17:04:43.667Z</time></trkpt><trkpt lat="38.985652" lon="16.5016992"><ele>856.0</ele><time>2026-04-11T17:04:44.667Z</time></trkpt><trkpt lat="38.9857532" lon="16.5017928"><ele>856.0</ele><time>2026-04-11T17:04:45.667Z</time></trkpt><trkpt lat="38.9858623" lon="16.5018446"><ele>855.25</ele><time>2026-04-11T17:04:46.667Z</time></trkpt><trkpt lat="38.9859873" lon="16.5018539"><ele>854.5</ele><time>2026-04-11T17:04:47.667Z</time></trkpt><trkpt lat="38.9861077" lon="16.5018298"><ele>853.75</ele><time>2026-04-11T17:04:48.668Z</time></trkpt><trkpt lat="38.9862419" lon="16.5017988"><ele>853.0</ele><time>2026-04-11T17:04:49.667Z</time></trkpt><trkpt lat="38.986384" lon="16.5017922"><ele>853.0</ele><time>2026-04-11T17:04:50.667Z</time></trkpt><trkpt lat="38.9865329" lon="16.5017988"><ele>853.0</ele><time>2026-04-11T17:04:51.667Z</time></trkpt><trkpt lat="38.9866829" lon="16.5018084"><ele>853.0</ele><time>2026-04-11T17:04:52.668Z</time></trkpt><trkpt lat="38.9868235" lon="16.5018119"><ele>853.0</ele><time>2026-04-11T17:04:53.667Z</time></trkpt><trkpt lat="38.9869574" lon="16.5017877"><ele>854.6666666666666</ele><time>2026-04-11T17:04:54.667Z</time></trkpt><trkpt lat="38.9871061" lon="16.5017471"><ele>856.3333333333333</ele><time>2026-04-11T17:04:55.667Z</time></trkpt><trkpt lat="38.9872562" lon="16.5016954"><ele>858.0</ele><time>2026-04-11T17:04:56.667Z</time></trkpt><trkpt lat="38.9874103" lon="16.5016279"><ele>861.0</ele><time>2026-04-11T17:04:57.668Z</time></trkpt><trkpt lat="38.9875594" lon="16.5015531"><ele>864.0</ele><time>2026-04-11T17:04:58.668Z</time></trkpt><trkpt lat="38.9877029" lon="16.5014819"><ele>867.0</ele><time>2026-04-11T17:04:59.667Z</time></trkpt><trkpt lat="38.9878439" lon="16.5014191"><ele>867.0</ele><time>2026-04-11T17:05:00.667Z</time></trkpt><trkpt lat="38.9879848" lon="16.5013638"><ele>867.0</ele><time>2026-04-11T17:05:01.667Z</time></trkpt><trkpt lat="38.9881233" lon="16.5013245"><ele>867.0</ele><time>2026-04-11T17:05:02.667Z</time></trkpt><trkpt lat="38.9882649" lon="16.5013039"><ele>867.0</ele><time>2026-04-11T17:05:03.667Z</time></trkpt><trkpt lat="38.9884052" lon="16.5012948"><ele>864.75</ele><time>2026-04-11T17:05:04.667Z</time></trkpt><trkpt lat="38.9885438" lon="16.5012826"><ele>862.5</ele><time>2026-04-11T17:05:05.668Z</time></trkpt><trkpt lat="38.988697" lon="16.5012519"><ele>860.25</ele><time>2026-04-11T17:05:06.668Z</time></trkpt><trkpt lat="38.9888404" lon="16.5011862"><ele>858.0</ele><time>2026-04-11T17:05:07.667Z</time></trkpt><trkpt lat="38.9889723" lon="16.5011071"><ele>858.0</ele><time>2026-04-11T17:05:08.667Z</time></trkpt><trkpt lat="38.9891001" lon="16.5010075"><ele>858.0</ele><time>2026-04-11T17:05:09.667Z</time></trkpt><trkpt lat="38.9892281" lon="16.5009071"><ele>858.0</ele><time>2026-04-11T17:05:10.668Z</time></trkpt><trkpt lat="38.9893537" lon="16.5008049"><ele>858.0</ele><time>2026-04-11T17:05:11.668Z</time></trkpt><trkpt lat="38.9894817" lon="16.5007099"><ele>857.0</ele><time>2026-04-11T17:05:12.668Z</time></trkpt><trkpt lat="38.9896072" lon="16.5006164"><ele>856.0</ele><time>2026-04-11T17:05:13.667Z</time></trkpt><trkpt lat="38.9897365" lon="16.5005103"><ele>855.0</ele><time>2026-04-11T17:05:14.667Z</time></trkpt><trkpt lat="38.9898509" lon="16.5004053"><ele>854.0</ele><time>2026-04-11T17:05:15.667Z</time></trkpt><trkpt lat="38.9899588" lon="16.5003031"><ele>858.5</ele><time>2026-04-11T17:05:16.667Z</time></trkpt><trkpt lat="38.9900604" lon="16.5002026"><ele>863.0</ele><time>2026-04-11T17:05:17.668Z</time></trkpt><trkpt lat="38.9901552" lon="16.5001069"><ele>867.5</ele><time>2026-04-11T17:05:18.667Z</time></trkpt><trkpt lat="38.9902479" lon="16.5000121"><ele>872.0</ele><time>2026-04-11T17:05:19.667Z</time></trkpt><trkpt lat="38.9903394" lon="16.4999285"><ele>872.0</ele><time>2026-04-11T17:05:20.667Z</time></trkpt><trkpt lat="38.9904249" lon="16.499847"><ele>872.0</ele><time>2026-04-11T17:05:21.667Z</time></trkpt><trkpt lat="38.9905055" lon="16.4997628"><ele>872.0</ele><time>2026-04-11T17:05:22.667Z</time></trkpt><trkpt lat="38.9905854" lon="16.4996782"><ele>872.0</ele><time>2026-04-11T17:05:23.667Z</time></trkpt><trkpt lat="38.990655" lon="16.4995886"><ele>872.0</ele><time>2026-04-11T17:05:24.667Z</time></trkpt><trkpt lat="38.9907226" lon="16.4995115"><ele>871.8</ele><time>2026-04-11T17:05:25.667Z</time></trkpt><trkpt lat="38.9907904" lon="16.4994318"><ele>871.6</ele><time>2026-04-11T17:05:26.668Z</time></trkpt><trkpt lat="38.9908604" lon="16.4993547"><ele>871.3999999999999</ele><time>2026-04-11T17:05:27.667Z</time></trkpt><trkpt lat="38.9909395" lon="16.4992769"><ele>871.1999999999999</ele><time>2026-04-11T17:05:28.667Z</time></trkpt><trkpt lat="38.9910275" lon="16.4991913"><ele>871.0</ele><time>2026-04-11T17:05:29.667Z</time></trkpt><trkpt lat="38.9911211" lon="16.4990968"><ele>871.0</ele><time>2026-04-11T17:05:30.668Z</time></trkpt><trkpt lat="38.9912197" lon="16.4989909"><ele>871.0</ele><time>2026-04-11T17:05:31.667Z</time></trkpt><trkpt lat="38.9913173" lon="16.4988865"><ele>871.0</ele><time>2026-04-11T17:05:32.667Z</time></trkpt><trkpt lat="38.9914138" lon="16.4987757"><ele>871.0</ele><time>2026-04-11T17:05:33.667Z</time></trkpt><trkpt lat="38.9915179" lon="16.498669"><ele>871.75</ele><time>2026-04-11T17:05:34.668Z</time></trkpt><trkpt lat="38.9916212" lon="16.49856"><ele>872.5</ele><time>2026-04-11T17:05:35.668Z</time></trkpt><trkpt lat="38.9917271" lon="16.4984524"><ele>873.25</ele><time>2026-04-11T17:05:36.668Z</time></trkpt><trkpt lat="38.9918249" lon="16.4983481"><ele>874.0</ele><time>2026-04-11T17:05:37.668Z</time></trkpt><trkpt lat="38.9919201" lon="16.4982465"><ele>874.0</ele><time>2026-04-11T17:05:38.668Z</time></trkpt><trkpt lat="38.9920131" lon="16.4981462"><ele>874.0</ele><time>2026-04-11T17:05:39.667Z</time></trkpt><trkpt lat="38.992247" lon="16.4978005"><ele>872.8000000000001</ele><time>2026-04-11T17:05:42.667Z</time></trkpt><trkpt lat="38.9922951" lon="16.497676"><ele>871.6000000000001</ele><time>2026-04-11T17:05:43.668Z</time></trkpt><trkpt lat="38.9923324" lon="16.4975577"><ele>870.4</ele><time>2026-04-11T17:05:44.668Z</time></trkpt><trkpt lat="38.9923626" lon="16.4974361"><ele>869.2</ele><time>2026-04-11T17:05:45.667Z</time></trkpt><trkpt lat="38.9923922" lon="16.4973174"><ele>868.0</ele><time>2026-04-11T17:05:46.668Z</time></trkpt><trkpt lat="38.9924237" lon="16.4971972"><ele>866.0</ele><time>2026-04-11T17:05:47.668Z</time></trkpt><trkpt lat="38.9924556" lon="16.4970705"><ele>864.0</ele><time>2026-04-11T17:05:48.668Z</time></trkpt><trkpt lat="38.9924889" lon="16.4969347"><ele>862.0</ele><time>2026-04-11T17:05:49.667Z</time></trkpt><trkpt lat="38.9925267" lon="16.496793"><ele>860.0</ele><time>2026-04-11T17:05:50.667Z</time></trkpt><trkpt lat="38.9925706" lon="16.4966431"><ele>864.25</ele><time>2026-04-11T17:05:51.668Z</time></trkpt><trkpt lat="38.9926151" lon="16.4964905"><ele>868.5</ele><time>2026-04-11T17:05:52.667Z</time></trkpt><trkpt lat="38.9926591" lon="16.4963406"><ele>872.75</ele><time>2026-04-11T17:05:53.668Z</time></trkpt><trkpt lat="38.9926891" lon="16.4961773"><ele>877.0</ele><time>2026-04-11T17:05:54.667Z</time></trkpt><trkpt lat="38.992727" lon="16.4960089"><ele>877.0</ele><time>2026-04-11T17:05:55.667Z</time></trkpt><trkpt lat="38.9927755" lon="16.49585"><ele>877.0</ele><time>2026-04-11T17:05:56.667Z</time></trkpt><trkpt lat="38.9928183" lon="16.4956688"><ele>877.0</ele><time>2026-04-11T17:05:57.667Z</time></trkpt><trkpt lat="38.9928571" lon="16.4954896"><ele>877.0</ele><time>2026-04-11T17:05:58.667Z</time></trkpt><trkpt lat="38.9929001" lon="16.4953169"><ele>876.5</ele><time>2026-04-11T17:05:59.667Z</time></trkpt><trkpt lat="38.9929459" lon="16.4951445"><ele>876.0</ele><time>2026-04-11T17:06:00.667Z</time></trkpt><trkpt lat="38.9929835" lon="16.4949686"><ele>875.5</ele><time>2026-04-11T17:06:01.667Z</time></trkpt><trkpt lat="38.9930249" lon="16.4947951"><ele>875.0</ele><time>2026-04-11T17:06:02.668Z</time></trkpt><trkpt lat="38.9930722" lon="16.4946227"><ele>872.5</ele><time>2026-04-11T17:06:03.668Z</time></trkpt><trkpt lat="38.9931222" lon="16.4944497"><ele>870.0</ele><time>2026-04-11T17:06:04.667Z</time></trkpt><trkpt lat="38.9931695" lon="16.4942719"><ele>867.5</ele><time>2026-04-11T17:06:05.667Z</time></trkpt><trkpt lat="38.9932166" lon="16.4941013"><ele>865.0</ele><time>2026-04-11T17:06:06.667Z</time></trkpt><trkpt lat="38.9932634" lon="16.4939434"><ele>865.0</ele><time>2026-04-11T17:06:07.668Z</time></trkpt><trkpt lat="38.9933206" lon="16.4937966"><ele>865.0</ele><time>2026-04-11T17:06:08.667Z</time></trkpt><trkpt lat="38.9933868" lon="16.4936585"><ele>865.0</ele><time>2026-04-11T17:06:09.667Z</time></trkpt><trkpt lat="38.9934656" lon="16.4935326"><ele>865.0</ele><time>2026-04-11T17:06:10.668Z</time></trkpt><trkpt lat="38.993553" lon="16.4934114"><ele>867.25</ele><time>2026-04-11T17:06:11.667Z</time></trkpt><trkpt lat="38.99365" lon="16.4932999"><ele>869.5</ele><time>2026-04-11T17:06:12.667Z</time></trkpt><trkpt lat="38.9937543" lon="16.4931874"><ele>871.75</ele><time>2026-04-11T17:06:13.668Z</time></trkpt><trkpt lat="38.9938566" lon="16.4930711"><ele>874.0</ele><time>2026-04-11T17:06:14.668Z</time></trkpt><trkpt lat="38.9939504" lon="16.4929552"><ele>875.25</ele><time>2026-04-11T17:06:15.667Z</time></trkpt><trkpt lat="38.9940332" lon="16.4928292"><ele>876.5</ele><time>2026-04-11T17:06:16.667Z</time></trkpt><trkpt lat="38.9941045" lon="16.4926974"><ele>877.75</ele><time>2026-04-11T17:06:17.668Z</time></trkpt><trkpt lat="38.9941659" lon="16.4925602"><ele>879.0</ele><time>2026-04-11T17:06:18.667Z</time></trkpt><trkpt lat="38.9942072" lon="16.4924104"><ele>879.0</ele><time>2026-04-11T17:06:19.667Z</time></trkpt><trkpt lat="38.9942315" lon="16.4922539"><ele>879.0</ele><time>2026-04-11T17:06:20.667Z</time></trkpt><trkpt lat="38.9942546" lon="16.4921057"><ele>879.0</ele><time>2026-04-11T17:06:21.667Z</time></trkpt><trkpt lat="38.9942911" lon="16.4919609"><ele>879.0</ele><time>2026-04-11T17:06:22.668Z</time></trkpt><trkpt lat="38.9943455" lon="16.4918345"><ele>876.2</ele><time>2026-04-11T17:06:23.667Z</time></trkpt><trkpt lat="38.9944252" lon="16.491757"><ele>873.4000000000001</ele><time>2026-04-11T17:06:24.668Z</time></trkpt><trkpt lat="38.9945276" lon="16.49172"><ele>870.6</ele><time>2026-04-11T17:06:25.667Z</time></trkpt><trkpt lat="38.9946359" lon="16.4917098"><ele>867.8</ele><time>2026-04-11T17:06:26.667Z</time></trkpt><trkpt lat="38.9947439" lon="16.4916993"><ele>865.0</ele><time>2026-04-11T17:06:27.667Z</time></trkpt><trkpt lat="38.9948216" lon="16.4916463"><ele>865.0</ele><time>2026-04-11T17:06:28.667Z</time></trkpt><trkpt lat="38.9948775" lon="16.4915552"><ele>865.0</ele><time>2026-04-11T17:06:29.668Z</time></trkpt><trkpt lat="38.9949143" lon="16.4914447"><ele>865.0</ele><time>2026-04-11T17:06:30.667Z</time></trkpt><trkpt lat="38.99492" lon="16.491314"><ele>865.0</ele><time>2026-04-11T17:06:31.668Z</time></trkpt><trkpt lat="38.9949004" lon="16.4911709"><ele>865.0</ele><time>2026-04-11T17:06:32.667Z</time></trkpt><trkpt lat="38.9948741" lon="16.4910275"><ele>862.5</ele><time>2026-04-11T17:06:33.668Z</time></trkpt><trkpt lat="38.9948549" lon="16.4908764"><ele>860.0</ele><time>2026-04-11T17:06:34.667Z</time></trkpt><trkpt lat="38.9948594" lon="16.4907233"><ele>857.5</ele><time>2026-04-11T17:06:35.668Z</time></trkpt><trkpt lat="38.9948917" lon="16.4905792"><ele>855.0</ele><time>2026-04-11T17:06:36.667Z</time></trkpt><trkpt lat="38.9949533" lon="16.4904533"><ele>857.5</ele><time>2026-04-11T17:06:37.668Z</time></trkpt><trkpt lat="38.9950297" lon="16.490333"><ele>860.0</ele><time>2026-04-11T17:06:38.667Z</time></trkpt><trkpt lat="38.9951133" lon="16.4902009"><ele>862.5</ele><time>2026-04-11T17:06:39.668Z</time></trkpt><trkpt lat="38.9952012" lon="16.4900586"><ele>865.0</ele><time>2026-04-11T17:06:40.667Z</time></trkpt><trkpt lat="38.9952909" lon="16.4899076"><ele>865.0</ele><time>2026-04-11T17:06:41.667Z</time></trkpt><trkpt lat="38.995373" lon="16.489744"><ele>865.0</ele><time>2026-04-11T17:06:42.668Z</time></trkpt><trkpt lat="38.995444" lon="16.4895824"><ele>865.0</ele><time>2026-04-11T17:06:43.668Z</time></trkpt><trkpt lat="38.9955204" lon="16.4894273"><ele>865.0</ele><time>2026-04-11T17:06:44.667Z</time></trkpt><trkpt lat="38.9956039" lon="16.4892715"><ele>866.75</ele><time>2026-04-11T17:06:45.668Z</time></trkpt><trkpt lat="38.9956944" lon="16.4891381"><ele>868.5</ele><time>2026-04-11T17:06:46.668Z</time></trkpt><trkpt lat="38.9957909" lon="16.4890192"><ele>870.25</ele><time>2026-04-11T17:06:47.667Z</time></trkpt><trkpt lat="38.9958844" lon="16.4889068"><ele>872.0</ele><time>2026-04-11T17:06:48.667Z</time></trkpt><trkpt lat="38.9959503" lon="16.4887762"><ele>870.25</ele><time>2026-04-11T17:06:49.667Z</time></trkpt><trkpt lat="38.995987" lon="16.488641"><ele>868.5</ele><time>2026-04-11T17:06:50.667Z</time></trkpt><trkpt lat="38.9959934" lon="16.4884907"><ele>866.75</ele><time>2026-04-11T17:06:51.667Z</time></trkpt><trkpt lat="38.9959848" lon="16.488332"><ele>865.0</ele><time>2026-04-11T17:06:52.668Z</time></trkpt><trkpt lat="38.9959755" lon="16.4881738"><ele>865.0</ele><time>2026-04-11T17:06:53.668Z</time></trkpt><trkpt lat="38.9959919" lon="16.4880048"><ele>865.0</ele><time>2026-04-11T17:06:54.668Z</time></trkpt><trkpt lat="38.9960216" lon="16.4878381"><ele>865.0</ele><time>2026-04-11T17:06:55.667Z</time></trkpt><trkpt lat="38.9960655" lon="16.4876856"><ele>865.0</ele><time>2026-04-11T17:06:56.667Z</time></trkpt><trkpt lat="38.9961234" lon="16.4875436"><ele>863.8</ele><time>2026-04-11T17:06:57.667Z</time></trkpt><trkpt lat="38.9961996" lon="16.4874162"><ele>862.6</ele><time>2026-04-11T17:06:58.667Z</time></trkpt><trkpt lat="38.996282" lon="16.4873079"><ele>861.4000000000001</ele><time>2026-04-11T17:06:59.667Z</time></trkpt><trkpt lat="38.9963649" lon="16.48723"><ele>860.2</ele><time>2026-04-11T17:07:00.667Z</time></trkpt><trkpt lat="38.996436" lon="16.487165"><ele>859.0</ele><time>2026-04-11T17:07:01.668Z</time></trkpt><trkpt lat="38.996491" lon="16.4871048"><ele>859.0</ele><time>2026-04-11T17:07:02.667Z</time></trkpt><trkpt lat="38.9965502" lon="16.4870133"><ele>859.0000000000001</ele><time>2026-04-11T17:07:04.667Z</time></trkpt><trkpt lat="38.9965452" lon="16.4871304"><ele>859.0000000000001</ele><time>2026-04-11T17:07:10.667Z</time></trkpt><trkpt lat="38.9964769" lon="16.487225"><ele>859.0</ele><time>2026-04-11T17:07:12.667Z</time></trkpt><trkpt lat="38.996401" lon="16.4873343"><ele>859.0</ele><time>2026-04-11T17:07:14.667Z</time></trkpt><trkpt lat="38.9963481" lon="16.4874707"><ele>858.9999999999999</ele><time>2026-04-11T17:07:16.667Z</time></trkpt><trkpt lat="38.9963174" lon="16.4876289"><ele>859.0</ele><time>2026-04-11T17:07:18.667Z</time></trkpt><trkpt lat="38.9963096" lon="16.48771"><ele>859.0</ele><time>2026-04-11T17:07:19.668Z</time></trkpt><trkpt lat="38.9963017" lon="16.4877914"><ele>859.0</ele><time>2026-04-11T17:07:20.667Z</time></trkpt><trkpt lat="38.9962922" lon="16.4878733"><ele>858.9999999999999</ele><time>2026-04-11T17:07:21.667Z</time></trkpt><trkpt lat="38.9962881" lon="16.4879589"><ele>859.0</ele><time>2026-04-11T17:07:22.667Z</time></trkpt><trkpt lat="38.9962976" lon="16.4880459"><ele>859.9999999999999</ele><time>2026-04-11T17:07:23.668Z</time></trkpt><trkpt lat="38.9963209" lon="16.4881371"><ele>861.0</ele><time>2026-04-11T17:07:24.667Z</time></trkpt><trkpt lat="38.9963497" lon="16.4882291"><ele>862.0</ele><time>2026-04-11T17:07:25.668Z</time></trkpt><trkpt lat="38.9963814" lon="16.4883172"><ele>863.0</ele><time>2026-04-11T17:07:26.667Z</time></trkpt><trkpt lat="38.9964105" lon="16.4884041"><ele>863.9999999999999</ele><time>2026-04-11T17:07:27.667Z</time></trkpt><trkpt lat="38.9964325" lon="16.488506"><ele>865.0</ele><time>2026-04-11T17:07:28.668Z</time></trkpt><trkpt lat="38.9964514" lon="16.4886034"><ele>864.9999999999999</ele><time>2026-04-11T17:07:29.667Z</time></trkpt><trkpt lat="38.9964643" lon="16.4887077"><ele>865.0</ele><time>2026-04-11T17:07:30.667Z</time></trkpt><trkpt lat="38.9964743" lon="16.488811"><ele>865.0</ele><time>2026-04-11T17:07:31.667Z</time></trkpt><trkpt lat="38.9964872" lon="16.4889094"><ele>865.0</ele><time>2026-04-11T17:07:32.667Z</time></trkpt><trkpt lat="38.9965108" lon="16.4889985"><ele>864.9999999999999</ele><time>2026-04-11T17:07:33.667Z</time></trkpt><trkpt lat="38.9965472" lon="16.4890783"><ele>865.0</ele><time>2026-04-11T17:07:34.668Z</time></trkpt><trkpt lat="38.9965939" lon="16.4891353"><ele>866.4</ele><time>2026-04-11T17:07:35.667Z</time></trkpt><trkpt lat="38.9966468" lon="16.4891905"><ele>867.8</ele><time>2026-04-11T17:07:36.667Z</time></trkpt><trkpt lat="38.9967211" lon="16.4893139"><ele>869.2</ele><time>2026-04-11T17:07:38.667Z</time></trkpt><trkpt lat="38.9967156" lon="16.489475"><ele>870.6</ele><time>2026-04-11T17:07:40.667Z</time></trkpt><trkpt lat="38.9966897" lon="16.4895814"><ele>872.0</ele><time>2026-04-11T17:07:41.668Z</time></trkpt><trkpt lat="38.9966552" lon="16.4896975"><ele>873.2</ele><time>2026-04-11T17:07:42.667Z</time></trkpt><trkpt lat="38.9966145" lon="16.4898187"><ele>874.4000000000001</ele><time>2026-04-11T17:07:43.667Z</time></trkpt><trkpt lat="38.9965665" lon="16.4899377"><ele>875.5999999999999</ele><time>2026-04-11T17:07:44.667Z</time></trkpt><trkpt lat="38.9965131" lon="16.490056"><ele>876.8</ele><time>2026-04-11T17:07:45.667Z</time></trkpt><trkpt lat="38.9964661" lon="16.4901816"><ele>878.0</ele><time>2026-04-11T17:07:46.668Z</time></trkpt><trkpt lat="38.9964237" lon="16.4903114"><ele>878.0</ele><time>2026-04-11T17:07:47.668Z</time></trkpt><trkpt lat="38.996385" lon="16.4904459"><ele>878.0</ele><time>2026-04-11T17:07:48.667Z</time></trkpt><trkpt lat="38.9963468" lon="16.4905855"><ele>878.0</ele><time>2026-04-11T17:07:49.667Z</time></trkpt><trkpt lat="38.9963012" lon="16.4907211"><ele>878.0</ele><time>2026-04-11T17:07:50.667Z</time></trkpt><trkpt lat="38.9962587" lon="16.4908513"><ele>878.0</ele><time>2026-04-11T17:07:51.668Z</time></trkpt><trkpt lat="38.9962153" lon="16.4909728"><ele>878.0</ele><time>2026-04-11T17:07:52.667Z</time></trkpt><trkpt lat="38.9961841" lon="16.4910987"><ele>878.0</ele><time>2026-04-11T17:07:53.668Z</time></trkpt><trkpt lat="38.9961638" lon="16.4912269"><ele>878.0</ele><time>2026-04-11T17:07:54.667Z</time></trkpt><trkpt lat="38.9961463" lon="16.4913582"><ele>878.0</ele><time>2026-04-11T17:07:55.667Z</time></trkpt><trkpt lat="38.996125" lon="16.4914912"><ele>877.4</ele><time>2026-04-11T17:07:56.667Z</time></trkpt><trkpt lat="38.996091" lon="16.4916227"><ele>876.8</ele><time>2026-04-11T17:07:57.667Z</time></trkpt><trkpt lat="38.9960389" lon="16.4917424"><ele>876.2</ele><time>2026-04-11T17:07:58.667Z</time></trkpt><trkpt lat="38.9959827" lon="16.4918544"><ele>875.6</ele><time>2026-04-11T17:07:59.667Z</time></trkpt><trkpt lat="38.9959205" lon="16.4919683"><ele>875.0</ele><time>2026-04-11T17:08:00.667Z</time></trkpt><trkpt lat="38.9958552" lon="16.4920817"><ele>877.0</ele><time>2026-04-11T17:08:01.668Z</time></trkpt><trkpt lat="38.9957853" lon="16.4921955"><ele>879.0</ele><time>2026-04-11T17:08:02.667Z</time></trkpt><trkpt lat="38.9957229" lon="16.492312"><ele>881.0</ele><time>2026-04-11T17:08:03.667Z</time></trkpt><trkpt lat="38.9956661" lon="16.4924366"><ele>883.0</ele><time>2026-04-11T17:08:04.667Z</time></trkpt><trkpt lat="38.9956053" lon="16.4925562"><ele>885.0</ele><time>2026-04-11T17:08:05.667Z</time></trkpt><trkpt lat="38.9955543" lon="16.4926791"><ele>885.0</ele><time>2026-04-11T17:08:06.667Z</time></trkpt><trkpt lat="38.9955042" lon="16.4928066"><ele>885.0</ele><time>2026-04-11T17:08:07.667Z</time></trkpt><trkpt lat="38.9954445" lon="16.4929258"><ele>885.0</ele><time>2026-04-11T17:08:08.668Z</time></trkpt><trkpt lat="38.9953707" lon="16.4930375"><ele>885.0</ele><time>2026-04-11T17:08:09.667Z</time></trkpt><trkpt lat="38.9952928" lon="16.4931444"><ele>885.0</ele><time>2026-04-11T17:08:10.668Z</time></trkpt><trkpt lat="38.9952123" lon="16.4932297"><ele>886.0</ele><time>2026-04-11T17:08:11.667Z</time></trkpt><trkpt lat="38.9951332" lon="16.4933114"><ele>887.0</ele><time>2026-04-11T17:08:12.667Z</time></trkpt><trkpt lat="38.9950622" lon="16.493402"><ele>888.0</ele><time>2026-04-11T17:08:13.668Z</time></trkpt><trkpt lat="38.9949917" lon="16.4934999"><ele>889.0</ele><time>2026-04-11T17:08:14.667Z</time></trkpt><trkpt lat="38.9949311" lon="16.4936045"><ele>890.0</ele><time>2026-04-11T17:08:15.667Z</time></trkpt><trkpt lat="38.9948807" lon="16.4937011"><ele>892.3333333333334</ele><time>2026-04-11T17:08:16.667Z</time></trkpt><trkpt lat="38.99483" lon="16.4937955"><ele>894.6666666666667</ele><time>2026-04-11T17:08:17.667Z</time></trkpt><trkpt lat="38.9947804" lon="16.4938851"><ele>897.0</ele><time>2026-04-11T17:08:18.668Z</time></trkpt><trkpt lat="38.9947407" lon="16.4939702"><ele>899.3333333333333</ele><time>2026-04-11T17:08:19.668Z</time></trkpt><trkpt lat="38.994698" lon="16.4940489"><ele>901.6666666666666</ele><time>2026-04-11T17:08:20.668Z</time></trkpt><trkpt lat="38.9946519" lon="16.4941466"><ele>904.0</ele><time>2026-04-11T17:08:21.667Z</time></trkpt><trkpt lat="38.9946051" lon="16.4942465"><ele>904.0</ele><time>2026-04-11T17:08:22.667Z</time></trkpt><trkpt lat="38.9945544" lon="16.4943577"><ele>904.0000000000001</ele><time>2026-04-11T17:08:23.667Z</time></trkpt><trkpt lat="38.9945082" lon="16.4944744"><ele>904.0000000000001</ele><time>2026-04-11T17:08:24.668Z</time></trkpt><trkpt lat="38.9944616" lon="16.4945962"><ele>904.0</ele><time>2026-04-11T17:08:25.667Z</time></trkpt><trkpt lat="38.994409" lon="16.49472"><ele>904.0</ele><time>2026-04-11T17:08:26.667Z</time></trkpt><trkpt lat="38.9943552" lon="16.4948432"><ele>903.6</ele><time>2026-04-11T17:08:27.667Z</time></trkpt><trkpt lat="38.9942974" lon="16.4949713"><ele>903.2</ele><time>2026-04-11T17:08:28.667Z</time></trkpt><trkpt lat="38.9942464" lon="16.4950955"><ele>902.8000000000001</ele><time>2026-04-11T17:08:29.667Z</time></trkpt><trkpt lat="38.9941949" lon="16.4952231"><ele>902.4000000000001</ele><time>2026-04-11T17:08:30.667Z</time></trkpt><trkpt lat="38.9941446" lon="16.4953514"><ele>902.0</ele><time>2026-04-11T17:08:31.667Z</time></trkpt><trkpt lat="38.9940981" lon="16.4954781"><ele>900.4000000000001</ele><time>2026-04-11T17:08:32.667Z</time></trkpt><trkpt lat="38.99406" lon="16.4956052"><ele>898.8000000000001</ele><time>2026-04-11T17:08:33.668Z</time></trkpt><trkpt lat="38.9940302" lon="16.4957237"><ele>897.2</ele><time>2026-04-11T17:08:34.667Z</time></trkpt><trkpt lat="38.9940118" lon="16.4958505"><ele>895.6</ele><time>2026-04-11T17:08:35.667Z</time></trkpt><trkpt lat="38.9939982" lon="16.4959773"><ele>894.0</ele><time>2026-04-11T17:08:36.667Z</time></trkpt><trkpt lat="38.993979" lon="16.4960992"><ele>894.0</ele><time>2026-04-11T17:08:37.667Z</time></trkpt><trkpt lat="38.9939538" lon="16.4962235"><ele>894.0000000000001</ele><time>2026-04-11T17:08:38.668Z</time></trkpt><trkpt lat="38.9939147" lon="16.4963309"><ele>894.0000000000001</ele><time>2026-04-11T17:08:39.667Z</time></trkpt><trkpt lat="38.9938553" lon="16.4964329"><ele>894.0</ele><time>2026-04-11T17:08:40.668Z</time></trkpt><trkpt lat="38.9937876" lon="16.496521"><ele>894.0</ele><time>2026-04-11T17:08:41.667Z</time></trkpt><trkpt lat="38.9937259" lon="16.496615"><ele>892.4000000000001</ele><time>2026-04-11T17:08:42.667Z</time></trkpt><trkpt lat="38.993671" lon="16.4967145"><ele>890.8000000000001</ele><time>2026-04-11T17:08:43.667Z</time></trkpt><trkpt lat="38.9936238" lon="16.4968209"><ele>889.1999999999999</ele><time>2026-04-11T17:08:44.667Z</time></trkpt><trkpt lat="38.9935795" lon="16.4969428"><ele>887.5999999999999</ele><time>2026-04-11T17:08:45.668Z</time></trkpt><trkpt lat="38.9935346" lon="16.4970746"><ele>886.0</ele><time>2026-04-11T17:08:46.667Z</time></trkpt><trkpt lat="38.993488" lon="16.4972176"><ele>885.5</ele><time>2026-04-11T17:08:47.668Z</time></trkpt><trkpt lat="38.9934398" lon="16.4973698"><ele>885.0</ele><time>2026-04-11T17:08:48.667Z</time></trkpt><trkpt lat="38.9933895" lon="16.4975076"><ele>884.5</ele><time>2026-04-11T17:08:49.667Z</time></trkpt><trkpt lat="38.9933299" lon="16.4976395"><ele>884.0</ele><time>2026-04-11T17:08:50.668Z</time></trkpt><trkpt lat="38.9932647" lon="16.4977527"><ele>884.0</ele><time>2026-04-11T17:08:51.667Z</time></trkpt><trkpt lat="38.9932054" lon="16.4978609"><ele>884.0000000000001</ele><time>2026-04-11T17:08:52.668Z</time></trkpt><trkpt lat="38.9931485" lon="16.497978"><ele>884.0000000000001</ele><time>2026-04-11T17:08:53.668Z</time></trkpt><trkpt lat="38.9930813" lon="16.4980938"><ele>884.0</ele><time>2026-04-11T17:08:54.667Z</time></trkpt><trkpt lat="38.9930075" lon="16.4982132"><ele>884.0</ele><time>2026-04-11T17:08:55.667Z</time></trkpt><trkpt lat="38.9929247" lon="16.4983354"><ele>882.0</ele><time>2026-04-11T17:08:56.668Z</time></trkpt><trkpt lat="38.9928485" lon="16.4984585"><ele>880.0</ele><time>2026-04-11T17:08:57.667Z</time></trkpt><trkpt lat="38.9927829" lon="16.4985868"><ele>878.0</ele><time>2026-04-11T17:08:58.668Z</time></trkpt><trkpt lat="38.9927276" lon="16.4987224"><ele>876.0</ele><time>2026-04-11T17:08:59.668Z</time></trkpt><trkpt lat="38.9926698" lon="16.4988483"><ele>876.4</ele><time>2026-04-11T17:09:00.668Z</time></trkpt><trkpt lat="38.9926128" lon="16.4989717"><ele>876.8</ele><time>2026-04-11T17:09:01.667Z</time></trkpt><trkpt lat="38.9925603" lon="16.4991"><ele>877.1999999999999</ele><time>2026-04-11T17:09:02.667Z</time></trkpt><trkpt lat="38.992515" lon="16.4992342"><ele>877.5999999999999</ele><time>2026-04-11T17:09:03.668Z</time></trkpt><trkpt lat="38.9924635" lon="16.4993561"><ele>878.0</ele><time>2026-04-11T17:09:04.667Z</time></trkpt><trkpt lat="38.9924085" lon="16.4994661"><ele>878.0</ele><time>2026-04-11T17:09:05.668Z</time></trkpt><trkpt lat="38.9923555" lon="16.4995678"><ele>878.0</ele><time>2026-04-11T17:09:06.667Z</time></trkpt><trkpt lat="38.9923127" lon="16.4996736"><ele>878.0</ele><time>2026-04-11T17:09:07.667Z</time></trkpt><trkpt lat="38.9922734" lon="16.4997879"><ele>878.0</ele><time>2026-04-11T17:09:08.668Z</time></trkpt><trkpt lat="38.9922431" lon="16.4999036"><ele>878.0</ele><time>2026-04-11T17:09:09.667Z</time></trkpt><trkpt lat="38.9922135" lon="16.5000291"><ele>877.8</ele><time>2026-04-11T17:09:10.667Z</time></trkpt><trkpt lat="38.9921824" lon="16.5001518"><ele>877.5999999999999</ele><time>2026-04-11T17:09:11.667Z</time></trkpt><trkpt lat="38.9921462" lon="16.5002473"><ele>877.4000000000001</ele><time>2026-04-11T17:09:12.668Z</time></trkpt><trkpt lat="38.9920929" lon="16.5003308"><ele>877.2</ele><time>2026-04-11T17:09:13.667Z</time></trkpt><trkpt lat="38.9920174" lon="16.5004125"><ele>877.0</ele><time>2026-04-11T17:09:14.668Z</time></trkpt><trkpt lat="38.9919196" lon="16.500475"><ele>875.0</ele><time>2026-04-11T17:09:15.668Z</time></trkpt><trkpt lat="38.991825" lon="16.5005457"><ele>873.0</ele><time>2026-04-11T17:09:16.667Z</time></trkpt><trkpt lat="38.9917475" lon="16.5006292"><ele>871.0</ele><time>2026-04-11T17:09:17.668Z</time></trkpt><trkpt lat="38.9916796" lon="16.5007161"><ele>869.0</ele><time>2026-04-11T17:09:18.668Z</time></trkpt><trkpt lat="38.9916194" lon="16.5008057"><ele>867.0</ele><time>2026-04-11T17:09:19.668Z</time></trkpt><trkpt lat="38.9915716" lon="16.5009081"><ele>872.0</ele><time>2026-04-11T17:09:20.667Z</time></trkpt><trkpt lat="38.9915441" lon="16.501017"><ele>877.0</ele><time>2026-04-11T17:09:21.668Z</time></trkpt><trkpt lat="38.9915226" lon="16.5011286"><ele>882.0</ele><time>2026-04-11T17:09:22.667Z</time></trkpt><trkpt lat="38.9914889" lon="16.5012381"><ele>887.0</ele><time>2026-04-11T17:09:23.668Z</time></trkpt><trkpt lat="38.9914374" lon="16.501352"><ele>892.0</ele><time>2026-04-11T17:09:24.667Z</time></trkpt><trkpt lat="38.9913582" lon="16.5014618"><ele>893.0</ele><time>2026-04-11T17:09:25.668Z</time></trkpt><trkpt lat="38.9912673" lon="16.5015701"><ele>894.0</ele><time>2026-04-11T17:09:26.668Z</time></trkpt><trkpt lat="38.9911843" lon="16.5016684"><ele>895.0</ele><time>2026-04-11T17:09:27.668Z</time></trkpt><trkpt lat="38.99111" lon="16.5017575"><ele>896.0</ele><time>2026-04-11T17:09:28.668Z</time></trkpt><trkpt lat="38.9910416" lon="16.5018434"><ele>897.0</ele><time>2026-04-11T17:09:29.668Z</time></trkpt><trkpt lat="38.9909719" lon="16.5019336"><ele>897.0</ele><time>2026-04-11T17:09:30.668Z</time></trkpt><trkpt lat="38.9909067" lon="16.502031"><ele>897.0</ele><time>2026-04-11T17:09:31.668Z</time></trkpt><trkpt lat="38.9908566" lon="16.5021408"><ele>897.0</ele><time>2026-04-11T17:09:32.667Z</time></trkpt><trkpt lat="38.9908092" lon="16.5022551"><ele>897.0</ele><time>2026-04-11T17:09:33.667Z</time></trkpt><trkpt lat="38.9907588" lon="16.5023779"><ele>897.0</ele><time>2026-04-11T17:09:34.667Z</time></trkpt><trkpt lat="38.990715" lon="16.5025013"><ele>900.6</ele><time>2026-04-11T17:09:35.667Z</time></trkpt><trkpt lat="38.9906778" lon="16.5026245"><ele>904.2</ele><time>2026-04-11T17:09:36.667Z</time></trkpt><trkpt lat="38.990641" lon="16.5027481"><ele>907.8</ele><time>2026-04-11T17:09:37.667Z</time></trkpt><trkpt lat="38.9905969" lon="16.5028612"><ele>911.4</ele><time>2026-04-11T17:09:38.668Z</time></trkpt><trkpt lat="38.9905525" lon="16.5029659"><ele>915.0</ele><time>2026-04-11T17:09:39.667Z</time></trkpt><trkpt lat="38.9905058" lon="16.5030628"><ele>915.6666666666666</ele><time>2026-04-11T17:09:40.668Z</time></trkpt><trkpt lat="38.9904604" lon="16.5031433"><ele>916.3333333333333</ele><time>2026-04-11T17:09:41.667Z</time></trkpt><trkpt lat="38.9904113" lon="16.5032098"><ele>917.0</ele><time>2026-04-11T17:09:42.668Z</time></trkpt><trkpt lat="38.9903669" lon="16.5032745"><ele>917.6666666666666</ele><time>2026-04-11T17:09:43.668Z</time></trkpt><trkpt lat="38.9902798" lon="16.5033605"><ele>918.3333333333333</ele><time>2026-04-11T17:09:45.667Z</time></trkpt><trkpt lat="38.9901901" lon="16.5034048"><ele>919.0</ele><time>2026-04-11T17:09:47.668Z</time></trkpt><trkpt lat="38.9900938" lon="16.5034264"><ele>919.4000000000001</ele><time>2026-04-11T17:09:49.667Z</time></trkpt><trkpt lat="38.9899678" lon="16.5034581"><ele>919.8000000000001</ele><time>2026-04-11T17:09:51.667Z</time></trkpt><trkpt lat="38.9898889" lon="16.5034829"><ele>920.1999999999999</ele><time>2026-04-11T17:09:52.667Z</time></trkpt><trkpt lat="38.9898008" lon="16.5035145"><ele>920.5999999999999</ele><time>2026-04-11T17:09:53.667Z</time></trkpt><trkpt lat="38.9897149" lon="16.5035501"><ele>921.0</ele><time>2026-04-11T17:09:54.667Z</time></trkpt><trkpt lat="38.9896222" lon="16.5035869"><ele>921.0</ele><time>2026-04-11T17:09:55.667Z</time></trkpt><trkpt lat="38.9895228" lon="16.5036252"><ele>920.9999999999999</ele><time>2026-04-11T17:09:56.667Z</time></trkpt><trkpt lat="38.9894251" lon="16.503651"><ele>920.9999999999999</ele><time>2026-04-11T17:09:57.668Z</time></trkpt><trkpt lat="38.9893326" lon="16.5036648"><ele>921.0</ele><time>2026-04-11T17:09:58.667Z</time></trkpt><trkpt lat="38.989252" lon="16.503679"><ele>921.0</ele><time>2026-04-11T17:09:59.667Z</time></trkpt><trkpt lat="38.9891731" lon="16.5036905"><ele>918.5</ele><time>2026-04-11T17:10:00.667Z</time></trkpt><trkpt lat="38.9890931" lon="16.5037152"><ele>916.0</ele><time>2026-04-11T17:10:01.667Z</time></trkpt><trkpt lat="38.9890087" lon="16.5037456"><ele>913.5</ele><time>2026-04-11T17:10:02.667Z</time></trkpt><trkpt lat="38.988925" lon="16.5037721"><ele>911.0</ele><time>2026-04-11T17:10:03.667Z</time></trkpt><trkpt lat="38.9888388" lon="16.5037974"><ele>908.5</ele><time>2026-04-11T17:10:04.668Z</time></trkpt><trkpt lat="38.9887483" lon="16.5038238"><ele>906.0</ele><time>2026-04-11T17:10:05.668Z</time></trkpt><trkpt lat="38.9886549" lon="16.5038335"><ele>904.1999999999999</ele><time>2026-04-11T17:10:06.668Z</time></trkpt><trkpt lat="38.9885555" lon="16.5038393"><ele>902.3999999999999</ele><time>2026-04-11T17:10:07.668Z</time></trkpt><trkpt lat="38.9884597" lon="16.5038409"><ele>900.6</ele><time>2026-04-11T17:10:08.667Z</time></trkpt><trkpt lat="38.9883634" lon="16.5038423"><ele>898.8</ele><time>2026-04-11T17:10:09.668Z</time></trkpt><trkpt lat="38.9882657" lon="16.5038494"><ele>897.0</ele><time>2026-04-11T17:10:10.667Z</time></trkpt><trkpt lat="38.9881735" lon="16.5038506"><ele>895.6666666666666</ele><time>2026-04-11T17:10:11.668Z</time></trkpt><trkpt lat="38.9880829" lon="16.5038473"><ele>894.3333333333333</ele><time>2026-04-11T17:10:12.667Z</time></trkpt><trkpt lat="38.9879918" lon="16.5038408"><ele>893.0</ele><time>2026-04-11T17:10:13.667Z</time></trkpt><trkpt lat="38.9879048" lon="16.5038345"><ele>891.6666666666666</ele><time>2026-04-11T17:10:14.668Z</time></trkpt><trkpt lat="38.9878271" lon="16.5038315"><ele>890.3333333333333</ele><time>2026-04-11T17:10:15.667Z</time></trkpt><trkpt lat="38.9877532" lon="16.503828"><ele>889.0</ele><time>2026-04-11T17:10:16.667Z</time></trkpt><trkpt lat="38.9876789" lon="16.503824"><ele>888.9999999999999</ele><time>2026-04-11T17:10:17.668Z</time></trkpt><trkpt lat="38.9876054" lon="16.5038151"><ele>889.0</ele><time>2026-04-11T17:10:18.668Z</time></trkpt><trkpt lat="38.9875334" lon="16.5038023"><ele>889.0</ele><time>2026-04-11T17:10:19.668Z</time></trkpt><trkpt lat="38.9874599" lon="16.5037931"><ele>889.0</ele><time>2026-04-11T17:10:20.668Z</time></trkpt><trkpt lat="38.9873832" lon="16.503779"><ele>888.9999999999999</ele><time>2026-04-11T17:10:21.668Z</time></trkpt><trkpt lat="38.9873024" lon="16.5037641"><ele>889.0</ele><time>2026-04-11T17:10:22.668Z</time></trkpt><trkpt lat="38.9872189" lon="16.5037517"><ele>889.2</ele><time>2026-04-11T17:10:23.668Z</time></trkpt><trkpt lat="38.9871306" lon="16.503731"><ele>889.4000000000001</ele><time>2026-04-11T17:10:24.668Z</time></trkpt><trkpt lat="38.9870414" lon="16.5036995"><ele>889.6</ele><time>2026-04-11T17:10:25.668Z</time></trkpt><trkpt lat="38.9869393" lon="16.5036641"><ele>889.8</ele><time>2026-04-11T17:10:26.668Z</time></trkpt><trkpt lat="38.9868494" lon="16.503624"><ele>890.0</ele><time>2026-04-11T17:10:27.669Z</time></trkpt><trkpt lat="38.9867664" lon="16.5035859"><ele>890.0</ele><time>2026-04-11T17:10:28.668Z</time></trkpt><trkpt lat="38.9866973" lon="16.5035522"><ele>890.0</ele><time>2026-04-11T17:10:29.668Z</time></trkpt><trkpt lat="38.9866086" lon="16.5035226"><ele>890.0</ele><time>2026-04-11T17:10:31.668Z</time></trkpt><trkpt lat="38.9865978" lon="16.503627"><ele>890.0</ele><time>2026-04-11T17:11:28.668Z</time></trkpt><trkpt lat="38.9866822" lon="16.5036954"><ele>890.0</ele><time>2026-04-11T17:11:31.669Z</time></trkpt><trkpt lat="38.9867995" lon="16.5037744"><ele>889.3333333333334</ele><time>2026-04-11T17:11:33.669Z</time></trkpt><trkpt lat="38.9868653" lon="16.5038166"><ele>888.6666666666667</ele><time>2026-04-11T17:11:34.668Z</time></trkpt><trkpt lat="38.9869236" lon="16.5038616"><ele>888.0</ele><time>2026-04-11T17:11:35.668Z</time></trkpt><trkpt lat="38.9870146" lon="16.5039598"><ele>887.3333333333333</ele><time>2026-04-11T17:11:37.669Z</time></trkpt><trkpt lat="38.987065" lon="16.5040089"><ele>886.6666666666666</ele><time>2026-04-11T17:11:38.669Z</time></trkpt><trkpt lat="38.9871182" lon="16.5040634"><ele>886.0</ele><time>2026-04-11T17:11:39.668Z</time></trkpt><trkpt lat="38.987176" lon="16.504135"><ele>886.0</ele><time>2026-04-11T17:11:40.669Z</time></trkpt><trkpt lat="38.9872438" lon="16.5042121"><ele>885.9999999999999</ele><time>2026-04-11T17:11:41.668Z</time></trkpt><trkpt lat="38.9873142" lon="16.5042851"><ele>885.9999999999999</ele><time>2026-04-11T17:11:42.668Z</time></trkpt><trkpt lat="38.9873931" lon="16.5043623"><ele>886.0</ele><time>2026-04-11T17:11:43.669Z</time></trkpt><trkpt lat="38.9874662" lon="16.5044393"><ele>886.0</ele><time>2026-04-11T17:11:44.668Z</time></trkpt><trkpt lat="38.9875414" lon="16.504509"><ele>886.4999999999999</ele><time>2026-04-11T17:11:45.668Z</time></trkpt><trkpt lat="38.9876192" lon="16.5045712"><ele>887.0</ele><time>2026-04-11T17:11:46.668Z</time></trkpt><trkpt lat="38.987696" lon="16.5046293"><ele>887.5</ele><time>2026-04-11T17:11:47.669Z</time></trkpt><trkpt lat="38.9877735" lon="16.5046787"><ele>888.0</ele><time>2026-04-11T17:11:48.668Z</time></trkpt><trkpt lat="38.987855" lon="16.5047124"><ele>888.4999999999999</ele><time>2026-04-11T17:11:49.668Z</time></trkpt><trkpt lat="38.9879334" lon="16.50474"><ele>889.0</ele><time>2026-04-11T17:11:50.668Z</time></trkpt><trkpt lat="38.9880145" lon="16.5047626"><ele>886.2</ele><time>2026-04-11T17:11:51.669Z</time></trkpt><trkpt lat="38.9881042" lon="16.5047942"><ele>883.4000000000001</ele><time>2026-04-11T17:11:52.668Z</time></trkpt><trkpt lat="38.9881969" lon="16.5048317"><ele>880.6</ele><time>2026-04-11T17:11:53.669Z</time></trkpt><trkpt lat="38.9882934" lon="16.5048842"><ele>877.8</ele><time>2026-04-11T17:11:54.668Z</time></trkpt><trkpt lat="38.9883871" lon="16.5049547"><ele>875.0</ele><time>2026-04-11T17:11:55.669Z</time></trkpt><trkpt lat="38.9884675" lon="16.505032"><ele>875.0000000000001</ele><time>2026-04-11T17:11:56.668Z</time></trkpt><trkpt lat="38.9885274" lon="16.5051103"><ele>875.0</ele><time>2026-04-11T17:11:57.669Z</time></trkpt><trkpt lat="38.9885724" lon="16.5051934"><ele>875.0</ele><time>2026-04-11T17:11:58.668Z</time></trkpt><trkpt lat="38.9886024" lon="16.5052873"><ele>875.0</ele><time>2026-04-11T17:11:59.669Z</time></trkpt><trkpt lat="38.9886153" lon="16.5053822"><ele>875.0000000000001</ele><time>2026-04-11T17:12:00.668Z</time></trkpt><trkpt lat="38.9886227" lon="16.5054892"><ele>875.0</ele><time>2026-04-11T17:12:01.668Z</time></trkpt><trkpt lat="38.9886255" lon="16.5055919"><ele>871.4</ele><time>2026-04-11T17:12:02.669Z</time></trkpt><trkpt lat="38.988644" lon="16.5056908"><ele>867.8</ele><time>2026-04-11T17:12:03.668Z</time></trkpt><trkpt lat="38.9886852" lon="16.5057932"><ele>864.2</ele><time>2026-04-11T17:12:04.668Z</time></trkpt><trkpt lat="38.9887376" lon="16.5058921"><ele>860.6</ele><time>2026-04-11T17:12:05.668Z</time></trkpt><trkpt lat="38.9887934" lon="16.5059884"><ele>857.0</ele><time>2026-04-11T17:12:06.668Z</time></trkpt><trkpt lat="38.9888523" lon="16.5060838"><ele>857.0</ele><time>2026-04-11T17:12:07.668Z</time></trkpt><trkpt lat="38.9889112" lon="16.5061711"><ele>857.0</ele><time>2026-04-11T17:12:08.668Z</time></trkpt><trkpt lat="38.9889866" lon="16.5062537"><ele>857.0</ele><time>2026-04-11T17:12:09.668Z</time></trkpt><trkpt lat="38.9890707" lon="16.5063272"><ele>857.0</ele><time>2026-04-11T17:12:10.668Z</time></trkpt><trkpt lat="38.9891564" lon="16.5063943"><ele>857.0</ele><time>2026-04-11T17:12:11.668Z</time></trkpt><trkpt lat="38.9892435" lon="16.5064385"><ele>854.8333333333334</ele><time>2026-04-11T17:12:12.668Z</time></trkpt><trkpt lat="38.989323" lon="16.5064595"><ele>852.6666666666667</ele><time>2026-04-11T17:12:13.669Z</time></trkpt><trkpt lat="38.9894027" lon="16.5064593"><ele>850.5</ele><time>2026-04-11T17:12:14.669Z</time></trkpt><trkpt lat="38.9894808" lon="16.5064515"><ele>848.3333333333333</ele><time>2026-04-11T17:12:15.668Z</time></trkpt><trkpt lat="38.9895679" lon="16.5064388"><ele>846.1666666666666</ele><time>2026-04-11T17:12:16.668Z</time></trkpt><trkpt lat="38.9896603" lon="16.5064188"><ele>844.0</ele><time>2026-04-11T17:12:17.669Z</time></trkpt><trkpt lat="38.9897424" lon="16.5064242"><ele>843.9999999999999</ele><time>2026-04-11T17:12:18.668Z</time></trkpt><trkpt lat="38.9898208" lon="16.5064443"><ele>844.0</ele><time>2026-04-11T17:12:19.668Z</time></trkpt><trkpt lat="38.9899018" lon="16.5064821"><ele>844.0</ele><time>2026-04-11T17:12:20.668Z</time></trkpt><trkpt lat="38.9899787" lon="16.5065249"><ele>844.0</ele><time>2026-04-11T17:12:21.669Z</time></trkpt><trkpt lat="38.9900427" lon="16.5065756"><ele>843.9999999999999</ele><time>2026-04-11T17:12:22.668Z</time></trkpt><trkpt lat="38.9900985" lon="16.5066424"><ele>844.0</ele><time>2026-04-11T17:12:23.668Z</time></trkpt><trkpt lat="38.990151" lon="16.5067279"><ele>843.4000000000001</ele><time>2026-04-11T17:12:24.668Z</time></trkpt><trkpt lat="38.990221" lon="16.5068058"><ele>842.8</ele><time>2026-04-11T17:12:25.668Z</time></trkpt><trkpt lat="38.9902939" lon="16.5068824"><ele>842.2</ele><time>2026-04-11T17:12:26.669Z</time></trkpt><trkpt lat="38.9903622" lon="16.5069595"><ele>841.5999999999999</ele><time>2026-04-11T17:12:27.669Z</time></trkpt><trkpt lat="38.9904237" lon="16.507044"><ele>841.0</ele><time>2026-04-11T17:12:28.668Z</time></trkpt><trkpt lat="38.9904891" lon="16.5071208"><ele>841.0</ele><time>2026-04-11T17:12:29.668Z</time></trkpt><trkpt lat="38.9905557" lon="16.5072005"><ele>841.0</ele><time>2026-04-11T17:12:30.668Z</time></trkpt><trkpt lat="38.9906201" lon="16.5072919"><ele>841.0</ele><time>2026-04-11T17:12:31.669Z</time></trkpt><trkpt lat="38.9906743" lon="16.5073946"><ele>841.0</ele><time>2026-04-11T17:12:32.669Z</time></trkpt><trkpt lat="38.9907208" lon="16.5075082"><ele>841.0</ele><time>2026-04-11T17:12:33.668Z</time></trkpt><trkpt lat="38.9907548" lon="16.5076233"><ele>841.0</ele><time>2026-04-11T17:12:34.669Z</time></trkpt><trkpt lat="38.9907825" lon="16.5077422"><ele>841.0</ele><time>2026-04-11T17:12:35.668Z</time></trkpt><trkpt lat="38.9908056" lon="16.5078605"><ele>841.0</ele><time>2026-04-11T17:12:36.669Z</time></trkpt><trkpt lat="38.9908358" lon="16.5079778"><ele>841.0</ele><time>2026-04-11T17:12:37.668Z</time></trkpt><trkpt lat="38.9908738" lon="16.5080843"><ele>841.0</ele><time>2026-04-11T17:12:38.669Z</time></trkpt><trkpt lat="38.9909215" lon="16.5081743"><ele>837.1666666666666</ele><time>2026-04-11T17:12:39.668Z</time></trkpt><trkpt lat="38.9909839" lon="16.5082448"><ele>833.3333333333333</ele><time>2026-04-11T17:12:40.668Z</time></trkpt><trkpt lat="38.9910538" lon="16.5083046"><ele>829.5</ele><time>2026-04-11T17:12:41.669Z</time></trkpt><trkpt lat="38.9911293" lon="16.5083576"><ele>825.6666666666667</ele><time>2026-04-11T17:12:42.669Z</time></trkpt><trkpt lat="38.9912068" lon="16.5083877"><ele>821.8333333333334</ele><time>2026-04-11T17:12:43.669Z</time></trkpt><trkpt lat="38.9912919" lon="16.5083893"><ele>818.0</ele><time>2026-04-11T17:12:44.669Z</time></trkpt><trkpt lat="38.9913731" lon="16.5083594"><ele>818.0</ele><time>2026-04-11T17:12:45.669Z</time></trkpt><trkpt lat="38.9914575" lon="16.5083033"><ele>818.0</ele><time>2026-04-11T17:12:46.668Z</time></trkpt><trkpt lat="38.9915377" lon="16.5082279"><ele>818.0</ele><time>2026-04-11T17:12:47.668Z</time></trkpt><trkpt lat="38.9916106" lon="16.5081466"><ele>818.0</ele><time>2026-04-11T17:12:48.669Z</time></trkpt><trkpt lat="38.99168" lon="16.5080599"><ele>818.0</ele><time>2026-04-11T17:12:49.668Z</time></trkpt><trkpt lat="38.9917589" lon="16.5079656"><ele>815.0</ele><time>2026-04-11T17:12:50.668Z</time></trkpt><trkpt lat="38.9918399" lon="16.5078639"><ele>812.0</ele><time>2026-04-11T17:12:51.668Z</time></trkpt><trkpt lat="38.9919262" lon="16.5077664"><ele>809.0</ele><time>2026-04-11T17:12:52.669Z</time></trkpt><trkpt lat="38.9920174" lon="16.5076785"><ele>806.0</ele><time>2026-04-11T17:12:53.668Z</time></trkpt><trkpt lat="38.9921036" lon="16.5076027"><ele>803.0</ele><time>2026-04-11T17:12:54.668Z</time></trkpt><trkpt lat="38.9921794" lon="16.5075452"><ele>803.0000000000001</ele><time>2026-04-11T17:12:55.668Z</time></trkpt><trkpt lat="38.9922406" lon="16.5074798"><ele>803.0</ele><time>2026-04-11T17:12:56.668Z</time></trkpt><trkpt lat="38.9922928" lon="16.5074054"><ele>803.0</ele><time>2026-04-11T17:12:57.668Z</time></trkpt><trkpt lat="38.9923256" lon="16.5073274"><ele>803.0</ele><time>2026-04-11T17:12:58.668Z</time></trkpt><trkpt lat="38.9923799" lon="16.5072431"><ele>803.0000000000001</ele><time>2026-04-11T17:13:00.669Z</time></trkpt><trkpt lat="38.9923911" lon="16.5074108"><ele>803.0</ele><time>2026-04-11T17:13:03.668Z</time></trkpt><trkpt lat="38.9923583" lon="16.5075564"><ele>803.0</ele><time>2026-04-11T17:13:04.669Z</time></trkpt><trkpt lat="38.9923281" lon="16.5077088"><ele>803.0</ele><time>2026-04-11T17:13:05.668Z</time></trkpt><trkpt lat="38.9923028" lon="16.5078577"><ele>803.0</ele><time>2026-04-11T17:13:06.669Z</time></trkpt><trkpt lat="38.9922764" lon="16.507986"><ele>803.0</ele><time>2026-04-11T17:13:07.669Z</time></trkpt><trkpt lat="38.992252" lon="16.5080872"><ele>803.0</ele><time>2026-04-11T17:13:08.668Z</time></trkpt><trkpt lat="38.9922578" lon="16.50821"><ele>801.5714285714286</ele><time>2026-04-11T17:13:10.669Z</time></trkpt><trkpt lat="38.9923325" lon="16.5082115"><ele>800.1428571428571</ele><time>2026-04-11T17:13:12.668Z</time></trkpt><trkpt lat="38.9923906" lon="16.508164"><ele>798.7142857142858</ele><time>2026-04-11T17:13:13.668Z</time></trkpt><trkpt lat="38.9924512" lon="16.5080998"><ele>797.2857142857142</ele><time>2026-04-11T17:13:14.668Z</time></trkpt><trkpt lat="38.9925133" lon="16.5080386"><ele>795.8571428571429</ele><time>2026-04-11T17:13:15.669Z</time></trkpt><trkpt lat="38.9925724" lon="16.5079885"><ele>794.4285714285714</ele><time>2026-04-11T17:13:16.669Z</time></trkpt><trkpt lat="38.9926281" lon="16.5079494"><ele>793.0</ele><time>2026-04-11T17:13:17.668Z</time></trkpt><trkpt lat="38.9927321" lon="16.5079083"><ele>789.3333333333333</ele><time>2026-04-11T17:13:19.669Z</time></trkpt><trkpt lat="38.9928088" lon="16.5079639"><ele>785.6666666666666</ele><time>2026-04-11T17:13:21.668Z</time></trkpt><trkpt lat="38.9928108" lon="16.5080633"><ele>782.0</ele><time>2026-04-11T17:13:23.669Z</time></trkpt><trkpt lat="38.9927514" lon="16.5081929"><ele>778.3333333333333</ele><time>2026-04-11T17:13:25.668Z</time></trkpt><trkpt lat="38.9927019" lon="16.5082621"><ele>774.6666666666666</ele><time>2026-04-11T17:13:26.668Z</time></trkpt><trkpt lat="38.9926565" lon="16.5083432"><ele>771.0</ele><time>2026-04-11T17:13:27.668Z</time></trkpt><trkpt lat="38.992624" lon="16.5084253"><ele>771.0</ele><time>2026-04-11T17:13:28.669Z</time></trkpt><trkpt lat="38.9925933" lon="16.5085184"><ele>771.0</ele><time>2026-04-11T17:13:29.668Z</time></trkpt><trkpt lat="38.9925497" lon="16.5086225"><ele>771.0</ele><time>2026-04-11T17:13:30.668Z</time></trkpt><trkpt lat="38.9924971" lon="16.5087366"><ele>771.0</ele><time>2026-04-11T17:13:31.668Z</time></trkpt><trkpt lat="38.9924464" lon="16.5088515"><ele>771.0</ele><time>2026-04-11T17:13:32.669Z</time></trkpt><trkpt lat="38.9924032" lon="16.5089595"><ele>772.0</ele><time>2026-04-11T17:13:33.669Z</time></trkpt><trkpt lat="38.9923691" lon="16.5090718"><ele>773.0</ele><time>2026-04-11T17:13:34.669Z</time></trkpt><trkpt lat="38.9923284" lon="16.5091868"><ele>774.0</ele><time>2026-04-11T17:13:35.669Z</time></trkpt><trkpt lat="38.9922822" lon="16.5092909"><ele>775.0</ele><time>2026-04-11T17:13:36.668Z</time></trkpt><trkpt lat="38.9922282" lon="16.5093961"><ele>776.0</ele><time>2026-04-11T17:13:37.668Z</time></trkpt><trkpt lat="38.9921626" lon="16.5094885"><ele>776.0</ele><time>2026-04-11T17:13:38.668Z</time></trkpt><trkpt lat="38.9920883" lon="16.5095627"><ele>776.0</ele><time>2026-04-11T17:13:39.669Z</time></trkpt><trkpt lat="38.9920138" lon="16.5096388"><ele>776.0</ele><time>2026-04-11T17:13:40.669Z</time></trkpt><trkpt lat="38.9919481" lon="16.5097108"><ele>776.0</ele><time>2026-04-11T17:13:41.668Z</time></trkpt><trkpt lat="38.9918908" lon="16.50979"><ele>776.0</ele><time>2026-04-11T17:13:42.668Z</time></trkpt><trkpt lat="38.9918377" lon="16.5098878"><ele>776.5999999999999</ele><time>2026-04-11T17:13:43.668Z</time></trkpt><trkpt lat="38.9917836" lon="16.5099941"><ele>777.2</ele><time>2026-04-11T17:13:44.668Z</time></trkpt><trkpt lat="38.9917348" lon="16.5101007"><ele>777.8</ele><time>2026-04-11T17:13:45.668Z</time></trkpt><trkpt lat="38.9916845" lon="16.5102031"><ele>778.4000000000001</ele><time>2026-04-11T17:13:46.669Z</time></trkpt><trkpt lat="38.9916414" lon="16.5103109"><ele>779.0</ele><time>2026-04-11T17:13:47.669Z</time></trkpt><trkpt lat="38.9916034" lon="16.5104339"><ele>774.4000000000001</ele><time>2026-04-11T17:13:48.669Z</time></trkpt><trkpt lat="38.9915678" lon="16.5105384"><ele>769.8</ele><time>2026-04-11T17:13:49.668Z</time></trkpt><trkpt lat="38.9915335" lon="16.5106138"><ele>765.2</ele><time>2026-04-11T17:13:50.669Z</time></trkpt><trkpt lat="38.9914234" lon="16.5107104"><ele>760.5999999999999</ele><time>2026-04-11T17:13:52.669Z</time></trkpt><trkpt lat="38.9913409" lon="16.5107475"><ele>756.0</ele><time>2026-04-11T17:13:53.668Z</time></trkpt><trkpt lat="38.9912545" lon="16.5107923"><ele>756.0</ele><time>2026-04-11T17:13:54.668Z</time></trkpt><trkpt lat="38.9911654" lon="16.5108421"><ele>756.0</ele><time>2026-04-11T17:13:55.668Z</time></trkpt><trkpt lat="38.9910826" lon="16.5108949"><ele>756.0</ele><time>2026-04-11T17:13:56.669Z</time></trkpt><trkpt lat="38.991012" lon="16.51093"><ele>756.0</ele><time>2026-04-11T17:13:57.669Z</time></trkpt><trkpt lat="38.9909444" lon="16.5109476"><ele>756.0</ele><time>2026-04-11T17:13:58.668Z</time></trkpt><trkpt lat="38.9908649" lon="16.5109869"><ele>756.0</ele><time>2026-04-11T17:14:00.668Z</time></trkpt><trkpt lat="38.9908448" lon="16.511078"><ele>753.1999999999999</ele><time>2026-04-11T17:14:02.668Z</time></trkpt><trkpt lat="38.9908623" lon="16.5112425"><ele>750.4</ele><time>2026-04-11T17:14:04.668Z</time></trkpt><trkpt lat="38.9908656" lon="16.5113533"><ele>747.6</ele><time>2026-04-11T17:14:05.668Z</time></trkpt><trkpt lat="38.9908742" lon="16.5114638"><ele>744.8</ele><time>2026-04-11T17:14:06.669Z</time></trkpt><trkpt lat="38.9908983" lon="16.5115633"><ele>742.0</ele><time>2026-04-11T17:14:07.668Z</time></trkpt><trkpt lat="38.9909394" lon="16.5116459"><ele>742.0</ele><time>2026-04-11T17:14:08.669Z</time></trkpt><trkpt lat="38.9909894" lon="16.5117073"><ele>742.0</ele><time>2026-04-11T17:14:09.668Z</time></trkpt><trkpt lat="38.991054" lon="16.5117495"><ele>742.0</ele><time>2026-04-11T17:14:10.668Z</time></trkpt><trkpt lat="38.9911288" lon="16.5117803"><ele>742.0</ele><time>2026-04-11T17:14:11.668Z</time></trkpt><trkpt lat="38.9912156" lon="16.5118034"><ele>742.0</ele><time>2026-04-11T17:14:12.668Z</time></trkpt><trkpt lat="38.9912996" lon="16.5118354"><ele>742.0</ele><time>2026-04-11T17:14:13.669Z</time></trkpt><trkpt lat="38.9913842" lon="16.5118705"><ele>742.0</ele><time>2026-04-11T17:14:14.669Z</time></trkpt><trkpt lat="38.9914591" lon="16.5119057"><ele>742.0</ele><time>2026-04-11T17:14:15.668Z</time></trkpt><trkpt lat="38.9915271" lon="16.511928"><ele>742.0</ele><time>2026-04-11T17:14:16.668Z</time></trkpt><trkpt lat="38.9916561" lon="16.5119219"><ele>742.0</ele><time>2026-04-11T17:14:18.668Z</time></trkpt><trkpt lat="38.9917379" lon="16.5118911"><ele>742.0</ele><time>2026-04-11T17:14:19.668Z</time></trkpt><trkpt lat="38.9918298" lon="16.5118676"><ele>739.4000000000001</ele><time>2026-04-11T17:14:20.668Z</time></trkpt><trkpt lat="38.991922" lon="16.5118605"><ele>736.8000000000001</ele><time>2026-04-11T17:14:21.668Z</time></trkpt><trkpt lat="38.9919968" lon="16.5118668"><ele>734.2</ele><time>2026-04-11T17:14:22.668Z</time></trkpt><trkpt lat="38.9920785" lon="16.5119179"><ele>731.6</ele><time>2026-04-11T17:14:24.668Z</time></trkpt><trkpt lat="38.9920719" lon="16.5120316"><ele>729.0</ele><time>2026-04-11T17:14:26.668Z</time></trkpt><trkpt lat="38.9920348" lon="16.512182"><ele>726.6</ele><time>2026-04-11T17:14:28.668Z</time></trkpt><trkpt lat="38.9920236" lon="16.5122684"><ele>724.2</ele><time>2026-04-11T17:14:29.669Z</time></trkpt><trkpt lat="38.99204" lon="16.5124149"><ele>721.8000000000001</ele><time>2026-04-11T17:14:31.668Z</time></trkpt><trkpt lat="38.9921124" lon="16.5124985"><ele>719.4000000000001</ele><time>2026-04-11T17:14:33.669Z</time></trkpt><trkpt lat="38.9922231" lon="16.5124718"><ele>717.0</ele><time>2026-04-11T17:14:35.668Z</time></trkpt><trkpt lat="38.9923125" lon="16.5124972"><ele>717.0</ele><time>2026-04-11T17:14:37.669Z</time></trkpt><trkpt lat="38.9923225" lon="16.5126027"><ele>717.0</ele><time>2026-04-11T17:14:39.668Z</time></trkpt><trkpt lat="38.9923099" lon="16.5127021"><ele>717.0</ele><time>2026-04-11T17:14:40.668Z</time></trkpt><trkpt lat="38.9922984" lon="16.5128246"><ele>717.0</ele><time>2026-04-11T17:14:41.668Z</time></trkpt><trkpt lat="38.9922861" lon="16.5129511"><ele>717.0</ele><time>2026-04-11T17:14:42.668Z</time></trkpt><trkpt lat="38.9922817" lon="16.513071"><ele>717.0</ele><time>2026-04-11T17:14:43.668Z</time></trkpt><trkpt lat="38.992285" lon="16.513178"><ele>714.6666666666666</ele><time>2026-04-11T17:14:44.668Z</time></trkpt><trkpt lat="38.9922869" lon="16.5132748"><ele>712.3333333333334</ele><time>2026-04-11T17:14:45.668Z</time></trkpt><trkpt lat="38.9922675" lon="16.5133522"><ele>710.0</ele><time>2026-04-11T17:14:46.669Z</time></trkpt><trkpt lat="38.9921673" lon="16.5134538"><ele>707.6666666666667</ele><time>2026-04-11T17:14:48.669Z</time></trkpt><trkpt lat="38.9921018" lon="16.5134867"><ele>705.3333333333334</ele><time>2026-04-11T17:14:49.668Z</time></trkpt><trkpt lat="38.9920029" lon="16.5135498"><ele>703.0</ele><time>2026-04-11T17:14:51.668Z</time></trkpt><trkpt lat="38.9919881" lon="16.5136641"><ele>700.8571428571429</ele><time>2026-04-11T17:14:54.669Z</time></trkpt><trkpt lat="38.9920021" lon="16.5137586"><ele>698.7142857142858</ele><time>2026-04-11T17:14:56.668Z</time></trkpt><trkpt lat="38.9919861" lon="16.5139068"><ele>696.5714285714287</ele><time>2026-04-11T17:14:58.669Z</time></trkpt><trkpt lat="38.9919833" lon="16.5139889"><ele>694.4285714285714</ele><time>2026-04-11T17:14:59.668Z</time></trkpt><trkpt lat="38.9919965" lon="16.5140694"><ele>692.2857142857143</ele><time>2026-04-11T17:15:00.668Z</time></trkpt><trkpt lat="38.9920207" lon="16.5141477"><ele>690.1428571428572</ele><time>2026-04-11T17:15:01.669Z</time></trkpt><trkpt lat="38.9920493" lon="16.5142208"><ele>688.0</ele><time>2026-04-11T17:15:02.668Z</time></trkpt><trkpt lat="38.9920903" lon="16.5142832"><ele>688.0</ele><time>2026-04-11T17:15:03.668Z</time></trkpt><trkpt lat="38.99214" lon="16.5143486"><ele>688.0</ele><time>2026-04-11T17:15:04.668Z</time></trkpt><trkpt lat="38.9921931" lon="16.5144103"><ele>688.0</ele><time>2026-04-11T17:15:05.669Z</time></trkpt><trkpt lat="38.9922427" lon="16.5144707"><ele>688.0</ele><time>2026-04-11T17:15:06.669Z</time></trkpt><trkpt lat="38.9922926" lon="16.51453"><ele>688.0</ele><time>2026-04-11T17:15:07.668Z</time></trkpt><trkpt lat="38.9923511" lon="16.5145619"><ele>688.0</ele><time>2026-04-11T17:15:08.668Z</time></trkpt><trkpt lat="38.9924595" lon="16.5145121"><ele>684.5999999999999</ele><time>2026-04-11T17:15:10.669Z</time></trkpt><trkpt lat="38.9925165" lon="16.5144363"><ele>681.1999999999999</ele><time>2026-04-11T17:15:11.668Z</time></trkpt><trkpt lat="38.9925839" lon="16.5143525"><ele>677.8</ele><time>2026-04-11T17:15:12.668Z</time></trkpt><trkpt lat="38.9926624" lon="16.5142909"><ele>674.4</ele><time>2026-04-11T17:15:13.668Z</time></trkpt><trkpt lat="38.9927522" lon="16.5142506"><ele>671.0</ele><time>2026-04-11T17:15:14.668Z</time></trkpt><trkpt lat="38.9928397" lon="16.5142145"><ele>671.0</ele><time>2026-04-11T17:15:15.669Z</time></trkpt><trkpt lat="38.9929237" lon="16.5141724"><ele>671.0</ele><time>2026-04-11T17:15:16.669Z</time></trkpt><trkpt lat="38.9930099" lon="16.5141237"><ele>671.0</ele><time>2026-04-11T17:15:17.668Z</time></trkpt><trkpt lat="38.9930952" lon="16.5140721"><ele>671.0</ele><time>2026-04-11T17:15:18.668Z</time></trkpt><trkpt lat="38.9931728" lon="16.5140065"><ele>671.0</ele><time>2026-04-11T17:15:19.668Z</time></trkpt><trkpt lat="38.9932488" lon="16.5139174"><ele>671.0</ele><time>2026-04-11T17:15:20.669Z</time></trkpt><trkpt lat="38.9933205" lon="16.5138199"><ele>671.0</ele><time>2026-04-11T17:15:21.668Z</time></trkpt><trkpt lat="38.9933782" lon="16.5137143"><ele>671.0</ele><time>2026-04-11T17:15:22.669Z</time></trkpt><trkpt lat="38.9934214" lon="16.5136142"><ele>671.0</ele><time>2026-04-11T17:15:23.668Z</time></trkpt><trkpt lat="38.993456" lon="16.5135235"><ele>671.0</ele><time>2026-04-11T17:15:24.668Z</time></trkpt><trkpt lat="38.9934853" lon="16.5134508"><ele>671.0</ele><time>2026-04-11T17:15:25.668Z</time></trkpt><trkpt lat="38.9935407" lon="16.5135263"><ele>672.0</ele><time>2026-04-11T17:15:29.668Z</time></trkpt><trkpt lat="38.9935091" lon="16.5136834"><ele>673.0</ele><time>2026-04-11T17:15:31.668Z</time></trkpt><trkpt lat="38.993498" lon="16.5137878"><ele>674.0</ele><time>2026-04-11T17:15:32.669Z</time></trkpt><trkpt lat="38.9934959" lon="16.5139078"><ele>675.0</ele><time>2026-04-11T17:15:33.669Z</time></trkpt><trkpt lat="38.9935085" lon="16.5140327"><ele>676.0</ele><time>2026-04-11T17:15:34.669Z</time></trkpt><trkpt lat="38.9935316" lon="16.5141519"><ele>673.0</ele><time>2026-04-11T17:15:35.668Z</time></trkpt><trkpt lat="38.9935533" lon="16.5142596"><ele>670.0</ele><time>2026-04-11T17:15:36.668Z</time></trkpt><trkpt lat="38.9935636" lon="16.5143834"><ele>667.0</ele><time>2026-04-11T17:15:37.668Z</time></trkpt><trkpt lat="38.9935669" lon="16.5145003"><ele>664.0</ele><time>2026-04-11T17:15:38.668Z</time></trkpt><trkpt lat="38.9935554" lon="16.5146328"><ele>661.0</ele><time>2026-04-11T17:15:39.668Z</time></trkpt><trkpt lat="38.9935495" lon="16.5147698"><ele>658.0</ele><time>2026-04-11T17:15:40.668Z</time></trkpt><trkpt lat="38.9935538" lon="16.5149073"><ele>655.0</ele><time>2026-04-11T17:15:41.669Z</time></trkpt><trkpt lat="38.9935579" lon="16.5150433"><ele>652.0</ele><time>2026-04-11T17:15:42.668Z</time></trkpt><trkpt lat="38.9935509" lon="16.5151863"><ele>649.0</ele><time>2026-04-11T17:15:43.668Z</time></trkpt><trkpt lat="38.9935501" lon="16.5153342"><ele>646.0</ele><time>2026-04-11T17:15:44.668Z</time></trkpt><trkpt lat="38.993556" lon="16.515482"><ele>644.1999999999999</ele><time>2026-04-11T17:15:45.669Z</time></trkpt><trkpt lat="38.9935662" lon="16.515627"><ele>642.4</ele><time>2026-04-11T17:15:46.668Z</time></trkpt><trkpt lat="38.9935768" lon="16.5157691"><ele>640.6</ele><time>2026-04-11T17:15:47.668Z</time></trkpt><trkpt lat="38.9935855" lon="16.5159036"><ele>638.8</ele><time>2026-04-11T17:15:48.669Z</time></trkpt><trkpt lat="38.9935922" lon="16.5160342"><ele>637.0</ele><time>2026-04-11T17:15:49.668Z</time></trkpt><trkpt lat="38.9935971" lon="16.5161596"><ele>635.0</ele><time>2026-04-11T17:15:50.668Z</time></trkpt><trkpt lat="38.9936007" lon="16.5162817"><ele>633.0</ele><time>2026-04-11T17:15:51.668Z</time></trkpt><trkpt lat="38.993599" lon="16.5164077"><ele>631.0</ele><time>2026-04-11T17:15:52.668Z</time></trkpt><trkpt lat="38.9935914" lon="16.5165465"><ele>629.0</ele><time>2026-04-11T17:15:53.669Z</time></trkpt><trkpt lat="38.9935767" lon="16.5166977"><ele>627.0</ele><time>2026-04-11T17:15:54.669Z</time></trkpt><trkpt lat="38.9935593" lon="16.5168446"><ele>627.0</ele><time>2026-04-11T17:15:55.668Z</time></trkpt><trkpt lat="38.9935387" lon="16.5169948"><ele>627.0</ele><time>2026-04-11T17:15:56.669Z</time></trkpt><trkpt lat="38.9935099" lon="16.5171446"><ele>627.0</ele><time>2026-04-11T17:15:57.669Z</time></trkpt><trkpt lat="38.9934823" lon="16.5172948"><ele>627.0</ele><time>2026-04-11T17:15:58.669Z</time></trkpt><trkpt lat="38.993463" lon="16.5174265"><ele>624.2</ele><time>2026-04-11T17:15:59.669Z</time></trkpt><trkpt lat="38.993454" lon="16.5175556"><ele>621.4000000000001</ele><time>2026-04-11T17:16:00.669Z</time></trkpt><trkpt lat="38.9934483" lon="16.5176813"><ele>618.5999999999999</ele><time>2026-04-11T17:16:01.668Z</time></trkpt><trkpt lat="38.9934644" lon="16.5178174"><ele>615.8</ele><time>2026-04-11T17:16:02.668Z</time></trkpt><trkpt lat="38.993503" lon="16.5179628"><ele>613.0</ele><time>2026-04-11T17:16:03.669Z</time></trkpt><trkpt lat="38.9935492" lon="16.5181032"><ele>613.0</ele><time>2026-04-11T17:16:04.668Z</time></trkpt><trkpt lat="38.9936005" lon="16.5182509"><ele>613.0</ele><time>2026-04-11T17:16:05.668Z</time></trkpt><trkpt lat="38.9936548" lon="16.5183916"><ele>613.0</ele><time>2026-04-11T17:16:06.668Z</time></trkpt><trkpt lat="38.9937145" lon="16.5185191"><ele>613.0</ele><time>2026-04-11T17:16:07.668Z</time></trkpt><trkpt lat="38.993784" lon="16.5186452"><ele>612.4</ele><time>2026-04-11T17:16:08.668Z</time></trkpt><trkpt lat="38.993856" lon="16.5187575"><ele>611.8</ele><time>2026-04-11T17:16:09.669Z</time></trkpt><trkpt lat="38.9939189" lon="16.5188667"><ele>611.2</ele><time>2026-04-11T17:16:10.668Z</time></trkpt><trkpt lat="38.9939754" lon="16.5189763"><ele>610.6</ele><time>2026-04-11T17:16:11.668Z</time></trkpt><trkpt lat="38.9940344" lon="16.5190922"><ele>610.0</ele><time>2026-04-11T17:16:12.668Z</time></trkpt><trkpt lat="38.9940992" lon="16.5192188"><ele>609.4</ele><time>2026-04-11T17:16:13.668Z</time></trkpt><trkpt lat="38.9941808" lon="16.5193101"><ele>608.8</ele><time>2026-04-11T17:16:14.669Z</time></trkpt><trkpt lat="38.9942612" lon="16.5193917"><ele>608.2</ele><time>2026-04-11T17:16:15.668Z</time></trkpt><trkpt lat="38.9943474" lon="16.5194911"><ele>607.6</ele><time>2026-04-11T17:16:16.669Z</time></trkpt><trkpt lat="38.9944343" lon="16.519558"><ele>607.0</ele><time>2026-04-11T17:16:17.669Z</time></trkpt><trkpt lat="38.9945202" lon="16.519617"><ele>607.0</ele><time>2026-04-11T17:16:18.668Z</time></trkpt><trkpt lat="38.9946098" lon="16.5196482"><ele>607.0</ele><time>2026-04-11T17:16:19.668Z</time></trkpt><trkpt lat="38.9947105" lon="16.5196412"><ele>607.0</ele><time>2026-04-11T17:16:20.668Z</time></trkpt><trkpt lat="38.9948167" lon="16.5196033"><ele>607.0</ele><time>2026-04-11T17:16:21.668Z</time></trkpt><trkpt lat="38.9949301" lon="16.5195432"><ele>607.0</ele><time>2026-04-11T17:16:22.669Z</time></trkpt><trkpt lat="38.9950426" lon="16.5194792"><ele>601.25</ele><time>2026-04-11T17:16:23.668Z</time></trkpt><trkpt lat="38.9951589" lon="16.5194123"><ele>595.5</ele><time>2026-04-11T17:16:24.669Z</time></trkpt><trkpt lat="38.995276" lon="16.5193397"><ele>589.75</ele><time>2026-04-11T17:16:25.668Z</time></trkpt><trkpt lat="38.9953857" lon="16.5192636"><ele>584.0</ele><time>2026-04-11T17:16:26.669Z</time></trkpt><trkpt lat="38.9954796" lon="16.519153"><ele>584.0</ele><time>2026-04-11T17:16:27.668Z</time></trkpt><trkpt lat="38.995553" lon="16.5190234"><ele>584.0</ele><time>2026-04-11T17:16:28.669Z</time></trkpt><trkpt lat="38.9955977" lon="16.5189053"><ele>584.0</ele><time>2026-04-11T17:16:29.668Z</time></trkpt><trkpt lat="38.9956318" lon="16.5188006"><ele>584.0</ele><time>2026-04-11T17:16:30.668Z</time></trkpt><trkpt lat="38.9956623" lon="16.5187159"><ele>584.0</ele><time>2026-04-11T17:16:31.668Z</time></trkpt><trkpt lat="38.9957306" lon="16.5186431"><ele>584.0</ele><time>2026-04-11T17:16:33.668Z</time></trkpt><trkpt lat="38.9957842" lon="16.5187394"><ele>584.0</ele><time>2026-04-11T17:16:35.669Z</time></trkpt><trkpt lat="38.9957988" lon="16.5188359"><ele>584.0</ele><time>2026-04-11T17:16:36.668Z</time></trkpt><trkpt lat="38.9958087" lon="16.5189514"><ele>584.0</ele><time>2026-04-11T17:16:37.669Z</time></trkpt><trkpt lat="38.9958143" lon="16.5190971"><ele>584.0</ele><time>2026-04-11T17:16:38.669Z</time></trkpt><trkpt lat="38.9958088" lon="16.5192669"><ele>584.0</ele><time>2026-04-11T17:16:39.668Z</time></trkpt><trkpt lat="38.9957881" lon="16.519466"><ele>584.0</ele><time>2026-04-11T17:16:40.668Z</time></trkpt><trkpt lat="38.9957662" lon="16.5196521"><ele>584.0</ele><time>2026-04-11T17:16:41.669Z</time></trkpt><trkpt lat="38.9957221" lon="16.5197958"><ele>584.0</ele><time>2026-04-11T17:16:42.668Z</time></trkpt><trkpt lat="38.9956734" lon="16.519928"><ele>582.5</ele><time>2026-04-11T17:16:43.668Z</time></trkpt><trkpt lat="38.9956152" lon="16.5200413"><ele>581.0</ele><time>2026-04-11T17:16:44.668Z</time></trkpt><trkpt lat="38.9955596" lon="16.5201377"><ele>579.5</ele><time>2026-04-11T17:16:45.668Z</time></trkpt><trkpt lat="38.9955105" lon="16.520231"><ele>578.0</ele><time>2026-04-11T17:16:46.668Z</time></trkpt><trkpt lat="38.9954789" lon="16.520308"><ele>576.5</ele><time>2026-04-11T17:16:47.668Z</time></trkpt><trkpt lat="38.995497" lon="16.5204126"><ele>575.0</ele><time>2026-04-11T17:16:49.669Z</time></trkpt><trkpt lat="38.9955749" lon="16.5204269"><ele>575.0</ele><time>2026-04-11T17:16:51.669Z</time></trkpt><trkpt lat="38.9956858" lon="16.5203754"><ele>575.0</ele><time>2026-04-11T17:16:53.669Z</time></trkpt><trkpt lat="38.9957475" lon="16.5203504"><ele>575.0</ele><time>2026-04-11T17:16:54.668Z</time></trkpt><trkpt lat="38.995815" lon="16.5203313"><ele>575.0</ele><time>2026-04-11T17:16:55.668Z</time></trkpt><trkpt lat="38.995881" lon="16.5203052"><ele>575.0</ele><time>2026-04-11T17:16:56.669Z</time></trkpt><trkpt lat="38.9959481" lon="16.520267"><ele>575.0</ele><time>2026-04-11T17:16:57.668Z</time></trkpt><trkpt lat="38.99601" lon="16.5202221"><ele>570.1666666666666</ele><time>2026-04-11T17:16:58.669Z</time></trkpt><trkpt lat="38.9960669" lon="16.520172"><ele>565.3333333333333</ele><time>2026-04-11T17:16:59.668Z</time></trkpt><trkpt lat="38.9961278" lon="16.5201112"><ele>560.5</ele><time>2026-04-11T17:17:00.668Z</time></trkpt><trkpt lat="38.9961957" lon="16.5200483"><ele>555.6666666666666</ele><time>2026-04-11T17:17:01.669Z</time></trkpt><trkpt lat="38.9962622" lon="16.5199778"><ele>550.8333333333334</ele><time>2026-04-11T17:17:02.668Z</time></trkpt><trkpt lat="38.9963405" lon="16.5199137"><ele>546.0</ele><time>2026-04-11T17:17:03.668Z</time></trkpt><trkpt lat="38.9964197" lon="16.5198615"><ele>546.0</ele><time>2026-04-11T17:17:04.668Z</time></trkpt><trkpt lat="38.9964968" lon="16.5198116"><ele>546.0</ele><time>2026-04-11T17:17:05.668Z</time></trkpt><trkpt lat="38.9965789" lon="16.5197676"><ele>546.0</ele><time>2026-04-11T17:17:06.669Z</time></trkpt><trkpt lat="38.9966574" lon="16.5197262"><ele>546.0</ele><time>2026-04-11T17:17:07.669Z</time></trkpt><trkpt lat="38.9967279" lon="16.5196768"><ele>546.0</ele><time>2026-04-11T17:17:08.669Z</time></trkpt><trkpt lat="38.9967862" lon="16.5196261"><ele>546.0</ele><time>2026-04-11T17:17:09.668Z</time></trkpt><trkpt lat="38.9968448" lon="16.5195812"><ele>545.5714285714286</ele><time>2026-04-11T17:17:10.668Z</time></trkpt><trkpt lat="38.9969072" lon="16.5195416"><ele>545.1428571428571</ele><time>2026-04-11T17:17:11.668Z</time></trkpt><trkpt lat="38.9969768" lon="16.5195224"><ele>544.7142857142858</ele><time>2026-04-11T17:17:12.669Z</time></trkpt><trkpt lat="38.9970475" lon="16.5195234"><ele>544.2857142857142</ele><time>2026-04-11T17:17:13.668Z</time></trkpt><trkpt lat="38.9971221" lon="16.5195252"><ele>543.8571428571429</ele><time>2026-04-11T17:17:14.668Z</time></trkpt><trkpt lat="38.9971989" lon="16.5195338"><ele>543.4285714285714</ele><time>2026-04-11T17:17:15.668Z</time></trkpt><trkpt lat="38.99727" lon="16.5195506"><ele>543.0</ele><time>2026-04-11T17:17:16.668Z</time></trkpt><trkpt lat="38.9973369" lon="16.5195508"><ele>543.0</ele><time>2026-04-11T17:17:17.668Z</time></trkpt><trkpt lat="38.997454" lon="16.5195231"><ele>543.0</ele><time>2026-04-11T17:17:19.669Z</time></trkpt><trkpt lat="38.9975508" lon="16.519475"><ele>543.0</ele><time>2026-04-11T17:17:21.668Z</time></trkpt><trkpt lat="38.9976444" lon="16.5194296"><ele>543.0</ele><time>2026-04-11T17:17:23.668Z</time></trkpt><trkpt lat="38.9977402" lon="16.5193757"><ele>543.0</ele><time>2026-04-11T17:17:25.668Z</time></trkpt><trkpt lat="38.9978284" lon="16.5193555"><ele>542.6666666666666</ele><time>2026-04-11T17:17:27.668Z</time></trkpt><trkpt lat="38.997887" lon="16.5194289"><ele>542.3333333333334</ele><time>2026-04-11T17:17:30.669Z</time></trkpt><trkpt lat="38.9979089" lon="16.5195399"><ele>542.0</ele><time>2026-04-11T17:17:33.668Z</time></trkpt><trkpt lat="38.9979238" lon="16.5196274"><ele>541.6666666666667</ele><time>2026-04-11T17:17:36.669Z</time></trkpt><trkpt lat="38.997963" lon="16.5196986"><ele>541.3333333333334</ele><time>2026-04-11T17:19:05.669Z</time></trkpt><trkpt lat="38.9980011" lon="16.5197893"><ele>541.0</ele><time>2026-04-11T17:19:07.668Z</time></trkpt><trkpt lat="38.998029" lon="16.5198851"><ele>541.0</ele><time>2026-04-11T17:19:09.668Z</time></trkpt><trkpt lat="38.9980589" lon="16.5199748"><ele>541.0</ele><time>2026-04-11T17:19:11.668Z</time></trkpt><trkpt lat="38.9981174" lon="16.52006"><ele>541.0</ele><time>2026-04-11T17:19:14.669Z</time></trkpt><trkpt lat="38.9981835" lon="16.5201193"><ele>541.0</ele><time>2026-04-11T17:19:16.668Z</time></trkpt><trkpt lat="38.9982794" lon="16.520149"><ele>541.0</ele><time>2026-04-11T17:19:18.668Z</time></trkpt><trkpt lat="38.9983859" lon="16.5200803"><ele>542.6</ele><time>2026-04-11T17:19:20.668Z</time></trkpt><trkpt lat="38.9984743" lon="16.5199817"><ele>544.2</ele><time>2026-04-11T17:19:22.669Z</time></trkpt><trkpt lat="38.9985551" lon="16.5199071"><ele>545.8</ele><time>2026-04-11T17:19:24.669Z</time></trkpt><trkpt lat="38.9986267" lon="16.5198552"><ele>547.4</ele><time>2026-04-11T17:19:26.668Z</time></trkpt><trkpt lat="38.9987104" lon="16.519829"><ele>549.0</ele><time>2026-04-11T17:19:28.668Z</time></trkpt><trkpt lat="38.9987896" lon="16.519844"><ele>549.0</ele><time>2026-04-11T17:19:30.669Z</time></trkpt><trkpt lat="38.9988526" lon="16.519912"><ele>549.0</ele><time>2026-04-11T17:19:32.669Z</time></trkpt><trkpt lat="38.9988743" lon="16.519998"><ele>549.0</ele><time>2026-04-11T17:19:34.669Z</time></trkpt><trkpt lat="38.9988121" lon="16.5200627"><ele>549.0</ele><time>2026-04-11T17:19:36.668Z</time></trkpt><trkpt lat="38.9987131" lon="16.5201464"><ele>549.0</ele><time>2026-04-11T17:19:38.668Z</time></trkpt><trkpt lat="38.998658" lon="16.5202197"><ele>549.0</ele><time>2026-04-11T17:19:39.668Z</time></trkpt><trkpt lat="38.9986038" lon="16.5203102"><ele>547.8</ele><time>2026-04-11T17:19:40.668Z</time></trkpt><trkpt lat="38.9985433" lon="16.5204143"><ele>546.5999999999999</ele><time>2026-04-11T17:19:41.668Z</time></trkpt><trkpt lat="38.9984821" lon="16.5205208"><ele>545.4</ele><time>2026-04-11T17:19:42.668Z</time></trkpt><trkpt lat="38.9984199" lon="16.5206423"><ele>544.1999999999999</ele><time>2026-04-11T17:19:43.669Z</time></trkpt><trkpt lat="38.9983535" lon="16.5207666"><ele>543.0</ele><time>2026-04-11T17:19:44.668Z</time></trkpt><trkpt lat="38.998295" lon="16.5208866"><ele>543.0</ele><time>2026-04-11T17:19:45.669Z</time></trkpt><trkpt lat="38.9982389" lon="16.5210127"><ele>543.0</ele><time>2026-04-11T17:19:46.668Z</time></trkpt><trkpt lat="38.9981783" lon="16.5211324"><ele>543.0</ele><time>2026-04-11T17:19:47.668Z</time></trkpt><trkpt lat="38.9981199" lon="16.5212493"><ele>543.0</ele><time>2026-04-11T17:19:48.668Z</time></trkpt><trkpt lat="38.9980717" lon="16.521363"><ele>543.0</ele><time>2026-04-11T17:19:49.668Z</time></trkpt><trkpt lat="38.9980229" lon="16.5214666"><ele>544.1666666666666</ele><time>2026-04-11T17:19:50.668Z</time></trkpt><trkpt lat="38.9979771" lon="16.5215676"><ele>545.3333333333334</ele><time>2026-04-11T17:19:51.669Z</time></trkpt><trkpt lat="38.9979477" lon="16.5216565"><ele>546.5</ele><time>2026-04-11T17:19:52.668Z</time></trkpt><trkpt lat="38.997915" lon="16.521739"><ele>547.6666666666667</ele><time>2026-04-11T17:19:53.669Z</time></trkpt><trkpt lat="38.9978717" lon="16.5218146"><ele>548.8333333333334</ele><time>2026-04-11T17:19:54.668Z</time></trkpt><trkpt lat="38.9978317" lon="16.5219423"><ele>550.0</ele><time>2026-04-11T17:19:56.669Z</time></trkpt><trkpt lat="38.9978896" lon="16.5220776"><ele>551.0</ele><time>2026-04-11T17:19:58.668Z</time></trkpt><trkpt lat="38.9979542" lon="16.5221446"><ele>552.0</ele><time>2026-04-11T17:19:59.669Z</time></trkpt><trkpt lat="38.9980217" lon="16.5222168"><ele>553.0</ele><time>2026-04-11T17:20:00.668Z</time></trkpt><trkpt lat="38.9980803" lon="16.5222952"><ele>554.0</ele><time>2026-04-11T17:20:01.668Z</time></trkpt><trkpt lat="38.9981215" lon="16.5223925"><ele>555.0</ele><time>2026-04-11T17:20:02.668Z</time></trkpt><trkpt lat="38.9981241" lon="16.5224963"><ele>556.0</ele><time>2026-04-11T17:20:03.669Z</time></trkpt><trkpt lat="38.9981002" lon="16.5225981"><ele>556.0</ele><time>2026-04-11T17:20:04.669Z</time></trkpt><trkpt lat="38.9980601" lon="16.5227104"><ele>556.0</ele><time>2026-04-11T17:20:05.668Z</time></trkpt><trkpt lat="38.9980108" lon="16.5228168"><ele>556.0</ele><time>2026-04-11T17:20:06.668Z</time></trkpt><trkpt lat="38.9979637" lon="16.5229352"><ele>556.0</ele><time>2026-04-11T17:20:07.668Z</time></trkpt><trkpt lat="38.9979159" lon="16.5230548"><ele>556.0</ele><time>2026-04-11T17:20:08.669Z</time></trkpt><trkpt lat="38.997867" lon="16.5231783"><ele>557.0</ele><time>2026-04-11T17:20:09.668Z</time></trkpt><trkpt lat="38.9978156" lon="16.523307"><ele>558.0</ele><time>2026-04-11T17:20:10.668Z</time></trkpt><trkpt lat="38.9977631" lon="16.5234301"><ele>559.0</ele><time>2026-04-11T17:20:11.669Z</time></trkpt><trkpt lat="38.9977095" lon="16.5235579"><ele>560.0</ele><time>2026-04-11T17:20:12.669Z</time></trkpt><trkpt lat="38.9976428" lon="16.5236861"><ele>561.5</ele><time>2026-04-11T17:20:13.668Z</time></trkpt><trkpt lat="38.9975735" lon="16.5238165"><ele>563.0</ele><time>2026-04-11T17:20:14.669Z</time></trkpt><trkpt lat="38.9975028" lon="16.5239375"><ele>564.5</ele><time>2026-04-11T17:20:15.669Z</time></trkpt><trkpt lat="38.9974359" lon="16.5240557"><ele>566.0</ele><time>2026-04-11T17:20:16.669Z</time></trkpt><trkpt lat="38.9973635" lon="16.5241691"><ele>566.0</ele><time>2026-04-11T17:20:17.668Z</time></trkpt><trkpt lat="38.9972903" lon="16.5242825"><ele>566.0</ele><time>2026-04-11T17:20:18.668Z</time></trkpt><trkpt lat="38.9972138" lon="16.524387"><ele>566.0</ele><time>2026-04-11T17:20:19.669Z</time></trkpt><trkpt lat="38.9971542" lon="16.5244808"><ele>566.0</ele><time>2026-04-11T17:20:20.669Z</time></trkpt><trkpt lat="38.9970946" lon="16.5245513"><ele>566.0</ele><time>2026-04-11T17:20:21.669Z</time></trkpt><trkpt lat="38.9970587" lon="16.5246291"><ele>567.8</ele><time>2026-04-11T17:20:22.669Z</time></trkpt><trkpt lat="38.9970709" lon="16.5247627"><ele>569.6</ele><time>2026-04-11T17:20:24.669Z</time></trkpt><trkpt lat="38.9971834" lon="16.5247918"><ele>571.4</ele><time>2026-04-11T17:20:26.668Z</time></trkpt><trkpt lat="38.9972542" lon="16.5247468"><ele>573.2</ele><time>2026-04-11T17:20:27.668Z</time></trkpt><trkpt lat="38.9973166" lon="16.5246756"><ele>575.0</ele><time>2026-04-11T17:20:28.668Z</time></trkpt><trkpt lat="38.9973689" lon="16.5245701"><ele>576.4</ele><time>2026-04-11T17:20:29.668Z</time></trkpt><trkpt lat="38.9974202" lon="16.5244504"><ele>577.8</ele><time>2026-04-11T17:20:30.668Z</time></trkpt><trkpt lat="38.9974745" lon="16.5243357"><ele>579.2</ele><time>2026-04-11T17:20:31.669Z</time></trkpt><trkpt lat="38.9975349" lon="16.5242373"><ele>580.6</ele><time>2026-04-11T17:20:32.669Z</time></trkpt><trkpt lat="38.9976127" lon="16.5241701"><ele>582.0</ele><time>2026-04-11T17:20:33.668Z</time></trkpt><trkpt lat="38.9977015" lon="16.5241399"><ele>582.0</ele><time>2026-04-11T17:20:34.668Z</time></trkpt><trkpt lat="38.997792" lon="16.5241508"><ele>582.0</ele><time>2026-04-11T17:20:35.669Z</time></trkpt><trkpt lat="38.9978922" lon="16.5241726"><ele>582.0</ele><time>2026-04-11T17:20:36.668Z</time></trkpt><trkpt lat="38.997995" lon="16.5241578"><ele>582.0</ele><time>2026-04-11T17:20:37.669Z</time></trkpt><trkpt lat="38.99809" lon="16.5240964"><ele>582.0</ele><time>2026-04-11T17:20:38.669Z</time></trkpt><trkpt lat="38.9981692" lon="16.5240093"><ele>582.0</ele><time>2026-04-11T17:20:39.669Z</time></trkpt><trkpt lat="38.9982273" lon="16.5239199"><ele>582.0</ele><time>2026-04-11T17:20:40.668Z</time></trkpt><trkpt lat="38.9982873" lon="16.5238348"><ele>582.0</ele><time>2026-04-11T17:20:41.669Z</time></trkpt><trkpt lat="38.9983518" lon="16.5237868"><ele>582.0</ele><time>2026-04-11T17:20:42.669Z</time></trkpt><trkpt lat="38.9984189" lon="16.523783"><ele>582.0</ele><time>2026-04-11T17:20:43.669Z</time></trkpt><trkpt lat="38.998507" lon="16.5238802"><ele>582.0</ele><time>2026-04-11T17:20:45.668Z</time></trkpt><trkpt lat="38.9985163" lon="16.5239757"><ele>582.0</ele><time>2026-04-11T17:20:46.668Z</time></trkpt><trkpt lat="38.9984915" lon="16.5240884"><ele>582.0</ele><time>2026-04-11T17:20:47.669Z</time></trkpt><trkpt lat="38.9984322" lon="16.5242031"><ele>582.0</ele><time>2026-04-11T17:20:48.668Z</time></trkpt><trkpt lat="38.9983471" lon="16.5243182"><ele>582.0</ele><time>2026-04-11T17:20:49.669Z</time></trkpt><trkpt lat="38.9982665" lon="16.5244242"><ele>582.0</ele><time>2026-04-11T17:20:50.668Z</time></trkpt><trkpt lat="38.9981754" lon="16.5245169"><ele>587.75</ele><time>2026-04-11T17:20:51.669Z</time></trkpt><trkpt lat="38.9980744" lon="16.5245884"><ele>593.5</ele><time>2026-04-11T17:20:52.668Z</time></trkpt><trkpt lat="38.9979716" lon="16.5246607"><ele>599.25</ele><time>2026-04-11T17:20:53.668Z</time></trkpt><trkpt lat="38.9978814" lon="16.5247528"><ele>605.0</ele><time>2026-04-11T17:20:54.668Z</time></trkpt><trkpt lat="38.9978164" lon="16.5248651"><ele>605.0</ele><time>2026-04-11T17:20:55.668Z</time></trkpt><trkpt lat="38.9977729" lon="16.5249965"><ele>605.0</ele><time>2026-04-11T17:20:56.669Z</time></trkpt><trkpt lat="38.997759" lon="16.5251404"><ele>605.0</ele><time>2026-04-11T17:20:57.668Z</time></trkpt><trkpt lat="38.9977728" lon="16.525288"><ele>605.0</ele><time>2026-04-11T17:20:58.669Z</time></trkpt><trkpt lat="38.9978141" lon="16.5254308"><ele>605.5</ele><time>2026-04-11T17:20:59.669Z</time></trkpt><trkpt lat="38.9978742" lon="16.5255622"><ele>606.0</ele><time>2026-04-11T17:21:00.668Z</time></trkpt><trkpt lat="38.997952" lon="16.5256898"><ele>606.5</ele><time>2026-04-11T17:21:01.669Z</time></trkpt><trkpt lat="38.998047" lon="16.5258045"><ele>607.0</ele><time>2026-04-11T17:21:02.669Z</time></trkpt><trkpt lat="38.9981399" lon="16.5259192"><ele>607.0</ele><time>2026-04-11T17:21:03.668Z</time></trkpt><trkpt lat="38.9982273" lon="16.5260422"><ele>607.0</ele><time>2026-04-11T17:21:04.668Z</time></trkpt><trkpt lat="38.9983016" lon="16.5261841"><ele>607.0</ele><time>2026-04-11T17:21:05.668Z</time></trkpt><trkpt lat="38.9983486" lon="16.5263151"><ele>607.0</ele><time>2026-04-11T17:21:06.669Z</time></trkpt><trkpt lat="38.9983568" lon="16.5264471"><ele>606.8000000000001</ele><time>2026-04-11T17:21:07.669Z</time></trkpt><trkpt lat="38.9983302" lon="16.5265583"><ele>606.6</ele><time>2026-04-11T17:21:08.668Z</time></trkpt><trkpt lat="38.9982711" lon="16.5266553"><ele>606.4000000000001</ele><time>2026-04-11T17:21:09.668Z</time></trkpt><trkpt lat="38.9981992" lon="16.526715"><ele>606.2</ele><time>2026-04-11T17:21:10.668Z</time></trkpt><trkpt lat="38.9980978" lon="16.526723"><ele>606.0</ele><time>2026-04-11T17:21:11.668Z</time></trkpt><trkpt lat="38.9979723" lon="16.526679"><ele>606.0</ele><time>2026-04-11T17:21:12.668Z</time></trkpt><trkpt lat="38.9978446" lon="16.5266391"><ele>606.0</ele><time>2026-04-11T17:21:13.669Z</time></trkpt><trkpt lat="38.9977145" lon="16.5266176"><ele>606.0</ele><time>2026-04-11T17:21:14.669Z</time></trkpt><trkpt lat="38.9975925" lon="16.5266194"><ele>606.0</ele><time>2026-04-11T17:21:15.668Z</time></trkpt><trkpt lat="38.9974763" lon="16.5266201"><ele>605.0</ele><time>2026-04-11T17:21:16.668Z</time></trkpt><trkpt lat="38.9973614" lon="16.5266024"><ele>604.0</ele><time>2026-04-11T17:21:17.668Z</time></trkpt><trkpt lat="38.9972649" lon="16.5265846"><ele>603.0</ele><time>2026-04-11T17:21:18.669Z</time></trkpt><trkpt lat="38.997173" lon="16.526569"><ele>602.0</ele><time>2026-04-11T17:21:19.668Z</time></trkpt><trkpt lat="38.9970932" lon="16.5265961"><ele>601.0</ele><time>2026-04-11T17:21:20.669Z</time></trkpt><trkpt lat="38.9970461" lon="16.5266631"><ele>601.0</ele><time>2026-04-11T17:21:21.668Z</time></trkpt><trkpt lat="38.9970373" lon="16.5267466"><ele>601.0</ele><time>2026-04-11T17:21:22.668Z</time></trkpt><trkpt lat="38.9970689" lon="16.5268205"><ele>601.0</ele><time>2026-04-11T17:21:23.669Z</time></trkpt><trkpt lat="38.9971462" lon="16.5268859"><ele>601.0</ele><time>2026-04-11T17:21:24.668Z</time></trkpt><trkpt lat="38.9972353" lon="16.5269406"><ele>601.0</ele><time>2026-04-11T17:21:25.668Z</time></trkpt><trkpt lat="38.9973134" lon="16.5269821"><ele>601.0</ele><time>2026-04-11T17:21:26.669Z</time></trkpt><trkpt lat="38.997381" lon="16.5270157"><ele>601.0</ele><time>2026-04-11T17:21:27.668Z</time></trkpt><trkpt lat="38.9974976" lon="16.5270337"><ele>601.0</ele><time>2026-04-11T17:21:29.668Z</time></trkpt><trkpt lat="38.9976182" lon="16.5270405"><ele>601.0</ele><time>2026-04-11T17:21:31.668Z</time></trkpt><trkpt lat="38.9977412" lon="16.5270387"><ele>601.0</ele><time>2026-04-11T17:21:33.669Z</time></trkpt><trkpt lat="38.997809" lon="16.5270491"><ele>601.0</ele><time>2026-04-11T17:21:34.668Z</time></trkpt><trkpt lat="38.997879" lon="16.5270697"><ele>603.3333333333334</ele><time>2026-04-11T17:21:35.668Z</time></trkpt><trkpt lat="38.9979439" lon="16.5270909"><ele>605.6666666666667</ele><time>2026-04-11T17:21:36.669Z</time></trkpt><trkpt lat="38.9980158" lon="16.5271205"><ele>608.0</ele><time>2026-04-11T17:21:37.668Z</time></trkpt><trkpt lat="38.9980896" lon="16.5271481"><ele>610.3333333333334</ele><time>2026-04-11T17:21:38.668Z</time></trkpt><trkpt lat="38.9981697" lon="16.5271781"><ele>612.6666666666666</ele><time>2026-04-11T17:21:39.669Z</time></trkpt><trkpt lat="38.9982551" lon="16.5272124"><ele>615.0</ele><time>2026-04-11T17:21:40.669Z</time></trkpt><trkpt lat="38.9983429" lon="16.5272204"><ele>615.0</ele><time>2026-04-11T17:21:41.668Z</time></trkpt><trkpt lat="38.9984167" lon="16.5272012"><ele>615.0</ele><time>2026-04-11T17:21:42.668Z</time></trkpt><trkpt lat="38.9984864" lon="16.5271577"><ele>615.0</ele><time>2026-04-11T17:21:43.668Z</time></trkpt><trkpt lat="38.9985452" lon="16.5270929"><ele>615.0</ele><time>2026-04-11T17:21:44.668Z</time></trkpt><trkpt lat="38.9985956" lon="16.5270223"><ele>615.0</ele><time>2026-04-11T17:21:45.668Z</time></trkpt><trkpt lat="38.9986611" lon="16.5269592"><ele>615.0</ele><time>2026-04-11T17:21:46.669Z</time></trkpt><trkpt lat="38.998736" lon="16.5269398"><ele>616.4</ele><time>2026-04-11T17:21:47.668Z</time></trkpt><trkpt lat="38.9988278" lon="16.5269462"><ele>617.8</ele><time>2026-04-11T17:21:48.668Z</time></trkpt><trkpt lat="38.9989244" lon="16.5269835"><ele>619.2</ele><time>2026-04-11T17:21:49.669Z</time></trkpt><trkpt lat="38.9990265" lon="16.5270255"><ele>620.6</ele><time>2026-04-11T17:21:50.669Z</time></trkpt><trkpt lat="38.9991285" lon="16.5270572"><ele>622.0</ele><time>2026-04-11T17:21:51.668Z</time></trkpt><trkpt lat="38.9992392" lon="16.5270655"><ele>623.25</ele><time>2026-04-11T17:21:52.668Z</time></trkpt><trkpt lat="38.9993515" lon="16.5270482"><ele>624.5</ele><time>2026-04-11T17:21:53.669Z</time></trkpt><trkpt lat="38.9994665" lon="16.5270095"><ele>625.75</ele><time>2026-04-11T17:21:54.669Z</time></trkpt><trkpt lat="38.9995806" lon="16.5269579"><ele>627.0</ele><time>2026-04-11T17:21:55.668Z</time></trkpt><trkpt lat="38.9996855" lon="16.5268966"><ele>627.0</ele><time>2026-04-11T17:21:56.668Z</time></trkpt><trkpt lat="38.9997903" lon="16.5268318"><ele>627.0</ele><time>2026-04-11T17:21:57.669Z</time></trkpt><trkpt lat="38.9998865" lon="16.5267665"><ele>627.0</ele><time>2026-04-11T17:21:58.669Z</time></trkpt><trkpt lat="38.9999727" lon="16.5266843"><ele>627.0</ele><time>2026-04-11T17:21:59.668Z</time></trkpt><trkpt lat="39.0000364" lon="16.5265818"><ele>627.0</ele><time>2026-04-11T17:22:00.669Z</time></trkpt><trkpt lat="39.0000946" lon="16.5264671"><ele>627.0</ele><time>2026-04-11T17:22:01.669Z</time></trkpt><trkpt lat="39.000162" lon="16.526356"><ele>627.0</ele><time>2026-04-11T17:22:02.669Z</time></trkpt><trkpt lat="39.0002423" lon="16.5262631"><ele>627.0</ele><time>2026-04-11T17:22:03.668Z</time></trkpt><trkpt lat="39.0003372" lon="16.5261893"><ele>627.0</ele><time>2026-04-11T17:22:04.669Z</time></trkpt><trkpt lat="39.0004303" lon="16.5261043"><ele>627.0</ele><time>2026-04-11T17:22:05.668Z</time></trkpt><trkpt lat="39.0005156" lon="16.5260028"><ele>627.6</ele><time>2026-04-11T17:22:06.669Z</time></trkpt><trkpt lat="39.0005892" lon="16.5258949"><ele>628.2</ele><time>2026-04-11T17:22:07.668Z</time></trkpt><trkpt lat="39.0006565" lon="16.5258027"><ele>628.8</ele><time>2026-04-11T17:22:08.668Z</time></trkpt><trkpt lat="39.0007305" lon="16.5257386"><ele>629.4</ele><time>2026-04-11T17:22:09.668Z</time></trkpt><trkpt lat="39.0008067" lon="16.5257178"><ele>630.0</ele><time>2026-04-11T17:22:10.669Z</time></trkpt><trkpt lat="39.000886" lon="16.5257412"><ele>630.0</ele><time>2026-04-11T17:22:11.668Z</time></trkpt><trkpt lat="39.0009598" lon="16.5258032"><ele>630.0</ele><time>2026-04-11T17:22:12.669Z</time></trkpt><trkpt lat="39.0010331" lon="16.5258848"><ele>630.0</ele><time>2026-04-11T17:22:13.668Z</time></trkpt><trkpt lat="39.0011092" lon="16.5259689"><ele>630.0</ele><time>2026-04-11T17:22:14.669Z</time></trkpt><trkpt lat="39.0011865" lon="16.5260455"><ele>630.0</ele><time>2026-04-11T17:22:15.669Z</time></trkpt><trkpt lat="39.0012655" lon="16.5261063"><ele>630.0</ele><time>2026-04-11T17:22:16.668Z</time></trkpt><trkpt lat="39.0013566" lon="16.5261385"><ele>630.0</ele><time>2026-04-11T17:22:17.669Z</time></trkpt><trkpt lat="39.0014544" lon="16.5261274"><ele>630.0</ele><time>2026-04-11T17:22:18.669Z</time></trkpt><trkpt lat="39.0015563" lon="16.5260765"><ele>630.0</ele><time>2026-04-11T17:22:19.668Z</time></trkpt><trkpt lat="39.0016562" lon="16.5260111"><ele>630.0</ele><time>2026-04-11T17:22:20.668Z</time></trkpt><trkpt lat="39.0017608" lon="16.5259352"><ele>633.0</ele><time>2026-04-11T17:22:21.668Z</time></trkpt><trkpt lat="39.0018644" lon="16.5258699"><ele>636.0</ele><time>2026-04-11T17:22:22.669Z</time></trkpt><trkpt lat="39.0019675" lon="16.5258046"><ele>639.0</ele><time>2026-04-11T17:22:23.668Z</time></trkpt><trkpt lat="39.0020691" lon="16.5257276"><ele>642.0</ele><time>2026-04-11T17:22:24.669Z</time></trkpt><trkpt lat="39.0021729" lon="16.525662"><ele>642.0</ele><time>2026-04-11T17:22:25.668Z</time></trkpt><trkpt lat="39.002275" lon="16.5256341"><ele>642.0</ele><time>2026-04-11T17:22:26.668Z</time></trkpt><trkpt lat="39.0023794" lon="16.525639"><ele>642.0</ele><time>2026-04-11T17:22:27.668Z</time></trkpt><trkpt lat="39.0024847" lon="16.5256758"><ele>642.0</ele><time>2026-04-11T17:22:28.669Z</time></trkpt><trkpt lat="39.0025897" lon="16.525743"><ele>642.0</ele><time>2026-04-11T17:22:29.669Z</time></trkpt><trkpt lat="39.0027026" lon="16.5258087"><ele>642.6</ele><time>2026-04-11T17:22:30.669Z</time></trkpt><trkpt lat="39.0028119" lon="16.5258793"><ele>643.2</ele><time>2026-04-11T17:22:31.669Z</time></trkpt><trkpt lat="39.0029145" lon="16.525945"><ele>643.8</ele><time>2026-04-11T17:22:32.669Z</time></trkpt><trkpt lat="39.0030054" lon="16.5259903"><ele>644.4</ele><time>2026-04-11T17:22:33.669Z</time></trkpt><trkpt lat="39.0030861" lon="16.526004"><ele>645.0</ele><time>2026-04-11T17:22:34.669Z</time></trkpt><trkpt lat="39.0031684" lon="16.5259845"><ele>645.0</ele><time>2026-04-11T17:22:35.668Z</time></trkpt><trkpt lat="39.0032484" lon="16.5259354"><ele>645.0</ele><time>2026-04-11T17:22:36.669Z</time></trkpt><trkpt lat="39.0033432" lon="16.5258549"><ele>645.0</ele><time>2026-04-11T17:22:37.668Z</time></trkpt><trkpt lat="39.0034494" lon="16.5257794"><ele>645.0</ele><time>2026-04-11T17:22:38.669Z</time></trkpt><trkpt lat="39.0035631" lon="16.5257172"><ele>645.0</ele><time>2026-04-11T17:22:39.669Z</time></trkpt><trkpt lat="39.0036633" lon="16.5256511"><ele>645.4</ele><time>2026-04-11T17:22:40.669Z</time></trkpt><trkpt lat="39.003743" lon="16.5255734"><ele>645.8</ele><time>2026-04-11T17:22:41.668Z</time></trkpt><trkpt lat="39.0038046" lon="16.5254665"><ele>646.2</ele><time>2026-04-11T17:22:42.668Z</time></trkpt><trkpt lat="39.0038584" lon="16.525343"><ele>646.6</ele><time>2026-04-11T17:22:43.668Z</time></trkpt><trkpt lat="39.0039131" lon="16.5252164"><ele>647.0</ele><time>2026-04-11T17:22:44.668Z</time></trkpt><trkpt lat="39.0039731" lon="16.525088"><ele>648.6</ele><time>2026-04-11T17:22:45.669Z</time></trkpt><trkpt lat="39.0040342" lon="16.5249766"><ele>650.2</ele><time>2026-04-11T17:22:46.668Z</time></trkpt><trkpt lat="39.0041161" lon="16.5248922"><ele>651.8</ele><time>2026-04-11T17:22:47.668Z</time></trkpt><trkpt lat="39.0042101" lon="16.5248196"><ele>653.4</ele><time>2026-04-11T17:22:48.668Z</time></trkpt><trkpt lat="39.0042997" lon="16.5247423"><ele>655.0</ele><time>2026-04-11T17:22:49.669Z</time></trkpt><trkpt lat="39.0043682" lon="16.5246473"><ele>657.0</ele><time>2026-04-11T17:22:50.668Z</time></trkpt><trkpt lat="39.0044198" lon="16.5245389"><ele>659.0</ele><time>2026-04-11T17:22:51.668Z</time></trkpt><trkpt lat="39.0044708" lon="16.5244195"><ele>661.0</ele><time>2026-04-11T17:22:52.669Z</time></trkpt><trkpt lat="39.0045337" lon="16.5243175"><ele>663.0</ele><time>2026-04-11T17:22:53.669Z</time></trkpt><trkpt lat="39.0046117" lon="16.5242526"><ele>665.0</ele><time>2026-04-11T17:22:54.669Z</time></trkpt><trkpt lat="39.0046935" lon="16.524213"><ele>665.0</ele><time>2026-04-11T17:22:55.668Z</time></trkpt><trkpt lat="39.0047803" lon="16.5241713"><ele>665.0</ele><time>2026-04-11T17:22:56.668Z</time></trkpt><trkpt lat="39.0048616" lon="16.5241278"><ele>665.0</ele><time>2026-04-11T17:22:57.669Z</time></trkpt><trkpt lat="39.0049332" lon="16.5240849"><ele>665.0</ele><time>2026-04-11T17:22:58.669Z</time></trkpt><trkpt lat="39.0049918" lon="16.5240441"><ele>665.0</ele><time>2026-04-11T17:22:59.668Z</time></trkpt><trkpt lat="39.0051043" lon="16.5239425"><ele>664.0</ele><time>2026-04-11T17:23:01.668Z</time></trkpt><trkpt lat="39.0051774" lon="16.523876"><ele>663.0</ele><time>2026-04-11T17:23:02.669Z</time></trkpt><trkpt lat="39.005259" lon="16.5238026"><ele>662.0</ele><time>2026-04-11T17:23:03.668Z</time></trkpt><trkpt lat="39.0053522" lon="16.5237355"><ele>661.0</ele><time>2026-04-11T17:23:04.668Z</time></trkpt><trkpt lat="39.0054568" lon="16.5236643"><ele>660.0</ele><time>2026-04-11T17:23:05.669Z</time></trkpt><trkpt lat="39.0055644" lon="16.5235909"><ele>660.0</ele><time>2026-04-11T17:23:06.669Z</time></trkpt><trkpt lat="39.0056686" lon="16.523523"><ele>660.0</ele><time>2026-04-11T17:23:07.669Z</time></trkpt><trkpt lat="39.0057766" lon="16.5234761"><ele>660.0</ele><time>2026-04-11T17:23:08.668Z</time></trkpt><trkpt lat="39.0058922" lon="16.5234492"><ele>660.0</ele><time>2026-04-11T17:23:09.668Z</time></trkpt><trkpt lat="39.0060112" lon="16.5234534"><ele>660.0</ele><time>2026-04-11T17:23:10.669Z</time></trkpt><trkpt lat="39.00612" lon="16.5234611"><ele>660.0</ele><time>2026-04-11T17:23:11.668Z</time></trkpt><trkpt lat="39.0062119" lon="16.5234359"><ele>660.0</ele><time>2026-04-11T17:23:12.669Z</time></trkpt><trkpt lat="39.0062907" lon="16.5233626"><ele>660.0</ele><time>2026-04-11T17:23:13.668Z</time></trkpt><trkpt lat="39.0063302" lon="16.5232562"><ele>660.0</ele><time>2026-04-11T17:23:14.669Z</time></trkpt><trkpt lat="39.0063478" lon="16.52312"><ele>660.0</ele><time>2026-04-11T17:23:15.668Z</time></trkpt><trkpt lat="39.0063541" lon="16.5229647"><ele>660.0</ele><time>2026-04-11T17:23:16.668Z</time></trkpt><trkpt lat="39.0063595" lon="16.5228072"><ele>660.0</ele><time>2026-04-11T17:23:17.669Z</time></trkpt><trkpt lat="39.0063717" lon="16.5226503"><ele>660.0</ele><time>2026-04-11T17:23:18.668Z</time></trkpt><trkpt lat="39.0064034" lon="16.5225102"><ele>662.4</ele><time>2026-04-11T17:23:19.669Z</time></trkpt><trkpt lat="39.0064585" lon="16.5224063"><ele>664.8</ele><time>2026-04-11T17:23:20.669Z</time></trkpt><trkpt lat="39.0065476" lon="16.5223321"><ele>667.2</ele><time>2026-04-11T17:23:21.668Z</time></trkpt><trkpt lat="39.0066569" lon="16.5222894"><ele>669.6</ele><time>2026-04-11T17:23:22.668Z</time></trkpt><trkpt lat="39.0067766" lon="16.5222592"><ele>672.0</ele><time>2026-04-11T17:23:23.668Z</time></trkpt><trkpt lat="39.0068991" lon="16.5222352"><ele>672.0</ele><time>2026-04-11T17:23:24.668Z</time></trkpt><trkpt lat="39.0070155" lon="16.5222065"><ele>672.0</ele><time>2026-04-11T17:23:25.669Z</time></trkpt><trkpt lat="39.0071414" lon="16.5221819"><ele>672.0</ele><time>2026-04-11T17:23:26.669Z</time></trkpt><trkpt lat="39.0072748" lon="16.5221707"><ele>672.0</ele><time>2026-04-11T17:23:27.668Z</time></trkpt><trkpt lat="39.0074012" lon="16.5221692"><ele>668.5</ele><time>2026-04-11T17:23:28.668Z</time></trkpt><trkpt lat="39.0075339" lon="16.522183"><ele>665.0</ele><time>2026-04-11T17:23:29.668Z</time></trkpt><trkpt lat="39.0076674" lon="16.5221832"><ele>661.5</ele><time>2026-04-11T17:23:30.668Z</time></trkpt><trkpt lat="39.0077962" lon="16.5221374"><ele>658.0</ele><time>2026-04-11T17:23:31.668Z</time></trkpt><trkpt lat="39.0079215" lon="16.5220606"><ele>658.0</ele><time>2026-04-11T17:23:32.668Z</time></trkpt><trkpt lat="39.0080427" lon="16.5219741"><ele>658.0</ele><time>2026-04-11T17:23:33.668Z</time></trkpt><trkpt lat="39.0081596" lon="16.521875"><ele>658.0</ele><time>2026-04-11T17:23:34.668Z</time></trkpt><trkpt lat="39.0082731" lon="16.5217709"><ele>658.0</ele><time>2026-04-11T17:23:35.669Z</time></trkpt><trkpt lat="39.0083728" lon="16.5216629"><ele>660.25</ele><time>2026-04-11T17:23:36.669Z</time></trkpt><trkpt lat="39.0084501" lon="16.5215389"><ele>662.5</ele><time>2026-04-11T17:23:37.668Z</time></trkpt><trkpt lat="39.0085089" lon="16.521412"><ele>664.75</ele><time>2026-04-11T17:23:38.668Z</time></trkpt><trkpt lat="39.0085718" lon="16.5213022"><ele>667.0</ele><time>2026-04-11T17:23:39.668Z</time></trkpt><trkpt lat="39.0086572" lon="16.5212194"><ele>667.0</ele><time>2026-04-11T17:23:40.669Z</time></trkpt><trkpt lat="39.008747" lon="16.5211407"><ele>667.0</ele><time>2026-04-11T17:23:41.669Z</time></trkpt><trkpt lat="39.0088134" lon="16.5210307"><ele>667.0</ele><time>2026-04-11T17:23:42.668Z</time></trkpt><trkpt lat="39.008852" lon="16.5208831"><ele>667.0</ele><time>2026-04-11T17:23:43.668Z</time></trkpt><trkpt lat="39.0088519" lon="16.5207316"><ele>667.0</ele><time>2026-04-11T17:23:44.668Z</time></trkpt><trkpt lat="39.0088043" lon="16.5205868"><ele>667.0</ele><time>2026-04-11T17:23:45.669Z</time></trkpt><trkpt lat="39.0087175" lon="16.5204484"><ele>667.0</ele><time>2026-04-11T17:23:46.669Z</time></trkpt><trkpt lat="39.0086072" lon="16.5203529"><ele>667.0</ele><time>2026-04-11T17:23:47.669Z</time></trkpt><trkpt lat="39.0084921" lon="16.5202637"><ele>664.0</ele><time>2026-04-11T17:23:48.669Z</time></trkpt><trkpt lat="39.0083984" lon="16.5201889"><ele>661.0</ele><time>2026-04-11T17:23:49.669Z</time></trkpt><trkpt lat="39.0083206" lon="16.5201161"><ele>658.0</ele><time>2026-04-11T17:23:50.668Z</time></trkpt><trkpt lat="39.0082504" lon="16.5200218"><ele>655.0</ele><time>2026-04-11T17:23:51.668Z</time></trkpt><trkpt lat="39.0081973" lon="16.5199151"><ele>652.0</ele><time>2026-04-11T17:23:52.668Z</time></trkpt><trkpt lat="39.0081688" lon="16.5197871"><ele>652.0</ele><time>2026-04-11T17:23:53.668Z</time></trkpt><trkpt lat="39.0081639" lon="16.5196495"><ele>652.0</ele><time>2026-04-11T17:23:54.668Z</time></trkpt><trkpt lat="39.0081757" lon="16.5195076"><ele>652.0</ele><time>2026-04-11T17:23:55.668Z</time></trkpt><trkpt lat="39.0081988" lon="16.519364"><ele>652.0</ele><time>2026-04-11T17:23:56.668Z</time></trkpt><trkpt lat="39.008223" lon="16.5192207"><ele>652.0</ele><time>2026-04-11T17:23:57.669Z</time></trkpt><trkpt lat="39.0082484" lon="16.5190793"><ele>651.6</ele><time>2026-04-11T17:23:58.668Z</time></trkpt><trkpt lat="39.0082939" lon="16.5189559"><ele>651.2</ele><time>2026-04-11T17:23:59.668Z</time></trkpt><trkpt lat="39.0083548" lon="16.5188495"><ele>650.8</ele><time>2026-04-11T17:24:00.669Z</time></trkpt><trkpt lat="39.0084416" lon="16.5187499"><ele>650.4</ele><time>2026-04-11T17:24:01.669Z</time></trkpt><trkpt lat="39.0085369" lon="16.5186583"><ele>650.0</ele><time>2026-04-11T17:24:02.668Z</time></trkpt><trkpt lat="39.0086413" lon="16.5185615"><ele>655.0</ele><time>2026-04-11T17:24:03.668Z</time></trkpt><trkpt lat="39.0087487" lon="16.5184643"><ele>660.0</ele><time>2026-04-11T17:24:04.668Z</time></trkpt><trkpt lat="39.0088535" lon="16.5183644"><ele>665.0</ele><time>2026-04-11T17:24:05.669Z</time></trkpt><trkpt lat="39.0089564" lon="16.5182726"><ele>670.0</ele><time>2026-04-11T17:24:06.668Z</time></trkpt><trkpt lat="39.0090653" lon="16.5181729"><ele>676.75</ele><time>2026-04-11T17:24:07.668Z</time></trkpt><trkpt lat="39.0091603" lon="16.5180633"><ele>683.5</ele><time>2026-04-11T17:24:08.668Z</time></trkpt><trkpt lat="39.0092322" lon="16.5179431"><ele>690.25</ele><time>2026-04-11T17:24:09.669Z</time></trkpt><trkpt lat="39.0092699" lon="16.5178092"><ele>697.0</ele><time>2026-04-11T17:24:10.668Z</time></trkpt><trkpt lat="39.0092772" lon="16.5176635"><ele>697.0</ele><time>2026-04-11T17:24:11.668Z</time></trkpt><trkpt lat="39.0092455" lon="16.5175113"><ele>697.0</ele><time>2026-04-11T17:24:12.669Z</time></trkpt><trkpt lat="39.0091782" lon="16.5173729"><ele>697.0</ele><time>2026-04-11T17:24:13.668Z</time></trkpt><trkpt lat="39.0090755" lon="16.5172614"><ele>697.0</ele><time>2026-04-11T17:24:14.669Z</time></trkpt><trkpt lat="39.0089765" lon="16.5171714"><ele>693.0</ele><time>2026-04-11T17:24:15.668Z</time></trkpt><trkpt lat="39.0088858" lon="16.5170673"><ele>689.0</ele><time>2026-04-11T17:24:16.668Z</time></trkpt><trkpt lat="39.0088196" lon="16.5169368"><ele>685.0</ele><time>2026-04-11T17:24:17.668Z</time></trkpt><trkpt lat="39.008792" lon="16.5167871"><ele>681.0</ele><time>2026-04-11T17:24:18.668Z</time></trkpt><trkpt lat="39.0087889" lon="16.5166423"><ele>681.0</ele><time>2026-04-11T17:24:19.668Z</time></trkpt><trkpt lat="39.0088101" lon="16.5165117"><ele>681.0</ele><time>2026-04-11T17:24:20.669Z</time></trkpt><trkpt lat="39.0088316" lon="16.5163998"><ele>681.0</ele><time>2026-04-11T17:24:21.668Z</time></trkpt><trkpt lat="39.0088531" lon="16.5163207"><ele>681.0</ele><time>2026-04-11T17:24:22.668Z</time></trkpt><trkpt lat="39.0089292" lon="16.516268"><ele>681.0</ele><time>2026-04-11T17:24:24.668Z</time></trkpt><trkpt lat="39.0090105" lon="16.516335"><ele>681.0</ele><time>2026-04-11T17:24:26.668Z</time></trkpt><trkpt lat="39.0090786" lon="16.5164224"><ele>681.0</ele><time>2026-04-11T17:24:28.668Z</time></trkpt><trkpt lat="39.0091381" lon="16.5164792"><ele>681.0</ele><time>2026-04-11T17:24:30.669Z</time></trkpt><trkpt lat="39.009203" lon="16.5165121"><ele>681.0</ele><time>2026-04-11T17:24:32.669Z</time></trkpt><trkpt lat="39.0092814" lon="16.5165673"><ele>681.0</ele><time>2026-04-11T17:24:35.668Z</time></trkpt><trkpt lat="39.0093579" lon="16.5166304"><ele>681.0</ele><time>2026-04-11T17:24:38.669Z</time></trkpt><trkpt lat="39.0094329" lon="16.5167105"><ele>681.0</ele><time>2026-04-11T17:24:41.668Z</time></trkpt><trkpt lat="39.0094928" lon="16.5167549"><ele>684.4</ele><time>2026-04-11T17:24:43.668Z</time></trkpt><trkpt lat="39.0095732" lon="16.5167817"><ele>687.8</ele><time>2026-04-11T17:24:45.669Z</time></trkpt><trkpt lat="39.0096898" lon="16.5168272"><ele>691.1999999999999</ele><time>2026-04-11T17:24:47.668Z</time></trkpt><trkpt lat="39.0097506" lon="16.5168776"><ele>694.5999999999999</ele><time>2026-04-11T17:24:48.668Z</time></trkpt><trkpt lat="39.0098151" lon="16.5169452"><ele>698.0</ele><time>2026-04-11T17:24:49.668Z</time></trkpt><trkpt lat="39.0098843" lon="16.5170301"><ele>697.8</ele><time>2026-04-11T17:24:50.668Z</time></trkpt><trkpt lat="39.0099566" lon="16.5171276"><ele>697.5999999999999</ele><time>2026-04-11T17:24:51.668Z</time></trkpt><trkpt lat="39.0100282" lon="16.5172203"><ele>697.4000000000001</ele><time>2026-04-11T17:24:52.668Z</time></trkpt><trkpt lat="39.0101072" lon="16.5173036"><ele>697.2</ele><time>2026-04-11T17:24:53.668Z</time></trkpt><trkpt lat="39.0101948" lon="16.5173836"><ele>697.0</ele><time>2026-04-11T17:24:54.668Z</time></trkpt><trkpt lat="39.0102951" lon="16.5174561"><ele>701.0</ele><time>2026-04-11T17:24:55.668Z</time></trkpt><trkpt lat="39.0103996" lon="16.5175176"><ele>705.0</ele><time>2026-04-11T17:24:56.668Z</time></trkpt><trkpt lat="39.0105038" lon="16.517571"><ele>709.0</ele><time>2026-04-11T17:24:57.668Z</time></trkpt><trkpt lat="39.0106081" lon="16.5176203"><ele>713.0</ele><time>2026-04-11T17:24:58.668Z</time></trkpt><trkpt lat="39.0107117" lon="16.5176732"><ele>713.0</ele><time>2026-04-11T17:24:59.669Z</time></trkpt><trkpt lat="39.0108167" lon="16.5177022"><ele>713.0</ele><time>2026-04-11T17:25:00.669Z</time></trkpt><trkpt lat="39.0109245" lon="16.5177025"><ele>713.0</ele><time>2026-04-11T17:25:01.668Z</time></trkpt><trkpt lat="39.0110255" lon="16.5176785"><ele>713.0</ele><time>2026-04-11T17:25:02.668Z</time></trkpt><trkpt lat="39.0111186" lon="16.5176069"><ele>713.0</ele><time>2026-04-11T17:25:03.669Z</time></trkpt><trkpt lat="39.0112015" lon="16.5174991"><ele>715.5999999999999</ele><time>2026-04-11T17:25:04.668Z</time></trkpt><trkpt lat="39.0112767" lon="16.5173856"><ele>718.1999999999999</ele><time>2026-04-11T17:25:05.668Z</time></trkpt><trkpt lat="39.0113514" lon="16.5172799"><ele>720.8</ele><time>2026-04-11T17:25:06.669Z</time></trkpt><trkpt lat="39.0114311" lon="16.5171803"><ele>723.4</ele><time>2026-04-11T17:25:07.668Z</time></trkpt><trkpt lat="39.0115187" lon="16.517121"><ele>726.0</ele><time>2026-04-11T17:25:08.668Z</time></trkpt><trkpt lat="39.0116096" lon="16.5171165"><ele>726.5999999999999</ele><time>2026-04-11T17:25:09.668Z</time></trkpt><trkpt lat="39.0117025" lon="16.5171418"><ele>727.2</ele><time>2026-04-11T17:25:10.668Z</time></trkpt><trkpt lat="39.011798" lon="16.5171653"><ele>727.8</ele><time>2026-04-11T17:25:11.669Z</time></trkpt><trkpt lat="39.0118935" lon="16.5171294"><ele>728.4000000000001</ele><time>2026-04-11T17:25:12.669Z</time></trkpt><trkpt lat="39.0119888" lon="16.5170492"><ele>729.0</ele><time>2026-04-11T17:25:13.668Z</time></trkpt><trkpt lat="39.012061" lon="16.5169386"><ele>729.0</ele><time>2026-04-11T17:25:14.668Z</time></trkpt><trkpt lat="39.0121132" lon="16.5168225"><ele>729.0</ele><time>2026-04-11T17:25:15.668Z</time></trkpt><trkpt lat="39.0121537" lon="16.5166921"><ele>729.0</ele><time>2026-04-11T17:25:16.669Z</time></trkpt><trkpt lat="39.0121856" lon="16.5165516"><ele>729.0</ele><time>2026-04-11T17:25:17.669Z</time></trkpt><trkpt lat="39.0122109" lon="16.5164098"><ele>729.0</ele><time>2026-04-11T17:25:18.668Z</time></trkpt><trkpt lat="39.0122303" lon="16.5162764"><ele>727.2</ele><time>2026-04-11T17:25:19.668Z</time></trkpt><trkpt lat="39.0122517" lon="16.5161348"><ele>725.4000000000001</ele><time>2026-04-11T17:25:20.668Z</time></trkpt><trkpt lat="39.0122771" lon="16.5160054"><ele>723.6</ele><time>2026-04-11T17:25:21.668Z</time></trkpt><trkpt lat="39.0123086" lon="16.5158788"><ele>721.8</ele><time>2026-04-11T17:25:22.669Z</time></trkpt><trkpt lat="39.0123596" lon="16.5157785"><ele>720.0</ele><time>2026-04-11T17:25:23.668Z</time></trkpt><trkpt lat="39.0124266" lon="16.515731"><ele>725.2</ele><time>2026-04-11T17:25:24.669Z</time></trkpt><trkpt lat="39.0125036" lon="16.5157375"><ele>730.4</ele><time>2026-04-11T17:25:25.669Z</time></trkpt><trkpt lat="39.0125836" lon="16.5157866"><ele>735.5999999999999</ele><time>2026-04-11T17:25:26.668Z</time></trkpt><trkpt lat="39.0126612" lon="16.5158692"><ele>740.8</ele><time>2026-04-11T17:25:27.669Z</time></trkpt><trkpt lat="39.0127351" lon="16.5159705"><ele>746.0</ele><time>2026-04-11T17:25:28.669Z</time></trkpt><trkpt lat="39.0127969" lon="16.5160831"><ele>746.0</ele><time>2026-04-11T17:25:29.669Z</time></trkpt><trkpt lat="39.0128547" lon="16.5161964"><ele>746.0</ele><time>2026-04-11T17:25:30.668Z</time></trkpt><trkpt lat="39.0129045" lon="16.516309"><ele>746.0</ele><time>2026-04-11T17:25:31.668Z</time></trkpt><trkpt lat="39.0129412" lon="16.5164252"><ele>746.0</ele><time>2026-04-11T17:25:32.668Z</time></trkpt><trkpt lat="39.0129643" lon="16.5165475"><ele>746.0</ele><time>2026-04-11T17:25:33.668Z</time></trkpt><trkpt lat="39.0129742" lon="16.5166767"><ele>748.4</ele><time>2026-04-11T17:25:34.668Z</time></trkpt><trkpt lat="39.0129671" lon="16.5168086"><ele>750.8</ele><time>2026-04-11T17:25:35.668Z</time></trkpt><trkpt lat="39.0129512" lon="16.5169557"><ele>753.1999999999999</ele><time>2026-04-11T17:25:36.669Z</time></trkpt><trkpt lat="39.0129381" lon="16.5170994"><ele>755.5999999999999</ele><time>2026-04-11T17:25:37.668Z</time></trkpt><trkpt lat="39.0129141" lon="16.5172381"><ele>758.0</ele><time>2026-04-11T17:25:38.668Z</time></trkpt><trkpt lat="39.012884" lon="16.5173652"><ele>759.4</ele><time>2026-04-11T17:25:39.668Z</time></trkpt><trkpt lat="39.0128511" lon="16.5174781"><ele>760.8</ele><time>2026-04-11T17:25:40.668Z</time></trkpt><trkpt lat="39.0127964" lon="16.5175933"><ele>762.2</ele><time>2026-04-11T17:25:41.669Z</time></trkpt><trkpt lat="39.0127524" lon="16.5177156"><ele>763.6</ele><time>2026-04-11T17:25:42.668Z</time></trkpt><trkpt lat="39.0127046" lon="16.5178318"><ele>765.0</ele><time>2026-04-11T17:25:43.668Z</time></trkpt><trkpt lat="39.0126659" lon="16.5179614"><ele>767.25</ele><time>2026-04-11T17:25:44.668Z</time></trkpt><trkpt lat="39.0126573" lon="16.5181039"><ele>769.5</ele><time>2026-04-11T17:25:45.668Z</time></trkpt><trkpt lat="39.0126804" lon="16.5182538"><ele>771.75</ele><time>2026-04-11T17:25:46.668Z</time></trkpt><trkpt lat="39.012742" lon="16.5183982"><ele>774.0</ele><time>2026-04-11T17:25:47.668Z</time></trkpt><trkpt lat="39.0128203" lon="16.5185267"><ele>774.0</ele><time>2026-04-11T17:25:48.669Z</time></trkpt><trkpt lat="39.0128926" lon="16.5186526"><ele>774.0</ele><time>2026-04-11T17:25:49.668Z</time></trkpt><trkpt lat="39.0129662" lon="16.5187854"><ele>774.0</ele><time>2026-04-11T17:25:50.668Z</time></trkpt><trkpt lat="39.0130356" lon="16.5189212"><ele>774.0</ele><time>2026-04-11T17:25:51.669Z</time></trkpt><trkpt lat="39.0130985" lon="16.5190593"><ele>777.0</ele><time>2026-04-11T17:25:52.668Z</time></trkpt><trkpt lat="39.0131548" lon="16.5191727"><ele>780.0</ele><time>2026-04-11T17:25:53.668Z</time></trkpt><trkpt lat="39.0132017" lon="16.5192828"><ele>783.0</ele><time>2026-04-11T17:25:54.668Z</time></trkpt><trkpt lat="39.0132354" lon="16.5194187"><ele>786.0</ele><time>2026-04-11T17:25:55.669Z</time></trkpt><trkpt lat="39.0132517" lon="16.5195634"><ele>789.0</ele><time>2026-04-11T17:25:56.668Z</time></trkpt><trkpt lat="39.0132631" lon="16.5197211"><ele>788.25</ele><time>2026-04-11T17:25:57.668Z</time></trkpt><trkpt lat="39.0132822" lon="16.5198822"><ele>787.5</ele><time>2026-04-11T17:25:58.668Z</time></trkpt><trkpt lat="39.0133083" lon="16.5200456"><ele>786.75</ele><time>2026-04-11T17:25:59.669Z</time></trkpt><trkpt lat="39.0133298" lon="16.5202168"><ele>786.0</ele><time>2026-04-11T17:26:00.668Z</time></trkpt><trkpt lat="39.0133462" lon="16.5203931"><ele>787.5</ele><time>2026-04-11T17:26:01.668Z</time></trkpt><trkpt lat="39.0133573" lon="16.5205645"><ele>789.0</ele><time>2026-04-11T17:26:02.668Z</time></trkpt><trkpt lat="39.0133715" lon="16.5207183"><ele>790.5</ele><time>2026-04-11T17:26:03.668Z</time></trkpt><trkpt lat="39.0134044" lon="16.5208602"><ele>792.0</ele><time>2026-04-11T17:26:04.668Z</time></trkpt><trkpt lat="39.0134593" lon="16.5209943"><ele>792.0</ele><time>2026-04-11T17:26:05.669Z</time></trkpt><trkpt lat="39.0135333" lon="16.5211156"><ele>792.0</ele><time>2026-04-11T17:26:06.669Z</time></trkpt><trkpt lat="39.0136156" lon="16.5212204"><ele>792.0</ele><time>2026-04-11T17:26:07.669Z</time></trkpt><trkpt lat="39.0137081" lon="16.5212855"><ele>792.0</ele><time>2026-04-11T17:26:08.668Z</time></trkpt><trkpt lat="39.0137857" lon="16.5213076"><ele>792.0</ele><time>2026-04-11T17:26:09.668Z</time></trkpt><trkpt lat="39.0138523" lon="16.5212885"><ele>792.0</ele><time>2026-04-11T17:26:10.669Z</time></trkpt><trkpt lat="39.0139203" lon="16.5211361"><ele>792.0</ele><time>2026-04-11T17:26:12.668Z</time></trkpt><trkpt lat="39.0139488" lon="16.5210022"><ele>792.0</ele><time>2026-04-11T17:26:13.668Z</time></trkpt><trkpt lat="39.0139873" lon="16.5208528"><ele>792.0</ele><time>2026-04-11T17:26:14.668Z</time></trkpt><trkpt lat="39.0140376" lon="16.5207038"><ele>792.0</ele><time>2026-04-11T17:26:15.669Z</time></trkpt><trkpt lat="39.0140895" lon="16.5205596"><ele>792.0</ele><time>2026-04-11T17:26:16.668Z</time></trkpt><trkpt lat="39.0141324" lon="16.5204244"><ele>792.0</ele><time>2026-04-11T17:26:17.668Z</time></trkpt><trkpt lat="39.0141551" lon="16.5203042"><ele>792.0</ele><time>2026-04-11T17:26:18.668Z</time></trkpt><trkpt lat="39.0141632" lon="16.5201925"><ele>792.0</ele><time>2026-04-11T17:26:19.668Z</time></trkpt><trkpt lat="39.014166" lon="16.5200774"><ele>791.8333333333334</ele><time>2026-04-11T17:26:20.668Z</time></trkpt><trkpt lat="39.014178" lon="16.5199743"><ele>791.6666666666667</ele><time>2026-04-11T17:26:21.669Z</time></trkpt><trkpt lat="39.0142147" lon="16.5198731"><ele>791.5</ele><time>2026-04-11T17:26:22.669Z</time></trkpt><trkpt lat="39.0142632" lon="16.5197819"><ele>791.3333333333334</ele><time>2026-04-11T17:26:23.668Z</time></trkpt><trkpt lat="39.0143376" lon="16.5197087"><ele>791.1666666666667</ele><time>2026-04-11T17:26:24.668Z</time></trkpt><trkpt lat="39.0144293" lon="16.5196694"><ele>791.0</ele><time>2026-04-11T17:26:25.668Z</time></trkpt><trkpt lat="39.0145276" lon="16.5196563"><ele>791.0</ele><time>2026-04-11T17:26:26.668Z</time></trkpt><trkpt lat="39.0146349" lon="16.5196585"><ele>791.0</ele><time>2026-04-11T17:26:27.668Z</time></trkpt><trkpt lat="39.0147419" lon="16.519671"><ele>791.0</ele><time>2026-04-11T17:26:28.668Z</time></trkpt><trkpt lat="39.014856" lon="16.5196768"><ele>791.0</ele><time>2026-04-11T17:26:29.669Z</time></trkpt><trkpt lat="39.0149802" lon="16.5196791"><ele>791.1999999999999</ele><time>2026-04-11T17:26:30.669Z</time></trkpt><trkpt lat="39.0150958" lon="16.5196774"><ele>791.4</ele><time>2026-04-11T17:26:31.668Z</time></trkpt><trkpt lat="39.0151977" lon="16.5196595"><ele>791.6</ele><time>2026-04-11T17:26:32.668Z</time></trkpt><trkpt lat="39.0152866" lon="16.5196248"><ele>791.8</ele><time>2026-04-11T17:26:33.668Z</time></trkpt><trkpt lat="39.0153693" lon="16.5195488"><ele>792.0</ele><time>2026-04-11T17:26:34.668Z</time></trkpt><trkpt lat="39.015419" lon="16.5194381"><ele>792.0</ele><time>2026-04-11T17:26:35.668Z</time></trkpt><trkpt lat="39.0154413" lon="16.5193101"><ele>792.0</ele><time>2026-04-11T17:26:36.668Z</time></trkpt><trkpt lat="39.0154437" lon="16.5191819"><ele>792.0</ele><time>2026-04-11T17:26:37.669Z</time></trkpt><trkpt lat="39.0154455" lon="16.5190599"><ele>792.0</ele><time>2026-04-11T17:26:38.668Z</time></trkpt><trkpt lat="39.0154639" lon="16.5189499"><ele>792.0</ele><time>2026-04-11T17:26:39.668Z</time></trkpt><trkpt lat="39.0155188" lon="16.5188674"><ele>792.0</ele><time>2026-04-11T17:26:40.668Z</time></trkpt><trkpt lat="39.0155856" lon="16.5188323"><ele>792.0</ele><time>2026-04-11T17:26:41.668Z</time></trkpt><trkpt lat="39.0156742" lon="16.5188406"><ele>792.0</ele><time>2026-04-11T17:26:42.668Z</time></trkpt><trkpt lat="39.0157729" lon="16.5188862"><ele>792.0</ele><time>2026-04-11T17:26:43.669Z</time></trkpt><trkpt lat="39.0158777" lon="16.5189538"><ele>792.0</ele><time>2026-04-11T17:26:44.668Z</time></trkpt><trkpt lat="39.0159926" lon="16.5190298"><ele>796.0</ele><time>2026-04-11T17:26:45.668Z</time></trkpt><trkpt lat="39.0161132" lon="16.5191144"><ele>800.0</ele><time>2026-04-11T17:26:46.669Z</time></trkpt><trkpt lat="39.0162336" lon="16.5191925"><ele>804.0</ele><time>2026-04-11T17:26:47.669Z</time></trkpt><trkpt lat="39.0163509" lon="16.5192717"><ele>808.0</ele><time>2026-04-11T17:26:48.669Z</time></trkpt><trkpt lat="39.0164622" lon="16.5193353"><ele>808.0</ele><time>2026-04-11T17:26:49.668Z</time></trkpt><trkpt lat="39.0165785" lon="16.5193648"><ele>808.0</ele><time>2026-04-11T17:26:50.668Z</time></trkpt><trkpt lat="39.0167122" lon="16.5193789"><ele>808.0</ele><time>2026-04-11T17:26:51.669Z</time></trkpt><trkpt lat="39.0168402" lon="16.5193717"><ele>808.0</ele><time>2026-04-11T17:26:52.668Z</time></trkpt><trkpt lat="39.0169734" lon="16.5193176"><ele>808.5</ele><time>2026-04-11T17:26:53.668Z</time></trkpt><trkpt lat="39.017106" lon="16.519231"><ele>809.0</ele><time>2026-04-11T17:26:54.668Z</time></trkpt><trkpt lat="39.0172261" lon="16.5191213"><ele>809.5</ele><time>2026-04-11T17:26:55.669Z</time></trkpt><trkpt lat="39.017334" lon="16.5189993"><ele>810.0</ele><time>2026-04-11T17:26:56.668Z</time></trkpt><trkpt lat="39.0174383" lon="16.5188901"><ele>809.5</ele><time>2026-04-11T17:26:57.669Z</time></trkpt><trkpt lat="39.0175567" lon="16.5188091"><ele>809.0</ele><time>2026-04-11T17:26:58.668Z</time></trkpt><trkpt lat="39.017683" lon="16.5187309"><ele>808.5</ele><time>2026-04-11T17:26:59.668Z</time></trkpt><trkpt lat="39.0177913" lon="16.5186513"><ele>808.0</ele><time>2026-04-11T17:27:00.668Z</time></trkpt><trkpt lat="39.0178939" lon="16.5185624"><ele>808.0</ele><time>2026-04-11T17:27:01.668Z</time></trkpt><trkpt lat="39.0179903" lon="16.5184607"><ele>808.0</ele><time>2026-04-11T17:27:02.668Z</time></trkpt><trkpt lat="39.018079" lon="16.518381"><ele>808.0</ele><time>2026-04-11T17:27:03.668Z</time></trkpt><trkpt lat="39.0181746" lon="16.5183345"><ele>808.0</ele><time>2026-04-11T17:27:04.668Z</time></trkpt><trkpt lat="39.0182775" lon="16.5183208"><ele>808.0</ele><time>2026-04-11T17:27:05.668Z</time></trkpt><trkpt lat="39.0183919" lon="16.5183358"><ele>808.25</ele><time>2026-04-11T17:27:06.668Z</time></trkpt><trkpt lat="39.0185168" lon="16.5183695"><ele>808.5</ele><time>2026-04-11T17:27:07.668Z</time></trkpt><trkpt lat="39.0186404" lon="16.5184142"><ele>808.75</ele><time>2026-04-11T17:27:08.668Z</time></trkpt><trkpt lat="39.0187545" lon="16.5184538"><ele>809.0</ele><time>2026-04-11T17:27:09.669Z</time></trkpt><trkpt lat="39.0188593" lon="16.5184724"><ele>809.0000000000001</ele><time>2026-04-11T17:27:10.668Z</time></trkpt><trkpt lat="39.018944" lon="16.5184483"><ele>809.0</ele><time>2026-04-11T17:27:11.668Z</time></trkpt><trkpt lat="39.019015" lon="16.5183954"><ele>809.0</ele><time>2026-04-11T17:27:12.669Z</time></trkpt><trkpt lat="39.0190744" lon="16.5183261"><ele>809.0</ele><time>2026-04-11T17:27:13.669Z</time></trkpt><trkpt lat="39.0191105" lon="16.5182256"><ele>809.0000000000001</ele><time>2026-04-11T17:27:14.669Z</time></trkpt><trkpt lat="39.019124" lon="16.5181005"><ele>809.0</ele><time>2026-04-11T17:27:15.669Z</time></trkpt><trkpt lat="39.0191179" lon="16.5179633"><ele>807.8000000000001</ele><time>2026-04-11T17:27:16.668Z</time></trkpt><trkpt lat="39.0191038" lon="16.5178236"><ele>806.6</ele><time>2026-04-11T17:27:17.668Z</time></trkpt><trkpt lat="39.0190962" lon="16.5176842"><ele>805.4</ele><time>2026-04-11T17:27:18.668Z</time></trkpt><trkpt lat="39.0191109" lon="16.5175686"><ele>804.2</ele><time>2026-04-11T17:27:19.668Z</time></trkpt><trkpt lat="39.0191409" lon="16.5174694"><ele>803.0</ele><time>2026-04-11T17:27:20.668Z</time></trkpt><trkpt lat="39.0191887" lon="16.5174017"><ele>805.8</ele><time>2026-04-11T17:27:21.669Z</time></trkpt><trkpt lat="39.0192636" lon="16.5173497"><ele>808.5999999999999</ele><time>2026-04-11T17:27:22.669Z</time></trkpt><trkpt lat="39.019356" lon="16.5173041"><ele>811.4000000000001</ele><time>2026-04-11T17:27:23.668Z</time></trkpt><trkpt lat="39.019466" lon="16.5172579"><ele>814.2</ele><time>2026-04-11T17:27:24.668Z</time></trkpt><trkpt lat="39.01958" lon="16.5172191"><ele>817.0</ele><time>2026-04-11T17:27:25.668Z</time></trkpt><trkpt lat="39.0197003" lon="16.5171865"><ele>817.0</ele><time>2026-04-11T17:27:26.668Z</time></trkpt><trkpt lat="39.0198278" lon="16.5171531"><ele>817.0</ele><time>2026-04-11T17:27:27.668Z</time></trkpt><trkpt lat="39.0199288" lon="16.5170971"><ele>817.0</ele><time>2026-04-11T17:27:28.669Z</time></trkpt><trkpt lat="39.0200128" lon="16.5170097"><ele>817.0</ele><time>2026-04-11T17:27:29.668Z</time></trkpt><trkpt lat="39.0200769" lon="16.5169046"><ele>819.4000000000001</ele><time>2026-04-11T17:27:30.668Z</time></trkpt><trkpt lat="39.0201297" lon="16.5167929"><ele>821.8000000000001</ele><time>2026-04-11T17:27:31.669Z</time></trkpt><trkpt lat="39.0201853" lon="16.5166804"><ele>824.2</ele><time>2026-04-11T17:27:32.668Z</time></trkpt><trkpt lat="39.0202457" lon="16.5165824"><ele>826.6</ele><time>2026-04-11T17:27:33.668Z</time></trkpt><trkpt lat="39.020326" lon="16.5165203"><ele>829.0</ele><time>2026-04-11T17:27:34.668Z</time></trkpt><trkpt lat="39.0204141" lon="16.5164795"><ele>829.0</ele><time>2026-04-11T17:27:35.668Z</time></trkpt><trkpt lat="39.0205017" lon="16.5164534"><ele>829.0</ele><time>2026-04-11T17:27:36.668Z</time></trkpt><trkpt lat="39.0205996" lon="16.5164299"><ele>829.0</ele><time>2026-04-11T17:27:37.668Z</time></trkpt><trkpt lat="39.0206999" lon="16.5164297"><ele>829.0</ele><time>2026-04-11T17:27:38.669Z</time></trkpt><trkpt lat="39.0208086" lon="16.5164475"><ele>829.0</ele><time>2026-04-11T17:27:39.668Z</time></trkpt><trkpt lat="39.0209171" lon="16.5164605"><ele>831.0</ele><time>2026-04-11T17:27:40.668Z</time></trkpt><trkpt lat="39.0210287" lon="16.5164679"><ele>833.0</ele><time>2026-04-11T17:27:41.669Z</time></trkpt><trkpt lat="39.021146" lon="16.5164414"><ele>835.0</ele><time>2026-04-11T17:27:42.668Z</time></trkpt><trkpt lat="39.0212671" lon="16.5164386"><ele>837.0</ele><time>2026-04-11T17:27:43.668Z</time></trkpt><trkpt lat="39.0213898" lon="16.51647"><ele>837.0</ele><time>2026-04-11T17:27:44.669Z</time></trkpt><trkpt lat="39.0214914" lon="16.5165319"><ele>837.0</ele><time>2026-04-11T17:27:45.669Z</time></trkpt><trkpt lat="39.0215816" lon="16.5165849"><ele>837.0</ele><time>2026-04-11T17:27:46.668Z</time></trkpt><trkpt lat="39.0216762" lon="16.5166408"><ele>837.0</ele><time>2026-04-11T17:27:47.668Z</time></trkpt><trkpt lat="39.0217711" lon="16.516676"><ele>837.0</ele><time>2026-04-11T17:27:48.669Z</time></trkpt><trkpt lat="39.0218585" lon="16.5166752"><ele>837.8</ele><time>2026-04-11T17:27:49.668Z</time></trkpt><trkpt lat="39.0219262" lon="16.5166533"><ele>838.6</ele><time>2026-04-11T17:27:50.668Z</time></trkpt><trkpt lat="39.0220276" lon="16.5165811"><ele>839.4</ele><time>2026-04-11T17:27:52.668Z</time></trkpt><trkpt lat="39.0221359" lon="16.5164888"><ele>840.1999999999999</ele><time>2026-04-11T17:27:54.668Z</time></trkpt><trkpt lat="39.0222037" lon="16.5164306"><ele>841.0</ele><time>2026-04-11T17:27:55.669Z</time></trkpt><trkpt lat="39.0222666" lon="16.5163704"><ele>840.9999999999999</ele><time>2026-04-11T17:27:56.669Z</time></trkpt><trkpt lat="39.0223281" lon="16.5163127"><ele>841.0</ele><time>2026-04-11T17:27:57.668Z</time></trkpt><trkpt lat="39.0223959" lon="16.5162551"><ele>841.0</ele><time>2026-04-11T17:27:58.668Z</time></trkpt><trkpt lat="39.0224679" lon="16.5162043"><ele>841.0</ele><time>2026-04-11T17:27:59.668Z</time></trkpt><trkpt lat="39.0225401" lon="16.5161504"><ele>840.9999999999999</ele><time>2026-04-11T17:28:00.668Z</time></trkpt><trkpt lat="39.0226179" lon="16.5160921"><ele>841.0</ele><time>2026-04-11T17:28:01.668Z</time></trkpt><trkpt lat="39.0226952" lon="16.51602"><ele>842.4</ele><time>2026-04-11T17:28:02.669Z</time></trkpt><trkpt lat="39.0227748" lon="16.5159429"><ele>843.8</ele><time>2026-04-11T17:28:03.668Z</time></trkpt><trkpt lat="39.0228541" lon="16.5158529"><ele>845.1999999999999</ele><time>2026-04-11T17:28:04.669Z</time></trkpt><trkpt lat="39.0229312" lon="16.5157538"><ele>846.5999999999999</ele><time>2026-04-11T17:28:05.669Z</time></trkpt><trkpt lat="39.0230137" lon="16.5156437"><ele>848.0</ele><time>2026-04-11T17:28:06.668Z</time></trkpt><trkpt lat="39.0231003" lon="16.5155286"><ele>848.0</ele><time>2026-04-11T17:28:07.668Z</time></trkpt><trkpt lat="39.0231904" lon="16.5154043"><ele>848.0</ele><time>2026-04-11T17:28:08.668Z</time></trkpt><trkpt lat="39.0232797" lon="16.515282"><ele>848.0</ele><time>2026-04-11T17:28:09.668Z</time></trkpt><trkpt lat="39.0233684" lon="16.5151626"><ele>848.0</ele><time>2026-04-11T17:28:10.668Z</time></trkpt><trkpt lat="39.0234626" lon="16.5150326"><ele>848.25</ele><time>2026-04-11T17:28:11.668Z</time></trkpt><trkpt lat="39.0235437" lon="16.5148972"><ele>848.5</ele><time>2026-04-11T17:28:12.668Z</time></trkpt><trkpt lat="39.023613" lon="16.5147589"><ele>848.75</ele><time>2026-04-11T17:28:13.668Z</time></trkpt><trkpt lat="39.0236684" lon="16.5146131"><ele>849.0</ele><time>2026-04-11T17:28:14.668Z</time></trkpt><trkpt lat="39.0237159" lon="16.5144936"><ele>849.0</ele><time>2026-04-11T17:28:15.668Z</time></trkpt><trkpt lat="39.0237605" lon="16.5143841"><ele>849.0</ele><time>2026-04-11T17:28:16.669Z</time></trkpt><trkpt lat="39.0238069" lon="16.5142671"><ele>849.0</ele><time>2026-04-11T17:28:17.668Z</time></trkpt><trkpt lat="39.0238506" lon="16.5141427"><ele>849.0</ele><time>2026-04-11T17:28:18.668Z</time></trkpt><trkpt lat="39.0238952" lon="16.514026"><ele>849.0</ele><time>2026-04-11T17:28:19.668Z</time></trkpt><trkpt lat="39.0239384" lon="16.5139171"><ele>849.0</ele><time>2026-04-11T17:28:20.668Z</time></trkpt><trkpt lat="39.0239891" lon="16.5138178"><ele>849.0</ele><time>2026-04-11T17:28:21.668Z</time></trkpt><trkpt lat="39.0240536" lon="16.513728"><ele>849.0</ele><time>2026-04-11T17:28:22.668Z</time></trkpt><trkpt lat="39.0241322" lon="16.5136458"><ele>849.0</ele><time>2026-04-11T17:28:23.668Z</time></trkpt><trkpt lat="39.0242247" lon="16.5135755"><ele>849.0</ele><time>2026-04-11T17:28:24.668Z</time></trkpt><trkpt lat="39.0243293" lon="16.513518"><ele>852.0</ele><time>2026-04-11T17:28:25.669Z</time></trkpt><trkpt lat="39.0244435" lon="16.513467"><ele>855.0</ele><time>2026-04-11T17:28:26.668Z</time></trkpt><trkpt lat="39.0245664" lon="16.513407"><ele>858.0</ele><time>2026-04-11T17:28:27.669Z</time></trkpt><trkpt lat="39.0246789" lon="16.5133373"><ele>861.0</ele><time>2026-04-11T17:28:28.668Z</time></trkpt><trkpt lat="39.0247962" lon="16.51325"><ele>861.0</ele><time>2026-04-11T17:28:29.668Z</time></trkpt><trkpt lat="39.024914" lon="16.51317"><ele>861.0</ele><time>2026-04-11T17:28:30.669Z</time></trkpt><trkpt lat="39.0250316" lon="16.5131286"><ele>861.0</ele><time>2026-04-11T17:28:31.669Z</time></trkpt><trkpt lat="39.0251413" lon="16.5131431"><ele>861.0</ele><time>2026-04-11T17:28:32.668Z</time></trkpt><trkpt lat="39.0252486" lon="16.513185"><ele>862.0</ele><time>2026-04-11T17:28:33.668Z</time></trkpt><trkpt lat="39.0253516" lon="16.5132235"><ele>862.9999999999999</ele><time>2026-04-11T17:28:34.668Z</time></trkpt><trkpt lat="39.0254519" lon="16.5132522"><ele>863.9999999999999</ele><time>2026-04-11T17:28:35.668Z</time></trkpt><trkpt lat="39.0255433" lon="16.5132384"><ele>865.0</ele><time>2026-04-11T17:28:36.668Z</time></trkpt><trkpt lat="39.0256157" lon="16.5131958"><ele>866.0</ele><time>2026-04-11T17:28:37.668Z</time></trkpt><trkpt lat="39.0256663" lon="16.5131269"><ele>866.0</ele><time>2026-04-11T17:28:38.668Z</time></trkpt><trkpt lat="39.0256848" lon="16.5130326"><ele>865.9999999999999</ele><time>2026-04-11T17:28:39.669Z</time></trkpt><trkpt lat="39.0256816" lon="16.5129033"><ele>865.9999999999999</ele><time>2026-04-11T17:28:40.668Z</time></trkpt><trkpt lat="39.0256937" lon="16.5127677"><ele>866.0</ele><time>2026-04-11T17:28:41.668Z</time></trkpt><trkpt lat="39.0257139" lon="16.5126296"><ele>866.0</ele><time>2026-04-11T17:28:42.668Z</time></trkpt><trkpt lat="39.0257417" lon="16.5124979"><ele>866.5999999999999</ele><time>2026-04-11T17:28:43.669Z</time></trkpt><trkpt lat="39.0257607" lon="16.5123685"><ele>867.1999999999999</ele><time>2026-04-11T17:28:44.668Z</time></trkpt><trkpt lat="39.025752" lon="16.512236"><ele>867.8000000000001</ele><time>2026-04-11T17:28:45.668Z</time></trkpt><trkpt lat="39.0257111" lon="16.5121246"><ele>868.4000000000001</ele><time>2026-04-11T17:28:46.669Z</time></trkpt><trkpt lat="39.025643" lon="16.5120328"><ele>869.0</ele><time>2026-04-11T17:28:47.668Z</time></trkpt><trkpt lat="39.0255795" lon="16.5119462"><ele>870.6666666666667</ele><time>2026-04-11T17:28:48.668Z</time></trkpt><trkpt lat="39.0255541" lon="16.511853"><ele>872.3333333333334</ele><time>2026-04-11T17:28:49.668Z</time></trkpt><trkpt lat="39.0255666" lon="16.5117505"><ele>874.0</ele><time>2026-04-11T17:28:50.668Z</time></trkpt><trkpt lat="39.0256194" lon="16.5116726"><ele>875.6666666666667</ele><time>2026-04-11T17:28:51.669Z</time></trkpt><trkpt lat="39.0257052" lon="16.5116091"><ele>877.3333333333334</ele><time>2026-04-11T17:28:52.668Z</time></trkpt><trkpt lat="39.0258016" lon="16.5115473"><ele>879.0</ele><time>2026-04-11T17:28:53.668Z</time></trkpt><trkpt lat="39.0258974" lon="16.5114808"><ele>880.2</ele><time>2026-04-11T17:28:54.668Z</time></trkpt><trkpt lat="39.0259893" lon="16.5114081"><ele>881.4000000000001</ele><time>2026-04-11T17:28:55.669Z</time></trkpt><trkpt lat="39.0260763" lon="16.5113363"><ele>882.6</ele><time>2026-04-11T17:28:56.669Z</time></trkpt><trkpt lat="39.0261615" lon="16.511268"><ele>883.8</ele><time>2026-04-11T17:28:57.668Z</time></trkpt><trkpt lat="39.0262402" lon="16.5112076"><ele>885.0</ele><time>2026-04-11T17:28:58.668Z</time></trkpt><trkpt lat="39.0263152" lon="16.5111467"><ele>885.0</ele><time>2026-04-11T17:28:59.668Z</time></trkpt><trkpt lat="39.0263866" lon="16.5110924"><ele>885.0</ele><time>2026-04-11T17:29:00.668Z</time></trkpt><trkpt lat="39.0264521" lon="16.5110421"><ele>885.0</ele><time>2026-04-11T17:29:01.669Z</time></trkpt><trkpt lat="39.0265155" lon="16.5109929"><ele>885.0</ele><time>2026-04-11T17:29:02.669Z</time></trkpt><trkpt lat="39.0265832" lon="16.5109447"><ele>885.0</ele><time>2026-04-11T17:29:03.669Z</time></trkpt><trkpt lat="39.0266565" lon="16.5109134"><ele>885.0</ele><time>2026-04-11T17:29:04.668Z</time></trkpt><trkpt lat="39.0267312" lon="16.5109044"><ele>887.8333333333334</ele><time>2026-04-11T17:29:05.668Z</time></trkpt><trkpt lat="39.0268024" lon="16.5109091"><ele>890.6666666666667</ele><time>2026-04-11T17:29:06.669Z</time></trkpt><trkpt lat="39.0268689" lon="16.5109399"><ele>893.5</ele><time>2026-04-11T17:29:07.669Z</time></trkpt><trkpt lat="39.0269281" lon="16.5109975"><ele>896.3333333333334</ele><time>2026-04-11T17:29:08.668Z</time></trkpt><trkpt lat="39.026965" lon="16.511075"><ele>899.1666666666667</ele><time>2026-04-11T17:29:09.668Z</time></trkpt><trkpt lat="39.0269758" lon="16.5111835"><ele>902.0</ele><time>2026-04-11T17:29:10.668Z</time></trkpt><trkpt lat="39.0269865" lon="16.5113037"><ele>903.6</ele><time>2026-04-11T17:29:11.668Z</time></trkpt><trkpt lat="39.0270207" lon="16.5114095"><ele>905.2</ele><time>2026-04-11T17:29:12.67Z</time></trkpt><trkpt lat="39.0270804" lon="16.5114973"><ele>906.8</ele><time>2026-04-11T17:29:13.67Z</time></trkpt><trkpt lat="39.0271517" lon="16.5115825"><ele>908.4</ele><time>2026-04-11T17:29:14.67Z</time></trkpt><trkpt lat="39.0272348" lon="16.5116738"><ele>910.0</ele><time>2026-04-11T17:29:15.669Z</time></trkpt><trkpt lat="39.0273112" lon="16.5117718"><ele>910.0</ele><time>2026-04-11T17:29:16.669Z</time></trkpt><trkpt lat="39.027382" lon="16.5118855"><ele>910.0</ele><time>2026-04-11T17:29:17.67Z</time></trkpt><trkpt lat="39.0274527" lon="16.5120025"><ele>910.0</ele><time>2026-04-11T17:29:18.669Z</time></trkpt><trkpt lat="39.0275232" lon="16.5121154"><ele>910.0</ele><time>2026-04-11T17:29:19.669Z</time></trkpt><trkpt lat="39.0276063" lon="16.5121993"><ele>910.0</ele><time>2026-04-11T17:29:20.669Z</time></trkpt><trkpt lat="39.0276942" lon="16.5122735"><ele>913.25</ele><time>2026-04-11T17:29:21.669Z</time></trkpt><trkpt lat="39.0277918" lon="16.5123409"><ele>916.5</ele><time>2026-04-11T17:29:22.669Z</time></trkpt><trkpt lat="39.0279079" lon="16.5123858"><ele>919.75</ele><time>2026-04-11T17:29:23.67Z</time></trkpt><trkpt lat="39.0280207" lon="16.5124367"><ele>923.0</ele><time>2026-04-11T17:29:24.67Z</time></trkpt><trkpt lat="39.0281366" lon="16.5124941"><ele>923.0</ele><time>2026-04-11T17:29:25.669Z</time></trkpt><trkpt lat="39.0282459" lon="16.5125545"><ele>923.0</ele><time>2026-04-11T17:29:26.67Z</time></trkpt><trkpt lat="39.0283502" lon="16.5126042"><ele>923.0</ele><time>2026-04-11T17:29:27.669Z</time></trkpt><trkpt lat="39.0284541" lon="16.5126379"><ele>923.0</ele><time>2026-04-11T17:29:28.669Z</time></trkpt><trkpt lat="39.0285718" lon="16.5126566"><ele>922.5999999999999</ele><time>2026-04-11T17:29:29.669Z</time></trkpt><trkpt lat="39.0286859" lon="16.5126625"><ele>922.1999999999999</ele><time>2026-04-11T17:29:30.669Z</time></trkpt><trkpt lat="39.0287911" lon="16.5126522"><ele>921.8</ele><time>2026-04-11T17:29:31.669Z</time></trkpt><trkpt lat="39.0288988" lon="16.5126312"><ele>921.4</ele><time>2026-04-11T17:29:32.669Z</time></trkpt><trkpt lat="39.0290115" lon="16.5126017"><ele>921.0</ele><time>2026-04-11T17:29:33.67Z</time></trkpt><trkpt lat="39.0291231" lon="16.5125604"><ele>922.0</ele><time>2026-04-11T17:29:34.669Z</time></trkpt><trkpt lat="39.0292484" lon="16.5125126"><ele>923.0</ele><time>2026-04-11T17:29:35.669Z</time></trkpt><trkpt lat="39.029376" lon="16.512469"><ele>924.0</ele><time>2026-04-11T17:29:36.669Z</time></trkpt><trkpt lat="39.0295117" lon="16.5124184"><ele>925.0</ele><time>2026-04-11T17:29:37.67Z</time></trkpt><trkpt lat="39.0296412" lon="16.5123745"><ele>925.0</ele><time>2026-04-11T17:29:38.669Z</time></trkpt><trkpt lat="39.0297698" lon="16.5123301"><ele>925.0</ele><time>2026-04-11T17:29:39.669Z</time></trkpt><trkpt lat="39.0298998" lon="16.5122851"><ele>925.0</ele><time>2026-04-11T17:29:40.67Z</time></trkpt><trkpt lat="39.0300239" lon="16.5122416"><ele>925.0</ele><time>2026-04-11T17:29:41.67Z</time></trkpt><trkpt lat="39.0301574" lon="16.5122122"><ele>925.5</ele><time>2026-04-11T17:29:42.67Z</time></trkpt><trkpt lat="39.0302902" lon="16.5122201"><ele>926.0</ele><time>2026-04-11T17:29:43.669Z</time></trkpt><trkpt lat="39.0304206" lon="16.5122444"><ele>926.5</ele><time>2026-04-11T17:29:44.67Z</time></trkpt><trkpt lat="39.0305499" lon="16.5122766"><ele>927.0</ele><time>2026-04-11T17:29:45.67Z</time></trkpt><trkpt lat="39.0306732" lon="16.5122826"><ele>927.0</ele><time>2026-04-11T17:29:46.67Z</time></trkpt><trkpt lat="39.0307963" lon="16.512254"><ele>927.0</ele><time>2026-04-11T17:29:47.669Z</time></trkpt><trkpt lat="39.0309207" lon="16.5122175"><ele>927.0</ele><time>2026-04-11T17:29:48.669Z</time></trkpt><trkpt lat="39.031049" lon="16.5121792"><ele>927.0</ele><time>2026-04-11T17:29:49.669Z</time></trkpt><trkpt lat="39.0311851" lon="16.5121482"><ele>928.0</ele><time>2026-04-11T17:29:50.67Z</time></trkpt><trkpt lat="39.0313172" lon="16.5121337"><ele>929.0</ele><time>2026-04-11T17:29:51.669Z</time></trkpt><trkpt lat="39.0314506" lon="16.5121403"><ele>930.0</ele><time>2026-04-11T17:29:52.669Z</time></trkpt><trkpt lat="39.0315889" lon="16.5121626"><ele>931.0</ele><time>2026-04-11T17:29:53.669Z</time></trkpt><trkpt lat="39.031727" lon="16.5121854"><ele>931.75</ele><time>2026-04-11T17:29:54.67Z</time></trkpt><trkpt lat="39.0318713" lon="16.512203"><ele>932.5</ele><time>2026-04-11T17:29:55.669Z</time></trkpt><trkpt lat="39.0320166" lon="16.5122077"><ele>933.25</ele><time>2026-04-11T17:29:56.669Z</time></trkpt><trkpt lat="39.0321698" lon="16.5121998"><ele>934.0</ele><time>2026-04-11T17:29:57.669Z</time></trkpt><trkpt lat="39.0323102" lon="16.5122022"><ele>934.0</ele><time>2026-04-11T17:29:58.67Z</time></trkpt><trkpt lat="39.0324487" lon="16.5122013"><ele>934.0</ele><time>2026-04-11T17:29:59.669Z</time></trkpt><trkpt lat="39.0325852" lon="16.5121983"><ele>934.0</ele><time>2026-04-11T17:30:00.67Z</time></trkpt><trkpt lat="39.0327089" lon="16.512197"><ele>934.0</ele><time>2026-04-11T17:30:01.67Z</time></trkpt><trkpt lat="39.0328291" lon="16.5122069"><ele>935.25</ele><time>2026-04-11T17:30:02.669Z</time></trkpt><trkpt lat="39.0329474" lon="16.5122063"><ele>936.5</ele><time>2026-04-11T17:30:03.669Z</time></trkpt><trkpt lat="39.0330606" lon="16.5121821"><ele>937.75</ele><time>2026-04-11T17:30:04.67Z</time></trkpt><trkpt lat="39.0331719" lon="16.5121769"><ele>939.0</ele><time>2026-04-11T17:30:05.669Z</time></trkpt><trkpt lat="39.0332913" lon="16.5122012"><ele>939.0</ele><time>2026-04-11T17:30:06.669Z</time></trkpt><trkpt lat="39.0334013" lon="16.5122404"><ele>939.0000000000001</ele><time>2026-04-11T17:30:07.669Z</time></trkpt><trkpt lat="39.0335143" lon="16.5122825"><ele>939.0000000000001</ele><time>2026-04-11T17:30:08.669Z</time></trkpt><trkpt lat="39.0336163" lon="16.5123353"><ele>939.0</ele><time>2026-04-11T17:30:09.67Z</time></trkpt><trkpt lat="39.033712" lon="16.5123862"><ele>939.0</ele><time>2026-04-11T17:30:10.669Z</time></trkpt><trkpt lat="39.0337943" lon="16.5124289"><ele>939.0</ele><time>2026-04-11T17:30:11.669Z</time></trkpt><trkpt lat="39.0338647" lon="16.5124688"><ele>939.0000000000001</ele><time>2026-04-11T17:30:12.669Z</time></trkpt><trkpt lat="39.033935" lon="16.5125008"><ele>939.0000000000001</ele><time>2026-04-11T17:30:13.67Z</time></trkpt><trkpt lat="39.0340502" lon="16.5125238"><ele>939.0</ele><time>2026-04-11T17:30:15.67Z</time></trkpt><trkpt lat="39.034171" lon="16.5125467"><ele>939.0</ele><time>2026-04-11T17:30:17.67Z</time></trkpt><trkpt lat="39.0342852" lon="16.5125537"><ele>938.0</ele><time>2026-04-11T17:30:19.669Z</time></trkpt><trkpt lat="39.0344114" lon="16.5125719"><ele>937.0</ele><time>2026-04-11T17:30:21.669Z</time></trkpt><trkpt lat="39.0344781" lon="16.5125769"><ele>936.0</ele><time>2026-04-11T17:30:22.669Z</time></trkpt><trkpt lat="39.0345458" lon="16.5125807"><ele>935.0</ele><time>2026-04-11T17:30:23.669Z</time></trkpt><trkpt lat="39.0346094" lon="16.5125676"><ele>934.0</ele><time>2026-04-11T17:30:24.669Z</time></trkpt><trkpt lat="39.034673" lon="16.5125471"><ele>933.0</ele><time>2026-04-11T17:30:25.67Z</time></trkpt><trkpt lat="39.0347333" lon="16.5125168"><ele>933.0</ele><time>2026-04-11T17:30:26.67Z</time></trkpt><trkpt lat="39.0347986" lon="16.512477"><ele>932.9999999999999</ele><time>2026-04-11T17:30:27.669Z</time></trkpt><trkpt lat="39.0348623" lon="16.5124381"><ele>933.0</ele><time>2026-04-11T17:30:28.669Z</time></trkpt><trkpt lat="39.0349256" lon="16.5123936"><ele>933.0</ele><time>2026-04-11T17:30:29.67Z</time></trkpt><trkpt lat="39.0349804" lon="16.512344"><ele>932.9999999999999</ele><time>2026-04-11T17:30:30.669Z</time></trkpt><trkpt lat="39.0350377" lon="16.512295"><ele>933.0</ele><time>2026-04-11T17:30:31.67Z</time></trkpt><trkpt lat="39.0350919" lon="16.5122498"><ele>933.0</ele><time>2026-04-11T17:30:32.669Z</time></trkpt><trkpt lat="39.0352045" lon="16.512171"><ele>934.2857142857142</ele><time>2026-04-11T17:30:34.67Z</time></trkpt><trkpt lat="39.0352663" lon="16.5121442"><ele>935.5714285714284</ele><time>2026-04-11T17:30:35.67Z</time></trkpt><trkpt lat="39.0353337" lon="16.5121262"><ele>936.8571428571429</ele><time>2026-04-11T17:30:36.669Z</time></trkpt><trkpt lat="39.0354029" lon="16.5121168"><ele>938.1428571428571</ele><time>2026-04-11T17:30:37.67Z</time></trkpt><trkpt lat="39.0354713" lon="16.5121256"><ele>939.4285714285714</ele><time>2026-04-11T17:30:38.669Z</time></trkpt><trkpt lat="39.0355399" lon="16.5121427"><ele>940.7142857142858</ele><time>2026-04-11T17:30:39.669Z</time></trkpt><trkpt lat="39.0356096" lon="16.5121627"><ele>942.0000000000001</ele><time>2026-04-11T17:30:40.67Z</time></trkpt><trkpt lat="39.0356817" lon="16.5121816"><ele>942.0</ele><time>2026-04-11T17:30:41.669Z</time></trkpt><trkpt lat="39.0357531" lon="16.5122063"><ele>942.0</ele><time>2026-04-11T17:30:42.67Z</time></trkpt><trkpt lat="39.035822" lon="16.5122296"><ele>942.0</ele><time>2026-04-11T17:30:43.669Z</time></trkpt><trkpt lat="39.0358945" lon="16.5122369"><ele>942.0</ele><time>2026-04-11T17:30:44.669Z</time></trkpt><trkpt lat="39.0359756" lon="16.5122174"><ele>942.0</ele><time>2026-04-11T17:30:45.669Z</time></trkpt><trkpt lat="39.0360533" lon="16.5121721"><ele>942.0</ele><time>2026-04-11T17:30:46.67Z</time></trkpt><trkpt lat="39.0361242" lon="16.5121051"><ele>946.3333333333334</ele><time>2026-04-11T17:30:47.67Z</time></trkpt><trkpt lat="39.0361845" lon="16.512038"><ele>950.6666666666667</ele><time>2026-04-11T17:30:48.669Z</time></trkpt><trkpt lat="39.0362431" lon="16.5119642"><ele>955.0</ele><time>2026-04-11T17:30:49.669Z</time></trkpt><trkpt lat="39.0363045" lon="16.5118912"><ele>959.3333333333334</ele><time>2026-04-11T17:30:50.669Z</time></trkpt><trkpt lat="39.0363624" lon="16.511821"><ele>963.6666666666667</ele><time>2026-04-11T17:30:51.67Z</time></trkpt><trkpt lat="39.0364283" lon="16.5117585"><ele>968.0</ele><time>2026-04-11T17:30:52.669Z</time></trkpt><trkpt lat="39.0364964" lon="16.5117037"><ele>968.0000000000001</ele><time>2026-04-11T17:30:53.67Z</time></trkpt><trkpt lat="39.0365613" lon="16.5116691"><ele>968.0</ele><time>2026-04-11T17:30:54.67Z</time></trkpt><trkpt lat="39.0366266" lon="16.5116525"><ele>968.0</ele><time>2026-04-11T17:30:55.669Z</time></trkpt><trkpt lat="39.0367004" lon="16.5116723"><ele>968.0</ele><time>2026-04-11T17:30:56.669Z</time></trkpt><trkpt lat="39.0367741" lon="16.5117045"><ele>968.0000000000001</ele><time>2026-04-11T17:30:57.67Z</time></trkpt><trkpt lat="39.0368448" lon="16.5117498"><ele>968.0</ele><time>2026-04-11T17:30:58.669Z</time></trkpt><trkpt lat="39.0369167" lon="16.5118039"><ele>969.5999999999999</ele><time>2026-04-11T17:30:59.669Z</time></trkpt><trkpt lat="39.0369826" lon="16.5118675"><ele>971.1999999999999</ele><time>2026-04-11T17:31:00.67Z</time></trkpt><trkpt lat="39.0370474" lon="16.5119446"><ele>972.8</ele><time>2026-04-11T17:31:01.67Z</time></trkpt><trkpt lat="39.0371196" lon="16.512045"><ele>974.4</ele><time>2026-04-11T17:31:02.669Z</time></trkpt><trkpt lat="39.0371959" lon="16.5121512"><ele>976.0</ele><time>2026-04-11T17:31:03.67Z</time></trkpt><trkpt lat="39.0372753" lon="16.5122584"><ele>976.0</ele><time>2026-04-11T17:31:04.67Z</time></trkpt><trkpt lat="39.0373569" lon="16.5123632"><ele>975.9999999999999</ele><time>2026-04-11T17:31:05.67Z</time></trkpt><trkpt lat="39.0374297" lon="16.5124635"><ele>975.9999999999999</ele><time>2026-04-11T17:31:06.669Z</time></trkpt><trkpt lat="39.0374996" lon="16.5125581"><ele>976.0</ele><time>2026-04-11T17:31:07.67Z</time></trkpt><trkpt lat="39.0375695" lon="16.5126422"><ele>976.0</ele><time>2026-04-11T17:31:08.669Z</time></trkpt><trkpt lat="39.0376525" lon="16.5127321"><ele>976.5999999999999</ele><time>2026-04-11T17:31:09.67Z</time></trkpt><trkpt lat="39.0377217" lon="16.5128085"><ele>977.1999999999999</ele><time>2026-04-11T17:31:10.67Z</time></trkpt><trkpt lat="39.0377957" lon="16.5128747"><ele>977.8000000000001</ele><time>2026-04-11T17:31:11.669Z</time></trkpt><trkpt lat="39.0378823" lon="16.5129237"><ele>978.4000000000001</ele><time>2026-04-11T17:31:12.669Z</time></trkpt><trkpt lat="39.0379697" lon="16.5129482"><ele>979.0</ele><time>2026-04-11T17:31:13.669Z</time></trkpt><trkpt lat="39.0380637" lon="16.5129541"><ele>979.0</ele><time>2026-04-11T17:31:14.669Z</time></trkpt><trkpt lat="39.0381658" lon="16.5129517"><ele>979.0000000000001</ele><time>2026-04-11T17:31:15.669Z</time></trkpt><trkpt lat="39.0382655" lon="16.512955"><ele>979.0000000000001</ele><time>2026-04-11T17:31:16.67Z</time></trkpt><trkpt lat="39.0383536" lon="16.5129454"><ele>979.0</ele><time>2026-04-11T17:31:17.67Z</time></trkpt><trkpt lat="39.0384426" lon="16.5129111"><ele>979.0</ele><time>2026-04-11T17:31:18.669Z</time></trkpt><trkpt lat="39.0385258" lon="16.5128415"><ele>985.0</ele><time>2026-04-11T17:31:19.67Z</time></trkpt><trkpt lat="39.0386157" lon="16.5127493"><ele>991.0000000000001</ele><time>2026-04-11T17:31:20.669Z</time></trkpt><trkpt lat="39.0387089" lon="16.512688"><ele>997.0000000000001</ele><time>2026-04-11T17:31:21.669Z</time></trkpt><trkpt lat="39.0388067" lon="16.5126708"><ele>1003.0</ele><time>2026-04-11T17:31:22.67Z</time></trkpt><trkpt lat="39.0389188" lon="16.5126852"><ele>1009.0</ele><time>2026-04-11T17:31:23.669Z</time></trkpt><trkpt lat="39.0390243" lon="16.5127132"><ele>1009.0</ele><time>2026-04-11T17:31:24.669Z</time></trkpt><trkpt lat="39.0391259" lon="16.5127473"><ele>1009.0000000000001</ele><time>2026-04-11T17:31:25.669Z</time></trkpt><trkpt lat="39.0392344" lon="16.5127966"><ele>1009.0000000000001</ele><time>2026-04-11T17:31:26.669Z</time></trkpt><trkpt lat="39.0393398" lon="16.5128418"><ele>1009.0</ele><time>2026-04-11T17:31:27.67Z</time></trkpt><trkpt lat="39.0394452" lon="16.5128525"><ele>1009.0</ele><time>2026-04-11T17:31:28.67Z</time></trkpt><trkpt lat="39.0395533" lon="16.5128145"><ele>1009.0</ele><time>2026-04-11T17:31:29.669Z</time></trkpt><trkpt lat="39.0396628" lon="16.5127407"><ele>1009.0</ele><time>2026-04-11T17:31:30.67Z</time></trkpt><trkpt lat="39.0397732" lon="16.5126525"><ele>1009.0</ele><time>2026-04-11T17:31:31.67Z</time></trkpt><trkpt lat="39.039877" lon="16.5125586"><ele>1009.0</ele><time>2026-04-11T17:31:32.669Z</time></trkpt><trkpt lat="39.0399697" lon="16.5124626"><ele>1009.0</ele><time>2026-04-11T17:31:33.669Z</time></trkpt><trkpt lat="39.0400549" lon="16.5123654"><ele>1009.0</ele><time>2026-04-11T17:31:34.669Z</time></trkpt><trkpt lat="39.0401452" lon="16.5122737"><ele>1009.0</ele><time>2026-04-11T17:31:35.669Z</time></trkpt><trkpt lat="39.0402471" lon="16.5121913"><ele>1009.0</ele><time>2026-04-11T17:31:36.669Z</time></trkpt><trkpt lat="39.0403469" lon="16.5121383"><ele>1009.0</ele><time>2026-04-11T17:31:37.669Z</time></trkpt><trkpt lat="39.0404524" lon="16.5121112"><ele>1009.0000000000001</ele><time>2026-04-11T17:31:38.669Z</time></trkpt><trkpt lat="39.0405641" lon="16.5121136"><ele>1009.0000000000001</ele><time>2026-04-11T17:31:39.67Z</time></trkpt><trkpt lat="39.0406793" lon="16.5121364"><ele>1009.0</ele><time>2026-04-11T17:31:40.67Z</time></trkpt><trkpt lat="39.0407812" lon="16.5121428"><ele>1009.0</ele><time>2026-04-11T17:31:41.67Z</time></trkpt><trkpt lat="39.0408777" lon="16.5121179"><ele>1013.75</ele><time>2026-04-11T17:31:42.67Z</time></trkpt><trkpt lat="39.0409644" lon="16.5120685"><ele>1018.5</ele><time>2026-04-11T17:31:43.669Z</time></trkpt><trkpt lat="39.0410558" lon="16.5119906"><ele>1023.25</ele><time>2026-04-11T17:31:44.67Z</time></trkpt><trkpt lat="39.0411509" lon="16.5118826"><ele>1028.0</ele><time>2026-04-11T17:31:45.67Z</time></trkpt><trkpt lat="39.0412467" lon="16.5117692"><ele>1028.0</ele><time>2026-04-11T17:31:46.669Z</time></trkpt><trkpt lat="39.0413273" lon="16.5116512"><ele>1028.0</ele><time>2026-04-11T17:31:47.669Z</time></trkpt><trkpt lat="39.0413944" lon="16.5115342"><ele>1028.0</ele><time>2026-04-11T17:31:48.669Z</time></trkpt><trkpt lat="39.0414394" lon="16.5114236"><ele>1028.0</ele><time>2026-04-11T17:31:49.67Z</time></trkpt><trkpt lat="39.0414654" lon="16.5113236"><ele>1028.0</ele><time>2026-04-11T17:31:50.669Z</time></trkpt><trkpt lat="39.0414738" lon="16.5112311"><ele>1030.1666666666667</ele><time>2026-04-11T17:31:51.67Z</time></trkpt><trkpt lat="39.041474" lon="16.5111381"><ele>1032.3333333333335</ele><time>2026-04-11T17:31:52.669Z</time></trkpt><trkpt lat="39.0414721" lon="16.5110282"><ele>1034.5</ele><time>2026-04-11T17:31:53.67Z</time></trkpt><trkpt lat="39.0414715" lon="16.5109111"><ele>1036.6666666666667</ele><time>2026-04-11T17:31:54.669Z</time></trkpt><trkpt lat="39.0414714" lon="16.5108022"><ele>1038.8333333333333</ele><time>2026-04-11T17:31:55.669Z</time></trkpt><trkpt lat="39.0414732" lon="16.510716"><ele>1041.0</ele><time>2026-04-11T17:31:56.669Z</time></trkpt><trkpt lat="39.0414982" lon="16.510601"><ele>1041.0</ele><time>2026-04-11T17:31:58.669Z</time></trkpt><trkpt lat="39.0415839" lon="16.5105382"><ele>1041.0</ele><time>2026-04-11T17:32:00.67Z</time></trkpt><trkpt lat="39.0416465" lon="16.510518"><ele>1041.0</ele><time>2026-04-11T17:32:01.669Z</time></trkpt><trkpt lat="39.0417299" lon="16.5104946"><ele>1041.0</ele><time>2026-04-11T17:32:02.669Z</time></trkpt><trkpt lat="39.041837" lon="16.510466"><ele>1041.0</ele><time>2026-04-11T17:32:03.669Z</time></trkpt><trkpt lat="39.0419635" lon="16.5104371"><ele>1036.6666666666667</ele><time>2026-04-11T17:32:04.669Z</time></trkpt><trkpt lat="39.042097" lon="16.5104207"><ele>1032.3333333333335</ele><time>2026-04-11T17:32:05.67Z</time></trkpt><trkpt lat="39.0423697" lon="16.5103799"><ele>1028.0</ele><time>2026-04-11T17:32:07.67Z</time></trkpt><trkpt lat="39.0425021" lon="16.5103572"><ele>1025.0</ele><time>2026-04-11T17:32:08.67Z</time></trkpt><trkpt lat="39.0428952" lon="16.5102679"><ele>1022.0</ele><time>2026-04-11T17:32:11.669Z</time></trkpt><trkpt lat="39.0430216" lon="16.5102511"><ele>1022.0</ele><time>2026-04-11T17:32:12.669Z</time></trkpt><trkpt lat="39.0431434" lon="16.5102354"><ele>1022.0</ele><time>2026-04-11T17:32:13.67Z</time></trkpt><trkpt lat="39.0432641" lon="16.510231"><ele>1022.0</ele><time>2026-04-11T17:32:14.669Z</time></trkpt><trkpt lat="39.0433806" lon="16.5102354"><ele>1022.0</ele><time>2026-04-11T17:32:15.669Z</time></trkpt><trkpt lat="39.0434876" lon="16.5102277"><ele>1024.0</ele><time>2026-04-11T17:32:16.67Z</time></trkpt><trkpt lat="39.0435803" lon="16.510201"><ele>1026.0</ele><time>2026-04-11T17:32:17.669Z</time></trkpt><trkpt lat="39.043664" lon="16.5101481"><ele>1028.0</ele><time>2026-04-11T17:32:18.67Z</time></trkpt><trkpt lat="39.0437436" lon="16.5100932"><ele>1030.0</ele><time>2026-04-11T17:32:19.669Z</time></trkpt><trkpt lat="39.0439986" lon="16.509898"><ele>1030.0</ele><time>2026-04-11T17:32:22.67Z</time></trkpt><trkpt lat="39.0441003" lon="16.5098329"><ele>1030.0</ele><time>2026-04-11T17:32:23.669Z</time></trkpt><trkpt lat="39.0441999" lon="16.5097794"><ele>1030.0</ele><time>2026-04-11T17:32:24.669Z</time></trkpt><trkpt lat="39.0442865" lon="16.5097268"><ele>1030.0</ele><time>2026-04-11T17:32:25.669Z</time></trkpt><trkpt lat="39.0443556" lon="16.5096614"><ele>1030.0</ele><time>2026-04-11T17:32:26.669Z</time></trkpt><trkpt lat="39.0444015" lon="16.509594"><ele>1032.8333333333333</ele><time>2026-04-11T17:32:27.67Z</time></trkpt><trkpt lat="39.0444281" lon="16.5095115"><ele>1035.6666666666665</ele><time>2026-04-11T17:32:28.67Z</time></trkpt><trkpt lat="39.0444364" lon="16.5094246"><ele>1038.5</ele><time>2026-04-11T17:32:29.669Z</time></trkpt><trkpt lat="39.044431" lon="16.5093315"><ele>1041.3333333333333</ele><time>2026-04-11T17:32:30.669Z</time></trkpt><trkpt lat="39.0444247" lon="16.5092324"><ele>1044.1666666666667</ele><time>2026-04-11T17:32:31.67Z</time></trkpt><trkpt lat="39.0444103" lon="16.5091297"><ele>1047.0</ele><time>2026-04-11T17:32:32.669Z</time></trkpt><trkpt lat="39.0443969" lon="16.5090171"><ele>1047.0</ele><time>2026-04-11T17:32:33.67Z</time></trkpt><trkpt lat="39.0443665" lon="16.508907"><ele>1047.0</ele><time>2026-04-11T17:32:34.669Z</time></trkpt><trkpt lat="39.0443233" lon="16.5087911"><ele>1047.0</ele><time>2026-04-11T17:32:35.669Z</time></trkpt><trkpt lat="39.0442695" lon="16.5086779"><ele>1047.0</ele><time>2026-04-11T17:32:36.67Z</time></trkpt><trkpt lat="39.044217" lon="16.5085628"><ele>1047.0</ele><time>2026-04-11T17:32:37.669Z</time></trkpt><trkpt lat="39.0441737" lon="16.508434"><ele>1045.6</ele><time>2026-04-11T17:32:38.669Z</time></trkpt><trkpt lat="39.0441265" lon="16.5083076"><ele>1044.2</ele><time>2026-04-11T17:32:39.67Z</time></trkpt><trkpt lat="39.0440843" lon="16.5081731"><ele>1042.8</ele><time>2026-04-11T17:32:40.669Z</time></trkpt><trkpt lat="39.0440649" lon="16.5080471"><ele>1041.4</ele><time>2026-04-11T17:32:41.669Z</time></trkpt><trkpt lat="39.0440628" lon="16.5079201"><ele>1040.0</ele><time>2026-04-11T17:32:42.669Z</time></trkpt><trkpt lat="39.0440821" lon="16.5077987"><ele>1039.3333333333335</ele><time>2026-04-11T17:32:43.669Z</time></trkpt><trkpt lat="39.0441079" lon="16.5076886"><ele>1038.6666666666667</ele><time>2026-04-11T17:32:44.669Z</time></trkpt><trkpt lat="39.0441402" lon="16.5076005"><ele>1038.0</ele><time>2026-04-11T17:32:45.67Z</time></trkpt><trkpt lat="39.044194" lon="16.5075236"><ele>1037.3333333333333</ele><time>2026-04-11T17:32:46.669Z</time></trkpt><trkpt lat="39.0442649" lon="16.5074497"><ele>1036.6666666666665</ele><time>2026-04-11T17:32:47.669Z</time></trkpt><trkpt lat="39.044346" lon="16.5073829"><ele>1036.0</ele><time>2026-04-11T17:32:48.669Z</time></trkpt><trkpt lat="39.0444292" lon="16.5073125"><ele>1041.3999999999999</ele><time>2026-04-11T17:32:49.669Z</time></trkpt><trkpt lat="39.0445219" lon="16.5072518"><ele>1046.8</ele><time>2026-04-11T17:32:50.67Z</time></trkpt><trkpt lat="39.0446161" lon="16.5071941"><ele>1052.1999999999998</ele><time>2026-04-11T17:32:51.669Z</time></trkpt><trkpt lat="39.0447156" lon="16.5071489"><ele>1057.6</ele><time>2026-04-11T17:32:52.669Z</time></trkpt><trkpt lat="39.0448133" lon="16.5071474"><ele>1063.0</ele><time>2026-04-11T17:32:53.669Z</time></trkpt><trkpt lat="39.0449125" lon="16.5071734"><ele>1066.6</ele><time>2026-04-11T17:32:54.669Z</time></trkpt><trkpt lat="39.0450109" lon="16.5072153"><ele>1070.1999999999998</ele><time>2026-04-11T17:32:55.67Z</time></trkpt><trkpt lat="39.0451068" lon="16.507248"><ele>1073.8</ele><time>2026-04-11T17:32:56.669Z</time></trkpt><trkpt lat="39.0451767" lon="16.5072615"><ele>1077.3999999999999</ele><time>2026-04-11T17:32:57.669Z</time></trkpt><trkpt lat="39.045256" lon="16.5073202"><ele>1081.0</ele><time>2026-04-11T17:32:59.669Z</time></trkpt><trkpt lat="39.0452071" lon="16.5074378"><ele>1081.0</ele><time>2026-04-11T17:33:01.669Z</time></trkpt><trkpt lat="39.0451403" lon="16.5074912"><ele>1081.0</ele><time>2026-04-11T17:33:02.669Z</time></trkpt><trkpt lat="39.0450695" lon="16.5075527"><ele>1081.0</ele><time>2026-04-11T17:33:03.67Z</time></trkpt><trkpt lat="39.0450278" lon="16.5076279"><ele>1081.0</ele><time>2026-04-11T17:33:04.67Z</time></trkpt><trkpt lat="39.0450524" lon="16.50776"><ele>1081.0</ele><time>2026-04-11T17:33:06.669Z</time></trkpt><trkpt lat="39.045117" lon="16.5077766"><ele>1081.0</ele><time>2026-04-11T17:33:07.669Z</time></trkpt><trkpt lat="39.0452013" lon="16.5077569"><ele>1081.0</ele><time>2026-04-11T17:33:08.67Z</time></trkpt><trkpt lat="39.0452886" lon="16.507741"><ele>1081.0</ele><time>2026-04-11T17:33:09.669Z</time></trkpt><trkpt lat="39.0453804" lon="16.5077371"><ele>1081.0</ele><time>2026-04-11T17:33:10.67Z</time></trkpt><trkpt lat="39.0454789" lon="16.5077332"><ele>1081.0</ele><time>2026-04-11T17:33:11.669Z</time></trkpt><trkpt lat="39.0455747" lon="16.5077298"><ele>1081.0</ele><time>2026-04-11T17:33:12.67Z</time></trkpt><trkpt lat="39.045679" lon="16.5077353"><ele>1081.0</ele><time>2026-04-11T17:33:13.67Z</time></trkpt><trkpt lat="39.0457816" lon="16.5077417"><ele>1081.0</ele><time>2026-04-11T17:33:14.669Z</time></trkpt><trkpt lat="39.0458892" lon="16.5077473"><ele>1081.0</ele><time>2026-04-11T17:33:15.67Z</time></trkpt><trkpt lat="39.0459904" lon="16.5077612"><ele>1081.0</ele><time>2026-04-11T17:33:16.669Z</time></trkpt><trkpt lat="39.0460959" lon="16.5077746"><ele>1081.0</ele><time>2026-04-11T17:33:17.669Z</time></trkpt><trkpt lat="39.0462058" lon="16.5077849"><ele>1083.6</ele><time>2026-04-11T17:33:18.67Z</time></trkpt><trkpt lat="39.0463109" lon="16.5077934"><ele>1086.1999999999998</ele><time>2026-04-11T17:33:19.669Z</time></trkpt><trkpt lat="39.0464136" lon="16.5077997"><ele>1088.8000000000002</ele><time>2026-04-11T17:33:20.67Z</time></trkpt><trkpt lat="39.0465155" lon="16.5078035"><ele>1091.4</ele><time>2026-04-11T17:33:21.67Z</time></trkpt><trkpt lat="39.0466169" lon="16.5078213"><ele>1094.0</ele><time>2026-04-11T17:33:22.669Z</time></trkpt><trkpt lat="39.0467165" lon="16.5078381"><ele>1095.2</ele><time>2026-04-11T17:33:23.669Z</time></trkpt><trkpt lat="39.046819" lon="16.5078593"><ele>1096.4</ele><time>2026-04-11T17:33:24.669Z</time></trkpt><trkpt lat="39.0469194" lon="16.5078771"><ele>1097.6</ele><time>2026-04-11T17:33:25.669Z</time></trkpt><trkpt lat="39.0470112" lon="16.5078985"><ele>1098.8</ele><time>2026-04-11T17:33:26.67Z</time></trkpt><trkpt lat="39.0471019" lon="16.5079142"><ele>1100.0</ele><time>2026-04-11T17:33:27.67Z</time></trkpt><trkpt lat="39.0471962" lon="16.5079105"><ele>1102.0</ele><time>2026-04-11T17:33:28.67Z</time></trkpt><trkpt lat="39.0472942" lon="16.5078933"><ele>1104.0</ele><time>2026-04-11T17:33:29.669Z</time></trkpt><trkpt lat="39.0473966" lon="16.5078673"><ele>1106.0</ele><time>2026-04-11T17:33:30.67Z</time></trkpt><trkpt lat="39.0474925" lon="16.5078255"><ele>1108.0</ele><time>2026-04-11T17:33:31.67Z</time></trkpt><trkpt lat="39.0475766" lon="16.5077595"><ele>1110.0</ele><time>2026-04-11T17:33:32.669Z</time></trkpt><trkpt lat="39.0476529" lon="16.5076666"><ele>1113.2</ele><time>2026-04-11T17:33:33.669Z</time></trkpt><trkpt lat="39.0477134" lon="16.5075594"><ele>1116.4</ele><time>2026-04-11T17:33:34.669Z</time></trkpt><trkpt lat="39.0477608" lon="16.5074514"><ele>1119.6</ele><time>2026-04-11T17:33:35.669Z</time></trkpt><trkpt lat="39.0478105" lon="16.5073391"><ele>1122.8</ele><time>2026-04-11T17:33:36.67Z</time></trkpt><trkpt lat="39.0478634" lon="16.5072149"><ele>1126.0</ele><time>2026-04-11T17:33:37.669Z</time></trkpt><trkpt lat="39.0479148" lon="16.5070857"><ele>1129.0</ele><time>2026-04-11T17:33:38.669Z</time></trkpt><trkpt lat="39.0479718" lon="16.5069589"><ele>1132.0</ele><time>2026-04-11T17:33:39.669Z</time></trkpt><trkpt lat="39.0480361" lon="16.5068453"><ele>1135.0</ele><time>2026-04-11T17:33:40.67Z</time></trkpt><trkpt lat="39.048089" lon="16.5067318"><ele>1138.0</ele><time>2026-04-11T17:33:41.669Z</time></trkpt><trkpt lat="39.0481482" lon="16.5066213"><ele>1141.0</ele><time>2026-04-11T17:33:42.67Z</time></trkpt><trkpt lat="39.0482011" lon="16.5065192"><ele>1141.0</ele><time>2026-04-11T17:33:43.669Z</time></trkpt><trkpt lat="39.0482615" lon="16.5064105"><ele>1141.0</ele><time>2026-04-11T17:33:44.67Z</time></trkpt><trkpt lat="39.0483323" lon="16.5063229"><ele>1141.0</ele><time>2026-04-11T17:33:45.67Z</time></trkpt><trkpt lat="39.0484117" lon="16.5062504"><ele>1141.0</ele><time>2026-04-11T17:33:46.67Z</time></trkpt><trkpt lat="39.0484912" lon="16.5061786"><ele>1141.0</ele><time>2026-04-11T17:33:47.67Z</time></trkpt><trkpt lat="39.0485639" lon="16.5061041"><ele>1143.3999999999999</ele><time>2026-04-11T17:33:48.669Z</time></trkpt><trkpt lat="39.0486259" lon="16.5060212"><ele>1145.8</ele><time>2026-04-11T17:33:49.669Z</time></trkpt><trkpt lat="39.0486928" lon="16.5059231"><ele>1148.1999999999998</ele><time>2026-04-11T17:33:50.67Z</time></trkpt><trkpt lat="39.0487502" lon="16.5058158"><ele>1150.6</ele><time>2026-04-11T17:33:51.67Z</time></trkpt><trkpt lat="39.0487945" lon="16.5057108"><ele>1153.0</ele><time>2026-04-11T17:33:52.669Z</time></trkpt><trkpt lat="39.048843" lon="16.5056102"><ele>1153.0</ele><time>2026-04-11T17:33:53.669Z</time></trkpt><trkpt lat="39.0489005" lon="16.5055257"><ele>1153.0</ele><time>2026-04-11T17:33:54.67Z</time></trkpt><trkpt lat="39.0489589" lon="16.5054423"><ele>1153.0</ele><time>2026-04-11T17:33:55.67Z</time></trkpt><trkpt lat="39.0490311" lon="16.5053674"><ele>1153.0</ele><time>2026-04-11T17:33:56.669Z</time></trkpt><trkpt lat="39.0491008" lon="16.5053275"><ele>1153.0</ele><time>2026-04-11T17:33:57.669Z</time></trkpt><trkpt lat="39.049176" lon="16.5053022"><ele>1153.0</ele><time>2026-04-11T17:33:58.669Z</time></trkpt><trkpt lat="39.0492614" lon="16.5053052"><ele>1154.4</ele><time>2026-04-11T17:33:59.669Z</time></trkpt><trkpt lat="39.049348" lon="16.5053333"><ele>1155.8</ele><time>2026-04-11T17:34:00.669Z</time></trkpt><trkpt lat="39.0494469" lon="16.5053702"><ele>1157.2</ele><time>2026-04-11T17:34:01.669Z</time></trkpt><trkpt lat="39.0495493" lon="16.5054123"><ele>1158.6</ele><time>2026-04-11T17:34:02.669Z</time></trkpt><trkpt lat="39.0496477" lon="16.5054695"><ele>1160.0</ele><time>2026-04-11T17:34:03.669Z</time></trkpt><trkpt lat="39.0497564" lon="16.5055308"><ele>1158.25</ele><time>2026-04-11T17:34:04.669Z</time></trkpt><trkpt lat="39.0498669" lon="16.5055877"><ele>1156.5</ele><time>2026-04-11T17:34:05.669Z</time></trkpt><trkpt lat="39.0499904" lon="16.5056546"><ele>1154.75</ele><time>2026-04-11T17:34:06.669Z</time></trkpt><trkpt lat="39.0500992" lon="16.5057113"><ele>1153.0</ele><time>2026-04-11T17:34:07.669Z</time></trkpt><trkpt lat="39.0501968" lon="16.5057572"><ele>1153.0</ele><time>2026-04-11T17:34:08.669Z</time></trkpt><trkpt lat="39.0502845" lon="16.5058043"><ele>1153.0</ele><time>2026-04-11T17:34:09.669Z</time></trkpt><trkpt lat="39.0503579" lon="16.5058193"><ele>1153.0</ele><time>2026-04-11T17:34:10.67Z</time></trkpt><trkpt lat="39.0504323" lon="16.5058156"><ele>1153.0</ele><time>2026-04-11T17:34:11.67Z</time></trkpt><trkpt lat="39.0505111" lon="16.5057789"><ele>1153.0</ele><time>2026-04-11T17:34:12.67Z</time></trkpt><trkpt lat="39.0505837" lon="16.5057185"><ele>1153.0</ele><time>2026-04-11T17:34:13.669Z</time></trkpt><trkpt lat="39.050652" lon="16.5056184"><ele>1153.0</ele><time>2026-04-11T17:34:14.669Z</time></trkpt><trkpt lat="39.0507106" lon="16.5055032"><ele>1153.0</ele><time>2026-04-11T17:34:15.669Z</time></trkpt><trkpt lat="39.0507569" lon="16.5053761"><ele>1153.0</ele><time>2026-04-11T17:34:16.669Z</time></trkpt><trkpt lat="39.0507878" lon="16.5052285"><ele>1153.0</ele><time>2026-04-11T17:34:17.669Z</time></trkpt><trkpt lat="39.0508059" lon="16.5050802"><ele>1157.0</ele><time>2026-04-11T17:34:18.67Z</time></trkpt><trkpt lat="39.050815" lon="16.5049404"><ele>1161.0</ele><time>2026-04-11T17:34:19.669Z</time></trkpt><trkpt lat="39.0508295" lon="16.5048094"><ele>1165.0</ele><time>2026-04-11T17:34:20.669Z</time></trkpt><trkpt lat="39.0508475" lon="16.5046893"><ele>1169.0</ele><time>2026-04-11T17:34:21.669Z</time></trkpt><trkpt lat="39.0508609" lon="16.5045711"><ele>1173.0</ele><time>2026-04-11T17:34:22.669Z</time></trkpt><trkpt lat="39.0508751" lon="16.5044575"><ele>1176.8</ele><time>2026-04-11T17:34:23.669Z</time></trkpt><trkpt lat="39.050897" lon="16.5043401"><ele>1180.6</ele><time>2026-04-11T17:34:24.67Z</time></trkpt><trkpt lat="39.0509347" lon="16.5042308"><ele>1184.4</ele><time>2026-04-11T17:34:25.669Z</time></trkpt><trkpt lat="39.0509862" lon="16.5041278"><ele>1188.2</ele><time>2026-04-11T17:34:26.669Z</time></trkpt><trkpt lat="39.0510456" lon="16.5040403"><ele>1192.0</ele><time>2026-04-11T17:34:27.669Z</time></trkpt><trkpt lat="39.0511068" lon="16.5039635"><ele>1192.0</ele><time>2026-04-11T17:34:28.669Z</time></trkpt><trkpt lat="39.0511893" lon="16.503921"><ele>1192.0</ele><time>2026-04-11T17:34:29.669Z</time></trkpt><trkpt lat="39.0512854" lon="16.5039002"><ele>1192.0</ele><time>2026-04-11T17:34:30.669Z</time></trkpt><trkpt lat="39.0513894" lon="16.503897"><ele>1192.0</ele><time>2026-04-11T17:34:31.67Z</time></trkpt><trkpt lat="39.0514961" lon="16.5039003"><ele>1192.0</ele><time>2026-04-11T17:34:32.67Z</time></trkpt><trkpt lat="39.0516053" lon="16.5039141"><ele>1189.2</ele><time>2026-04-11T17:34:33.67Z</time></trkpt><trkpt lat="39.0517154" lon="16.5039282"><ele>1186.4</ele><time>2026-04-11T17:34:34.67Z</time></trkpt><trkpt lat="39.0518174" lon="16.5039435"><ele>1183.6</ele><time>2026-04-11T17:34:35.669Z</time></trkpt><trkpt lat="39.0518995" lon="16.5039542"><ele>1180.8</ele><time>2026-04-11T17:34:36.669Z</time></trkpt><trkpt lat="39.0519828" lon="16.5039515"><ele>1178.0</ele><time>2026-04-11T17:34:37.67Z</time></trkpt><trkpt lat="39.0520575" lon="16.5039384"><ele>1178.0</ele><time>2026-04-11T17:34:38.67Z</time></trkpt><trkpt lat="39.0521267" lon="16.5038997"><ele>1178.0</ele><time>2026-04-11T17:34:39.669Z</time></trkpt><trkpt lat="39.0521843" lon="16.5038409"><ele>1178.0</ele><time>2026-04-11T17:34:40.669Z</time></trkpt><trkpt lat="39.0522401" lon="16.5037669"><ele>1178.0</ele><time>2026-04-11T17:34:41.669Z</time></trkpt><trkpt lat="39.0522937" lon="16.503682"><ele>1178.0</ele><time>2026-04-11T17:34:42.669Z</time></trkpt><trkpt lat="39.0523428" lon="16.5035977"><ele>1178.0</ele><time>2026-04-11T17:34:43.669Z</time></trkpt><trkpt lat="39.0523893" lon="16.5035146"><ele>1179.857142857143</ele><time>2026-04-11T17:34:44.67Z</time></trkpt><trkpt lat="39.0524295" lon="16.5034341"><ele>1181.7142857142856</ele><time>2026-04-11T17:34:45.669Z</time></trkpt><trkpt lat="39.0524578" lon="16.5033454"><ele>1183.5714285714284</ele><time>2026-04-11T17:34:46.67Z</time></trkpt><trkpt lat="39.0524896" lon="16.5032536"><ele>1185.4285714285713</ele><time>2026-04-11T17:34:47.67Z</time></trkpt><trkpt lat="39.0525161" lon="16.5031726"><ele>1187.2857142857142</ele><time>2026-04-11T17:34:48.669Z</time></trkpt><trkpt lat="39.0525529" lon="16.5030978"><ele>1189.142857142857</ele><time>2026-04-11T17:34:49.669Z</time></trkpt><trkpt lat="39.0525962" lon="16.5030329"><ele>1191.0</ele><time>2026-04-11T17:34:50.669Z</time></trkpt><trkpt lat="39.0526524" lon="16.5029638"><ele>1193.8333333333333</ele><time>2026-04-11T17:34:51.669Z</time></trkpt><trkpt lat="39.0527115" lon="16.5028976"><ele>1196.6666666666667</ele><time>2026-04-11T17:34:52.669Z</time></trkpt><trkpt lat="39.0527654" lon="16.5028198"><ele>1199.5</ele><time>2026-04-11T17:34:53.67Z</time></trkpt><trkpt lat="39.052811" lon="16.5027317"><ele>1202.3333333333335</ele><time>2026-04-11T17:34:54.67Z</time></trkpt><trkpt lat="39.0528638" lon="16.5026317"><ele>1205.1666666666667</ele><time>2026-04-11T17:34:55.669Z</time></trkpt><trkpt lat="39.0529134" lon="16.5025356"><ele>1208.0</ele><time>2026-04-11T17:34:56.669Z</time></trkpt><trkpt lat="39.0529535" lon="16.5024315"><ele>1208.0</ele><time>2026-04-11T17:34:57.67Z</time></trkpt><trkpt lat="39.0529913" lon="16.5023288"><ele>1208.0</ele><time>2026-04-11T17:34:58.669Z</time></trkpt><trkpt lat="39.0530346" lon="16.502228"><ele>1208.0</ele><time>2026-04-11T17:34:59.669Z</time></trkpt><trkpt lat="39.0530781" lon="16.5021394"><ele>1208.0</ele><time>2026-04-11T17:35:00.669Z</time></trkpt><trkpt lat="39.05312" lon="16.5020636"><ele>1208.0</ele><time>2026-04-11T17:35:01.67Z</time></trkpt><trkpt lat="39.0531632" lon="16.5019989"><ele>1208.0</ele><time>2026-04-11T17:35:02.669Z</time></trkpt><trkpt lat="39.0532545" lon="16.5019049"><ele>1204.8</ele><time>2026-04-11T17:35:04.67Z</time></trkpt><trkpt lat="39.053314" lon="16.5018732"><ele>1201.6</ele><time>2026-04-11T17:35:05.67Z</time></trkpt><trkpt lat="39.0533921" lon="16.501863"><ele>1198.4</ele><time>2026-04-11T17:35:06.669Z</time></trkpt><trkpt lat="39.053481" lon="16.501879"><ele>1195.2</ele><time>2026-04-11T17:35:07.669Z</time></trkpt><trkpt lat="39.0535877" lon="16.5019332"><ele>1192.0</ele><time>2026-04-11T17:35:08.67Z</time></trkpt><trkpt lat="39.0536983" lon="16.5020004"><ele>1190.75</ele><time>2026-04-11T17:35:09.669Z</time></trkpt><trkpt lat="39.0538074" lon="16.5020879"><ele>1189.5</ele><time>2026-04-11T17:35:10.669Z</time></trkpt><trkpt lat="39.0539133" lon="16.502185"><ele>1188.25</ele><time>2026-04-11T17:35:11.669Z</time></trkpt><trkpt lat="39.0540186" lon="16.5022931"><ele>1187.0</ele><time>2026-04-11T17:35:12.67Z</time></trkpt><trkpt lat="39.0541189" lon="16.5024151"><ele>1190.5</ele><time>2026-04-11T17:35:13.67Z</time></trkpt><trkpt lat="39.0542163" lon="16.5025409"><ele>1194.0</ele><time>2026-04-11T17:35:14.669Z</time></trkpt><trkpt lat="39.0543064" lon="16.5026569"><ele>1197.5</ele><time>2026-04-11T17:35:15.669Z</time></trkpt><trkpt lat="39.0543958" lon="16.5027649"><ele>1201.0</ele><time>2026-04-11T17:35:16.67Z</time></trkpt><trkpt lat="39.054485" lon="16.5028715"><ele>1200.5</ele><time>2026-04-11T17:35:17.67Z</time></trkpt><trkpt lat="39.0545804" lon="16.5029662"><ele>1200.0</ele><time>2026-04-11T17:35:18.669Z</time></trkpt><trkpt lat="39.0546769" lon="16.5030612"><ele>1199.5</ele><time>2026-04-11T17:35:19.67Z</time></trkpt><trkpt lat="39.0547706" lon="16.5031655"><ele>1199.0</ele><time>2026-04-11T17:35:20.67Z</time></trkpt><trkpt lat="39.0548504" lon="16.503271"><ele>1199.0</ele><time>2026-04-11T17:35:21.669Z</time></trkpt><trkpt lat="39.0549396" lon="16.5033622"><ele>1199.0</ele><time>2026-04-11T17:35:22.67Z</time></trkpt><trkpt lat="39.055037" lon="16.5034331"><ele>1199.0</ele><time>2026-04-11T17:35:23.67Z</time></trkpt><trkpt lat="39.0551476" lon="16.5034985"><ele>1199.0</ele><time>2026-04-11T17:35:24.67Z</time></trkpt><trkpt lat="39.0552693" lon="16.5035536"><ele>1197.0</ele><time>2026-04-11T17:35:25.669Z</time></trkpt><trkpt lat="39.0553923" lon="16.5036079"><ele>1195.0</ele><time>2026-04-11T17:35:26.669Z</time></trkpt><trkpt lat="39.0555268" lon="16.5036626"><ele>1193.0</ele><time>2026-04-11T17:35:27.669Z</time></trkpt><trkpt lat="39.0556528" lon="16.5037179"><ele>1191.0</ele><time>2026-04-11T17:35:28.67Z</time></trkpt><trkpt lat="39.0557637" lon="16.5037826"><ele>1193.5</ele><time>2026-04-11T17:35:29.67Z</time></trkpt><trkpt lat="39.0558662" lon="16.5038686"><ele>1196.0</ele><time>2026-04-11T17:35:30.669Z</time></trkpt><trkpt lat="39.0559492" lon="16.5039753"><ele>1198.5</ele><time>2026-04-11T17:35:31.669Z</time></trkpt><trkpt lat="39.0560208" lon="16.5040898"><ele>1201.0</ele><time>2026-04-11T17:35:32.669Z</time></trkpt><trkpt lat="39.056078" lon="16.5042224"><ele>1201.0</ele><time>2026-04-11T17:35:33.669Z</time></trkpt><trkpt lat="39.0561234" lon="16.5043633"><ele>1201.0</ele><time>2026-04-11T17:35:34.669Z</time></trkpt><trkpt lat="39.0561533" lon="16.5044942"><ele>1201.0</ele><time>2026-04-11T17:35:35.67Z</time></trkpt><trkpt lat="39.0561808" lon="16.5046324"><ele>1201.0</ele><time>2026-04-11T17:35:36.669Z</time></trkpt><trkpt lat="39.0562172" lon="16.5047797"><ele>1198.0</ele><time>2026-04-11T17:35:37.67Z</time></trkpt><trkpt lat="39.0562753" lon="16.5049322"><ele>1195.0</ele><time>2026-04-11T17:35:38.669Z</time></trkpt><trkpt lat="39.056337" lon="16.5050578"><ele>1192.0</ele><time>2026-04-11T17:35:39.669Z</time></trkpt><trkpt lat="39.0564021" lon="16.5051629"><ele>1189.0</ele><time>2026-04-11T17:35:40.669Z</time></trkpt><trkpt lat="39.0564662" lon="16.5052497"><ele>1186.0</ele><time>2026-04-11T17:35:41.669Z</time></trkpt><trkpt lat="39.0565283" lon="16.5053215"><ele>1186.0</ele><time>2026-04-11T17:35:42.669Z</time></trkpt><trkpt lat="39.0566" lon="16.5053768"><ele>1186.0</ele><time>2026-04-11T17:35:43.669Z</time></trkpt><trkpt lat="39.0566849" lon="16.5054153"><ele>1186.0</ele><time>2026-04-11T17:35:44.669Z</time></trkpt><trkpt lat="39.0567845" lon="16.5054345"><ele>1186.0</ele><time>2026-04-11T17:35:45.669Z</time></trkpt><trkpt lat="39.0568978" lon="16.5054484"><ele>1186.0</ele><time>2026-04-11T17:35:46.669Z</time></trkpt><trkpt lat="39.0570179" lon="16.5054489"><ele>1188.6666666666665</ele><time>2026-04-11T17:35:47.669Z</time></trkpt><trkpt lat="39.0571339" lon="16.5054464"><ele>1191.3333333333333</ele><time>2026-04-11T17:35:48.669Z</time></trkpt><trkpt lat="39.0572343" lon="16.5054476"><ele>1194.0</ele><time>2026-04-11T17:35:49.67Z</time></trkpt><trkpt lat="39.0573168" lon="16.5054436"><ele>1196.6666666666667</ele><time>2026-04-11T17:35:50.67Z</time></trkpt><trkpt lat="39.0573899" lon="16.5054374"><ele>1199.3333333333335</ele><time>2026-04-11T17:35:51.67Z</time></trkpt><trkpt lat="39.0574622" lon="16.5054265"><ele>1202.0</ele><time>2026-04-11T17:35:52.669Z</time></trkpt><trkpt lat="39.0575307" lon="16.505417"><ele>1202.8333333333335</ele><time>2026-04-11T17:35:53.669Z</time></trkpt><trkpt lat="39.0576085" lon="16.5053968"><ele>1203.6666666666667</ele><time>2026-04-11T17:35:54.669Z</time></trkpt><trkpt lat="39.0576834" lon="16.5053737"><ele>1204.5</ele><time>2026-04-11T17:35:55.67Z</time></trkpt><trkpt lat="39.057772" lon="16.5053428"><ele>1205.3333333333333</ele><time>2026-04-11T17:35:56.669Z</time></trkpt><trkpt lat="39.0578656" lon="16.5053104"><ele>1206.1666666666665</ele><time>2026-04-11T17:35:57.669Z</time></trkpt><trkpt lat="39.0579575" lon="16.5052664"><ele>1207.0</ele><time>2026-04-11T17:35:58.669Z</time></trkpt><trkpt lat="39.0580415" lon="16.505217"><ele>1207.0</ele><time>2026-04-11T17:35:59.669Z</time></trkpt><trkpt lat="39.0581247" lon="16.5051738"><ele>1207.0</ele><time>2026-04-11T17:36:00.67Z</time></trkpt><trkpt lat="39.0582029" lon="16.5051357"><ele>1207.0</ele><time>2026-04-11T17:36:01.669Z</time></trkpt><trkpt lat="39.0582814" lon="16.5051001"><ele>1207.0</ele><time>2026-04-11T17:36:02.669Z</time></trkpt><trkpt lat="39.0583609" lon="16.5050634"><ele>1207.0</ele><time>2026-04-11T17:36:03.67Z</time></trkpt><trkpt lat="39.058436" lon="16.5050216"><ele>1207.0</ele><time>2026-04-11T17:36:04.669Z</time></trkpt><trkpt lat="39.0585132" lon="16.5049809"><ele>1205.1666666666665</ele><time>2026-04-11T17:36:05.669Z</time></trkpt><trkpt lat="39.0586027" lon="16.5049501"><ele>1203.3333333333333</ele><time>2026-04-11T17:36:06.67Z</time></trkpt><trkpt lat="39.0586861" lon="16.5049286"><ele>1201.5</ele><time>2026-04-11T17:36:07.67Z</time></trkpt><trkpt lat="39.0587713" lon="16.5049181"><ele>1199.6666666666667</ele><time>2026-04-11T17:36:08.669Z</time></trkpt><trkpt lat="39.0588566" lon="16.5049098"><ele>1197.8333333333335</ele><time>2026-04-11T17:36:09.669Z</time></trkpt><trkpt lat="39.0589353" lon="16.5048981"><ele>1196.0</ele><time>2026-04-11T17:36:10.669Z</time></trkpt><trkpt lat="39.0590118" lon="16.504875"><ele>1196.0</ele><time>2026-04-11T17:36:11.669Z</time></trkpt><trkpt lat="39.0590779" lon="16.5048489"><ele>1196.0</ele><time>2026-04-11T17:36:12.669Z</time></trkpt><trkpt lat="39.0591277" lon="16.5047964"><ele>1196.0</ele><time>2026-04-11T17:36:13.67Z</time></trkpt><trkpt lat="39.0591758" lon="16.5046435"><ele>1196.0</ele><time>2026-04-11T17:36:15.67Z</time></trkpt><trkpt lat="39.0591894" lon="16.5045447"><ele>1196.0</ele><time>2026-04-11T17:36:16.67Z</time></trkpt><trkpt lat="39.0591974" lon="16.50443"><ele>1196.0</ele><time>2026-04-11T17:36:17.67Z</time></trkpt><trkpt lat="39.0592115" lon="16.5043097"><ele>1191.6666666666667</ele><time>2026-04-11T17:36:18.669Z</time></trkpt><trkpt lat="39.0592314" lon="16.5041999"><ele>1187.3333333333335</ele><time>2026-04-11T17:36:19.67Z</time></trkpt><trkpt lat="39.0592557" lon="16.5041055"><ele>1183.0</ele><time>2026-04-11T17:36:20.669Z</time></trkpt><trkpt lat="39.0592959" lon="16.5040147"><ele>1178.6666666666667</ele><time>2026-04-11T17:36:21.67Z</time></trkpt><trkpt lat="39.0593511" lon="16.5039441"><ele>1174.3333333333333</ele><time>2026-04-11T17:36:22.669Z</time></trkpt><trkpt lat="39.0594098" lon="16.5038973"><ele>1170.0</ele><time>2026-04-11T17:36:23.669Z</time></trkpt><trkpt lat="39.0594759" lon="16.5038829"><ele>1170.0</ele><time>2026-04-11T17:36:24.67Z</time></trkpt><trkpt lat="39.0595443" lon="16.5038964"><ele>1170.0</ele><time>2026-04-11T17:36:25.67Z</time></trkpt><trkpt lat="39.0596095" lon="16.5039487"><ele>1170.0</ele><time>2026-04-11T17:36:26.67Z</time></trkpt><trkpt lat="39.0596609" lon="16.5040274"><ele>1170.0</ele><time>2026-04-11T17:36:27.669Z</time></trkpt><trkpt lat="39.0597005" lon="16.5041184"><ele>1170.0</ele><time>2026-04-11T17:36:28.669Z</time></trkpt><trkpt lat="39.0597525" lon="16.5041996"><ele>1170.0</ele><time>2026-04-11T17:36:29.669Z</time></trkpt><trkpt lat="39.0598271" lon="16.5042696"><ele>1170.0</ele><time>2026-04-11T17:36:30.669Z</time></trkpt><trkpt lat="39.0599097" lon="16.5043171"><ele>1170.0</ele><time>2026-04-11T17:36:31.67Z</time></trkpt><trkpt lat="39.0599992" lon="16.504347"><ele>1170.0</ele><time>2026-04-11T17:36:32.669Z</time></trkpt><trkpt lat="39.0600927" lon="16.5043536"><ele>1170.0</ele><time>2026-04-11T17:36:33.669Z</time></trkpt><trkpt lat="39.0601881" lon="16.5043506"><ele>1170.0</ele><time>2026-04-11T17:36:34.67Z</time></trkpt><trkpt lat="39.0602742" lon="16.504377"><ele>1169.1666666666667</ele><time>2026-04-11T17:36:35.669Z</time></trkpt><trkpt lat="39.0603557" lon="16.5044301"><ele>1168.3333333333333</ele><time>2026-04-11T17:36:36.669Z</time></trkpt><trkpt lat="39.0604303" lon="16.5044799"><ele>1167.5</ele><time>2026-04-11T17:36:37.669Z</time></trkpt><trkpt lat="39.0604938" lon="16.5045433"><ele>1166.6666666666665</ele><time>2026-04-11T17:36:38.669Z</time></trkpt><trkpt lat="39.0605583" lon="16.5046224"><ele>1165.8333333333333</ele><time>2026-04-11T17:36:39.67Z</time></trkpt><trkpt lat="39.0606176" lon="16.5047102"><ele>1165.0</ele><time>2026-04-11T17:36:40.669Z</time></trkpt><trkpt lat="39.0606691" lon="16.5048139"><ele>1164.0</ele><time>2026-04-11T17:36:41.669Z</time></trkpt><trkpt lat="39.0607095" lon="16.5049207"><ele>1163.0</ele><time>2026-04-11T17:36:42.669Z</time></trkpt><trkpt lat="39.0607425" lon="16.5050374"><ele>1162.0</ele><time>2026-04-11T17:36:43.669Z</time></trkpt><trkpt lat="39.0607651" lon="16.5051574"><ele>1161.0</ele><time>2026-04-11T17:36:44.669Z</time></trkpt><trkpt lat="39.0607915" lon="16.5052758"><ele>1160.0</ele><time>2026-04-11T17:36:45.669Z</time></trkpt><trkpt lat="39.0608229" lon="16.5053904"><ele>1161.8</ele><time>2026-04-11T17:36:46.669Z</time></trkpt><trkpt lat="39.060856" lon="16.5055039"><ele>1163.6</ele><time>2026-04-11T17:36:47.669Z</time></trkpt><trkpt lat="39.0608803" lon="16.5056329"><ele>1165.4</ele><time>2026-04-11T17:36:48.669Z</time></trkpt><trkpt lat="39.0609035" lon="16.5057625"><ele>1167.2</ele><time>2026-04-11T17:36:49.669Z</time></trkpt><trkpt lat="39.0609224" lon="16.5059067"><ele>1169.0</ele><time>2026-04-11T17:36:50.669Z</time></trkpt><trkpt lat="39.0609356" lon="16.5060601"><ele>1169.0</ele><time>2026-04-11T17:36:51.67Z</time></trkpt><trkpt lat="39.0609429" lon="16.506213"><ele>1169.0</ele><time>2026-04-11T17:36:52.669Z</time></trkpt><trkpt lat="39.0609521" lon="16.5063544"><ele>1169.0</ele><time>2026-04-11T17:36:53.67Z</time></trkpt><trkpt lat="39.0609613" lon="16.5064632"><ele>1169.0</ele><time>2026-04-11T17:36:54.67Z</time></trkpt><trkpt lat="39.0609809" lon="16.5065625"><ele>1169.0</ele><time>2026-04-11T17:36:55.669Z</time></trkpt><trkpt lat="39.0610052" lon="16.5066573"><ele>1167.5</ele><time>2026-04-11T17:36:56.669Z</time></trkpt><trkpt lat="39.0610421" lon="16.5067359"><ele>1166.0</ele><time>2026-04-11T17:36:57.67Z</time></trkpt><trkpt lat="39.0610856" lon="16.5067951"><ele>1164.5</ele><time>2026-04-11T17:36:58.669Z</time></trkpt><trkpt lat="39.0611573" lon="16.5068403"><ele>1163.0</ele><time>2026-04-11T17:36:59.669Z</time></trkpt><trkpt lat="39.0612476" lon="16.5068559"><ele>1161.5</ele><time>2026-04-11T17:37:00.669Z</time></trkpt><trkpt lat="39.0613413" lon="16.5068294"><ele>1160.0</ele><time>2026-04-11T17:37:01.67Z</time></trkpt><trkpt lat="39.0614255" lon="16.5067748"><ele>1160.0</ele><time>2026-04-11T17:37:02.669Z</time></trkpt><trkpt lat="39.0614853" lon="16.5066817"><ele>1160.0</ele><time>2026-04-11T17:37:03.67Z</time></trkpt><trkpt lat="39.0615226" lon="16.506582"><ele>1160.0</ele><time>2026-04-11T17:37:04.67Z</time></trkpt><trkpt lat="39.0615425" lon="16.506488"><ele>1160.0</ele><time>2026-04-11T17:37:05.67Z</time></trkpt><trkpt lat="39.0615365" lon="16.5063976"><ele>1160.0</ele><time>2026-04-11T17:37:06.669Z</time></trkpt><trkpt lat="39.0615022" lon="16.5063061"><ele>1160.0</ele><time>2026-04-11T17:37:07.669Z</time></trkpt><trkpt lat="39.0614586" lon="16.5061979"><ele>1161.8</ele><time>2026-04-11T17:37:08.67Z</time></trkpt><trkpt lat="39.0614295" lon="16.5060962"><ele>1163.6</ele><time>2026-04-11T17:37:09.669Z</time></trkpt><trkpt lat="39.0614115" lon="16.5059798"><ele>1165.4</ele><time>2026-04-11T17:37:10.669Z</time></trkpt><trkpt lat="39.0613924" lon="16.5058416"><ele>1167.2</ele><time>2026-04-11T17:37:11.669Z</time></trkpt><trkpt lat="39.0613683" lon="16.505701"><ele>1169.0</ele><time>2026-04-11T17:37:12.669Z</time></trkpt><trkpt lat="39.0613438" lon="16.5055373"><ele>1166.75</ele><time>2026-04-11T17:37:13.669Z</time></trkpt><trkpt lat="39.0613217" lon="16.5053777"><ele>1164.5</ele><time>2026-04-11T17:37:14.669Z</time></trkpt><trkpt lat="39.0613081" lon="16.5052266"><ele>1162.25</ele><time>2026-04-11T17:37:15.669Z</time></trkpt><trkpt lat="39.0612795" lon="16.5050807"><ele>1160.0</ele><time>2026-04-11T17:37:16.669Z</time></trkpt><trkpt lat="39.0612446" lon="16.5049384"><ele>1160.0</ele><time>2026-04-11T17:37:17.669Z</time></trkpt><trkpt lat="39.0612063" lon="16.5048232"><ele>1160.0</ele><time>2026-04-11T17:37:18.67Z</time></trkpt><trkpt lat="39.061182" lon="16.5047252"><ele>1160.0</ele><time>2026-04-11T17:37:19.669Z</time></trkpt><trkpt lat="39.0611919" lon="16.5045899"><ele>1160.0</ele><time>2026-04-11T17:37:21.669Z</time></trkpt><trkpt lat="39.0612673" lon="16.5045573"><ele>1160.0</ele><time>2026-04-11T17:37:23.669Z</time></trkpt><trkpt lat="39.0613615" lon="16.5046409"><ele>1160.0</ele><time>2026-04-11T17:37:25.67Z</time></trkpt><trkpt lat="39.0614106" lon="16.5047072"><ele>1160.0</ele><time>2026-04-11T17:37:26.669Z</time></trkpt><trkpt lat="39.0614612" lon="16.5047859"><ele>1160.0</ele><time>2026-04-11T17:37:27.669Z</time></trkpt><trkpt lat="39.0615057" lon="16.5048727"><ele>1160.0</ele><time>2026-04-11T17:37:28.67Z</time></trkpt><trkpt lat="39.0615573" lon="16.5049616"><ele>1160.0</ele><time>2026-04-11T17:37:29.669Z</time></trkpt><trkpt lat="39.0616203" lon="16.5050491"><ele>1160.0</ele><time>2026-04-11T17:37:30.669Z</time></trkpt><trkpt lat="39.0616891" lon="16.5051172"><ele>1156.6</ele><time>2026-04-11T17:37:31.669Z</time></trkpt><trkpt lat="39.0617708" lon="16.50519"><ele>1153.2</ele><time>2026-04-11T17:37:32.669Z</time></trkpt><trkpt lat="39.0618518" lon="16.5052597"><ele>1149.8</ele><time>2026-04-11T17:37:33.669Z</time></trkpt><trkpt lat="39.0619385" lon="16.5053197"><ele>1146.4</ele><time>2026-04-11T17:37:34.67Z</time></trkpt><trkpt lat="39.0620263" lon="16.5053737"><ele>1143.0</ele><time>2026-04-11T17:37:35.67Z</time></trkpt><trkpt lat="39.0621274" lon="16.5054396"><ele>1143.0</ele><time>2026-04-11T17:37:36.67Z</time></trkpt><trkpt lat="39.0622213" lon="16.5055066"><ele>1143.0</ele><time>2026-04-11T17:37:37.67Z</time></trkpt><trkpt lat="39.0623163" lon="16.5055706"><ele>1143.0</ele><time>2026-04-11T17:37:38.67Z</time></trkpt><trkpt lat="39.0624267" lon="16.505633"><ele>1143.0</ele><time>2026-04-11T17:37:39.669Z</time></trkpt><trkpt lat="39.0625409" lon="16.5056994"><ele>1139.0</ele><time>2026-04-11T17:37:40.67Z</time></trkpt><trkpt lat="39.0626638" lon="16.5057807"><ele>1135.0</ele><time>2026-04-11T17:37:41.67Z</time></trkpt><trkpt lat="39.0627796" lon="16.5058588"><ele>1131.0</ele><time>2026-04-11T17:37:42.669Z</time></trkpt><trkpt lat="39.0628921" lon="16.5059195"><ele>1127.0</ele><time>2026-04-11T17:37:43.67Z</time></trkpt><trkpt lat="39.0630025" lon="16.5059699"><ele>1127.0</ele><time>2026-04-11T17:37:44.67Z</time></trkpt><trkpt lat="39.0631041" lon="16.5059948"><ele>1127.0</ele><time>2026-04-11T17:37:45.669Z</time></trkpt><trkpt lat="39.0631999" lon="16.5060189"><ele>1127.0</ele><time>2026-04-11T17:37:46.669Z</time></trkpt><trkpt lat="39.0633121" lon="16.5060543"><ele>1127.0</ele><time>2026-04-11T17:37:47.669Z</time></trkpt><trkpt lat="39.0634281" lon="16.5060873"><ele>1127.0</ele><time>2026-04-11T17:37:48.669Z</time></trkpt><trkpt lat="39.0635403" lon="16.5061063"><ele>1125.4</ele><time>2026-04-11T17:37:49.669Z</time></trkpt><trkpt lat="39.0636506" lon="16.5061183"><ele>1123.8000000000002</ele><time>2026-04-11T17:37:50.669Z</time></trkpt><trkpt lat="39.0637543" lon="16.5061275"><ele>1122.2</ele><time>2026-04-11T17:37:51.669Z</time></trkpt><trkpt lat="39.0638598" lon="16.5061296"><ele>1120.6000000000001</ele><time>2026-04-11T17:37:52.67Z</time></trkpt><trkpt lat="39.0639743" lon="16.5061141"><ele>1119.0</ele><time>2026-04-11T17:37:53.669Z</time></trkpt><trkpt lat="39.0640921" lon="16.5060866"><ele>1120.0</ele><time>2026-04-11T17:37:54.67Z</time></trkpt><trkpt lat="39.0642082" lon="16.5060516"><ele>1121.0</ele><time>2026-04-11T17:37:55.669Z</time></trkpt><trkpt lat="39.064314" lon="16.5060069"><ele>1122.0</ele><time>2026-04-11T17:37:56.669Z</time></trkpt><trkpt lat="39.0644159" lon="16.505942"><ele>1123.0</ele><time>2026-04-11T17:37:57.669Z</time></trkpt><trkpt lat="39.064516" lon="16.5058546"><ele>1123.0</ele><time>2026-04-11T17:37:58.669Z</time></trkpt><trkpt lat="39.0646078" lon="16.5057604"><ele>1123.0</ele><time>2026-04-11T17:37:59.669Z</time></trkpt><trkpt lat="39.0646906" lon="16.5056726"><ele>1123.0</ele><time>2026-04-11T17:38:00.669Z</time></trkpt><trkpt lat="39.0647699" lon="16.5055788"><ele>1123.0</ele><time>2026-04-11T17:38:01.669Z</time></trkpt><trkpt lat="39.0648512" lon="16.5054812"><ele>1123.0</ele><time>2026-04-11T17:38:02.669Z</time></trkpt><trkpt lat="39.0649362" lon="16.5053918"><ele>1123.8</ele><time>2026-04-11T17:38:03.669Z</time></trkpt><trkpt lat="39.0650243" lon="16.5053155"><ele>1124.6</ele><time>2026-04-11T17:38:04.67Z</time></trkpt><trkpt lat="39.0651214" lon="16.5052597"><ele>1125.4</ele><time>2026-04-11T17:38:05.67Z</time></trkpt><trkpt lat="39.0652173" lon="16.5051936"><ele>1126.2</ele><time>2026-04-11T17:38:06.67Z</time></trkpt><trkpt lat="39.0653157" lon="16.5051324"><ele>1127.0</ele><time>2026-04-11T17:38:07.669Z</time></trkpt><trkpt lat="39.0654192" lon="16.5050611"><ele>1127.0</ele><time>2026-04-11T17:38:08.67Z</time></trkpt><trkpt lat="39.0655212" lon="16.5049858"><ele>1127.0</ele><time>2026-04-11T17:38:09.669Z</time></trkpt><trkpt lat="39.0656157" lon="16.5049198"><ele>1127.0</ele><time>2026-04-11T17:38:10.669Z</time></trkpt><trkpt lat="39.0657115" lon="16.5048624"><ele>1127.0</ele><time>2026-04-11T17:38:11.669Z</time></trkpt><trkpt lat="39.0658072" lon="16.5048164"><ele>1127.0</ele><time>2026-04-11T17:38:12.669Z</time></trkpt><trkpt lat="39.0659152" lon="16.5047762"><ele>1129.4</ele><time>2026-04-11T17:38:13.669Z</time></trkpt><trkpt lat="39.0660246" lon="16.5047383"><ele>1131.8000000000002</ele><time>2026-04-11T17:38:14.67Z</time></trkpt><trkpt lat="39.0661247" lon="16.5047025"><ele>1134.2</ele><time>2026-04-11T17:38:15.669Z</time></trkpt><trkpt lat="39.0662204" lon="16.5046765"><ele>1136.6000000000001</ele><time>2026-04-11T17:38:16.669Z</time></trkpt><trkpt lat="39.0662999" lon="16.5046641"><ele>1139.0</ele><time>2026-04-11T17:38:17.67Z</time></trkpt><trkpt lat="39.0663723" lon="16.5046662"><ele>1139.0</ele><time>2026-04-11T17:38:18.67Z</time></trkpt><trkpt lat="39.0664407" lon="16.504667"><ele>1139.0</ele><time>2026-04-11T17:38:19.669Z</time></trkpt><trkpt lat="39.0665171" lon="16.5046956"><ele>1139.0</ele><time>2026-04-11T17:38:20.669Z</time></trkpt><trkpt lat="39.0666055" lon="16.5047489"><ele>1139.0</ele><time>2026-04-11T17:38:21.67Z</time></trkpt><trkpt lat="39.0667027" lon="16.5048102"><ele>1139.0</ele><time>2026-04-11T17:38:22.669Z</time></trkpt><trkpt lat="39.0667952" lon="16.5048702"><ele>1139.4</ele><time>2026-04-11T17:38:23.67Z</time></trkpt><trkpt lat="39.0668702" lon="16.5049302"><ele>1139.8000000000002</ele><time>2026-04-11T17:38:24.669Z</time></trkpt><trkpt lat="39.0669389" lon="16.5049723"><ele>1140.1999999999998</ele><time>2026-04-11T17:38:25.67Z</time></trkpt><trkpt lat="39.0670052" lon="16.5050158"><ele>1140.6</ele><time>2026-04-11T17:38:26.669Z</time></trkpt><trkpt lat="39.0671213" lon="16.5050275"><ele>1141.0</ele><time>2026-04-11T17:38:28.669Z</time></trkpt><trkpt lat="39.0672244" lon="16.5049537"><ele>1141.0</ele><time>2026-04-11T17:38:30.669Z</time></trkpt><trkpt lat="39.0673043" lon="16.5048266"><ele>1141.0</ele><time>2026-04-11T17:38:32.67Z</time></trkpt><trkpt lat="39.0673466" lon="16.5047395"><ele>1141.0</ele><time>2026-04-11T17:38:33.67Z</time></trkpt><trkpt lat="39.0673884" lon="16.5046403"><ele>1141.0</ele><time>2026-04-11T17:38:34.67Z</time></trkpt><trkpt lat="39.0674403" lon="16.5045376"><ele>1141.0</ele><time>2026-04-11T17:38:35.669Z</time></trkpt><trkpt lat="39.0675028" lon="16.5044493"><ele>1139.0</ele><time>2026-04-11T17:38:36.669Z</time></trkpt><trkpt lat="39.067568" lon="16.5043714"><ele>1137.0</ele><time>2026-04-11T17:38:37.67Z</time></trkpt><trkpt lat="39.0676322" lon="16.504301"><ele>1135.0</ele><time>2026-04-11T17:38:38.669Z</time></trkpt><trkpt lat="39.0676982" lon="16.5042435"><ele>1133.0</ele><time>2026-04-11T17:38:39.67Z</time></trkpt><trkpt lat="39.0677728" lon="16.5041964"><ele>1131.0</ele><time>2026-04-11T17:38:40.67Z</time></trkpt><trkpt lat="39.0678573" lon="16.5041451"><ele>1129.0</ele><time>2026-04-11T17:38:41.67Z</time></trkpt><trkpt lat="39.0679535" lon="16.5041059"><ele>1129.0</ele><time>2026-04-11T17:38:42.669Z</time></trkpt><trkpt lat="39.0680528" lon="16.5040849"><ele>1129.0</ele><time>2026-04-11T17:38:43.669Z</time></trkpt><trkpt lat="39.0681614" lon="16.5040686"><ele>1129.0</ele><time>2026-04-11T17:38:44.669Z</time></trkpt><trkpt lat="39.0682694" lon="16.5040603"><ele>1129.0</ele><time>2026-04-11T17:38:45.67Z</time></trkpt><trkpt lat="39.0683801" lon="16.5040548"><ele>1129.0</ele><time>2026-04-11T17:38:46.67Z</time></trkpt><trkpt lat="39.0684843" lon="16.5040479"><ele>1130.8</ele><time>2026-04-11T17:38:47.669Z</time></trkpt><trkpt lat="39.0685827" lon="16.5040388"><ele>1132.6000000000001</ele><time>2026-04-11T17:38:48.67Z</time></trkpt><trkpt lat="39.0686708" lon="16.5040218"><ele>1134.4</ele><time>2026-04-11T17:38:49.67Z</time></trkpt><trkpt lat="39.0687615" lon="16.5039869"><ele>1136.2</ele><time>2026-04-11T17:38:50.67Z</time></trkpt><trkpt lat="39.0688453" lon="16.5039312"><ele>1138.0</ele><time>2026-04-11T17:38:51.669Z</time></trkpt><trkpt lat="39.0689292" lon="16.5038654"><ele>1138.0</ele><time>2026-04-11T17:38:52.669Z</time></trkpt><trkpt lat="39.0690135" lon="16.5037915"><ele>1138.0</ele><time>2026-04-11T17:38:53.67Z</time></trkpt><trkpt lat="39.069094" lon="16.5037256"><ele>1138.0</ele><time>2026-04-11T17:38:54.669Z</time></trkpt><trkpt lat="39.0691657" lon="16.5036575"><ele>1138.0</ele><time>2026-04-11T17:38:55.669Z</time></trkpt><trkpt lat="39.0692355" lon="16.5035839"><ele>1138.0</ele><time>2026-04-11T17:38:56.67Z</time></trkpt><trkpt lat="39.0692994" lon="16.5035063"><ele>1137.0</ele><time>2026-04-11T17:38:57.669Z</time></trkpt><trkpt lat="39.0693536" lon="16.503426"><ele>1136.0</ele><time>2026-04-11T17:38:58.669Z</time></trkpt><trkpt lat="39.0694139" lon="16.5033395"><ele>1135.0</ele><time>2026-04-11T17:38:59.669Z</time></trkpt><trkpt lat="39.0694734" lon="16.5032721"><ele>1134.0</ele><time>2026-04-11T17:39:00.67Z</time></trkpt><trkpt lat="39.0695448" lon="16.5032185"><ele>1133.0</ele><time>2026-04-11T17:39:01.67Z</time></trkpt><trkpt lat="39.0696227" lon="16.503174"><ele>1132.0</ele><time>2026-04-11T17:39:02.67Z</time></trkpt><trkpt lat="39.0697123" lon="16.5031259"><ele>1132.0</ele><time>2026-04-11T17:39:03.67Z</time></trkpt><trkpt lat="39.0697951" lon="16.5030774"><ele>1132.0</ele><time>2026-04-11T17:39:04.669Z</time></trkpt><trkpt lat="39.0698849" lon="16.5030184"><ele>1132.0</ele><time>2026-04-11T17:39:05.67Z</time></trkpt><trkpt lat="39.0699772" lon="16.5029673"><ele>1132.0</ele><time>2026-04-11T17:39:06.67Z</time></trkpt><trkpt lat="39.070068" lon="16.5029199"><ele>1132.0</ele><time>2026-04-11T17:39:07.669Z</time></trkpt><trkpt lat="39.0701647" lon="16.5028902"><ele>1130.0</ele><time>2026-04-11T17:39:08.669Z</time></trkpt><trkpt lat="39.0702777" lon="16.5028826"><ele>1128.0</ele><time>2026-04-11T17:39:09.669Z</time></trkpt><trkpt lat="39.0704032" lon="16.5028775"><ele>1126.0</ele><time>2026-04-11T17:39:10.67Z</time></trkpt><trkpt lat="39.0705299" lon="16.5028708"><ele>1124.0</ele><time>2026-04-11T17:39:11.669Z</time></trkpt><trkpt lat="39.0706494" lon="16.5028655"><ele>1124.0</ele><time>2026-04-11T17:39:12.669Z</time></trkpt><trkpt lat="39.0707689" lon="16.5028586"><ele>1124.0</ele><time>2026-04-11T17:39:13.67Z</time></trkpt><trkpt lat="39.0708765" lon="16.5028442"><ele>1124.0</ele><time>2026-04-11T17:39:14.669Z</time></trkpt><trkpt lat="39.0709789" lon="16.5028379"><ele>1124.0</ele><time>2026-04-11T17:39:15.669Z</time></trkpt><trkpt lat="39.071067" lon="16.5028339"><ele>1124.0</ele><time>2026-04-11T17:39:16.669Z</time></trkpt><trkpt lat="39.0711603" lon="16.5028161"><ele>1123.1666666666667</ele><time>2026-04-11T17:39:17.67Z</time></trkpt><trkpt lat="39.0712479" lon="16.5028035"><ele>1122.3333333333335</ele><time>2026-04-11T17:39:18.669Z</time></trkpt><trkpt lat="39.0713383" lon="16.5027884"><ele>1121.5</ele><time>2026-04-11T17:39:19.67Z</time></trkpt><trkpt lat="39.07143" lon="16.5027702"><ele>1120.6666666666667</ele><time>2026-04-11T17:39:20.669Z</time></trkpt><trkpt lat="39.0715151" lon="16.5027529"><ele>1119.8333333333333</ele><time>2026-04-11T17:39:21.67Z</time></trkpt><trkpt lat="39.0716016" lon="16.5027444"><ele>1119.0</ele><time>2026-04-11T17:39:22.67Z</time></trkpt><trkpt lat="39.0716956" lon="16.5027409"><ele>1117.4</ele><time>2026-04-11T17:39:23.67Z</time></trkpt><trkpt lat="39.0717921" lon="16.5027426"><ele>1115.8000000000002</ele><time>2026-04-11T17:39:24.669Z</time></trkpt><trkpt lat="39.0718981" lon="16.502752"><ele>1114.1999999999998</ele><time>2026-04-11T17:39:25.67Z</time></trkpt><trkpt lat="39.0720067" lon="16.5027668"><ele>1112.6</ele><time>2026-04-11T17:39:26.669Z</time></trkpt><trkpt lat="39.0721217" lon="16.5027798"><ele>1111.0</ele><time>2026-04-11T17:39:27.669Z</time></trkpt><trkpt lat="39.0722371" lon="16.5027914"><ele>1111.0</ele><time>2026-04-11T17:39:28.67Z</time></trkpt><trkpt lat="39.0723537" lon="16.5028086"><ele>1111.0</ele><time>2026-04-11T17:39:29.669Z</time></trkpt><trkpt lat="39.0724692" lon="16.5028308"><ele>1111.0</ele><time>2026-04-11T17:39:30.67Z</time></trkpt><trkpt lat="39.0725829" lon="16.5028568"><ele>1111.0</ele><time>2026-04-11T17:39:31.67Z</time></trkpt><trkpt lat="39.072706" lon="16.5029037"><ele>1111.0</ele><time>2026-04-11T17:39:32.67Z</time></trkpt><trkpt lat="39.0728175" lon="16.5029381"><ele>1111.0</ele><time>2026-04-11T17:39:33.67Z</time></trkpt><trkpt lat="39.0729155" lon="16.5029675"><ele>1111.0</ele><time>2026-04-11T17:39:34.669Z</time></trkpt><trkpt lat="39.0730057" lon="16.5030112"><ele>1111.0</ele><time>2026-04-11T17:39:35.669Z</time></trkpt><trkpt lat="39.073077" lon="16.5030644"><ele>1111.0</ele><time>2026-04-11T17:39:36.669Z</time></trkpt><trkpt lat="39.0731382" lon="16.5031257"><ele>1111.0</ele><time>2026-04-11T17:39:37.669Z</time></trkpt><trkpt lat="39.0731944" lon="16.5032151"><ele>1111.0</ele><time>2026-04-11T17:39:38.67Z</time></trkpt><trkpt lat="39.0732386" lon="16.5033202"><ele>1111.0</ele><time>2026-04-11T17:39:39.67Z</time></trkpt><trkpt lat="39.0732859" lon="16.5034204"><ele>1111.0</ele><time>2026-04-11T17:39:40.669Z</time></trkpt><trkpt lat="39.0733403" lon="16.5035091"><ele>1111.0</ele><time>2026-04-11T17:39:41.669Z</time></trkpt><trkpt lat="39.0733931" lon="16.503589"><ele>1111.0</ele><time>2026-04-11T17:39:42.669Z</time></trkpt><trkpt lat="39.0734528" lon="16.5036623"><ele>1109.8333333333333</ele><time>2026-04-11T17:39:43.669Z</time></trkpt><trkpt lat="39.0735211" lon="16.50373"><ele>1108.6666666666665</ele><time>2026-04-11T17:39:44.669Z</time></trkpt><trkpt lat="39.073585" lon="16.5037918"><ele>1107.5</ele><time>2026-04-11T17:39:45.67Z</time></trkpt><trkpt lat="39.0736438" lon="16.5038527"><ele>1106.3333333333333</ele><time>2026-04-11T17:39:46.669Z</time></trkpt><trkpt lat="39.0737015" lon="16.5039208"><ele>1105.1666666666667</ele><time>2026-04-11T17:39:47.669Z</time></trkpt><trkpt lat="39.0737607" lon="16.5040063"><ele>1104.0</ele><time>2026-04-11T17:39:48.67Z</time></trkpt><trkpt lat="39.0738132" lon="16.5041044"><ele>1104.0</ele><time>2026-04-11T17:39:49.669Z</time></trkpt><trkpt lat="39.0738618" lon="16.5042067"><ele>1104.0</ele><time>2026-04-11T17:39:50.669Z</time></trkpt><trkpt lat="39.0739142" lon="16.5043046"><ele>1104.0</ele><time>2026-04-11T17:39:51.669Z</time></trkpt><trkpt lat="39.0739725" lon="16.5044082"><ele>1104.0</ele><time>2026-04-11T17:39:52.669Z</time></trkpt><trkpt lat="39.0740385" lon="16.5045164"><ele>1104.0</ele><time>2026-04-11T17:39:53.669Z</time></trkpt><trkpt lat="39.07411" lon="16.5046262"><ele>1101.4</ele><time>2026-04-11T17:39:54.67Z</time></trkpt><trkpt lat="39.074175" lon="16.5047362"><ele>1098.8000000000002</ele><time>2026-04-11T17:39:55.669Z</time></trkpt><trkpt lat="39.074237" lon="16.5048492"><ele>1096.1999999999998</ele><time>2026-04-11T17:39:56.669Z</time></trkpt><trkpt lat="39.0743027" lon="16.504969"><ele>1093.6</ele><time>2026-04-11T17:39:57.669Z</time></trkpt><trkpt lat="39.0743713" lon="16.5050881"><ele>1091.0</ele><time>2026-04-11T17:39:58.67Z</time></trkpt><trkpt lat="39.074437" lon="16.5052019"><ele>1091.0</ele><time>2026-04-11T17:39:59.67Z</time></trkpt><trkpt lat="39.0744915" lon="16.5053077"><ele>1091.0</ele><time>2026-04-11T17:40:00.67Z</time></trkpt><trkpt lat="39.0745543" lon="16.5054138"><ele>1091.0</ele><time>2026-04-11T17:40:01.67Z</time></trkpt><trkpt lat="39.0746073" lon="16.5055195"><ele>1091.0</ele><time>2026-04-11T17:40:02.67Z</time></trkpt><trkpt lat="39.0746619" lon="16.5056189"><ele>1091.0</ele><time>2026-04-11T17:40:03.671Z</time></trkpt><trkpt lat="39.0747153" lon="16.5057222"><ele>1091.0</ele><time>2026-04-11T17:40:04.671Z</time></trkpt><trkpt lat="39.0747684" lon="16.5058153"><ele>1091.0</ele><time>2026-04-11T17:40:05.671Z</time></trkpt><trkpt lat="39.0748324" lon="16.5059108"><ele>1091.0</ele><time>2026-04-11T17:40:06.671Z</time></trkpt><trkpt lat="39.0748914" lon="16.5059965"><ele>1091.0</ele><time>2026-04-11T17:40:07.67Z</time></trkpt><trkpt lat="39.0749533" lon="16.5060734"><ele>1091.0</ele><time>2026-04-11T17:40:08.67Z</time></trkpt><trkpt lat="39.0750281" lon="16.5061491"><ele>1090.8</ele><time>2026-04-11T17:40:09.67Z</time></trkpt><trkpt lat="39.0751061" lon="16.5062199"><ele>1090.6</ele><time>2026-04-11T17:40:10.67Z</time></trkpt><trkpt lat="39.0751956" lon="16.5062894"><ele>1090.4</ele><time>2026-04-11T17:40:11.67Z</time></trkpt><trkpt lat="39.0752943" lon="16.506358"><ele>1090.2</ele><time>2026-04-11T17:40:12.671Z</time></trkpt><trkpt lat="39.0753979" lon="16.506426"><ele>1090.0</ele><time>2026-04-11T17:40:13.67Z</time></trkpt><trkpt lat="39.0754949" lon="16.5064997"><ele>1090.0</ele><time>2026-04-11T17:40:14.67Z</time></trkpt><trkpt lat="39.0755905" lon="16.506566"><ele>1090.0</ele><time>2026-04-11T17:40:15.671Z</time></trkpt><trkpt lat="39.0756804" lon="16.5066435"><ele>1090.0</ele><time>2026-04-11T17:40:16.671Z</time></trkpt><trkpt lat="39.0757616" lon="16.5067073"><ele>1090.0</ele><time>2026-04-11T17:40:17.671Z</time></trkpt><trkpt lat="39.0758414" lon="16.5067503"><ele>1090.0</ele><time>2026-04-11T17:40:18.67Z</time></trkpt><trkpt lat="39.0759252" lon="16.5067606"><ele>1089.3333333333333</ele><time>2026-04-11T17:40:19.67Z</time></trkpt><trkpt lat="39.0760106" lon="16.5067487"><ele>1088.6666666666665</ele><time>2026-04-11T17:40:20.67Z</time></trkpt><trkpt lat="39.0760952" lon="16.5067335"><ele>1088.0</ele><time>2026-04-11T17:40:21.67Z</time></trkpt><trkpt lat="39.0761711" lon="16.5067263"><ele>1087.3333333333333</ele><time>2026-04-11T17:40:22.671Z</time></trkpt><trkpt lat="39.0762405" lon="16.5067339"><ele>1086.6666666666667</ele><time>2026-04-11T17:40:23.67Z</time></trkpt><trkpt lat="39.0763093" lon="16.5067686"><ele>1086.0</ele><time>2026-04-11T17:40:24.67Z</time></trkpt><trkpt lat="39.0763675" lon="16.506828"><ele>1086.0</ele><time>2026-04-11T17:40:25.67Z</time></trkpt><trkpt lat="39.076424" lon="16.5069145"><ele>1086.0</ele><time>2026-04-11T17:40:26.671Z</time></trkpt><trkpt lat="39.0764746" lon="16.5070182"><ele>1086.0</ele><time>2026-04-11T17:40:27.67Z</time></trkpt><trkpt lat="39.0765208" lon="16.5071284"><ele>1086.0</ele><time>2026-04-11T17:40:28.67Z</time></trkpt><trkpt lat="39.0765687" lon="16.5072358"><ele>1086.0</ele><time>2026-04-11T17:40:29.671Z</time></trkpt><trkpt lat="39.0766307" lon="16.5073403"><ele>1086.6</ele><time>2026-04-11T17:40:30.67Z</time></trkpt><trkpt lat="39.0767048" lon="16.5074317"><ele>1087.1999999999998</ele><time>2026-04-11T17:40:31.671Z</time></trkpt><trkpt lat="39.0767853" lon="16.5075213"><ele>1087.8000000000002</ele><time>2026-04-11T17:40:32.67Z</time></trkpt><trkpt lat="39.0768739" lon="16.5076044"><ele>1088.4</ele><time>2026-04-11T17:40:33.671Z</time></trkpt><trkpt lat="39.0769669" lon="16.5076808"><ele>1089.0</ele><time>2026-04-11T17:40:34.671Z</time></trkpt><trkpt lat="39.0770619" lon="16.5077498"><ele>1089.0</ele><time>2026-04-11T17:40:35.671Z</time></trkpt><trkpt lat="39.0771477" lon="16.5078249"><ele>1089.0</ele><time>2026-04-11T17:40:36.671Z</time></trkpt><trkpt lat="39.0772328" lon="16.5079051"><ele>1089.0</ele><time>2026-04-11T17:40:37.671Z</time></trkpt><trkpt lat="39.0773205" lon="16.5079825"><ele>1089.0</ele><time>2026-04-11T17:40:38.671Z</time></trkpt><trkpt lat="39.0773972" lon="16.5080464"><ele>1089.0</ele><time>2026-04-11T17:40:39.671Z</time></trkpt><trkpt lat="39.0774765" lon="16.5081195"><ele>1085.4</ele><time>2026-04-11T17:40:40.67Z</time></trkpt><trkpt lat="39.0775636" lon="16.5081933"><ele>1081.8000000000002</ele><time>2026-04-11T17:40:41.67Z</time></trkpt><trkpt lat="39.0776538" lon="16.5082624"><ele>1078.1999999999998</ele><time>2026-04-11T17:40:42.67Z</time></trkpt><trkpt lat="39.077747" lon="16.5083307"><ele>1074.6</ele><time>2026-04-11T17:40:43.67Z</time></trkpt><trkpt lat="39.0778453" lon="16.5083937"><ele>1071.0</ele><time>2026-04-11T17:40:44.671Z</time></trkpt><trkpt lat="39.0779395" lon="16.5084599"><ele>1071.0</ele><time>2026-04-11T17:40:45.671Z</time></trkpt><trkpt lat="39.07803" lon="16.5085352"><ele>1071.0</ele><time>2026-04-11T17:40:46.67Z</time></trkpt><trkpt lat="39.0781197" lon="16.5086178"><ele>1071.0</ele><time>2026-04-11T17:40:47.67Z</time></trkpt><trkpt lat="39.0782066" lon="16.5086928"><ele>1071.0</ele><time>2026-04-11T17:40:48.671Z</time></trkpt><trkpt lat="39.0782869" lon="16.5087671"><ele>1071.0</ele><time>2026-04-11T17:40:49.67Z</time></trkpt><trkpt lat="39.0783544" lon="16.5088398"><ele>1070.8</ele><time>2026-04-11T17:40:50.671Z</time></trkpt><trkpt lat="39.078396" lon="16.5089645"><ele>1070.6</ele><time>2026-04-11T17:40:52.671Z</time></trkpt><trkpt lat="39.0783569" lon="16.5090616"><ele>1070.4</ele><time>2026-04-11T17:41:57.671Z</time></trkpt><trkpt lat="39.0782884" lon="16.5091553"><ele>1070.2</ele><time>2026-04-11T17:41:59.671Z</time></trkpt><trkpt lat="39.0782303" lon="16.5092129"><ele>1070.0</ele><time>2026-04-11T17:42:00.671Z</time></trkpt><trkpt lat="39.0781543" lon="16.5092761"><ele>1070.0</ele><time>2026-04-11T17:42:01.67Z</time></trkpt><trkpt lat="39.0780678" lon="16.5093482"><ele>1070.0</ele><time>2026-04-11T17:42:02.671Z</time></trkpt><trkpt lat="39.0779764" lon="16.509424"><ele>1070.0</ele><time>2026-04-11T17:42:03.671Z</time></trkpt><trkpt lat="39.0778734" lon="16.5095046"><ele>1070.0</ele><time>2026-04-11T17:42:04.671Z</time></trkpt><trkpt lat="39.077769" lon="16.5095865"><ele>1070.75</ele><time>2026-04-11T17:42:05.67Z</time></trkpt><trkpt lat="39.0776608" lon="16.5096748"><ele>1071.5</ele><time>2026-04-11T17:42:06.671Z</time></trkpt><trkpt lat="39.0775486" lon="16.5097643"><ele>1072.25</ele><time>2026-04-11T17:42:07.671Z</time></trkpt><trkpt lat="39.0774377" lon="16.5098561"><ele>1073.0</ele><time>2026-04-11T17:42:08.671Z</time></trkpt><trkpt lat="39.0773269" lon="16.5099596"><ele>1073.0</ele><time>2026-04-11T17:42:09.671Z</time></trkpt><trkpt lat="39.0772118" lon="16.510064"><ele>1073.0</ele><time>2026-04-11T17:42:10.67Z</time></trkpt><trkpt lat="39.0770926" lon="16.5101648"><ele>1073.0</ele><time>2026-04-11T17:42:11.67Z</time></trkpt><trkpt lat="39.0769782" lon="16.510267"><ele>1073.0</ele><time>2026-04-11T17:42:12.67Z</time></trkpt><trkpt lat="39.0768574" lon="16.510365"><ele>1071.75</ele><time>2026-04-11T17:42:13.671Z</time></trkpt><trkpt lat="39.0767396" lon="16.5104568"><ele>1070.5</ele><time>2026-04-11T17:42:14.671Z</time></trkpt><trkpt lat="39.0766252" lon="16.5105478"><ele>1069.25</ele><time>2026-04-11T17:42:15.671Z</time></trkpt><trkpt lat="39.0765136" lon="16.5106447"><ele>1068.0</ele><time>2026-04-11T17:42:16.671Z</time></trkpt><trkpt lat="39.0764064" lon="16.5107385"><ele>1068.0</ele><time>2026-04-11T17:42:17.67Z</time></trkpt><trkpt lat="39.0762985" lon="16.5108292"><ele>1068.0</ele><time>2026-04-11T17:42:18.671Z</time></trkpt><trkpt lat="39.0761868" lon="16.5109151"><ele>1068.0</ele><time>2026-04-11T17:42:19.671Z</time></trkpt><trkpt lat="39.0760769" lon="16.5110018"><ele>1068.0</ele><time>2026-04-11T17:42:20.671Z</time></trkpt><trkpt lat="39.0759722" lon="16.5110939"><ele>1068.0</ele><time>2026-04-11T17:42:21.67Z</time></trkpt><trkpt lat="39.0758679" lon="16.5111879"><ele>1068.0</ele><time>2026-04-11T17:42:22.67Z</time></trkpt><trkpt lat="39.0757584" lon="16.5112861"><ele>1068.0</ele><time>2026-04-11T17:42:23.67Z</time></trkpt><trkpt lat="39.0756397" lon="16.5113818"><ele>1068.0</ele><time>2026-04-11T17:42:24.67Z</time></trkpt><trkpt lat="39.0755257" lon="16.5114782"><ele>1068.0</ele><time>2026-04-11T17:42:25.67Z</time></trkpt><trkpt lat="39.0754181" lon="16.5115704"><ele>1068.0</ele><time>2026-04-11T17:42:26.67Z</time></trkpt><trkpt lat="39.0753101" lon="16.5116606"><ele>1068.0</ele><time>2026-04-11T17:42:27.671Z</time></trkpt><trkpt lat="39.0752049" lon="16.5117566"><ele>1068.0</ele><time>2026-04-11T17:42:28.67Z</time></trkpt><trkpt lat="39.075103" lon="16.5118548"><ele>1068.0</ele><time>2026-04-11T17:42:29.67Z</time></trkpt><trkpt lat="39.0750139" lon="16.5119596"><ele>1068.0</ele><time>2026-04-11T17:42:30.671Z</time></trkpt><trkpt lat="39.0749323" lon="16.5120711"><ele>1068.0</ele><time>2026-04-11T17:42:31.67Z</time></trkpt><trkpt lat="39.0748619" lon="16.5121556"><ele>1068.0</ele><time>2026-04-11T17:42:32.67Z</time></trkpt><trkpt lat="39.0747984" lon="16.5122772"><ele>1067.4</ele><time>2026-04-11T17:42:33.67Z</time></trkpt><trkpt lat="39.0747437" lon="16.5124062"><ele>1066.8</ele><time>2026-04-11T17:42:34.67Z</time></trkpt><trkpt lat="39.0746917" lon="16.5125358"><ele>1066.2</ele><time>2026-04-11T17:42:35.67Z</time></trkpt><trkpt lat="39.0746322" lon="16.5126554"><ele>1065.6</ele><time>2026-04-11T17:42:36.671Z</time></trkpt><trkpt lat="39.0745724" lon="16.5127547"><ele>1065.0</ele><time>2026-04-11T17:42:37.671Z</time></trkpt><trkpt lat="39.0745185" lon="16.5128537"><ele>1065.2</ele><time>2026-04-11T17:42:38.671Z</time></trkpt><trkpt lat="39.0744678" lon="16.5129559"><ele>1065.4</ele><time>2026-04-11T17:42:39.671Z</time></trkpt><trkpt lat="39.0744216" lon="16.5130497"><ele>1065.6</ele><time>2026-04-11T17:42:40.67Z</time></trkpt><trkpt lat="39.0743669" lon="16.513169"><ele>1065.8</ele><time>2026-04-11T17:42:42.67Z</time></trkpt><trkpt lat="39.0743781" lon="16.5132836"><ele>1066.0</ele><time>2026-04-11T17:42:44.671Z</time></trkpt><trkpt lat="39.0744209" lon="16.513391"><ele>1066.0</ele><time>2026-04-11T17:42:46.671Z</time></trkpt><trkpt lat="39.0744564" lon="16.5135023"><ele>1066.0</ele><time>2026-04-11T17:42:48.67Z</time></trkpt><trkpt lat="39.0745033" lon="16.5135837"><ele>1066.0</ele><time>2026-04-11T17:42:51.67Z</time></trkpt><trkpt lat="39.0745495" lon="16.5136454"><ele>1066.0</ele><time>2026-04-11T17:42:54.671Z</time></trkpt></trkseg></trk></gpx>